<?xml version="1.0" encoding="UTF-8" standalone="no" ?>
<gpx xmlns="http://www.topografix.com/GPX/1/1" xmlns:xsi="http://www.w3.org/2001/XMLSchema-instance" xsi:schemaLocation="http://www.topografix.com/GPX/1/1 http://www.topografix.com/GPX/1/1/gpx.xsd" version="1.1" creator="VisuGPX - https://www.visugpx.com">
  <metadata>
    <name>Vtt Vezin </name>
  </metadata>
  <trk>
    <name><![CDATA[Vtt Vezin _1]]></name>
    <trkseg>
      <trkpt lat="44.26244" lon="2.92145">
        <ele>886.8</ele>
        <time>2021-08-20T12:04:51Z</time>
      </trkpt>
      <trkpt lat="44.26245" lon="2.92146">
        <ele>879.8</ele>
        <time>2021-08-20T12:04:52Z</time>
      </trkpt>
      <trkpt lat="44.26245" lon="2.92146">
        <ele>879.8</ele>
        <time>2021-08-20T12:04:53Z</time>
      </trkpt>
      <trkpt lat="44.26249" lon="2.92152">
        <ele>879.2</ele>
        <time>2021-08-20T12:05:57Z</time>
      </trkpt>
      <trkpt lat="44.26249" lon="2.92154">
        <ele>879.2</ele>
        <time>2021-08-20T12:05:58Z</time>
      </trkpt>
      <trkpt lat="44.26249" lon="2.92155">
        <ele>879.2</ele>
        <time>2021-08-20T12:05:59Z</time>
      </trkpt>
      <trkpt lat="44.26249" lon="2.92155">
        <ele>879.4</ele>
        <time>2021-08-20T12:07:00Z</time>
      </trkpt>
      <trkpt lat="44.26244" lon="2.92161">
        <ele>879.4</ele>
        <time>2021-08-20T12:07:02Z</time>
      </trkpt>
      <trkpt lat="44.26243" lon="2.92163">
        <ele>879.2</ele>
        <time>2021-08-20T12:07:03Z</time>
      </trkpt>
      <trkpt lat="44.26235" lon="2.92177">
        <ele>879</ele>
        <time>2021-08-20T12:07:07Z</time>
      </trkpt>
      <trkpt lat="44.2623" lon="2.92187">
        <ele>878.8</ele>
        <time>2021-08-20T12:07:09Z</time>
      </trkpt>
      <trkpt lat="44.26227" lon="2.92193">
        <ele>878.8</ele>
        <time>2021-08-20T12:07:10Z</time>
      </trkpt>
      <trkpt lat="44.26224" lon="2.92206">
        <ele>878.6</ele>
        <time>2021-08-20T12:07:12Z</time>
      </trkpt>
      <trkpt lat="44.26217" lon="2.92227">
        <ele>877.8</ele>
        <time>2021-08-20T12:07:15Z</time>
      </trkpt>
      <trkpt lat="44.26216" lon="2.92234">
        <ele>877.8</ele>
        <time>2021-08-20T12:07:16Z</time>
      </trkpt>
      <trkpt lat="44.26215" lon="2.9224">
        <ele>877.4</ele>
        <time>2021-08-20T12:07:17Z</time>
      </trkpt>
      <trkpt lat="44.26215" lon="2.92246">
        <ele>877.2</ele>
        <time>2021-08-20T12:07:18Z</time>
      </trkpt>
      <trkpt lat="44.26216" lon="2.92252">
        <ele>877</ele>
        <time>2021-08-20T12:07:19Z</time>
      </trkpt>
      <trkpt lat="44.26216" lon="2.92258">
        <ele>877</ele>
        <time>2021-08-20T12:07:20Z</time>
      </trkpt>
      <trkpt lat="44.26216" lon="2.92263">
        <ele>877</ele>
        <time>2021-08-20T12:07:21Z</time>
      </trkpt>
      <trkpt lat="44.26217" lon="2.92267">
        <ele>877</ele>
        <time>2021-08-20T12:07:22Z</time>
      </trkpt>
      <trkpt lat="44.26218" lon="2.92271">
        <ele>877</ele>
        <time>2021-08-20T12:07:23Z</time>
      </trkpt>
      <trkpt lat="44.26219" lon="2.92275">
        <ele>877</ele>
        <time>2021-08-20T12:07:24Z</time>
      </trkpt>
      <trkpt lat="44.2622" lon="2.92279">
        <ele>877</ele>
        <time>2021-08-20T12:07:25Z</time>
      </trkpt>
      <trkpt lat="44.26221" lon="2.92283">
        <ele>877.2</ele>
        <time>2021-08-20T12:07:26Z</time>
      </trkpt>
      <trkpt lat="44.26221" lon="2.92287">
        <ele>877.2</ele>
        <time>2021-08-20T12:07:27Z</time>
      </trkpt>
      <trkpt lat="44.26222" lon="2.92291">
        <ele>877.4</ele>
        <time>2021-08-20T12:07:28Z</time>
      </trkpt>
      <trkpt lat="44.26224" lon="2.92296">
        <ele>877.4</ele>
        <time>2021-08-20T12:07:29Z</time>
      </trkpt>
      <trkpt lat="44.26224" lon="2.92296">
        <ele>877.6</ele>
        <time>2021-08-20T12:07:30Z</time>
      </trkpt>
      <trkpt lat="44.26227" lon="2.92302">
        <ele>877.6</ele>
        <time>2021-08-20T12:07:31Z</time>
      </trkpt>
      <trkpt lat="44.26228" lon="2.92304">
        <ele>877.8</ele>
        <time>2021-08-20T12:07:32Z</time>
      </trkpt>
      <trkpt lat="44.2623" lon="2.92305">
        <ele>878</ele>
        <time>2021-08-20T12:07:33Z</time>
      </trkpt>
      <trkpt lat="44.26233" lon="2.92306">
        <ele>878.2</ele>
        <time>2021-08-20T12:07:34Z</time>
      </trkpt>
      <trkpt lat="44.26235" lon="2.92306">
        <ele>878.2</ele>
        <time>2021-08-20T12:07:35Z</time>
      </trkpt>
      <trkpt lat="44.26237" lon="2.92306">
        <ele>878.4</ele>
        <time>2021-08-20T12:07:36Z</time>
      </trkpt>
      <trkpt lat="44.26239" lon="2.92305">
        <ele>878.6</ele>
        <time>2021-08-20T12:07:37Z</time>
      </trkpt>
      <trkpt lat="44.26241" lon="2.92305">
        <ele>879</ele>
        <time>2021-08-20T12:07:38Z</time>
      </trkpt>
      <trkpt lat="44.26242" lon="2.92304">
        <ele>879.2</ele>
        <time>2021-08-20T12:07:39Z</time>
      </trkpt>
      <trkpt lat="44.26244" lon="2.92303">
        <ele>879.6</ele>
        <time>2021-08-20T12:07:40Z</time>
      </trkpt>
      <trkpt lat="44.26245" lon="2.92302">
        <ele>879.6</ele>
        <time>2021-08-20T12:07:41Z</time>
      </trkpt>
      <trkpt lat="44.26247" lon="2.92301">
        <ele>879.8</ele>
        <time>2021-08-20T12:07:42Z</time>
      </trkpt>
      <trkpt lat="44.2625" lon="2.923">
        <ele>880.2</ele>
        <time>2021-08-20T12:07:44Z</time>
      </trkpt>
      <trkpt lat="44.26253" lon="2.923">
        <ele>880.6</ele>
        <time>2021-08-20T12:07:46Z</time>
      </trkpt>
      <trkpt lat="44.26255" lon="2.92299">
        <ele>880.8</ele>
        <time>2021-08-20T12:07:47Z</time>
      </trkpt>
      <trkpt lat="44.26256" lon="2.92297">
        <ele>881</ele>
        <time>2021-08-20T12:07:48Z</time>
      </trkpt>
      <trkpt lat="44.26258" lon="2.92296">
        <ele>881</ele>
        <time>2021-08-20T12:07:49Z</time>
      </trkpt>
      <trkpt lat="44.2626" lon="2.92295">
        <ele>881.2</ele>
        <time>2021-08-20T12:07:50Z</time>
      </trkpt>
      <trkpt lat="44.26262" lon="2.92294">
        <ele>881.2</ele>
        <time>2021-08-20T12:07:51Z</time>
      </trkpt>
      <trkpt lat="44.26264" lon="2.92293">
        <ele>881.2</ele>
        <time>2021-08-20T12:07:52Z</time>
      </trkpt>
      <trkpt lat="44.26266" lon="2.92294">
        <ele>881.4</ele>
        <time>2021-08-20T12:07:53Z</time>
      </trkpt>
      <trkpt lat="44.26268" lon="2.92293">
        <ele>881.8</ele>
        <time>2021-08-20T12:07:54Z</time>
      </trkpt>
      <trkpt lat="44.2627" lon="2.92293">
        <ele>881.8</ele>
        <time>2021-08-20T12:07:55Z</time>
      </trkpt>
      <trkpt lat="44.26272" lon="2.92292">
        <ele>882</ele>
        <time>2021-08-20T12:07:56Z</time>
      </trkpt>
      <trkpt lat="44.26274" lon="2.92292">
        <ele>882.2</ele>
        <time>2021-08-20T12:07:57Z</time>
      </trkpt>
      <trkpt lat="44.26276" lon="2.92291">
        <ele>882.4</ele>
        <time>2021-08-20T12:07:58Z</time>
      </trkpt>
      <trkpt lat="44.26278" lon="2.9229">
        <ele>882.4</ele>
        <time>2021-08-20T12:07:59Z</time>
      </trkpt>
      <trkpt lat="44.26279" lon="2.92289">
        <ele>882.6</ele>
        <time>2021-08-20T12:08:00Z</time>
      </trkpt>
      <trkpt lat="44.26281" lon="2.92289">
        <ele>883</ele>
        <time>2021-08-20T12:08:01Z</time>
      </trkpt>
      <trkpt lat="44.26282" lon="2.92289">
        <ele>883.4</ele>
        <time>2021-08-20T12:08:02Z</time>
      </trkpt>
      <trkpt lat="44.26284" lon="2.92289">
        <ele>883.6</ele>
        <time>2021-08-20T12:08:03Z</time>
      </trkpt>
      <trkpt lat="44.26285" lon="2.92291">
        <ele>883.8</ele>
        <time>2021-08-20T12:08:04Z</time>
      </trkpt>
      <trkpt lat="44.26286" lon="2.92291">
        <ele>884</ele>
        <time>2021-08-20T12:08:05Z</time>
      </trkpt>
      <trkpt lat="44.26288" lon="2.9229">
        <ele>884.2</ele>
        <time>2021-08-20T12:08:06Z</time>
      </trkpt>
      <trkpt lat="44.2629" lon="2.92289">
        <ele>884.2</ele>
        <time>2021-08-20T12:08:07Z</time>
      </trkpt>
      <trkpt lat="44.26292" lon="2.9229">
        <ele>884.4</ele>
        <time>2021-08-20T12:08:08Z</time>
      </trkpt>
      <trkpt lat="44.26293" lon="2.92289">
        <ele>884.6</ele>
        <time>2021-08-20T12:08:09Z</time>
      </trkpt>
      <trkpt lat="44.26295" lon="2.92287">
        <ele>884.6</ele>
        <time>2021-08-20T12:08:10Z</time>
      </trkpt>
      <trkpt lat="44.26296" lon="2.92285">
        <ele>885</ele>
        <time>2021-08-20T12:08:11Z</time>
      </trkpt>
      <trkpt lat="44.26297" lon="2.92285">
        <ele>885.4</ele>
        <time>2021-08-20T12:08:12Z</time>
      </trkpt>
      <trkpt lat="44.26297" lon="2.92282">
        <ele>887</ele>
        <time>2021-08-20T12:08:43Z</time>
      </trkpt>
      <trkpt lat="44.26298" lon="2.9228">
        <ele>887</ele>
        <time>2021-08-20T12:08:44Z</time>
      </trkpt>
      <trkpt lat="44.26299" lon="2.92278">
        <ele>887</ele>
        <time>2021-08-20T12:08:45Z</time>
      </trkpt>
      <trkpt lat="44.26303" lon="2.92274">
        <ele>887</ele>
        <time>2021-08-20T12:08:47Z</time>
      </trkpt>
      <trkpt lat="44.26305" lon="2.92273">
        <ele>887.2</ele>
        <time>2021-08-20T12:08:48Z</time>
      </trkpt>
      <trkpt lat="44.26307" lon="2.92272">
        <ele>887.2</ele>
        <time>2021-08-20T12:08:49Z</time>
      </trkpt>
      <trkpt lat="44.2631" lon="2.92272">
        <ele>887.4</ele>
        <time>2021-08-20T12:08:50Z</time>
      </trkpt>
      <trkpt lat="44.26312" lon="2.92271">
        <ele>887.6</ele>
        <time>2021-08-20T12:08:51Z</time>
      </trkpt>
      <trkpt lat="44.26319" lon="2.92271">
        <ele>888</ele>
        <time>2021-08-20T12:08:54Z</time>
      </trkpt>
      <trkpt lat="44.26321" lon="2.9227">
        <ele>888</ele>
        <time>2021-08-20T12:08:55Z</time>
      </trkpt>
      <trkpt lat="44.26324" lon="2.92269">
        <ele>888.2</ele>
        <time>2021-08-20T12:08:56Z</time>
      </trkpt>
      <trkpt lat="44.26326" lon="2.92268">
        <ele>888.2</ele>
        <time>2021-08-20T12:08:57Z</time>
      </trkpt>
      <trkpt lat="44.26328" lon="2.92266">
        <ele>888.4</ele>
        <time>2021-08-20T12:08:58Z</time>
      </trkpt>
      <trkpt lat="44.2633" lon="2.92265">
        <ele>888.6</ele>
        <time>2021-08-20T12:08:59Z</time>
      </trkpt>
      <trkpt lat="44.26332" lon="2.92264">
        <ele>888.8</ele>
        <time>2021-08-20T12:09:00Z</time>
      </trkpt>
      <trkpt lat="44.26334" lon="2.92263">
        <ele>889</ele>
        <time>2021-08-20T12:09:01Z</time>
      </trkpt>
      <trkpt lat="44.26336" lon="2.92261">
        <ele>889</ele>
        <time>2021-08-20T12:09:02Z</time>
      </trkpt>
      <trkpt lat="44.26338" lon="2.9226">
        <ele>889.2</ele>
        <time>2021-08-20T12:09:03Z</time>
      </trkpt>
      <trkpt lat="44.2634" lon="2.92258">
        <ele>889.6</ele>
        <time>2021-08-20T12:09:04Z</time>
      </trkpt>
      <trkpt lat="44.26344" lon="2.92255">
        <ele>890.6</ele>
        <time>2021-08-20T12:09:06Z</time>
      </trkpt>
      <trkpt lat="44.26345" lon="2.92253">
        <ele>890.8</ele>
        <time>2021-08-20T12:09:07Z</time>
      </trkpt>
      <trkpt lat="44.26347" lon="2.92251">
        <ele>891</ele>
        <time>2021-08-20T12:09:08Z</time>
      </trkpt>
      <trkpt lat="44.26349" lon="2.92249">
        <ele>891.2</ele>
        <time>2021-08-20T12:09:09Z</time>
      </trkpt>
      <trkpt lat="44.2635" lon="2.92247">
        <ele>891.4</ele>
        <time>2021-08-20T12:09:10Z</time>
      </trkpt>
      <trkpt lat="44.26352" lon="2.92246">
        <ele>891.6</ele>
        <time>2021-08-20T12:09:11Z</time>
      </trkpt>
      <trkpt lat="44.26354" lon="2.92244">
        <ele>892</ele>
        <time>2021-08-20T12:09:12Z</time>
      </trkpt>
      <trkpt lat="44.26356" lon="2.92242">
        <ele>892.2</ele>
        <time>2021-08-20T12:09:13Z</time>
      </trkpt>
      <trkpt lat="44.26357" lon="2.9224">
        <ele>892.4</ele>
        <time>2021-08-20T12:09:14Z</time>
      </trkpt>
      <trkpt lat="44.26359" lon="2.92239">
        <ele>892.6</ele>
        <time>2021-08-20T12:09:15Z</time>
      </trkpt>
      <trkpt lat="44.2636" lon="2.92237">
        <ele>892.8</ele>
        <time>2021-08-20T12:09:16Z</time>
      </trkpt>
      <trkpt lat="44.26362" lon="2.92236">
        <ele>893</ele>
        <time>2021-08-20T12:09:17Z</time>
      </trkpt>
      <trkpt lat="44.26364" lon="2.92234">
        <ele>893.2</ele>
        <time>2021-08-20T12:09:18Z</time>
      </trkpt>
      <trkpt lat="44.26366" lon="2.92233">
        <ele>893.6</ele>
        <time>2021-08-20T12:09:19Z</time>
      </trkpt>
      <trkpt lat="44.26367" lon="2.92231">
        <ele>893.8</ele>
        <time>2021-08-20T12:09:20Z</time>
      </trkpt>
      <trkpt lat="44.26369" lon="2.92229">
        <ele>894.2</ele>
        <time>2021-08-20T12:09:21Z</time>
      </trkpt>
      <trkpt lat="44.26371" lon="2.92228">
        <ele>894.6</ele>
        <time>2021-08-20T12:09:22Z</time>
      </trkpt>
      <trkpt lat="44.26372" lon="2.92226">
        <ele>894.8</ele>
        <time>2021-08-20T12:09:23Z</time>
      </trkpt>
      <trkpt lat="44.26374" lon="2.92225">
        <ele>895</ele>
        <time>2021-08-20T12:09:24Z</time>
      </trkpt>
      <trkpt lat="44.26376" lon="2.92223">
        <ele>895</ele>
        <time>2021-08-20T12:09:25Z</time>
      </trkpt>
      <trkpt lat="44.26378" lon="2.92222">
        <ele>895.2</ele>
        <time>2021-08-20T12:09:26Z</time>
      </trkpt>
      <trkpt lat="44.26379" lon="2.9222">
        <ele>895.2</ele>
        <time>2021-08-20T12:09:27Z</time>
      </trkpt>
      <trkpt lat="44.26381" lon="2.92219">
        <ele>895.6</ele>
        <time>2021-08-20T12:09:28Z</time>
      </trkpt>
      <trkpt lat="44.26382" lon="2.92217">
        <ele>895.8</ele>
        <time>2021-08-20T12:09:29Z</time>
      </trkpt>
      <trkpt lat="44.26384" lon="2.92215">
        <ele>896</ele>
        <time>2021-08-20T12:09:30Z</time>
      </trkpt>
      <trkpt lat="44.26385" lon="2.92213">
        <ele>896.2</ele>
        <time>2021-08-20T12:09:31Z</time>
      </trkpt>
      <trkpt lat="44.26387" lon="2.92211">
        <ele>896.4</ele>
        <time>2021-08-20T12:09:32Z</time>
      </trkpt>
      <trkpt lat="44.26389" lon="2.9221">
        <ele>896.6</ele>
        <time>2021-08-20T12:09:33Z</time>
      </trkpt>
      <trkpt lat="44.26391" lon="2.92208">
        <ele>896.6</ele>
        <time>2021-08-20T12:09:34Z</time>
      </trkpt>
      <trkpt lat="44.26392" lon="2.92206">
        <ele>896.8</ele>
        <time>2021-08-20T12:09:35Z</time>
      </trkpt>
      <trkpt lat="44.26394" lon="2.92204">
        <ele>897</ele>
        <time>2021-08-20T12:09:36Z</time>
      </trkpt>
      <trkpt lat="44.26396" lon="2.92202">
        <ele>897.4</ele>
        <time>2021-08-20T12:09:37Z</time>
      </trkpt>
      <trkpt lat="44.26397" lon="2.922">
        <ele>897.4</ele>
        <time>2021-08-20T12:09:38Z</time>
      </trkpt>
      <trkpt lat="44.26399" lon="2.92198">
        <ele>897.6</ele>
        <time>2021-08-20T12:09:39Z</time>
      </trkpt>
      <trkpt lat="44.26401" lon="2.92196">
        <ele>897.8</ele>
        <time>2021-08-20T12:09:40Z</time>
      </trkpt>
      <trkpt lat="44.26402" lon="2.92194">
        <ele>897.8</ele>
        <time>2021-08-20T12:09:41Z</time>
      </trkpt>
      <trkpt lat="44.26404" lon="2.92193">
        <ele>898</ele>
        <time>2021-08-20T12:09:42Z</time>
      </trkpt>
      <trkpt lat="44.26406" lon="2.92191">
        <ele>898</ele>
        <time>2021-08-20T12:09:43Z</time>
      </trkpt>
      <trkpt lat="44.26407" lon="2.9219">
        <ele>898.2</ele>
        <time>2021-08-20T12:09:44Z</time>
      </trkpt>
      <trkpt lat="44.26409" lon="2.92189">
        <ele>898.4</ele>
        <time>2021-08-20T12:09:45Z</time>
      </trkpt>
      <trkpt lat="44.2641" lon="2.92187">
        <ele>898.4</ele>
        <time>2021-08-20T12:09:46Z</time>
      </trkpt>
      <trkpt lat="44.26412" lon="2.92185">
        <ele>898.6</ele>
        <time>2021-08-20T12:09:47Z</time>
      </trkpt>
      <trkpt lat="44.26414" lon="2.92183">
        <ele>898.6</ele>
        <time>2021-08-20T12:09:48Z</time>
      </trkpt>
      <trkpt lat="44.26416" lon="2.92181">
        <ele>898.8</ele>
        <time>2021-08-20T12:09:49Z</time>
      </trkpt>
      <trkpt lat="44.26418" lon="2.9218">
        <ele>898.8</ele>
        <time>2021-08-20T12:09:50Z</time>
      </trkpt>
      <trkpt lat="44.26419" lon="2.92179">
        <ele>899</ele>
        <time>2021-08-20T12:09:51Z</time>
      </trkpt>
      <trkpt lat="44.26421" lon="2.92177">
        <ele>899</ele>
        <time>2021-08-20T12:09:52Z</time>
      </trkpt>
      <trkpt lat="44.26423" lon="2.92175">
        <ele>899.2</ele>
        <time>2021-08-20T12:09:53Z</time>
      </trkpt>
      <trkpt lat="44.26424" lon="2.92174">
        <ele>899.4</ele>
        <time>2021-08-20T12:09:54Z</time>
      </trkpt>
      <trkpt lat="44.26426" lon="2.92171">
        <ele>899.6</ele>
        <time>2021-08-20T12:09:55Z</time>
      </trkpt>
      <trkpt lat="44.26428" lon="2.9217">
        <ele>899.6</ele>
        <time>2021-08-20T12:09:56Z</time>
      </trkpt>
      <trkpt lat="44.2643" lon="2.92168">
        <ele>899.8</ele>
        <time>2021-08-20T12:09:57Z</time>
      </trkpt>
      <trkpt lat="44.26431" lon="2.92166">
        <ele>900.2</ele>
        <time>2021-08-20T12:09:58Z</time>
      </trkpt>
      <trkpt lat="44.26433" lon="2.92164">
        <ele>900.4</ele>
        <time>2021-08-20T12:09:59Z</time>
      </trkpt>
      <trkpt lat="44.26434" lon="2.92162">
        <ele>900.4</ele>
        <time>2021-08-20T12:10:00Z</time>
      </trkpt>
      <trkpt lat="44.26436" lon="2.9216">
        <ele>900.6</ele>
        <time>2021-08-20T12:10:01Z</time>
      </trkpt>
      <trkpt lat="44.26438" lon="2.92158">
        <ele>900.6</ele>
        <time>2021-08-20T12:10:02Z</time>
      </trkpt>
      <trkpt lat="44.2644" lon="2.92155">
        <ele>900.8</ele>
        <time>2021-08-20T12:10:03Z</time>
      </trkpt>
      <trkpt lat="44.26441" lon="2.92152">
        <ele>900.8</ele>
        <time>2021-08-20T12:10:04Z</time>
      </trkpt>
      <trkpt lat="44.26443" lon="2.9215">
        <ele>901</ele>
        <time>2021-08-20T12:10:05Z</time>
      </trkpt>
      <trkpt lat="44.26445" lon="2.92147">
        <ele>901</ele>
        <time>2021-08-20T12:10:06Z</time>
      </trkpt>
      <trkpt lat="44.26446" lon="2.92145">
        <ele>901.2</ele>
        <time>2021-08-20T12:10:07Z</time>
      </trkpt>
      <trkpt lat="44.26448" lon="2.92143">
        <ele>901.2</ele>
        <time>2021-08-20T12:10:08Z</time>
      </trkpt>
      <trkpt lat="44.2645" lon="2.92141">
        <ele>901.4</ele>
        <time>2021-08-20T12:10:09Z</time>
      </trkpt>
      <trkpt lat="44.26452" lon="2.92139">
        <ele>901.6</ele>
        <time>2021-08-20T12:10:10Z</time>
      </trkpt>
      <trkpt lat="44.26454" lon="2.92136">
        <ele>901.8</ele>
        <time>2021-08-20T12:10:11Z</time>
      </trkpt>
      <trkpt lat="44.26456" lon="2.92134">
        <ele>901.8</ele>
        <time>2021-08-20T12:10:12Z</time>
      </trkpt>
      <trkpt lat="44.26458" lon="2.92132">
        <ele>901.8</ele>
        <time>2021-08-20T12:10:13Z</time>
      </trkpt>
      <trkpt lat="44.2646" lon="2.92131">
        <ele>902</ele>
        <time>2021-08-20T12:10:14Z</time>
      </trkpt>
      <trkpt lat="44.26462" lon="2.92129">
        <ele>902</ele>
        <time>2021-08-20T12:10:15Z</time>
      </trkpt>
      <trkpt lat="44.26464" lon="2.92127">
        <ele>902</ele>
        <time>2021-08-20T12:10:16Z</time>
      </trkpt>
      <trkpt lat="44.26466" lon="2.92125">
        <ele>902</ele>
        <time>2021-08-20T12:10:17Z</time>
      </trkpt>
      <trkpt lat="44.26468" lon="2.92124">
        <ele>902</ele>
        <time>2021-08-20T12:10:18Z</time>
      </trkpt>
      <trkpt lat="44.2647" lon="2.92122">
        <ele>902</ele>
        <time>2021-08-20T12:10:19Z</time>
      </trkpt>
      <trkpt lat="44.26472" lon="2.9212">
        <ele>902.2</ele>
        <time>2021-08-20T12:10:20Z</time>
      </trkpt>
      <trkpt lat="44.26474" lon="2.92119">
        <ele>902.4</ele>
        <time>2021-08-20T12:10:21Z</time>
      </trkpt>
      <trkpt lat="44.26476" lon="2.92117">
        <ele>902.4</ele>
        <time>2021-08-20T12:10:22Z</time>
      </trkpt>
      <trkpt lat="44.26478" lon="2.92115">
        <ele>902.6</ele>
        <time>2021-08-20T12:10:23Z</time>
      </trkpt>
      <trkpt lat="44.26479" lon="2.92113">
        <ele>902.8</ele>
        <time>2021-08-20T12:10:24Z</time>
      </trkpt>
      <trkpt lat="44.26481" lon="2.92111">
        <ele>902.8</ele>
        <time>2021-08-20T12:10:25Z</time>
      </trkpt>
      <trkpt lat="44.26483" lon="2.92109">
        <ele>903</ele>
        <time>2021-08-20T12:10:26Z</time>
      </trkpt>
      <trkpt lat="44.26485" lon="2.92107">
        <ele>903</ele>
        <time>2021-08-20T12:10:27Z</time>
      </trkpt>
      <trkpt lat="44.26488" lon="2.92106">
        <ele>903</ele>
        <time>2021-08-20T12:10:28Z</time>
      </trkpt>
      <trkpt lat="44.26494" lon="2.921">
        <ele>903.2</ele>
        <time>2021-08-20T12:10:31Z</time>
      </trkpt>
      <trkpt lat="44.26496" lon="2.92099">
        <ele>903.4</ele>
        <time>2021-08-20T12:10:32Z</time>
      </trkpt>
      <trkpt lat="44.26497" lon="2.92098">
        <ele>903.4</ele>
        <time>2021-08-20T12:10:33Z</time>
      </trkpt>
      <trkpt lat="44.26499" lon="2.92097">
        <ele>903.4</ele>
        <time>2021-08-20T12:10:34Z</time>
      </trkpt>
      <trkpt lat="44.265" lon="2.92097">
        <ele>903.4</ele>
        <time>2021-08-20T12:10:35Z</time>
      </trkpt>
      <trkpt lat="44.265" lon="2.92096">
        <ele>903.4</ele>
        <time>2021-08-20T12:10:36Z</time>
      </trkpt>
      <trkpt lat="44.26501" lon="2.92095">
        <ele>903.4</ele>
        <time>2021-08-20T12:10:37Z</time>
      </trkpt>
      <trkpt lat="44.26501" lon="2.92094">
        <ele>903.4</ele>
        <time>2021-08-20T12:10:38Z</time>
      </trkpt>
      <trkpt lat="44.26502" lon="2.92093">
        <ele>903.6</ele>
        <time>2021-08-20T12:10:39Z</time>
      </trkpt>
      <trkpt lat="44.26504" lon="2.92092">
        <ele>903.8</ele>
        <time>2021-08-20T12:10:41Z</time>
      </trkpt>
      <trkpt lat="44.26507" lon="2.92095">
        <ele>904</ele>
        <time>2021-08-20T12:10:43Z</time>
      </trkpt>
      <trkpt lat="44.26508" lon="2.92097">
        <ele>904</ele>
        <time>2021-08-20T12:10:44Z</time>
      </trkpt>
      <trkpt lat="44.26509" lon="2.92099">
        <ele>904</ele>
        <time>2021-08-20T12:10:45Z</time>
      </trkpt>
      <trkpt lat="44.2651" lon="2.92101">
        <ele>904</ele>
        <time>2021-08-20T12:10:46Z</time>
      </trkpt>
      <trkpt lat="44.26511" lon="2.92103">
        <ele>904</ele>
        <time>2021-08-20T12:10:47Z</time>
      </trkpt>
      <trkpt lat="44.26513" lon="2.92104">
        <ele>904</ele>
        <time>2021-08-20T12:10:48Z</time>
      </trkpt>
      <trkpt lat="44.26515" lon="2.92104">
        <ele>904</ele>
        <time>2021-08-20T12:10:49Z</time>
      </trkpt>
      <trkpt lat="44.26517" lon="2.92102">
        <ele>904.2</ele>
        <time>2021-08-20T12:10:50Z</time>
      </trkpt>
      <trkpt lat="44.26525" lon="2.92099">
        <ele>904.4</ele>
        <time>2021-08-20T12:10:54Z</time>
      </trkpt>
      <trkpt lat="44.26526" lon="2.92098">
        <ele>904.6</ele>
        <time>2021-08-20T12:10:55Z</time>
      </trkpt>
      <trkpt lat="44.26527" lon="2.92097">
        <ele>904.8</ele>
        <time>2021-08-20T12:10:56Z</time>
      </trkpt>
      <trkpt lat="44.26529" lon="2.92097">
        <ele>905.2</ele>
        <time>2021-08-20T12:10:57Z</time>
      </trkpt>
      <trkpt lat="44.2653" lon="2.92096">
        <ele>905.2</ele>
        <time>2021-08-20T12:10:58Z</time>
      </trkpt>
      <trkpt lat="44.26531" lon="2.92096">
        <ele>905.4</ele>
        <time>2021-08-20T12:10:59Z</time>
      </trkpt>
      <trkpt lat="44.26532" lon="2.92095">
        <ele>905.4</ele>
        <time>2021-08-20T12:11:00Z</time>
      </trkpt>
      <trkpt lat="44.26533" lon="2.92095">
        <ele>905.4</ele>
        <time>2021-08-20T12:11:01Z</time>
      </trkpt>
      <trkpt lat="44.26534" lon="2.92095">
        <ele>905.6</ele>
        <time>2021-08-20T12:11:02Z</time>
      </trkpt>
      <trkpt lat="44.26535" lon="2.92095">
        <ele>905.6</ele>
        <time>2021-08-20T12:11:03Z</time>
      </trkpt>
      <trkpt lat="44.26536" lon="2.92094">
        <ele>905.8</ele>
        <time>2021-08-20T12:11:04Z</time>
      </trkpt>
      <trkpt lat="44.26537" lon="2.92094">
        <ele>906</ele>
        <time>2021-08-20T12:11:05Z</time>
      </trkpt>
      <trkpt lat="44.26537" lon="2.92094">
        <ele>906</ele>
        <time>2021-08-20T12:11:06Z</time>
      </trkpt>
      <trkpt lat="44.26538" lon="2.92094">
        <ele>906</ele>
        <time>2021-08-20T12:11:07Z</time>
      </trkpt>
      <trkpt lat="44.26539" lon="2.92095">
        <ele>906.2</ele>
        <time>2021-08-20T12:11:08Z</time>
      </trkpt>
      <trkpt lat="44.2654" lon="2.92093">
        <ele>906.2</ele>
        <time>2021-08-20T12:11:10Z</time>
      </trkpt>
      <trkpt lat="44.26541" lon="2.92093">
        <ele>906.4</ele>
        <time>2021-08-20T12:11:11Z</time>
      </trkpt>
      <trkpt lat="44.26541" lon="2.92093">
        <ele>906.4</ele>
        <time>2021-08-20T12:11:12Z</time>
      </trkpt>
      <trkpt lat="44.26542" lon="2.92092">
        <ele>906.6</ele>
        <time>2021-08-20T12:11:13Z</time>
      </trkpt>
      <trkpt lat="44.26542" lon="2.92092">
        <ele>906.6</ele>
        <time>2021-08-20T12:11:14Z</time>
      </trkpt>
      <trkpt lat="44.26545" lon="2.92092">
        <ele>907</ele>
        <time>2021-08-20T12:11:23Z</time>
      </trkpt>
      <trkpt lat="44.26555" lon="2.92091">
        <ele>906.8</ele>
        <time>2021-08-20T12:11:28Z</time>
      </trkpt>
      <trkpt lat="44.26567" lon="2.92089">
        <ele>906.2</ele>
        <time>2021-08-20T12:11:32Z</time>
      </trkpt>
      <trkpt lat="44.2657" lon="2.92088">
        <ele>906</ele>
        <time>2021-08-20T12:11:33Z</time>
      </trkpt>
      <trkpt lat="44.26572" lon="2.92087">
        <ele>905.8</ele>
        <time>2021-08-20T12:11:34Z</time>
      </trkpt>
      <trkpt lat="44.26592" lon="2.92078">
        <ele>905.2</ele>
        <time>2021-08-20T12:11:40Z</time>
      </trkpt>
      <trkpt lat="44.26596" lon="2.92077">
        <ele>905</ele>
        <time>2021-08-20T12:11:41Z</time>
      </trkpt>
      <trkpt lat="44.266" lon="2.92077">
        <ele>904.6</ele>
        <time>2021-08-20T12:11:42Z</time>
      </trkpt>
      <trkpt lat="44.26606" lon="2.92075">
        <ele>904.2</ele>
        <time>2021-08-20T12:11:44Z</time>
      </trkpt>
      <trkpt lat="44.26609" lon="2.92074">
        <ele>904.2</ele>
        <time>2021-08-20T12:11:45Z</time>
      </trkpt>
      <trkpt lat="44.26613" lon="2.92077">
        <ele>904.2</ele>
        <time>2021-08-20T12:11:46Z</time>
      </trkpt>
      <trkpt lat="44.26615" lon="2.92078">
        <ele>904</ele>
        <time>2021-08-20T12:11:47Z</time>
      </trkpt>
      <trkpt lat="44.26618" lon="2.92079">
        <ele>904</ele>
        <time>2021-08-20T12:11:48Z</time>
      </trkpt>
      <trkpt lat="44.26621" lon="2.9208">
        <ele>904</ele>
        <time>2021-08-20T12:11:49Z</time>
      </trkpt>
      <trkpt lat="44.26623" lon="2.92081">
        <ele>904</ele>
        <time>2021-08-20T12:11:50Z</time>
      </trkpt>
      <trkpt lat="44.26625" lon="2.92082">
        <ele>904.2</ele>
        <time>2021-08-20T12:11:51Z</time>
      </trkpt>
      <trkpt lat="44.2663" lon="2.92085">
        <ele>904.2</ele>
        <time>2021-08-20T12:11:53Z</time>
      </trkpt>
      <trkpt lat="44.26633" lon="2.92087">
        <ele>904.2</ele>
        <time>2021-08-20T12:11:54Z</time>
      </trkpt>
      <trkpt lat="44.26635" lon="2.92088">
        <ele>904.4</ele>
        <time>2021-08-20T12:11:55Z</time>
      </trkpt>
      <trkpt lat="44.26637" lon="2.92089">
        <ele>904.4</ele>
        <time>2021-08-20T12:11:56Z</time>
      </trkpt>
      <trkpt lat="44.26639" lon="2.92091">
        <ele>904.4</ele>
        <time>2021-08-20T12:11:57Z</time>
      </trkpt>
      <trkpt lat="44.26641" lon="2.92092">
        <ele>904.4</ele>
        <time>2021-08-20T12:11:58Z</time>
      </trkpt>
      <trkpt lat="44.26643" lon="2.92093">
        <ele>904.4</ele>
        <time>2021-08-20T12:11:59Z</time>
      </trkpt>
      <trkpt lat="44.26647" lon="2.92095">
        <ele>904.6</ele>
        <time>2021-08-20T12:12:01Z</time>
      </trkpt>
      <trkpt lat="44.26657" lon="2.92102">
        <ele>905</ele>
        <time>2021-08-20T12:12:06Z</time>
      </trkpt>
      <trkpt lat="44.26658" lon="2.92103">
        <ele>905.4</ele>
        <time>2021-08-20T12:12:07Z</time>
      </trkpt>
      <trkpt lat="44.2666" lon="2.92104">
        <ele>905.4</ele>
        <time>2021-08-20T12:12:08Z</time>
      </trkpt>
      <trkpt lat="44.26661" lon="2.92106">
        <ele>905.6</ele>
        <time>2021-08-20T12:12:09Z</time>
      </trkpt>
      <trkpt lat="44.26664" lon="2.92108">
        <ele>906.4</ele>
        <time>2021-08-20T12:12:11Z</time>
      </trkpt>
      <trkpt lat="44.26669" lon="2.92114">
        <ele>907.4</ele>
        <time>2021-08-20T12:12:14Z</time>
      </trkpt>
      <trkpt lat="44.2667" lon="2.92115">
        <ele>907.4</ele>
        <time>2021-08-20T12:12:15Z</time>
      </trkpt>
      <trkpt lat="44.26672" lon="2.92116">
        <ele>907.6</ele>
        <time>2021-08-20T12:12:16Z</time>
      </trkpt>
      <trkpt lat="44.26674" lon="2.92117">
        <ele>907.6</ele>
        <time>2021-08-20T12:12:17Z</time>
      </trkpt>
      <trkpt lat="44.26676" lon="2.92118">
        <ele>907.8</ele>
        <time>2021-08-20T12:12:18Z</time>
      </trkpt>
      <trkpt lat="44.26678" lon="2.92118">
        <ele>908</ele>
        <time>2021-08-20T12:12:19Z</time>
      </trkpt>
      <trkpt lat="44.2668" lon="2.92119">
        <ele>908.2</ele>
        <time>2021-08-20T12:12:20Z</time>
      </trkpt>
      <trkpt lat="44.26683" lon="2.92119">
        <ele>908.4</ele>
        <time>2021-08-20T12:12:21Z</time>
      </trkpt>
      <trkpt lat="44.26685" lon="2.9212">
        <ele>908.8</ele>
        <time>2021-08-20T12:12:22Z</time>
      </trkpt>
      <trkpt lat="44.26688" lon="2.9212">
        <ele>909</ele>
        <time>2021-08-20T12:12:23Z</time>
      </trkpt>
      <trkpt lat="44.2669" lon="2.92121">
        <ele>909</ele>
        <time>2021-08-20T12:12:24Z</time>
      </trkpt>
      <trkpt lat="44.26691" lon="2.92121">
        <ele>909.4</ele>
        <time>2021-08-20T12:12:25Z</time>
      </trkpt>
      <trkpt lat="44.26693" lon="2.92122">
        <ele>909.6</ele>
        <time>2021-08-20T12:12:26Z</time>
      </trkpt>
      <trkpt lat="44.26695" lon="2.92122">
        <ele>909.8</ele>
        <time>2021-08-20T12:12:27Z</time>
      </trkpt>
      <trkpt lat="44.26697" lon="2.92122">
        <ele>910</ele>
        <time>2021-08-20T12:12:28Z</time>
      </trkpt>
      <trkpt lat="44.26698" lon="2.92121">
        <ele>911.2</ele>
        <time>2021-08-20T12:12:29Z</time>
      </trkpt>
      <trkpt lat="44.267" lon="2.9212">
        <ele>911.4</ele>
        <time>2021-08-20T12:12:30Z</time>
      </trkpt>
      <trkpt lat="44.26701" lon="2.9212">
        <ele>912</ele>
        <time>2021-08-20T12:12:31Z</time>
      </trkpt>
      <trkpt lat="44.26702" lon="2.92119">
        <ele>912.2</ele>
        <time>2021-08-20T12:12:32Z</time>
      </trkpt>
      <trkpt lat="44.26703" lon="2.92119">
        <ele>912.2</ele>
        <time>2021-08-20T12:12:33Z</time>
      </trkpt>
      <trkpt lat="44.26704" lon="2.92118">
        <ele>912.4</ele>
        <time>2021-08-20T12:12:34Z</time>
      </trkpt>
      <trkpt lat="44.26705" lon="2.92117">
        <ele>912.4</ele>
        <time>2021-08-20T12:12:35Z</time>
      </trkpt>
      <trkpt lat="44.26706" lon="2.92117">
        <ele>912.4</ele>
        <time>2021-08-20T12:12:36Z</time>
      </trkpt>
      <trkpt lat="44.26707" lon="2.92116">
        <ele>912.4</ele>
        <time>2021-08-20T12:12:37Z</time>
      </trkpt>
      <trkpt lat="44.26707" lon="2.92116">
        <ele>912.4</ele>
        <time>2021-08-20T12:12:38Z</time>
      </trkpt>
      <trkpt lat="44.26707" lon="2.92116">
        <ele>912</ele>
        <time>2021-08-20T12:13:10Z</time>
      </trkpt>
      <trkpt lat="44.26717" lon="2.92116">
        <ele>912</ele>
        <time>2021-08-20T12:13:15Z</time>
      </trkpt>
      <trkpt lat="44.26722" lon="2.9212">
        <ele>912</ele>
        <time>2021-08-20T12:13:18Z</time>
      </trkpt>
      <trkpt lat="44.26724" lon="2.92122">
        <ele>912</ele>
        <time>2021-08-20T12:13:19Z</time>
      </trkpt>
      <trkpt lat="44.26727" lon="2.92123">
        <ele>912</ele>
        <time>2021-08-20T12:13:20Z</time>
      </trkpt>
      <trkpt lat="44.26731" lon="2.92125">
        <ele>912</ele>
        <time>2021-08-20T12:13:22Z</time>
      </trkpt>
      <trkpt lat="44.26734" lon="2.92126">
        <ele>912.2</ele>
        <time>2021-08-20T12:13:23Z</time>
      </trkpt>
      <trkpt lat="44.2674" lon="2.92128">
        <ele>912.2</ele>
        <time>2021-08-20T12:13:26Z</time>
      </trkpt>
      <trkpt lat="44.26743" lon="2.9213">
        <ele>912.2</ele>
        <time>2021-08-20T12:13:27Z</time>
      </trkpt>
      <trkpt lat="44.26747" lon="2.92132">
        <ele>912.4</ele>
        <time>2021-08-20T12:13:29Z</time>
      </trkpt>
      <trkpt lat="44.26752" lon="2.92133">
        <ele>912.6</ele>
        <time>2021-08-20T12:13:31Z</time>
      </trkpt>
      <trkpt lat="44.26757" lon="2.92135">
        <ele>912.6</ele>
        <time>2021-08-20T12:13:33Z</time>
      </trkpt>
      <trkpt lat="44.26759" lon="2.92135">
        <ele>912.8</ele>
        <time>2021-08-20T12:13:34Z</time>
      </trkpt>
      <trkpt lat="44.26761" lon="2.92136">
        <ele>913</ele>
        <time>2021-08-20T12:13:35Z</time>
      </trkpt>
      <trkpt lat="44.26763" lon="2.92136">
        <ele>913</ele>
        <time>2021-08-20T12:13:36Z</time>
      </trkpt>
      <trkpt lat="44.26765" lon="2.92137">
        <ele>913</ele>
        <time>2021-08-20T12:13:37Z</time>
      </trkpt>
      <trkpt lat="44.26767" lon="2.92138">
        <ele>913</ele>
        <time>2021-08-20T12:13:38Z</time>
      </trkpt>
      <trkpt lat="44.26778" lon="2.92141">
        <ele>913.2</ele>
        <time>2021-08-20T12:13:42Z</time>
      </trkpt>
      <trkpt lat="44.26784" lon="2.92143">
        <ele>913.2</ele>
        <time>2021-08-20T12:13:44Z</time>
      </trkpt>
      <trkpt lat="44.26787" lon="2.92144">
        <ele>913.2</ele>
        <time>2021-08-20T12:13:45Z</time>
      </trkpt>
      <trkpt lat="44.2679" lon="2.92145">
        <ele>913.2</ele>
        <time>2021-08-20T12:13:46Z</time>
      </trkpt>
      <trkpt lat="44.26792" lon="2.92146">
        <ele>913.2</ele>
        <time>2021-08-20T12:13:47Z</time>
      </trkpt>
      <trkpt lat="44.26795" lon="2.92147">
        <ele>913.2</ele>
        <time>2021-08-20T12:13:48Z</time>
      </trkpt>
      <trkpt lat="44.268" lon="2.9215">
        <ele>913.2</ele>
        <time>2021-08-20T12:13:50Z</time>
      </trkpt>
      <trkpt lat="44.26803" lon="2.92151">
        <ele>913.4</ele>
        <time>2021-08-20T12:13:51Z</time>
      </trkpt>
      <trkpt lat="44.26805" lon="2.92152">
        <ele>913.4</ele>
        <time>2021-08-20T12:13:52Z</time>
      </trkpt>
      <trkpt lat="44.26815" lon="2.9216">
        <ele>913.8</ele>
        <time>2021-08-20T12:13:56Z</time>
      </trkpt>
      <trkpt lat="44.26818" lon="2.92162">
        <ele>913.8</ele>
        <time>2021-08-20T12:13:57Z</time>
      </trkpt>
      <trkpt lat="44.2682" lon="2.92163">
        <ele>914</ele>
        <time>2021-08-20T12:13:58Z</time>
      </trkpt>
      <trkpt lat="44.26825" lon="2.92166">
        <ele>914</ele>
        <time>2021-08-20T12:14:00Z</time>
      </trkpt>
      <trkpt lat="44.26827" lon="2.92167">
        <ele>914</ele>
        <time>2021-08-20T12:14:01Z</time>
      </trkpt>
      <trkpt lat="44.26829" lon="2.92169">
        <ele>914.2</ele>
        <time>2021-08-20T12:14:02Z</time>
      </trkpt>
      <trkpt lat="44.2684" lon="2.9218">
        <ele>914.4</ele>
        <time>2021-08-20T12:14:07Z</time>
      </trkpt>
      <trkpt lat="44.26846" lon="2.92188">
        <ele>914.4</ele>
        <time>2021-08-20T12:14:10Z</time>
      </trkpt>
      <trkpt lat="44.26847" lon="2.9219">
        <ele>914.6</ele>
        <time>2021-08-20T12:14:11Z</time>
      </trkpt>
      <trkpt lat="44.26857" lon="2.92202">
        <ele>914.8</ele>
        <time>2021-08-20T12:14:15Z</time>
      </trkpt>
      <trkpt lat="44.26859" lon="2.92204">
        <ele>915.2</ele>
        <time>2021-08-20T12:14:16Z</time>
      </trkpt>
      <trkpt lat="44.26862" lon="2.92206">
        <ele>915.4</ele>
        <time>2021-08-20T12:14:17Z</time>
      </trkpt>
      <trkpt lat="44.26865" lon="2.92208">
        <ele>916</ele>
        <time>2021-08-20T12:14:18Z</time>
      </trkpt>
      <trkpt lat="44.26871" lon="2.92212">
        <ele>916.4</ele>
        <time>2021-08-20T12:14:20Z</time>
      </trkpt>
      <trkpt lat="44.26877" lon="2.92215">
        <ele>916.6</ele>
        <time>2021-08-20T12:14:22Z</time>
      </trkpt>
      <trkpt lat="44.2688" lon="2.92217">
        <ele>916.6</ele>
        <time>2021-08-20T12:14:23Z</time>
      </trkpt>
      <trkpt lat="44.26882" lon="2.92218">
        <ele>916.8</ele>
        <time>2021-08-20T12:14:24Z</time>
      </trkpt>
      <trkpt lat="44.26885" lon="2.9222">
        <ele>916.8</ele>
        <time>2021-08-20T12:14:25Z</time>
      </trkpt>
      <trkpt lat="44.26887" lon="2.92222">
        <ele>916.8</ele>
        <time>2021-08-20T12:14:26Z</time>
      </trkpt>
      <trkpt lat="44.2689" lon="2.92224">
        <ele>916.8</ele>
        <time>2021-08-20T12:14:27Z</time>
      </trkpt>
      <trkpt lat="44.26894" lon="2.92226">
        <ele>917</ele>
        <time>2021-08-20T12:14:28Z</time>
      </trkpt>
      <trkpt lat="44.26897" lon="2.92228">
        <ele>917</ele>
        <time>2021-08-20T12:14:29Z</time>
      </trkpt>
      <trkpt lat="44.269" lon="2.9223">
        <ele>917</ele>
        <time>2021-08-20T12:14:30Z</time>
      </trkpt>
      <trkpt lat="44.26903" lon="2.92232">
        <ele>917</ele>
        <time>2021-08-20T12:14:31Z</time>
      </trkpt>
      <trkpt lat="44.26906" lon="2.92234">
        <ele>917.2</ele>
        <time>2021-08-20T12:14:32Z</time>
      </trkpt>
      <trkpt lat="44.26911" lon="2.92237">
        <ele>917.2</ele>
        <time>2021-08-20T12:14:33Z</time>
      </trkpt>
      <trkpt lat="44.26914" lon="2.92241">
        <ele>917.2</ele>
        <time>2021-08-20T12:14:34Z</time>
      </trkpt>
      <trkpt lat="44.26918" lon="2.92244">
        <ele>917.2</ele>
        <time>2021-08-20T12:14:35Z</time>
      </trkpt>
      <trkpt lat="44.26921" lon="2.92248">
        <ele>917.2</ele>
        <time>2021-08-20T12:14:36Z</time>
      </trkpt>
      <trkpt lat="44.26924" lon="2.92253">
        <ele>917.2</ele>
        <time>2021-08-20T12:14:37Z</time>
      </trkpt>
      <trkpt lat="44.26927" lon="2.9226">
        <ele>917.2</ele>
        <time>2021-08-20T12:14:38Z</time>
      </trkpt>
      <trkpt lat="44.26931" lon="2.9227">
        <ele>917.2</ele>
        <time>2021-08-20T12:14:40Z</time>
      </trkpt>
      <trkpt lat="44.26932" lon="2.92276">
        <ele>917.2</ele>
        <time>2021-08-20T12:14:41Z</time>
      </trkpt>
      <trkpt lat="44.26934" lon="2.92288">
        <ele>917.2</ele>
        <time>2021-08-20T12:14:43Z</time>
      </trkpt>
      <trkpt lat="44.26936" lon="2.923">
        <ele>916.8</ele>
        <time>2021-08-20T12:14:45Z</time>
      </trkpt>
      <trkpt lat="44.26936" lon="2.92305">
        <ele>916.8</ele>
        <time>2021-08-20T12:14:46Z</time>
      </trkpt>
      <trkpt lat="44.26937" lon="2.92311">
        <ele>916.6</ele>
        <time>2021-08-20T12:14:47Z</time>
      </trkpt>
      <trkpt lat="44.26938" lon="2.92318">
        <ele>916.6</ele>
        <time>2021-08-20T12:14:48Z</time>
      </trkpt>
      <trkpt lat="44.26939" lon="2.92322">
        <ele>916.6</ele>
        <time>2021-08-20T12:14:49Z</time>
      </trkpt>
      <trkpt lat="44.2694" lon="2.92327">
        <ele>916.4</ele>
        <time>2021-08-20T12:14:50Z</time>
      </trkpt>
      <trkpt lat="44.26942" lon="2.9233">
        <ele>916.4</ele>
        <time>2021-08-20T12:14:51Z</time>
      </trkpt>
      <trkpt lat="44.26944" lon="2.92334">
        <ele>916.4</ele>
        <time>2021-08-20T12:14:52Z</time>
      </trkpt>
      <trkpt lat="44.26947" lon="2.92337">
        <ele>916.6</ele>
        <time>2021-08-20T12:14:53Z</time>
      </trkpt>
      <trkpt lat="44.26951" lon="2.92354">
        <ele>916.4</ele>
        <time>2021-08-20T12:14:57Z</time>
      </trkpt>
      <trkpt lat="44.2695" lon="2.9236">
        <ele>916.4</ele>
        <time>2021-08-20T12:14:58Z</time>
      </trkpt>
      <trkpt lat="44.26949" lon="2.92364">
        <ele>916.6</ele>
        <time>2021-08-20T12:14:59Z</time>
      </trkpt>
      <trkpt lat="44.26949" lon="2.92369">
        <ele>916.6</ele>
        <time>2021-08-20T12:15:00Z</time>
      </trkpt>
      <trkpt lat="44.26948" lon="2.92374">
        <ele>916.6</ele>
        <time>2021-08-20T12:15:01Z</time>
      </trkpt>
      <trkpt lat="44.26948" lon="2.92379">
        <ele>916.6</ele>
        <time>2021-08-20T12:15:02Z</time>
      </trkpt>
      <trkpt lat="44.26949" lon="2.92384">
        <ele>916.6</ele>
        <time>2021-08-20T12:15:03Z</time>
      </trkpt>
      <trkpt lat="44.26949" lon="2.92394">
        <ele>916.4</ele>
        <time>2021-08-20T12:15:05Z</time>
      </trkpt>
      <trkpt lat="44.26949" lon="2.92398">
        <ele>916.2</ele>
        <time>2021-08-20T12:15:06Z</time>
      </trkpt>
      <trkpt lat="44.26949" lon="2.92403">
        <ele>916.2</ele>
        <time>2021-08-20T12:15:07Z</time>
      </trkpt>
      <trkpt lat="44.26949" lon="2.92408">
        <ele>916</ele>
        <time>2021-08-20T12:15:08Z</time>
      </trkpt>
      <trkpt lat="44.2695" lon="2.92422">
        <ele>915.8</ele>
        <time>2021-08-20T12:15:11Z</time>
      </trkpt>
      <trkpt lat="44.26952" lon="2.92442">
        <ele>915.2</ele>
        <time>2021-08-20T12:15:15Z</time>
      </trkpt>
      <trkpt lat="44.26952" lon="2.92445">
        <ele>915.2</ele>
        <time>2021-08-20T12:15:16Z</time>
      </trkpt>
      <trkpt lat="44.26953" lon="2.92448">
        <ele>915</ele>
        <time>2021-08-20T12:15:17Z</time>
      </trkpt>
      <trkpt lat="44.26954" lon="2.92451">
        <ele>915</ele>
        <time>2021-08-20T12:15:18Z</time>
      </trkpt>
      <trkpt lat="44.26954" lon="2.92454">
        <ele>915</ele>
        <time>2021-08-20T12:15:19Z</time>
      </trkpt>
      <trkpt lat="44.26955" lon="2.92457">
        <ele>915</ele>
        <time>2021-08-20T12:15:20Z</time>
      </trkpt>
      <trkpt lat="44.26956" lon="2.92459">
        <ele>915</ele>
        <time>2021-08-20T12:15:21Z</time>
      </trkpt>
      <trkpt lat="44.26957" lon="2.92462">
        <ele>915</ele>
        <time>2021-08-20T12:15:22Z</time>
      </trkpt>
      <trkpt lat="44.26958" lon="2.92464">
        <ele>915</ele>
        <time>2021-08-20T12:15:23Z</time>
      </trkpt>
      <trkpt lat="44.26958" lon="2.92467">
        <ele>915</ele>
        <time>2021-08-20T12:15:24Z</time>
      </trkpt>
      <trkpt lat="44.26958" lon="2.9247">
        <ele>915</ele>
        <time>2021-08-20T12:15:25Z</time>
      </trkpt>
      <trkpt lat="44.26957" lon="2.92474">
        <ele>915.2</ele>
        <time>2021-08-20T12:15:26Z</time>
      </trkpt>
      <trkpt lat="44.26956" lon="2.92477">
        <ele>915.2</ele>
        <time>2021-08-20T12:15:27Z</time>
      </trkpt>
      <trkpt lat="44.26956" lon="2.9248">
        <ele>915.2</ele>
        <time>2021-08-20T12:15:28Z</time>
      </trkpt>
      <trkpt lat="44.26956" lon="2.92483">
        <ele>915.2</ele>
        <time>2021-08-20T12:15:29Z</time>
      </trkpt>
      <trkpt lat="44.26955" lon="2.92485">
        <ele>915.2</ele>
        <time>2021-08-20T12:15:30Z</time>
      </trkpt>
      <trkpt lat="44.26955" lon="2.92497">
        <ele>915</ele>
        <time>2021-08-20T12:15:33Z</time>
      </trkpt>
      <trkpt lat="44.26956" lon="2.925">
        <ele>915</ele>
        <time>2021-08-20T12:15:34Z</time>
      </trkpt>
      <trkpt lat="44.26956" lon="2.92503">
        <ele>914.8</ele>
        <time>2021-08-20T12:15:35Z</time>
      </trkpt>
      <trkpt lat="44.26957" lon="2.92505">
        <ele>914.8</ele>
        <time>2021-08-20T12:15:36Z</time>
      </trkpt>
      <trkpt lat="44.26959" lon="2.92507">
        <ele>914.6</ele>
        <time>2021-08-20T12:15:37Z</time>
      </trkpt>
      <trkpt lat="44.26961" lon="2.9251">
        <ele>914.6</ele>
        <time>2021-08-20T12:15:38Z</time>
      </trkpt>
      <trkpt lat="44.26961" lon="2.92511">
        <ele>914.6</ele>
        <time>2021-08-20T12:15:39Z</time>
      </trkpt>
      <trkpt lat="44.26962" lon="2.92512">
        <ele>914.6</ele>
        <time>2021-08-20T12:15:40Z</time>
      </trkpt>
      <trkpt lat="44.26964" lon="2.92511">
        <ele>914.4</ele>
        <time>2021-08-20T12:15:41Z</time>
      </trkpt>
      <trkpt lat="44.26966" lon="2.9251">
        <ele>914.4</ele>
        <time>2021-08-20T12:15:42Z</time>
      </trkpt>
      <trkpt lat="44.26968" lon="2.92509">
        <ele>914.4</ele>
        <time>2021-08-20T12:15:43Z</time>
      </trkpt>
      <trkpt lat="44.26971" lon="2.92507">
        <ele>914.4</ele>
        <time>2021-08-20T12:15:44Z</time>
      </trkpt>
      <trkpt lat="44.26974" lon="2.92504">
        <ele>914.2</ele>
        <time>2021-08-20T12:15:45Z</time>
      </trkpt>
      <trkpt lat="44.26977" lon="2.92501">
        <ele>914.2</ele>
        <time>2021-08-20T12:15:46Z</time>
      </trkpt>
      <trkpt lat="44.26985" lon="2.92493">
        <ele>914</ele>
        <time>2021-08-20T12:15:49Z</time>
      </trkpt>
      <trkpt lat="44.26999" lon="2.9248">
        <ele>913.4</ele>
        <time>2021-08-20T12:15:53Z</time>
      </trkpt>
      <trkpt lat="44.27008" lon="2.92468">
        <ele>913.2</ele>
        <time>2021-08-20T12:15:56Z</time>
      </trkpt>
      <trkpt lat="44.27012" lon="2.92465">
        <ele>913</ele>
        <time>2021-08-20T12:15:57Z</time>
      </trkpt>
      <trkpt lat="44.27014" lon="2.9246">
        <ele>913</ele>
        <time>2021-08-20T12:15:58Z</time>
      </trkpt>
      <trkpt lat="44.27016" lon="2.92457">
        <ele>913</ele>
        <time>2021-08-20T12:15:59Z</time>
      </trkpt>
      <trkpt lat="44.27018" lon="2.92454">
        <ele>913</ele>
        <time>2021-08-20T12:16:00Z</time>
      </trkpt>
      <trkpt lat="44.2702" lon="2.92451">
        <ele>912.8</ele>
        <time>2021-08-20T12:16:01Z</time>
      </trkpt>
      <trkpt lat="44.27022" lon="2.9245">
        <ele>913</ele>
        <time>2021-08-20T12:16:02Z</time>
      </trkpt>
      <trkpt lat="44.27023" lon="2.92449">
        <ele>913</ele>
        <time>2021-08-20T12:16:03Z</time>
      </trkpt>
      <trkpt lat="44.27024" lon="2.92448">
        <ele>913</ele>
        <time>2021-08-20T12:16:04Z</time>
      </trkpt>
      <trkpt lat="44.27026" lon="2.92448">
        <ele>912.8</ele>
        <time>2021-08-20T12:16:05Z</time>
      </trkpt>
      <trkpt lat="44.27027" lon="2.92447">
        <ele>912.8</ele>
        <time>2021-08-20T12:16:06Z</time>
      </trkpt>
      <trkpt lat="44.27028" lon="2.92446">
        <ele>912.4</ele>
        <time>2021-08-20T12:16:07Z</time>
      </trkpt>
      <trkpt lat="44.2703" lon="2.92445">
        <ele>912.4</ele>
        <time>2021-08-20T12:16:08Z</time>
      </trkpt>
      <trkpt lat="44.27039" lon="2.92443">
        <ele>912</ele>
        <time>2021-08-20T12:16:11Z</time>
      </trkpt>
      <trkpt lat="44.27042" lon="2.92442">
        <ele>912</ele>
        <time>2021-08-20T12:16:12Z</time>
      </trkpt>
      <trkpt lat="44.27048" lon="2.92438">
        <ele>911.8</ele>
        <time>2021-08-20T12:16:13Z</time>
      </trkpt>
      <trkpt lat="44.27052" lon="2.92433">
        <ele>911.6</ele>
        <time>2021-08-20T12:16:14Z</time>
      </trkpt>
      <trkpt lat="44.27057" lon="2.92428">
        <ele>911.6</ele>
        <time>2021-08-20T12:16:15Z</time>
      </trkpt>
      <trkpt lat="44.27059" lon="2.92426">
        <ele>911.2</ele>
        <time>2021-08-20T12:16:16Z</time>
      </trkpt>
      <trkpt lat="44.27062" lon="2.92423">
        <ele>911.2</ele>
        <time>2021-08-20T12:16:17Z</time>
      </trkpt>
      <trkpt lat="44.27065" lon="2.92422">
        <ele>910.6</ele>
        <time>2021-08-20T12:16:18Z</time>
      </trkpt>
      <trkpt lat="44.27068" lon="2.92421">
        <ele>910.4</ele>
        <time>2021-08-20T12:16:19Z</time>
      </trkpt>
      <trkpt lat="44.27074" lon="2.9242">
        <ele>910.2</ele>
        <time>2021-08-20T12:16:20Z</time>
      </trkpt>
      <trkpt lat="44.27079" lon="2.92415">
        <ele>910</ele>
        <time>2021-08-20T12:16:21Z</time>
      </trkpt>
      <trkpt lat="44.27082" lon="2.92414">
        <ele>909.8</ele>
        <time>2021-08-20T12:16:22Z</time>
      </trkpt>
      <trkpt lat="44.27085" lon="2.92413">
        <ele>909.6</ele>
        <time>2021-08-20T12:16:23Z</time>
      </trkpt>
      <trkpt lat="44.27088" lon="2.92411">
        <ele>909.4</ele>
        <time>2021-08-20T12:16:24Z</time>
      </trkpt>
      <trkpt lat="44.27092" lon="2.92408">
        <ele>909.2</ele>
        <time>2021-08-20T12:16:25Z</time>
      </trkpt>
      <trkpt lat="44.271" lon="2.92404">
        <ele>908.6</ele>
        <time>2021-08-20T12:16:27Z</time>
      </trkpt>
      <trkpt lat="44.27105" lon="2.92399">
        <ele>908.4</ele>
        <time>2021-08-20T12:16:28Z</time>
      </trkpt>
      <trkpt lat="44.27118" lon="2.9239">
        <ele>907.4</ele>
        <time>2021-08-20T12:16:31Z</time>
      </trkpt>
      <trkpt lat="44.27122" lon="2.92389">
        <ele>906.8</ele>
        <time>2021-08-20T12:16:32Z</time>
      </trkpt>
      <trkpt lat="44.27124" lon="2.9239">
        <ele>906.6</ele>
        <time>2021-08-20T12:16:33Z</time>
      </trkpt>
      <trkpt lat="44.27126" lon="2.9239">
        <ele>906.2</ele>
        <time>2021-08-20T12:16:34Z</time>
      </trkpt>
      <trkpt lat="44.27126" lon="2.92389">
        <ele>906</ele>
        <time>2021-08-20T12:16:35Z</time>
      </trkpt>
      <trkpt lat="44.27127" lon="2.92388">
        <ele>905.4</ele>
        <time>2021-08-20T12:16:36Z</time>
      </trkpt>
      <trkpt lat="44.27128" lon="2.92389">
        <ele>905.2</ele>
        <time>2021-08-20T12:16:37Z</time>
      </trkpt>
      <trkpt lat="44.27129" lon="2.9239">
        <ele>905</ele>
        <time>2021-08-20T12:16:38Z</time>
      </trkpt>
      <trkpt lat="44.27133" lon="2.9239">
        <ele>904.6</ele>
        <time>2021-08-20T12:16:39Z</time>
      </trkpt>
      <trkpt lat="44.27135" lon="2.9239">
        <ele>904.6</ele>
        <time>2021-08-20T12:16:40Z</time>
      </trkpt>
      <trkpt lat="44.27137" lon="2.9239">
        <ele>904.4</ele>
        <time>2021-08-20T12:16:41Z</time>
      </trkpt>
      <trkpt lat="44.27139" lon="2.9239">
        <ele>904.4</ele>
        <time>2021-08-20T12:16:42Z</time>
      </trkpt>
      <trkpt lat="44.27141" lon="2.9239">
        <ele>904.4</ele>
        <time>2021-08-20T12:16:43Z</time>
      </trkpt>
      <trkpt lat="44.27144" lon="2.9239">
        <ele>904.2</ele>
        <time>2021-08-20T12:16:44Z</time>
      </trkpt>
      <trkpt lat="44.27152" lon="2.92391">
        <ele>904</ele>
        <time>2021-08-20T12:16:47Z</time>
      </trkpt>
      <trkpt lat="44.27169" lon="2.92395">
        <ele>903.8</ele>
        <time>2021-08-20T12:16:52Z</time>
      </trkpt>
      <trkpt lat="44.27172" lon="2.92396">
        <ele>903.8</ele>
        <time>2021-08-20T12:16:53Z</time>
      </trkpt>
      <trkpt lat="44.27175" lon="2.92397">
        <ele>903.8</ele>
        <time>2021-08-20T12:16:54Z</time>
      </trkpt>
      <trkpt lat="44.27177" lon="2.92397">
        <ele>903.8</ele>
        <time>2021-08-20T12:16:55Z</time>
      </trkpt>
      <trkpt lat="44.27179" lon="2.92397">
        <ele>903.8</ele>
        <time>2021-08-20T12:16:56Z</time>
      </trkpt>
      <trkpt lat="44.27181" lon="2.92397">
        <ele>903.6</ele>
        <time>2021-08-20T12:16:57Z</time>
      </trkpt>
      <trkpt lat="44.27183" lon="2.92398">
        <ele>903.6</ele>
        <time>2021-08-20T12:16:58Z</time>
      </trkpt>
      <trkpt lat="44.27185" lon="2.92399">
        <ele>903.4</ele>
        <time>2021-08-20T12:16:59Z</time>
      </trkpt>
      <trkpt lat="44.27186" lon="2.92399">
        <ele>903.4</ele>
        <time>2021-08-20T12:17:00Z</time>
      </trkpt>
      <trkpt lat="44.27197" lon="2.92403">
        <ele>903.4</ele>
        <time>2021-08-20T12:17:04Z</time>
      </trkpt>
      <trkpt lat="44.27223" lon="2.92414">
        <ele>903.2</ele>
        <time>2021-08-20T12:17:10Z</time>
      </trkpt>
      <trkpt lat="44.27256" lon="2.92421">
        <ele>903</ele>
        <time>2021-08-20T12:17:16Z</time>
      </trkpt>
      <trkpt lat="44.27262" lon="2.92421">
        <ele>903</ele>
        <time>2021-08-20T12:17:17Z</time>
      </trkpt>
      <trkpt lat="44.27268" lon="2.9242">
        <ele>903</ele>
        <time>2021-08-20T12:17:18Z</time>
      </trkpt>
      <trkpt lat="44.27273" lon="2.92419">
        <ele>902.8</ele>
        <time>2021-08-20T12:17:19Z</time>
      </trkpt>
      <trkpt lat="44.27278" lon="2.92416">
        <ele>902.8</ele>
        <time>2021-08-20T12:17:20Z</time>
      </trkpt>
      <trkpt lat="44.27283" lon="2.92412">
        <ele>902.8</ele>
        <time>2021-08-20T12:17:21Z</time>
      </trkpt>
      <trkpt lat="44.27287" lon="2.92407">
        <ele>902.8</ele>
        <time>2021-08-20T12:17:22Z</time>
      </trkpt>
      <trkpt lat="44.27291" lon="2.92404">
        <ele>902.6</ele>
        <time>2021-08-20T12:17:23Z</time>
      </trkpt>
      <trkpt lat="44.27295" lon="2.92401">
        <ele>902.6</ele>
        <time>2021-08-20T12:17:24Z</time>
      </trkpt>
      <trkpt lat="44.27298" lon="2.92396">
        <ele>902.6</ele>
        <time>2021-08-20T12:17:25Z</time>
      </trkpt>
      <trkpt lat="44.27306" lon="2.92387">
        <ele>902.4</ele>
        <time>2021-08-20T12:17:27Z</time>
      </trkpt>
      <trkpt lat="44.2731" lon="2.92383">
        <ele>902.4</ele>
        <time>2021-08-20T12:17:28Z</time>
      </trkpt>
      <trkpt lat="44.27312" lon="2.9238">
        <ele>902.4</ele>
        <time>2021-08-20T12:17:29Z</time>
      </trkpt>
      <trkpt lat="44.27317" lon="2.92376">
        <ele>902.4</ele>
        <time>2021-08-20T12:17:30Z</time>
      </trkpt>
      <trkpt lat="44.27335" lon="2.92356">
        <ele>902.2</ele>
        <time>2021-08-20T12:17:35Z</time>
      </trkpt>
      <trkpt lat="44.27339" lon="2.92351">
        <ele>902.2</ele>
        <time>2021-08-20T12:17:36Z</time>
      </trkpt>
      <trkpt lat="44.2735" lon="2.92336">
        <ele>902.4</ele>
        <time>2021-08-20T12:17:39Z</time>
      </trkpt>
      <trkpt lat="44.27362" lon="2.92321">
        <ele>902.8</ele>
        <time>2021-08-20T12:17:42Z</time>
      </trkpt>
      <trkpt lat="44.27374" lon="2.92303">
        <ele>903</ele>
        <time>2021-08-20T12:17:45Z</time>
      </trkpt>
      <trkpt lat="44.27381" lon="2.92289">
        <ele>903</ele>
        <time>2021-08-20T12:17:47Z</time>
      </trkpt>
      <trkpt lat="44.27384" lon="2.92282">
        <ele>903</ele>
        <time>2021-08-20T12:17:48Z</time>
      </trkpt>
      <trkpt lat="44.27385" lon="2.92275">
        <ele>903</ele>
        <time>2021-08-20T12:17:49Z</time>
      </trkpt>
      <trkpt lat="44.27389" lon="2.92252">
        <ele>903.2</ele>
        <time>2021-08-20T12:17:52Z</time>
      </trkpt>
      <trkpt lat="44.2739" lon="2.92245">
        <ele>903.4</ele>
        <time>2021-08-20T12:17:53Z</time>
      </trkpt>
      <trkpt lat="44.27393" lon="2.92221">
        <ele>903.6</ele>
        <time>2021-08-20T12:17:56Z</time>
      </trkpt>
      <trkpt lat="44.27397" lon="2.92204">
        <ele>903.8</ele>
        <time>2021-08-20T12:17:58Z</time>
      </trkpt>
      <trkpt lat="44.27399" lon="2.92197">
        <ele>903.8</ele>
        <time>2021-08-20T12:17:59Z</time>
      </trkpt>
      <trkpt lat="44.27413" lon="2.92168">
        <ele>904.2</ele>
        <time>2021-08-20T12:18:03Z</time>
      </trkpt>
      <trkpt lat="44.27423" lon="2.92145">
        <ele>904.4</ele>
        <time>2021-08-20T12:18:06Z</time>
      </trkpt>
      <trkpt lat="44.27437" lon="2.92112">
        <ele>904.6</ele>
        <time>2021-08-20T12:18:10Z</time>
      </trkpt>
      <trkpt lat="44.27445" lon="2.92094">
        <ele>904.6</ele>
        <time>2021-08-20T12:18:12Z</time>
      </trkpt>
      <trkpt lat="44.27448" lon="2.92085">
        <ele>904.6</ele>
        <time>2021-08-20T12:18:13Z</time>
      </trkpt>
      <trkpt lat="44.27459" lon="2.92061">
        <ele>904.2</ele>
        <time>2021-08-20T12:18:16Z</time>
      </trkpt>
      <trkpt lat="44.27466" lon="2.92045">
        <ele>904.2</ele>
        <time>2021-08-20T12:18:18Z</time>
      </trkpt>
      <trkpt lat="44.27475" lon="2.92019">
        <ele>904</ele>
        <time>2021-08-20T12:18:21Z</time>
      </trkpt>
      <trkpt lat="44.27483" lon="2.91992">
        <ele>903.8</ele>
        <time>2021-08-20T12:18:24Z</time>
      </trkpt>
      <trkpt lat="44.27485" lon="2.91983">
        <ele>903.8</ele>
        <time>2021-08-20T12:18:25Z</time>
      </trkpt>
      <trkpt lat="44.27497" lon="2.91948">
        <ele>903.4</ele>
        <time>2021-08-20T12:18:29Z</time>
      </trkpt>
      <trkpt lat="44.27502" lon="2.91931">
        <ele>903.2</ele>
        <time>2021-08-20T12:18:31Z</time>
      </trkpt>
      <trkpt lat="44.27509" lon="2.91914">
        <ele>903</ele>
        <time>2021-08-20T12:18:33Z</time>
      </trkpt>
      <trkpt lat="44.27513" lon="2.91905">
        <ele>903</ele>
        <time>2021-08-20T12:18:34Z</time>
      </trkpt>
      <trkpt lat="44.27516" lon="2.91899">
        <ele>902.8</ele>
        <time>2021-08-20T12:18:35Z</time>
      </trkpt>
      <trkpt lat="44.27522" lon="2.91891">
        <ele>902.6</ele>
        <time>2021-08-20T12:18:36Z</time>
      </trkpt>
      <trkpt lat="44.27526" lon="2.91885">
        <ele>902.4</ele>
        <time>2021-08-20T12:18:37Z</time>
      </trkpt>
      <trkpt lat="44.2753" lon="2.91879">
        <ele>902.4</ele>
        <time>2021-08-20T12:18:38Z</time>
      </trkpt>
      <trkpt lat="44.27534" lon="2.91872">
        <ele>902.2</ele>
        <time>2021-08-20T12:18:39Z</time>
      </trkpt>
      <trkpt lat="44.27537" lon="2.91867">
        <ele>902.2</ele>
        <time>2021-08-20T12:18:40Z</time>
      </trkpt>
      <trkpt lat="44.27541" lon="2.91859">
        <ele>902</ele>
        <time>2021-08-20T12:18:41Z</time>
      </trkpt>
      <trkpt lat="44.27544" lon="2.91852">
        <ele>902</ele>
        <time>2021-08-20T12:18:42Z</time>
      </trkpt>
      <trkpt lat="44.27547" lon="2.91847">
        <ele>902</ele>
        <time>2021-08-20T12:18:43Z</time>
      </trkpt>
      <trkpt lat="44.2755" lon="2.91843">
        <ele>901.8</ele>
        <time>2021-08-20T12:18:44Z</time>
      </trkpt>
      <trkpt lat="44.27552" lon="2.91837">
        <ele>901.8</ele>
        <time>2021-08-20T12:18:45Z</time>
      </trkpt>
      <trkpt lat="44.27555" lon="2.91822">
        <ele>901.6</ele>
        <time>2021-08-20T12:18:47Z</time>
      </trkpt>
      <trkpt lat="44.27554" lon="2.91806">
        <ele>901.6</ele>
        <time>2021-08-20T12:18:49Z</time>
      </trkpt>
      <trkpt lat="44.27551" lon="2.918">
        <ele>901.4</ele>
        <time>2021-08-20T12:18:50Z</time>
      </trkpt>
      <trkpt lat="44.27546" lon="2.91791">
        <ele>901.4</ele>
        <time>2021-08-20T12:18:51Z</time>
      </trkpt>
      <trkpt lat="44.27541" lon="2.91785">
        <ele>901.4</ele>
        <time>2021-08-20T12:18:52Z</time>
      </trkpt>
      <trkpt lat="44.27535" lon="2.9178">
        <ele>901.4</ele>
        <time>2021-08-20T12:18:53Z</time>
      </trkpt>
      <trkpt lat="44.27531" lon="2.91777">
        <ele>901.4</ele>
        <time>2021-08-20T12:18:54Z</time>
      </trkpt>
      <trkpt lat="44.27525" lon="2.91773">
        <ele>901.4</ele>
        <time>2021-08-20T12:18:55Z</time>
      </trkpt>
      <trkpt lat="44.27521" lon="2.9177">
        <ele>901.6</ele>
        <time>2021-08-20T12:18:56Z</time>
      </trkpt>
      <trkpt lat="44.27517" lon="2.91766">
        <ele>901.6</ele>
        <time>2021-08-20T12:18:57Z</time>
      </trkpt>
      <trkpt lat="44.27513" lon="2.91762">
        <ele>901.6</ele>
        <time>2021-08-20T12:18:58Z</time>
      </trkpt>
      <trkpt lat="44.27511" lon="2.91756">
        <ele>901.8</ele>
        <time>2021-08-20T12:18:59Z</time>
      </trkpt>
      <trkpt lat="44.27509" lon="2.9175">
        <ele>902</ele>
        <time>2021-08-20T12:19:00Z</time>
      </trkpt>
      <trkpt lat="44.27508" lon="2.91745">
        <ele>902</ele>
        <time>2021-08-20T12:19:01Z</time>
      </trkpt>
      <trkpt lat="44.27509" lon="2.91739">
        <ele>902.2</ele>
        <time>2021-08-20T12:19:02Z</time>
      </trkpt>
      <trkpt lat="44.2751" lon="2.91734">
        <ele>902.6</ele>
        <time>2021-08-20T12:19:03Z</time>
      </trkpt>
      <trkpt lat="44.27512" lon="2.9173">
        <ele>903</ele>
        <time>2021-08-20T12:19:04Z</time>
      </trkpt>
      <trkpt lat="44.27515" lon="2.91726">
        <ele>903.4</ele>
        <time>2021-08-20T12:19:05Z</time>
      </trkpt>
      <trkpt lat="44.27517" lon="2.91722">
        <ele>904</ele>
        <time>2021-08-20T12:19:06Z</time>
      </trkpt>
      <trkpt lat="44.27519" lon="2.91719">
        <ele>904.4</ele>
        <time>2021-08-20T12:19:07Z</time>
      </trkpt>
      <trkpt lat="44.27521" lon="2.91716">
        <ele>905</ele>
        <time>2021-08-20T12:19:08Z</time>
      </trkpt>
      <trkpt lat="44.27523" lon="2.91713">
        <ele>905.4</ele>
        <time>2021-08-20T12:19:09Z</time>
      </trkpt>
      <trkpt lat="44.27526" lon="2.9171">
        <ele>905.8</ele>
        <time>2021-08-20T12:19:10Z</time>
      </trkpt>
      <trkpt lat="44.27528" lon="2.91707">
        <ele>906.2</ele>
        <time>2021-08-20T12:19:11Z</time>
      </trkpt>
      <trkpt lat="44.2753" lon="2.91704">
        <ele>906.4</ele>
        <time>2021-08-20T12:19:12Z</time>
      </trkpt>
      <trkpt lat="44.27532" lon="2.91702">
        <ele>906.8</ele>
        <time>2021-08-20T12:19:13Z</time>
      </trkpt>
      <trkpt lat="44.27534" lon="2.91699">
        <ele>907.2</ele>
        <time>2021-08-20T12:19:14Z</time>
      </trkpt>
      <trkpt lat="44.27537" lon="2.91696">
        <ele>907.4</ele>
        <time>2021-08-20T12:19:15Z</time>
      </trkpt>
      <trkpt lat="44.27539" lon="2.91693">
        <ele>907.6</ele>
        <time>2021-08-20T12:19:16Z</time>
      </trkpt>
      <trkpt lat="44.27541" lon="2.9169">
        <ele>908</ele>
        <time>2021-08-20T12:19:17Z</time>
      </trkpt>
      <trkpt lat="44.27544" lon="2.91688">
        <ele>908.2</ele>
        <time>2021-08-20T12:19:18Z</time>
      </trkpt>
      <trkpt lat="44.27546" lon="2.91685">
        <ele>908.2</ele>
        <time>2021-08-20T12:19:19Z</time>
      </trkpt>
      <trkpt lat="44.27549" lon="2.91683">
        <ele>908.2</ele>
        <time>2021-08-20T12:19:20Z</time>
      </trkpt>
      <trkpt lat="44.27552" lon="2.91681">
        <ele>908.2</ele>
        <time>2021-08-20T12:19:21Z</time>
      </trkpt>
      <trkpt lat="44.27554" lon="2.91678">
        <ele>908.4</ele>
        <time>2021-08-20T12:19:22Z</time>
      </trkpt>
      <trkpt lat="44.27556" lon="2.91676">
        <ele>908.4</ele>
        <time>2021-08-20T12:19:23Z</time>
      </trkpt>
      <trkpt lat="44.27559" lon="2.91672">
        <ele>908.4</ele>
        <time>2021-08-20T12:19:24Z</time>
      </trkpt>
      <trkpt lat="44.27562" lon="2.9167">
        <ele>908.4</ele>
        <time>2021-08-20T12:19:25Z</time>
      </trkpt>
      <trkpt lat="44.27564" lon="2.91668">
        <ele>908.4</ele>
        <time>2021-08-20T12:19:26Z</time>
      </trkpt>
      <trkpt lat="44.27568" lon="2.91665">
        <ele>908.4</ele>
        <time>2021-08-20T12:19:27Z</time>
      </trkpt>
      <trkpt lat="44.2757" lon="2.91663">
        <ele>908.6</ele>
        <time>2021-08-20T12:19:28Z</time>
      </trkpt>
      <trkpt lat="44.27573" lon="2.9166">
        <ele>908.6</ele>
        <time>2021-08-20T12:19:29Z</time>
      </trkpt>
      <trkpt lat="44.27575" lon="2.91657">
        <ele>908.6</ele>
        <time>2021-08-20T12:19:30Z</time>
      </trkpt>
      <trkpt lat="44.27578" lon="2.91655">
        <ele>908.8</ele>
        <time>2021-08-20T12:19:31Z</time>
      </trkpt>
      <trkpt lat="44.27579" lon="2.91651">
        <ele>909</ele>
        <time>2021-08-20T12:19:32Z</time>
      </trkpt>
      <trkpt lat="44.27581" lon="2.91648">
        <ele>909.4</ele>
        <time>2021-08-20T12:19:33Z</time>
      </trkpt>
      <trkpt lat="44.27584" lon="2.91644">
        <ele>909.6</ele>
        <time>2021-08-20T12:19:34Z</time>
      </trkpt>
      <trkpt lat="44.27586" lon="2.91641">
        <ele>909.6</ele>
        <time>2021-08-20T12:19:35Z</time>
      </trkpt>
      <trkpt lat="44.27588" lon="2.91638">
        <ele>909.8</ele>
        <time>2021-08-20T12:19:36Z</time>
      </trkpt>
      <trkpt lat="44.2759" lon="2.91634">
        <ele>910</ele>
        <time>2021-08-20T12:19:37Z</time>
      </trkpt>
      <trkpt lat="44.27592" lon="2.9163">
        <ele>910.2</ele>
        <time>2021-08-20T12:19:38Z</time>
      </trkpt>
      <trkpt lat="44.27594" lon="2.91628">
        <ele>910.4</ele>
        <time>2021-08-20T12:19:39Z</time>
      </trkpt>
      <trkpt lat="44.27596" lon="2.91624">
        <ele>910.6</ele>
        <time>2021-08-20T12:19:40Z</time>
      </trkpt>
      <trkpt lat="44.27598" lon="2.9162">
        <ele>910.8</ele>
        <time>2021-08-20T12:19:41Z</time>
      </trkpt>
      <trkpt lat="44.276" lon="2.91617">
        <ele>911</ele>
        <time>2021-08-20T12:19:42Z</time>
      </trkpt>
      <trkpt lat="44.27602" lon="2.91612">
        <ele>911</ele>
        <time>2021-08-20T12:19:43Z</time>
      </trkpt>
      <trkpt lat="44.27604" lon="2.91608">
        <ele>911.2</ele>
        <time>2021-08-20T12:19:44Z</time>
      </trkpt>
      <trkpt lat="44.27606" lon="2.91604">
        <ele>911.4</ele>
        <time>2021-08-20T12:19:45Z</time>
      </trkpt>
      <trkpt lat="44.27607" lon="2.916">
        <ele>911.6</ele>
        <time>2021-08-20T12:19:46Z</time>
      </trkpt>
      <trkpt lat="44.27609" lon="2.91596">
        <ele>911.8</ele>
        <time>2021-08-20T12:19:47Z</time>
      </trkpt>
      <trkpt lat="44.27611" lon="2.91592">
        <ele>911.8</ele>
        <time>2021-08-20T12:19:48Z</time>
      </trkpt>
      <trkpt lat="44.27613" lon="2.91589">
        <ele>912.2</ele>
        <time>2021-08-20T12:19:49Z</time>
      </trkpt>
      <trkpt lat="44.27614" lon="2.91586">
        <ele>912.4</ele>
        <time>2021-08-20T12:19:50Z</time>
      </trkpt>
      <trkpt lat="44.27616" lon="2.91583">
        <ele>912.6</ele>
        <time>2021-08-20T12:19:51Z</time>
      </trkpt>
      <trkpt lat="44.27618" lon="2.91579">
        <ele>913</ele>
        <time>2021-08-20T12:19:52Z</time>
      </trkpt>
      <trkpt lat="44.2762" lon="2.91575">
        <ele>913</ele>
        <time>2021-08-20T12:19:53Z</time>
      </trkpt>
      <trkpt lat="44.27621" lon="2.91572">
        <ele>913.2</ele>
        <time>2021-08-20T12:19:54Z</time>
      </trkpt>
      <trkpt lat="44.27623" lon="2.91569">
        <ele>913.4</ele>
        <time>2021-08-20T12:19:55Z</time>
      </trkpt>
      <trkpt lat="44.27624" lon="2.91566">
        <ele>913.8</ele>
        <time>2021-08-20T12:19:56Z</time>
      </trkpt>
      <trkpt lat="44.27626" lon="2.91563">
        <ele>913.8</ele>
        <time>2021-08-20T12:19:57Z</time>
      </trkpt>
      <trkpt lat="44.27627" lon="2.91559">
        <ele>914</ele>
        <time>2021-08-20T12:19:58Z</time>
      </trkpt>
      <trkpt lat="44.27628" lon="2.91555">
        <ele>914.2</ele>
        <time>2021-08-20T12:19:59Z</time>
      </trkpt>
      <trkpt lat="44.2763" lon="2.91552">
        <ele>914.4</ele>
        <time>2021-08-20T12:20:00Z</time>
      </trkpt>
      <trkpt lat="44.27631" lon="2.91549">
        <ele>914.6</ele>
        <time>2021-08-20T12:20:01Z</time>
      </trkpt>
      <trkpt lat="44.27633" lon="2.91546">
        <ele>914.8</ele>
        <time>2021-08-20T12:20:02Z</time>
      </trkpt>
      <trkpt lat="44.27635" lon="2.91543">
        <ele>915</ele>
        <time>2021-08-20T12:20:03Z</time>
      </trkpt>
      <trkpt lat="44.27637" lon="2.9154">
        <ele>915.2</ele>
        <time>2021-08-20T12:20:04Z</time>
      </trkpt>
      <trkpt lat="44.27639" lon="2.91538">
        <ele>915.2</ele>
        <time>2021-08-20T12:20:05Z</time>
      </trkpt>
      <trkpt lat="44.27642" lon="2.91536">
        <ele>915.2</ele>
        <time>2021-08-20T12:20:06Z</time>
      </trkpt>
      <trkpt lat="44.27644" lon="2.91535">
        <ele>915.4</ele>
        <time>2021-08-20T12:20:07Z</time>
      </trkpt>
      <trkpt lat="44.27646" lon="2.91535">
        <ele>915.4</ele>
        <time>2021-08-20T12:20:08Z</time>
      </trkpt>
      <trkpt lat="44.27648" lon="2.91534">
        <ele>915.6</ele>
        <time>2021-08-20T12:20:09Z</time>
      </trkpt>
      <trkpt lat="44.2765" lon="2.91534">
        <ele>915.6</ele>
        <time>2021-08-20T12:20:10Z</time>
      </trkpt>
      <trkpt lat="44.27652" lon="2.91534">
        <ele>915.8</ele>
        <time>2021-08-20T12:20:11Z</time>
      </trkpt>
      <trkpt lat="44.27654" lon="2.91533">
        <ele>915.8</ele>
        <time>2021-08-20T12:20:12Z</time>
      </trkpt>
      <trkpt lat="44.27656" lon="2.91533">
        <ele>916.2</ele>
        <time>2021-08-20T12:20:13Z</time>
      </trkpt>
      <trkpt lat="44.27658" lon="2.91532">
        <ele>916.4</ele>
        <time>2021-08-20T12:20:14Z</time>
      </trkpt>
      <trkpt lat="44.2766" lon="2.91533">
        <ele>916.8</ele>
        <time>2021-08-20T12:20:15Z</time>
      </trkpt>
      <trkpt lat="44.27662" lon="2.91533">
        <ele>916.8</ele>
        <time>2021-08-20T12:20:16Z</time>
      </trkpt>
      <trkpt lat="44.27664" lon="2.91534">
        <ele>917.2</ele>
        <time>2021-08-20T12:20:17Z</time>
      </trkpt>
      <trkpt lat="44.27665" lon="2.91534">
        <ele>917.4</ele>
        <time>2021-08-20T12:20:18Z</time>
      </trkpt>
      <trkpt lat="44.27667" lon="2.91535">
        <ele>917.8</ele>
        <time>2021-08-20T12:20:19Z</time>
      </trkpt>
      <trkpt lat="44.27669" lon="2.91536">
        <ele>917.8</ele>
        <time>2021-08-20T12:20:20Z</time>
      </trkpt>
      <trkpt lat="44.27671" lon="2.91538">
        <ele>918.2</ele>
        <time>2021-08-20T12:20:21Z</time>
      </trkpt>
      <trkpt lat="44.27673" lon="2.91538">
        <ele>918.4</ele>
        <time>2021-08-20T12:20:22Z</time>
      </trkpt>
      <trkpt lat="44.27676" lon="2.91539">
        <ele>918.6</ele>
        <time>2021-08-20T12:20:23Z</time>
      </trkpt>
      <trkpt lat="44.27678" lon="2.91541">
        <ele>919</ele>
        <time>2021-08-20T12:20:24Z</time>
      </trkpt>
      <trkpt lat="44.2768" lon="2.91541">
        <ele>919</ele>
        <time>2021-08-20T12:20:25Z</time>
      </trkpt>
      <trkpt lat="44.27682" lon="2.91542">
        <ele>919.4</ele>
        <time>2021-08-20T12:20:26Z</time>
      </trkpt>
      <trkpt lat="44.27684" lon="2.91544">
        <ele>919.4</ele>
        <time>2021-08-20T12:20:27Z</time>
      </trkpt>
      <trkpt lat="44.27686" lon="2.91545">
        <ele>920</ele>
        <time>2021-08-20T12:20:28Z</time>
      </trkpt>
      <trkpt lat="44.27688" lon="2.91546">
        <ele>920.2</ele>
        <time>2021-08-20T12:20:29Z</time>
      </trkpt>
      <trkpt lat="44.2769" lon="2.91548">
        <ele>920.4</ele>
        <time>2021-08-20T12:20:30Z</time>
      </trkpt>
      <trkpt lat="44.27692" lon="2.9155">
        <ele>920.6</ele>
        <time>2021-08-20T12:20:31Z</time>
      </trkpt>
      <trkpt lat="44.27694" lon="2.91552">
        <ele>921</ele>
        <time>2021-08-20T12:20:32Z</time>
      </trkpt>
      <trkpt lat="44.27695" lon="2.91555">
        <ele>921.4</ele>
        <time>2021-08-20T12:20:33Z</time>
      </trkpt>
      <trkpt lat="44.27697" lon="2.91557">
        <ele>921.6</ele>
        <time>2021-08-20T12:20:34Z</time>
      </trkpt>
      <trkpt lat="44.27699" lon="2.91559">
        <ele>922</ele>
        <time>2021-08-20T12:20:35Z</time>
      </trkpt>
      <trkpt lat="44.27701" lon="2.91561">
        <ele>922</ele>
        <time>2021-08-20T12:20:36Z</time>
      </trkpt>
      <trkpt lat="44.27703" lon="2.91563">
        <ele>922.2</ele>
        <time>2021-08-20T12:20:37Z</time>
      </trkpt>
      <trkpt lat="44.27704" lon="2.91565">
        <ele>922.6</ele>
        <time>2021-08-20T12:20:38Z</time>
      </trkpt>
      <trkpt lat="44.27707" lon="2.91569">
        <ele>923</ele>
        <time>2021-08-20T12:20:39Z</time>
      </trkpt>
      <trkpt lat="44.27708" lon="2.9157">
        <ele>923.2</ele>
        <time>2021-08-20T12:20:40Z</time>
      </trkpt>
      <trkpt lat="44.2771" lon="2.91574">
        <ele>923.2</ele>
        <time>2021-08-20T12:20:41Z</time>
      </trkpt>
      <trkpt lat="44.27712" lon="2.91576">
        <ele>923.2</ele>
        <time>2021-08-20T12:20:42Z</time>
      </trkpt>
      <trkpt lat="44.27713" lon="2.91579">
        <ele>923.4</ele>
        <time>2021-08-20T12:20:43Z</time>
      </trkpt>
      <trkpt lat="44.27715" lon="2.91582">
        <ele>923.4</ele>
        <time>2021-08-20T12:20:44Z</time>
      </trkpt>
      <trkpt lat="44.27717" lon="2.91585">
        <ele>923.6</ele>
        <time>2021-08-20T12:20:45Z</time>
      </trkpt>
      <trkpt lat="44.27719" lon="2.91589">
        <ele>923.8</ele>
        <time>2021-08-20T12:20:46Z</time>
      </trkpt>
      <trkpt lat="44.2772" lon="2.91592">
        <ele>924</ele>
        <time>2021-08-20T12:20:47Z</time>
      </trkpt>
      <trkpt lat="44.27722" lon="2.91594">
        <ele>924.2</ele>
        <time>2021-08-20T12:20:48Z</time>
      </trkpt>
      <trkpt lat="44.27724" lon="2.91597">
        <ele>924.2</ele>
        <time>2021-08-20T12:20:49Z</time>
      </trkpt>
      <trkpt lat="44.27725" lon="2.91601">
        <ele>924.4</ele>
        <time>2021-08-20T12:20:50Z</time>
      </trkpt>
      <trkpt lat="44.27727" lon="2.91605">
        <ele>924.4</ele>
        <time>2021-08-20T12:20:51Z</time>
      </trkpt>
      <trkpt lat="44.27728" lon="2.91607">
        <ele>924.6</ele>
        <time>2021-08-20T12:20:52Z</time>
      </trkpt>
      <trkpt lat="44.27729" lon="2.9161">
        <ele>924.8</ele>
        <time>2021-08-20T12:20:53Z</time>
      </trkpt>
      <trkpt lat="44.2773" lon="2.91614">
        <ele>925</ele>
        <time>2021-08-20T12:20:54Z</time>
      </trkpt>
      <trkpt lat="44.27732" lon="2.91618">
        <ele>925.2</ele>
        <time>2021-08-20T12:20:55Z</time>
      </trkpt>
      <trkpt lat="44.27732" lon="2.9162">
        <ele>925.4</ele>
        <time>2021-08-20T12:20:56Z</time>
      </trkpt>
      <trkpt lat="44.27732" lon="2.91624">
        <ele>925.4</ele>
        <time>2021-08-20T12:20:57Z</time>
      </trkpt>
      <trkpt lat="44.27732" lon="2.91628">
        <ele>925.6</ele>
        <time>2021-08-20T12:20:58Z</time>
      </trkpt>
      <trkpt lat="44.27732" lon="2.91632">
        <ele>925.6</ele>
        <time>2021-08-20T12:20:59Z</time>
      </trkpt>
      <trkpt lat="44.27733" lon="2.91635">
        <ele>926</ele>
        <time>2021-08-20T12:21:00Z</time>
      </trkpt>
      <trkpt lat="44.27733" lon="2.91639">
        <ele>926</ele>
        <time>2021-08-20T12:21:01Z</time>
      </trkpt>
      <trkpt lat="44.27733" lon="2.91643">
        <ele>926.2</ele>
        <time>2021-08-20T12:21:02Z</time>
      </trkpt>
      <trkpt lat="44.27734" lon="2.91647">
        <ele>926.2</ele>
        <time>2021-08-20T12:21:03Z</time>
      </trkpt>
      <trkpt lat="44.27734" lon="2.91652">
        <ele>926.4</ele>
        <time>2021-08-20T12:21:04Z</time>
      </trkpt>
      <trkpt lat="44.27734" lon="2.91658">
        <ele>926.4</ele>
        <time>2021-08-20T12:21:05Z</time>
      </trkpt>
      <trkpt lat="44.27734" lon="2.91663">
        <ele>926.4</ele>
        <time>2021-08-20T12:21:06Z</time>
      </trkpt>
      <trkpt lat="44.27735" lon="2.91667">
        <ele>926.4</ele>
        <time>2021-08-20T12:21:07Z</time>
      </trkpt>
      <trkpt lat="44.27735" lon="2.91674">
        <ele>926.4</ele>
        <time>2021-08-20T12:21:08Z</time>
      </trkpt>
      <trkpt lat="44.27735" lon="2.9168">
        <ele>926.4</ele>
        <time>2021-08-20T12:21:09Z</time>
      </trkpt>
      <trkpt lat="44.27736" lon="2.91686">
        <ele>926.4</ele>
        <time>2021-08-20T12:21:10Z</time>
      </trkpt>
      <trkpt lat="44.27736" lon="2.91692">
        <ele>926.4</ele>
        <time>2021-08-20T12:21:11Z</time>
      </trkpt>
      <trkpt lat="44.27736" lon="2.91697">
        <ele>926.4</ele>
        <time>2021-08-20T12:21:12Z</time>
      </trkpt>
      <trkpt lat="44.27737" lon="2.91702">
        <ele>926.4</ele>
        <time>2021-08-20T12:21:13Z</time>
      </trkpt>
      <trkpt lat="44.27737" lon="2.91709">
        <ele>926.6</ele>
        <time>2021-08-20T12:21:14Z</time>
      </trkpt>
      <trkpt lat="44.27738" lon="2.91714">
        <ele>926.6</ele>
        <time>2021-08-20T12:21:15Z</time>
      </trkpt>
      <trkpt lat="44.27738" lon="2.91719">
        <ele>926.8</ele>
        <time>2021-08-20T12:21:16Z</time>
      </trkpt>
      <trkpt lat="44.27738" lon="2.91724">
        <ele>926.8</ele>
        <time>2021-08-20T12:21:17Z</time>
      </trkpt>
      <trkpt lat="44.27739" lon="2.91731">
        <ele>926.8</ele>
        <time>2021-08-20T12:21:18Z</time>
      </trkpt>
      <trkpt lat="44.27739" lon="2.91735">
        <ele>926.8</ele>
        <time>2021-08-20T12:21:19Z</time>
      </trkpt>
      <trkpt lat="44.27739" lon="2.9174">
        <ele>926.8</ele>
        <time>2021-08-20T12:21:20Z</time>
      </trkpt>
      <trkpt lat="44.27739" lon="2.91744">
        <ele>927</ele>
        <time>2021-08-20T12:21:21Z</time>
      </trkpt>
      <trkpt lat="44.27739" lon="2.9175">
        <ele>927</ele>
        <time>2021-08-20T12:21:22Z</time>
      </trkpt>
      <trkpt lat="44.27739" lon="2.91755">
        <ele>927</ele>
        <time>2021-08-20T12:21:23Z</time>
      </trkpt>
      <trkpt lat="44.2774" lon="2.91792">
        <ele>927.4</ele>
        <time>2021-08-20T12:21:30Z</time>
      </trkpt>
      <trkpt lat="44.27741" lon="2.91798">
        <ele>927.4</ele>
        <time>2021-08-20T12:21:31Z</time>
      </trkpt>
      <trkpt lat="44.27742" lon="2.91802">
        <ele>927.4</ele>
        <time>2021-08-20T12:21:32Z</time>
      </trkpt>
      <trkpt lat="44.27744" lon="2.91808">
        <ele>927.4</ele>
        <time>2021-08-20T12:21:33Z</time>
      </trkpt>
      <trkpt lat="44.27746" lon="2.91813">
        <ele>927.4</ele>
        <time>2021-08-20T12:21:34Z</time>
      </trkpt>
      <trkpt lat="44.27747" lon="2.91818">
        <ele>927.4</ele>
        <time>2021-08-20T12:21:35Z</time>
      </trkpt>
      <trkpt lat="44.27749" lon="2.91822">
        <ele>927.6</ele>
        <time>2021-08-20T12:21:36Z</time>
      </trkpt>
      <trkpt lat="44.2775" lon="2.91826">
        <ele>927.4</ele>
        <time>2021-08-20T12:21:37Z</time>
      </trkpt>
      <trkpt lat="44.27752" lon="2.91832">
        <ele>927.4</ele>
        <time>2021-08-20T12:21:38Z</time>
      </trkpt>
      <trkpt lat="44.27754" lon="2.91836">
        <ele>927.4</ele>
        <time>2021-08-20T12:21:39Z</time>
      </trkpt>
      <trkpt lat="44.27755" lon="2.9184">
        <ele>927.4</ele>
        <time>2021-08-20T12:21:40Z</time>
      </trkpt>
      <trkpt lat="44.27757" lon="2.91844">
        <ele>927.4</ele>
        <time>2021-08-20T12:21:41Z</time>
      </trkpt>
      <trkpt lat="44.27759" lon="2.91847">
        <ele>927.4</ele>
        <time>2021-08-20T12:21:42Z</time>
      </trkpt>
      <trkpt lat="44.2776" lon="2.9185">
        <ele>927.6</ele>
        <time>2021-08-20T12:21:43Z</time>
      </trkpt>
      <trkpt lat="44.27761" lon="2.91853">
        <ele>927.8</ele>
        <time>2021-08-20T12:21:44Z</time>
      </trkpt>
      <trkpt lat="44.27761" lon="2.91855">
        <ele>928</ele>
        <time>2021-08-20T12:21:45Z</time>
      </trkpt>
      <trkpt lat="44.27763" lon="2.91859">
        <ele>928.2</ele>
        <time>2021-08-20T12:21:46Z</time>
      </trkpt>
      <trkpt lat="44.27765" lon="2.91865">
        <ele>928.2</ele>
        <time>2021-08-20T12:21:48Z</time>
      </trkpt>
      <trkpt lat="44.27766" lon="2.91868">
        <ele>928.2</ele>
        <time>2021-08-20T12:21:49Z</time>
      </trkpt>
      <trkpt lat="44.27767" lon="2.9187">
        <ele>928.2</ele>
        <time>2021-08-20T12:21:50Z</time>
      </trkpt>
      <trkpt lat="44.27768" lon="2.91873">
        <ele>928.2</ele>
        <time>2021-08-20T12:21:51Z</time>
      </trkpt>
      <trkpt lat="44.27769" lon="2.91876">
        <ele>928.4</ele>
        <time>2021-08-20T12:21:52Z</time>
      </trkpt>
      <trkpt lat="44.27774" lon="2.91885">
        <ele>928.4</ele>
        <time>2021-08-20T12:21:56Z</time>
      </trkpt>
      <trkpt lat="44.27776" lon="2.91887">
        <ele>928.4</ele>
        <time>2021-08-20T12:21:57Z</time>
      </trkpt>
      <trkpt lat="44.27778" lon="2.91888">
        <ele>928.4</ele>
        <time>2021-08-20T12:21:58Z</time>
      </trkpt>
      <trkpt lat="44.27781" lon="2.91889">
        <ele>928.6</ele>
        <time>2021-08-20T12:21:59Z</time>
      </trkpt>
      <trkpt lat="44.27782" lon="2.91889">
        <ele>928.6</ele>
        <time>2021-08-20T12:22:00Z</time>
      </trkpt>
      <trkpt lat="44.27787" lon="2.91891">
        <ele>929</ele>
        <time>2021-08-20T12:22:02Z</time>
      </trkpt>
      <trkpt lat="44.2779" lon="2.91892">
        <ele>929.2</ele>
        <time>2021-08-20T12:22:03Z</time>
      </trkpt>
      <trkpt lat="44.27794" lon="2.91896">
        <ele>929.6</ele>
        <time>2021-08-20T12:22:05Z</time>
      </trkpt>
      <trkpt lat="44.27803" lon="2.91906">
        <ele>929.6</ele>
        <time>2021-08-20T12:22:09Z</time>
      </trkpt>
      <trkpt lat="44.27804" lon="2.91907">
        <ele>929.8</ele>
        <time>2021-08-20T12:22:10Z</time>
      </trkpt>
      <trkpt lat="44.27811" lon="2.91914">
        <ele>929.8</ele>
        <time>2021-08-20T12:22:13Z</time>
      </trkpt>
      <trkpt lat="44.27812" lon="2.91916">
        <ele>929.8</ele>
        <time>2021-08-20T12:22:14Z</time>
      </trkpt>
      <trkpt lat="44.27815" lon="2.91917">
        <ele>929.8</ele>
        <time>2021-08-20T12:22:15Z</time>
      </trkpt>
      <trkpt lat="44.27817" lon="2.91919">
        <ele>929.8</ele>
        <time>2021-08-20T12:22:16Z</time>
      </trkpt>
      <trkpt lat="44.27819" lon="2.91921">
        <ele>929.8</ele>
        <time>2021-08-20T12:22:17Z</time>
      </trkpt>
      <trkpt lat="44.27833" lon="2.91932">
        <ele>930</ele>
        <time>2021-08-20T12:22:23Z</time>
      </trkpt>
      <trkpt lat="44.27839" lon="2.91937">
        <ele>929.8</ele>
        <time>2021-08-20T12:22:25Z</time>
      </trkpt>
      <trkpt lat="44.27849" lon="2.91946">
        <ele>929.6</ele>
        <time>2021-08-20T12:22:29Z</time>
      </trkpt>
      <trkpt lat="44.27871" lon="2.91965">
        <ele>929.4</ele>
        <time>2021-08-20T12:22:36Z</time>
      </trkpt>
      <trkpt lat="44.27875" lon="2.91968">
        <ele>929.2</ele>
        <time>2021-08-20T12:22:37Z</time>
      </trkpt>
      <trkpt lat="44.27878" lon="2.91971">
        <ele>929.2</ele>
        <time>2021-08-20T12:22:38Z</time>
      </trkpt>
      <trkpt lat="44.2788" lon="2.91973">
        <ele>929.2</ele>
        <time>2021-08-20T12:22:39Z</time>
      </trkpt>
      <trkpt lat="44.27887" lon="2.91979">
        <ele>929</ele>
        <time>2021-08-20T12:22:41Z</time>
      </trkpt>
      <trkpt lat="44.2789" lon="2.91982">
        <ele>929</ele>
        <time>2021-08-20T12:22:42Z</time>
      </trkpt>
      <trkpt lat="44.27892" lon="2.91984">
        <ele>929</ele>
        <time>2021-08-20T12:22:43Z</time>
      </trkpt>
      <trkpt lat="44.27895" lon="2.91986">
        <ele>928.8</ele>
        <time>2021-08-20T12:22:44Z</time>
      </trkpt>
      <trkpt lat="44.27898" lon="2.91989">
        <ele>928.8</ele>
        <time>2021-08-20T12:22:45Z</time>
      </trkpt>
      <trkpt lat="44.2791" lon="2.91999">
        <ele>928.8</ele>
        <time>2021-08-20T12:22:49Z</time>
      </trkpt>
      <trkpt lat="44.27939" lon="2.92024">
        <ele>928.6</ele>
        <time>2021-08-20T12:22:58Z</time>
      </trkpt>
      <trkpt lat="44.27943" lon="2.92027">
        <ele>928.6</ele>
        <time>2021-08-20T12:22:59Z</time>
      </trkpt>
      <trkpt lat="44.27947" lon="2.92031">
        <ele>928.6</ele>
        <time>2021-08-20T12:23:00Z</time>
      </trkpt>
      <trkpt lat="44.27951" lon="2.92034">
        <ele>928.6</ele>
        <time>2021-08-20T12:23:01Z</time>
      </trkpt>
      <trkpt lat="44.27962" lon="2.92044">
        <ele>928.6</ele>
        <time>2021-08-20T12:23:04Z</time>
      </trkpt>
      <trkpt lat="44.27965" lon="2.92048">
        <ele>928.6</ele>
        <time>2021-08-20T12:23:05Z</time>
      </trkpt>
      <trkpt lat="44.27969" lon="2.92051">
        <ele>928.6</ele>
        <time>2021-08-20T12:23:06Z</time>
      </trkpt>
      <trkpt lat="44.27983" lon="2.92064">
        <ele>929.2</ele>
        <time>2021-08-20T12:23:10Z</time>
      </trkpt>
      <trkpt lat="44.27986" lon="2.92067">
        <ele>929.2</ele>
        <time>2021-08-20T12:23:11Z</time>
      </trkpt>
      <trkpt lat="44.28001" lon="2.9208">
        <ele>929.2</ele>
        <time>2021-08-20T12:23:15Z</time>
      </trkpt>
      <trkpt lat="44.28008" lon="2.92085">
        <ele>929.4</ele>
        <time>2021-08-20T12:23:17Z</time>
      </trkpt>
      <trkpt lat="44.28011" lon="2.92087">
        <ele>929.6</ele>
        <time>2021-08-20T12:23:18Z</time>
      </trkpt>
      <trkpt lat="44.28015" lon="2.9209">
        <ele>929.6</ele>
        <time>2021-08-20T12:23:19Z</time>
      </trkpt>
      <trkpt lat="44.28018" lon="2.92093">
        <ele>929.6</ele>
        <time>2021-08-20T12:23:20Z</time>
      </trkpt>
      <trkpt lat="44.2802" lon="2.92095">
        <ele>929.8</ele>
        <time>2021-08-20T12:23:21Z</time>
      </trkpt>
      <trkpt lat="44.28023" lon="2.92097">
        <ele>929.8</ele>
        <time>2021-08-20T12:23:22Z</time>
      </trkpt>
      <trkpt lat="44.28025" lon="2.921">
        <ele>930</ele>
        <time>2021-08-20T12:23:23Z</time>
      </trkpt>
      <trkpt lat="44.2804" lon="2.92116">
        <ele>931</ele>
        <time>2021-08-20T12:23:29Z</time>
      </trkpt>
      <trkpt lat="44.28042" lon="2.92119">
        <ele>931</ele>
        <time>2021-08-20T12:23:30Z</time>
      </trkpt>
      <trkpt lat="44.28044" lon="2.92121">
        <ele>931</ele>
        <time>2021-08-20T12:23:31Z</time>
      </trkpt>
      <trkpt lat="44.28047" lon="2.92123">
        <ele>931.2</ele>
        <time>2021-08-20T12:23:32Z</time>
      </trkpt>
      <trkpt lat="44.28056" lon="2.92135">
        <ele>931.6</ele>
        <time>2021-08-20T12:23:36Z</time>
      </trkpt>
      <trkpt lat="44.28066" lon="2.92144">
        <ele>932</ele>
        <time>2021-08-20T12:23:39Z</time>
      </trkpt>
      <trkpt lat="44.28068" lon="2.92147">
        <ele>932</ele>
        <time>2021-08-20T12:23:40Z</time>
      </trkpt>
      <trkpt lat="44.2807" lon="2.9215">
        <ele>932.2</ele>
        <time>2021-08-20T12:23:41Z</time>
      </trkpt>
      <trkpt lat="44.28072" lon="2.92153">
        <ele>932.2</ele>
        <time>2021-08-20T12:23:42Z</time>
      </trkpt>
      <trkpt lat="44.28075" lon="2.92156">
        <ele>932.4</ele>
        <time>2021-08-20T12:23:43Z</time>
      </trkpt>
      <trkpt lat="44.28078" lon="2.92158">
        <ele>932.6</ele>
        <time>2021-08-20T12:23:44Z</time>
      </trkpt>
      <trkpt lat="44.2808" lon="2.92161">
        <ele>932.6</ele>
        <time>2021-08-20T12:23:45Z</time>
      </trkpt>
      <trkpt lat="44.28082" lon="2.92163">
        <ele>932.8</ele>
        <time>2021-08-20T12:23:46Z</time>
      </trkpt>
      <trkpt lat="44.28084" lon="2.92166">
        <ele>932.8</ele>
        <time>2021-08-20T12:23:47Z</time>
      </trkpt>
      <trkpt lat="44.28087" lon="2.92169">
        <ele>933</ele>
        <time>2021-08-20T12:23:48Z</time>
      </trkpt>
      <trkpt lat="44.28089" lon="2.92171">
        <ele>933</ele>
        <time>2021-08-20T12:23:49Z</time>
      </trkpt>
      <trkpt lat="44.28091" lon="2.92173">
        <ele>933.2</ele>
        <time>2021-08-20T12:23:50Z</time>
      </trkpt>
      <trkpt lat="44.28093" lon="2.92175">
        <ele>933.4</ele>
        <time>2021-08-20T12:23:51Z</time>
      </trkpt>
      <trkpt lat="44.28096" lon="2.92179">
        <ele>933.4</ele>
        <time>2021-08-20T12:23:52Z</time>
      </trkpt>
      <trkpt lat="44.28098" lon="2.92181">
        <ele>933.6</ele>
        <time>2021-08-20T12:23:53Z</time>
      </trkpt>
      <trkpt lat="44.28101" lon="2.92183">
        <ele>933.6</ele>
        <time>2021-08-20T12:23:54Z</time>
      </trkpt>
      <trkpt lat="44.28103" lon="2.92185">
        <ele>933.8</ele>
        <time>2021-08-20T12:23:55Z</time>
      </trkpt>
      <trkpt lat="44.28104" lon="2.92187">
        <ele>933.8</ele>
        <time>2021-08-20T12:23:56Z</time>
      </trkpt>
      <trkpt lat="44.28106" lon="2.92189">
        <ele>933.8</ele>
        <time>2021-08-20T12:23:57Z</time>
      </trkpt>
      <trkpt lat="44.28108" lon="2.92191">
        <ele>934</ele>
        <time>2021-08-20T12:23:58Z</time>
      </trkpt>
      <trkpt lat="44.2811" lon="2.92193">
        <ele>934</ele>
        <time>2021-08-20T12:23:59Z</time>
      </trkpt>
      <trkpt lat="44.28112" lon="2.92195">
        <ele>934.2</ele>
        <time>2021-08-20T12:24:00Z</time>
      </trkpt>
      <trkpt lat="44.28114" lon="2.92198">
        <ele>934.4</ele>
        <time>2021-08-20T12:24:01Z</time>
      </trkpt>
      <trkpt lat="44.28117" lon="2.92202">
        <ele>934.6</ele>
        <time>2021-08-20T12:24:02Z</time>
      </trkpt>
      <trkpt lat="44.28119" lon="2.92204">
        <ele>934.6</ele>
        <time>2021-08-20T12:24:03Z</time>
      </trkpt>
      <trkpt lat="44.28121" lon="2.92206">
        <ele>934.8</ele>
        <time>2021-08-20T12:24:04Z</time>
      </trkpt>
      <trkpt lat="44.28123" lon="2.92209">
        <ele>934.8</ele>
        <time>2021-08-20T12:24:05Z</time>
      </trkpt>
      <trkpt lat="44.28125" lon="2.92211">
        <ele>935</ele>
        <time>2021-08-20T12:24:06Z</time>
      </trkpt>
      <trkpt lat="44.28128" lon="2.92213">
        <ele>935.2</ele>
        <time>2021-08-20T12:24:07Z</time>
      </trkpt>
      <trkpt lat="44.2813" lon="2.92215">
        <ele>935.4</ele>
        <time>2021-08-20T12:24:08Z</time>
      </trkpt>
      <trkpt lat="44.28131" lon="2.92217">
        <ele>935.6</ele>
        <time>2021-08-20T12:24:09Z</time>
      </trkpt>
      <trkpt lat="44.28134" lon="2.92221">
        <ele>935.6</ele>
        <time>2021-08-20T12:24:10Z</time>
      </trkpt>
      <trkpt lat="44.28136" lon="2.92223">
        <ele>936</ele>
        <time>2021-08-20T12:24:11Z</time>
      </trkpt>
      <trkpt lat="44.28137" lon="2.92225">
        <ele>936</ele>
        <time>2021-08-20T12:24:12Z</time>
      </trkpt>
      <trkpt lat="44.28139" lon="2.92227">
        <ele>936.2</ele>
        <time>2021-08-20T12:24:13Z</time>
      </trkpt>
      <trkpt lat="44.2814" lon="2.92229">
        <ele>936.8</ele>
        <time>2021-08-20T12:24:14Z</time>
      </trkpt>
      <trkpt lat="44.28142" lon="2.92231">
        <ele>937</ele>
        <time>2021-08-20T12:24:15Z</time>
      </trkpt>
      <trkpt lat="44.28144" lon="2.92234">
        <ele>937.6</ele>
        <time>2021-08-20T12:24:16Z</time>
      </trkpt>
      <trkpt lat="44.28146" lon="2.92236">
        <ele>937.6</ele>
        <time>2021-08-20T12:24:17Z</time>
      </trkpt>
      <trkpt lat="44.28149" lon="2.92238">
        <ele>938</ele>
        <time>2021-08-20T12:24:18Z</time>
      </trkpt>
      <trkpt lat="44.28151" lon="2.92241">
        <ele>938</ele>
        <time>2021-08-20T12:24:19Z</time>
      </trkpt>
      <trkpt lat="44.28153" lon="2.92242">
        <ele>938.4</ele>
        <time>2021-08-20T12:24:20Z</time>
      </trkpt>
      <trkpt lat="44.28155" lon="2.92245">
        <ele>938.4</ele>
        <time>2021-08-20T12:24:21Z</time>
      </trkpt>
      <trkpt lat="44.28157" lon="2.92247">
        <ele>938.8</ele>
        <time>2021-08-20T12:24:22Z</time>
      </trkpt>
      <trkpt lat="44.2816" lon="2.9225">
        <ele>939.4</ele>
        <time>2021-08-20T12:24:23Z</time>
      </trkpt>
      <trkpt lat="44.28163" lon="2.92252">
        <ele>939.6</ele>
        <time>2021-08-20T12:24:24Z</time>
      </trkpt>
      <trkpt lat="44.28165" lon="2.92255">
        <ele>940</ele>
        <time>2021-08-20T12:24:25Z</time>
      </trkpt>
      <trkpt lat="44.28167" lon="2.92257">
        <ele>940.2</ele>
        <time>2021-08-20T12:24:26Z</time>
      </trkpt>
      <trkpt lat="44.28169" lon="2.92259">
        <ele>940.2</ele>
        <time>2021-08-20T12:24:27Z</time>
      </trkpt>
      <trkpt lat="44.28171" lon="2.92261">
        <ele>940.4</ele>
        <time>2021-08-20T12:24:28Z</time>
      </trkpt>
      <trkpt lat="44.28173" lon="2.92263">
        <ele>940.8</ele>
        <time>2021-08-20T12:24:29Z</time>
      </trkpt>
      <trkpt lat="44.28175" lon="2.92265">
        <ele>941</ele>
        <time>2021-08-20T12:24:30Z</time>
      </trkpt>
      <trkpt lat="44.28177" lon="2.92268">
        <ele>941.4</ele>
        <time>2021-08-20T12:24:31Z</time>
      </trkpt>
      <trkpt lat="44.28179" lon="2.9227">
        <ele>941.8</ele>
        <time>2021-08-20T12:24:32Z</time>
      </trkpt>
      <trkpt lat="44.28181" lon="2.92272">
        <ele>941.8</ele>
        <time>2021-08-20T12:24:33Z</time>
      </trkpt>
      <trkpt lat="44.28182" lon="2.92274">
        <ele>942</ele>
        <time>2021-08-20T12:24:34Z</time>
      </trkpt>
      <trkpt lat="44.28184" lon="2.92276">
        <ele>942.2</ele>
        <time>2021-08-20T12:24:35Z</time>
      </trkpt>
      <trkpt lat="44.28187" lon="2.92279">
        <ele>942.4</ele>
        <time>2021-08-20T12:24:36Z</time>
      </trkpt>
      <trkpt lat="44.28189" lon="2.92281">
        <ele>942.4</ele>
        <time>2021-08-20T12:24:37Z</time>
      </trkpt>
      <trkpt lat="44.2819" lon="2.92282">
        <ele>942.8</ele>
        <time>2021-08-20T12:24:38Z</time>
      </trkpt>
      <trkpt lat="44.28191" lon="2.92284">
        <ele>943</ele>
        <time>2021-08-20T12:24:39Z</time>
      </trkpt>
      <trkpt lat="44.28193" lon="2.92285">
        <ele>943.2</ele>
        <time>2021-08-20T12:24:40Z</time>
      </trkpt>
      <trkpt lat="44.28194" lon="2.92287">
        <ele>943.6</ele>
        <time>2021-08-20T12:24:41Z</time>
      </trkpt>
      <trkpt lat="44.28195" lon="2.92288">
        <ele>943.8</ele>
        <time>2021-08-20T12:24:42Z</time>
      </trkpt>
      <trkpt lat="44.28195" lon="2.92289">
        <ele>943.8</ele>
        <time>2021-08-20T12:24:43Z</time>
      </trkpt>
      <trkpt lat="44.28196" lon="2.92291">
        <ele>944</ele>
        <time>2021-08-20T12:24:44Z</time>
      </trkpt>
      <trkpt lat="44.28198" lon="2.92293">
        <ele>944.2</ele>
        <time>2021-08-20T12:24:45Z</time>
      </trkpt>
      <trkpt lat="44.28199" lon="2.92294">
        <ele>944.4</ele>
        <time>2021-08-20T12:24:46Z</time>
      </trkpt>
      <trkpt lat="44.282" lon="2.92296">
        <ele>944.6</ele>
        <time>2021-08-20T12:24:47Z</time>
      </trkpt>
      <trkpt lat="44.28201" lon="2.92297">
        <ele>944.8</ele>
        <time>2021-08-20T12:24:48Z</time>
      </trkpt>
      <trkpt lat="44.28203" lon="2.92298">
        <ele>945</ele>
        <time>2021-08-20T12:24:49Z</time>
      </trkpt>
      <trkpt lat="44.28204" lon="2.923">
        <ele>945.2</ele>
        <time>2021-08-20T12:24:50Z</time>
      </trkpt>
      <trkpt lat="44.28205" lon="2.92301">
        <ele>945.2</ele>
        <time>2021-08-20T12:24:51Z</time>
      </trkpt>
      <trkpt lat="44.28206" lon="2.92303">
        <ele>945.4</ele>
        <time>2021-08-20T12:24:52Z</time>
      </trkpt>
      <trkpt lat="44.28208" lon="2.92305">
        <ele>945.6</ele>
        <time>2021-08-20T12:24:53Z</time>
      </trkpt>
      <trkpt lat="44.28208" lon="2.92306">
        <ele>945.8</ele>
        <time>2021-08-20T12:24:54Z</time>
      </trkpt>
      <trkpt lat="44.2821" lon="2.92307">
        <ele>946</ele>
        <time>2021-08-20T12:24:55Z</time>
      </trkpt>
      <trkpt lat="44.28211" lon="2.92309">
        <ele>946</ele>
        <time>2021-08-20T12:24:56Z</time>
      </trkpt>
      <trkpt lat="44.28212" lon="2.9231">
        <ele>946.2</ele>
        <time>2021-08-20T12:24:57Z</time>
      </trkpt>
      <trkpt lat="44.28213" lon="2.92312">
        <ele>946.4</ele>
        <time>2021-08-20T12:24:58Z</time>
      </trkpt>
      <trkpt lat="44.28214" lon="2.92313">
        <ele>946.4</ele>
        <time>2021-08-20T12:24:59Z</time>
      </trkpt>
      <trkpt lat="44.28216" lon="2.92315">
        <ele>946.6</ele>
        <time>2021-08-20T12:25:00Z</time>
      </trkpt>
      <trkpt lat="44.28217" lon="2.92317">
        <ele>946.6</ele>
        <time>2021-08-20T12:25:01Z</time>
      </trkpt>
      <trkpt lat="44.28218" lon="2.92318">
        <ele>946.6</ele>
        <time>2021-08-20T12:25:02Z</time>
      </trkpt>
      <trkpt lat="44.28219" lon="2.92319">
        <ele>946.8</ele>
        <time>2021-08-20T12:25:03Z</time>
      </trkpt>
      <trkpt lat="44.2822" lon="2.92321">
        <ele>947</ele>
        <time>2021-08-20T12:25:04Z</time>
      </trkpt>
      <trkpt lat="44.28222" lon="2.92324">
        <ele>947</ele>
        <time>2021-08-20T12:25:05Z</time>
      </trkpt>
      <trkpt lat="44.28223" lon="2.92325">
        <ele>947.2</ele>
        <time>2021-08-20T12:25:06Z</time>
      </trkpt>
      <trkpt lat="44.28224" lon="2.92328">
        <ele>947.2</ele>
        <time>2021-08-20T12:25:07Z</time>
      </trkpt>
      <trkpt lat="44.28225" lon="2.9233">
        <ele>947.4</ele>
        <time>2021-08-20T12:25:08Z</time>
      </trkpt>
      <trkpt lat="44.28226" lon="2.92332">
        <ele>947.6</ele>
        <time>2021-08-20T12:25:09Z</time>
      </trkpt>
      <trkpt lat="44.28227" lon="2.92334">
        <ele>947.6</ele>
        <time>2021-08-20T12:25:10Z</time>
      </trkpt>
      <trkpt lat="44.28228" lon="2.92336">
        <ele>947.6</ele>
        <time>2021-08-20T12:25:11Z</time>
      </trkpt>
      <trkpt lat="44.28229" lon="2.92338">
        <ele>947.8</ele>
        <time>2021-08-20T12:25:12Z</time>
      </trkpt>
      <trkpt lat="44.28231" lon="2.9234">
        <ele>947.8</ele>
        <time>2021-08-20T12:25:13Z</time>
      </trkpt>
      <trkpt lat="44.28232" lon="2.92342">
        <ele>947.8</ele>
        <time>2021-08-20T12:25:14Z</time>
      </trkpt>
      <trkpt lat="44.28233" lon="2.92344">
        <ele>948</ele>
        <time>2021-08-20T12:25:15Z</time>
      </trkpt>
      <trkpt lat="44.28235" lon="2.92347">
        <ele>948</ele>
        <time>2021-08-20T12:25:16Z</time>
      </trkpt>
      <trkpt lat="44.28236" lon="2.9235">
        <ele>948.2</ele>
        <time>2021-08-20T12:25:17Z</time>
      </trkpt>
      <trkpt lat="44.28238" lon="2.92354">
        <ele>948</ele>
        <time>2021-08-20T12:25:18Z</time>
      </trkpt>
      <trkpt lat="44.28239" lon="2.92357">
        <ele>948.2</ele>
        <time>2021-08-20T12:25:19Z</time>
      </trkpt>
      <trkpt lat="44.2824" lon="2.9236">
        <ele>948.2</ele>
        <time>2021-08-20T12:25:20Z</time>
      </trkpt>
      <trkpt lat="44.28241" lon="2.92362">
        <ele>948.2</ele>
        <time>2021-08-20T12:25:21Z</time>
      </trkpt>
      <trkpt lat="44.28242" lon="2.92364">
        <ele>948.4</ele>
        <time>2021-08-20T12:25:22Z</time>
      </trkpt>
      <trkpt lat="44.28243" lon="2.92368">
        <ele>948.6</ele>
        <time>2021-08-20T12:25:23Z</time>
      </trkpt>
      <trkpt lat="44.28245" lon="2.92371">
        <ele>948.8</ele>
        <time>2021-08-20T12:25:24Z</time>
      </trkpt>
      <trkpt lat="44.28246" lon="2.92375">
        <ele>948.8</ele>
        <time>2021-08-20T12:25:25Z</time>
      </trkpt>
      <trkpt lat="44.28247" lon="2.92376">
        <ele>949</ele>
        <time>2021-08-20T12:25:26Z</time>
      </trkpt>
      <trkpt lat="44.28249" lon="2.92379">
        <ele>949</ele>
        <time>2021-08-20T12:25:27Z</time>
      </trkpt>
      <trkpt lat="44.28251" lon="2.92381">
        <ele>949</ele>
        <time>2021-08-20T12:25:28Z</time>
      </trkpt>
      <trkpt lat="44.28252" lon="2.92384">
        <ele>949.2</ele>
        <time>2021-08-20T12:25:29Z</time>
      </trkpt>
      <trkpt lat="44.28254" lon="2.92387">
        <ele>949.2</ele>
        <time>2021-08-20T12:25:30Z</time>
      </trkpt>
      <trkpt lat="44.28255" lon="2.92389">
        <ele>949.4</ele>
        <time>2021-08-20T12:25:31Z</time>
      </trkpt>
      <trkpt lat="44.28256" lon="2.9239">
        <ele>949.4</ele>
        <time>2021-08-20T12:25:32Z</time>
      </trkpt>
      <trkpt lat="44.28258" lon="2.92391">
        <ele>949.6</ele>
        <time>2021-08-20T12:25:33Z</time>
      </trkpt>
      <trkpt lat="44.2826" lon="2.92393">
        <ele>949.6</ele>
        <time>2021-08-20T12:25:34Z</time>
      </trkpt>
      <trkpt lat="44.28262" lon="2.92395">
        <ele>950</ele>
        <time>2021-08-20T12:25:35Z</time>
      </trkpt>
      <trkpt lat="44.28263" lon="2.92397">
        <ele>950.2</ele>
        <time>2021-08-20T12:25:36Z</time>
      </trkpt>
      <trkpt lat="44.28266" lon="2.92399">
        <ele>950.2</ele>
        <time>2021-08-20T12:25:37Z</time>
      </trkpt>
      <trkpt lat="44.28268" lon="2.92402">
        <ele>950.2</ele>
        <time>2021-08-20T12:25:38Z</time>
      </trkpt>
      <trkpt lat="44.2827" lon="2.92404">
        <ele>950.4</ele>
        <time>2021-08-20T12:25:39Z</time>
      </trkpt>
      <trkpt lat="44.28272" lon="2.92405">
        <ele>950.4</ele>
        <time>2021-08-20T12:25:40Z</time>
      </trkpt>
      <trkpt lat="44.28275" lon="2.92408">
        <ele>950.4</ele>
        <time>2021-08-20T12:25:41Z</time>
      </trkpt>
      <trkpt lat="44.28277" lon="2.9241">
        <ele>950.4</ele>
        <time>2021-08-20T12:25:42Z</time>
      </trkpt>
      <trkpt lat="44.2828" lon="2.92412">
        <ele>950.6</ele>
        <time>2021-08-20T12:25:43Z</time>
      </trkpt>
      <trkpt lat="44.28282" lon="2.92414">
        <ele>951</ele>
        <time>2021-08-20T12:25:44Z</time>
      </trkpt>
      <trkpt lat="44.28284" lon="2.92415">
        <ele>951.2</ele>
        <time>2021-08-20T12:25:45Z</time>
      </trkpt>
      <trkpt lat="44.28285" lon="2.92417">
        <ele>951.4</ele>
        <time>2021-08-20T12:25:46Z</time>
      </trkpt>
      <trkpt lat="44.28287" lon="2.92418">
        <ele>951.6</ele>
        <time>2021-08-20T12:25:47Z</time>
      </trkpt>
      <trkpt lat="44.28288" lon="2.92418">
        <ele>951.8</ele>
        <time>2021-08-20T12:25:48Z</time>
      </trkpt>
      <trkpt lat="44.2829" lon="2.9242">
        <ele>951.8</ele>
        <time>2021-08-20T12:25:49Z</time>
      </trkpt>
      <trkpt lat="44.28293" lon="2.92421">
        <ele>952</ele>
        <time>2021-08-20T12:25:50Z</time>
      </trkpt>
      <trkpt lat="44.28295" lon="2.92422">
        <ele>952</ele>
        <time>2021-08-20T12:25:51Z</time>
      </trkpt>
      <trkpt lat="44.28297" lon="2.92424">
        <ele>952.2</ele>
        <time>2021-08-20T12:25:52Z</time>
      </trkpt>
      <trkpt lat="44.28299" lon="2.92424">
        <ele>952.2</ele>
        <time>2021-08-20T12:25:53Z</time>
      </trkpt>
      <trkpt lat="44.28302" lon="2.92423">
        <ele>952.4</ele>
        <time>2021-08-20T12:25:54Z</time>
      </trkpt>
      <trkpt lat="44.28304" lon="2.92423">
        <ele>952.4</ele>
        <time>2021-08-20T12:25:55Z</time>
      </trkpt>
      <trkpt lat="44.28306" lon="2.92423">
        <ele>952.6</ele>
        <time>2021-08-20T12:25:56Z</time>
      </trkpt>
      <trkpt lat="44.28309" lon="2.92423">
        <ele>952.6</ele>
        <time>2021-08-20T12:25:57Z</time>
      </trkpt>
      <trkpt lat="44.28311" lon="2.92424">
        <ele>952.6</ele>
        <time>2021-08-20T12:25:58Z</time>
      </trkpt>
      <trkpt lat="44.28314" lon="2.92425">
        <ele>952.8</ele>
        <time>2021-08-20T12:25:59Z</time>
      </trkpt>
      <trkpt lat="44.28316" lon="2.92425">
        <ele>952.8</ele>
        <time>2021-08-20T12:26:00Z</time>
      </trkpt>
      <trkpt lat="44.28319" lon="2.92426">
        <ele>952.8</ele>
        <time>2021-08-20T12:26:01Z</time>
      </trkpt>
      <trkpt lat="44.28322" lon="2.92427">
        <ele>952.8</ele>
        <time>2021-08-20T12:26:02Z</time>
      </trkpt>
      <trkpt lat="44.28324" lon="2.92427">
        <ele>953</ele>
        <time>2021-08-20T12:26:03Z</time>
      </trkpt>
      <trkpt lat="44.28327" lon="2.92427">
        <ele>953</ele>
        <time>2021-08-20T12:26:04Z</time>
      </trkpt>
      <trkpt lat="44.28329" lon="2.92428">
        <ele>953</ele>
        <time>2021-08-20T12:26:05Z</time>
      </trkpt>
      <trkpt lat="44.28331" lon="2.92428">
        <ele>953</ele>
        <time>2021-08-20T12:26:06Z</time>
      </trkpt>
      <trkpt lat="44.28333" lon="2.92428">
        <ele>953</ele>
        <time>2021-08-20T12:26:07Z</time>
      </trkpt>
      <trkpt lat="44.28335" lon="2.92428">
        <ele>953</ele>
        <time>2021-08-20T12:26:08Z</time>
      </trkpt>
      <trkpt lat="44.28338" lon="2.92429">
        <ele>953.2</ele>
        <time>2021-08-20T12:26:09Z</time>
      </trkpt>
      <trkpt lat="44.28357" lon="2.9243">
        <ele>953.8</ele>
        <time>2021-08-20T12:26:16Z</time>
      </trkpt>
      <trkpt lat="44.2836" lon="2.9243">
        <ele>954.2</ele>
        <time>2021-08-20T12:26:17Z</time>
      </trkpt>
      <trkpt lat="44.28363" lon="2.9243">
        <ele>954.2</ele>
        <time>2021-08-20T12:26:18Z</time>
      </trkpt>
      <trkpt lat="44.28365" lon="2.9243">
        <ele>954.4</ele>
        <time>2021-08-20T12:26:19Z</time>
      </trkpt>
      <trkpt lat="44.28373" lon="2.9243">
        <ele>954.6</ele>
        <time>2021-08-20T12:26:22Z</time>
      </trkpt>
      <trkpt lat="44.28379" lon="2.9243">
        <ele>954.8</ele>
        <time>2021-08-20T12:26:24Z</time>
      </trkpt>
      <trkpt lat="44.28383" lon="2.92431">
        <ele>955</ele>
        <time>2021-08-20T12:26:25Z</time>
      </trkpt>
      <trkpt lat="44.28389" lon="2.92431">
        <ele>955.4</ele>
        <time>2021-08-20T12:26:27Z</time>
      </trkpt>
      <trkpt lat="44.28392" lon="2.92431">
        <ele>955.6</ele>
        <time>2021-08-20T12:26:28Z</time>
      </trkpt>
      <trkpt lat="44.28395" lon="2.9243">
        <ele>955.8</ele>
        <time>2021-08-20T12:26:29Z</time>
      </trkpt>
      <trkpt lat="44.28399" lon="2.92431">
        <ele>955.8</ele>
        <time>2021-08-20T12:26:30Z</time>
      </trkpt>
      <trkpt lat="44.28402" lon="2.92431">
        <ele>955.8</ele>
        <time>2021-08-20T12:26:31Z</time>
      </trkpt>
      <trkpt lat="44.28405" lon="2.9243">
        <ele>955.8</ele>
        <time>2021-08-20T12:26:32Z</time>
      </trkpt>
      <trkpt lat="44.28407" lon="2.9243">
        <ele>956</ele>
        <time>2021-08-20T12:26:33Z</time>
      </trkpt>
      <trkpt lat="44.2841" lon="2.9243">
        <ele>956</ele>
        <time>2021-08-20T12:26:34Z</time>
      </trkpt>
      <trkpt lat="44.28413" lon="2.92429">
        <ele>956.2</ele>
        <time>2021-08-20T12:26:35Z</time>
      </trkpt>
      <trkpt lat="44.28416" lon="2.92429">
        <ele>956.4</ele>
        <time>2021-08-20T12:26:36Z</time>
      </trkpt>
      <trkpt lat="44.28419" lon="2.9243">
        <ele>956.4</ele>
        <time>2021-08-20T12:26:37Z</time>
      </trkpt>
      <trkpt lat="44.28422" lon="2.9243">
        <ele>956.6</ele>
        <time>2021-08-20T12:26:38Z</time>
      </trkpt>
      <trkpt lat="44.28424" lon="2.9243">
        <ele>956.6</ele>
        <time>2021-08-20T12:26:39Z</time>
      </trkpt>
      <trkpt lat="44.28427" lon="2.92429">
        <ele>956.8</ele>
        <time>2021-08-20T12:26:40Z</time>
      </trkpt>
      <trkpt lat="44.2843" lon="2.92429">
        <ele>956.8</ele>
        <time>2021-08-20T12:26:41Z</time>
      </trkpt>
      <trkpt lat="44.28433" lon="2.9243">
        <ele>957.2</ele>
        <time>2021-08-20T12:26:42Z</time>
      </trkpt>
      <trkpt lat="44.28435" lon="2.92431">
        <ele>957.2</ele>
        <time>2021-08-20T12:26:43Z</time>
      </trkpt>
      <trkpt lat="44.28438" lon="2.92433">
        <ele>957.4</ele>
        <time>2021-08-20T12:26:44Z</time>
      </trkpt>
      <trkpt lat="44.28441" lon="2.92434">
        <ele>957.6</ele>
        <time>2021-08-20T12:26:45Z</time>
      </trkpt>
      <trkpt lat="44.28444" lon="2.92434">
        <ele>957.8</ele>
        <time>2021-08-20T12:26:46Z</time>
      </trkpt>
      <trkpt lat="44.28446" lon="2.92434">
        <ele>957.8</ele>
        <time>2021-08-20T12:26:47Z</time>
      </trkpt>
      <trkpt lat="44.28449" lon="2.92436">
        <ele>958</ele>
        <time>2021-08-20T12:26:48Z</time>
      </trkpt>
      <trkpt lat="44.28452" lon="2.92436">
        <ele>958.2</ele>
        <time>2021-08-20T12:26:49Z</time>
      </trkpt>
      <trkpt lat="44.28454" lon="2.92437">
        <ele>958.2</ele>
        <time>2021-08-20T12:26:50Z</time>
      </trkpt>
      <trkpt lat="44.28457" lon="2.92437">
        <ele>958.4</ele>
        <time>2021-08-20T12:26:51Z</time>
      </trkpt>
      <trkpt lat="44.28459" lon="2.92438">
        <ele>958.4</ele>
        <time>2021-08-20T12:26:52Z</time>
      </trkpt>
      <trkpt lat="44.28461" lon="2.92439">
        <ele>958.6</ele>
        <time>2021-08-20T12:26:53Z</time>
      </trkpt>
      <trkpt lat="44.28464" lon="2.92441">
        <ele>958.6</ele>
        <time>2021-08-20T12:26:54Z</time>
      </trkpt>
      <trkpt lat="44.28467" lon="2.92442">
        <ele>958.8</ele>
        <time>2021-08-20T12:26:55Z</time>
      </trkpt>
      <trkpt lat="44.28469" lon="2.92444">
        <ele>958.8</ele>
        <time>2021-08-20T12:26:56Z</time>
      </trkpt>
      <trkpt lat="44.28472" lon="2.92445">
        <ele>958.8</ele>
        <time>2021-08-20T12:26:57Z</time>
      </trkpt>
      <trkpt lat="44.28474" lon="2.92446">
        <ele>959.2</ele>
        <time>2021-08-20T12:26:58Z</time>
      </trkpt>
      <trkpt lat="44.28477" lon="2.92448">
        <ele>959.2</ele>
        <time>2021-08-20T12:26:59Z</time>
      </trkpt>
      <trkpt lat="44.2848" lon="2.92448">
        <ele>959.4</ele>
        <time>2021-08-20T12:27:00Z</time>
      </trkpt>
      <trkpt lat="44.28482" lon="2.92449">
        <ele>959.6</ele>
        <time>2021-08-20T12:27:01Z</time>
      </trkpt>
      <trkpt lat="44.28484" lon="2.92449">
        <ele>959.6</ele>
        <time>2021-08-20T12:27:02Z</time>
      </trkpt>
      <trkpt lat="44.28486" lon="2.9245">
        <ele>959.8</ele>
        <time>2021-08-20T12:27:03Z</time>
      </trkpt>
      <trkpt lat="44.28489" lon="2.9245">
        <ele>960</ele>
        <time>2021-08-20T12:27:04Z</time>
      </trkpt>
      <trkpt lat="44.28492" lon="2.92451">
        <ele>960.2</ele>
        <time>2021-08-20T12:27:05Z</time>
      </trkpt>
      <trkpt lat="44.28494" lon="2.9245">
        <ele>960.4</ele>
        <time>2021-08-20T12:27:06Z</time>
      </trkpt>
      <trkpt lat="44.28496" lon="2.92451">
        <ele>960.6</ele>
        <time>2021-08-20T12:27:07Z</time>
      </trkpt>
      <trkpt lat="44.28498" lon="2.92451">
        <ele>960.6</ele>
        <time>2021-08-20T12:27:08Z</time>
      </trkpt>
      <trkpt lat="44.28501" lon="2.92451">
        <ele>960.8</ele>
        <time>2021-08-20T12:27:09Z</time>
      </trkpt>
      <trkpt lat="44.28503" lon="2.92452">
        <ele>961</ele>
        <time>2021-08-20T12:27:10Z</time>
      </trkpt>
      <trkpt lat="44.28505" lon="2.92453">
        <ele>961.2</ele>
        <time>2021-08-20T12:27:11Z</time>
      </trkpt>
      <trkpt lat="44.28507" lon="2.92453">
        <ele>961.2</ele>
        <time>2021-08-20T12:27:12Z</time>
      </trkpt>
      <trkpt lat="44.28508" lon="2.92452">
        <ele>961.4</ele>
        <time>2021-08-20T12:27:13Z</time>
      </trkpt>
      <trkpt lat="44.2851" lon="2.92451">
        <ele>961.6</ele>
        <time>2021-08-20T12:27:14Z</time>
      </trkpt>
      <trkpt lat="44.28512" lon="2.92449">
        <ele>961.8</ele>
        <time>2021-08-20T12:27:15Z</time>
      </trkpt>
      <trkpt lat="44.28514" lon="2.92448">
        <ele>962</ele>
        <time>2021-08-20T12:27:16Z</time>
      </trkpt>
      <trkpt lat="44.28516" lon="2.92446">
        <ele>962</ele>
        <time>2021-08-20T12:27:17Z</time>
      </trkpt>
      <trkpt lat="44.28517" lon="2.92445">
        <ele>962.2</ele>
        <time>2021-08-20T12:27:18Z</time>
      </trkpt>
      <trkpt lat="44.28519" lon="2.92444">
        <ele>962.2</ele>
        <time>2021-08-20T12:27:19Z</time>
      </trkpt>
      <trkpt lat="44.28521" lon="2.92443">
        <ele>962.2</ele>
        <time>2021-08-20T12:27:20Z</time>
      </trkpt>
      <trkpt lat="44.28523" lon="2.92442">
        <ele>962.4</ele>
        <time>2021-08-20T12:27:21Z</time>
      </trkpt>
      <trkpt lat="44.28524" lon="2.92441">
        <ele>962.4</ele>
        <time>2021-08-20T12:27:22Z</time>
      </trkpt>
      <trkpt lat="44.28525" lon="2.9244">
        <ele>962.4</ele>
        <time>2021-08-20T12:27:23Z</time>
      </trkpt>
      <trkpt lat="44.28527" lon="2.92439">
        <ele>962.4</ele>
        <time>2021-08-20T12:27:24Z</time>
      </trkpt>
      <trkpt lat="44.28529" lon="2.92438">
        <ele>962.6</ele>
        <time>2021-08-20T12:27:25Z</time>
      </trkpt>
      <trkpt lat="44.28529" lon="2.92438">
        <ele>962.6</ele>
        <time>2021-08-20T12:27:26Z</time>
      </trkpt>
      <trkpt lat="44.28531" lon="2.92437">
        <ele>962.8</ele>
        <time>2021-08-20T12:27:27Z</time>
      </trkpt>
      <trkpt lat="44.28531" lon="2.92437">
        <ele>962.8</ele>
        <time>2021-08-20T12:27:28Z</time>
      </trkpt>
      <trkpt lat="44.28532" lon="2.92437">
        <ele>963</ele>
        <time>2021-08-20T12:27:29Z</time>
      </trkpt>
      <trkpt lat="44.28535" lon="2.92437">
        <ele>963.2</ele>
        <time>2021-08-20T12:27:47Z</time>
      </trkpt>
      <trkpt lat="44.28536" lon="2.92436">
        <ele>963.2</ele>
        <time>2021-08-20T12:27:48Z</time>
      </trkpt>
      <trkpt lat="44.28539" lon="2.92436">
        <ele>963.2</ele>
        <time>2021-08-20T12:27:49Z</time>
      </trkpt>
      <trkpt lat="44.28558" lon="2.92433">
        <ele>963.4</ele>
        <time>2021-08-20T12:27:56Z</time>
      </trkpt>
      <trkpt lat="44.28578" lon="2.92428">
        <ele>964</ele>
        <time>2021-08-20T12:28:03Z</time>
      </trkpt>
      <trkpt lat="44.28587" lon="2.92424">
        <ele>964.2</ele>
        <time>2021-08-20T12:28:05Z</time>
      </trkpt>
      <trkpt lat="44.28599" lon="2.92421">
        <ele>964</ele>
        <time>2021-08-20T12:28:08Z</time>
      </trkpt>
      <trkpt lat="44.28609" lon="2.92419">
        <ele>963.8</ele>
        <time>2021-08-20T12:28:10Z</time>
      </trkpt>
      <trkpt lat="44.28628" lon="2.92416">
        <ele>963.6</ele>
        <time>2021-08-20T12:28:13Z</time>
      </trkpt>
      <trkpt lat="44.28633" lon="2.92416">
        <ele>963.4</ele>
        <time>2021-08-20T12:28:14Z</time>
      </trkpt>
      <trkpt lat="44.28652" lon="2.92415">
        <ele>962.6</ele>
        <time>2021-08-20T12:28:17Z</time>
      </trkpt>
      <trkpt lat="44.28657" lon="2.92415">
        <ele>962.6</ele>
        <time>2021-08-20T12:28:18Z</time>
      </trkpt>
      <trkpt lat="44.28663" lon="2.92415">
        <ele>962.2</ele>
        <time>2021-08-20T12:28:19Z</time>
      </trkpt>
      <trkpt lat="44.28667" lon="2.92415">
        <ele>961.8</ele>
        <time>2021-08-20T12:28:20Z</time>
      </trkpt>
      <trkpt lat="44.28673" lon="2.92416">
        <ele>961.8</ele>
        <time>2021-08-20T12:28:21Z</time>
      </trkpt>
      <trkpt lat="44.28679" lon="2.92417">
        <ele>961.6</ele>
        <time>2021-08-20T12:28:22Z</time>
      </trkpt>
      <trkpt lat="44.28683" lon="2.92419">
        <ele>961.6</ele>
        <time>2021-08-20T12:28:23Z</time>
      </trkpt>
      <trkpt lat="44.28687" lon="2.9242">
        <ele>961.4</ele>
        <time>2021-08-20T12:28:24Z</time>
      </trkpt>
      <trkpt lat="44.28691" lon="2.92421">
        <ele>961</ele>
        <time>2021-08-20T12:28:25Z</time>
      </trkpt>
      <trkpt lat="44.28696" lon="2.92423">
        <ele>960.6</ele>
        <time>2021-08-20T12:28:26Z</time>
      </trkpt>
      <trkpt lat="44.287" lon="2.92426">
        <ele>960.2</ele>
        <time>2021-08-20T12:28:27Z</time>
      </trkpt>
      <trkpt lat="44.28704" lon="2.92428">
        <ele>959.8</ele>
        <time>2021-08-20T12:28:28Z</time>
      </trkpt>
      <trkpt lat="44.28708" lon="2.92431">
        <ele>959.6</ele>
        <time>2021-08-20T12:28:29Z</time>
      </trkpt>
      <trkpt lat="44.28712" lon="2.92434">
        <ele>959.4</ele>
        <time>2021-08-20T12:28:30Z</time>
      </trkpt>
      <trkpt lat="44.28716" lon="2.92438">
        <ele>959.2</ele>
        <time>2021-08-20T12:28:31Z</time>
      </trkpt>
      <trkpt lat="44.28723" lon="2.92446">
        <ele>959</ele>
        <time>2021-08-20T12:28:33Z</time>
      </trkpt>
      <trkpt lat="44.28727" lon="2.92451">
        <ele>958.8</ele>
        <time>2021-08-20T12:28:34Z</time>
      </trkpt>
      <trkpt lat="44.28734" lon="2.9246">
        <ele>958.8</ele>
        <time>2021-08-20T12:28:36Z</time>
      </trkpt>
      <trkpt lat="44.28742" lon="2.92468">
        <ele>958.6</ele>
        <time>2021-08-20T12:28:38Z</time>
      </trkpt>
      <trkpt lat="44.28746" lon="2.92473">
        <ele>958.6</ele>
        <time>2021-08-20T12:28:39Z</time>
      </trkpt>
      <trkpt lat="44.2875" lon="2.92479">
        <ele>958.4</ele>
        <time>2021-08-20T12:28:40Z</time>
      </trkpt>
      <trkpt lat="44.28753" lon="2.92484">
        <ele>958.4</ele>
        <time>2021-08-20T12:28:41Z</time>
      </trkpt>
      <trkpt lat="44.28756" lon="2.92487">
        <ele>958.2</ele>
        <time>2021-08-20T12:28:42Z</time>
      </trkpt>
      <trkpt lat="44.28758" lon="2.92489">
        <ele>958.2</ele>
        <time>2021-08-20T12:28:43Z</time>
      </trkpt>
      <trkpt lat="44.2876" lon="2.92492">
        <ele>958.2</ele>
        <time>2021-08-20T12:28:44Z</time>
      </trkpt>
      <trkpt lat="44.28762" lon="2.92494">
        <ele>958.2</ele>
        <time>2021-08-20T12:28:45Z</time>
      </trkpt>
      <trkpt lat="44.28763" lon="2.92497">
        <ele>958.2</ele>
        <time>2021-08-20T12:28:46Z</time>
      </trkpt>
      <trkpt lat="44.28766" lon="2.92499">
        <ele>958.2</ele>
        <time>2021-08-20T12:28:47Z</time>
      </trkpt>
      <trkpt lat="44.28768" lon="2.92503">
        <ele>958.4</ele>
        <time>2021-08-20T12:28:48Z</time>
      </trkpt>
      <trkpt lat="44.28771" lon="2.92507">
        <ele>958.6</ele>
        <time>2021-08-20T12:28:49Z</time>
      </trkpt>
      <trkpt lat="44.28772" lon="2.92509">
        <ele>958.6</ele>
        <time>2021-08-20T12:28:50Z</time>
      </trkpt>
      <trkpt lat="44.28774" lon="2.92512">
        <ele>958.8</ele>
        <time>2021-08-20T12:28:51Z</time>
      </trkpt>
      <trkpt lat="44.2878" lon="2.92527">
        <ele>958.8</ele>
        <time>2021-08-20T12:28:55Z</time>
      </trkpt>
      <trkpt lat="44.28782" lon="2.92531">
        <ele>959.2</ele>
        <time>2021-08-20T12:28:56Z</time>
      </trkpt>
      <trkpt lat="44.28784" lon="2.92535">
        <ele>959.2</ele>
        <time>2021-08-20T12:28:57Z</time>
      </trkpt>
      <trkpt lat="44.28786" lon="2.92539">
        <ele>959.2</ele>
        <time>2021-08-20T12:28:58Z</time>
      </trkpt>
      <trkpt lat="44.28787" lon="2.92542">
        <ele>959.2</ele>
        <time>2021-08-20T12:28:59Z</time>
      </trkpt>
      <trkpt lat="44.28787" lon="2.92543">
        <ele>959.4</ele>
        <time>2021-08-20T12:29:00Z</time>
      </trkpt>
      <trkpt lat="44.2879" lon="2.9255">
        <ele>959.4</ele>
        <time>2021-08-20T12:29:02Z</time>
      </trkpt>
      <trkpt lat="44.28792" lon="2.92553">
        <ele>959.6</ele>
        <time>2021-08-20T12:29:03Z</time>
      </trkpt>
      <trkpt lat="44.28796" lon="2.92561">
        <ele>960.2</ele>
        <time>2021-08-20T12:29:06Z</time>
      </trkpt>
      <trkpt lat="44.28799" lon="2.92568">
        <ele>960.8</ele>
        <time>2021-08-20T12:29:08Z</time>
      </trkpt>
      <trkpt lat="44.28802" lon="2.9257">
        <ele>961.2</ele>
        <time>2021-08-20T12:29:10Z</time>
      </trkpt>
      <trkpt lat="44.28804" lon="2.92573">
        <ele>961.6</ele>
        <time>2021-08-20T12:29:11Z</time>
      </trkpt>
      <trkpt lat="44.28806" lon="2.92576">
        <ele>962.2</ele>
        <time>2021-08-20T12:29:12Z</time>
      </trkpt>
      <trkpt lat="44.28809" lon="2.92579">
        <ele>962.8</ele>
        <time>2021-08-20T12:29:14Z</time>
      </trkpt>
      <trkpt lat="44.2881" lon="2.92582">
        <ele>962.8</ele>
        <time>2021-08-20T12:29:15Z</time>
      </trkpt>
      <trkpt lat="44.28812" lon="2.92585">
        <ele>963</ele>
        <time>2021-08-20T12:29:16Z</time>
      </trkpt>
      <trkpt lat="44.28813" lon="2.92588">
        <ele>963.4</ele>
        <time>2021-08-20T12:29:17Z</time>
      </trkpt>
      <trkpt lat="44.28815" lon="2.92591">
        <ele>963.4</ele>
        <time>2021-08-20T12:29:18Z</time>
      </trkpt>
      <trkpt lat="44.28816" lon="2.92593">
        <ele>963.6</ele>
        <time>2021-08-20T12:29:19Z</time>
      </trkpt>
      <trkpt lat="44.28818" lon="2.92594">
        <ele>963.8</ele>
        <time>2021-08-20T12:29:20Z</time>
      </trkpt>
      <trkpt lat="44.2882" lon="2.92596">
        <ele>964</ele>
        <time>2021-08-20T12:29:21Z</time>
      </trkpt>
      <trkpt lat="44.28821" lon="2.92598">
        <ele>964.2</ele>
        <time>2021-08-20T12:29:22Z</time>
      </trkpt>
      <trkpt lat="44.28823" lon="2.926">
        <ele>964.6</ele>
        <time>2021-08-20T12:29:23Z</time>
      </trkpt>
      <trkpt lat="44.28824" lon="2.92603">
        <ele>964.8</ele>
        <time>2021-08-20T12:29:24Z</time>
      </trkpt>
      <trkpt lat="44.28826" lon="2.92606">
        <ele>965</ele>
        <time>2021-08-20T12:29:25Z</time>
      </trkpt>
      <trkpt lat="44.28828" lon="2.92608">
        <ele>965</ele>
        <time>2021-08-20T12:29:26Z</time>
      </trkpt>
      <trkpt lat="44.2883" lon="2.92609">
        <ele>965.2</ele>
        <time>2021-08-20T12:29:27Z</time>
      </trkpt>
      <trkpt lat="44.28832" lon="2.92611">
        <ele>965.8</ele>
        <time>2021-08-20T12:29:28Z</time>
      </trkpt>
      <trkpt lat="44.28833" lon="2.92613">
        <ele>966</ele>
        <time>2021-08-20T12:29:29Z</time>
      </trkpt>
      <trkpt lat="44.28835" lon="2.92614">
        <ele>966.2</ele>
        <time>2021-08-20T12:29:30Z</time>
      </trkpt>
      <trkpt lat="44.28838" lon="2.92616">
        <ele>966.2</ele>
        <time>2021-08-20T12:29:31Z</time>
      </trkpt>
      <trkpt lat="44.2884" lon="2.92617">
        <ele>966.4</ele>
        <time>2021-08-20T12:29:32Z</time>
      </trkpt>
      <trkpt lat="44.28842" lon="2.92619">
        <ele>966.6</ele>
        <time>2021-08-20T12:29:33Z</time>
      </trkpt>
      <trkpt lat="44.28843" lon="2.9262">
        <ele>966.6</ele>
        <time>2021-08-20T12:29:34Z</time>
      </trkpt>
      <trkpt lat="44.28846" lon="2.92621">
        <ele>966.8</ele>
        <time>2021-08-20T12:29:35Z</time>
      </trkpt>
      <trkpt lat="44.28848" lon="2.92622">
        <ele>966.8</ele>
        <time>2021-08-20T12:29:36Z</time>
      </trkpt>
      <trkpt lat="44.2885" lon="2.92623">
        <ele>967.2</ele>
        <time>2021-08-20T12:29:37Z</time>
      </trkpt>
      <trkpt lat="44.28853" lon="2.92625">
        <ele>967.2</ele>
        <time>2021-08-20T12:29:38Z</time>
      </trkpt>
      <trkpt lat="44.28855" lon="2.92625">
        <ele>967.6</ele>
        <time>2021-08-20T12:29:39Z</time>
      </trkpt>
      <trkpt lat="44.28857" lon="2.92626">
        <ele>967.6</ele>
        <time>2021-08-20T12:29:40Z</time>
      </trkpt>
      <trkpt lat="44.2886" lon="2.92628">
        <ele>967.8</ele>
        <time>2021-08-20T12:29:41Z</time>
      </trkpt>
      <trkpt lat="44.28863" lon="2.92629">
        <ele>968.2</ele>
        <time>2021-08-20T12:29:42Z</time>
      </trkpt>
      <trkpt lat="44.28866" lon="2.9263">
        <ele>968.4</ele>
        <time>2021-08-20T12:29:43Z</time>
      </trkpt>
      <trkpt lat="44.28868" lon="2.92631">
        <ele>968.6</ele>
        <time>2021-08-20T12:29:44Z</time>
      </trkpt>
      <trkpt lat="44.2887" lon="2.92632">
        <ele>968.8</ele>
        <time>2021-08-20T12:29:45Z</time>
      </trkpt>
      <trkpt lat="44.28873" lon="2.92632">
        <ele>968.8</ele>
        <time>2021-08-20T12:29:46Z</time>
      </trkpt>
      <trkpt lat="44.28876" lon="2.92633">
        <ele>969</ele>
        <time>2021-08-20T12:29:47Z</time>
      </trkpt>
      <trkpt lat="44.28878" lon="2.92634">
        <ele>969.2</ele>
        <time>2021-08-20T12:29:48Z</time>
      </trkpt>
      <trkpt lat="44.2888" lon="2.92635">
        <ele>969.6</ele>
        <time>2021-08-20T12:29:49Z</time>
      </trkpt>
      <trkpt lat="44.28883" lon="2.92635">
        <ele>969.6</ele>
        <time>2021-08-20T12:29:50Z</time>
      </trkpt>
      <trkpt lat="44.28885" lon="2.92636">
        <ele>970.2</ele>
        <time>2021-08-20T12:29:51Z</time>
      </trkpt>
      <trkpt lat="44.28888" lon="2.92638">
        <ele>970.2</ele>
        <time>2021-08-20T12:29:52Z</time>
      </trkpt>
      <trkpt lat="44.2889" lon="2.92638">
        <ele>970.4</ele>
        <time>2021-08-20T12:29:53Z</time>
      </trkpt>
      <trkpt lat="44.28891" lon="2.92639">
        <ele>970.6</ele>
        <time>2021-08-20T12:29:54Z</time>
      </trkpt>
      <trkpt lat="44.28893" lon="2.9264">
        <ele>970.8</ele>
        <time>2021-08-20T12:29:55Z</time>
      </trkpt>
      <trkpt lat="44.28894" lon="2.9264">
        <ele>971</ele>
        <time>2021-08-20T12:29:56Z</time>
      </trkpt>
      <trkpt lat="44.28896" lon="2.92641">
        <ele>971.2</ele>
        <time>2021-08-20T12:29:57Z</time>
      </trkpt>
      <trkpt lat="44.28898" lon="2.92642">
        <ele>971.4</ele>
        <time>2021-08-20T12:29:58Z</time>
      </trkpt>
      <trkpt lat="44.289" lon="2.92642">
        <ele>971.6</ele>
        <time>2021-08-20T12:29:59Z</time>
      </trkpt>
      <trkpt lat="44.28902" lon="2.92641">
        <ele>971.8</ele>
        <time>2021-08-20T12:30:00Z</time>
      </trkpt>
      <trkpt lat="44.28903" lon="2.92641">
        <ele>971.8</ele>
        <time>2021-08-20T12:30:01Z</time>
      </trkpt>
      <trkpt lat="44.28904" lon="2.92641">
        <ele>972</ele>
        <time>2021-08-20T12:30:02Z</time>
      </trkpt>
      <trkpt lat="44.28905" lon="2.92641">
        <ele>972.2</ele>
        <time>2021-08-20T12:30:03Z</time>
      </trkpt>
      <trkpt lat="44.28906" lon="2.92642">
        <ele>972.4</ele>
        <time>2021-08-20T12:30:04Z</time>
      </trkpt>
      <trkpt lat="44.28908" lon="2.92642">
        <ele>972.2</ele>
        <time>2021-08-20T12:30:05Z</time>
      </trkpt>
      <trkpt lat="44.28909" lon="2.92643">
        <ele>972.4</ele>
        <time>2021-08-20T12:30:06Z</time>
      </trkpt>
      <trkpt lat="44.28911" lon="2.92643">
        <ele>972.8</ele>
        <time>2021-08-20T12:30:07Z</time>
      </trkpt>
      <trkpt lat="44.28912" lon="2.92644">
        <ele>972.6</ele>
        <time>2021-08-20T12:30:08Z</time>
      </trkpt>
      <trkpt lat="44.28914" lon="2.92644">
        <ele>972.6</ele>
        <time>2021-08-20T12:30:09Z</time>
      </trkpt>
      <trkpt lat="44.28915" lon="2.92645">
        <ele>972.6</ele>
        <time>2021-08-20T12:30:10Z</time>
      </trkpt>
      <trkpt lat="44.28917" lon="2.92645">
        <ele>972.8</ele>
        <time>2021-08-20T12:30:11Z</time>
      </trkpt>
      <trkpt lat="44.28919" lon="2.92645">
        <ele>973</ele>
        <time>2021-08-20T12:30:12Z</time>
      </trkpt>
      <trkpt lat="44.28921" lon="2.92646">
        <ele>973.4</ele>
        <time>2021-08-20T12:30:13Z</time>
      </trkpt>
      <trkpt lat="44.28922" lon="2.92646">
        <ele>973.6</ele>
        <time>2021-08-20T12:30:14Z</time>
      </trkpt>
      <trkpt lat="44.28924" lon="2.92646">
        <ele>973.8</ele>
        <time>2021-08-20T12:30:15Z</time>
      </trkpt>
      <trkpt lat="44.28925" lon="2.92647">
        <ele>974</ele>
        <time>2021-08-20T12:30:16Z</time>
      </trkpt>
      <trkpt lat="44.28927" lon="2.92647">
        <ele>974.2</ele>
        <time>2021-08-20T12:30:17Z</time>
      </trkpt>
      <trkpt lat="44.28928" lon="2.92648">
        <ele>974.4</ele>
        <time>2021-08-20T12:30:18Z</time>
      </trkpt>
      <trkpt lat="44.2893" lon="2.92648">
        <ele>974.6</ele>
        <time>2021-08-20T12:30:19Z</time>
      </trkpt>
      <trkpt lat="44.28932" lon="2.92649">
        <ele>974.6</ele>
        <time>2021-08-20T12:30:20Z</time>
      </trkpt>
      <trkpt lat="44.28934" lon="2.9265">
        <ele>974.8</ele>
        <time>2021-08-20T12:30:21Z</time>
      </trkpt>
      <trkpt lat="44.28936" lon="2.92651">
        <ele>974.8</ele>
        <time>2021-08-20T12:30:22Z</time>
      </trkpt>
      <trkpt lat="44.28938" lon="2.92652">
        <ele>975.2</ele>
        <time>2021-08-20T12:30:23Z</time>
      </trkpt>
      <trkpt lat="44.28939" lon="2.92653">
        <ele>975.2</ele>
        <time>2021-08-20T12:30:24Z</time>
      </trkpt>
      <trkpt lat="44.28941" lon="2.92654">
        <ele>975.4</ele>
        <time>2021-08-20T12:30:25Z</time>
      </trkpt>
      <trkpt lat="44.28942" lon="2.92655">
        <ele>975.6</ele>
        <time>2021-08-20T12:30:26Z</time>
      </trkpt>
      <trkpt lat="44.28944" lon="2.92656">
        <ele>976</ele>
        <time>2021-08-20T12:30:27Z</time>
      </trkpt>
      <trkpt lat="44.28946" lon="2.92656">
        <ele>976</ele>
        <time>2021-08-20T12:30:28Z</time>
      </trkpt>
      <trkpt lat="44.28948" lon="2.92656">
        <ele>976.4</ele>
        <time>2021-08-20T12:30:29Z</time>
      </trkpt>
      <trkpt lat="44.2895" lon="2.92656">
        <ele>976.8</ele>
        <time>2021-08-20T12:30:30Z</time>
      </trkpt>
      <trkpt lat="44.28951" lon="2.92656">
        <ele>976.8</ele>
        <time>2021-08-20T12:30:31Z</time>
      </trkpt>
      <trkpt lat="44.28954" lon="2.92657">
        <ele>977</ele>
        <time>2021-08-20T12:30:32Z</time>
      </trkpt>
      <trkpt lat="44.28956" lon="2.92656">
        <ele>977.2</ele>
        <time>2021-08-20T12:30:33Z</time>
      </trkpt>
      <trkpt lat="44.28958" lon="2.92656">
        <ele>977.4</ele>
        <time>2021-08-20T12:30:34Z</time>
      </trkpt>
      <trkpt lat="44.28961" lon="2.92657">
        <ele>977.4</ele>
        <time>2021-08-20T12:30:35Z</time>
      </trkpt>
      <trkpt lat="44.28963" lon="2.92658">
        <ele>977.6</ele>
        <time>2021-08-20T12:30:36Z</time>
      </trkpt>
      <trkpt lat="44.28965" lon="2.92659">
        <ele>977.6</ele>
        <time>2021-08-20T12:30:37Z</time>
      </trkpt>
      <trkpt lat="44.28968" lon="2.9266">
        <ele>977.6</ele>
        <time>2021-08-20T12:30:38Z</time>
      </trkpt>
      <trkpt lat="44.2897" lon="2.92661">
        <ele>977.8</ele>
        <time>2021-08-20T12:30:39Z</time>
      </trkpt>
      <trkpt lat="44.28973" lon="2.92662">
        <ele>977.8</ele>
        <time>2021-08-20T12:30:40Z</time>
      </trkpt>
      <trkpt lat="44.28975" lon="2.92663">
        <ele>978</ele>
        <time>2021-08-20T12:30:41Z</time>
      </trkpt>
      <trkpt lat="44.28978" lon="2.92665">
        <ele>978.2</ele>
        <time>2021-08-20T12:30:42Z</time>
      </trkpt>
      <trkpt lat="44.28981" lon="2.92665">
        <ele>978.2</ele>
        <time>2021-08-20T12:30:43Z</time>
      </trkpt>
      <trkpt lat="44.28984" lon="2.92665">
        <ele>978.4</ele>
        <time>2021-08-20T12:30:44Z</time>
      </trkpt>
      <trkpt lat="44.28985" lon="2.92666">
        <ele>978.6</ele>
        <time>2021-08-20T12:30:45Z</time>
      </trkpt>
      <trkpt lat="44.28987" lon="2.92666">
        <ele>978.8</ele>
        <time>2021-08-20T12:30:46Z</time>
      </trkpt>
      <trkpt lat="44.28988" lon="2.92665">
        <ele>979</ele>
        <time>2021-08-20T12:30:47Z</time>
      </trkpt>
      <trkpt lat="44.2899" lon="2.92666">
        <ele>979.2</ele>
        <time>2021-08-20T12:30:48Z</time>
      </trkpt>
      <trkpt lat="44.28992" lon="2.92667">
        <ele>979.2</ele>
        <time>2021-08-20T12:30:49Z</time>
      </trkpt>
      <trkpt lat="44.28994" lon="2.92668">
        <ele>979.4</ele>
        <time>2021-08-20T12:30:50Z</time>
      </trkpt>
      <trkpt lat="44.28995" lon="2.92668">
        <ele>979.4</ele>
        <time>2021-08-20T12:30:51Z</time>
      </trkpt>
      <trkpt lat="44.28997" lon="2.92669">
        <ele>979.6</ele>
        <time>2021-08-20T12:30:52Z</time>
      </trkpt>
      <trkpt lat="44.28999" lon="2.9267">
        <ele>979.8</ele>
        <time>2021-08-20T12:30:53Z</time>
      </trkpt>
      <trkpt lat="44.29001" lon="2.9267">
        <ele>980</ele>
        <time>2021-08-20T12:30:54Z</time>
      </trkpt>
      <trkpt lat="44.29002" lon="2.92671">
        <ele>980</ele>
        <time>2021-08-20T12:30:55Z</time>
      </trkpt>
      <trkpt lat="44.29004" lon="2.92671">
        <ele>980.2</ele>
        <time>2021-08-20T12:30:56Z</time>
      </trkpt>
      <trkpt lat="44.29006" lon="2.92671">
        <ele>980.6</ele>
        <time>2021-08-20T12:30:57Z</time>
      </trkpt>
      <trkpt lat="44.29008" lon="2.92672">
        <ele>980.8</ele>
        <time>2021-08-20T12:30:58Z</time>
      </trkpt>
      <trkpt lat="44.29009" lon="2.92672">
        <ele>981</ele>
        <time>2021-08-20T12:30:59Z</time>
      </trkpt>
      <trkpt lat="44.29011" lon="2.92672">
        <ele>981</ele>
        <time>2021-08-20T12:31:00Z</time>
      </trkpt>
      <trkpt lat="44.29012" lon="2.92672">
        <ele>981.2</ele>
        <time>2021-08-20T12:31:01Z</time>
      </trkpt>
      <trkpt lat="44.29014" lon="2.92673">
        <ele>981.6</ele>
        <time>2021-08-20T12:31:02Z</time>
      </trkpt>
      <trkpt lat="44.29016" lon="2.92673">
        <ele>981.6</ele>
        <time>2021-08-20T12:31:03Z</time>
      </trkpt>
      <trkpt lat="44.29018" lon="2.92674">
        <ele>981.8</ele>
        <time>2021-08-20T12:31:04Z</time>
      </trkpt>
      <trkpt lat="44.29019" lon="2.92675">
        <ele>981.8</ele>
        <time>2021-08-20T12:31:05Z</time>
      </trkpt>
      <trkpt lat="44.29021" lon="2.92675">
        <ele>982</ele>
        <time>2021-08-20T12:31:06Z</time>
      </trkpt>
      <trkpt lat="44.29023" lon="2.92676">
        <ele>982</ele>
        <time>2021-08-20T12:31:07Z</time>
      </trkpt>
      <trkpt lat="44.29025" lon="2.92677">
        <ele>982.2</ele>
        <time>2021-08-20T12:31:08Z</time>
      </trkpt>
      <trkpt lat="44.29027" lon="2.92678">
        <ele>982.2</ele>
        <time>2021-08-20T12:31:09Z</time>
      </trkpt>
      <trkpt lat="44.29029" lon="2.92679">
        <ele>982.4</ele>
        <time>2021-08-20T12:31:10Z</time>
      </trkpt>
      <trkpt lat="44.29031" lon="2.92679">
        <ele>982.6</ele>
        <time>2021-08-20T12:31:11Z</time>
      </trkpt>
      <trkpt lat="44.29032" lon="2.9268">
        <ele>982.6</ele>
        <time>2021-08-20T12:31:12Z</time>
      </trkpt>
      <trkpt lat="44.29034" lon="2.92681">
        <ele>982.8</ele>
        <time>2021-08-20T12:31:13Z</time>
      </trkpt>
      <trkpt lat="44.29037" lon="2.92681">
        <ele>983</ele>
        <time>2021-08-20T12:31:14Z</time>
      </trkpt>
      <trkpt lat="44.29038" lon="2.92682">
        <ele>983</ele>
        <time>2021-08-20T12:31:15Z</time>
      </trkpt>
      <trkpt lat="44.2904" lon="2.92682">
        <ele>983.2</ele>
        <time>2021-08-20T12:31:16Z</time>
      </trkpt>
      <trkpt lat="44.29042" lon="2.92683">
        <ele>983.4</ele>
        <time>2021-08-20T12:31:17Z</time>
      </trkpt>
      <trkpt lat="44.29045" lon="2.92684">
        <ele>983.4</ele>
        <time>2021-08-20T12:31:18Z</time>
      </trkpt>
      <trkpt lat="44.29047" lon="2.92685">
        <ele>983.6</ele>
        <time>2021-08-20T12:31:19Z</time>
      </trkpt>
      <trkpt lat="44.29049" lon="2.92686">
        <ele>983.6</ele>
        <time>2021-08-20T12:31:20Z</time>
      </trkpt>
      <trkpt lat="44.29051" lon="2.92687">
        <ele>983.8</ele>
        <time>2021-08-20T12:31:21Z</time>
      </trkpt>
      <trkpt lat="44.29053" lon="2.92688">
        <ele>983.8</ele>
        <time>2021-08-20T12:31:22Z</time>
      </trkpt>
      <trkpt lat="44.29055" lon="2.92689">
        <ele>984</ele>
        <time>2021-08-20T12:31:23Z</time>
      </trkpt>
      <trkpt lat="44.29058" lon="2.9269">
        <ele>984</ele>
        <time>2021-08-20T12:31:24Z</time>
      </trkpt>
      <trkpt lat="44.2906" lon="2.92691">
        <ele>984</ele>
        <time>2021-08-20T12:31:25Z</time>
      </trkpt>
      <trkpt lat="44.29061" lon="2.92692">
        <ele>984.2</ele>
        <time>2021-08-20T12:31:26Z</time>
      </trkpt>
      <trkpt lat="44.29063" lon="2.92693">
        <ele>984.2</ele>
        <time>2021-08-20T12:31:27Z</time>
      </trkpt>
      <trkpt lat="44.29065" lon="2.92694">
        <ele>984.4</ele>
        <time>2021-08-20T12:31:28Z</time>
      </trkpt>
      <trkpt lat="44.29067" lon="2.92695">
        <ele>984.6</ele>
        <time>2021-08-20T12:31:29Z</time>
      </trkpt>
      <trkpt lat="44.29068" lon="2.92695">
        <ele>984.6</ele>
        <time>2021-08-20T12:31:30Z</time>
      </trkpt>
      <trkpt lat="44.29069" lon="2.92696">
        <ele>984.8</ele>
        <time>2021-08-20T12:31:31Z</time>
      </trkpt>
      <trkpt lat="44.29071" lon="2.92696">
        <ele>985</ele>
        <time>2021-08-20T12:31:32Z</time>
      </trkpt>
      <trkpt lat="44.29072" lon="2.92696">
        <ele>985.2</ele>
        <time>2021-08-20T12:31:33Z</time>
      </trkpt>
      <trkpt lat="44.29074" lon="2.92697">
        <ele>985.4</ele>
        <time>2021-08-20T12:31:34Z</time>
      </trkpt>
      <trkpt lat="44.29076" lon="2.92697">
        <ele>985.4</ele>
        <time>2021-08-20T12:31:35Z</time>
      </trkpt>
      <trkpt lat="44.29077" lon="2.92697">
        <ele>985.6</ele>
        <time>2021-08-20T12:31:36Z</time>
      </trkpt>
      <trkpt lat="44.29079" lon="2.92698">
        <ele>985.6</ele>
        <time>2021-08-20T12:31:37Z</time>
      </trkpt>
      <trkpt lat="44.2908" lon="2.92698">
        <ele>985.8</ele>
        <time>2021-08-20T12:31:38Z</time>
      </trkpt>
      <trkpt lat="44.29082" lon="2.92699">
        <ele>985.8</ele>
        <time>2021-08-20T12:31:39Z</time>
      </trkpt>
      <trkpt lat="44.29083" lon="2.92699">
        <ele>985.8</ele>
        <time>2021-08-20T12:31:40Z</time>
      </trkpt>
      <trkpt lat="44.29084" lon="2.92699">
        <ele>986</ele>
        <time>2021-08-20T12:31:41Z</time>
      </trkpt>
      <trkpt lat="44.29086" lon="2.927">
        <ele>986.4</ele>
        <time>2021-08-20T12:31:42Z</time>
      </trkpt>
      <trkpt lat="44.29087" lon="2.927">
        <ele>986.6</ele>
        <time>2021-08-20T12:31:43Z</time>
      </trkpt>
      <trkpt lat="44.29088" lon="2.927">
        <ele>986.8</ele>
        <time>2021-08-20T12:31:44Z</time>
      </trkpt>
      <trkpt lat="44.2909" lon="2.927">
        <ele>987</ele>
        <time>2021-08-20T12:31:45Z</time>
      </trkpt>
      <trkpt lat="44.29091" lon="2.92701">
        <ele>987.2</ele>
        <time>2021-08-20T12:31:46Z</time>
      </trkpt>
      <trkpt lat="44.29092" lon="2.92701">
        <ele>987.4</ele>
        <time>2021-08-20T12:31:47Z</time>
      </trkpt>
      <trkpt lat="44.29093" lon="2.92701">
        <ele>987.4</ele>
        <time>2021-08-20T12:31:48Z</time>
      </trkpt>
      <trkpt lat="44.29093" lon="2.92701">
        <ele>987.8</ele>
        <time>2021-08-20T12:31:49Z</time>
      </trkpt>
      <trkpt lat="44.29094" lon="2.92701">
        <ele>987.8</ele>
        <time>2021-08-20T12:31:50Z</time>
      </trkpt>
      <trkpt lat="44.29095" lon="2.92702">
        <ele>987.8</ele>
        <time>2021-08-20T12:31:51Z</time>
      </trkpt>
      <trkpt lat="44.29097" lon="2.92703">
        <ele>988</ele>
        <time>2021-08-20T12:31:52Z</time>
      </trkpt>
      <trkpt lat="44.29098" lon="2.92703">
        <ele>988.2</ele>
        <time>2021-08-20T12:31:53Z</time>
      </trkpt>
      <trkpt lat="44.291" lon="2.92704">
        <ele>988.4</ele>
        <time>2021-08-20T12:31:54Z</time>
      </trkpt>
      <trkpt lat="44.29101" lon="2.92704">
        <ele>988.4</ele>
        <time>2021-08-20T12:31:55Z</time>
      </trkpt>
      <trkpt lat="44.29102" lon="2.92705">
        <ele>988.6</ele>
        <time>2021-08-20T12:31:56Z</time>
      </trkpt>
      <trkpt lat="44.29104" lon="2.92705">
        <ele>988.6</ele>
        <time>2021-08-20T12:31:57Z</time>
      </trkpt>
      <trkpt lat="44.29105" lon="2.92705">
        <ele>988.8</ele>
        <time>2021-08-20T12:31:58Z</time>
      </trkpt>
      <trkpt lat="44.29107" lon="2.92706">
        <ele>989</ele>
        <time>2021-08-20T12:31:59Z</time>
      </trkpt>
      <trkpt lat="44.29108" lon="2.92706">
        <ele>989.2</ele>
        <time>2021-08-20T12:32:00Z</time>
      </trkpt>
      <trkpt lat="44.2911" lon="2.92707">
        <ele>989.6</ele>
        <time>2021-08-20T12:32:01Z</time>
      </trkpt>
      <trkpt lat="44.29111" lon="2.92707">
        <ele>989.6</ele>
        <time>2021-08-20T12:32:02Z</time>
      </trkpt>
      <trkpt lat="44.29112" lon="2.92707">
        <ele>989.8</ele>
        <time>2021-08-20T12:32:03Z</time>
      </trkpt>
      <trkpt lat="44.29114" lon="2.92708">
        <ele>990</ele>
        <time>2021-08-20T12:32:04Z</time>
      </trkpt>
      <trkpt lat="44.29115" lon="2.92709">
        <ele>990.2</ele>
        <time>2021-08-20T12:32:05Z</time>
      </trkpt>
      <trkpt lat="44.29116" lon="2.92709">
        <ele>990.4</ele>
        <time>2021-08-20T12:32:06Z</time>
      </trkpt>
      <trkpt lat="44.29117" lon="2.92709">
        <ele>990.6</ele>
        <time>2021-08-20T12:32:07Z</time>
      </trkpt>
      <trkpt lat="44.29119" lon="2.9271">
        <ele>990.6</ele>
        <time>2021-08-20T12:32:08Z</time>
      </trkpt>
      <trkpt lat="44.29121" lon="2.9271">
        <ele>990.8</ele>
        <time>2021-08-20T12:32:09Z</time>
      </trkpt>
      <trkpt lat="44.29122" lon="2.92711">
        <ele>990.8</ele>
        <time>2021-08-20T12:32:10Z</time>
      </trkpt>
      <trkpt lat="44.29123" lon="2.92711">
        <ele>990.8</ele>
        <time>2021-08-20T12:32:11Z</time>
      </trkpt>
      <trkpt lat="44.29125" lon="2.92712">
        <ele>991</ele>
        <time>2021-08-20T12:32:12Z</time>
      </trkpt>
      <trkpt lat="44.29126" lon="2.92713">
        <ele>991.2</ele>
        <time>2021-08-20T12:32:13Z</time>
      </trkpt>
      <trkpt lat="44.29128" lon="2.92714">
        <ele>991.4</ele>
        <time>2021-08-20T12:32:14Z</time>
      </trkpt>
      <trkpt lat="44.2913" lon="2.92715">
        <ele>991.6</ele>
        <time>2021-08-20T12:32:15Z</time>
      </trkpt>
      <trkpt lat="44.29131" lon="2.92716">
        <ele>991.6</ele>
        <time>2021-08-20T12:32:16Z</time>
      </trkpt>
      <trkpt lat="44.29132" lon="2.92716">
        <ele>991.6</ele>
        <time>2021-08-20T12:32:17Z</time>
      </trkpt>
      <trkpt lat="44.29133" lon="2.92717">
        <ele>991.6</ele>
        <time>2021-08-20T12:32:18Z</time>
      </trkpt>
      <trkpt lat="44.29135" lon="2.92718">
        <ele>991.8</ele>
        <time>2021-08-20T12:32:19Z</time>
      </trkpt>
      <trkpt lat="44.29137" lon="2.92719">
        <ele>992</ele>
        <time>2021-08-20T12:32:20Z</time>
      </trkpt>
      <trkpt lat="44.29138" lon="2.9272">
        <ele>992.2</ele>
        <time>2021-08-20T12:32:21Z</time>
      </trkpt>
      <trkpt lat="44.2914" lon="2.92721">
        <ele>992.2</ele>
        <time>2021-08-20T12:32:22Z</time>
      </trkpt>
      <trkpt lat="44.29141" lon="2.92722">
        <ele>992</ele>
        <time>2021-08-20T12:32:23Z</time>
      </trkpt>
      <trkpt lat="44.29143" lon="2.92723">
        <ele>992.2</ele>
        <time>2021-08-20T12:32:24Z</time>
      </trkpt>
      <trkpt lat="44.29144" lon="2.92724">
        <ele>992.4</ele>
        <time>2021-08-20T12:32:25Z</time>
      </trkpt>
      <trkpt lat="44.29145" lon="2.92725">
        <ele>992.6</ele>
        <time>2021-08-20T12:32:26Z</time>
      </trkpt>
      <trkpt lat="44.29147" lon="2.92726">
        <ele>992.6</ele>
        <time>2021-08-20T12:32:27Z</time>
      </trkpt>
      <trkpt lat="44.29148" lon="2.92727">
        <ele>992.8</ele>
        <time>2021-08-20T12:32:28Z</time>
      </trkpt>
      <trkpt lat="44.2915" lon="2.92728">
        <ele>993</ele>
        <time>2021-08-20T12:32:29Z</time>
      </trkpt>
      <trkpt lat="44.29151" lon="2.92729">
        <ele>993.2</ele>
        <time>2021-08-20T12:32:30Z</time>
      </trkpt>
      <trkpt lat="44.29152" lon="2.9273">
        <ele>993.2</ele>
        <time>2021-08-20T12:32:31Z</time>
      </trkpt>
      <trkpt lat="44.29153" lon="2.92731">
        <ele>993.4</ele>
        <time>2021-08-20T12:32:32Z</time>
      </trkpt>
      <trkpt lat="44.29155" lon="2.92732">
        <ele>993.4</ele>
        <time>2021-08-20T12:32:33Z</time>
      </trkpt>
      <trkpt lat="44.29156" lon="2.92733">
        <ele>993.4</ele>
        <time>2021-08-20T12:32:34Z</time>
      </trkpt>
      <trkpt lat="44.29157" lon="2.92734">
        <ele>993.6</ele>
        <time>2021-08-20T12:32:35Z</time>
      </trkpt>
      <trkpt lat="44.29158" lon="2.92735">
        <ele>993.6</ele>
        <time>2021-08-20T12:32:36Z</time>
      </trkpt>
      <trkpt lat="44.2916" lon="2.92737">
        <ele>993.8</ele>
        <time>2021-08-20T12:32:37Z</time>
      </trkpt>
      <trkpt lat="44.29161" lon="2.92738">
        <ele>993.8</ele>
        <time>2021-08-20T12:32:38Z</time>
      </trkpt>
      <trkpt lat="44.29163" lon="2.92739">
        <ele>993.8</ele>
        <time>2021-08-20T12:32:39Z</time>
      </trkpt>
      <trkpt lat="44.29164" lon="2.9274">
        <ele>994</ele>
        <time>2021-08-20T12:32:40Z</time>
      </trkpt>
      <trkpt lat="44.29165" lon="2.92741">
        <ele>994</ele>
        <time>2021-08-20T12:32:41Z</time>
      </trkpt>
      <trkpt lat="44.29167" lon="2.92743">
        <ele>994.2</ele>
        <time>2021-08-20T12:32:42Z</time>
      </trkpt>
      <trkpt lat="44.29168" lon="2.92743">
        <ele>994.2</ele>
        <time>2021-08-20T12:32:43Z</time>
      </trkpt>
      <trkpt lat="44.2917" lon="2.92745">
        <ele>994.2</ele>
        <time>2021-08-20T12:32:44Z</time>
      </trkpt>
      <trkpt lat="44.29171" lon="2.92746">
        <ele>994.4</ele>
        <time>2021-08-20T12:32:45Z</time>
      </trkpt>
      <trkpt lat="44.29172" lon="2.92746">
        <ele>994.4</ele>
        <time>2021-08-20T12:32:46Z</time>
      </trkpt>
      <trkpt lat="44.29173" lon="2.92748">
        <ele>994.6</ele>
        <time>2021-08-20T12:32:47Z</time>
      </trkpt>
      <trkpt lat="44.29174" lon="2.92748">
        <ele>994.6</ele>
        <time>2021-08-20T12:32:48Z</time>
      </trkpt>
      <trkpt lat="44.29176" lon="2.92749">
        <ele>994.8</ele>
        <time>2021-08-20T12:32:49Z</time>
      </trkpt>
      <trkpt lat="44.29177" lon="2.92751">
        <ele>995</ele>
        <time>2021-08-20T12:32:50Z</time>
      </trkpt>
      <trkpt lat="44.29178" lon="2.92752">
        <ele>995.2</ele>
        <time>2021-08-20T12:32:51Z</time>
      </trkpt>
      <trkpt lat="44.29179" lon="2.92753">
        <ele>995.2</ele>
        <time>2021-08-20T12:32:52Z</time>
      </trkpt>
      <trkpt lat="44.2918" lon="2.92754">
        <ele>995.4</ele>
        <time>2021-08-20T12:32:53Z</time>
      </trkpt>
      <trkpt lat="44.29181" lon="2.92755">
        <ele>995.4</ele>
        <time>2021-08-20T12:32:54Z</time>
      </trkpt>
      <trkpt lat="44.29183" lon="2.92756">
        <ele>995.6</ele>
        <time>2021-08-20T12:32:55Z</time>
      </trkpt>
      <trkpt lat="44.29184" lon="2.92757">
        <ele>995.8</ele>
        <time>2021-08-20T12:32:56Z</time>
      </trkpt>
      <trkpt lat="44.29185" lon="2.92758">
        <ele>995.8</ele>
        <time>2021-08-20T12:32:57Z</time>
      </trkpt>
      <trkpt lat="44.29187" lon="2.9276">
        <ele>995.8</ele>
        <time>2021-08-20T12:32:58Z</time>
      </trkpt>
      <trkpt lat="44.29188" lon="2.92761">
        <ele>996</ele>
        <time>2021-08-20T12:32:59Z</time>
      </trkpt>
      <trkpt lat="44.29189" lon="2.92762">
        <ele>996</ele>
        <time>2021-08-20T12:33:00Z</time>
      </trkpt>
      <trkpt lat="44.2919" lon="2.92763">
        <ele>996.2</ele>
        <time>2021-08-20T12:33:01Z</time>
      </trkpt>
      <trkpt lat="44.29191" lon="2.92765">
        <ele>996.4</ele>
        <time>2021-08-20T12:33:02Z</time>
      </trkpt>
      <trkpt lat="44.29193" lon="2.92766">
        <ele>996.6</ele>
        <time>2021-08-20T12:33:03Z</time>
      </trkpt>
      <trkpt lat="44.29194" lon="2.92767">
        <ele>996.8</ele>
        <time>2021-08-20T12:33:04Z</time>
      </trkpt>
      <trkpt lat="44.29195" lon="2.92769">
        <ele>997</ele>
        <time>2021-08-20T12:33:05Z</time>
      </trkpt>
      <trkpt lat="44.29196" lon="2.9277">
        <ele>997.2</ele>
        <time>2021-08-20T12:33:06Z</time>
      </trkpt>
      <trkpt lat="44.29197" lon="2.92771">
        <ele>997.4</ele>
        <time>2021-08-20T12:33:07Z</time>
      </trkpt>
      <trkpt lat="44.29199" lon="2.92772">
        <ele>997.4</ele>
        <time>2021-08-20T12:33:08Z</time>
      </trkpt>
      <trkpt lat="44.292" lon="2.92773">
        <ele>997.4</ele>
        <time>2021-08-20T12:33:09Z</time>
      </trkpt>
      <trkpt lat="44.29202" lon="2.92774">
        <ele>997.6</ele>
        <time>2021-08-20T12:33:10Z</time>
      </trkpt>
      <trkpt lat="44.29203" lon="2.92775">
        <ele>997.8</ele>
        <time>2021-08-20T12:33:11Z</time>
      </trkpt>
      <trkpt lat="44.29204" lon="2.92776">
        <ele>997.8</ele>
        <time>2021-08-20T12:33:12Z</time>
      </trkpt>
      <trkpt lat="44.29206" lon="2.92778">
        <ele>998</ele>
        <time>2021-08-20T12:33:13Z</time>
      </trkpt>
      <trkpt lat="44.29207" lon="2.92779">
        <ele>998</ele>
        <time>2021-08-20T12:33:14Z</time>
      </trkpt>
      <trkpt lat="44.29208" lon="2.92781">
        <ele>998.2</ele>
        <time>2021-08-20T12:33:15Z</time>
      </trkpt>
      <trkpt lat="44.29209" lon="2.92782">
        <ele>998.2</ele>
        <time>2021-08-20T12:33:16Z</time>
      </trkpt>
      <trkpt lat="44.2921" lon="2.92783">
        <ele>998.4</ele>
        <time>2021-08-20T12:33:17Z</time>
      </trkpt>
      <trkpt lat="44.29212" lon="2.92784">
        <ele>998.4</ele>
        <time>2021-08-20T12:33:18Z</time>
      </trkpt>
      <trkpt lat="44.29213" lon="2.92786">
        <ele>998.6</ele>
        <time>2021-08-20T12:33:19Z</time>
      </trkpt>
      <trkpt lat="44.29214" lon="2.92786">
        <ele>998.8</ele>
        <time>2021-08-20T12:33:20Z</time>
      </trkpt>
      <trkpt lat="44.29215" lon="2.92788">
        <ele>999</ele>
        <time>2021-08-20T12:33:21Z</time>
      </trkpt>
      <trkpt lat="44.29217" lon="2.92789">
        <ele>999</ele>
        <time>2021-08-20T12:33:22Z</time>
      </trkpt>
      <trkpt lat="44.29218" lon="2.92791">
        <ele>999.2</ele>
        <time>2021-08-20T12:33:23Z</time>
      </trkpt>
      <trkpt lat="44.2922" lon="2.92792">
        <ele>999.2</ele>
        <time>2021-08-20T12:33:24Z</time>
      </trkpt>
      <trkpt lat="44.2922" lon="2.92792">
        <ele>999.4</ele>
        <time>2021-08-20T12:33:25Z</time>
      </trkpt>
      <trkpt lat="44.29222" lon="2.92794">
        <ele>999.4</ele>
        <time>2021-08-20T12:33:26Z</time>
      </trkpt>
      <trkpt lat="44.29224" lon="2.92796">
        <ele>999.6</ele>
        <time>2021-08-20T12:33:27Z</time>
      </trkpt>
      <trkpt lat="44.29225" lon="2.92797">
        <ele>999.6</ele>
        <time>2021-08-20T12:33:28Z</time>
      </trkpt>
      <trkpt lat="44.29226" lon="2.92798">
        <ele>999.8</ele>
        <time>2021-08-20T12:33:29Z</time>
      </trkpt>
      <trkpt lat="44.29227" lon="2.92799">
        <ele>1000</ele>
        <time>2021-08-20T12:33:30Z</time>
      </trkpt>
      <trkpt lat="44.29228" lon="2.928">
        <ele>1000</ele>
        <time>2021-08-20T12:33:31Z</time>
      </trkpt>
      <trkpt lat="44.2923" lon="2.92801">
        <ele>1000.2</ele>
        <time>2021-08-20T12:33:32Z</time>
      </trkpt>
      <trkpt lat="44.29231" lon="2.92802">
        <ele>1000.2</ele>
        <time>2021-08-20T12:33:33Z</time>
      </trkpt>
      <trkpt lat="44.29232" lon="2.92803">
        <ele>1000.4</ele>
        <time>2021-08-20T12:33:34Z</time>
      </trkpt>
      <trkpt lat="44.29233" lon="2.92804">
        <ele>1000.4</ele>
        <time>2021-08-20T12:33:35Z</time>
      </trkpt>
      <trkpt lat="44.29234" lon="2.92806">
        <ele>1000.6</ele>
        <time>2021-08-20T12:33:36Z</time>
      </trkpt>
      <trkpt lat="44.29236" lon="2.92807">
        <ele>1000.8</ele>
        <time>2021-08-20T12:33:37Z</time>
      </trkpt>
      <trkpt lat="44.29237" lon="2.92808">
        <ele>1000.8</ele>
        <time>2021-08-20T12:33:38Z</time>
      </trkpt>
      <trkpt lat="44.29238" lon="2.92809">
        <ele>1001.2</ele>
        <time>2021-08-20T12:33:39Z</time>
      </trkpt>
      <trkpt lat="44.29239" lon="2.9281">
        <ele>1001.2</ele>
        <time>2021-08-20T12:33:40Z</time>
      </trkpt>
      <trkpt lat="44.2924" lon="2.92811">
        <ele>1001.6</ele>
        <time>2021-08-20T12:33:41Z</time>
      </trkpt>
      <trkpt lat="44.29241" lon="2.92812">
        <ele>1001.6</ele>
        <time>2021-08-20T12:33:42Z</time>
      </trkpt>
      <trkpt lat="44.29242" lon="2.92813">
        <ele>1001.8</ele>
        <time>2021-08-20T12:33:43Z</time>
      </trkpt>
      <trkpt lat="44.29243" lon="2.92814">
        <ele>1001.8</ele>
        <time>2021-08-20T12:33:44Z</time>
      </trkpt>
      <trkpt lat="44.29244" lon="2.92816">
        <ele>1001.8</ele>
        <time>2021-08-20T12:33:45Z</time>
      </trkpt>
      <trkpt lat="44.29245" lon="2.92817">
        <ele>1002</ele>
        <time>2021-08-20T12:33:46Z</time>
      </trkpt>
      <trkpt lat="44.29246" lon="2.92818">
        <ele>1002</ele>
        <time>2021-08-20T12:33:47Z</time>
      </trkpt>
      <trkpt lat="44.29247" lon="2.92819">
        <ele>1002.2</ele>
        <time>2021-08-20T12:33:48Z</time>
      </trkpt>
      <trkpt lat="44.29248" lon="2.92821">
        <ele>1002.2</ele>
        <time>2021-08-20T12:33:49Z</time>
      </trkpt>
      <trkpt lat="44.29249" lon="2.92822">
        <ele>1002.6</ele>
        <time>2021-08-20T12:33:50Z</time>
      </trkpt>
      <trkpt lat="44.2925" lon="2.92823">
        <ele>1002.6</ele>
        <time>2021-08-20T12:33:51Z</time>
      </trkpt>
      <trkpt lat="44.29251" lon="2.92825">
        <ele>1002.8</ele>
        <time>2021-08-20T12:33:52Z</time>
      </trkpt>
      <trkpt lat="44.29252" lon="2.92827">
        <ele>1002.8</ele>
        <time>2021-08-20T12:33:53Z</time>
      </trkpt>
      <trkpt lat="44.29253" lon="2.92829">
        <ele>1003</ele>
        <time>2021-08-20T12:33:54Z</time>
      </trkpt>
      <trkpt lat="44.29254" lon="2.92831">
        <ele>1003.2</ele>
        <time>2021-08-20T12:33:55Z</time>
      </trkpt>
      <trkpt lat="44.29255" lon="2.92833">
        <ele>1003.2</ele>
        <time>2021-08-20T12:33:56Z</time>
      </trkpt>
      <trkpt lat="44.29255" lon="2.92835">
        <ele>1003.4</ele>
        <time>2021-08-20T12:33:57Z</time>
      </trkpt>
      <trkpt lat="44.29255" lon="2.92837">
        <ele>1003.6</ele>
        <time>2021-08-20T12:33:58Z</time>
      </trkpt>
      <trkpt lat="44.29256" lon="2.92838">
        <ele>1003.8</ele>
        <time>2021-08-20T12:33:59Z</time>
      </trkpt>
      <trkpt lat="44.29256" lon="2.9284">
        <ele>1004</ele>
        <time>2021-08-20T12:34:00Z</time>
      </trkpt>
      <trkpt lat="44.29257" lon="2.92842">
        <ele>1004</ele>
        <time>2021-08-20T12:34:01Z</time>
      </trkpt>
      <trkpt lat="44.29257" lon="2.92844">
        <ele>1004.2</ele>
        <time>2021-08-20T12:34:02Z</time>
      </trkpt>
      <trkpt lat="44.29257" lon="2.92846">
        <ele>1004.2</ele>
        <time>2021-08-20T12:34:03Z</time>
      </trkpt>
      <trkpt lat="44.29257" lon="2.92848">
        <ele>1004.4</ele>
        <time>2021-08-20T12:34:04Z</time>
      </trkpt>
      <trkpt lat="44.29257" lon="2.92851">
        <ele>1004.4</ele>
        <time>2021-08-20T12:34:05Z</time>
      </trkpt>
      <trkpt lat="44.29257" lon="2.92852">
        <ele>1004.6</ele>
        <time>2021-08-20T12:34:06Z</time>
      </trkpt>
      <trkpt lat="44.29257" lon="2.92854">
        <ele>1004.6</ele>
        <time>2021-08-20T12:34:07Z</time>
      </trkpt>
      <trkpt lat="44.29257" lon="2.92856">
        <ele>1004.8</ele>
        <time>2021-08-20T12:34:08Z</time>
      </trkpt>
      <trkpt lat="44.29257" lon="2.92858">
        <ele>1005.2</ele>
        <time>2021-08-20T12:34:09Z</time>
      </trkpt>
      <trkpt lat="44.29257" lon="2.9286">
        <ele>1005.4</ele>
        <time>2021-08-20T12:34:10Z</time>
      </trkpt>
      <trkpt lat="44.29257" lon="2.92863">
        <ele>1005.6</ele>
        <time>2021-08-20T12:34:11Z</time>
      </trkpt>
      <trkpt lat="44.29257" lon="2.92865">
        <ele>1005.8</ele>
        <time>2021-08-20T12:34:12Z</time>
      </trkpt>
      <trkpt lat="44.29257" lon="2.92867">
        <ele>1006</ele>
        <time>2021-08-20T12:34:13Z</time>
      </trkpt>
      <trkpt lat="44.29257" lon="2.92869">
        <ele>1006</ele>
        <time>2021-08-20T12:34:14Z</time>
      </trkpt>
      <trkpt lat="44.29257" lon="2.92871">
        <ele>1006.2</ele>
        <time>2021-08-20T12:34:15Z</time>
      </trkpt>
      <trkpt lat="44.29257" lon="2.92873">
        <ele>1006.4</ele>
        <time>2021-08-20T12:34:16Z</time>
      </trkpt>
      <trkpt lat="44.29257" lon="2.92875">
        <ele>1006.4</ele>
        <time>2021-08-20T12:34:17Z</time>
      </trkpt>
      <trkpt lat="44.29257" lon="2.92877">
        <ele>1006.6</ele>
        <time>2021-08-20T12:34:18Z</time>
      </trkpt>
      <trkpt lat="44.29256" lon="2.9288">
        <ele>1006.6</ele>
        <time>2021-08-20T12:34:19Z</time>
      </trkpt>
      <trkpt lat="44.29256" lon="2.92882">
        <ele>1006.8</ele>
        <time>2021-08-20T12:34:20Z</time>
      </trkpt>
      <trkpt lat="44.29256" lon="2.92884">
        <ele>1006.8</ele>
        <time>2021-08-20T12:34:21Z</time>
      </trkpt>
      <trkpt lat="44.29256" lon="2.92886">
        <ele>1007</ele>
        <time>2021-08-20T12:34:22Z</time>
      </trkpt>
      <trkpt lat="44.29256" lon="2.92889">
        <ele>1007</ele>
        <time>2021-08-20T12:34:23Z</time>
      </trkpt>
      <trkpt lat="44.29256" lon="2.92891">
        <ele>1007.2</ele>
        <time>2021-08-20T12:34:24Z</time>
      </trkpt>
      <trkpt lat="44.29256" lon="2.92893">
        <ele>1007.4</ele>
        <time>2021-08-20T12:34:25Z</time>
      </trkpt>
      <trkpt lat="44.29256" lon="2.92895">
        <ele>1007.4</ele>
        <time>2021-08-20T12:34:26Z</time>
      </trkpt>
      <trkpt lat="44.29256" lon="2.92897">
        <ele>1007.6</ele>
        <time>2021-08-20T12:34:27Z</time>
      </trkpt>
      <trkpt lat="44.29256" lon="2.92899">
        <ele>1007.8</ele>
        <time>2021-08-20T12:34:28Z</time>
      </trkpt>
      <trkpt lat="44.29257" lon="2.92902">
        <ele>1008</ele>
        <time>2021-08-20T12:34:29Z</time>
      </trkpt>
      <trkpt lat="44.29257" lon="2.92904">
        <ele>1008</ele>
        <time>2021-08-20T12:34:30Z</time>
      </trkpt>
      <trkpt lat="44.29256" lon="2.92906">
        <ele>1008.2</ele>
        <time>2021-08-20T12:34:31Z</time>
      </trkpt>
      <trkpt lat="44.29256" lon="2.92907">
        <ele>1008</ele>
        <time>2021-08-20T12:34:32Z</time>
      </trkpt>
      <trkpt lat="44.29257" lon="2.92909">
        <ele>1008.4</ele>
        <time>2021-08-20T12:34:33Z</time>
      </trkpt>
      <trkpt lat="44.29257" lon="2.92911">
        <ele>1008.2</ele>
        <time>2021-08-20T12:34:34Z</time>
      </trkpt>
      <trkpt lat="44.29257" lon="2.92914">
        <ele>1008.4</ele>
        <time>2021-08-20T12:34:35Z</time>
      </trkpt>
      <trkpt lat="44.29257" lon="2.92915">
        <ele>1008.6</ele>
        <time>2021-08-20T12:34:36Z</time>
      </trkpt>
      <trkpt lat="44.29257" lon="2.92917">
        <ele>1008.6</ele>
        <time>2021-08-20T12:34:37Z</time>
      </trkpt>
      <trkpt lat="44.29258" lon="2.9292">
        <ele>1008.8</ele>
        <time>2021-08-20T12:34:38Z</time>
      </trkpt>
      <trkpt lat="44.29258" lon="2.92921">
        <ele>1009</ele>
        <time>2021-08-20T12:34:39Z</time>
      </trkpt>
      <trkpt lat="44.29259" lon="2.92924">
        <ele>1009</ele>
        <time>2021-08-20T12:34:40Z</time>
      </trkpt>
      <trkpt lat="44.29259" lon="2.92926">
        <ele>1009.2</ele>
        <time>2021-08-20T12:34:41Z</time>
      </trkpt>
      <trkpt lat="44.29259" lon="2.92928">
        <ele>1009.2</ele>
        <time>2021-08-20T12:34:42Z</time>
      </trkpt>
      <trkpt lat="44.29259" lon="2.92929">
        <ele>1009.4</ele>
        <time>2021-08-20T12:34:43Z</time>
      </trkpt>
      <trkpt lat="44.29259" lon="2.92931">
        <ele>1009.6</ele>
        <time>2021-08-20T12:34:44Z</time>
      </trkpt>
      <trkpt lat="44.2926" lon="2.92933">
        <ele>1009.6</ele>
        <time>2021-08-20T12:34:45Z</time>
      </trkpt>
      <trkpt lat="44.29261" lon="2.92935">
        <ele>1009.8</ele>
        <time>2021-08-20T12:34:46Z</time>
      </trkpt>
      <trkpt lat="44.29261" lon="2.92937">
        <ele>1009.8</ele>
        <time>2021-08-20T12:34:47Z</time>
      </trkpt>
      <trkpt lat="44.29262" lon="2.92939">
        <ele>1010</ele>
        <time>2021-08-20T12:34:48Z</time>
      </trkpt>
      <trkpt lat="44.29262" lon="2.92941">
        <ele>1010</ele>
        <time>2021-08-20T12:34:49Z</time>
      </trkpt>
      <trkpt lat="44.29263" lon="2.92943">
        <ele>1010.2</ele>
        <time>2021-08-20T12:34:50Z</time>
      </trkpt>
      <trkpt lat="44.29264" lon="2.92945">
        <ele>1010.4</ele>
        <time>2021-08-20T12:34:51Z</time>
      </trkpt>
      <trkpt lat="44.29264" lon="2.92947">
        <ele>1010.4</ele>
        <time>2021-08-20T12:34:52Z</time>
      </trkpt>
      <trkpt lat="44.29265" lon="2.92949">
        <ele>1010.6</ele>
        <time>2021-08-20T12:34:53Z</time>
      </trkpt>
      <trkpt lat="44.29266" lon="2.92951">
        <ele>1010.6</ele>
        <time>2021-08-20T12:34:54Z</time>
      </trkpt>
      <trkpt lat="44.29267" lon="2.92953">
        <ele>1010.8</ele>
        <time>2021-08-20T12:34:55Z</time>
      </trkpt>
      <trkpt lat="44.29268" lon="2.92955">
        <ele>1010.8</ele>
        <time>2021-08-20T12:34:56Z</time>
      </trkpt>
      <trkpt lat="44.29268" lon="2.92957">
        <ele>1011</ele>
        <time>2021-08-20T12:34:57Z</time>
      </trkpt>
      <trkpt lat="44.29269" lon="2.92959">
        <ele>1011</ele>
        <time>2021-08-20T12:34:58Z</time>
      </trkpt>
      <trkpt lat="44.2927" lon="2.92961">
        <ele>1011.2</ele>
        <time>2021-08-20T12:34:59Z</time>
      </trkpt>
      <trkpt lat="44.29271" lon="2.92963">
        <ele>1011.4</ele>
        <time>2021-08-20T12:35:00Z</time>
      </trkpt>
      <trkpt lat="44.29272" lon="2.92965">
        <ele>1011.4</ele>
        <time>2021-08-20T12:35:01Z</time>
      </trkpt>
      <trkpt lat="44.29273" lon="2.92967">
        <ele>1011.6</ele>
        <time>2021-08-20T12:35:02Z</time>
      </trkpt>
      <trkpt lat="44.29274" lon="2.9297">
        <ele>1011.6</ele>
        <time>2021-08-20T12:35:03Z</time>
      </trkpt>
      <trkpt lat="44.29275" lon="2.92972">
        <ele>1011.6</ele>
        <time>2021-08-20T12:35:04Z</time>
      </trkpt>
      <trkpt lat="44.29275" lon="2.92974">
        <ele>1011.8</ele>
        <time>2021-08-20T12:35:05Z</time>
      </trkpt>
      <trkpt lat="44.29277" lon="2.92977">
        <ele>1011.8</ele>
        <time>2021-08-20T12:35:06Z</time>
      </trkpt>
      <trkpt lat="44.29278" lon="2.92979">
        <ele>1011.8</ele>
        <time>2021-08-20T12:35:07Z</time>
      </trkpt>
      <trkpt lat="44.29279" lon="2.92983">
        <ele>1012</ele>
        <time>2021-08-20T12:35:08Z</time>
      </trkpt>
      <trkpt lat="44.2928" lon="2.92986">
        <ele>1012</ele>
        <time>2021-08-20T12:35:09Z</time>
      </trkpt>
      <trkpt lat="44.29281" lon="2.92988">
        <ele>1012.2</ele>
        <time>2021-08-20T12:35:10Z</time>
      </trkpt>
      <trkpt lat="44.29282" lon="2.92991">
        <ele>1012.2</ele>
        <time>2021-08-20T12:35:11Z</time>
      </trkpt>
      <trkpt lat="44.29283" lon="2.92993">
        <ele>1012.4</ele>
        <time>2021-08-20T12:35:12Z</time>
      </trkpt>
      <trkpt lat="44.29284" lon="2.92996">
        <ele>1012.6</ele>
        <time>2021-08-20T12:35:13Z</time>
      </trkpt>
      <trkpt lat="44.29286" lon="2.92999">
        <ele>1012.6</ele>
        <time>2021-08-20T12:35:14Z</time>
      </trkpt>
      <trkpt lat="44.29287" lon="2.93001">
        <ele>1012.6</ele>
        <time>2021-08-20T12:35:15Z</time>
      </trkpt>
      <trkpt lat="44.29287" lon="2.93003">
        <ele>1012.6</ele>
        <time>2021-08-20T12:35:16Z</time>
      </trkpt>
      <trkpt lat="44.29288" lon="2.93005">
        <ele>1012.6</ele>
        <time>2021-08-20T12:35:17Z</time>
      </trkpt>
      <trkpt lat="44.2929" lon="2.93008">
        <ele>1012.8</ele>
        <time>2021-08-20T12:35:18Z</time>
      </trkpt>
      <trkpt lat="44.29291" lon="2.93011">
        <ele>1012.8</ele>
        <time>2021-08-20T12:35:19Z</time>
      </trkpt>
      <trkpt lat="44.29292" lon="2.93014">
        <ele>1013</ele>
        <time>2021-08-20T12:35:20Z</time>
      </trkpt>
      <trkpt lat="44.29294" lon="2.93018">
        <ele>1013</ele>
        <time>2021-08-20T12:35:22Z</time>
      </trkpt>
      <trkpt lat="44.29295" lon="2.9302">
        <ele>1013.2</ele>
        <time>2021-08-20T12:35:23Z</time>
      </trkpt>
      <trkpt lat="44.29296" lon="2.93023">
        <ele>1013.2</ele>
        <time>2021-08-20T12:35:24Z</time>
      </trkpt>
      <trkpt lat="44.29297" lon="2.93025">
        <ele>1013.4</ele>
        <time>2021-08-20T12:35:25Z</time>
      </trkpt>
      <trkpt lat="44.29305" lon="2.9304">
        <ele>1013.8</ele>
        <time>2021-08-20T12:35:31Z</time>
      </trkpt>
      <trkpt lat="44.29307" lon="2.93042">
        <ele>1014</ele>
        <time>2021-08-20T12:35:32Z</time>
      </trkpt>
      <trkpt lat="44.29308" lon="2.93045">
        <ele>1014</ele>
        <time>2021-08-20T12:35:33Z</time>
      </trkpt>
      <trkpt lat="44.29321" lon="2.93064">
        <ele>1014.4</ele>
        <time>2021-08-20T12:35:39Z</time>
      </trkpt>
      <trkpt lat="44.2933" lon="2.93076">
        <ele>1014.6</ele>
        <time>2021-08-20T12:35:42Z</time>
      </trkpt>
      <trkpt lat="44.29335" lon="2.93082">
        <ele>1015</ele>
        <time>2021-08-20T12:35:44Z</time>
      </trkpt>
      <trkpt lat="44.29337" lon="2.93086">
        <ele>1015.2</ele>
        <time>2021-08-20T12:35:45Z</time>
      </trkpt>
      <trkpt lat="44.29339" lon="2.9309">
        <ele>1015.2</ele>
        <time>2021-08-20T12:35:46Z</time>
      </trkpt>
      <trkpt lat="44.29341" lon="2.93093">
        <ele>1015.2</ele>
        <time>2021-08-20T12:35:47Z</time>
      </trkpt>
      <trkpt lat="44.29341" lon="2.93096">
        <ele>1015.2</ele>
        <time>2021-08-20T12:35:48Z</time>
      </trkpt>
      <trkpt lat="44.29342" lon="2.931">
        <ele>1015.2</ele>
        <time>2021-08-20T12:35:49Z</time>
      </trkpt>
      <trkpt lat="44.29343" lon="2.93103">
        <ele>1015.2</ele>
        <time>2021-08-20T12:35:50Z</time>
      </trkpt>
      <trkpt lat="44.29344" lon="2.93106">
        <ele>1015.2</ele>
        <time>2021-08-20T12:35:51Z</time>
      </trkpt>
      <trkpt lat="44.29345" lon="2.93109">
        <ele>1014.8</ele>
        <time>2021-08-20T12:35:52Z</time>
      </trkpt>
      <trkpt lat="44.29346" lon="2.93111">
        <ele>1015</ele>
        <time>2021-08-20T12:35:53Z</time>
      </trkpt>
      <trkpt lat="44.29347" lon="2.93115">
        <ele>1015</ele>
        <time>2021-08-20T12:35:55Z</time>
      </trkpt>
      <trkpt lat="44.29348" lon="2.93116">
        <ele>1014.8</ele>
        <time>2021-08-20T12:35:56Z</time>
      </trkpt>
      <trkpt lat="44.29348" lon="2.93119">
        <ele>1014.2</ele>
        <time>2021-08-20T12:37:31Z</time>
      </trkpt>
      <trkpt lat="44.29348" lon="2.93125">
        <ele>1014.2</ele>
        <time>2021-08-20T12:37:33Z</time>
      </trkpt>
      <trkpt lat="44.2935" lon="2.93133">
        <ele>1014.2</ele>
        <time>2021-08-20T12:37:35Z</time>
      </trkpt>
      <trkpt lat="44.29352" lon="2.93138">
        <ele>1014</ele>
        <time>2021-08-20T12:37:36Z</time>
      </trkpt>
      <trkpt lat="44.29353" lon="2.93144">
        <ele>1014</ele>
        <time>2021-08-20T12:37:37Z</time>
      </trkpt>
      <trkpt lat="44.29358" lon="2.9316">
        <ele>1013.8</ele>
        <time>2021-08-20T12:37:40Z</time>
      </trkpt>
      <trkpt lat="44.2936" lon="2.93164">
        <ele>1013.4</ele>
        <time>2021-08-20T12:37:41Z</time>
      </trkpt>
      <trkpt lat="44.29367" lon="2.93183">
        <ele>1012.4</ele>
        <time>2021-08-20T12:37:45Z</time>
      </trkpt>
      <trkpt lat="44.29369" lon="2.93188">
        <ele>1012</ele>
        <time>2021-08-20T12:37:46Z</time>
      </trkpt>
      <trkpt lat="44.29378" lon="2.93208">
        <ele>1010.8</ele>
        <time>2021-08-20T12:37:50Z</time>
      </trkpt>
      <trkpt lat="44.2938" lon="2.93213">
        <ele>1010.6</ele>
        <time>2021-08-20T12:37:51Z</time>
      </trkpt>
      <trkpt lat="44.29382" lon="2.93217">
        <ele>1010.4</ele>
        <time>2021-08-20T12:37:52Z</time>
      </trkpt>
      <trkpt lat="44.29383" lon="2.93221">
        <ele>1010.4</ele>
        <time>2021-08-20T12:37:53Z</time>
      </trkpt>
      <trkpt lat="44.29387" lon="2.93231">
        <ele>1010</ele>
        <time>2021-08-20T12:37:55Z</time>
      </trkpt>
      <trkpt lat="44.29389" lon="2.93236">
        <ele>1009.8</ele>
        <time>2021-08-20T12:37:56Z</time>
      </trkpt>
      <trkpt lat="44.29399" lon="2.93265">
        <ele>1008.8</ele>
        <time>2021-08-20T12:38:01Z</time>
      </trkpt>
      <trkpt lat="44.29401" lon="2.9327">
        <ele>1008.4</ele>
        <time>2021-08-20T12:38:02Z</time>
      </trkpt>
      <trkpt lat="44.29403" lon="2.93275">
        <ele>1008</ele>
        <time>2021-08-20T12:38:03Z</time>
      </trkpt>
      <trkpt lat="44.29404" lon="2.93281">
        <ele>1007.6</ele>
        <time>2021-08-20T12:38:04Z</time>
      </trkpt>
      <trkpt lat="44.29408" lon="2.93291">
        <ele>1007</ele>
        <time>2021-08-20T12:38:06Z</time>
      </trkpt>
      <trkpt lat="44.29412" lon="2.93301">
        <ele>1006.8</ele>
        <time>2021-08-20T12:38:08Z</time>
      </trkpt>
      <trkpt lat="44.29421" lon="2.93315">
        <ele>1005.8</ele>
        <time>2021-08-20T12:38:11Z</time>
      </trkpt>
      <trkpt lat="44.29424" lon="2.93319">
        <ele>1005.8</ele>
        <time>2021-08-20T12:38:12Z</time>
      </trkpt>
      <trkpt lat="44.29427" lon="2.93322">
        <ele>1005.4</ele>
        <time>2021-08-20T12:38:13Z</time>
      </trkpt>
      <trkpt lat="44.29431" lon="2.93325">
        <ele>1005.2</ele>
        <time>2021-08-20T12:38:14Z</time>
      </trkpt>
      <trkpt lat="44.29438" lon="2.93329">
        <ele>1004.8</ele>
        <time>2021-08-20T12:38:16Z</time>
      </trkpt>
      <trkpt lat="44.29442" lon="2.9333">
        <ele>1004.4</ele>
        <time>2021-08-20T12:38:17Z</time>
      </trkpt>
      <trkpt lat="44.29446" lon="2.93332">
        <ele>1004.2</ele>
        <time>2021-08-20T12:38:18Z</time>
      </trkpt>
      <trkpt lat="44.29449" lon="2.93333">
        <ele>1003.6</ele>
        <time>2021-08-20T12:38:19Z</time>
      </trkpt>
      <trkpt lat="44.29453" lon="2.93335">
        <ele>1003.2</ele>
        <time>2021-08-20T12:38:20Z</time>
      </trkpt>
      <trkpt lat="44.29456" lon="2.93336">
        <ele>1002.8</ele>
        <time>2021-08-20T12:38:21Z</time>
      </trkpt>
      <trkpt lat="44.2946" lon="2.93337">
        <ele>1002.6</ele>
        <time>2021-08-20T12:38:22Z</time>
      </trkpt>
      <trkpt lat="44.29469" lon="2.93341">
        <ele>1001.2</ele>
        <time>2021-08-20T12:38:25Z</time>
      </trkpt>
      <trkpt lat="44.29472" lon="2.93343">
        <ele>1000.4</ele>
        <time>2021-08-20T12:38:26Z</time>
      </trkpt>
      <trkpt lat="44.29475" lon="2.93345">
        <ele>1000</ele>
        <time>2021-08-20T12:38:27Z</time>
      </trkpt>
      <trkpt lat="44.29478" lon="2.93346">
        <ele>999.8</ele>
        <time>2021-08-20T12:38:28Z</time>
      </trkpt>
      <trkpt lat="44.2948" lon="2.93348">
        <ele>999.6</ele>
        <time>2021-08-20T12:38:29Z</time>
      </trkpt>
      <trkpt lat="44.29482" lon="2.93349">
        <ele>999.4</ele>
        <time>2021-08-20T12:38:30Z</time>
      </trkpt>
      <trkpt lat="44.29483" lon="2.93351">
        <ele>999.2</ele>
        <time>2021-08-20T12:38:31Z</time>
      </trkpt>
      <trkpt lat="44.29484" lon="2.93352">
        <ele>999.2</ele>
        <time>2021-08-20T12:38:32Z</time>
      </trkpt>
      <trkpt lat="44.29485" lon="2.93354">
        <ele>998.4</ele>
        <time>2021-08-20T12:38:33Z</time>
      </trkpt>
      <trkpt lat="44.29485" lon="2.93356">
        <ele>998.2</ele>
        <time>2021-08-20T12:38:34Z</time>
      </trkpt>
      <trkpt lat="44.29486" lon="2.93358">
        <ele>997.6</ele>
        <time>2021-08-20T12:38:35Z</time>
      </trkpt>
      <trkpt lat="44.29487" lon="2.93361">
        <ele>997.4</ele>
        <time>2021-08-20T12:38:36Z</time>
      </trkpt>
      <trkpt lat="44.29488" lon="2.93364">
        <ele>997.4</ele>
        <time>2021-08-20T12:38:37Z</time>
      </trkpt>
      <trkpt lat="44.2949" lon="2.93366">
        <ele>997</ele>
        <time>2021-08-20T12:38:38Z</time>
      </trkpt>
      <trkpt lat="44.29493" lon="2.93369">
        <ele>996.8</ele>
        <time>2021-08-20T12:38:39Z</time>
      </trkpt>
      <trkpt lat="44.29497" lon="2.9337">
        <ele>996.4</ele>
        <time>2021-08-20T12:38:40Z</time>
      </trkpt>
      <trkpt lat="44.295" lon="2.93371">
        <ele>996.4</ele>
        <time>2021-08-20T12:38:41Z</time>
      </trkpt>
      <trkpt lat="44.29503" lon="2.93372">
        <ele>995.8</ele>
        <time>2021-08-20T12:38:42Z</time>
      </trkpt>
      <trkpt lat="44.29506" lon="2.93375">
        <ele>995.6</ele>
        <time>2021-08-20T12:38:43Z</time>
      </trkpt>
      <trkpt lat="44.29511" lon="2.93379">
        <ele>995.4</ele>
        <time>2021-08-20T12:38:44Z</time>
      </trkpt>
      <trkpt lat="44.2952" lon="2.93389">
        <ele>995</ele>
        <time>2021-08-20T12:38:46Z</time>
      </trkpt>
      <trkpt lat="44.29528" lon="2.93402">
        <ele>994.8</ele>
        <time>2021-08-20T12:38:48Z</time>
      </trkpt>
      <trkpt lat="44.29547" lon="2.93454">
        <ele>993.6</ele>
        <time>2021-08-20T12:38:54Z</time>
      </trkpt>
      <trkpt lat="44.2955" lon="2.93463">
        <ele>993.4</ele>
        <time>2021-08-20T12:38:55Z</time>
      </trkpt>
      <trkpt lat="44.29557" lon="2.93494">
        <ele>992.4</ele>
        <time>2021-08-20T12:38:58Z</time>
      </trkpt>
      <trkpt lat="44.29558" lon="2.93504">
        <ele>992.2</ele>
        <time>2021-08-20T12:38:59Z</time>
      </trkpt>
      <trkpt lat="44.29559" lon="2.93515">
        <ele>991.8</ele>
        <time>2021-08-20T12:39:00Z</time>
      </trkpt>
      <trkpt lat="44.29559" lon="2.93525">
        <ele>991.2</ele>
        <time>2021-08-20T12:39:01Z</time>
      </trkpt>
      <trkpt lat="44.29557" lon="2.93536">
        <ele>991</ele>
        <time>2021-08-20T12:39:02Z</time>
      </trkpt>
      <trkpt lat="44.29555" lon="2.93549">
        <ele>990.2</ele>
        <time>2021-08-20T12:39:03Z</time>
      </trkpt>
      <trkpt lat="44.29553" lon="2.93561">
        <ele>990</ele>
        <time>2021-08-20T12:39:04Z</time>
      </trkpt>
      <trkpt lat="44.2955" lon="2.93571">
        <ele>989.8</ele>
        <time>2021-08-20T12:39:05Z</time>
      </trkpt>
      <trkpt lat="44.29547" lon="2.93581">
        <ele>989.6</ele>
        <time>2021-08-20T12:39:06Z</time>
      </trkpt>
      <trkpt lat="44.29544" lon="2.93591">
        <ele>989</ele>
        <time>2021-08-20T12:39:07Z</time>
      </trkpt>
      <trkpt lat="44.29542" lon="2.93601">
        <ele>988.2</ele>
        <time>2021-08-20T12:39:08Z</time>
      </trkpt>
      <trkpt lat="44.29539" lon="2.93611">
        <ele>988</ele>
        <time>2021-08-20T12:39:09Z</time>
      </trkpt>
      <trkpt lat="44.29537" lon="2.9362">
        <ele>987.8</ele>
        <time>2021-08-20T12:39:10Z</time>
      </trkpt>
      <trkpt lat="44.29534" lon="2.9363">
        <ele>987.6</ele>
        <time>2021-08-20T12:39:11Z</time>
      </trkpt>
      <trkpt lat="44.29531" lon="2.93639">
        <ele>987.4</ele>
        <time>2021-08-20T12:39:12Z</time>
      </trkpt>
      <trkpt lat="44.29529" lon="2.93647">
        <ele>987.4</ele>
        <time>2021-08-20T12:39:13Z</time>
      </trkpt>
      <trkpt lat="44.29527" lon="2.93655">
        <ele>987.2</ele>
        <time>2021-08-20T12:39:14Z</time>
      </trkpt>
      <trkpt lat="44.29524" lon="2.93662">
        <ele>987.2</ele>
        <time>2021-08-20T12:39:15Z</time>
      </trkpt>
      <trkpt lat="44.2952" lon="2.93678">
        <ele>986.6</ele>
        <time>2021-08-20T12:39:17Z</time>
      </trkpt>
      <trkpt lat="44.29517" lon="2.93685">
        <ele>986.4</ele>
        <time>2021-08-20T12:39:18Z</time>
      </trkpt>
      <trkpt lat="44.29514" lon="2.93693">
        <ele>986</ele>
        <time>2021-08-20T12:39:19Z</time>
      </trkpt>
      <trkpt lat="44.29511" lon="2.93699">
        <ele>985.8</ele>
        <time>2021-08-20T12:39:20Z</time>
      </trkpt>
      <trkpt lat="44.29507" lon="2.93705">
        <ele>985.6</ele>
        <time>2021-08-20T12:39:21Z</time>
      </trkpt>
      <trkpt lat="44.29502" lon="2.93711">
        <ele>985.6</ele>
        <time>2021-08-20T12:39:22Z</time>
      </trkpt>
      <trkpt lat="44.29498" lon="2.93716">
        <ele>985.4</ele>
        <time>2021-08-20T12:39:23Z</time>
      </trkpt>
      <trkpt lat="44.29493" lon="2.9372">
        <ele>985.2</ele>
        <time>2021-08-20T12:39:24Z</time>
      </trkpt>
      <trkpt lat="44.29488" lon="2.93725">
        <ele>985.2</ele>
        <time>2021-08-20T12:39:25Z</time>
      </trkpt>
      <trkpt lat="44.29485" lon="2.93729">
        <ele>985</ele>
        <time>2021-08-20T12:39:26Z</time>
      </trkpt>
      <trkpt lat="44.29481" lon="2.93733">
        <ele>985</ele>
        <time>2021-08-20T12:39:27Z</time>
      </trkpt>
      <trkpt lat="44.29476" lon="2.93737">
        <ele>984.8</ele>
        <time>2021-08-20T12:39:28Z</time>
      </trkpt>
      <trkpt lat="44.29473" lon="2.93742">
        <ele>984.8</ele>
        <time>2021-08-20T12:39:29Z</time>
      </trkpt>
      <trkpt lat="44.29461" lon="2.93757">
        <ele>984.4</ele>
        <time>2021-08-20T12:39:32Z</time>
      </trkpt>
      <trkpt lat="44.29449" lon="2.93773">
        <ele>984</ele>
        <time>2021-08-20T12:39:35Z</time>
      </trkpt>
      <trkpt lat="44.29435" lon="2.93789">
        <ele>983.8</ele>
        <time>2021-08-20T12:39:38Z</time>
      </trkpt>
      <trkpt lat="44.29425" lon="2.938">
        <ele>983.8</ele>
        <time>2021-08-20T12:39:40Z</time>
      </trkpt>
      <trkpt lat="44.29403" lon="2.93824">
        <ele>982.8</ele>
        <time>2021-08-20T12:39:44Z</time>
      </trkpt>
      <trkpt lat="44.29392" lon="2.93837">
        <ele>982.4</ele>
        <time>2021-08-20T12:39:46Z</time>
      </trkpt>
      <trkpt lat="44.29375" lon="2.9386">
        <ele>981.6</ele>
        <time>2021-08-20T12:39:49Z</time>
      </trkpt>
      <trkpt lat="44.29352" lon="2.93893">
        <ele>980.4</ele>
        <time>2021-08-20T12:39:53Z</time>
      </trkpt>
      <trkpt lat="44.29345" lon="2.93901">
        <ele>980.2</ele>
        <time>2021-08-20T12:39:54Z</time>
      </trkpt>
      <trkpt lat="44.2933" lon="2.93916">
        <ele>979.4</ele>
        <time>2021-08-20T12:39:56Z</time>
      </trkpt>
      <trkpt lat="44.29314" lon="2.93928">
        <ele>978.2</ele>
        <time>2021-08-20T12:39:58Z</time>
      </trkpt>
      <trkpt lat="44.29306" lon="2.93933">
        <ele>977.8</ele>
        <time>2021-08-20T12:39:59Z</time>
      </trkpt>
      <trkpt lat="44.29298" lon="2.93938">
        <ele>977.2</ele>
        <time>2021-08-20T12:40:00Z</time>
      </trkpt>
      <trkpt lat="44.2929" lon="2.93943">
        <ele>976.6</ele>
        <time>2021-08-20T12:40:01Z</time>
      </trkpt>
      <trkpt lat="44.29282" lon="2.93947">
        <ele>975.6</ele>
        <time>2021-08-20T12:40:02Z</time>
      </trkpt>
      <trkpt lat="44.29275" lon="2.93951">
        <ele>975.4</ele>
        <time>2021-08-20T12:40:03Z</time>
      </trkpt>
      <trkpt lat="44.29267" lon="2.93955">
        <ele>975</ele>
        <time>2021-08-20T12:40:04Z</time>
      </trkpt>
      <trkpt lat="44.2926" lon="2.93959">
        <ele>974.4</ele>
        <time>2021-08-20T12:40:05Z</time>
      </trkpt>
      <trkpt lat="44.29253" lon="2.93963">
        <ele>974</ele>
        <time>2021-08-20T12:40:06Z</time>
      </trkpt>
      <trkpt lat="44.29246" lon="2.93966">
        <ele>973.4</ele>
        <time>2021-08-20T12:40:07Z</time>
      </trkpt>
      <trkpt lat="44.29238" lon="2.93969">
        <ele>973.2</ele>
        <time>2021-08-20T12:40:08Z</time>
      </trkpt>
      <trkpt lat="44.29231" lon="2.93972">
        <ele>972.6</ele>
        <time>2021-08-20T12:40:09Z</time>
      </trkpt>
      <trkpt lat="44.29218" lon="2.93977">
        <ele>972</ele>
        <time>2021-08-20T12:40:11Z</time>
      </trkpt>
      <trkpt lat="44.29204" lon="2.93985">
        <ele>971.6</ele>
        <time>2021-08-20T12:40:13Z</time>
      </trkpt>
      <trkpt lat="44.29198" lon="2.93991">
        <ele>971</ele>
        <time>2021-08-20T12:40:14Z</time>
      </trkpt>
      <trkpt lat="44.29191" lon="2.93997">
        <ele>970.8</ele>
        <time>2021-08-20T12:40:15Z</time>
      </trkpt>
      <trkpt lat="44.29178" lon="2.94011">
        <ele>970.2</ele>
        <time>2021-08-20T12:40:17Z</time>
      </trkpt>
      <trkpt lat="44.29172" lon="2.9402">
        <ele>970</ele>
        <time>2021-08-20T12:40:18Z</time>
      </trkpt>
      <trkpt lat="44.29161" lon="2.94036">
        <ele>969.2</ele>
        <time>2021-08-20T12:40:20Z</time>
      </trkpt>
      <trkpt lat="44.29154" lon="2.94042">
        <ele>968.6</ele>
        <time>2021-08-20T12:40:21Z</time>
      </trkpt>
      <trkpt lat="44.29141" lon="2.94052">
        <ele>967.2</ele>
        <time>2021-08-20T12:40:23Z</time>
      </trkpt>
      <trkpt lat="44.29136" lon="2.94058">
        <ele>967</ele>
        <time>2021-08-20T12:40:24Z</time>
      </trkpt>
      <trkpt lat="44.29131" lon="2.94065">
        <ele>966.8</ele>
        <time>2021-08-20T12:40:25Z</time>
      </trkpt>
      <trkpt lat="44.29128" lon="2.94071">
        <ele>966.8</ele>
        <time>2021-08-20T12:40:26Z</time>
      </trkpt>
      <trkpt lat="44.29126" lon="2.94078">
        <ele>966.6</ele>
        <time>2021-08-20T12:40:27Z</time>
      </trkpt>
      <trkpt lat="44.29124" lon="2.94084">
        <ele>966.6</ele>
        <time>2021-08-20T12:40:28Z</time>
      </trkpt>
      <trkpt lat="44.29123" lon="2.94088">
        <ele>966.6</ele>
        <time>2021-08-20T12:40:29Z</time>
      </trkpt>
      <trkpt lat="44.29122" lon="2.94092">
        <ele>966.6</ele>
        <time>2021-08-20T12:40:30Z</time>
      </trkpt>
      <trkpt lat="44.29121" lon="2.94096">
        <ele>966.6</ele>
        <time>2021-08-20T12:40:31Z</time>
      </trkpt>
      <trkpt lat="44.2912" lon="2.941">
        <ele>966.6</ele>
        <time>2021-08-20T12:40:32Z</time>
      </trkpt>
      <trkpt lat="44.2912" lon="2.94103">
        <ele>966.6</ele>
        <time>2021-08-20T12:40:33Z</time>
      </trkpt>
      <trkpt lat="44.29119" lon="2.94107">
        <ele>966.8</ele>
        <time>2021-08-20T12:40:34Z</time>
      </trkpt>
      <trkpt lat="44.29118" lon="2.9411">
        <ele>967</ele>
        <time>2021-08-20T12:40:35Z</time>
      </trkpt>
      <trkpt lat="44.29118" lon="2.94114">
        <ele>967.2</ele>
        <time>2021-08-20T12:40:36Z</time>
      </trkpt>
      <trkpt lat="44.29118" lon="2.94117">
        <ele>967.4</ele>
        <time>2021-08-20T12:40:37Z</time>
      </trkpt>
      <trkpt lat="44.29117" lon="2.9412">
        <ele>967.6</ele>
        <time>2021-08-20T12:40:38Z</time>
      </trkpt>
      <trkpt lat="44.29116" lon="2.94127">
        <ele>968</ele>
        <time>2021-08-20T12:40:40Z</time>
      </trkpt>
      <trkpt lat="44.29116" lon="2.94133">
        <ele>968.4</ele>
        <time>2021-08-20T12:40:42Z</time>
      </trkpt>
      <trkpt lat="44.29115" lon="2.94136">
        <ele>968.8</ele>
        <time>2021-08-20T12:40:43Z</time>
      </trkpt>
      <trkpt lat="44.29115" lon="2.9414">
        <ele>969</ele>
        <time>2021-08-20T12:40:44Z</time>
      </trkpt>
      <trkpt lat="44.29114" lon="2.94143">
        <ele>969.2</ele>
        <time>2021-08-20T12:40:45Z</time>
      </trkpt>
      <trkpt lat="44.29114" lon="2.94147">
        <ele>969.2</ele>
        <time>2021-08-20T12:40:46Z</time>
      </trkpt>
      <trkpt lat="44.29114" lon="2.9415">
        <ele>969.4</ele>
        <time>2021-08-20T12:40:47Z</time>
      </trkpt>
      <trkpt lat="44.29113" lon="2.94157">
        <ele>969.8</ele>
        <time>2021-08-20T12:40:49Z</time>
      </trkpt>
      <trkpt lat="44.29111" lon="2.94167">
        <ele>970.2</ele>
        <time>2021-08-20T12:40:52Z</time>
      </trkpt>
      <trkpt lat="44.2911" lon="2.94175">
        <ele>970.2</ele>
        <time>2021-08-20T12:40:54Z</time>
      </trkpt>
      <trkpt lat="44.29109" lon="2.94178">
        <ele>970.4</ele>
        <time>2021-08-20T12:40:55Z</time>
      </trkpt>
      <trkpt lat="44.29104" lon="2.94188">
        <ele>970.6</ele>
        <time>2021-08-20T12:40:58Z</time>
      </trkpt>
      <trkpt lat="44.29103" lon="2.94192">
        <ele>970.6</ele>
        <time>2021-08-20T12:40:59Z</time>
      </trkpt>
      <trkpt lat="44.29101" lon="2.94196">
        <ele>970.8</ele>
        <time>2021-08-20T12:41:00Z</time>
      </trkpt>
      <trkpt lat="44.29099" lon="2.94201">
        <ele>971</ele>
        <time>2021-08-20T12:41:01Z</time>
      </trkpt>
      <trkpt lat="44.29097" lon="2.94204">
        <ele>971.2</ele>
        <time>2021-08-20T12:41:02Z</time>
      </trkpt>
      <trkpt lat="44.29096" lon="2.94208">
        <ele>971.2</ele>
        <time>2021-08-20T12:41:03Z</time>
      </trkpt>
      <trkpt lat="44.29094" lon="2.94212">
        <ele>971.4</ele>
        <time>2021-08-20T12:41:04Z</time>
      </trkpt>
      <trkpt lat="44.29092" lon="2.94216">
        <ele>971.6</ele>
        <time>2021-08-20T12:41:05Z</time>
      </trkpt>
      <trkpt lat="44.2909" lon="2.9422">
        <ele>971.6</ele>
        <time>2021-08-20T12:41:06Z</time>
      </trkpt>
      <trkpt lat="44.29089" lon="2.94223">
        <ele>971.6</ele>
        <time>2021-08-20T12:41:07Z</time>
      </trkpt>
      <trkpt lat="44.29087" lon="2.94227">
        <ele>971.8</ele>
        <time>2021-08-20T12:41:08Z</time>
      </trkpt>
      <trkpt lat="44.29085" lon="2.9423">
        <ele>971.8</ele>
        <time>2021-08-20T12:41:09Z</time>
      </trkpt>
      <trkpt lat="44.29084" lon="2.94232">
        <ele>972</ele>
        <time>2021-08-20T12:41:10Z</time>
      </trkpt>
      <trkpt lat="44.29082" lon="2.94235">
        <ele>972.2</ele>
        <time>2021-08-20T12:41:11Z</time>
      </trkpt>
      <trkpt lat="44.2908" lon="2.94239">
        <ele>972.4</ele>
        <time>2021-08-20T12:41:12Z</time>
      </trkpt>
      <trkpt lat="44.29079" lon="2.94242">
        <ele>972.6</ele>
        <time>2021-08-20T12:41:13Z</time>
      </trkpt>
      <trkpt lat="44.29077" lon="2.94244">
        <ele>972.8</ele>
        <time>2021-08-20T12:41:14Z</time>
      </trkpt>
      <trkpt lat="44.29075" lon="2.94247">
        <ele>972.8</ele>
        <time>2021-08-20T12:41:15Z</time>
      </trkpt>
      <trkpt lat="44.29073" lon="2.9425">
        <ele>973</ele>
        <time>2021-08-20T12:41:16Z</time>
      </trkpt>
      <trkpt lat="44.29071" lon="2.94253">
        <ele>973.2</ele>
        <time>2021-08-20T12:41:17Z</time>
      </trkpt>
      <trkpt lat="44.2907" lon="2.94256">
        <ele>973.2</ele>
        <time>2021-08-20T12:41:18Z</time>
      </trkpt>
      <trkpt lat="44.29069" lon="2.94258">
        <ele>973.4</ele>
        <time>2021-08-20T12:41:19Z</time>
      </trkpt>
      <trkpt lat="44.29067" lon="2.94261">
        <ele>973.6</ele>
        <time>2021-08-20T12:41:20Z</time>
      </trkpt>
      <trkpt lat="44.29066" lon="2.94264">
        <ele>973.6</ele>
        <time>2021-08-20T12:41:21Z</time>
      </trkpt>
      <trkpt lat="44.29064" lon="2.94266">
        <ele>974</ele>
        <time>2021-08-20T12:41:22Z</time>
      </trkpt>
      <trkpt lat="44.29062" lon="2.94268">
        <ele>974</ele>
        <time>2021-08-20T12:41:23Z</time>
      </trkpt>
      <trkpt lat="44.2906" lon="2.94271">
        <ele>974.4</ele>
        <time>2021-08-20T12:41:24Z</time>
      </trkpt>
      <trkpt lat="44.29058" lon="2.94273">
        <ele>974.4</ele>
        <time>2021-08-20T12:41:25Z</time>
      </trkpt>
      <trkpt lat="44.29056" lon="2.94276">
        <ele>974.6</ele>
        <time>2021-08-20T12:41:26Z</time>
      </trkpt>
      <trkpt lat="44.29055" lon="2.94279">
        <ele>974.8</ele>
        <time>2021-08-20T12:41:27Z</time>
      </trkpt>
      <trkpt lat="44.29053" lon="2.94281">
        <ele>975</ele>
        <time>2021-08-20T12:41:28Z</time>
      </trkpt>
      <trkpt lat="44.29051" lon="2.94283">
        <ele>975</ele>
        <time>2021-08-20T12:41:29Z</time>
      </trkpt>
      <trkpt lat="44.29049" lon="2.94285">
        <ele>975</ele>
        <time>2021-08-20T12:41:30Z</time>
      </trkpt>
      <trkpt lat="44.29048" lon="2.94287">
        <ele>975.4</ele>
        <time>2021-08-20T12:41:31Z</time>
      </trkpt>
      <trkpt lat="44.29046" lon="2.94289">
        <ele>975.4</ele>
        <time>2021-08-20T12:41:32Z</time>
      </trkpt>
      <trkpt lat="44.29045" lon="2.94291">
        <ele>975.6</ele>
        <time>2021-08-20T12:41:33Z</time>
      </trkpt>
      <trkpt lat="44.29043" lon="2.94293">
        <ele>975.6</ele>
        <time>2021-08-20T12:41:34Z</time>
      </trkpt>
      <trkpt lat="44.29041" lon="2.94295">
        <ele>975.8</ele>
        <time>2021-08-20T12:41:35Z</time>
      </trkpt>
      <trkpt lat="44.29039" lon="2.94297">
        <ele>976</ele>
        <time>2021-08-20T12:41:36Z</time>
      </trkpt>
      <trkpt lat="44.29036" lon="2.94298">
        <ele>976.2</ele>
        <time>2021-08-20T12:41:37Z</time>
      </trkpt>
      <trkpt lat="44.29033" lon="2.943">
        <ele>976.4</ele>
        <time>2021-08-20T12:41:38Z</time>
      </trkpt>
      <trkpt lat="44.29031" lon="2.94301">
        <ele>976.6</ele>
        <time>2021-08-20T12:41:39Z</time>
      </trkpt>
      <trkpt lat="44.29028" lon="2.94302">
        <ele>976.8</ele>
        <time>2021-08-20T12:41:40Z</time>
      </trkpt>
      <trkpt lat="44.29025" lon="2.94304">
        <ele>976.8</ele>
        <time>2021-08-20T12:41:41Z</time>
      </trkpt>
      <trkpt lat="44.29022" lon="2.94304">
        <ele>977.2</ele>
        <time>2021-08-20T12:41:42Z</time>
      </trkpt>
      <trkpt lat="44.29019" lon="2.94305">
        <ele>977.4</ele>
        <time>2021-08-20T12:41:43Z</time>
      </trkpt>
      <trkpt lat="44.29016" lon="2.94305">
        <ele>977.4</ele>
        <time>2021-08-20T12:41:44Z</time>
      </trkpt>
      <trkpt lat="44.29014" lon="2.94305">
        <ele>977.8</ele>
        <time>2021-08-20T12:41:45Z</time>
      </trkpt>
      <trkpt lat="44.29011" lon="2.94305">
        <ele>977.8</ele>
        <time>2021-08-20T12:41:46Z</time>
      </trkpt>
      <trkpt lat="44.29008" lon="2.94305">
        <ele>978.4</ele>
        <time>2021-08-20T12:41:47Z</time>
      </trkpt>
      <trkpt lat="44.29005" lon="2.94305">
        <ele>978.6</ele>
        <time>2021-08-20T12:41:48Z</time>
      </trkpt>
      <trkpt lat="44.29002" lon="2.94304">
        <ele>979</ele>
        <time>2021-08-20T12:41:49Z</time>
      </trkpt>
      <trkpt lat="44.28998" lon="2.94303">
        <ele>979.2</ele>
        <time>2021-08-20T12:41:50Z</time>
      </trkpt>
      <trkpt lat="44.28995" lon="2.94303">
        <ele>979.4</ele>
        <time>2021-08-20T12:41:51Z</time>
      </trkpt>
      <trkpt lat="44.28993" lon="2.94302">
        <ele>979.6</ele>
        <time>2021-08-20T12:41:52Z</time>
      </trkpt>
      <trkpt lat="44.2899" lon="2.94301">
        <ele>980</ele>
        <time>2021-08-20T12:41:53Z</time>
      </trkpt>
      <trkpt lat="44.28986" lon="2.943">
        <ele>980.6</ele>
        <time>2021-08-20T12:41:54Z</time>
      </trkpt>
      <trkpt lat="44.28983" lon="2.943">
        <ele>980.8</ele>
        <time>2021-08-20T12:41:55Z</time>
      </trkpt>
      <trkpt lat="44.2898" lon="2.943">
        <ele>981.2</ele>
        <time>2021-08-20T12:41:56Z</time>
      </trkpt>
      <trkpt lat="44.28978" lon="2.94301">
        <ele>981.4</ele>
        <time>2021-08-20T12:41:57Z</time>
      </trkpt>
      <trkpt lat="44.28975" lon="2.94302">
        <ele>981.8</ele>
        <time>2021-08-20T12:41:58Z</time>
      </trkpt>
      <trkpt lat="44.28973" lon="2.94303">
        <ele>982</ele>
        <time>2021-08-20T12:41:59Z</time>
      </trkpt>
      <trkpt lat="44.28971" lon="2.94304">
        <ele>982.2</ele>
        <time>2021-08-20T12:42:00Z</time>
      </trkpt>
      <trkpt lat="44.28968" lon="2.94304">
        <ele>982.8</ele>
        <time>2021-08-20T12:42:01Z</time>
      </trkpt>
      <trkpt lat="44.28966" lon="2.94305">
        <ele>983</ele>
        <time>2021-08-20T12:42:02Z</time>
      </trkpt>
      <trkpt lat="44.28965" lon="2.94305">
        <ele>983</ele>
        <time>2021-08-20T12:42:03Z</time>
      </trkpt>
      <trkpt lat="44.28964" lon="2.94306">
        <ele>983.2</ele>
        <time>2021-08-20T12:42:04Z</time>
      </trkpt>
      <trkpt lat="44.28963" lon="2.94308">
        <ele>983.6</ele>
        <time>2021-08-20T12:42:05Z</time>
      </trkpt>
      <trkpt lat="44.28964" lon="2.9431">
        <ele>983.6</ele>
        <time>2021-08-20T12:42:06Z</time>
      </trkpt>
      <trkpt lat="44.28965" lon="2.94312">
        <ele>983.8</ele>
        <time>2021-08-20T12:42:07Z</time>
      </trkpt>
      <trkpt lat="44.28966" lon="2.94313">
        <ele>984</ele>
        <time>2021-08-20T12:42:08Z</time>
      </trkpt>
      <trkpt lat="44.28968" lon="2.94314">
        <ele>984.2</ele>
        <time>2021-08-20T12:42:09Z</time>
      </trkpt>
      <trkpt lat="44.28969" lon="2.94316">
        <ele>984.2</ele>
        <time>2021-08-20T12:42:10Z</time>
      </trkpt>
      <trkpt lat="44.28971" lon="2.94318">
        <ele>984.4</ele>
        <time>2021-08-20T12:42:11Z</time>
      </trkpt>
      <trkpt lat="44.28972" lon="2.9432">
        <ele>984.4</ele>
        <time>2021-08-20T12:42:12Z</time>
      </trkpt>
      <trkpt lat="44.28973" lon="2.94322">
        <ele>984.4</ele>
        <time>2021-08-20T12:42:13Z</time>
      </trkpt>
      <trkpt lat="44.28974" lon="2.94323">
        <ele>984.6</ele>
        <time>2021-08-20T12:42:14Z</time>
      </trkpt>
      <trkpt lat="44.28975" lon="2.94324">
        <ele>984.6</ele>
        <time>2021-08-20T12:42:15Z</time>
      </trkpt>
      <trkpt lat="44.28975" lon="2.94325">
        <ele>984.6</ele>
        <time>2021-08-20T12:42:16Z</time>
      </trkpt>
      <trkpt lat="44.28975" lon="2.94327">
        <ele>984.6</ele>
        <time>2021-08-20T12:42:17Z</time>
      </trkpt>
      <trkpt lat="44.28977" lon="2.9433">
        <ele>984.6</ele>
        <time>2021-08-20T12:42:36Z</time>
      </trkpt>
      <trkpt lat="44.28978" lon="2.94332">
        <ele>984.6</ele>
        <time>2021-08-20T12:42:37Z</time>
      </trkpt>
      <trkpt lat="44.28979" lon="2.94334">
        <ele>984.6</ele>
        <time>2021-08-20T12:42:38Z</time>
      </trkpt>
      <trkpt lat="44.28984" lon="2.94348">
        <ele>984.6</ele>
        <time>2021-08-20T12:42:44Z</time>
      </trkpt>
      <trkpt lat="44.28985" lon="2.9435">
        <ele>984.6</ele>
        <time>2021-08-20T12:42:45Z</time>
      </trkpt>
      <trkpt lat="44.28985" lon="2.94353">
        <ele>984.8</ele>
        <time>2021-08-20T12:42:46Z</time>
      </trkpt>
      <trkpt lat="44.28986" lon="2.94358">
        <ele>985</ele>
        <time>2021-08-20T12:42:48Z</time>
      </trkpt>
      <trkpt lat="44.28987" lon="2.94364">
        <ele>985.2</ele>
        <time>2021-08-20T12:42:50Z</time>
      </trkpt>
      <trkpt lat="44.28993" lon="2.94387">
        <ele>985.8</ele>
        <time>2021-08-20T12:42:57Z</time>
      </trkpt>
      <trkpt lat="44.28993" lon="2.94391">
        <ele>986</ele>
        <time>2021-08-20T12:42:58Z</time>
      </trkpt>
      <trkpt lat="44.28994" lon="2.94394">
        <ele>986.2</ele>
        <time>2021-08-20T12:42:59Z</time>
      </trkpt>
      <trkpt lat="44.28994" lon="2.94397">
        <ele>986.2</ele>
        <time>2021-08-20T12:43:00Z</time>
      </trkpt>
      <trkpt lat="44.28994" lon="2.94404">
        <ele>986.4</ele>
        <time>2021-08-20T12:43:02Z</time>
      </trkpt>
      <trkpt lat="44.28994" lon="2.94408">
        <ele>986.4</ele>
        <time>2021-08-20T12:43:03Z</time>
      </trkpt>
      <trkpt lat="44.28994" lon="2.94411">
        <ele>986.6</ele>
        <time>2021-08-20T12:43:04Z</time>
      </trkpt>
      <trkpt lat="44.28994" lon="2.94415">
        <ele>986.6</ele>
        <time>2021-08-20T12:43:05Z</time>
      </trkpt>
      <trkpt lat="44.28994" lon="2.94418">
        <ele>986.6</ele>
        <time>2021-08-20T12:43:06Z</time>
      </trkpt>
      <trkpt lat="44.28995" lon="2.94424">
        <ele>987</ele>
        <time>2021-08-20T12:43:08Z</time>
      </trkpt>
      <trkpt lat="44.28994" lon="2.94431">
        <ele>987.2</ele>
        <time>2021-08-20T12:43:10Z</time>
      </trkpt>
      <trkpt lat="44.28994" lon="2.94441">
        <ele>987.8</ele>
        <time>2021-08-20T12:43:13Z</time>
      </trkpt>
      <trkpt lat="44.28994" lon="2.94444">
        <ele>987.8</ele>
        <time>2021-08-20T12:43:14Z</time>
      </trkpt>
      <trkpt lat="44.28994" lon="2.94446">
        <ele>987.8</ele>
        <time>2021-08-20T12:43:15Z</time>
      </trkpt>
      <trkpt lat="44.28994" lon="2.94449">
        <ele>988</ele>
        <time>2021-08-20T12:43:16Z</time>
      </trkpt>
      <trkpt lat="44.28994" lon="2.94455">
        <ele>988.4</ele>
        <time>2021-08-20T12:43:18Z</time>
      </trkpt>
      <trkpt lat="44.28993" lon="2.94458">
        <ele>988.4</ele>
        <time>2021-08-20T12:43:19Z</time>
      </trkpt>
      <trkpt lat="44.28993" lon="2.94462">
        <ele>988.6</ele>
        <time>2021-08-20T12:43:20Z</time>
      </trkpt>
      <trkpt lat="44.28994" lon="2.94465">
        <ele>988.6</ele>
        <time>2021-08-20T12:43:21Z</time>
      </trkpt>
      <trkpt lat="44.28994" lon="2.94469">
        <ele>989</ele>
        <time>2021-08-20T12:43:22Z</time>
      </trkpt>
      <trkpt lat="44.28994" lon="2.94472">
        <ele>989.2</ele>
        <time>2021-08-20T12:43:23Z</time>
      </trkpt>
      <trkpt lat="44.28993" lon="2.94476">
        <ele>989.4</ele>
        <time>2021-08-20T12:43:24Z</time>
      </trkpt>
      <trkpt lat="44.28993" lon="2.94479">
        <ele>989.6</ele>
        <time>2021-08-20T12:43:25Z</time>
      </trkpt>
      <trkpt lat="44.28992" lon="2.94482">
        <ele>989.8</ele>
        <time>2021-08-20T12:43:26Z</time>
      </trkpt>
      <trkpt lat="44.28992" lon="2.94485">
        <ele>990</ele>
        <time>2021-08-20T12:43:27Z</time>
      </trkpt>
      <trkpt lat="44.28992" lon="2.94488">
        <ele>990</ele>
        <time>2021-08-20T12:43:28Z</time>
      </trkpt>
      <trkpt lat="44.28992" lon="2.94492">
        <ele>990.2</ele>
        <time>2021-08-20T12:43:29Z</time>
      </trkpt>
      <trkpt lat="44.28992" lon="2.94495">
        <ele>990.4</ele>
        <time>2021-08-20T12:43:30Z</time>
      </trkpt>
      <trkpt lat="44.28991" lon="2.94498">
        <ele>990.8</ele>
        <time>2021-08-20T12:43:31Z</time>
      </trkpt>
      <trkpt lat="44.2899" lon="2.94501">
        <ele>991</ele>
        <time>2021-08-20T12:43:32Z</time>
      </trkpt>
      <trkpt lat="44.28989" lon="2.94504">
        <ele>991</ele>
        <time>2021-08-20T12:43:33Z</time>
      </trkpt>
      <trkpt lat="44.28989" lon="2.94507">
        <ele>991.2</ele>
        <time>2021-08-20T12:43:34Z</time>
      </trkpt>
      <trkpt lat="44.28988" lon="2.94511">
        <ele>991.4</ele>
        <time>2021-08-20T12:43:35Z</time>
      </trkpt>
      <trkpt lat="44.28987" lon="2.94514">
        <ele>991.8</ele>
        <time>2021-08-20T12:43:36Z</time>
      </trkpt>
      <trkpt lat="44.28986" lon="2.94517">
        <ele>992</ele>
        <time>2021-08-20T12:43:37Z</time>
      </trkpt>
      <trkpt lat="44.28985" lon="2.9452">
        <ele>992.2</ele>
        <time>2021-08-20T12:43:38Z</time>
      </trkpt>
      <trkpt lat="44.28983" lon="2.94523">
        <ele>992.4</ele>
        <time>2021-08-20T12:43:39Z</time>
      </trkpt>
      <trkpt lat="44.28982" lon="2.94526">
        <ele>992.6</ele>
        <time>2021-08-20T12:43:40Z</time>
      </trkpt>
      <trkpt lat="44.28981" lon="2.94528">
        <ele>992.8</ele>
        <time>2021-08-20T12:43:41Z</time>
      </trkpt>
      <trkpt lat="44.2898" lon="2.94531">
        <ele>992.8</ele>
        <time>2021-08-20T12:43:42Z</time>
      </trkpt>
      <trkpt lat="44.28978" lon="2.94533">
        <ele>993</ele>
        <time>2021-08-20T12:43:43Z</time>
      </trkpt>
      <trkpt lat="44.28976" lon="2.94535">
        <ele>993.2</ele>
        <time>2021-08-20T12:43:44Z</time>
      </trkpt>
      <trkpt lat="44.28975" lon="2.94537">
        <ele>993.4</ele>
        <time>2021-08-20T12:43:45Z</time>
      </trkpt>
      <trkpt lat="44.28973" lon="2.94539">
        <ele>993.4</ele>
        <time>2021-08-20T12:43:46Z</time>
      </trkpt>
      <trkpt lat="44.28972" lon="2.94541">
        <ele>993.4</ele>
        <time>2021-08-20T12:43:47Z</time>
      </trkpt>
      <trkpt lat="44.2897" lon="2.94543">
        <ele>993.6</ele>
        <time>2021-08-20T12:43:48Z</time>
      </trkpt>
      <trkpt lat="44.28968" lon="2.94545">
        <ele>993.6</ele>
        <time>2021-08-20T12:43:49Z</time>
      </trkpt>
      <trkpt lat="44.28965" lon="2.94546">
        <ele>993.8</ele>
        <time>2021-08-20T12:43:50Z</time>
      </trkpt>
      <trkpt lat="44.28963" lon="2.94548">
        <ele>993.8</ele>
        <time>2021-08-20T12:43:51Z</time>
      </trkpt>
      <trkpt lat="44.28961" lon="2.9455">
        <ele>994.2</ele>
        <time>2021-08-20T12:43:52Z</time>
      </trkpt>
      <trkpt lat="44.28958" lon="2.94551">
        <ele>994.2</ele>
        <time>2021-08-20T12:43:53Z</time>
      </trkpt>
      <trkpt lat="44.28955" lon="2.94553">
        <ele>994.4</ele>
        <time>2021-08-20T12:43:54Z</time>
      </trkpt>
      <trkpt lat="44.28953" lon="2.94554">
        <ele>994.4</ele>
        <time>2021-08-20T12:43:55Z</time>
      </trkpt>
      <trkpt lat="44.2895" lon="2.94556">
        <ele>994.6</ele>
        <time>2021-08-20T12:43:56Z</time>
      </trkpt>
      <trkpt lat="44.28948" lon="2.94558">
        <ele>994.6</ele>
        <time>2021-08-20T12:43:57Z</time>
      </trkpt>
      <trkpt lat="44.28945" lon="2.9456">
        <ele>994.6</ele>
        <time>2021-08-20T12:43:58Z</time>
      </trkpt>
      <trkpt lat="44.28943" lon="2.94562">
        <ele>994.6</ele>
        <time>2021-08-20T12:43:59Z</time>
      </trkpt>
      <trkpt lat="44.2894" lon="2.94564">
        <ele>994.8</ele>
        <time>2021-08-20T12:44:00Z</time>
      </trkpt>
      <trkpt lat="44.28938" lon="2.94566">
        <ele>994.8</ele>
        <time>2021-08-20T12:44:01Z</time>
      </trkpt>
      <trkpt lat="44.28936" lon="2.94568">
        <ele>994.8</ele>
        <time>2021-08-20T12:44:02Z</time>
      </trkpt>
      <trkpt lat="44.28934" lon="2.9457">
        <ele>995</ele>
        <time>2021-08-20T12:44:03Z</time>
      </trkpt>
      <trkpt lat="44.28931" lon="2.94573">
        <ele>995</ele>
        <time>2021-08-20T12:44:04Z</time>
      </trkpt>
      <trkpt lat="44.2893" lon="2.94575">
        <ele>995</ele>
        <time>2021-08-20T12:44:05Z</time>
      </trkpt>
      <trkpt lat="44.28928" lon="2.94578">
        <ele>995.2</ele>
        <time>2021-08-20T12:44:06Z</time>
      </trkpt>
      <trkpt lat="44.28926" lon="2.94581">
        <ele>995.2</ele>
        <time>2021-08-20T12:44:07Z</time>
      </trkpt>
      <trkpt lat="44.28925" lon="2.94583">
        <ele>995.2</ele>
        <time>2021-08-20T12:44:08Z</time>
      </trkpt>
      <trkpt lat="44.28923" lon="2.94586">
        <ele>995.4</ele>
        <time>2021-08-20T12:44:09Z</time>
      </trkpt>
      <trkpt lat="44.28922" lon="2.94588">
        <ele>995.4</ele>
        <time>2021-08-20T12:44:10Z</time>
      </trkpt>
      <trkpt lat="44.28921" lon="2.94591">
        <ele>995.6</ele>
        <time>2021-08-20T12:44:11Z</time>
      </trkpt>
      <trkpt lat="44.28919" lon="2.94594">
        <ele>995.6</ele>
        <time>2021-08-20T12:44:12Z</time>
      </trkpt>
      <trkpt lat="44.28918" lon="2.94596">
        <ele>995.8</ele>
        <time>2021-08-20T12:44:13Z</time>
      </trkpt>
      <trkpt lat="44.28916" lon="2.94598">
        <ele>995.8</ele>
        <time>2021-08-20T12:44:14Z</time>
      </trkpt>
      <trkpt lat="44.28911" lon="2.9461">
        <ele>996.4</ele>
        <time>2021-08-20T12:44:18Z</time>
      </trkpt>
      <trkpt lat="44.28906" lon="2.9462">
        <ele>996.6</ele>
        <time>2021-08-20T12:44:21Z</time>
      </trkpt>
      <trkpt lat="44.28903" lon="2.94626">
        <ele>996.8</ele>
        <time>2021-08-20T12:44:23Z</time>
      </trkpt>
      <trkpt lat="44.28897" lon="2.94641">
        <ele>997</ele>
        <time>2021-08-20T12:44:27Z</time>
      </trkpt>
      <trkpt lat="44.28892" lon="2.94655">
        <ele>997.4</ele>
        <time>2021-08-20T12:44:31Z</time>
      </trkpt>
      <trkpt lat="44.28888" lon="2.94662">
        <ele>997.6</ele>
        <time>2021-08-20T12:44:33Z</time>
      </trkpt>
      <trkpt lat="44.28876" lon="2.94683">
        <ele>998</ele>
        <time>2021-08-20T12:44:39Z</time>
      </trkpt>
      <trkpt lat="44.28874" lon="2.94687">
        <ele>998</ele>
        <time>2021-08-20T12:44:40Z</time>
      </trkpt>
      <trkpt lat="44.28872" lon="2.9469">
        <ele>998.2</ele>
        <time>2021-08-20T12:44:41Z</time>
      </trkpt>
      <trkpt lat="44.2887" lon="2.94694">
        <ele>998.2</ele>
        <time>2021-08-20T12:44:42Z</time>
      </trkpt>
      <trkpt lat="44.28867" lon="2.94697">
        <ele>998.2</ele>
        <time>2021-08-20T12:44:43Z</time>
      </trkpt>
      <trkpt lat="44.2885" lon="2.94727">
        <ele>998.8</ele>
        <time>2021-08-20T12:44:51Z</time>
      </trkpt>
      <trkpt lat="44.28846" lon="2.94734">
        <ele>999</ele>
        <time>2021-08-20T12:44:53Z</time>
      </trkpt>
      <trkpt lat="44.28841" lon="2.94762">
        <ele>999.2</ele>
        <time>2021-08-20T12:44:59Z</time>
      </trkpt>
      <trkpt lat="44.2884" lon="2.94766">
        <ele>999.2</ele>
        <time>2021-08-20T12:45:00Z</time>
      </trkpt>
      <trkpt lat="44.2884" lon="2.94776">
        <ele>999.2</ele>
        <time>2021-08-20T12:45:02Z</time>
      </trkpt>
      <trkpt lat="44.28841" lon="2.94808">
        <ele>1000</ele>
        <time>2021-08-20T12:45:09Z</time>
      </trkpt>
      <trkpt lat="44.28842" lon="2.94817">
        <ele>1000</ele>
        <time>2021-08-20T12:45:11Z</time>
      </trkpt>
      <trkpt lat="44.28843" lon="2.94826">
        <ele>1000.2</ele>
        <time>2021-08-20T12:45:13Z</time>
      </trkpt>
      <trkpt lat="44.28844" lon="2.94831">
        <ele>1000</ele>
        <time>2021-08-20T12:45:14Z</time>
      </trkpt>
      <trkpt lat="44.28845" lon="2.94835">
        <ele>1000.2</ele>
        <time>2021-08-20T12:45:15Z</time>
      </trkpt>
      <trkpt lat="44.28846" lon="2.94845">
        <ele>1000.4</ele>
        <time>2021-08-20T12:45:17Z</time>
      </trkpt>
      <trkpt lat="44.28847" lon="2.94849">
        <ele>1000.6</ele>
        <time>2021-08-20T12:45:18Z</time>
      </trkpt>
      <trkpt lat="44.28848" lon="2.94854">
        <ele>1000.6</ele>
        <time>2021-08-20T12:45:19Z</time>
      </trkpt>
      <trkpt lat="44.28852" lon="2.94874">
        <ele>1000.8</ele>
        <time>2021-08-20T12:45:23Z</time>
      </trkpt>
      <trkpt lat="44.28857" lon="2.94899">
        <ele>1001.2</ele>
        <time>2021-08-20T12:45:28Z</time>
      </trkpt>
      <trkpt lat="44.28857" lon="2.94913">
        <ele>1001.6</ele>
        <time>2021-08-20T12:45:31Z</time>
      </trkpt>
      <trkpt lat="44.28858" lon="2.94924">
        <ele>1002</ele>
        <time>2021-08-20T12:45:33Z</time>
      </trkpt>
      <trkpt lat="44.28858" lon="2.94934">
        <ele>1002.2</ele>
        <time>2021-08-20T12:45:35Z</time>
      </trkpt>
      <trkpt lat="44.28859" lon="2.94939">
        <ele>1002.2</ele>
        <time>2021-08-20T12:45:36Z</time>
      </trkpt>
      <trkpt lat="44.2886" lon="2.94943">
        <ele>1002.4</ele>
        <time>2021-08-20T12:45:37Z</time>
      </trkpt>
      <trkpt lat="44.2886" lon="2.94947">
        <ele>1002.6</ele>
        <time>2021-08-20T12:45:38Z</time>
      </trkpt>
      <trkpt lat="44.2886" lon="2.94952">
        <ele>1002.8</ele>
        <time>2021-08-20T12:45:39Z</time>
      </trkpt>
      <trkpt lat="44.2886" lon="2.94956">
        <ele>1003</ele>
        <time>2021-08-20T12:45:40Z</time>
      </trkpt>
      <trkpt lat="44.2886" lon="2.9496">
        <ele>1003</ele>
        <time>2021-08-20T12:45:41Z</time>
      </trkpt>
      <trkpt lat="44.2886" lon="2.94964">
        <ele>1003.2</ele>
        <time>2021-08-20T12:45:42Z</time>
      </trkpt>
      <trkpt lat="44.2886" lon="2.94967">
        <ele>1003.2</ele>
        <time>2021-08-20T12:45:43Z</time>
      </trkpt>
      <trkpt lat="44.28859" lon="2.94971">
        <ele>1003.4</ele>
        <time>2021-08-20T12:45:44Z</time>
      </trkpt>
      <trkpt lat="44.28859" lon="2.94975">
        <ele>1003.4</ele>
        <time>2021-08-20T12:45:45Z</time>
      </trkpt>
      <trkpt lat="44.28859" lon="2.94979">
        <ele>1003.6</ele>
        <time>2021-08-20T12:45:46Z</time>
      </trkpt>
      <trkpt lat="44.28858" lon="2.94982">
        <ele>1003.8</ele>
        <time>2021-08-20T12:45:47Z</time>
      </trkpt>
      <trkpt lat="44.28857" lon="2.94986">
        <ele>1004.2</ele>
        <time>2021-08-20T12:45:48Z</time>
      </trkpt>
      <trkpt lat="44.28857" lon="2.9499">
        <ele>1004.2</ele>
        <time>2021-08-20T12:45:49Z</time>
      </trkpt>
      <trkpt lat="44.28857" lon="2.94994">
        <ele>1004.4</ele>
        <time>2021-08-20T12:45:50Z</time>
      </trkpt>
      <trkpt lat="44.28856" lon="2.94998">
        <ele>1004.6</ele>
        <time>2021-08-20T12:45:51Z</time>
      </trkpt>
      <trkpt lat="44.28856" lon="2.95001">
        <ele>1005</ele>
        <time>2021-08-20T12:45:52Z</time>
      </trkpt>
      <trkpt lat="44.28856" lon="2.95005">
        <ele>1005.4</ele>
        <time>2021-08-20T12:45:53Z</time>
      </trkpt>
      <trkpt lat="44.28856" lon="2.9501">
        <ele>1005.4</ele>
        <time>2021-08-20T12:45:54Z</time>
      </trkpt>
      <trkpt lat="44.28855" lon="2.95015">
        <ele>1005.6</ele>
        <time>2021-08-20T12:45:55Z</time>
      </trkpt>
      <trkpt lat="44.28854" lon="2.9502">
        <ele>1005.8</ele>
        <time>2021-08-20T12:45:56Z</time>
      </trkpt>
      <trkpt lat="44.28854" lon="2.95025">
        <ele>1006.2</ele>
        <time>2021-08-20T12:45:57Z</time>
      </trkpt>
      <trkpt lat="44.28853" lon="2.95031">
        <ele>1006.4</ele>
        <time>2021-08-20T12:45:58Z</time>
      </trkpt>
      <trkpt lat="44.28852" lon="2.95038">
        <ele>1006.6</ele>
        <time>2021-08-20T12:45:59Z</time>
      </trkpt>
      <trkpt lat="44.28849" lon="2.95044">
        <ele>1006.8</ele>
        <time>2021-08-20T12:46:00Z</time>
      </trkpt>
      <trkpt lat="44.28848" lon="2.95049">
        <ele>1006.8</ele>
        <time>2021-08-20T12:46:01Z</time>
      </trkpt>
      <trkpt lat="44.28846" lon="2.95056">
        <ele>1007</ele>
        <time>2021-08-20T12:46:02Z</time>
      </trkpt>
      <trkpt lat="44.28846" lon="2.95063">
        <ele>1007</ele>
        <time>2021-08-20T12:46:03Z</time>
      </trkpt>
      <trkpt lat="44.28844" lon="2.95069">
        <ele>1007</ele>
        <time>2021-08-20T12:46:04Z</time>
      </trkpt>
      <trkpt lat="44.28841" lon="2.95076">
        <ele>1007</ele>
        <time>2021-08-20T12:46:05Z</time>
      </trkpt>
      <trkpt lat="44.2884" lon="2.95087">
        <ele>1006.8</ele>
        <time>2021-08-20T12:46:06Z</time>
      </trkpt>
      <trkpt lat="44.28839" lon="2.95096">
        <ele>1006.6</ele>
        <time>2021-08-20T12:46:07Z</time>
      </trkpt>
      <trkpt lat="44.28835" lon="2.95102">
        <ele>1006.4</ele>
        <time>2021-08-20T12:46:08Z</time>
      </trkpt>
      <trkpt lat="44.28832" lon="2.9511">
        <ele>1006.2</ele>
        <time>2021-08-20T12:46:09Z</time>
      </trkpt>
      <trkpt lat="44.28829" lon="2.95117">
        <ele>1006.2</ele>
        <time>2021-08-20T12:46:10Z</time>
      </trkpt>
      <trkpt lat="44.28825" lon="2.95123">
        <ele>1006</ele>
        <time>2021-08-20T12:46:11Z</time>
      </trkpt>
      <trkpt lat="44.28823" lon="2.95128">
        <ele>1006</ele>
        <time>2021-08-20T12:46:12Z</time>
      </trkpt>
      <trkpt lat="44.2882" lon="2.95137">
        <ele>1005.6</ele>
        <time>2021-08-20T12:46:13Z</time>
      </trkpt>
      <trkpt lat="44.28817" lon="2.95143">
        <ele>1005.4</ele>
        <time>2021-08-20T12:46:14Z</time>
      </trkpt>
      <trkpt lat="44.28815" lon="2.95147">
        <ele>1005.2</ele>
        <time>2021-08-20T12:46:15Z</time>
      </trkpt>
      <trkpt lat="44.28814" lon="2.9515">
        <ele>1005</ele>
        <time>2021-08-20T12:46:16Z</time>
      </trkpt>
      <trkpt lat="44.28812" lon="2.95152">
        <ele>1005</ele>
        <time>2021-08-20T12:46:17Z</time>
      </trkpt>
      <trkpt lat="44.28811" lon="2.95153">
        <ele>1004.8</ele>
        <time>2021-08-20T12:46:18Z</time>
      </trkpt>
      <trkpt lat="44.28811" lon="2.95153">
        <ele>1004.6</ele>
        <time>2021-08-20T12:46:19Z</time>
      </trkpt>
      <trkpt lat="44.28811" lon="2.95153">
        <ele>1004.4</ele>
        <time>2021-08-20T12:46:20Z</time>
      </trkpt>
      <trkpt lat="44.2881" lon="2.95153">
        <ele>1004.2</ele>
        <time>2021-08-20T12:46:21Z</time>
      </trkpt>
      <trkpt lat="44.2881" lon="2.95154">
        <ele>1004.2</ele>
        <time>2021-08-20T12:46:22Z</time>
      </trkpt>
      <trkpt lat="44.2881" lon="2.95154">
        <ele>1004.2</ele>
        <time>2021-08-20T12:46:23Z</time>
      </trkpt>
      <trkpt lat="44.2881" lon="2.95154">
        <ele>1002.4</ele>
        <time>2021-08-20T12:47:39Z</time>
      </trkpt>
      <trkpt lat="44.28812" lon="2.95155">
        <ele>1002.4</ele>
        <time>2021-08-20T12:47:41Z</time>
      </trkpt>
      <trkpt lat="44.28814" lon="2.95156">
        <ele>1002.4</ele>
        <time>2021-08-20T12:47:42Z</time>
      </trkpt>
      <trkpt lat="44.28831" lon="2.9517">
        <ele>1002.2</ele>
        <time>2021-08-20T12:47:48Z</time>
      </trkpt>
      <trkpt lat="44.28841" lon="2.95181">
        <ele>1002</ele>
        <time>2021-08-20T12:47:51Z</time>
      </trkpt>
      <trkpt lat="44.2885" lon="2.95195">
        <ele>1001.6</ele>
        <time>2021-08-20T12:47:54Z</time>
      </trkpt>
      <trkpt lat="44.28855" lon="2.95207">
        <ele>1001.2</ele>
        <time>2021-08-20T12:47:56Z</time>
      </trkpt>
      <trkpt lat="44.2887" lon="2.95238">
        <ele>1000.6</ele>
        <time>2021-08-20T12:48:01Z</time>
      </trkpt>
      <trkpt lat="44.28881" lon="2.9526">
        <ele>1000.2</ele>
        <time>2021-08-20T12:48:04Z</time>
      </trkpt>
      <trkpt lat="44.28895" lon="2.9529">
        <ele>999.6</ele>
        <time>2021-08-20T12:48:08Z</time>
      </trkpt>
      <trkpt lat="44.28904" lon="2.95307">
        <ele>999</ele>
        <time>2021-08-20T12:48:10Z</time>
      </trkpt>
      <trkpt lat="44.28915" lon="2.95332">
        <ele>998.4</ele>
        <time>2021-08-20T12:48:13Z</time>
      </trkpt>
      <trkpt lat="44.28922" lon="2.9535">
        <ele>998</ele>
        <time>2021-08-20T12:48:15Z</time>
      </trkpt>
      <trkpt lat="44.28931" lon="2.9538">
        <ele>997.2</ele>
        <time>2021-08-20T12:48:18Z</time>
      </trkpt>
      <trkpt lat="44.28932" lon="2.95391">
        <ele>996.8</ele>
        <time>2021-08-20T12:48:19Z</time>
      </trkpt>
      <trkpt lat="44.28936" lon="2.9541">
        <ele>996.4</ele>
        <time>2021-08-20T12:48:21Z</time>
      </trkpt>
      <trkpt lat="44.28938" lon="2.95419">
        <ele>996.4</ele>
        <time>2021-08-20T12:48:22Z</time>
      </trkpt>
      <trkpt lat="44.28942" lon="2.95427">
        <ele>995.8</ele>
        <time>2021-08-20T12:48:23Z</time>
      </trkpt>
      <trkpt lat="44.28947" lon="2.95435">
        <ele>995.6</ele>
        <time>2021-08-20T12:48:24Z</time>
      </trkpt>
      <trkpt lat="44.28953" lon="2.9544">
        <ele>995</ele>
        <time>2021-08-20T12:48:25Z</time>
      </trkpt>
      <trkpt lat="44.2896" lon="2.95443">
        <ele>994.8</ele>
        <time>2021-08-20T12:48:26Z</time>
      </trkpt>
      <trkpt lat="44.28968" lon="2.95444">
        <ele>994.6</ele>
        <time>2021-08-20T12:48:27Z</time>
      </trkpt>
      <trkpt lat="44.28975" lon="2.95443">
        <ele>994.2</ele>
        <time>2021-08-20T12:48:28Z</time>
      </trkpt>
      <trkpt lat="44.28983" lon="2.95439">
        <ele>994.2</ele>
        <time>2021-08-20T12:48:29Z</time>
      </trkpt>
      <trkpt lat="44.28991" lon="2.95434">
        <ele>994</ele>
        <time>2021-08-20T12:48:30Z</time>
      </trkpt>
      <trkpt lat="44.28998" lon="2.95429">
        <ele>993.8</ele>
        <time>2021-08-20T12:48:31Z</time>
      </trkpt>
      <trkpt lat="44.29006" lon="2.95423">
        <ele>993.6</ele>
        <time>2021-08-20T12:48:32Z</time>
      </trkpt>
      <trkpt lat="44.29014" lon="2.95416">
        <ele>993.2</ele>
        <time>2021-08-20T12:48:33Z</time>
      </trkpt>
      <trkpt lat="44.2903" lon="2.95401">
        <ele>992</ele>
        <time>2021-08-20T12:48:35Z</time>
      </trkpt>
      <trkpt lat="44.29054" lon="2.95379">
        <ele>990.6</ele>
        <time>2021-08-20T12:48:38Z</time>
      </trkpt>
      <trkpt lat="44.29071" lon="2.95365">
        <ele>989.8</ele>
        <time>2021-08-20T12:48:40Z</time>
      </trkpt>
      <trkpt lat="44.2908" lon="2.95359">
        <ele>989.2</ele>
        <time>2021-08-20T12:48:41Z</time>
      </trkpt>
      <trkpt lat="44.29099" lon="2.9535">
        <ele>988.4</ele>
        <time>2021-08-20T12:48:43Z</time>
      </trkpt>
      <trkpt lat="44.29108" lon="2.95347">
        <ele>988</ele>
        <time>2021-08-20T12:48:44Z</time>
      </trkpt>
      <trkpt lat="44.29128" lon="2.95345">
        <ele>987</ele>
        <time>2021-08-20T12:48:46Z</time>
      </trkpt>
      <trkpt lat="44.29138" lon="2.95346">
        <ele>986.6</ele>
        <time>2021-08-20T12:48:47Z</time>
      </trkpt>
      <trkpt lat="44.29147" lon="2.95347">
        <ele>986.4</ele>
        <time>2021-08-20T12:48:48Z</time>
      </trkpt>
      <trkpt lat="44.29166" lon="2.95352">
        <ele>985.4</ele>
        <time>2021-08-20T12:48:50Z</time>
      </trkpt>
      <trkpt lat="44.29175" lon="2.95357">
        <ele>984.8</ele>
        <time>2021-08-20T12:48:51Z</time>
      </trkpt>
      <trkpt lat="44.29183" lon="2.95363">
        <ele>984.6</ele>
        <time>2021-08-20T12:48:52Z</time>
      </trkpt>
      <trkpt lat="44.29191" lon="2.9537">
        <ele>984</ele>
        <time>2021-08-20T12:48:53Z</time>
      </trkpt>
      <trkpt lat="44.29199" lon="2.95378">
        <ele>983.6</ele>
        <time>2021-08-20T12:48:54Z</time>
      </trkpt>
      <trkpt lat="44.29206" lon="2.95387">
        <ele>983</ele>
        <time>2021-08-20T12:48:55Z</time>
      </trkpt>
      <trkpt lat="44.29211" lon="2.95398">
        <ele>982.8</ele>
        <time>2021-08-20T12:48:56Z</time>
      </trkpt>
      <trkpt lat="44.29216" lon="2.95409">
        <ele>982.4</ele>
        <time>2021-08-20T12:48:57Z</time>
      </trkpt>
      <trkpt lat="44.2922" lon="2.95421">
        <ele>982.2</ele>
        <time>2021-08-20T12:48:58Z</time>
      </trkpt>
      <trkpt lat="44.29222" lon="2.95433">
        <ele>981.6</ele>
        <time>2021-08-20T12:48:59Z</time>
      </trkpt>
      <trkpt lat="44.29222" lon="2.95444">
        <ele>981.2</ele>
        <time>2021-08-20T12:49:00Z</time>
      </trkpt>
      <trkpt lat="44.29222" lon="2.95455">
        <ele>980.8</ele>
        <time>2021-08-20T12:49:01Z</time>
      </trkpt>
      <trkpt lat="44.2922" lon="2.95467">
        <ele>980.2</ele>
        <time>2021-08-20T12:49:02Z</time>
      </trkpt>
      <trkpt lat="44.29218" lon="2.9548">
        <ele>979.8</ele>
        <time>2021-08-20T12:49:03Z</time>
      </trkpt>
      <trkpt lat="44.29216" lon="2.95492">
        <ele>979</ele>
        <time>2021-08-20T12:49:04Z</time>
      </trkpt>
      <trkpt lat="44.29215" lon="2.95504">
        <ele>978.8</ele>
        <time>2021-08-20T12:49:05Z</time>
      </trkpt>
      <trkpt lat="44.29215" lon="2.95515">
        <ele>978</ele>
        <time>2021-08-20T12:49:06Z</time>
      </trkpt>
      <trkpt lat="44.29218" lon="2.95539">
        <ele>977.2</ele>
        <time>2021-08-20T12:49:08Z</time>
      </trkpt>
      <trkpt lat="44.2922" lon="2.9555">
        <ele>977</ele>
        <time>2021-08-20T12:49:09Z</time>
      </trkpt>
      <trkpt lat="44.29225" lon="2.9556">
        <ele>976.8</ele>
        <time>2021-08-20T12:49:10Z</time>
      </trkpt>
      <trkpt lat="44.29232" lon="2.95569">
        <ele>976</ele>
        <time>2021-08-20T12:49:11Z</time>
      </trkpt>
      <trkpt lat="44.29239" lon="2.95578">
        <ele>975.8</ele>
        <time>2021-08-20T12:49:12Z</time>
      </trkpt>
      <trkpt lat="44.29246" lon="2.95587">
        <ele>975.2</ele>
        <time>2021-08-20T12:49:13Z</time>
      </trkpt>
      <trkpt lat="44.29254" lon="2.95594">
        <ele>974.8</ele>
        <time>2021-08-20T12:49:14Z</time>
      </trkpt>
      <trkpt lat="44.29263" lon="2.95598">
        <ele>974.2</ele>
        <time>2021-08-20T12:49:15Z</time>
      </trkpt>
      <trkpt lat="44.29273" lon="2.95601">
        <ele>973.8</ele>
        <time>2021-08-20T12:49:16Z</time>
      </trkpt>
      <trkpt lat="44.29281" lon="2.95601">
        <ele>973.6</ele>
        <time>2021-08-20T12:49:17Z</time>
      </trkpt>
      <trkpt lat="44.2929" lon="2.95599">
        <ele>973.2</ele>
        <time>2021-08-20T12:49:18Z</time>
      </trkpt>
      <trkpt lat="44.29298" lon="2.95595">
        <ele>973.2</ele>
        <time>2021-08-20T12:49:19Z</time>
      </trkpt>
      <trkpt lat="44.29306" lon="2.95592">
        <ele>973</ele>
        <time>2021-08-20T12:49:20Z</time>
      </trkpt>
      <trkpt lat="44.29313" lon="2.95588">
        <ele>972.8</ele>
        <time>2021-08-20T12:49:21Z</time>
      </trkpt>
      <trkpt lat="44.2932" lon="2.95584">
        <ele>972.6</ele>
        <time>2021-08-20T12:49:22Z</time>
      </trkpt>
      <trkpt lat="44.29326" lon="2.9558">
        <ele>972.4</ele>
        <time>2021-08-20T12:49:23Z</time>
      </trkpt>
      <trkpt lat="44.29332" lon="2.95576">
        <ele>972.4</ele>
        <time>2021-08-20T12:49:24Z</time>
      </trkpt>
      <trkpt lat="44.29337" lon="2.95571">
        <ele>972.4</ele>
        <time>2021-08-20T12:49:25Z</time>
      </trkpt>
      <trkpt lat="44.29342" lon="2.95567">
        <ele>972.4</ele>
        <time>2021-08-20T12:49:26Z</time>
      </trkpt>
      <trkpt lat="44.29376" lon="2.95545">
        <ele>972.6</ele>
        <time>2021-08-20T12:49:32Z</time>
      </trkpt>
      <trkpt lat="44.29382" lon="2.95542">
        <ele>972.6</ele>
        <time>2021-08-20T12:49:33Z</time>
      </trkpt>
      <trkpt lat="44.29389" lon="2.95537">
        <ele>972.8</ele>
        <time>2021-08-20T12:49:34Z</time>
      </trkpt>
      <trkpt lat="44.29411" lon="2.95523">
        <ele>973.2</ele>
        <time>2021-08-20T12:49:38Z</time>
      </trkpt>
      <trkpt lat="44.29422" lon="2.95516">
        <ele>973.2</ele>
        <time>2021-08-20T12:49:40Z</time>
      </trkpt>
      <trkpt lat="44.29426" lon="2.95512">
        <ele>973.4</ele>
        <time>2021-08-20T12:49:41Z</time>
      </trkpt>
      <trkpt lat="44.29442" lon="2.95493">
        <ele>973.6</ele>
        <time>2021-08-20T12:49:44Z</time>
      </trkpt>
      <trkpt lat="44.29446" lon="2.95487">
        <ele>973.6</ele>
        <time>2021-08-20T12:49:45Z</time>
      </trkpt>
      <trkpt lat="44.29449" lon="2.95479">
        <ele>973.8</ele>
        <time>2021-08-20T12:49:46Z</time>
      </trkpt>
      <trkpt lat="44.29457" lon="2.95452">
        <ele>974</ele>
        <time>2021-08-20T12:49:49Z</time>
      </trkpt>
      <trkpt lat="44.2946" lon="2.95443">
        <ele>974</ele>
        <time>2021-08-20T12:49:50Z</time>
      </trkpt>
      <trkpt lat="44.29463" lon="2.95434">
        <ele>974</ele>
        <time>2021-08-20T12:49:51Z</time>
      </trkpt>
      <trkpt lat="44.29466" lon="2.95426">
        <ele>974.2</ele>
        <time>2021-08-20T12:49:52Z</time>
      </trkpt>
      <trkpt lat="44.29469" lon="2.95418">
        <ele>974.2</ele>
        <time>2021-08-20T12:49:53Z</time>
      </trkpt>
      <trkpt lat="44.29472" lon="2.95411">
        <ele>974.2</ele>
        <time>2021-08-20T12:49:54Z</time>
      </trkpt>
      <trkpt lat="44.29474" lon="2.95404">
        <ele>974.4</ele>
        <time>2021-08-20T12:49:55Z</time>
      </trkpt>
      <trkpt lat="44.29477" lon="2.95397">
        <ele>974.6</ele>
        <time>2021-08-20T12:49:56Z</time>
      </trkpt>
      <trkpt lat="44.2948" lon="2.95391">
        <ele>974.6</ele>
        <time>2021-08-20T12:49:57Z</time>
      </trkpt>
      <trkpt lat="44.29483" lon="2.95385">
        <ele>974.8</ele>
        <time>2021-08-20T12:49:58Z</time>
      </trkpt>
      <trkpt lat="44.29486" lon="2.9538">
        <ele>975</ele>
        <time>2021-08-20T12:49:59Z</time>
      </trkpt>
      <trkpt lat="44.29489" lon="2.95374">
        <ele>975.2</ele>
        <time>2021-08-20T12:50:00Z</time>
      </trkpt>
      <trkpt lat="44.29492" lon="2.95369">
        <ele>975.2</ele>
        <time>2021-08-20T12:50:01Z</time>
      </trkpt>
      <trkpt lat="44.29495" lon="2.95364">
        <ele>975.4</ele>
        <time>2021-08-20T12:50:02Z</time>
      </trkpt>
      <trkpt lat="44.29498" lon="2.95358">
        <ele>975.6</ele>
        <time>2021-08-20T12:50:03Z</time>
      </trkpt>
      <trkpt lat="44.29506" lon="2.95342">
        <ele>975.8</ele>
        <time>2021-08-20T12:50:06Z</time>
      </trkpt>
      <trkpt lat="44.29511" lon="2.95332">
        <ele>976</ele>
        <time>2021-08-20T12:50:08Z</time>
      </trkpt>
      <trkpt lat="44.29522" lon="2.95316">
        <ele>976</ele>
        <time>2021-08-20T12:50:11Z</time>
      </trkpt>
      <trkpt lat="44.29526" lon="2.95311">
        <ele>976</ele>
        <time>2021-08-20T12:50:12Z</time>
      </trkpt>
      <trkpt lat="44.29529" lon="2.95306">
        <ele>976.2</ele>
        <time>2021-08-20T12:50:13Z</time>
      </trkpt>
      <trkpt lat="44.29532" lon="2.95301">
        <ele>976.2</ele>
        <time>2021-08-20T12:50:14Z</time>
      </trkpt>
      <trkpt lat="44.29535" lon="2.95296">
        <ele>976.2</ele>
        <time>2021-08-20T12:50:15Z</time>
      </trkpt>
      <trkpt lat="44.29538" lon="2.95292">
        <ele>976.2</ele>
        <time>2021-08-20T12:50:16Z</time>
      </trkpt>
      <trkpt lat="44.29541" lon="2.95288">
        <ele>976.4</ele>
        <time>2021-08-20T12:50:17Z</time>
      </trkpt>
      <trkpt lat="44.29544" lon="2.95285">
        <ele>976.4</ele>
        <time>2021-08-20T12:50:18Z</time>
      </trkpt>
      <trkpt lat="44.29548" lon="2.95283">
        <ele>976.4</ele>
        <time>2021-08-20T12:50:19Z</time>
      </trkpt>
      <trkpt lat="44.29551" lon="2.95281">
        <ele>976.6</ele>
        <time>2021-08-20T12:50:20Z</time>
      </trkpt>
      <trkpt lat="44.29555" lon="2.95278">
        <ele>976.6</ele>
        <time>2021-08-20T12:50:21Z</time>
      </trkpt>
      <trkpt lat="44.29562" lon="2.95274">
        <ele>976.8</ele>
        <time>2021-08-20T12:50:23Z</time>
      </trkpt>
      <trkpt lat="44.29589" lon="2.95266">
        <ele>977.4</ele>
        <time>2021-08-20T12:50:29Z</time>
      </trkpt>
      <trkpt lat="44.29594" lon="2.95266">
        <ele>977.4</ele>
        <time>2021-08-20T12:50:30Z</time>
      </trkpt>
      <trkpt lat="44.29599" lon="2.95266">
        <ele>977.4</ele>
        <time>2021-08-20T12:50:31Z</time>
      </trkpt>
      <trkpt lat="44.29605" lon="2.95266">
        <ele>977.4</ele>
        <time>2021-08-20T12:50:32Z</time>
      </trkpt>
      <trkpt lat="44.29609" lon="2.95266">
        <ele>977.4</ele>
        <time>2021-08-20T12:50:33Z</time>
      </trkpt>
      <trkpt lat="44.29614" lon="2.95267">
        <ele>977.4</ele>
        <time>2021-08-20T12:50:34Z</time>
      </trkpt>
      <trkpt lat="44.29629" lon="2.9527">
        <ele>977.6</ele>
        <time>2021-08-20T12:50:37Z</time>
      </trkpt>
      <trkpt lat="44.29646" lon="2.95277">
        <ele>977.6</ele>
        <time>2021-08-20T12:50:41Z</time>
      </trkpt>
      <trkpt lat="44.29661" lon="2.95287">
        <ele>977.8</ele>
        <time>2021-08-20T12:50:44Z</time>
      </trkpt>
      <trkpt lat="44.29671" lon="2.95295">
        <ele>978</ele>
        <time>2021-08-20T12:50:46Z</time>
      </trkpt>
      <trkpt lat="44.29679" lon="2.95305">
        <ele>978</ele>
        <time>2021-08-20T12:50:48Z</time>
      </trkpt>
      <trkpt lat="44.29711" lon="2.95343">
        <ele>977.8</ele>
        <time>2021-08-20T12:50:55Z</time>
      </trkpt>
      <trkpt lat="44.29716" lon="2.95349">
        <ele>977.6</ele>
        <time>2021-08-20T12:50:56Z</time>
      </trkpt>
      <trkpt lat="44.29737" lon="2.95365">
        <ele>977.2</ele>
        <time>2021-08-20T12:51:00Z</time>
      </trkpt>
      <trkpt lat="44.29743" lon="2.95367">
        <ele>977</ele>
        <time>2021-08-20T12:51:01Z</time>
      </trkpt>
      <trkpt lat="44.29755" lon="2.9537">
        <ele>976.2</ele>
        <time>2021-08-20T12:51:03Z</time>
      </trkpt>
      <trkpt lat="44.29792" lon="2.95379">
        <ele>975</ele>
        <time>2021-08-20T12:51:09Z</time>
      </trkpt>
      <trkpt lat="44.29799" lon="2.95381">
        <ele>974.8</ele>
        <time>2021-08-20T12:51:10Z</time>
      </trkpt>
      <trkpt lat="44.2984" lon="2.95397">
        <ele>974</ele>
        <time>2021-08-20T12:51:16Z</time>
      </trkpt>
      <trkpt lat="44.29847" lon="2.95402">
        <ele>974</ele>
        <time>2021-08-20T12:51:17Z</time>
      </trkpt>
      <trkpt lat="44.29866" lon="2.95422">
        <ele>973.6</ele>
        <time>2021-08-20T12:51:20Z</time>
      </trkpt>
      <trkpt lat="44.29871" lon="2.9543">
        <ele>973.4</ele>
        <time>2021-08-20T12:51:21Z</time>
      </trkpt>
      <trkpt lat="44.29877" lon="2.95437">
        <ele>973</ele>
        <time>2021-08-20T12:51:22Z</time>
      </trkpt>
      <trkpt lat="44.29893" lon="2.9546">
        <ele>971.8</ele>
        <time>2021-08-20T12:51:25Z</time>
      </trkpt>
      <trkpt lat="44.2991" lon="2.95484">
        <ele>971.4</ele>
        <time>2021-08-20T12:51:28Z</time>
      </trkpt>
      <trkpt lat="44.29922" lon="2.95498">
        <ele>970.8</ele>
        <time>2021-08-20T12:51:30Z</time>
      </trkpt>
      <trkpt lat="44.29928" lon="2.95505">
        <ele>970.6</ele>
        <time>2021-08-20T12:51:31Z</time>
      </trkpt>
      <trkpt lat="44.29934" lon="2.95511">
        <ele>970.2</ele>
        <time>2021-08-20T12:51:32Z</time>
      </trkpt>
      <trkpt lat="44.2994" lon="2.95516">
        <ele>970.2</ele>
        <time>2021-08-20T12:51:33Z</time>
      </trkpt>
      <trkpt lat="44.29947" lon="2.9552">
        <ele>970</ele>
        <time>2021-08-20T12:51:34Z</time>
      </trkpt>
      <trkpt lat="44.29953" lon="2.95525">
        <ele>969.8</ele>
        <time>2021-08-20T12:51:35Z</time>
      </trkpt>
      <trkpt lat="44.29965" lon="2.95533">
        <ele>969</ele>
        <time>2021-08-20T12:51:37Z</time>
      </trkpt>
      <trkpt lat="44.2997" lon="2.95537">
        <ele>968.8</ele>
        <time>2021-08-20T12:51:38Z</time>
      </trkpt>
      <trkpt lat="44.29975" lon="2.95539">
        <ele>968.6</ele>
        <time>2021-08-20T12:51:39Z</time>
      </trkpt>
      <trkpt lat="44.2998" lon="2.95542">
        <ele>968.6</ele>
        <time>2021-08-20T12:51:40Z</time>
      </trkpt>
      <trkpt lat="44.29983" lon="2.95544">
        <ele>967.8</ele>
        <time>2021-08-20T12:51:41Z</time>
      </trkpt>
      <trkpt lat="44.29985" lon="2.95545">
        <ele>967.6</ele>
        <time>2021-08-20T12:51:42Z</time>
      </trkpt>
      <trkpt lat="44.29988" lon="2.95547">
        <ele>967.4</ele>
        <time>2021-08-20T12:51:43Z</time>
      </trkpt>
      <trkpt lat="44.2999" lon="2.95548">
        <ele>966.8</ele>
        <time>2021-08-20T12:51:44Z</time>
      </trkpt>
      <trkpt lat="44.29994" lon="2.95551">
        <ele>966.6</ele>
        <time>2021-08-20T12:51:45Z</time>
      </trkpt>
      <trkpt lat="44.29998" lon="2.95555">
        <ele>966</ele>
        <time>2021-08-20T12:51:46Z</time>
      </trkpt>
      <trkpt lat="44.30001" lon="2.95558">
        <ele>966</ele>
        <time>2021-08-20T12:51:47Z</time>
      </trkpt>
      <trkpt lat="44.30002" lon="2.95561">
        <ele>965.6</ele>
        <time>2021-08-20T12:51:48Z</time>
      </trkpt>
      <trkpt lat="44.30003" lon="2.95563">
        <ele>965.6</ele>
        <time>2021-08-20T12:51:49Z</time>
      </trkpt>
      <trkpt lat="44.30003" lon="2.95564">
        <ele>965.4</ele>
        <time>2021-08-20T12:51:50Z</time>
      </trkpt>
      <trkpt lat="44.30001" lon="2.95565">
        <ele>964</ele>
        <time>2021-08-20T12:52:09Z</time>
      </trkpt>
      <trkpt lat="44.3" lon="2.95566">
        <ele>964</ele>
        <time>2021-08-20T12:52:11Z</time>
      </trkpt>
      <trkpt lat="44.29998" lon="2.95567">
        <ele>964</ele>
        <time>2021-08-20T12:52:12Z</time>
      </trkpt>
      <trkpt lat="44.29992" lon="2.95573">
        <ele>964.8</ele>
        <time>2021-08-20T12:52:17Z</time>
      </trkpt>
      <trkpt lat="44.29991" lon="2.95573">
        <ele>964.8</ele>
        <time>2021-08-20T12:52:18Z</time>
      </trkpt>
      <trkpt lat="44.2999" lon="2.95573">
        <ele>965</ele>
        <time>2021-08-20T12:52:19Z</time>
      </trkpt>
      <trkpt lat="44.29988" lon="2.95573">
        <ele>965.2</ele>
        <time>2021-08-20T12:52:20Z</time>
      </trkpt>
      <trkpt lat="44.29986" lon="2.95573">
        <ele>965.2</ele>
        <time>2021-08-20T12:52:21Z</time>
      </trkpt>
      <trkpt lat="44.29985" lon="2.95573">
        <ele>965.6</ele>
        <time>2021-08-20T12:52:22Z</time>
      </trkpt>
      <trkpt lat="44.29983" lon="2.95574">
        <ele>966</ele>
        <time>2021-08-20T12:52:24Z</time>
      </trkpt>
      <trkpt lat="44.29982" lon="2.95575">
        <ele>966.2</ele>
        <time>2021-08-20T12:52:25Z</time>
      </trkpt>
      <trkpt lat="44.2998" lon="2.95576">
        <ele>966.2</ele>
        <time>2021-08-20T12:52:26Z</time>
      </trkpt>
      <trkpt lat="44.29972" lon="2.95578">
        <ele>967</ele>
        <time>2021-08-20T12:52:29Z</time>
      </trkpt>
      <trkpt lat="44.2997" lon="2.95579">
        <ele>967.2</ele>
        <time>2021-08-20T12:52:30Z</time>
      </trkpt>
      <trkpt lat="44.29968" lon="2.9558">
        <ele>967.6</ele>
        <time>2021-08-20T12:52:31Z</time>
      </trkpt>
      <trkpt lat="44.29966" lon="2.95581">
        <ele>967.4</ele>
        <time>2021-08-20T12:52:32Z</time>
      </trkpt>
      <trkpt lat="44.29964" lon="2.95581">
        <ele>968</ele>
        <time>2021-08-20T12:52:33Z</time>
      </trkpt>
      <trkpt lat="44.29962" lon="2.95581">
        <ele>968.2</ele>
        <time>2021-08-20T12:52:34Z</time>
      </trkpt>
      <trkpt lat="44.29959" lon="2.95581">
        <ele>968.4</ele>
        <time>2021-08-20T12:52:35Z</time>
      </trkpt>
      <trkpt lat="44.29956" lon="2.95581">
        <ele>968.8</ele>
        <time>2021-08-20T12:52:36Z</time>
      </trkpt>
      <trkpt lat="44.29954" lon="2.95581">
        <ele>969</ele>
        <time>2021-08-20T12:52:37Z</time>
      </trkpt>
      <trkpt lat="44.29954" lon="2.95584">
        <ele>969.2</ele>
        <time>2021-08-20T12:52:38Z</time>
      </trkpt>
      <trkpt lat="44.29952" lon="2.95585">
        <ele>969.6</ele>
        <time>2021-08-20T12:52:39Z</time>
      </trkpt>
      <trkpt lat="44.29948" lon="2.95586">
        <ele>970</ele>
        <time>2021-08-20T12:52:40Z</time>
      </trkpt>
      <trkpt lat="44.29944" lon="2.95585">
        <ele>970.4</ele>
        <time>2021-08-20T12:52:41Z</time>
      </trkpt>
      <trkpt lat="44.29941" lon="2.95586">
        <ele>970.6</ele>
        <time>2021-08-20T12:52:42Z</time>
      </trkpt>
      <trkpt lat="44.2994" lon="2.95587">
        <ele>970.8</ele>
        <time>2021-08-20T12:52:43Z</time>
      </trkpt>
      <trkpt lat="44.29939" lon="2.95588">
        <ele>971</ele>
        <time>2021-08-20T12:52:44Z</time>
      </trkpt>
      <trkpt lat="44.29938" lon="2.95589">
        <ele>971.4</ele>
        <time>2021-08-20T12:52:45Z</time>
      </trkpt>
      <trkpt lat="44.29937" lon="2.9559">
        <ele>971.6</ele>
        <time>2021-08-20T12:52:46Z</time>
      </trkpt>
      <trkpt lat="44.29936" lon="2.95589">
        <ele>972.2</ele>
        <time>2021-08-20T12:52:47Z</time>
      </trkpt>
      <trkpt lat="44.29934" lon="2.95589">
        <ele>972.2</ele>
        <time>2021-08-20T12:52:48Z</time>
      </trkpt>
      <trkpt lat="44.29933" lon="2.95591">
        <ele>972.6</ele>
        <time>2021-08-20T12:52:49Z</time>
      </trkpt>
      <trkpt lat="44.29931" lon="2.95592">
        <ele>972.8</ele>
        <time>2021-08-20T12:52:50Z</time>
      </trkpt>
      <trkpt lat="44.29929" lon="2.95592">
        <ele>972.8</ele>
        <time>2021-08-20T12:52:51Z</time>
      </trkpt>
      <trkpt lat="44.29927" lon="2.95592">
        <ele>973</ele>
        <time>2021-08-20T12:52:52Z</time>
      </trkpt>
      <trkpt lat="44.29926" lon="2.95593">
        <ele>973</ele>
        <time>2021-08-20T12:52:53Z</time>
      </trkpt>
      <trkpt lat="44.29925" lon="2.95593">
        <ele>973.2</ele>
        <time>2021-08-20T12:52:54Z</time>
      </trkpt>
      <trkpt lat="44.29923" lon="2.95594">
        <ele>973.4</ele>
        <time>2021-08-20T12:52:55Z</time>
      </trkpt>
      <trkpt lat="44.29922" lon="2.95595">
        <ele>973.8</ele>
        <time>2021-08-20T12:52:56Z</time>
      </trkpt>
      <trkpt lat="44.2992" lon="2.95596">
        <ele>973.8</ele>
        <time>2021-08-20T12:52:57Z</time>
      </trkpt>
      <trkpt lat="44.29919" lon="2.95596">
        <ele>974.2</ele>
        <time>2021-08-20T12:52:58Z</time>
      </trkpt>
      <trkpt lat="44.29917" lon="2.95597">
        <ele>974.4</ele>
        <time>2021-08-20T12:52:59Z</time>
      </trkpt>
      <trkpt lat="44.29916" lon="2.95598">
        <ele>974.4</ele>
        <time>2021-08-20T12:53:00Z</time>
      </trkpt>
      <trkpt lat="44.29914" lon="2.95599">
        <ele>974.8</ele>
        <time>2021-08-20T12:53:01Z</time>
      </trkpt>
      <trkpt lat="44.29912" lon="2.956">
        <ele>975</ele>
        <time>2021-08-20T12:53:02Z</time>
      </trkpt>
      <trkpt lat="44.2991" lon="2.95601">
        <ele>975</ele>
        <time>2021-08-20T12:53:03Z</time>
      </trkpt>
      <trkpt lat="44.29908" lon="2.95602">
        <ele>975.2</ele>
        <time>2021-08-20T12:53:04Z</time>
      </trkpt>
      <trkpt lat="44.29905" lon="2.95603">
        <ele>975.4</ele>
        <time>2021-08-20T12:53:05Z</time>
      </trkpt>
      <trkpt lat="44.29901" lon="2.95603">
        <ele>975.6</ele>
        <time>2021-08-20T12:53:06Z</time>
      </trkpt>
      <trkpt lat="44.29898" lon="2.95604">
        <ele>975.8</ele>
        <time>2021-08-20T12:53:07Z</time>
      </trkpt>
      <trkpt lat="44.29895" lon="2.95606">
        <ele>976.2</ele>
        <time>2021-08-20T12:53:08Z</time>
      </trkpt>
      <trkpt lat="44.29894" lon="2.95607">
        <ele>976.4</ele>
        <time>2021-08-20T12:53:09Z</time>
      </trkpt>
      <trkpt lat="44.29892" lon="2.95608">
        <ele>977</ele>
        <time>2021-08-20T12:53:10Z</time>
      </trkpt>
      <trkpt lat="44.29888" lon="2.95611">
        <ele>977.2</ele>
        <time>2021-08-20T12:53:11Z</time>
      </trkpt>
      <trkpt lat="44.29886" lon="2.95613">
        <ele>977.4</ele>
        <time>2021-08-20T12:53:12Z</time>
      </trkpt>
      <trkpt lat="44.29883" lon="2.95615">
        <ele>977.4</ele>
        <time>2021-08-20T12:53:13Z</time>
      </trkpt>
      <trkpt lat="44.2988" lon="2.95616">
        <ele>977.8</ele>
        <time>2021-08-20T12:53:14Z</time>
      </trkpt>
      <trkpt lat="44.29877" lon="2.95617">
        <ele>978.2</ele>
        <time>2021-08-20T12:53:15Z</time>
      </trkpt>
      <trkpt lat="44.29873" lon="2.95619">
        <ele>978.4</ele>
        <time>2021-08-20T12:53:16Z</time>
      </trkpt>
      <trkpt lat="44.29871" lon="2.95621">
        <ele>979</ele>
        <time>2021-08-20T12:53:17Z</time>
      </trkpt>
      <trkpt lat="44.2987" lon="2.95623">
        <ele>979</ele>
        <time>2021-08-20T12:53:18Z</time>
      </trkpt>
      <trkpt lat="44.29868" lon="2.95625">
        <ele>979.6</ele>
        <time>2021-08-20T12:53:19Z</time>
      </trkpt>
      <trkpt lat="44.29864" lon="2.95627">
        <ele>979.8</ele>
        <time>2021-08-20T12:53:20Z</time>
      </trkpt>
      <trkpt lat="44.29862" lon="2.9563">
        <ele>980.2</ele>
        <time>2021-08-20T12:53:21Z</time>
      </trkpt>
      <trkpt lat="44.29858" lon="2.9563">
        <ele>980.4</ele>
        <time>2021-08-20T12:53:22Z</time>
      </trkpt>
      <trkpt lat="44.29857" lon="2.95631">
        <ele>980.6</ele>
        <time>2021-08-20T12:53:23Z</time>
      </trkpt>
      <trkpt lat="44.29856" lon="2.95632">
        <ele>980.8</ele>
        <time>2021-08-20T12:53:24Z</time>
      </trkpt>
      <trkpt lat="44.29855" lon="2.95633">
        <ele>980.8</ele>
        <time>2021-08-20T12:53:25Z</time>
      </trkpt>
      <trkpt lat="44.29854" lon="2.95635">
        <ele>981</ele>
        <time>2021-08-20T12:53:26Z</time>
      </trkpt>
      <trkpt lat="44.29855" lon="2.95636">
        <ele>981.2</ele>
        <time>2021-08-20T12:53:27Z</time>
      </trkpt>
      <trkpt lat="44.29854" lon="2.95637">
        <ele>981.6</ele>
        <time>2021-08-20T12:53:28Z</time>
      </trkpt>
      <trkpt lat="44.29853" lon="2.95637">
        <ele>981.6</ele>
        <time>2021-08-20T12:53:29Z</time>
      </trkpt>
      <trkpt lat="44.29851" lon="2.95637">
        <ele>981.8</ele>
        <time>2021-08-20T12:53:30Z</time>
      </trkpt>
      <trkpt lat="44.2985" lon="2.95638">
        <ele>982</ele>
        <time>2021-08-20T12:53:31Z</time>
      </trkpt>
      <trkpt lat="44.29849" lon="2.95638">
        <ele>982</ele>
        <time>2021-08-20T12:53:32Z</time>
      </trkpt>
      <trkpt lat="44.29848" lon="2.95639">
        <ele>982.2</ele>
        <time>2021-08-20T12:53:33Z</time>
      </trkpt>
      <trkpt lat="44.29848" lon="2.9564">
        <ele>982.2</ele>
        <time>2021-08-20T12:53:34Z</time>
      </trkpt>
      <trkpt lat="44.29848" lon="2.9564">
        <ele>982.4</ele>
        <time>2021-08-20T12:54:19Z</time>
      </trkpt>
      <trkpt lat="44.29846" lon="2.95641">
        <ele>982.2</ele>
        <time>2021-08-20T12:54:21Z</time>
      </trkpt>
      <trkpt lat="44.29845" lon="2.95643">
        <ele>982.2</ele>
        <time>2021-08-20T12:54:22Z</time>
      </trkpt>
      <trkpt lat="44.29844" lon="2.95645">
        <ele>982.2</ele>
        <time>2021-08-20T12:54:23Z</time>
      </trkpt>
      <trkpt lat="44.29842" lon="2.95646">
        <ele>982.2</ele>
        <time>2021-08-20T12:54:24Z</time>
      </trkpt>
      <trkpt lat="44.29839" lon="2.95646">
        <ele>982.2</ele>
        <time>2021-08-20T12:54:25Z</time>
      </trkpt>
      <trkpt lat="44.29837" lon="2.95647">
        <ele>982.4</ele>
        <time>2021-08-20T12:54:26Z</time>
      </trkpt>
      <trkpt lat="44.29834" lon="2.95648">
        <ele>982.4</ele>
        <time>2021-08-20T12:54:27Z</time>
      </trkpt>
      <trkpt lat="44.29832" lon="2.95649">
        <ele>982.4</ele>
        <time>2021-08-20T12:54:28Z</time>
      </trkpt>
      <trkpt lat="44.29831" lon="2.95651">
        <ele>982.6</ele>
        <time>2021-08-20T12:54:29Z</time>
      </trkpt>
      <trkpt lat="44.29829" lon="2.95652">
        <ele>982.6</ele>
        <time>2021-08-20T12:54:30Z</time>
      </trkpt>
      <trkpt lat="44.29828" lon="2.95653">
        <ele>982.8</ele>
        <time>2021-08-20T12:54:31Z</time>
      </trkpt>
      <trkpt lat="44.29827" lon="2.95654">
        <ele>982.8</ele>
        <time>2021-08-20T12:54:32Z</time>
      </trkpt>
      <trkpt lat="44.29826" lon="2.95655">
        <ele>983</ele>
        <time>2021-08-20T12:54:33Z</time>
      </trkpt>
      <trkpt lat="44.29824" lon="2.95656">
        <ele>983.2</ele>
        <time>2021-08-20T12:54:34Z</time>
      </trkpt>
      <trkpt lat="44.2982" lon="2.95658">
        <ele>983.8</ele>
        <time>2021-08-20T12:54:37Z</time>
      </trkpt>
      <trkpt lat="44.29816" lon="2.95661">
        <ele>984</ele>
        <time>2021-08-20T12:54:40Z</time>
      </trkpt>
      <trkpt lat="44.29815" lon="2.95662">
        <ele>984</ele>
        <time>2021-08-20T12:54:41Z</time>
      </trkpt>
      <trkpt lat="44.29814" lon="2.95663">
        <ele>984.2</ele>
        <time>2021-08-20T12:54:42Z</time>
      </trkpt>
      <trkpt lat="44.29811" lon="2.95666">
        <ele>984.4</ele>
        <time>2021-08-20T12:54:44Z</time>
      </trkpt>
      <trkpt lat="44.2981" lon="2.95667">
        <ele>984.6</ele>
        <time>2021-08-20T12:54:45Z</time>
      </trkpt>
      <trkpt lat="44.29809" lon="2.95667">
        <ele>984.8</ele>
        <time>2021-08-20T12:54:46Z</time>
      </trkpt>
      <trkpt lat="44.29808" lon="2.95669">
        <ele>984.8</ele>
        <time>2021-08-20T12:54:47Z</time>
      </trkpt>
      <trkpt lat="44.298" lon="2.95678">
        <ele>985.4</ele>
        <time>2021-08-20T12:54:52Z</time>
      </trkpt>
      <trkpt lat="44.29799" lon="2.95679">
        <ele>985.6</ele>
        <time>2021-08-20T12:54:53Z</time>
      </trkpt>
      <trkpt lat="44.29797" lon="2.9568">
        <ele>985.6</ele>
        <time>2021-08-20T12:54:54Z</time>
      </trkpt>
      <trkpt lat="44.29796" lon="2.95682">
        <ele>985.6</ele>
        <time>2021-08-20T12:54:55Z</time>
      </trkpt>
      <trkpt lat="44.29795" lon="2.95684">
        <ele>985.6</ele>
        <time>2021-08-20T12:54:56Z</time>
      </trkpt>
      <trkpt lat="44.29793" lon="2.95685">
        <ele>985.8</ele>
        <time>2021-08-20T12:54:57Z</time>
      </trkpt>
      <trkpt lat="44.29792" lon="2.95687">
        <ele>985.8</ele>
        <time>2021-08-20T12:54:58Z</time>
      </trkpt>
      <trkpt lat="44.29791" lon="2.95688">
        <ele>986</ele>
        <time>2021-08-20T12:54:59Z</time>
      </trkpt>
      <trkpt lat="44.29789" lon="2.95689">
        <ele>986.2</ele>
        <time>2021-08-20T12:55:00Z</time>
      </trkpt>
      <trkpt lat="44.29787" lon="2.95691">
        <ele>986.4</ele>
        <time>2021-08-20T12:55:01Z</time>
      </trkpt>
      <trkpt lat="44.29786" lon="2.95691">
        <ele>986.6</ele>
        <time>2021-08-20T12:55:02Z</time>
      </trkpt>
      <trkpt lat="44.29784" lon="2.95692">
        <ele>986.6</ele>
        <time>2021-08-20T12:55:03Z</time>
      </trkpt>
      <trkpt lat="44.29783" lon="2.95694">
        <ele>986.6</ele>
        <time>2021-08-20T12:55:04Z</time>
      </trkpt>
      <trkpt lat="44.29781" lon="2.95695">
        <ele>986.6</ele>
        <time>2021-08-20T12:55:05Z</time>
      </trkpt>
      <trkpt lat="44.29779" lon="2.95696">
        <ele>986.8</ele>
        <time>2021-08-20T12:55:06Z</time>
      </trkpt>
      <trkpt lat="44.29777" lon="2.95698">
        <ele>987</ele>
        <time>2021-08-20T12:55:07Z</time>
      </trkpt>
      <trkpt lat="44.29776" lon="2.95699">
        <ele>987</ele>
        <time>2021-08-20T12:55:08Z</time>
      </trkpt>
      <trkpt lat="44.29774" lon="2.95701">
        <ele>987</ele>
        <time>2021-08-20T12:55:09Z</time>
      </trkpt>
      <trkpt lat="44.29773" lon="2.95702">
        <ele>987</ele>
        <time>2021-08-20T12:55:10Z</time>
      </trkpt>
      <trkpt lat="44.29771" lon="2.95703">
        <ele>987</ele>
        <time>2021-08-20T12:55:11Z</time>
      </trkpt>
      <trkpt lat="44.2977" lon="2.95704">
        <ele>987</ele>
        <time>2021-08-20T12:55:12Z</time>
      </trkpt>
      <trkpt lat="44.29768" lon="2.95706">
        <ele>987.2</ele>
        <time>2021-08-20T12:55:13Z</time>
      </trkpt>
      <trkpt lat="44.29766" lon="2.95707">
        <ele>987.4</ele>
        <time>2021-08-20T12:55:14Z</time>
      </trkpt>
      <trkpt lat="44.29764" lon="2.95708">
        <ele>987.6</ele>
        <time>2021-08-20T12:55:15Z</time>
      </trkpt>
      <trkpt lat="44.29762" lon="2.95709">
        <ele>987.8</ele>
        <time>2021-08-20T12:55:16Z</time>
      </trkpt>
      <trkpt lat="44.29761" lon="2.9571">
        <ele>987.8</ele>
        <time>2021-08-20T12:55:17Z</time>
      </trkpt>
      <trkpt lat="44.29759" lon="2.95711">
        <ele>988</ele>
        <time>2021-08-20T12:55:18Z</time>
      </trkpt>
      <trkpt lat="44.29758" lon="2.95712">
        <ele>988.2</ele>
        <time>2021-08-20T12:55:19Z</time>
      </trkpt>
      <trkpt lat="44.29756" lon="2.95713">
        <ele>988.4</ele>
        <time>2021-08-20T12:55:20Z</time>
      </trkpt>
      <trkpt lat="44.29755" lon="2.95714">
        <ele>988.4</ele>
        <time>2021-08-20T12:55:21Z</time>
      </trkpt>
      <trkpt lat="44.29754" lon="2.95715">
        <ele>988.6</ele>
        <time>2021-08-20T12:55:22Z</time>
      </trkpt>
      <trkpt lat="44.29752" lon="2.95716">
        <ele>988.6</ele>
        <time>2021-08-20T12:55:23Z</time>
      </trkpt>
      <trkpt lat="44.29751" lon="2.95717">
        <ele>988.8</ele>
        <time>2021-08-20T12:55:24Z</time>
      </trkpt>
      <trkpt lat="44.29749" lon="2.95718">
        <ele>988.8</ele>
        <time>2021-08-20T12:55:25Z</time>
      </trkpt>
      <trkpt lat="44.29749" lon="2.95719">
        <ele>989</ele>
        <time>2021-08-20T12:55:26Z</time>
      </trkpt>
      <trkpt lat="44.29747" lon="2.9572">
        <ele>989</ele>
        <time>2021-08-20T12:55:27Z</time>
      </trkpt>
      <trkpt lat="44.29745" lon="2.95721">
        <ele>989.2</ele>
        <time>2021-08-20T12:55:28Z</time>
      </trkpt>
      <trkpt lat="44.29744" lon="2.95722">
        <ele>989.2</ele>
        <time>2021-08-20T12:55:29Z</time>
      </trkpt>
      <trkpt lat="44.29741" lon="2.95723">
        <ele>989.4</ele>
        <time>2021-08-20T12:55:30Z</time>
      </trkpt>
      <trkpt lat="44.29739" lon="2.95723">
        <ele>989.6</ele>
        <time>2021-08-20T12:55:31Z</time>
      </trkpt>
      <trkpt lat="44.29737" lon="2.95724">
        <ele>989.8</ele>
        <time>2021-08-20T12:55:32Z</time>
      </trkpt>
      <trkpt lat="44.29735" lon="2.95725">
        <ele>989.8</ele>
        <time>2021-08-20T12:55:33Z</time>
      </trkpt>
      <trkpt lat="44.29733" lon="2.95726">
        <ele>990.2</ele>
        <time>2021-08-20T12:55:34Z</time>
      </trkpt>
      <trkpt lat="44.29731" lon="2.95726">
        <ele>990.2</ele>
        <time>2021-08-20T12:55:35Z</time>
      </trkpt>
      <trkpt lat="44.2973" lon="2.95727">
        <ele>990.2</ele>
        <time>2021-08-20T12:55:36Z</time>
      </trkpt>
      <trkpt lat="44.29729" lon="2.95728">
        <ele>990.4</ele>
        <time>2021-08-20T12:55:37Z</time>
      </trkpt>
      <trkpt lat="44.29727" lon="2.95729">
        <ele>990.4</ele>
        <time>2021-08-20T12:55:38Z</time>
      </trkpt>
      <trkpt lat="44.29725" lon="2.9573">
        <ele>990.6</ele>
        <time>2021-08-20T12:55:39Z</time>
      </trkpt>
      <trkpt lat="44.29724" lon="2.95731">
        <ele>990.6</ele>
        <time>2021-08-20T12:55:40Z</time>
      </trkpt>
      <trkpt lat="44.29722" lon="2.95732">
        <ele>991</ele>
        <time>2021-08-20T12:55:41Z</time>
      </trkpt>
      <trkpt lat="44.29721" lon="2.95733">
        <ele>991</ele>
        <time>2021-08-20T12:55:42Z</time>
      </trkpt>
      <trkpt lat="44.29719" lon="2.95734">
        <ele>991.2</ele>
        <time>2021-08-20T12:55:43Z</time>
      </trkpt>
      <trkpt lat="44.29717" lon="2.95735">
        <ele>991.4</ele>
        <time>2021-08-20T12:55:44Z</time>
      </trkpt>
      <trkpt lat="44.29715" lon="2.95736">
        <ele>991.6</ele>
        <time>2021-08-20T12:55:45Z</time>
      </trkpt>
      <trkpt lat="44.29714" lon="2.95737">
        <ele>991.6</ele>
        <time>2021-08-20T12:55:46Z</time>
      </trkpt>
      <trkpt lat="44.29714" lon="2.95738">
        <ele>992</ele>
        <time>2021-08-20T12:55:47Z</time>
      </trkpt>
      <trkpt lat="44.29712" lon="2.95739">
        <ele>992.2</ele>
        <time>2021-08-20T12:55:48Z</time>
      </trkpt>
      <trkpt lat="44.2971" lon="2.9574">
        <ele>992.2</ele>
        <time>2021-08-20T12:55:49Z</time>
      </trkpt>
      <trkpt lat="44.29709" lon="2.95741">
        <ele>992.4</ele>
        <time>2021-08-20T12:55:50Z</time>
      </trkpt>
      <trkpt lat="44.29707" lon="2.95742">
        <ele>992.6</ele>
        <time>2021-08-20T12:55:51Z</time>
      </trkpt>
      <trkpt lat="44.29705" lon="2.95742">
        <ele>992.8</ele>
        <time>2021-08-20T12:55:52Z</time>
      </trkpt>
      <trkpt lat="44.29703" lon="2.95743">
        <ele>993</ele>
        <time>2021-08-20T12:55:53Z</time>
      </trkpt>
      <trkpt lat="44.29701" lon="2.95743">
        <ele>993.2</ele>
        <time>2021-08-20T12:55:54Z</time>
      </trkpt>
      <trkpt lat="44.29699" lon="2.95743">
        <ele>993.2</ele>
        <time>2021-08-20T12:55:55Z</time>
      </trkpt>
      <trkpt lat="44.29698" lon="2.95743">
        <ele>993.4</ele>
        <time>2021-08-20T12:55:56Z</time>
      </trkpt>
      <trkpt lat="44.29696" lon="2.95744">
        <ele>993.4</ele>
        <time>2021-08-20T12:55:57Z</time>
      </trkpt>
      <trkpt lat="44.29694" lon="2.95744">
        <ele>993.6</ele>
        <time>2021-08-20T12:55:58Z</time>
      </trkpt>
      <trkpt lat="44.29692" lon="2.95745">
        <ele>993.6</ele>
        <time>2021-08-20T12:55:59Z</time>
      </trkpt>
      <trkpt lat="44.29691" lon="2.95745">
        <ele>993.6</ele>
        <time>2021-08-20T12:56:00Z</time>
      </trkpt>
      <trkpt lat="44.29689" lon="2.95745">
        <ele>993.8</ele>
        <time>2021-08-20T12:56:01Z</time>
      </trkpt>
      <trkpt lat="44.29687" lon="2.95745">
        <ele>993.8</ele>
        <time>2021-08-20T12:56:02Z</time>
      </trkpt>
      <trkpt lat="44.29686" lon="2.95745">
        <ele>994</ele>
        <time>2021-08-20T12:56:03Z</time>
      </trkpt>
      <trkpt lat="44.29684" lon="2.95745">
        <ele>994</ele>
        <time>2021-08-20T12:56:04Z</time>
      </trkpt>
      <trkpt lat="44.29682" lon="2.95746">
        <ele>994.2</ele>
        <time>2021-08-20T12:56:05Z</time>
      </trkpt>
      <trkpt lat="44.29681" lon="2.95746">
        <ele>994.2</ele>
        <time>2021-08-20T12:56:06Z</time>
      </trkpt>
      <trkpt lat="44.29679" lon="2.95746">
        <ele>994.2</ele>
        <time>2021-08-20T12:56:07Z</time>
      </trkpt>
      <trkpt lat="44.29678" lon="2.95746">
        <ele>994.6</ele>
        <time>2021-08-20T12:56:08Z</time>
      </trkpt>
      <trkpt lat="44.29676" lon="2.95747">
        <ele>994.6</ele>
        <time>2021-08-20T12:56:09Z</time>
      </trkpt>
      <trkpt lat="44.29675" lon="2.95747">
        <ele>995</ele>
        <time>2021-08-20T12:56:10Z</time>
      </trkpt>
      <trkpt lat="44.29673" lon="2.95747">
        <ele>995</ele>
        <time>2021-08-20T12:56:11Z</time>
      </trkpt>
      <trkpt lat="44.29671" lon="2.95747">
        <ele>995.2</ele>
        <time>2021-08-20T12:56:12Z</time>
      </trkpt>
      <trkpt lat="44.2967" lon="2.95748">
        <ele>995.4</ele>
        <time>2021-08-20T12:56:13Z</time>
      </trkpt>
      <trkpt lat="44.29668" lon="2.95748">
        <ele>995.4</ele>
        <time>2021-08-20T12:56:14Z</time>
      </trkpt>
      <trkpt lat="44.29666" lon="2.95748">
        <ele>995.6</ele>
        <time>2021-08-20T12:56:15Z</time>
      </trkpt>
      <trkpt lat="44.29665" lon="2.95748">
        <ele>995.6</ele>
        <time>2021-08-20T12:56:16Z</time>
      </trkpt>
      <trkpt lat="44.29664" lon="2.95748">
        <ele>995.8</ele>
        <time>2021-08-20T12:56:17Z</time>
      </trkpt>
      <trkpt lat="44.29662" lon="2.95749">
        <ele>995.8</ele>
        <time>2021-08-20T12:56:18Z</time>
      </trkpt>
      <trkpt lat="44.29661" lon="2.9575">
        <ele>996</ele>
        <time>2021-08-20T12:56:19Z</time>
      </trkpt>
      <trkpt lat="44.29659" lon="2.9575">
        <ele>996</ele>
        <time>2021-08-20T12:56:20Z</time>
      </trkpt>
      <trkpt lat="44.29658" lon="2.9575">
        <ele>996.2</ele>
        <time>2021-08-20T12:56:21Z</time>
      </trkpt>
      <trkpt lat="44.29656" lon="2.9575">
        <ele>996.6</ele>
        <time>2021-08-20T12:56:22Z</time>
      </trkpt>
      <trkpt lat="44.29655" lon="2.95751">
        <ele>996.6</ele>
        <time>2021-08-20T12:56:23Z</time>
      </trkpt>
      <trkpt lat="44.29654" lon="2.95751">
        <ele>996.8</ele>
        <time>2021-08-20T12:56:24Z</time>
      </trkpt>
      <trkpt lat="44.29652" lon="2.95752">
        <ele>996.8</ele>
        <time>2021-08-20T12:56:25Z</time>
      </trkpt>
      <trkpt lat="44.29651" lon="2.95753">
        <ele>997</ele>
        <time>2021-08-20T12:56:26Z</time>
      </trkpt>
      <trkpt lat="44.2965" lon="2.95754">
        <ele>997.2</ele>
        <time>2021-08-20T12:56:27Z</time>
      </trkpt>
      <trkpt lat="44.29648" lon="2.95755">
        <ele>997.2</ele>
        <time>2021-08-20T12:56:28Z</time>
      </trkpt>
      <trkpt lat="44.29646" lon="2.95756">
        <ele>997.4</ele>
        <time>2021-08-20T12:56:29Z</time>
      </trkpt>
      <trkpt lat="44.29645" lon="2.95756">
        <ele>997.4</ele>
        <time>2021-08-20T12:56:30Z</time>
      </trkpt>
      <trkpt lat="44.29643" lon="2.95758">
        <ele>997.8</ele>
        <time>2021-08-20T12:56:31Z</time>
      </trkpt>
      <trkpt lat="44.2964" lon="2.95759">
        <ele>997.8</ele>
        <time>2021-08-20T12:56:32Z</time>
      </trkpt>
      <trkpt lat="44.29638" lon="2.95759">
        <ele>998</ele>
        <time>2021-08-20T12:56:33Z</time>
      </trkpt>
      <trkpt lat="44.29636" lon="2.9576">
        <ele>998</ele>
        <time>2021-08-20T12:56:34Z</time>
      </trkpt>
      <trkpt lat="44.29634" lon="2.95761">
        <ele>998.2</ele>
        <time>2021-08-20T12:56:35Z</time>
      </trkpt>
      <trkpt lat="44.29633" lon="2.95763">
        <ele>998.2</ele>
        <time>2021-08-20T12:56:36Z</time>
      </trkpt>
      <trkpt lat="44.29631" lon="2.95765">
        <ele>998.4</ele>
        <time>2021-08-20T12:56:37Z</time>
      </trkpt>
      <trkpt lat="44.2963" lon="2.95766">
        <ele>998.4</ele>
        <time>2021-08-20T12:56:38Z</time>
      </trkpt>
      <trkpt lat="44.2963" lon="2.95767">
        <ele>998.4</ele>
        <time>2021-08-20T12:56:39Z</time>
      </trkpt>
      <trkpt lat="44.29628" lon="2.95769">
        <ele>998.4</ele>
        <time>2021-08-20T12:56:40Z</time>
      </trkpt>
      <trkpt lat="44.29626" lon="2.95771">
        <ele>998.4</ele>
        <time>2021-08-20T12:56:41Z</time>
      </trkpt>
      <trkpt lat="44.29625" lon="2.95773">
        <ele>998.6</ele>
        <time>2021-08-20T12:56:42Z</time>
      </trkpt>
      <trkpt lat="44.29624" lon="2.95774">
        <ele>998.8</ele>
        <time>2021-08-20T12:56:43Z</time>
      </trkpt>
      <trkpt lat="44.29623" lon="2.95775">
        <ele>999.2</ele>
        <time>2021-08-20T12:56:44Z</time>
      </trkpt>
      <trkpt lat="44.29621" lon="2.95777">
        <ele>999.6</ele>
        <time>2021-08-20T12:56:45Z</time>
      </trkpt>
      <trkpt lat="44.2962" lon="2.95779">
        <ele>999.6</ele>
        <time>2021-08-20T12:56:46Z</time>
      </trkpt>
      <trkpt lat="44.29619" lon="2.95781">
        <ele>999.8</ele>
        <time>2021-08-20T12:56:47Z</time>
      </trkpt>
      <trkpt lat="44.29618" lon="2.95783">
        <ele>1000</ele>
        <time>2021-08-20T12:56:48Z</time>
      </trkpt>
      <trkpt lat="44.29617" lon="2.95785">
        <ele>1000.2</ele>
        <time>2021-08-20T12:56:49Z</time>
      </trkpt>
      <trkpt lat="44.29616" lon="2.95787">
        <ele>1000.2</ele>
        <time>2021-08-20T12:56:50Z</time>
      </trkpt>
      <trkpt lat="44.29614" lon="2.9579">
        <ele>1000.4</ele>
        <time>2021-08-20T12:56:51Z</time>
      </trkpt>
      <trkpt lat="44.29614" lon="2.95793">
        <ele>1000.6</ele>
        <time>2021-08-20T12:56:52Z</time>
      </trkpt>
      <trkpt lat="44.29613" lon="2.95795">
        <ele>1000.6</ele>
        <time>2021-08-20T12:56:53Z</time>
      </trkpt>
      <trkpt lat="44.29611" lon="2.95798">
        <ele>1000.8</ele>
        <time>2021-08-20T12:56:54Z</time>
      </trkpt>
      <trkpt lat="44.29608" lon="2.95799">
        <ele>1001</ele>
        <time>2021-08-20T12:56:55Z</time>
      </trkpt>
      <trkpt lat="44.29605" lon="2.958">
        <ele>1001.2</ele>
        <time>2021-08-20T12:56:56Z</time>
      </trkpt>
      <trkpt lat="44.29603" lon="2.95802">
        <ele>1001.4</ele>
        <time>2021-08-20T12:56:57Z</time>
      </trkpt>
      <trkpt lat="44.29602" lon="2.95804">
        <ele>1001.4</ele>
        <time>2021-08-20T12:56:58Z</time>
      </trkpt>
      <trkpt lat="44.296" lon="2.95806">
        <ele>1001.6</ele>
        <time>2021-08-20T12:56:59Z</time>
      </trkpt>
      <trkpt lat="44.29599" lon="2.95809">
        <ele>1001.8</ele>
        <time>2021-08-20T12:57:00Z</time>
      </trkpt>
      <trkpt lat="44.29597" lon="2.95811">
        <ele>1002</ele>
        <time>2021-08-20T12:57:01Z</time>
      </trkpt>
      <trkpt lat="44.29596" lon="2.95813">
        <ele>1002</ele>
        <time>2021-08-20T12:57:02Z</time>
      </trkpt>
      <trkpt lat="44.29595" lon="2.95815">
        <ele>1002.2</ele>
        <time>2021-08-20T12:57:03Z</time>
      </trkpt>
      <trkpt lat="44.29593" lon="2.95818">
        <ele>1002.2</ele>
        <time>2021-08-20T12:57:04Z</time>
      </trkpt>
      <trkpt lat="44.29592" lon="2.9582">
        <ele>1002.4</ele>
        <time>2021-08-20T12:57:05Z</time>
      </trkpt>
      <trkpt lat="44.2959" lon="2.95822">
        <ele>1002.6</ele>
        <time>2021-08-20T12:57:06Z</time>
      </trkpt>
      <trkpt lat="44.29589" lon="2.95825">
        <ele>1002.6</ele>
        <time>2021-08-20T12:57:07Z</time>
      </trkpt>
      <trkpt lat="44.29587" lon="2.95826">
        <ele>1002.8</ele>
        <time>2021-08-20T12:57:08Z</time>
      </trkpt>
      <trkpt lat="44.29585" lon="2.95828">
        <ele>1003</ele>
        <time>2021-08-20T12:57:09Z</time>
      </trkpt>
      <trkpt lat="44.29584" lon="2.9583">
        <ele>1003</ele>
        <time>2021-08-20T12:57:10Z</time>
      </trkpt>
      <trkpt lat="44.29581" lon="2.95832">
        <ele>1003.2</ele>
        <time>2021-08-20T12:57:11Z</time>
      </trkpt>
      <trkpt lat="44.2958" lon="2.95834">
        <ele>1003.2</ele>
        <time>2021-08-20T12:57:12Z</time>
      </trkpt>
      <trkpt lat="44.29578" lon="2.95837">
        <ele>1003.4</ele>
        <time>2021-08-20T12:57:13Z</time>
      </trkpt>
      <trkpt lat="44.29576" lon="2.95839">
        <ele>1003.4</ele>
        <time>2021-08-20T12:57:14Z</time>
      </trkpt>
      <trkpt lat="44.29575" lon="2.95842">
        <ele>1003.6</ele>
        <time>2021-08-20T12:57:15Z</time>
      </trkpt>
      <trkpt lat="44.29573" lon="2.95844">
        <ele>1004</ele>
        <time>2021-08-20T12:57:16Z</time>
      </trkpt>
      <trkpt lat="44.29572" lon="2.95847">
        <ele>1004.2</ele>
        <time>2021-08-20T12:57:17Z</time>
      </trkpt>
      <trkpt lat="44.2957" lon="2.95849">
        <ele>1004.4</ele>
        <time>2021-08-20T12:57:18Z</time>
      </trkpt>
      <trkpt lat="44.29569" lon="2.95852">
        <ele>1004.6</ele>
        <time>2021-08-20T12:57:19Z</time>
      </trkpt>
      <trkpt lat="44.29567" lon="2.95854">
        <ele>1004.6</ele>
        <time>2021-08-20T12:57:20Z</time>
      </trkpt>
      <trkpt lat="44.29566" lon="2.95857">
        <ele>1004.8</ele>
        <time>2021-08-20T12:57:21Z</time>
      </trkpt>
      <trkpt lat="44.29564" lon="2.95859">
        <ele>1005</ele>
        <time>2021-08-20T12:57:22Z</time>
      </trkpt>
      <trkpt lat="44.29563" lon="2.95861">
        <ele>1005</ele>
        <time>2021-08-20T12:57:23Z</time>
      </trkpt>
      <trkpt lat="44.29561" lon="2.95863">
        <ele>1005.2</ele>
        <time>2021-08-20T12:57:24Z</time>
      </trkpt>
      <trkpt lat="44.2956" lon="2.95865">
        <ele>1005.4</ele>
        <time>2021-08-20T12:57:25Z</time>
      </trkpt>
      <trkpt lat="44.29558" lon="2.95867">
        <ele>1005.6</ele>
        <time>2021-08-20T12:57:26Z</time>
      </trkpt>
      <trkpt lat="44.29556" lon="2.95869">
        <ele>1005.8</ele>
        <time>2021-08-20T12:57:27Z</time>
      </trkpt>
      <trkpt lat="44.29555" lon="2.95871">
        <ele>1005.8</ele>
        <time>2021-08-20T12:57:28Z</time>
      </trkpt>
      <trkpt lat="44.29553" lon="2.95873">
        <ele>1006</ele>
        <time>2021-08-20T12:57:29Z</time>
      </trkpt>
      <trkpt lat="44.29551" lon="2.95875">
        <ele>1006.2</ele>
        <time>2021-08-20T12:57:30Z</time>
      </trkpt>
      <trkpt lat="44.29549" lon="2.95878">
        <ele>1006.4</ele>
        <time>2021-08-20T12:57:31Z</time>
      </trkpt>
      <trkpt lat="44.29548" lon="2.9588">
        <ele>1006.8</ele>
        <time>2021-08-20T12:57:32Z</time>
      </trkpt>
      <trkpt lat="44.29546" lon="2.95882">
        <ele>1006.8</ele>
        <time>2021-08-20T12:57:33Z</time>
      </trkpt>
      <trkpt lat="44.29544" lon="2.95885">
        <ele>1007</ele>
        <time>2021-08-20T12:57:34Z</time>
      </trkpt>
      <trkpt lat="44.29543" lon="2.95887">
        <ele>1007.2</ele>
        <time>2021-08-20T12:57:35Z</time>
      </trkpt>
      <trkpt lat="44.29541" lon="2.95889">
        <ele>1007.4</ele>
        <time>2021-08-20T12:57:36Z</time>
      </trkpt>
      <trkpt lat="44.2954" lon="2.95892">
        <ele>1007.4</ele>
        <time>2021-08-20T12:57:37Z</time>
      </trkpt>
      <trkpt lat="44.29539" lon="2.95895">
        <ele>1007.6</ele>
        <time>2021-08-20T12:57:38Z</time>
      </trkpt>
      <trkpt lat="44.29537" lon="2.95897">
        <ele>1007.8</ele>
        <time>2021-08-20T12:57:39Z</time>
      </trkpt>
      <trkpt lat="44.29535" lon="2.95899">
        <ele>1007.8</ele>
        <time>2021-08-20T12:57:40Z</time>
      </trkpt>
      <trkpt lat="44.29533" lon="2.95902">
        <ele>1008</ele>
        <time>2021-08-20T12:57:41Z</time>
      </trkpt>
      <trkpt lat="44.29532" lon="2.95904">
        <ele>1008.2</ele>
        <time>2021-08-20T12:57:42Z</time>
      </trkpt>
      <trkpt lat="44.2953" lon="2.95906">
        <ele>1008.2</ele>
        <time>2021-08-20T12:57:43Z</time>
      </trkpt>
      <trkpt lat="44.29529" lon="2.95908">
        <ele>1008.4</ele>
        <time>2021-08-20T12:57:44Z</time>
      </trkpt>
      <trkpt lat="44.29527" lon="2.9591">
        <ele>1008.6</ele>
        <time>2021-08-20T12:57:45Z</time>
      </trkpt>
      <trkpt lat="44.29525" lon="2.95912">
        <ele>1008.8</ele>
        <time>2021-08-20T12:57:46Z</time>
      </trkpt>
      <trkpt lat="44.29524" lon="2.95914">
        <ele>1008.8</ele>
        <time>2021-08-20T12:57:47Z</time>
      </trkpt>
      <trkpt lat="44.29522" lon="2.95916">
        <ele>1009</ele>
        <time>2021-08-20T12:57:48Z</time>
      </trkpt>
      <trkpt lat="44.29521" lon="2.95919">
        <ele>1009</ele>
        <time>2021-08-20T12:57:49Z</time>
      </trkpt>
      <trkpt lat="44.2952" lon="2.95922">
        <ele>1009.2</ele>
        <time>2021-08-20T12:57:50Z</time>
      </trkpt>
      <trkpt lat="44.29518" lon="2.95924">
        <ele>1009.4</ele>
        <time>2021-08-20T12:57:51Z</time>
      </trkpt>
      <trkpt lat="44.29516" lon="2.95926">
        <ele>1009.6</ele>
        <time>2021-08-20T12:57:52Z</time>
      </trkpt>
      <trkpt lat="44.29515" lon="2.95928">
        <ele>1009.6</ele>
        <time>2021-08-20T12:57:53Z</time>
      </trkpt>
      <trkpt lat="44.29513" lon="2.95931">
        <ele>1009.6</ele>
        <time>2021-08-20T12:57:54Z</time>
      </trkpt>
      <trkpt lat="44.29512" lon="2.95934">
        <ele>1009.8</ele>
        <time>2021-08-20T12:57:55Z</time>
      </trkpt>
      <trkpt lat="44.2951" lon="2.95938">
        <ele>1009.8</ele>
        <time>2021-08-20T12:57:56Z</time>
      </trkpt>
      <trkpt lat="44.29509" lon="2.95942">
        <ele>1010</ele>
        <time>2021-08-20T12:57:57Z</time>
      </trkpt>
      <trkpt lat="44.29508" lon="2.95945">
        <ele>1010</ele>
        <time>2021-08-20T12:57:58Z</time>
      </trkpt>
      <trkpt lat="44.29506" lon="2.95948">
        <ele>1010</ele>
        <time>2021-08-20T12:57:59Z</time>
      </trkpt>
      <trkpt lat="44.29505" lon="2.95951">
        <ele>1010.2</ele>
        <time>2021-08-20T12:58:00Z</time>
      </trkpt>
      <trkpt lat="44.29504" lon="2.95955">
        <ele>1010.2</ele>
        <time>2021-08-20T12:58:01Z</time>
      </trkpt>
      <trkpt lat="44.29503" lon="2.95958">
        <ele>1010.2</ele>
        <time>2021-08-20T12:58:02Z</time>
      </trkpt>
      <trkpt lat="44.29502" lon="2.95962">
        <ele>1010.2</ele>
        <time>2021-08-20T12:58:03Z</time>
      </trkpt>
      <trkpt lat="44.29501" lon="2.95966">
        <ele>1010.2</ele>
        <time>2021-08-20T12:58:04Z</time>
      </trkpt>
      <trkpt lat="44.295" lon="2.9597">
        <ele>1010.4</ele>
        <time>2021-08-20T12:58:05Z</time>
      </trkpt>
      <trkpt lat="44.295" lon="2.95975">
        <ele>1010.4</ele>
        <time>2021-08-20T12:58:06Z</time>
      </trkpt>
      <trkpt lat="44.29499" lon="2.95979">
        <ele>1010.4</ele>
        <time>2021-08-20T12:58:07Z</time>
      </trkpt>
      <trkpt lat="44.29498" lon="2.95983">
        <ele>1010.2</ele>
        <time>2021-08-20T12:58:08Z</time>
      </trkpt>
      <trkpt lat="44.29498" lon="2.95987">
        <ele>1010.4</ele>
        <time>2021-08-20T12:58:09Z</time>
      </trkpt>
      <trkpt lat="44.29496" lon="2.95996">
        <ele>1010.4</ele>
        <time>2021-08-20T12:58:11Z</time>
      </trkpt>
      <trkpt lat="44.29493" lon="2.96008">
        <ele>1010.6</ele>
        <time>2021-08-20T12:58:14Z</time>
      </trkpt>
      <trkpt lat="44.29492" lon="2.96012">
        <ele>1010.6</ele>
        <time>2021-08-20T12:58:15Z</time>
      </trkpt>
      <trkpt lat="44.29491" lon="2.9602">
        <ele>1010.6</ele>
        <time>2021-08-20T12:58:17Z</time>
      </trkpt>
      <trkpt lat="44.2949" lon="2.96024">
        <ele>1011</ele>
        <time>2021-08-20T12:58:18Z</time>
      </trkpt>
      <trkpt lat="44.29487" lon="2.96032">
        <ele>1011.2</ele>
        <time>2021-08-20T12:58:20Z</time>
      </trkpt>
      <trkpt lat="44.29487" lon="2.96036">
        <ele>1011.2</ele>
        <time>2021-08-20T12:58:21Z</time>
      </trkpt>
      <trkpt lat="44.29485" lon="2.96043">
        <ele>1011.4</ele>
        <time>2021-08-20T12:58:23Z</time>
      </trkpt>
      <trkpt lat="44.29484" lon="2.96047">
        <ele>1011.4</ele>
        <time>2021-08-20T12:58:24Z</time>
      </trkpt>
      <trkpt lat="44.2948" lon="2.96067">
        <ele>1011.8</ele>
        <time>2021-08-20T12:58:29Z</time>
      </trkpt>
      <trkpt lat="44.29479" lon="2.9607">
        <ele>1011.8</ele>
        <time>2021-08-20T12:58:30Z</time>
      </trkpt>
      <trkpt lat="44.29478" lon="2.96074">
        <ele>1011.8</ele>
        <time>2021-08-20T12:58:31Z</time>
      </trkpt>
      <trkpt lat="44.29475" lon="2.96081">
        <ele>1012</ele>
        <time>2021-08-20T12:58:33Z</time>
      </trkpt>
      <trkpt lat="44.29474" lon="2.96084">
        <ele>1012</ele>
        <time>2021-08-20T12:58:34Z</time>
      </trkpt>
      <trkpt lat="44.29473" lon="2.96086">
        <ele>1012</ele>
        <time>2021-08-20T12:58:35Z</time>
      </trkpt>
      <trkpt lat="44.29471" lon="2.96092">
        <ele>1012</ele>
        <time>2021-08-20T12:58:38Z</time>
      </trkpt>
      <trkpt lat="44.29471" lon="2.96094">
        <ele>1012.2</ele>
        <time>2021-08-20T12:58:39Z</time>
      </trkpt>
      <trkpt lat="44.2947" lon="2.96096">
        <ele>1012.2</ele>
        <time>2021-08-20T12:58:40Z</time>
      </trkpt>
      <trkpt lat="44.2947" lon="2.96097">
        <ele>1012.2</ele>
        <time>2021-08-20T12:58:42Z</time>
      </trkpt>
      <trkpt lat="44.2947" lon="2.96096">
        <ele>1012.2</ele>
        <time>2021-08-20T12:58:43Z</time>
      </trkpt>
      <trkpt lat="44.29471" lon="2.96095">
        <ele>1012.2</ele>
        <time>2021-08-20T12:58:44Z</time>
      </trkpt>
      <trkpt lat="44.29471" lon="2.96096">
        <ele>1012.6</ele>
        <time>2021-08-20T12:59:59Z</time>
      </trkpt>
      <trkpt lat="44.2947" lon="2.961">
        <ele>1012.8</ele>
        <time>2021-08-20T13:00:01Z</time>
      </trkpt>
      <trkpt lat="44.29466" lon="2.96115">
        <ele>1013</ele>
        <time>2021-08-20T13:00:06Z</time>
      </trkpt>
      <trkpt lat="44.29466" lon="2.96117">
        <ele>1013</ele>
        <time>2021-08-20T13:00:07Z</time>
      </trkpt>
      <trkpt lat="44.29465" lon="2.9612">
        <ele>1013</ele>
        <time>2021-08-20T13:00:08Z</time>
      </trkpt>
      <trkpt lat="44.29465" lon="2.96122">
        <ele>1013</ele>
        <time>2021-08-20T13:00:09Z</time>
      </trkpt>
      <trkpt lat="44.29464" lon="2.96124">
        <ele>1013</ele>
        <time>2021-08-20T13:00:10Z</time>
      </trkpt>
      <trkpt lat="44.29464" lon="2.96125">
        <ele>1013</ele>
        <time>2021-08-20T13:00:11Z</time>
      </trkpt>
      <trkpt lat="44.29464" lon="2.9612">
        <ele>1013</ele>
        <time>2021-08-20T13:00:22Z</time>
      </trkpt>
      <trkpt lat="44.29465" lon="2.96118">
        <ele>1013</ele>
        <time>2021-08-20T13:00:23Z</time>
      </trkpt>
      <trkpt lat="44.29466" lon="2.96115">
        <ele>1013</ele>
        <time>2021-08-20T13:00:24Z</time>
      </trkpt>
      <trkpt lat="44.29468" lon="2.96112">
        <ele>1013</ele>
        <time>2021-08-20T13:00:25Z</time>
      </trkpt>
      <trkpt lat="44.29469" lon="2.96109">
        <ele>1013</ele>
        <time>2021-08-20T13:00:26Z</time>
      </trkpt>
      <trkpt lat="44.2947" lon="2.96105">
        <ele>1013</ele>
        <time>2021-08-20T13:00:27Z</time>
      </trkpt>
      <trkpt lat="44.29472" lon="2.96102">
        <ele>1013</ele>
        <time>2021-08-20T13:00:28Z</time>
      </trkpt>
      <trkpt lat="44.29473" lon="2.96098">
        <ele>1013</ele>
        <time>2021-08-20T13:00:29Z</time>
      </trkpt>
      <trkpt lat="44.29474" lon="2.96095">
        <ele>1013</ele>
        <time>2021-08-20T13:00:30Z</time>
      </trkpt>
      <trkpt lat="44.29475" lon="2.96093">
        <ele>1013</ele>
        <time>2021-08-20T13:00:31Z</time>
      </trkpt>
      <trkpt lat="44.29475" lon="2.96091">
        <ele>1013</ele>
        <time>2021-08-20T13:00:32Z</time>
      </trkpt>
      <trkpt lat="44.29474" lon="2.9609">
        <ele>1013</ele>
        <time>2021-08-20T13:00:33Z</time>
      </trkpt>
      <trkpt lat="44.29472" lon="2.96091">
        <ele>1013</ele>
        <time>2021-08-20T13:00:34Z</time>
      </trkpt>
      <trkpt lat="44.29471" lon="2.96093">
        <ele>1013.2</ele>
        <time>2021-08-20T13:00:35Z</time>
      </trkpt>
      <trkpt lat="44.2947" lon="2.96096">
        <ele>1013.2</ele>
        <time>2021-08-20T13:00:36Z</time>
      </trkpt>
      <trkpt lat="44.2947" lon="2.96098">
        <ele>1013.2</ele>
        <time>2021-08-20T13:00:37Z</time>
      </trkpt>
      <trkpt lat="44.29466" lon="2.96113">
        <ele>1013.4</ele>
        <time>2021-08-20T13:00:42Z</time>
      </trkpt>
      <trkpt lat="44.29465" lon="2.96117">
        <ele>1013.2</ele>
        <time>2021-08-20T13:00:43Z</time>
      </trkpt>
      <trkpt lat="44.29464" lon="2.9612">
        <ele>1013.2</ele>
        <time>2021-08-20T13:00:44Z</time>
      </trkpt>
      <trkpt lat="44.29463" lon="2.96123">
        <ele>1013.2</ele>
        <time>2021-08-20T13:00:45Z</time>
      </trkpt>
      <trkpt lat="44.29462" lon="2.96126">
        <ele>1013.2</ele>
        <time>2021-08-20T13:00:46Z</time>
      </trkpt>
      <trkpt lat="44.2946" lon="2.96135">
        <ele>1013</ele>
        <time>2021-08-20T13:00:49Z</time>
      </trkpt>
      <trkpt lat="44.29449" lon="2.96167">
        <ele>1013</ele>
        <time>2021-08-20T13:00:57Z</time>
      </trkpt>
      <trkpt lat="44.29448" lon="2.96172">
        <ele>1013.2</ele>
        <time>2021-08-20T13:00:58Z</time>
      </trkpt>
      <trkpt lat="44.29446" lon="2.96179">
        <ele>1013.2</ele>
        <time>2021-08-20T13:01:00Z</time>
      </trkpt>
      <trkpt lat="44.29445" lon="2.96183">
        <ele>1013.2</ele>
        <time>2021-08-20T13:01:01Z</time>
      </trkpt>
      <trkpt lat="44.29444" lon="2.96186">
        <ele>1013.4</ele>
        <time>2021-08-20T13:01:02Z</time>
      </trkpt>
      <trkpt lat="44.29443" lon="2.9619">
        <ele>1013.4</ele>
        <time>2021-08-20T13:01:03Z</time>
      </trkpt>
      <trkpt lat="44.29442" lon="2.96193">
        <ele>1013.6</ele>
        <time>2021-08-20T13:01:04Z</time>
      </trkpt>
      <trkpt lat="44.29441" lon="2.96196">
        <ele>1013.6</ele>
        <time>2021-08-20T13:01:05Z</time>
      </trkpt>
      <trkpt lat="44.29434" lon="2.96219">
        <ele>1014</ele>
        <time>2021-08-20T13:01:11Z</time>
      </trkpt>
      <trkpt lat="44.29431" lon="2.96228">
        <ele>1014.2</ele>
        <time>2021-08-20T13:01:13Z</time>
      </trkpt>
      <trkpt lat="44.29424" lon="2.96253">
        <ele>1014.2</ele>
        <time>2021-08-20T13:01:18Z</time>
      </trkpt>
      <trkpt lat="44.2942" lon="2.96269">
        <ele>1014.4</ele>
        <time>2021-08-20T13:01:21Z</time>
      </trkpt>
      <trkpt lat="44.29419" lon="2.96273">
        <ele>1014.4</ele>
        <time>2021-08-20T13:01:22Z</time>
      </trkpt>
      <trkpt lat="44.29417" lon="2.96279">
        <ele>1014.6</ele>
        <time>2021-08-20T13:01:23Z</time>
      </trkpt>
      <trkpt lat="44.29412" lon="2.96295">
        <ele>1014.8</ele>
        <time>2021-08-20T13:01:26Z</time>
      </trkpt>
      <trkpt lat="44.29409" lon="2.96305">
        <ele>1015.2</ele>
        <time>2021-08-20T13:01:28Z</time>
      </trkpt>
      <trkpt lat="44.294" lon="2.96334">
        <ele>1015.6</ele>
        <time>2021-08-20T13:01:33Z</time>
      </trkpt>
      <trkpt lat="44.29398" lon="2.96338">
        <ele>1015.8</ele>
        <time>2021-08-20T13:01:34Z</time>
      </trkpt>
      <trkpt lat="44.29395" lon="2.9635">
        <ele>1016.4</ele>
        <time>2021-08-20T13:01:36Z</time>
      </trkpt>
      <trkpt lat="44.29384" lon="2.96379">
        <ele>1017.4</ele>
        <time>2021-08-20T13:01:41Z</time>
      </trkpt>
      <trkpt lat="44.29381" lon="2.96386">
        <ele>1017.6</ele>
        <time>2021-08-20T13:01:42Z</time>
      </trkpt>
      <trkpt lat="44.29379" lon="2.96391">
        <ele>1017.6</ele>
        <time>2021-08-20T13:01:43Z</time>
      </trkpt>
      <trkpt lat="44.29376" lon="2.96398">
        <ele>1017.8</ele>
        <time>2021-08-20T13:01:44Z</time>
      </trkpt>
      <trkpt lat="44.29374" lon="2.96403">
        <ele>1017.8</ele>
        <time>2021-08-20T13:01:45Z</time>
      </trkpt>
      <trkpt lat="44.29371" lon="2.96409">
        <ele>1018</ele>
        <time>2021-08-20T13:01:46Z</time>
      </trkpt>
      <trkpt lat="44.29368" lon="2.96415">
        <ele>1018</ele>
        <time>2021-08-20T13:01:47Z</time>
      </trkpt>
      <trkpt lat="44.29366" lon="2.96421">
        <ele>1018.2</ele>
        <time>2021-08-20T13:01:48Z</time>
      </trkpt>
      <trkpt lat="44.29363" lon="2.96427">
        <ele>1018.2</ele>
        <time>2021-08-20T13:01:49Z</time>
      </trkpt>
      <trkpt lat="44.29361" lon="2.96434">
        <ele>1018.6</ele>
        <time>2021-08-20T13:01:50Z</time>
      </trkpt>
      <trkpt lat="44.29358" lon="2.9644">
        <ele>1019</ele>
        <time>2021-08-20T13:01:51Z</time>
      </trkpt>
      <trkpt lat="44.29356" lon="2.96446">
        <ele>1019.2</ele>
        <time>2021-08-20T13:01:52Z</time>
      </trkpt>
      <trkpt lat="44.29353" lon="2.96452">
        <ele>1019.6</ele>
        <time>2021-08-20T13:01:53Z</time>
      </trkpt>
      <trkpt lat="44.29351" lon="2.96458">
        <ele>1019.6</ele>
        <time>2021-08-20T13:01:54Z</time>
      </trkpt>
      <trkpt lat="44.29349" lon="2.96465">
        <ele>1019.8</ele>
        <time>2021-08-20T13:01:55Z</time>
      </trkpt>
      <trkpt lat="44.29346" lon="2.96471">
        <ele>1019.8</ele>
        <time>2021-08-20T13:01:56Z</time>
      </trkpt>
      <trkpt lat="44.29344" lon="2.96477">
        <ele>1020</ele>
        <time>2021-08-20T13:01:57Z</time>
      </trkpt>
      <trkpt lat="44.29341" lon="2.96482">
        <ele>1020.2</ele>
        <time>2021-08-20T13:01:58Z</time>
      </trkpt>
      <trkpt lat="44.29339" lon="2.96488">
        <ele>1020.4</ele>
        <time>2021-08-20T13:01:59Z</time>
      </trkpt>
      <trkpt lat="44.29336" lon="2.96494">
        <ele>1020.4</ele>
        <time>2021-08-20T13:02:00Z</time>
      </trkpt>
      <trkpt lat="44.29334" lon="2.96501">
        <ele>1020.6</ele>
        <time>2021-08-20T13:02:01Z</time>
      </trkpt>
      <trkpt lat="44.29332" lon="2.96507">
        <ele>1020.6</ele>
        <time>2021-08-20T13:02:02Z</time>
      </trkpt>
      <trkpt lat="44.29329" lon="2.96513">
        <ele>1020.6</ele>
        <time>2021-08-20T13:02:03Z</time>
      </trkpt>
      <trkpt lat="44.29327" lon="2.96518">
        <ele>1020.8</ele>
        <time>2021-08-20T13:02:04Z</time>
      </trkpt>
      <trkpt lat="44.29324" lon="2.96524">
        <ele>1020.8</ele>
        <time>2021-08-20T13:02:05Z</time>
      </trkpt>
      <trkpt lat="44.29322" lon="2.96529">
        <ele>1021</ele>
        <time>2021-08-20T13:02:06Z</time>
      </trkpt>
      <trkpt lat="44.2932" lon="2.96535">
        <ele>1021.2</ele>
        <time>2021-08-20T13:02:07Z</time>
      </trkpt>
      <trkpt lat="44.29318" lon="2.96541">
        <ele>1021.4</ele>
        <time>2021-08-20T13:02:08Z</time>
      </trkpt>
      <trkpt lat="44.29317" lon="2.96545">
        <ele>1021.4</ele>
        <time>2021-08-20T13:02:09Z</time>
      </trkpt>
      <trkpt lat="44.29315" lon="2.96551">
        <ele>1021.4</ele>
        <time>2021-08-20T13:02:10Z</time>
      </trkpt>
      <trkpt lat="44.29313" lon="2.96557">
        <ele>1021.6</ele>
        <time>2021-08-20T13:02:11Z</time>
      </trkpt>
      <trkpt lat="44.2931" lon="2.96563">
        <ele>1021.6</ele>
        <time>2021-08-20T13:02:12Z</time>
      </trkpt>
      <trkpt lat="44.29308" lon="2.96568">
        <ele>1021.8</ele>
        <time>2021-08-20T13:02:13Z</time>
      </trkpt>
      <trkpt lat="44.29306" lon="2.96573">
        <ele>1022.2</ele>
        <time>2021-08-20T13:02:14Z</time>
      </trkpt>
      <trkpt lat="44.29303" lon="2.96579">
        <ele>1022</ele>
        <time>2021-08-20T13:02:15Z</time>
      </trkpt>
      <trkpt lat="44.29301" lon="2.96585">
        <ele>1022.2</ele>
        <time>2021-08-20T13:02:16Z</time>
      </trkpt>
      <trkpt lat="44.29299" lon="2.96589">
        <ele>1022.2</ele>
        <time>2021-08-20T13:02:17Z</time>
      </trkpt>
      <trkpt lat="44.29296" lon="2.96594">
        <ele>1022.6</ele>
        <time>2021-08-20T13:02:18Z</time>
      </trkpt>
      <trkpt lat="44.29293" lon="2.96599">
        <ele>1022.6</ele>
        <time>2021-08-20T13:02:19Z</time>
      </trkpt>
      <trkpt lat="44.29289" lon="2.96605">
        <ele>1022.6</ele>
        <time>2021-08-20T13:02:20Z</time>
      </trkpt>
      <trkpt lat="44.29286" lon="2.96609">
        <ele>1022.8</ele>
        <time>2021-08-20T13:02:21Z</time>
      </trkpt>
      <trkpt lat="44.29283" lon="2.96614">
        <ele>1022.8</ele>
        <time>2021-08-20T13:02:22Z</time>
      </trkpt>
      <trkpt lat="44.2928" lon="2.96617">
        <ele>1022.8</ele>
        <time>2021-08-20T13:02:23Z</time>
      </trkpt>
      <trkpt lat="44.29275" lon="2.96622">
        <ele>1022.8</ele>
        <time>2021-08-20T13:02:24Z</time>
      </trkpt>
      <trkpt lat="44.29272" lon="2.96627">
        <ele>1023</ele>
        <time>2021-08-20T13:02:25Z</time>
      </trkpt>
      <trkpt lat="44.29268" lon="2.96631">
        <ele>1023</ele>
        <time>2021-08-20T13:02:26Z</time>
      </trkpt>
      <trkpt lat="44.29264" lon="2.96636">
        <ele>1023</ele>
        <time>2021-08-20T13:02:27Z</time>
      </trkpt>
      <trkpt lat="44.29261" lon="2.96639">
        <ele>1023</ele>
        <time>2021-08-20T13:02:28Z</time>
      </trkpt>
      <trkpt lat="44.29256" lon="2.96645">
        <ele>1023</ele>
        <time>2021-08-20T13:02:29Z</time>
      </trkpt>
      <trkpt lat="44.29253" lon="2.96649">
        <ele>1023.2</ele>
        <time>2021-08-20T13:02:30Z</time>
      </trkpt>
      <trkpt lat="44.2925" lon="2.96652">
        <ele>1023.2</ele>
        <time>2021-08-20T13:02:31Z</time>
      </trkpt>
      <trkpt lat="44.29247" lon="2.96657">
        <ele>1023.2</ele>
        <time>2021-08-20T13:02:32Z</time>
      </trkpt>
      <trkpt lat="44.29243" lon="2.96662">
        <ele>1023.2</ele>
        <time>2021-08-20T13:02:33Z</time>
      </trkpt>
      <trkpt lat="44.2924" lon="2.96665">
        <ele>1023.6</ele>
        <time>2021-08-20T13:02:34Z</time>
      </trkpt>
      <trkpt lat="44.29236" lon="2.96669">
        <ele>1023.6</ele>
        <time>2021-08-20T13:02:35Z</time>
      </trkpt>
      <trkpt lat="44.29233" lon="2.96673">
        <ele>1023.8</ele>
        <time>2021-08-20T13:02:36Z</time>
      </trkpt>
      <trkpt lat="44.29232" lon="2.96675">
        <ele>1024</ele>
        <time>2021-08-20T13:02:37Z</time>
      </trkpt>
      <trkpt lat="44.29229" lon="2.96679">
        <ele>1024.2</ele>
        <time>2021-08-20T13:02:38Z</time>
      </trkpt>
      <trkpt lat="44.29228" lon="2.9668">
        <ele>1024.2</ele>
        <time>2021-08-20T13:02:39Z</time>
      </trkpt>
      <trkpt lat="44.29226" lon="2.96682">
        <ele>1024.6</ele>
        <time>2021-08-20T13:02:40Z</time>
      </trkpt>
      <trkpt lat="44.29224" lon="2.96683">
        <ele>1024.8</ele>
        <time>2021-08-20T13:02:41Z</time>
      </trkpt>
      <trkpt lat="44.2922" lon="2.96687">
        <ele>1025.6</ele>
        <time>2021-08-20T13:02:43Z</time>
      </trkpt>
      <trkpt lat="44.29219" lon="2.96689">
        <ele>1025.8</ele>
        <time>2021-08-20T13:02:44Z</time>
      </trkpt>
      <trkpt lat="44.29218" lon="2.9669">
        <ele>1026.2</ele>
        <time>2021-08-20T13:02:45Z</time>
      </trkpt>
      <trkpt lat="44.29217" lon="2.96692">
        <ele>1026.2</ele>
        <time>2021-08-20T13:02:46Z</time>
      </trkpt>
      <trkpt lat="44.29215" lon="2.96694">
        <ele>1026.6</ele>
        <time>2021-08-20T13:02:47Z</time>
      </trkpt>
      <trkpt lat="44.29214" lon="2.96697">
        <ele>1026.6</ele>
        <time>2021-08-20T13:02:48Z</time>
      </trkpt>
      <trkpt lat="44.29213" lon="2.96698">
        <ele>1026.8</ele>
        <time>2021-08-20T13:02:49Z</time>
      </trkpt>
      <trkpt lat="44.29212" lon="2.967">
        <ele>1027</ele>
        <time>2021-08-20T13:02:50Z</time>
      </trkpt>
      <trkpt lat="44.2921" lon="2.96702">
        <ele>1027.2</ele>
        <time>2021-08-20T13:02:51Z</time>
      </trkpt>
      <trkpt lat="44.29208" lon="2.96705">
        <ele>1027.6</ele>
        <time>2021-08-20T13:02:52Z</time>
      </trkpt>
      <trkpt lat="44.29207" lon="2.96707">
        <ele>1027.6</ele>
        <time>2021-08-20T13:02:53Z</time>
      </trkpt>
      <trkpt lat="44.29205" lon="2.96709">
        <ele>1028</ele>
        <time>2021-08-20T13:02:54Z</time>
      </trkpt>
      <trkpt lat="44.29204" lon="2.96711">
        <ele>1028.2</ele>
        <time>2021-08-20T13:02:55Z</time>
      </trkpt>
      <trkpt lat="44.29203" lon="2.96713">
        <ele>1028.4</ele>
        <time>2021-08-20T13:02:56Z</time>
      </trkpt>
      <trkpt lat="44.29201" lon="2.96715">
        <ele>1028.6</ele>
        <time>2021-08-20T13:02:57Z</time>
      </trkpt>
      <trkpt lat="44.29199" lon="2.96717">
        <ele>1029</ele>
        <time>2021-08-20T13:02:58Z</time>
      </trkpt>
      <trkpt lat="44.29198" lon="2.9672">
        <ele>1029.4</ele>
        <time>2021-08-20T13:02:59Z</time>
      </trkpt>
      <trkpt lat="44.29197" lon="2.96722">
        <ele>1029.6</ele>
        <time>2021-08-20T13:03:00Z</time>
      </trkpt>
      <trkpt lat="44.29195" lon="2.96724">
        <ele>1029.8</ele>
        <time>2021-08-20T13:03:01Z</time>
      </trkpt>
      <trkpt lat="44.29194" lon="2.96726">
        <ele>1030</ele>
        <time>2021-08-20T13:03:02Z</time>
      </trkpt>
      <trkpt lat="44.29193" lon="2.96728">
        <ele>1030.4</ele>
        <time>2021-08-20T13:03:03Z</time>
      </trkpt>
      <trkpt lat="44.29192" lon="2.9673">
        <ele>1030.6</ele>
        <time>2021-08-20T13:03:04Z</time>
      </trkpt>
      <trkpt lat="44.2919" lon="2.96732">
        <ele>1030.8</ele>
        <time>2021-08-20T13:03:05Z</time>
      </trkpt>
      <trkpt lat="44.29188" lon="2.96734">
        <ele>1031.2</ele>
        <time>2021-08-20T13:03:06Z</time>
      </trkpt>
      <trkpt lat="44.29187" lon="2.96736">
        <ele>1031.2</ele>
        <time>2021-08-20T13:03:07Z</time>
      </trkpt>
      <trkpt lat="44.29186" lon="2.96737">
        <ele>1031.4</ele>
        <time>2021-08-20T13:03:08Z</time>
      </trkpt>
      <trkpt lat="44.29185" lon="2.96739">
        <ele>1031.6</ele>
        <time>2021-08-20T13:03:09Z</time>
      </trkpt>
      <trkpt lat="44.29183" lon="2.96742">
        <ele>1031.8</ele>
        <time>2021-08-20T13:03:10Z</time>
      </trkpt>
      <trkpt lat="44.29182" lon="2.96744">
        <ele>1031.8</ele>
        <time>2021-08-20T13:03:11Z</time>
      </trkpt>
      <trkpt lat="44.29181" lon="2.96746">
        <ele>1032</ele>
        <time>2021-08-20T13:03:12Z</time>
      </trkpt>
      <trkpt lat="44.29179" lon="2.96747">
        <ele>1032.2</ele>
        <time>2021-08-20T13:03:13Z</time>
      </trkpt>
      <trkpt lat="44.29178" lon="2.96749">
        <ele>1032.4</ele>
        <time>2021-08-20T13:03:14Z</time>
      </trkpt>
      <trkpt lat="44.29176" lon="2.96751">
        <ele>1032.6</ele>
        <time>2021-08-20T13:03:15Z</time>
      </trkpt>
      <trkpt lat="44.29175" lon="2.96754">
        <ele>1032.8</ele>
        <time>2021-08-20T13:03:16Z</time>
      </trkpt>
      <trkpt lat="44.29174" lon="2.96755">
        <ele>1033</ele>
        <time>2021-08-20T13:03:17Z</time>
      </trkpt>
      <trkpt lat="44.29173" lon="2.96758">
        <ele>1033.2</ele>
        <time>2021-08-20T13:03:18Z</time>
      </trkpt>
      <trkpt lat="44.29171" lon="2.9676">
        <ele>1033.2</ele>
        <time>2021-08-20T13:03:19Z</time>
      </trkpt>
      <trkpt lat="44.2917" lon="2.96763">
        <ele>1033.4</ele>
        <time>2021-08-20T13:03:20Z</time>
      </trkpt>
      <trkpt lat="44.29169" lon="2.96765">
        <ele>1033.4</ele>
        <time>2021-08-20T13:03:21Z</time>
      </trkpt>
      <trkpt lat="44.29168" lon="2.96767">
        <ele>1033.6</ele>
        <time>2021-08-20T13:03:22Z</time>
      </trkpt>
      <trkpt lat="44.29167" lon="2.96769">
        <ele>1034</ele>
        <time>2021-08-20T13:03:23Z</time>
      </trkpt>
      <trkpt lat="44.29165" lon="2.96771">
        <ele>1034.2</ele>
        <time>2021-08-20T13:03:24Z</time>
      </trkpt>
      <trkpt lat="44.29164" lon="2.96774">
        <ele>1034.4</ele>
        <time>2021-08-20T13:03:25Z</time>
      </trkpt>
      <trkpt lat="44.29163" lon="2.96776">
        <ele>1034.6</ele>
        <time>2021-08-20T13:03:26Z</time>
      </trkpt>
      <trkpt lat="44.29163" lon="2.96778">
        <ele>1034.8</ele>
        <time>2021-08-20T13:03:27Z</time>
      </trkpt>
      <trkpt lat="44.29162" lon="2.96781">
        <ele>1035</ele>
        <time>2021-08-20T13:03:28Z</time>
      </trkpt>
      <trkpt lat="44.2916" lon="2.96783">
        <ele>1035</ele>
        <time>2021-08-20T13:03:29Z</time>
      </trkpt>
      <trkpt lat="44.29159" lon="2.96785">
        <ele>1035.2</ele>
        <time>2021-08-20T13:03:30Z</time>
      </trkpt>
      <trkpt lat="44.29158" lon="2.96788">
        <ele>1035.4</ele>
        <time>2021-08-20T13:03:31Z</time>
      </trkpt>
      <trkpt lat="44.29158" lon="2.9679">
        <ele>1035.4</ele>
        <time>2021-08-20T13:03:32Z</time>
      </trkpt>
      <trkpt lat="44.29156" lon="2.96793">
        <ele>1035.6</ele>
        <time>2021-08-20T13:03:33Z</time>
      </trkpt>
      <trkpt lat="44.29156" lon="2.96796">
        <ele>1035.6</ele>
        <time>2021-08-20T13:03:34Z</time>
      </trkpt>
      <trkpt lat="44.29155" lon="2.96798">
        <ele>1035.8</ele>
        <time>2021-08-20T13:03:35Z</time>
      </trkpt>
      <trkpt lat="44.29154" lon="2.96801">
        <ele>1036</ele>
        <time>2021-08-20T13:03:36Z</time>
      </trkpt>
      <trkpt lat="44.29154" lon="2.96804">
        <ele>1036</ele>
        <time>2021-08-20T13:03:37Z</time>
      </trkpt>
      <trkpt lat="44.29153" lon="2.96806">
        <ele>1036.2</ele>
        <time>2021-08-20T13:03:38Z</time>
      </trkpt>
      <trkpt lat="44.29152" lon="2.96809">
        <ele>1036.4</ele>
        <time>2021-08-20T13:03:39Z</time>
      </trkpt>
      <trkpt lat="44.29152" lon="2.96811">
        <ele>1036.6</ele>
        <time>2021-08-20T13:03:40Z</time>
      </trkpt>
      <trkpt lat="44.29151" lon="2.96813">
        <ele>1036.6</ele>
        <time>2021-08-20T13:03:41Z</time>
      </trkpt>
      <trkpt lat="44.2915" lon="2.96816">
        <ele>1036.8</ele>
        <time>2021-08-20T13:03:42Z</time>
      </trkpt>
      <trkpt lat="44.29149" lon="2.96819">
        <ele>1037</ele>
        <time>2021-08-20T13:03:43Z</time>
      </trkpt>
      <trkpt lat="44.29148" lon="2.96821">
        <ele>1037.2</ele>
        <time>2021-08-20T13:03:44Z</time>
      </trkpt>
      <trkpt lat="44.29147" lon="2.96823">
        <ele>1037.4</ele>
        <time>2021-08-20T13:03:45Z</time>
      </trkpt>
      <trkpt lat="44.29146" lon="2.96825">
        <ele>1037.4</ele>
        <time>2021-08-20T13:03:46Z</time>
      </trkpt>
      <trkpt lat="44.29145" lon="2.96828">
        <ele>1037.6</ele>
        <time>2021-08-20T13:03:47Z</time>
      </trkpt>
      <trkpt lat="44.29144" lon="2.9683">
        <ele>1037.6</ele>
        <time>2021-08-20T13:03:48Z</time>
      </trkpt>
      <trkpt lat="44.29143" lon="2.96832">
        <ele>1037.8</ele>
        <time>2021-08-20T13:03:49Z</time>
      </trkpt>
      <trkpt lat="44.29142" lon="2.96834">
        <ele>1037.8</ele>
        <time>2021-08-20T13:03:50Z</time>
      </trkpt>
      <trkpt lat="44.29141" lon="2.96836">
        <ele>1038</ele>
        <time>2021-08-20T13:03:51Z</time>
      </trkpt>
      <trkpt lat="44.2914" lon="2.96839">
        <ele>1038.2</ele>
        <time>2021-08-20T13:03:52Z</time>
      </trkpt>
      <trkpt lat="44.29139" lon="2.96842">
        <ele>1038.4</ele>
        <time>2021-08-20T13:03:53Z</time>
      </trkpt>
      <trkpt lat="44.29138" lon="2.96844">
        <ele>1038.6</ele>
        <time>2021-08-20T13:03:54Z</time>
      </trkpt>
      <trkpt lat="44.29137" lon="2.96846">
        <ele>1039</ele>
        <time>2021-08-20T13:03:55Z</time>
      </trkpt>
      <trkpt lat="44.29137" lon="2.96849">
        <ele>1039.2</ele>
        <time>2021-08-20T13:03:56Z</time>
      </trkpt>
      <trkpt lat="44.29136" lon="2.96852">
        <ele>1039.2</ele>
        <time>2021-08-20T13:03:57Z</time>
      </trkpt>
      <trkpt lat="44.29136" lon="2.96854">
        <ele>1039.4</ele>
        <time>2021-08-20T13:03:58Z</time>
      </trkpt>
      <trkpt lat="44.29135" lon="2.96856">
        <ele>1039.4</ele>
        <time>2021-08-20T13:03:59Z</time>
      </trkpt>
      <trkpt lat="44.29134" lon="2.96859">
        <ele>1039.6</ele>
        <time>2021-08-20T13:04:00Z</time>
      </trkpt>
      <trkpt lat="44.29133" lon="2.96862">
        <ele>1039.6</ele>
        <time>2021-08-20T13:04:01Z</time>
      </trkpt>
      <trkpt lat="44.29132" lon="2.96864">
        <ele>1039.8</ele>
        <time>2021-08-20T13:04:02Z</time>
      </trkpt>
      <trkpt lat="44.29132" lon="2.96866">
        <ele>1039.8</ele>
        <time>2021-08-20T13:04:03Z</time>
      </trkpt>
      <trkpt lat="44.29131" lon="2.96868">
        <ele>1040</ele>
        <time>2021-08-20T13:04:04Z</time>
      </trkpt>
      <trkpt lat="44.2913" lon="2.96871">
        <ele>1040.2</ele>
        <time>2021-08-20T13:04:05Z</time>
      </trkpt>
      <trkpt lat="44.29129" lon="2.96873">
        <ele>1040.4</ele>
        <time>2021-08-20T13:04:06Z</time>
      </trkpt>
      <trkpt lat="44.29129" lon="2.96876">
        <ele>1040.6</ele>
        <time>2021-08-20T13:04:07Z</time>
      </trkpt>
      <trkpt lat="44.29128" lon="2.96878">
        <ele>1040.6</ele>
        <time>2021-08-20T13:04:08Z</time>
      </trkpt>
      <trkpt lat="44.29127" lon="2.9688">
        <ele>1040.8</ele>
        <time>2021-08-20T13:04:09Z</time>
      </trkpt>
      <trkpt lat="44.29126" lon="2.96883">
        <ele>1040.8</ele>
        <time>2021-08-20T13:04:10Z</time>
      </trkpt>
      <trkpt lat="44.29125" lon="2.96885">
        <ele>1040.8</ele>
        <time>2021-08-20T13:04:11Z</time>
      </trkpt>
      <trkpt lat="44.29124" lon="2.96887">
        <ele>1040.8</ele>
        <time>2021-08-20T13:04:12Z</time>
      </trkpt>
      <trkpt lat="44.29124" lon="2.96889">
        <ele>1040.8</ele>
        <time>2021-08-20T13:04:13Z</time>
      </trkpt>
      <trkpt lat="44.29122" lon="2.96892">
        <ele>1040.8</ele>
        <time>2021-08-20T13:04:14Z</time>
      </trkpt>
      <trkpt lat="44.29121" lon="2.96894">
        <ele>1040.8</ele>
        <time>2021-08-20T13:04:15Z</time>
      </trkpt>
      <trkpt lat="44.29119" lon="2.96897">
        <ele>1041</ele>
        <time>2021-08-20T13:04:16Z</time>
      </trkpt>
      <trkpt lat="44.29117" lon="2.96899">
        <ele>1040.8</ele>
        <time>2021-08-20T13:04:17Z</time>
      </trkpt>
      <trkpt lat="44.29116" lon="2.96901">
        <ele>1040.8</ele>
        <time>2021-08-20T13:04:18Z</time>
      </trkpt>
      <trkpt lat="44.29115" lon="2.96903">
        <ele>1040.8</ele>
        <time>2021-08-20T13:04:19Z</time>
      </trkpt>
      <trkpt lat="44.29114" lon="2.96905">
        <ele>1040.8</ele>
        <time>2021-08-20T13:04:20Z</time>
      </trkpt>
      <trkpt lat="44.29113" lon="2.96905">
        <ele>1040.8</ele>
        <time>2021-08-20T13:04:21Z</time>
      </trkpt>
      <trkpt lat="44.29114" lon="2.96906">
        <ele>1041</ele>
        <time>2021-08-20T13:06:20Z</time>
      </trkpt>
      <trkpt lat="44.29114" lon="2.96908">
        <ele>1041</ele>
        <time>2021-08-20T13:06:21Z</time>
      </trkpt>
      <trkpt lat="44.29117" lon="2.96932">
        <ele>1041</ele>
        <time>2021-08-20T13:06:27Z</time>
      </trkpt>
      <trkpt lat="44.29125" lon="2.96965">
        <ele>1040.6</ele>
        <time>2021-08-20T13:06:33Z</time>
      </trkpt>
      <trkpt lat="44.29132" lon="2.97006">
        <ele>1039.8</ele>
        <time>2021-08-20T13:06:39Z</time>
      </trkpt>
      <trkpt lat="44.29132" lon="2.97012">
        <ele>1039.8</ele>
        <time>2021-08-20T13:06:40Z</time>
      </trkpt>
      <trkpt lat="44.29131" lon="2.97019">
        <ele>1039.6</ele>
        <time>2021-08-20T13:06:41Z</time>
      </trkpt>
      <trkpt lat="44.2913" lon="2.97025">
        <ele>1039.4</ele>
        <time>2021-08-20T13:06:42Z</time>
      </trkpt>
      <trkpt lat="44.29129" lon="2.9703">
        <ele>1039.4</ele>
        <time>2021-08-20T13:06:43Z</time>
      </trkpt>
      <trkpt lat="44.29129" lon="2.97035">
        <ele>1039.2</ele>
        <time>2021-08-20T13:06:44Z</time>
      </trkpt>
      <trkpt lat="44.29127" lon="2.97041">
        <ele>1039.2</ele>
        <time>2021-08-20T13:06:45Z</time>
      </trkpt>
      <trkpt lat="44.29125" lon="2.97046">
        <ele>1039.2</ele>
        <time>2021-08-20T13:06:46Z</time>
      </trkpt>
      <trkpt lat="44.29116" lon="2.97069">
        <ele>1039.2</ele>
        <time>2021-08-20T13:06:51Z</time>
      </trkpt>
      <trkpt lat="44.29106" lon="2.97087">
        <ele>1039.6</ele>
        <time>2021-08-20T13:06:55Z</time>
      </trkpt>
      <trkpt lat="44.29099" lon="2.971">
        <ele>1039.8</ele>
        <time>2021-08-20T13:06:58Z</time>
      </trkpt>
      <trkpt lat="44.2908" lon="2.97138">
        <ele>1040</ele>
        <time>2021-08-20T13:07:05Z</time>
      </trkpt>
      <trkpt lat="44.29072" lon="2.97162">
        <ele>1039.6</ele>
        <time>2021-08-20T13:07:08Z</time>
      </trkpt>
      <trkpt lat="44.29069" lon="2.97171">
        <ele>1039.4</ele>
        <time>2021-08-20T13:07:09Z</time>
      </trkpt>
      <trkpt lat="44.29066" lon="2.97178">
        <ele>1039.2</ele>
        <time>2021-08-20T13:07:10Z</time>
      </trkpt>
      <trkpt lat="44.29064" lon="2.97184">
        <ele>1038.6</ele>
        <time>2021-08-20T13:07:11Z</time>
      </trkpt>
      <trkpt lat="44.29062" lon="2.97192">
        <ele>1038.4</ele>
        <time>2021-08-20T13:07:12Z</time>
      </trkpt>
      <trkpt lat="44.2906" lon="2.972">
        <ele>1038</ele>
        <time>2021-08-20T13:07:13Z</time>
      </trkpt>
      <trkpt lat="44.29056" lon="2.97217">
        <ele>1037.6</ele>
        <time>2021-08-20T13:07:15Z</time>
      </trkpt>
      <trkpt lat="44.29054" lon="2.97232">
        <ele>1037</ele>
        <time>2021-08-20T13:07:17Z</time>
      </trkpt>
      <trkpt lat="44.29053" lon="2.9724">
        <ele>1036.4</ele>
        <time>2021-08-20T13:07:18Z</time>
      </trkpt>
      <trkpt lat="44.29052" lon="2.97259">
        <ele>1035.6</ele>
        <time>2021-08-20T13:07:20Z</time>
      </trkpt>
      <trkpt lat="44.29052" lon="2.97266">
        <ele>1035.2</ele>
        <time>2021-08-20T13:07:21Z</time>
      </trkpt>
      <trkpt lat="44.29052" lon="2.97285">
        <ele>1034.8</ele>
        <time>2021-08-20T13:07:23Z</time>
      </trkpt>
      <trkpt lat="44.29052" lon="2.97293">
        <ele>1034.4</ele>
        <time>2021-08-20T13:07:24Z</time>
      </trkpt>
      <trkpt lat="44.29052" lon="2.97299">
        <ele>1034</ele>
        <time>2021-08-20T13:07:25Z</time>
      </trkpt>
      <trkpt lat="44.29053" lon="2.97307">
        <ele>1033.8</ele>
        <time>2021-08-20T13:07:26Z</time>
      </trkpt>
      <trkpt lat="44.29053" lon="2.97317">
        <ele>1033.4</ele>
        <time>2021-08-20T13:07:27Z</time>
      </trkpt>
      <trkpt lat="44.29056" lon="2.97332">
        <ele>1032.6</ele>
        <time>2021-08-20T13:07:29Z</time>
      </trkpt>
      <trkpt lat="44.29066" lon="2.97355">
        <ele>1032</ele>
        <time>2021-08-20T13:07:32Z</time>
      </trkpt>
      <trkpt lat="44.29073" lon="2.97368">
        <ele>1031.6</ele>
        <time>2021-08-20T13:07:34Z</time>
      </trkpt>
      <trkpt lat="44.29077" lon="2.97375">
        <ele>1031.4</ele>
        <time>2021-08-20T13:07:35Z</time>
      </trkpt>
      <trkpt lat="44.2908" lon="2.97385">
        <ele>1031</ele>
        <time>2021-08-20T13:07:36Z</time>
      </trkpt>
      <trkpt lat="44.29082" lon="2.97393">
        <ele>1030.8</ele>
        <time>2021-08-20T13:07:37Z</time>
      </trkpt>
      <trkpt lat="44.29083" lon="2.97401">
        <ele>1030.6</ele>
        <time>2021-08-20T13:07:38Z</time>
      </trkpt>
      <trkpt lat="44.29084" lon="2.97408">
        <ele>1030.4</ele>
        <time>2021-08-20T13:07:39Z</time>
      </trkpt>
      <trkpt lat="44.29084" lon="2.97418">
        <ele>1030.2</ele>
        <time>2021-08-20T13:07:40Z</time>
      </trkpt>
      <trkpt lat="44.29083" lon="2.97435">
        <ele>1028.8</ele>
        <time>2021-08-20T13:07:42Z</time>
      </trkpt>
      <trkpt lat="44.29083" lon="2.97443">
        <ele>1028.2</ele>
        <time>2021-08-20T13:07:43Z</time>
      </trkpt>
      <trkpt lat="44.29082" lon="2.97453">
        <ele>1027.8</ele>
        <time>2021-08-20T13:07:44Z</time>
      </trkpt>
      <trkpt lat="44.29081" lon="2.97464">
        <ele>1027.2</ele>
        <time>2021-08-20T13:07:45Z</time>
      </trkpt>
      <trkpt lat="44.2908" lon="2.97474">
        <ele>1026.8</ele>
        <time>2021-08-20T13:07:46Z</time>
      </trkpt>
      <trkpt lat="44.29078" lon="2.97483">
        <ele>1026.4</ele>
        <time>2021-08-20T13:07:47Z</time>
      </trkpt>
      <trkpt lat="44.29077" lon="2.9749">
        <ele>1025.8</ele>
        <time>2021-08-20T13:07:48Z</time>
      </trkpt>
      <trkpt lat="44.29074" lon="2.975">
        <ele>1025</ele>
        <time>2021-08-20T13:07:49Z</time>
      </trkpt>
      <trkpt lat="44.29069" lon="2.97517">
        <ele>1023.8</ele>
        <time>2021-08-20T13:07:51Z</time>
      </trkpt>
      <trkpt lat="44.29065" lon="2.97532">
        <ele>1023.2</ele>
        <time>2021-08-20T13:07:53Z</time>
      </trkpt>
      <trkpt lat="44.29062" lon="2.97541">
        <ele>1022.8</ele>
        <time>2021-08-20T13:07:54Z</time>
      </trkpt>
      <trkpt lat="44.29061" lon="2.97549">
        <ele>1022.6</ele>
        <time>2021-08-20T13:07:55Z</time>
      </trkpt>
      <trkpt lat="44.29059" lon="2.97558">
        <ele>1022.2</ele>
        <time>2021-08-20T13:07:56Z</time>
      </trkpt>
      <trkpt lat="44.29058" lon="2.97564">
        <ele>1022.2</ele>
        <time>2021-08-20T13:07:57Z</time>
      </trkpt>
      <trkpt lat="44.29057" lon="2.97571">
        <ele>1022</ele>
        <time>2021-08-20T13:07:58Z</time>
      </trkpt>
      <trkpt lat="44.29056" lon="2.97579">
        <ele>1021.8</ele>
        <time>2021-08-20T13:07:59Z</time>
      </trkpt>
      <trkpt lat="44.29055" lon="2.97586">
        <ele>1021.8</ele>
        <time>2021-08-20T13:08:00Z</time>
      </trkpt>
      <trkpt lat="44.29055" lon="2.97592">
        <ele>1021.8</ele>
        <time>2021-08-20T13:08:01Z</time>
      </trkpt>
      <trkpt lat="44.29048" lon="2.97652">
        <ele>1022</ele>
        <time>2021-08-20T13:08:09Z</time>
      </trkpt>
      <trkpt lat="44.29047" lon="2.97684">
        <ele>1022.8</ele>
        <time>2021-08-20T13:08:13Z</time>
      </trkpt>
      <trkpt lat="44.29048" lon="2.97692">
        <ele>1022.8</ele>
        <time>2021-08-20T13:08:14Z</time>
      </trkpt>
      <trkpt lat="44.29049" lon="2.977">
        <ele>1023</ele>
        <time>2021-08-20T13:08:15Z</time>
      </trkpt>
      <trkpt lat="44.2905" lon="2.97707">
        <ele>1023.2</ele>
        <time>2021-08-20T13:08:16Z</time>
      </trkpt>
      <trkpt lat="44.29052" lon="2.97716">
        <ele>1023.2</ele>
        <time>2021-08-20T13:08:17Z</time>
      </trkpt>
      <trkpt lat="44.29053" lon="2.97723">
        <ele>1023.6</ele>
        <time>2021-08-20T13:08:18Z</time>
      </trkpt>
      <trkpt lat="44.29055" lon="2.9773">
        <ele>1023.6</ele>
        <time>2021-08-20T13:08:19Z</time>
      </trkpt>
      <trkpt lat="44.29063" lon="2.97751">
        <ele>1024.2</ele>
        <time>2021-08-20T13:08:22Z</time>
      </trkpt>
      <trkpt lat="44.29072" lon="2.97769">
        <ele>1025</ele>
        <time>2021-08-20T13:08:25Z</time>
      </trkpt>
      <trkpt lat="44.29076" lon="2.97777">
        <ele>1025.2</ele>
        <time>2021-08-20T13:08:26Z</time>
      </trkpt>
      <trkpt lat="44.29078" lon="2.97782">
        <ele>1025.2</ele>
        <time>2021-08-20T13:08:27Z</time>
      </trkpt>
      <trkpt lat="44.29081" lon="2.9779">
        <ele>1025.6</ele>
        <time>2021-08-20T13:08:28Z</time>
      </trkpt>
      <trkpt lat="44.29083" lon="2.97797">
        <ele>1025.6</ele>
        <time>2021-08-20T13:08:29Z</time>
      </trkpt>
      <trkpt lat="44.29083" lon="2.97803">
        <ele>1025.6</ele>
        <time>2021-08-20T13:08:30Z</time>
      </trkpt>
      <trkpt lat="44.29083" lon="2.97813">
        <ele>1025.6</ele>
        <time>2021-08-20T13:08:31Z</time>
      </trkpt>
      <trkpt lat="44.29081" lon="2.97818">
        <ele>1025.8</ele>
        <time>2021-08-20T13:08:32Z</time>
      </trkpt>
      <trkpt lat="44.29078" lon="2.97825">
        <ele>1025.8</ele>
        <time>2021-08-20T13:08:33Z</time>
      </trkpt>
      <trkpt lat="44.29074" lon="2.9783">
        <ele>1025.8</ele>
        <time>2021-08-20T13:08:34Z</time>
      </trkpt>
      <trkpt lat="44.29071" lon="2.97835">
        <ele>1025.8</ele>
        <time>2021-08-20T13:08:35Z</time>
      </trkpt>
      <trkpt lat="44.29066" lon="2.9784">
        <ele>1025.8</ele>
        <time>2021-08-20T13:08:36Z</time>
      </trkpt>
      <trkpt lat="44.29061" lon="2.97844">
        <ele>1025.8</ele>
        <time>2021-08-20T13:08:37Z</time>
      </trkpt>
      <trkpt lat="44.29056" lon="2.97848">
        <ele>1025.8</ele>
        <time>2021-08-20T13:08:38Z</time>
      </trkpt>
      <trkpt lat="44.29052" lon="2.97851">
        <ele>1025.8</ele>
        <time>2021-08-20T13:08:39Z</time>
      </trkpt>
      <trkpt lat="44.29046" lon="2.97855">
        <ele>1025.8</ele>
        <time>2021-08-20T13:08:40Z</time>
      </trkpt>
      <trkpt lat="44.2904" lon="2.97858">
        <ele>1025.8</ele>
        <time>2021-08-20T13:08:41Z</time>
      </trkpt>
      <trkpt lat="44.2903" lon="2.97865">
        <ele>1025.8</ele>
        <time>2021-08-20T13:08:43Z</time>
      </trkpt>
      <trkpt lat="44.29013" lon="2.97876">
        <ele>1026</ele>
        <time>2021-08-20T13:08:46Z</time>
      </trkpt>
      <trkpt lat="44.29008" lon="2.9788">
        <ele>1026</ele>
        <time>2021-08-20T13:08:47Z</time>
      </trkpt>
      <trkpt lat="44.29003" lon="2.97883">
        <ele>1026.2</ele>
        <time>2021-08-20T13:08:48Z</time>
      </trkpt>
      <trkpt lat="44.28999" lon="2.97886">
        <ele>1026.2</ele>
        <time>2021-08-20T13:08:49Z</time>
      </trkpt>
      <trkpt lat="44.28993" lon="2.9789">
        <ele>1026.4</ele>
        <time>2021-08-20T13:08:50Z</time>
      </trkpt>
      <trkpt lat="44.28989" lon="2.97893">
        <ele>1026.4</ele>
        <time>2021-08-20T13:08:51Z</time>
      </trkpt>
      <trkpt lat="44.28983" lon="2.97896">
        <ele>1026.4</ele>
        <time>2021-08-20T13:08:52Z</time>
      </trkpt>
      <trkpt lat="44.2898" lon="2.97899">
        <ele>1026.4</ele>
        <time>2021-08-20T13:08:53Z</time>
      </trkpt>
      <trkpt lat="44.28974" lon="2.97903">
        <ele>1026.2</ele>
        <time>2021-08-20T13:08:54Z</time>
      </trkpt>
      <trkpt lat="44.28971" lon="2.97906">
        <ele>1026.2</ele>
        <time>2021-08-20T13:08:55Z</time>
      </trkpt>
      <trkpt lat="44.28967" lon="2.97909">
        <ele>1026.2</ele>
        <time>2021-08-20T13:08:56Z</time>
      </trkpt>
      <trkpt lat="44.28963" lon="2.97911">
        <ele>1026.2</ele>
        <time>2021-08-20T13:08:57Z</time>
      </trkpt>
      <trkpt lat="44.28959" lon="2.97914">
        <ele>1026.2</ele>
        <time>2021-08-20T13:08:58Z</time>
      </trkpt>
      <trkpt lat="44.28935" lon="2.97932">
        <ele>1026</ele>
        <time>2021-08-20T13:09:04Z</time>
      </trkpt>
      <trkpt lat="44.28927" lon="2.97939">
        <ele>1025.2</ele>
        <time>2021-08-20T13:09:06Z</time>
      </trkpt>
      <trkpt lat="44.28924" lon="2.97942">
        <ele>1024.8</ele>
        <time>2021-08-20T13:09:07Z</time>
      </trkpt>
      <trkpt lat="44.2892" lon="2.97946">
        <ele>1024.6</ele>
        <time>2021-08-20T13:09:08Z</time>
      </trkpt>
      <trkpt lat="44.28917" lon="2.97949">
        <ele>1024</ele>
        <time>2021-08-20T13:09:09Z</time>
      </trkpt>
      <trkpt lat="44.28914" lon="2.97952">
        <ele>1023.8</ele>
        <time>2021-08-20T13:09:10Z</time>
      </trkpt>
      <trkpt lat="44.28912" lon="2.97954">
        <ele>1023.2</ele>
        <time>2021-08-20T13:09:11Z</time>
      </trkpt>
      <trkpt lat="44.28911" lon="2.97956">
        <ele>1023</ele>
        <time>2021-08-20T13:09:12Z</time>
      </trkpt>
      <trkpt lat="44.28909" lon="2.97957">
        <ele>1022.6</ele>
        <time>2021-08-20T13:09:13Z</time>
      </trkpt>
      <trkpt lat="44.28908" lon="2.97958">
        <ele>1022.2</ele>
        <time>2021-08-20T13:09:14Z</time>
      </trkpt>
      <trkpt lat="44.28906" lon="2.9796">
        <ele>1021.8</ele>
        <time>2021-08-20T13:09:15Z</time>
      </trkpt>
      <trkpt lat="44.28905" lon="2.97961">
        <ele>1021.2</ele>
        <time>2021-08-20T13:09:16Z</time>
      </trkpt>
      <trkpt lat="44.28904" lon="2.97962">
        <ele>1021</ele>
        <time>2021-08-20T13:09:17Z</time>
      </trkpt>
      <trkpt lat="44.28903" lon="2.97962">
        <ele>1020.6</ele>
        <time>2021-08-20T13:09:18Z</time>
      </trkpt>
      <trkpt lat="44.28902" lon="2.97963">
        <ele>1020.4</ele>
        <time>2021-08-20T13:09:19Z</time>
      </trkpt>
      <trkpt lat="44.28901" lon="2.97964">
        <ele>1020.2</ele>
        <time>2021-08-20T13:09:20Z</time>
      </trkpt>
      <trkpt lat="44.289" lon="2.97964">
        <ele>1020</ele>
        <time>2021-08-20T13:09:21Z</time>
      </trkpt>
      <trkpt lat="44.28895" lon="2.9797">
        <ele>1018.8</ele>
        <time>2021-08-20T13:09:26Z</time>
      </trkpt>
      <trkpt lat="44.28894" lon="2.97971">
        <ele>1018.4</ele>
        <time>2021-08-20T13:09:27Z</time>
      </trkpt>
      <trkpt lat="44.28893" lon="2.97972">
        <ele>1018.4</ele>
        <time>2021-08-20T13:09:28Z</time>
      </trkpt>
      <trkpt lat="44.28886" lon="2.97976">
        <ele>1017.6</ele>
        <time>2021-08-20T13:09:32Z</time>
      </trkpt>
      <trkpt lat="44.28879" lon="2.9798">
        <ele>1017.4</ele>
        <time>2021-08-20T13:09:34Z</time>
      </trkpt>
      <trkpt lat="44.28866" lon="2.97989">
        <ele>1017.2</ele>
        <time>2021-08-20T13:09:37Z</time>
      </trkpt>
      <trkpt lat="44.28859" lon="2.97993">
        <ele>1016.8</ele>
        <time>2021-08-20T13:09:39Z</time>
      </trkpt>
      <trkpt lat="44.28854" lon="2.97995">
        <ele>1016.8</ele>
        <time>2021-08-20T13:09:40Z</time>
      </trkpt>
      <trkpt lat="44.2884" lon="2.98002">
        <ele>1015.8</ele>
        <time>2021-08-20T13:09:43Z</time>
      </trkpt>
      <trkpt lat="44.28829" lon="2.98009">
        <ele>1015.2</ele>
        <time>2021-08-20T13:09:45Z</time>
      </trkpt>
      <trkpt lat="44.28819" lon="2.98017">
        <ele>1014.8</ele>
        <time>2021-08-20T13:09:47Z</time>
      </trkpt>
      <trkpt lat="44.28816" lon="2.98021">
        <ele>1014.6</ele>
        <time>2021-08-20T13:09:48Z</time>
      </trkpt>
      <trkpt lat="44.28811" lon="2.98026">
        <ele>1014.6</ele>
        <time>2021-08-20T13:09:49Z</time>
      </trkpt>
      <trkpt lat="44.28807" lon="2.9803">
        <ele>1014.4</ele>
        <time>2021-08-20T13:09:50Z</time>
      </trkpt>
      <trkpt lat="44.28803" lon="2.98034">
        <ele>1014.4</ele>
        <time>2021-08-20T13:09:51Z</time>
      </trkpt>
      <trkpt lat="44.288" lon="2.98037">
        <ele>1014.2</ele>
        <time>2021-08-20T13:09:52Z</time>
      </trkpt>
      <trkpt lat="44.28796" lon="2.98041">
        <ele>1014</ele>
        <time>2021-08-20T13:09:53Z</time>
      </trkpt>
      <trkpt lat="44.28792" lon="2.98045">
        <ele>1013.6</ele>
        <time>2021-08-20T13:09:54Z</time>
      </trkpt>
      <trkpt lat="44.2879" lon="2.98048">
        <ele>1013.6</ele>
        <time>2021-08-20T13:09:55Z</time>
      </trkpt>
      <trkpt lat="44.28776" lon="2.98062">
        <ele>1013.6</ele>
        <time>2021-08-20T13:09:59Z</time>
      </trkpt>
      <trkpt lat="44.28773" lon="2.98065">
        <ele>1013.6</ele>
        <time>2021-08-20T13:10:00Z</time>
      </trkpt>
      <trkpt lat="44.2877" lon="2.98069">
        <ele>1013.8</ele>
        <time>2021-08-20T13:10:01Z</time>
      </trkpt>
      <trkpt lat="44.28761" lon="2.98077">
        <ele>1014.2</ele>
        <time>2021-08-20T13:10:04Z</time>
      </trkpt>
      <trkpt lat="44.28753" lon="2.98084">
        <ele>1014.4</ele>
        <time>2021-08-20T13:10:06Z</time>
      </trkpt>
      <trkpt lat="44.28744" lon="2.98093">
        <ele>1014.6</ele>
        <time>2021-08-20T13:10:08Z</time>
      </trkpt>
      <trkpt lat="44.28718" lon="2.98119">
        <ele>1015.6</ele>
        <time>2021-08-20T13:10:14Z</time>
      </trkpt>
      <trkpt lat="44.28687" lon="2.98152">
        <ele>1016.6</ele>
        <time>2021-08-20T13:10:21Z</time>
      </trkpt>
      <trkpt lat="44.28682" lon="2.98157">
        <ele>1016.8</ele>
        <time>2021-08-20T13:10:22Z</time>
      </trkpt>
      <trkpt lat="44.28678" lon="2.98162">
        <ele>1016.8</ele>
        <time>2021-08-20T13:10:23Z</time>
      </trkpt>
      <trkpt lat="44.28673" lon="2.98166">
        <ele>1016.8</ele>
        <time>2021-08-20T13:10:24Z</time>
      </trkpt>
      <trkpt lat="44.28669" lon="2.98171">
        <ele>1016.8</ele>
        <time>2021-08-20T13:10:25Z</time>
      </trkpt>
      <trkpt lat="44.28665" lon="2.98176">
        <ele>1017</ele>
        <time>2021-08-20T13:10:26Z</time>
      </trkpt>
      <trkpt lat="44.2866" lon="2.9818">
        <ele>1017</ele>
        <time>2021-08-20T13:10:27Z</time>
      </trkpt>
      <trkpt lat="44.28652" lon="2.9819">
        <ele>1017.4</ele>
        <time>2021-08-20T13:10:29Z</time>
      </trkpt>
      <trkpt lat="44.28638" lon="2.98203">
        <ele>1017.6</ele>
        <time>2021-08-20T13:10:32Z</time>
      </trkpt>
      <trkpt lat="44.28633" lon="2.98208">
        <ele>1018</ele>
        <time>2021-08-20T13:10:33Z</time>
      </trkpt>
      <trkpt lat="44.28629" lon="2.98213">
        <ele>1018</ele>
        <time>2021-08-20T13:10:34Z</time>
      </trkpt>
      <trkpt lat="44.28625" lon="2.98218">
        <ele>1018.2</ele>
        <time>2021-08-20T13:10:35Z</time>
      </trkpt>
      <trkpt lat="44.2862" lon="2.98223">
        <ele>1018.2</ele>
        <time>2021-08-20T13:10:36Z</time>
      </trkpt>
      <trkpt lat="44.28616" lon="2.98227">
        <ele>1018.4</ele>
        <time>2021-08-20T13:10:37Z</time>
      </trkpt>
      <trkpt lat="44.28613" lon="2.98231">
        <ele>1018.6</ele>
        <time>2021-08-20T13:10:38Z</time>
      </trkpt>
      <trkpt lat="44.2861" lon="2.98234">
        <ele>1018.6</ele>
        <time>2021-08-20T13:10:39Z</time>
      </trkpt>
      <trkpt lat="44.28608" lon="2.98237">
        <ele>1018.8</ele>
        <time>2021-08-20T13:10:40Z</time>
      </trkpt>
      <trkpt lat="44.28605" lon="2.98239">
        <ele>1018.8</ele>
        <time>2021-08-20T13:10:41Z</time>
      </trkpt>
      <trkpt lat="44.28602" lon="2.98241">
        <ele>1019</ele>
        <time>2021-08-20T13:10:42Z</time>
      </trkpt>
      <trkpt lat="44.286" lon="2.98244">
        <ele>1019</ele>
        <time>2021-08-20T13:10:43Z</time>
      </trkpt>
      <trkpt lat="44.28598" lon="2.98247">
        <ele>1019.2</ele>
        <time>2021-08-20T13:10:44Z</time>
      </trkpt>
      <trkpt lat="44.28596" lon="2.9825">
        <ele>1019.2</ele>
        <time>2021-08-20T13:10:45Z</time>
      </trkpt>
      <trkpt lat="44.28593" lon="2.98252">
        <ele>1019.2</ele>
        <time>2021-08-20T13:10:46Z</time>
      </trkpt>
      <trkpt lat="44.28591" lon="2.98256">
        <ele>1019.4</ele>
        <time>2021-08-20T13:10:47Z</time>
      </trkpt>
      <trkpt lat="44.28589" lon="2.9826">
        <ele>1019.4</ele>
        <time>2021-08-20T13:10:48Z</time>
      </trkpt>
      <trkpt lat="44.28586" lon="2.98264">
        <ele>1019.8</ele>
        <time>2021-08-20T13:10:49Z</time>
      </trkpt>
      <trkpt lat="44.28583" lon="2.98267">
        <ele>1019.8</ele>
        <time>2021-08-20T13:10:50Z</time>
      </trkpt>
      <trkpt lat="44.28581" lon="2.98269">
        <ele>1020</ele>
        <time>2021-08-20T13:10:51Z</time>
      </trkpt>
      <trkpt lat="44.28579" lon="2.98271">
        <ele>1020</ele>
        <time>2021-08-20T13:10:52Z</time>
      </trkpt>
      <trkpt lat="44.28578" lon="2.98273">
        <ele>1020</ele>
        <time>2021-08-20T13:10:53Z</time>
      </trkpt>
      <trkpt lat="44.28576" lon="2.98276">
        <ele>1020</ele>
        <time>2021-08-20T13:10:54Z</time>
      </trkpt>
      <trkpt lat="44.28574" lon="2.98279">
        <ele>1020.2</ele>
        <time>2021-08-20T13:10:55Z</time>
      </trkpt>
      <trkpt lat="44.28572" lon="2.98282">
        <ele>1020.2</ele>
        <time>2021-08-20T13:10:56Z</time>
      </trkpt>
      <trkpt lat="44.28569" lon="2.98286">
        <ele>1020.2</ele>
        <time>2021-08-20T13:10:57Z</time>
      </trkpt>
      <trkpt lat="44.28564" lon="2.98291">
        <ele>1020.4</ele>
        <time>2021-08-20T13:10:58Z</time>
      </trkpt>
      <trkpt lat="44.28561" lon="2.98295">
        <ele>1020.4</ele>
        <time>2021-08-20T13:10:59Z</time>
      </trkpt>
      <trkpt lat="44.28559" lon="2.98298">
        <ele>1020.4</ele>
        <time>2021-08-20T13:11:00Z</time>
      </trkpt>
      <trkpt lat="44.28535" lon="2.98331">
        <ele>1020.8</ele>
        <time>2021-08-20T13:11:06Z</time>
      </trkpt>
      <trkpt lat="44.28526" lon="2.98346">
        <ele>1021</ele>
        <time>2021-08-20T13:11:09Z</time>
      </trkpt>
      <trkpt lat="44.28518" lon="2.98354">
        <ele>1021.2</ele>
        <time>2021-08-20T13:11:11Z</time>
      </trkpt>
      <trkpt lat="44.28514" lon="2.9836">
        <ele>1021.4</ele>
        <time>2021-08-20T13:11:12Z</time>
      </trkpt>
      <trkpt lat="44.28511" lon="2.98365">
        <ele>1021.4</ele>
        <time>2021-08-20T13:11:13Z</time>
      </trkpt>
      <trkpt lat="44.28503" lon="2.98372">
        <ele>1021.8</ele>
        <time>2021-08-20T13:11:15Z</time>
      </trkpt>
      <trkpt lat="44.28492" lon="2.98378">
        <ele>1021.8</ele>
        <time>2021-08-20T13:11:17Z</time>
      </trkpt>
      <trkpt lat="44.28487" lon="2.98386">
        <ele>1021.8</ele>
        <time>2021-08-20T13:11:18Z</time>
      </trkpt>
      <trkpt lat="44.28484" lon="2.9839">
        <ele>1021.8</ele>
        <time>2021-08-20T13:11:19Z</time>
      </trkpt>
      <trkpt lat="44.28468" lon="2.98397">
        <ele>1021.8</ele>
        <time>2021-08-20T13:11:22Z</time>
      </trkpt>
      <trkpt lat="44.28455" lon="2.9841">
        <ele>1021.4</ele>
        <time>2021-08-20T13:11:24Z</time>
      </trkpt>
      <trkpt lat="44.28448" lon="2.98415">
        <ele>1021</ele>
        <time>2021-08-20T13:11:25Z</time>
      </trkpt>
      <trkpt lat="44.28441" lon="2.98419">
        <ele>1021</ele>
        <time>2021-08-20T13:11:26Z</time>
      </trkpt>
      <trkpt lat="44.28437" lon="2.9842">
        <ele>1020.6</ele>
        <time>2021-08-20T13:11:27Z</time>
      </trkpt>
      <trkpt lat="44.28432" lon="2.98419">
        <ele>1020.4</ele>
        <time>2021-08-20T13:11:28Z</time>
      </trkpt>
      <trkpt lat="44.28428" lon="2.9842">
        <ele>1020.4</ele>
        <time>2021-08-20T13:11:29Z</time>
      </trkpt>
      <trkpt lat="44.28423" lon="2.9842">
        <ele>1020.2</ele>
        <time>2021-08-20T13:11:30Z</time>
      </trkpt>
      <trkpt lat="44.28418" lon="2.98421">
        <ele>1020</ele>
        <time>2021-08-20T13:11:31Z</time>
      </trkpt>
      <trkpt lat="44.28409" lon="2.9842">
        <ele>1019.2</ele>
        <time>2021-08-20T13:11:33Z</time>
      </trkpt>
      <trkpt lat="44.28402" lon="2.98418">
        <ele>1019</ele>
        <time>2021-08-20T13:11:34Z</time>
      </trkpt>
      <trkpt lat="44.28397" lon="2.9842">
        <ele>1018.6</ele>
        <time>2021-08-20T13:11:35Z</time>
      </trkpt>
      <trkpt lat="44.28385" lon="2.98424">
        <ele>1017.8</ele>
        <time>2021-08-20T13:11:37Z</time>
      </trkpt>
      <trkpt lat="44.28378" lon="2.98424">
        <ele>1017.4</ele>
        <time>2021-08-20T13:11:38Z</time>
      </trkpt>
      <trkpt lat="44.28372" lon="2.98424">
        <ele>1017</ele>
        <time>2021-08-20T13:11:39Z</time>
      </trkpt>
      <trkpt lat="44.28368" lon="2.98423">
        <ele>1016.6</ele>
        <time>2021-08-20T13:11:40Z</time>
      </trkpt>
      <trkpt lat="44.28363" lon="2.98422">
        <ele>1015.8</ele>
        <time>2021-08-20T13:11:41Z</time>
      </trkpt>
      <trkpt lat="44.28358" lon="2.98423">
        <ele>1015.4</ele>
        <time>2021-08-20T13:11:42Z</time>
      </trkpt>
      <trkpt lat="44.28353" lon="2.98423">
        <ele>1014.8</ele>
        <time>2021-08-20T13:11:43Z</time>
      </trkpt>
      <trkpt lat="44.28346" lon="2.98425">
        <ele>1014.8</ele>
        <time>2021-08-20T13:11:44Z</time>
      </trkpt>
      <trkpt lat="44.2834" lon="2.98429">
        <ele>1014.4</ele>
        <time>2021-08-20T13:11:45Z</time>
      </trkpt>
      <trkpt lat="44.28336" lon="2.98431">
        <ele>1014.2</ele>
        <time>2021-08-20T13:11:46Z</time>
      </trkpt>
      <trkpt lat="44.2833" lon="2.98434">
        <ele>1014</ele>
        <time>2021-08-20T13:11:47Z</time>
      </trkpt>
      <trkpt lat="44.28325" lon="2.98437">
        <ele>1013.2</ele>
        <time>2021-08-20T13:11:48Z</time>
      </trkpt>
      <trkpt lat="44.2832" lon="2.98439">
        <ele>1013</ele>
        <time>2021-08-20T13:11:49Z</time>
      </trkpt>
      <trkpt lat="44.28309" lon="2.9845">
        <ele>1012.4</ele>
        <time>2021-08-20T13:11:51Z</time>
      </trkpt>
      <trkpt lat="44.28305" lon="2.98455">
        <ele>1012.2</ele>
        <time>2021-08-20T13:11:52Z</time>
      </trkpt>
      <trkpt lat="44.28294" lon="2.98464">
        <ele>1012</ele>
        <time>2021-08-20T13:11:54Z</time>
      </trkpt>
      <trkpt lat="44.28282" lon="2.98478">
        <ele>1011.8</ele>
        <time>2021-08-20T13:11:57Z</time>
      </trkpt>
      <trkpt lat="44.28278" lon="2.98481">
        <ele>1011.8</ele>
        <time>2021-08-20T13:11:58Z</time>
      </trkpt>
      <trkpt lat="44.28272" lon="2.98483">
        <ele>1011.6</ele>
        <time>2021-08-20T13:11:59Z</time>
      </trkpt>
      <trkpt lat="44.2826" lon="2.98488">
        <ele>1011.4</ele>
        <time>2021-08-20T13:12:01Z</time>
      </trkpt>
      <trkpt lat="44.2825" lon="2.9849">
        <ele>1011.4</ele>
        <time>2021-08-20T13:12:03Z</time>
      </trkpt>
      <trkpt lat="44.28241" lon="2.98499">
        <ele>1011</ele>
        <time>2021-08-20T13:12:05Z</time>
      </trkpt>
      <trkpt lat="44.28236" lon="2.98505">
        <ele>1010.8</ele>
        <time>2021-08-20T13:12:06Z</time>
      </trkpt>
      <trkpt lat="44.2823" lon="2.98512">
        <ele>1010.6</ele>
        <time>2021-08-20T13:12:07Z</time>
      </trkpt>
      <trkpt lat="44.28224" lon="2.9852">
        <ele>1010.4</ele>
        <time>2021-08-20T13:12:08Z</time>
      </trkpt>
      <trkpt lat="44.28219" lon="2.98528">
        <ele>1010.2</ele>
        <time>2021-08-20T13:12:09Z</time>
      </trkpt>
      <trkpt lat="44.28214" lon="2.98537">
        <ele>1010</ele>
        <time>2021-08-20T13:12:10Z</time>
      </trkpt>
      <trkpt lat="44.28203" lon="2.98547">
        <ele>1009.4</ele>
        <time>2021-08-20T13:12:12Z</time>
      </trkpt>
      <trkpt lat="44.28187" lon="2.98563">
        <ele>1008.6</ele>
        <time>2021-08-20T13:12:15Z</time>
      </trkpt>
      <trkpt lat="44.28183" lon="2.98571">
        <ele>1008.6</ele>
        <time>2021-08-20T13:12:16Z</time>
      </trkpt>
      <trkpt lat="44.28178" lon="2.9858">
        <ele>1008.4</ele>
        <time>2021-08-20T13:12:17Z</time>
      </trkpt>
      <trkpt lat="44.28173" lon="2.98587">
        <ele>1008</ele>
        <time>2021-08-20T13:12:18Z</time>
      </trkpt>
      <trkpt lat="44.28165" lon="2.98595">
        <ele>1007.6</ele>
        <time>2021-08-20T13:12:19Z</time>
      </trkpt>
      <trkpt lat="44.2816" lon="2.98601">
        <ele>1007.2</ele>
        <time>2021-08-20T13:12:20Z</time>
      </trkpt>
      <trkpt lat="44.28155" lon="2.98603">
        <ele>1007.2</ele>
        <time>2021-08-20T13:12:21Z</time>
      </trkpt>
      <trkpt lat="44.2815" lon="2.98604">
        <ele>1006.8</ele>
        <time>2021-08-20T13:12:22Z</time>
      </trkpt>
      <trkpt lat="44.28146" lon="2.98603">
        <ele>1006.8</ele>
        <time>2021-08-20T13:12:23Z</time>
      </trkpt>
      <trkpt lat="44.28142" lon="2.98602">
        <ele>1006.6</ele>
        <time>2021-08-20T13:12:24Z</time>
      </trkpt>
      <trkpt lat="44.28138" lon="2.98601">
        <ele>1006.4</ele>
        <time>2021-08-20T13:12:25Z</time>
      </trkpt>
      <trkpt lat="44.28132" lon="2.98597">
        <ele>1006.4</ele>
        <time>2021-08-20T13:12:26Z</time>
      </trkpt>
      <trkpt lat="44.28126" lon="2.98591">
        <ele>1006.4</ele>
        <time>2021-08-20T13:12:27Z</time>
      </trkpt>
      <trkpt lat="44.28122" lon="2.98588">
        <ele>1006.4</ele>
        <time>2021-08-20T13:12:28Z</time>
      </trkpt>
      <trkpt lat="44.28118" lon="2.98586">
        <ele>1006.4</ele>
        <time>2021-08-20T13:12:29Z</time>
      </trkpt>
      <trkpt lat="44.28099" lon="2.98578">
        <ele>1006.6</ele>
        <time>2021-08-20T13:12:33Z</time>
      </trkpt>
      <trkpt lat="44.28073" lon="2.98572">
        <ele>1007.6</ele>
        <time>2021-08-20T13:12:38Z</time>
      </trkpt>
      <trkpt lat="44.28057" lon="2.9857">
        <ele>1008</ele>
        <time>2021-08-20T13:12:41Z</time>
      </trkpt>
      <trkpt lat="44.28045" lon="2.9857">
        <ele>1008.2</ele>
        <time>2021-08-20T13:12:43Z</time>
      </trkpt>
      <trkpt lat="44.28023" lon="2.98574">
        <ele>1008.4</ele>
        <time>2021-08-20T13:12:47Z</time>
      </trkpt>
      <trkpt lat="44.28018" lon="2.98576">
        <ele>1008.4</ele>
        <time>2021-08-20T13:12:48Z</time>
      </trkpt>
      <trkpt lat="44.28013" lon="2.98579">
        <ele>1008.6</ele>
        <time>2021-08-20T13:12:49Z</time>
      </trkpt>
      <trkpt lat="44.28003" lon="2.98585">
        <ele>1008.8</ele>
        <time>2021-08-20T13:12:51Z</time>
      </trkpt>
      <trkpt lat="44.27998" lon="2.9859">
        <ele>1008.8</ele>
        <time>2021-08-20T13:12:52Z</time>
      </trkpt>
      <trkpt lat="44.27993" lon="2.98595">
        <ele>1009</ele>
        <time>2021-08-20T13:12:53Z</time>
      </trkpt>
      <trkpt lat="44.27985" lon="2.98605">
        <ele>1009</ele>
        <time>2021-08-20T13:12:55Z</time>
      </trkpt>
      <trkpt lat="44.27981" lon="2.9861">
        <ele>1009.2</ele>
        <time>2021-08-20T13:12:56Z</time>
      </trkpt>
      <trkpt lat="44.27977" lon="2.98616">
        <ele>1009.4</ele>
        <time>2021-08-20T13:12:57Z</time>
      </trkpt>
      <trkpt lat="44.27971" lon="2.98629">
        <ele>1009.6</ele>
        <time>2021-08-20T13:12:59Z</time>
      </trkpt>
      <trkpt lat="44.27965" lon="2.98642">
        <ele>1009.8</ele>
        <time>2021-08-20T13:13:01Z</time>
      </trkpt>
      <trkpt lat="44.27962" lon="2.98648">
        <ele>1009.8</ele>
        <time>2021-08-20T13:13:02Z</time>
      </trkpt>
      <trkpt lat="44.27958" lon="2.98653">
        <ele>1010</ele>
        <time>2021-08-20T13:13:03Z</time>
      </trkpt>
      <trkpt lat="44.27953" lon="2.98656">
        <ele>1010.2</ele>
        <time>2021-08-20T13:13:04Z</time>
      </trkpt>
      <trkpt lat="44.27949" lon="2.98658">
        <ele>1010.4</ele>
        <time>2021-08-20T13:13:05Z</time>
      </trkpt>
      <trkpt lat="44.27943" lon="2.98658">
        <ele>1010.6</ele>
        <time>2021-08-20T13:13:06Z</time>
      </trkpt>
      <trkpt lat="44.27933" lon="2.98654">
        <ele>1011</ele>
        <time>2021-08-20T13:13:08Z</time>
      </trkpt>
      <trkpt lat="44.27928" lon="2.98651">
        <ele>1011</ele>
        <time>2021-08-20T13:13:09Z</time>
      </trkpt>
      <trkpt lat="44.27923" lon="2.98649">
        <ele>1011.2</ele>
        <time>2021-08-20T13:13:10Z</time>
      </trkpt>
      <trkpt lat="44.27919" lon="2.98646">
        <ele>1011.4</ele>
        <time>2021-08-20T13:13:11Z</time>
      </trkpt>
      <trkpt lat="44.27914" lon="2.98644">
        <ele>1011.6</ele>
        <time>2021-08-20T13:13:12Z</time>
      </trkpt>
      <trkpt lat="44.27909" lon="2.98641">
        <ele>1011.6</ele>
        <time>2021-08-20T13:13:13Z</time>
      </trkpt>
      <trkpt lat="44.27904" lon="2.98637">
        <ele>1011.6</ele>
        <time>2021-08-20T13:13:14Z</time>
      </trkpt>
      <trkpt lat="44.279" lon="2.98634">
        <ele>1011.6</ele>
        <time>2021-08-20T13:13:15Z</time>
      </trkpt>
      <trkpt lat="44.27896" lon="2.98631">
        <ele>1011.8</ele>
        <time>2021-08-20T13:13:16Z</time>
      </trkpt>
      <trkpt lat="44.27894" lon="2.9863">
        <ele>1012</ele>
        <time>2021-08-20T13:13:17Z</time>
      </trkpt>
      <trkpt lat="44.27891" lon="2.98628">
        <ele>1012</ele>
        <time>2021-08-20T13:13:18Z</time>
      </trkpt>
      <trkpt lat="44.27888" lon="2.98627">
        <ele>1012</ele>
        <time>2021-08-20T13:13:19Z</time>
      </trkpt>
      <trkpt lat="44.27886" lon="2.98626">
        <ele>1012.4</ele>
        <time>2021-08-20T13:13:20Z</time>
      </trkpt>
      <trkpt lat="44.27884" lon="2.98625">
        <ele>1012.6</ele>
        <time>2021-08-20T13:13:21Z</time>
      </trkpt>
      <trkpt lat="44.27882" lon="2.98624">
        <ele>1012.6</ele>
        <time>2021-08-20T13:13:22Z</time>
      </trkpt>
      <trkpt lat="44.2788" lon="2.98623">
        <ele>1012.8</ele>
        <time>2021-08-20T13:13:23Z</time>
      </trkpt>
      <trkpt lat="44.27877" lon="2.98622">
        <ele>1012.8</ele>
        <time>2021-08-20T13:13:24Z</time>
      </trkpt>
      <trkpt lat="44.27876" lon="2.98621">
        <ele>1013.2</ele>
        <time>2021-08-20T13:13:25Z</time>
      </trkpt>
      <trkpt lat="44.27874" lon="2.98619">
        <ele>1013.2</ele>
        <time>2021-08-20T13:13:26Z</time>
      </trkpt>
      <trkpt lat="44.27872" lon="2.98616">
        <ele>1013.4</ele>
        <time>2021-08-20T13:13:27Z</time>
      </trkpt>
      <trkpt lat="44.27871" lon="2.98613">
        <ele>1013.4</ele>
        <time>2021-08-20T13:13:28Z</time>
      </trkpt>
      <trkpt lat="44.27869" lon="2.9861">
        <ele>1013.4</ele>
        <time>2021-08-20T13:13:29Z</time>
      </trkpt>
      <trkpt lat="44.27867" lon="2.98607">
        <ele>1013.4</ele>
        <time>2021-08-20T13:13:30Z</time>
      </trkpt>
      <trkpt lat="44.27865" lon="2.98605">
        <ele>1013.4</ele>
        <time>2021-08-20T13:13:31Z</time>
      </trkpt>
      <trkpt lat="44.27863" lon="2.98602">
        <ele>1013.4</ele>
        <time>2021-08-20T13:13:32Z</time>
      </trkpt>
      <trkpt lat="44.2786" lon="2.986">
        <ele>1013.4</ele>
        <time>2021-08-20T13:13:33Z</time>
      </trkpt>
      <trkpt lat="44.27858" lon="2.98597">
        <ele>1013.4</ele>
        <time>2021-08-20T13:13:34Z</time>
      </trkpt>
      <trkpt lat="44.27856" lon="2.98595">
        <ele>1013.6</ele>
        <time>2021-08-20T13:13:35Z</time>
      </trkpt>
      <trkpt lat="44.27853" lon="2.98593">
        <ele>1013.6</ele>
        <time>2021-08-20T13:13:36Z</time>
      </trkpt>
      <trkpt lat="44.27852" lon="2.9859">
        <ele>1013.4</ele>
        <time>2021-08-20T13:13:37Z</time>
      </trkpt>
      <trkpt lat="44.27849" lon="2.98588">
        <ele>1013.4</ele>
        <time>2021-08-20T13:13:38Z</time>
      </trkpt>
      <trkpt lat="44.27847" lon="2.98586">
        <ele>1013.4</ele>
        <time>2021-08-20T13:13:39Z</time>
      </trkpt>
      <trkpt lat="44.27845" lon="2.98583">
        <ele>1013.4</ele>
        <time>2021-08-20T13:13:40Z</time>
      </trkpt>
      <trkpt lat="44.27838" lon="2.98577">
        <ele>1013.6</ele>
        <time>2021-08-20T13:13:43Z</time>
      </trkpt>
      <trkpt lat="44.27836" lon="2.98574">
        <ele>1013.6</ele>
        <time>2021-08-20T13:13:44Z</time>
      </trkpt>
      <trkpt lat="44.27834" lon="2.98573">
        <ele>1013.6</ele>
        <time>2021-08-20T13:13:45Z</time>
      </trkpt>
      <trkpt lat="44.27831" lon="2.98569">
        <ele>1013.6</ele>
        <time>2021-08-20T13:13:47Z</time>
      </trkpt>
      <trkpt lat="44.27825" lon="2.98563">
        <ele>1013.6</ele>
        <time>2021-08-20T13:13:50Z</time>
      </trkpt>
      <trkpt lat="44.27823" lon="2.98561">
        <ele>1013.6</ele>
        <time>2021-08-20T13:13:51Z</time>
      </trkpt>
      <trkpt lat="44.27818" lon="2.98554">
        <ele>1013.6</ele>
        <time>2021-08-20T13:13:54Z</time>
      </trkpt>
      <trkpt lat="44.27815" lon="2.98549">
        <ele>1013.8</ele>
        <time>2021-08-20T13:13:56Z</time>
      </trkpt>
      <trkpt lat="44.27814" lon="2.98547">
        <ele>1013.8</ele>
        <time>2021-08-20T13:13:57Z</time>
      </trkpt>
      <trkpt lat="44.27805" lon="2.98528">
        <ele>1014</ele>
        <time>2021-08-20T13:14:03Z</time>
      </trkpt>
      <trkpt lat="44.27794" lon="2.98513">
        <ele>1013.8</ele>
        <time>2021-08-20T13:14:07Z</time>
      </trkpt>
      <trkpt lat="44.27788" lon="2.98505">
        <ele>1013.8</ele>
        <time>2021-08-20T13:14:09Z</time>
      </trkpt>
      <trkpt lat="44.27775" lon="2.98488">
        <ele>1013.8</ele>
        <time>2021-08-20T13:14:13Z</time>
      </trkpt>
      <trkpt lat="44.27772" lon="2.98483">
        <ele>1013.8</ele>
        <time>2021-08-20T13:14:14Z</time>
      </trkpt>
      <trkpt lat="44.27749" lon="2.98458">
        <ele>1013.8</ele>
        <time>2021-08-20T13:14:20Z</time>
      </trkpt>
      <trkpt lat="44.27722" lon="2.98441">
        <ele>1014</ele>
        <time>2021-08-20T13:14:25Z</time>
      </trkpt>
      <trkpt lat="44.27717" lon="2.98439">
        <ele>1014</ele>
        <time>2021-08-20T13:14:26Z</time>
      </trkpt>
      <trkpt lat="44.27711" lon="2.98437">
        <ele>1013.8</ele>
        <time>2021-08-20T13:14:27Z</time>
      </trkpt>
      <trkpt lat="44.27694" lon="2.98431">
        <ele>1014.2</ele>
        <time>2021-08-20T13:14:30Z</time>
      </trkpt>
      <trkpt lat="44.27676" lon="2.98428">
        <ele>1014.6</ele>
        <time>2021-08-20T13:14:33Z</time>
      </trkpt>
      <trkpt lat="44.27664" lon="2.98428">
        <ele>1015.2</ele>
        <time>2021-08-20T13:14:35Z</time>
      </trkpt>
      <trkpt lat="44.27659" lon="2.98429">
        <ele>1015.4</ele>
        <time>2021-08-20T13:14:36Z</time>
      </trkpt>
      <trkpt lat="44.27653" lon="2.98429">
        <ele>1015.6</ele>
        <time>2021-08-20T13:14:37Z</time>
      </trkpt>
      <trkpt lat="44.27646" lon="2.9843">
        <ele>1016</ele>
        <time>2021-08-20T13:14:38Z</time>
      </trkpt>
      <trkpt lat="44.27643" lon="2.98431">
        <ele>1016.2</ele>
        <time>2021-08-20T13:14:39Z</time>
      </trkpt>
      <trkpt lat="44.27638" lon="2.98432">
        <ele>1016.2</ele>
        <time>2021-08-20T13:14:40Z</time>
      </trkpt>
      <trkpt lat="44.27634" lon="2.98434">
        <ele>1016.4</ele>
        <time>2021-08-20T13:14:41Z</time>
      </trkpt>
      <trkpt lat="44.2763" lon="2.98436">
        <ele>1016.4</ele>
        <time>2021-08-20T13:14:42Z</time>
      </trkpt>
      <trkpt lat="44.27621" lon="2.98441">
        <ele>1016.6</ele>
        <time>2021-08-20T13:14:44Z</time>
      </trkpt>
      <trkpt lat="44.27617" lon="2.98444">
        <ele>1016.6</ele>
        <time>2021-08-20T13:14:45Z</time>
      </trkpt>
      <trkpt lat="44.27612" lon="2.98447">
        <ele>1016.6</ele>
        <time>2021-08-20T13:14:46Z</time>
      </trkpt>
      <trkpt lat="44.27607" lon="2.9845">
        <ele>1016.4</ele>
        <time>2021-08-20T13:14:47Z</time>
      </trkpt>
      <trkpt lat="44.27602" lon="2.98453">
        <ele>1016.2</ele>
        <time>2021-08-20T13:14:48Z</time>
      </trkpt>
      <trkpt lat="44.27596" lon="2.98456">
        <ele>1016.2</ele>
        <time>2021-08-20T13:14:49Z</time>
      </trkpt>
      <trkpt lat="44.27589" lon="2.98459">
        <ele>1015.8</ele>
        <time>2021-08-20T13:14:50Z</time>
      </trkpt>
      <trkpt lat="44.27581" lon="2.98463">
        <ele>1015.8</ele>
        <time>2021-08-20T13:14:51Z</time>
      </trkpt>
      <trkpt lat="44.27573" lon="2.98467">
        <ele>1015.2</ele>
        <time>2021-08-20T13:14:52Z</time>
      </trkpt>
      <trkpt lat="44.27555" lon="2.98477">
        <ele>1014.4</ele>
        <time>2021-08-20T13:14:54Z</time>
      </trkpt>
      <trkpt lat="44.27544" lon="2.98482">
        <ele>1013.8</ele>
        <time>2021-08-20T13:14:55Z</time>
      </trkpt>
      <trkpt lat="44.27535" lon="2.98487">
        <ele>1013.2</ele>
        <time>2021-08-20T13:14:56Z</time>
      </trkpt>
      <trkpt lat="44.27526" lon="2.98493">
        <ele>1012</ele>
        <time>2021-08-20T13:14:57Z</time>
      </trkpt>
      <trkpt lat="44.27518" lon="2.98498">
        <ele>1011.2</ele>
        <time>2021-08-20T13:14:58Z</time>
      </trkpt>
      <trkpt lat="44.27512" lon="2.98503">
        <ele>1010.2</ele>
        <time>2021-08-20T13:14:59Z</time>
      </trkpt>
      <trkpt lat="44.27506" lon="2.98509">
        <ele>1009.6</ele>
        <time>2021-08-20T13:15:00Z</time>
      </trkpt>
      <trkpt lat="44.27502" lon="2.98515">
        <ele>1008</ele>
        <time>2021-08-20T13:15:01Z</time>
      </trkpt>
      <trkpt lat="44.27499" lon="2.98521">
        <ele>1007.2</ele>
        <time>2021-08-20T13:15:02Z</time>
      </trkpt>
      <trkpt lat="44.27497" lon="2.98525">
        <ele>1005.2</ele>
        <time>2021-08-20T13:15:03Z</time>
      </trkpt>
      <trkpt lat="44.27496" lon="2.9853">
        <ele>1003.6</ele>
        <time>2021-08-20T13:15:04Z</time>
      </trkpt>
      <trkpt lat="44.27494" lon="2.98534">
        <ele>1002.8</ele>
        <time>2021-08-20T13:15:05Z</time>
      </trkpt>
      <trkpt lat="44.27493" lon="2.98538">
        <ele>1001.4</ele>
        <time>2021-08-20T13:15:06Z</time>
      </trkpt>
      <trkpt lat="44.27491" lon="2.98548">
        <ele>999.6</ele>
        <time>2021-08-20T13:15:08Z</time>
      </trkpt>
      <trkpt lat="44.2749" lon="2.98564">
        <ele>998.4</ele>
        <time>2021-08-20T13:15:10Z</time>
      </trkpt>
      <trkpt lat="44.27487" lon="2.98584">
        <ele>997</ele>
        <time>2021-08-20T13:15:12Z</time>
      </trkpt>
      <trkpt lat="44.27485" lon="2.98595">
        <ele>996.4</ele>
        <time>2021-08-20T13:15:13Z</time>
      </trkpt>
      <trkpt lat="44.27482" lon="2.98605">
        <ele>996</ele>
        <time>2021-08-20T13:15:14Z</time>
      </trkpt>
      <trkpt lat="44.27478" lon="2.98616">
        <ele>994.8</ele>
        <time>2021-08-20T13:15:15Z</time>
      </trkpt>
      <trkpt lat="44.27469" lon="2.98638">
        <ele>993.4</ele>
        <time>2021-08-20T13:15:17Z</time>
      </trkpt>
      <trkpt lat="44.27464" lon="2.98649">
        <ele>993</ele>
        <time>2021-08-20T13:15:18Z</time>
      </trkpt>
      <trkpt lat="44.27459" lon="2.9866">
        <ele>992.2</ele>
        <time>2021-08-20T13:15:19Z</time>
      </trkpt>
      <trkpt lat="44.27449" lon="2.98681">
        <ele>990.8</ele>
        <time>2021-08-20T13:15:21Z</time>
      </trkpt>
      <trkpt lat="44.27438" lon="2.98702">
        <ele>989.8</ele>
        <time>2021-08-20T13:15:23Z</time>
      </trkpt>
      <trkpt lat="44.27432" lon="2.98712">
        <ele>989.4</ele>
        <time>2021-08-20T13:15:24Z</time>
      </trkpt>
      <trkpt lat="44.27426" lon="2.98721">
        <ele>989.2</ele>
        <time>2021-08-20T13:15:25Z</time>
      </trkpt>
      <trkpt lat="44.27421" lon="2.9873">
        <ele>988.6</ele>
        <time>2021-08-20T13:15:26Z</time>
      </trkpt>
      <trkpt lat="44.27416" lon="2.98737">
        <ele>988.4</ele>
        <time>2021-08-20T13:15:27Z</time>
      </trkpt>
      <trkpt lat="44.27412" lon="2.98743">
        <ele>988</ele>
        <time>2021-08-20T13:15:28Z</time>
      </trkpt>
      <trkpt lat="44.27409" lon="2.98747">
        <ele>987.8</ele>
        <time>2021-08-20T13:15:29Z</time>
      </trkpt>
      <trkpt lat="44.27409" lon="2.98747">
        <ele>987.8</ele>
        <time>2021-08-20T13:15:30Z</time>
      </trkpt>
      <trkpt lat="44.27409" lon="2.98747">
        <ele>987.4</ele>
        <time>2021-08-20T13:15:51Z</time>
      </trkpt>
      <trkpt lat="44.27398" lon="2.98753">
        <ele>987.4</ele>
        <time>2021-08-20T13:15:54Z</time>
      </trkpt>
      <trkpt lat="44.27378" lon="2.98767">
        <ele>987.4</ele>
        <time>2021-08-20T13:15:58Z</time>
      </trkpt>
      <trkpt lat="44.27367" lon="2.98774">
        <ele>987.2</ele>
        <time>2021-08-20T13:16:00Z</time>
      </trkpt>
      <trkpt lat="44.27356" lon="2.98777">
        <ele>987.2</ele>
        <time>2021-08-20T13:16:02Z</time>
      </trkpt>
      <trkpt lat="44.2735" lon="2.98778">
        <ele>987</ele>
        <time>2021-08-20T13:16:03Z</time>
      </trkpt>
      <trkpt lat="44.27331" lon="2.98781">
        <ele>987</ele>
        <time>2021-08-20T13:16:06Z</time>
      </trkpt>
      <trkpt lat="44.27324" lon="2.98783">
        <ele>986.6</ele>
        <time>2021-08-20T13:16:07Z</time>
      </trkpt>
      <trkpt lat="44.27318" lon="2.98784">
        <ele>986.6</ele>
        <time>2021-08-20T13:16:08Z</time>
      </trkpt>
      <trkpt lat="44.27312" lon="2.98786">
        <ele>986.2</ele>
        <time>2021-08-20T13:16:09Z</time>
      </trkpt>
      <trkpt lat="44.27306" lon="2.98788">
        <ele>986</ele>
        <time>2021-08-20T13:16:10Z</time>
      </trkpt>
      <trkpt lat="44.273" lon="2.98788">
        <ele>985.8</ele>
        <time>2021-08-20T13:16:11Z</time>
      </trkpt>
      <trkpt lat="44.27295" lon="2.98788">
        <ele>985.4</ele>
        <time>2021-08-20T13:16:12Z</time>
      </trkpt>
      <trkpt lat="44.27291" lon="2.98788">
        <ele>985.2</ele>
        <time>2021-08-20T13:16:13Z</time>
      </trkpt>
      <trkpt lat="44.27287" lon="2.98787">
        <ele>985</ele>
        <time>2021-08-20T13:16:14Z</time>
      </trkpt>
      <trkpt lat="44.27285" lon="2.98787">
        <ele>984.8</ele>
        <time>2021-08-20T13:16:15Z</time>
      </trkpt>
      <trkpt lat="44.27283" lon="2.98787">
        <ele>984.6</ele>
        <time>2021-08-20T13:16:16Z</time>
      </trkpt>
      <trkpt lat="44.27282" lon="2.98785">
        <ele>983.4</ele>
        <time>2021-08-20T13:16:43Z</time>
      </trkpt>
      <trkpt lat="44.27281" lon="2.98783">
        <ele>983.2</ele>
        <time>2021-08-20T13:16:45Z</time>
      </trkpt>
      <trkpt lat="44.27278" lon="2.98782">
        <ele>984</ele>
        <time>2021-08-20T13:17:57Z</time>
      </trkpt>
      <trkpt lat="44.27274" lon="2.98783">
        <ele>984</ele>
        <time>2021-08-20T13:18:00Z</time>
      </trkpt>
      <trkpt lat="44.27271" lon="2.98783">
        <ele>983.8</ele>
        <time>2021-08-20T13:18:02Z</time>
      </trkpt>
      <trkpt lat="44.2727" lon="2.98783">
        <ele>982.6</ele>
        <time>2021-08-20T13:18:26Z</time>
      </trkpt>
      <trkpt lat="44.27268" lon="2.98783">
        <ele>982.6</ele>
        <time>2021-08-20T13:18:28Z</time>
      </trkpt>
      <trkpt lat="44.27259" lon="2.98781">
        <ele>982.4</ele>
        <time>2021-08-20T13:18:31Z</time>
      </trkpt>
      <trkpt lat="44.27251" lon="2.98779">
        <ele>982.4</ele>
        <time>2021-08-20T13:18:33Z</time>
      </trkpt>
      <trkpt lat="44.27227" lon="2.98767">
        <ele>982</ele>
        <time>2021-08-20T13:18:40Z</time>
      </trkpt>
      <trkpt lat="44.27209" lon="2.9876">
        <ele>981.2</ele>
        <time>2021-08-20T13:18:44Z</time>
      </trkpt>
      <trkpt lat="44.27203" lon="2.9876">
        <ele>981</ele>
        <time>2021-08-20T13:18:45Z</time>
      </trkpt>
      <trkpt lat="44.27172" lon="2.98762">
        <ele>980.2</ele>
        <time>2021-08-20T13:18:51Z</time>
      </trkpt>
      <trkpt lat="44.27149" lon="2.9877">
        <ele>979</ele>
        <time>2021-08-20T13:18:55Z</time>
      </trkpt>
      <trkpt lat="44.27121" lon="2.98781">
        <ele>978</ele>
        <time>2021-08-20T13:19:00Z</time>
      </trkpt>
      <trkpt lat="44.27083" lon="2.98793">
        <ele>977</ele>
        <time>2021-08-20T13:19:06Z</time>
      </trkpt>
      <trkpt lat="44.27077" lon="2.98794">
        <ele>976.8</ele>
        <time>2021-08-20T13:19:07Z</time>
      </trkpt>
      <trkpt lat="44.27045" lon="2.98802">
        <ele>975.8</ele>
        <time>2021-08-20T13:19:12Z</time>
      </trkpt>
      <trkpt lat="44.27025" lon="2.98805">
        <ele>975.4</ele>
        <time>2021-08-20T13:19:15Z</time>
      </trkpt>
      <trkpt lat="44.26998" lon="2.98808">
        <ele>974.6</ele>
        <time>2021-08-20T13:19:19Z</time>
      </trkpt>
      <trkpt lat="44.26984" lon="2.98809">
        <ele>974.2</ele>
        <time>2021-08-20T13:19:21Z</time>
      </trkpt>
      <trkpt lat="44.26977" lon="2.98809">
        <ele>974.2</ele>
        <time>2021-08-20T13:19:22Z</time>
      </trkpt>
      <trkpt lat="44.2697" lon="2.98809">
        <ele>974</ele>
        <time>2021-08-20T13:19:23Z</time>
      </trkpt>
      <trkpt lat="44.26964" lon="2.9881">
        <ele>973.8</ele>
        <time>2021-08-20T13:19:24Z</time>
      </trkpt>
      <trkpt lat="44.26957" lon="2.9881">
        <ele>973.6</ele>
        <time>2021-08-20T13:19:25Z</time>
      </trkpt>
      <trkpt lat="44.26951" lon="2.98811">
        <ele>973.6</ele>
        <time>2021-08-20T13:19:26Z</time>
      </trkpt>
      <trkpt lat="44.26945" lon="2.98811">
        <ele>973.4</ele>
        <time>2021-08-20T13:19:27Z</time>
      </trkpt>
      <trkpt lat="44.26939" lon="2.98811">
        <ele>973.2</ele>
        <time>2021-08-20T13:19:28Z</time>
      </trkpt>
      <trkpt lat="44.26933" lon="2.98812">
        <ele>973.2</ele>
        <time>2021-08-20T13:19:29Z</time>
      </trkpt>
      <trkpt lat="44.26928" lon="2.98812">
        <ele>973.2</ele>
        <time>2021-08-20T13:19:30Z</time>
      </trkpt>
      <trkpt lat="44.26895" lon="2.9882">
        <ele>972.8</ele>
        <time>2021-08-20T13:19:36Z</time>
      </trkpt>
      <trkpt lat="44.26889" lon="2.98822">
        <ele>972.6</ele>
        <time>2021-08-20T13:19:37Z</time>
      </trkpt>
      <trkpt lat="44.26878" lon="2.98827">
        <ele>972.2</ele>
        <time>2021-08-20T13:19:39Z</time>
      </trkpt>
      <trkpt lat="44.26866" lon="2.98832">
        <ele>972</ele>
        <time>2021-08-20T13:19:41Z</time>
      </trkpt>
      <trkpt lat="44.2686" lon="2.98833">
        <ele>971.8</ele>
        <time>2021-08-20T13:19:42Z</time>
      </trkpt>
      <trkpt lat="44.26854" lon="2.98834">
        <ele>971.6</ele>
        <time>2021-08-20T13:19:43Z</time>
      </trkpt>
      <trkpt lat="44.26849" lon="2.98833">
        <ele>971</ele>
        <time>2021-08-20T13:19:44Z</time>
      </trkpt>
      <trkpt lat="44.26843" lon="2.9883">
        <ele>970.8</ele>
        <time>2021-08-20T13:19:45Z</time>
      </trkpt>
      <trkpt lat="44.26838" lon="2.98827">
        <ele>970.4</ele>
        <time>2021-08-20T13:19:46Z</time>
      </trkpt>
      <trkpt lat="44.26833" lon="2.98823">
        <ele>970.4</ele>
        <time>2021-08-20T13:19:47Z</time>
      </trkpt>
      <trkpt lat="44.26821" lon="2.98817">
        <ele>969.4</ele>
        <time>2021-08-20T13:19:49Z</time>
      </trkpt>
      <trkpt lat="44.26803" lon="2.98807">
        <ele>968.2</ele>
        <time>2021-08-20T13:19:52Z</time>
      </trkpt>
      <trkpt lat="44.26797" lon="2.98803">
        <ele>967.6</ele>
        <time>2021-08-20T13:19:53Z</time>
      </trkpt>
      <trkpt lat="44.26791" lon="2.98798">
        <ele>967.2</ele>
        <time>2021-08-20T13:19:54Z</time>
      </trkpt>
      <trkpt lat="44.26769" lon="2.98778">
        <ele>965.6</ele>
        <time>2021-08-20T13:19:57Z</time>
      </trkpt>
      <trkpt lat="44.26762" lon="2.98771">
        <ele>965.2</ele>
        <time>2021-08-20T13:19:58Z</time>
      </trkpt>
      <trkpt lat="44.26753" lon="2.98764">
        <ele>964</ele>
        <time>2021-08-20T13:19:59Z</time>
      </trkpt>
      <trkpt lat="44.26745" lon="2.98759">
        <ele>963</ele>
        <time>2021-08-20T13:20:00Z</time>
      </trkpt>
      <trkpt lat="44.26735" lon="2.98756">
        <ele>962.4</ele>
        <time>2021-08-20T13:20:01Z</time>
      </trkpt>
      <trkpt lat="44.26726" lon="2.98753">
        <ele>961.2</ele>
        <time>2021-08-20T13:20:02Z</time>
      </trkpt>
      <trkpt lat="44.26716" lon="2.98753">
        <ele>960.8</ele>
        <time>2021-08-20T13:20:03Z</time>
      </trkpt>
      <trkpt lat="44.26706" lon="2.98753">
        <ele>959.4</ele>
        <time>2021-08-20T13:20:04Z</time>
      </trkpt>
      <trkpt lat="44.26687" lon="2.98756">
        <ele>957.8</ele>
        <time>2021-08-20T13:20:06Z</time>
      </trkpt>
      <trkpt lat="44.26677" lon="2.98757">
        <ele>957</ele>
        <time>2021-08-20T13:20:07Z</time>
      </trkpt>
      <trkpt lat="44.26667" lon="2.98756">
        <ele>956</ele>
        <time>2021-08-20T13:20:08Z</time>
      </trkpt>
      <trkpt lat="44.26659" lon="2.98754">
        <ele>954.2</ele>
        <time>2021-08-20T13:20:09Z</time>
      </trkpt>
      <trkpt lat="44.26642" lon="2.98743">
        <ele>953.2</ele>
        <time>2021-08-20T13:20:11Z</time>
      </trkpt>
      <trkpt lat="44.26633" lon="2.98735">
        <ele>953.2</ele>
        <time>2021-08-20T13:20:12Z</time>
      </trkpt>
      <trkpt lat="44.26617" lon="2.98718">
        <ele>952</ele>
        <time>2021-08-20T13:20:14Z</time>
      </trkpt>
      <trkpt lat="44.26608" lon="2.98709">
        <ele>951</ele>
        <time>2021-08-20T13:20:15Z</time>
      </trkpt>
      <trkpt lat="44.2659" lon="2.9869">
        <ele>949</ele>
        <time>2021-08-20T13:20:17Z</time>
      </trkpt>
      <trkpt lat="44.26581" lon="2.98679">
        <ele>948.2</ele>
        <time>2021-08-20T13:20:18Z</time>
      </trkpt>
      <trkpt lat="44.26572" lon="2.98669">
        <ele>947.8</ele>
        <time>2021-08-20T13:20:19Z</time>
      </trkpt>
      <trkpt lat="44.26564" lon="2.98659">
        <ele>947.2</ele>
        <time>2021-08-20T13:20:20Z</time>
      </trkpt>
      <trkpt lat="44.26557" lon="2.98648">
        <ele>946.8</ele>
        <time>2021-08-20T13:20:21Z</time>
      </trkpt>
      <trkpt lat="44.26551" lon="2.98637">
        <ele>945.6</ele>
        <time>2021-08-20T13:20:22Z</time>
      </trkpt>
      <trkpt lat="44.26545" lon="2.98625">
        <ele>945</ele>
        <time>2021-08-20T13:20:23Z</time>
      </trkpt>
      <trkpt lat="44.2654" lon="2.98613">
        <ele>943.8</ele>
        <time>2021-08-20T13:20:24Z</time>
      </trkpt>
      <trkpt lat="44.26535" lon="2.98601">
        <ele>942.4</ele>
        <time>2021-08-20T13:20:25Z</time>
      </trkpt>
      <trkpt lat="44.26531" lon="2.9859">
        <ele>942</ele>
        <time>2021-08-20T13:20:26Z</time>
      </trkpt>
      <trkpt lat="44.26527" lon="2.98579">
        <ele>941.6</ele>
        <time>2021-08-20T13:20:27Z</time>
      </trkpt>
      <trkpt lat="44.26523" lon="2.98569">
        <ele>941.4</ele>
        <time>2021-08-20T13:20:28Z</time>
      </trkpt>
      <trkpt lat="44.26519" lon="2.98559">
        <ele>941</ele>
        <time>2021-08-20T13:20:29Z</time>
      </trkpt>
      <trkpt lat="44.26515" lon="2.9855">
        <ele>941</ele>
        <time>2021-08-20T13:20:30Z</time>
      </trkpt>
      <trkpt lat="44.26511" lon="2.98542">
        <ele>940.8</ele>
        <time>2021-08-20T13:20:31Z</time>
      </trkpt>
      <trkpt lat="44.26506" lon="2.98534">
        <ele>940.6</ele>
        <time>2021-08-20T13:20:32Z</time>
      </trkpt>
      <trkpt lat="44.26502" lon="2.98526">
        <ele>940.4</ele>
        <time>2021-08-20T13:20:33Z</time>
      </trkpt>
      <trkpt lat="44.26497" lon="2.98518">
        <ele>940.2</ele>
        <time>2021-08-20T13:20:34Z</time>
      </trkpt>
      <trkpt lat="44.26492" lon="2.98511">
        <ele>940.2</ele>
        <time>2021-08-20T13:20:35Z</time>
      </trkpt>
      <trkpt lat="44.26487" lon="2.98504">
        <ele>940</ele>
        <time>2021-08-20T13:20:36Z</time>
      </trkpt>
      <trkpt lat="44.26463" lon="2.98481">
        <ele>939.6</ele>
        <time>2021-08-20T13:20:40Z</time>
      </trkpt>
      <trkpt lat="44.26455" lon="2.98476">
        <ele>939.6</ele>
        <time>2021-08-20T13:20:41Z</time>
      </trkpt>
      <trkpt lat="44.26447" lon="2.98472">
        <ele>939</ele>
        <time>2021-08-20T13:20:42Z</time>
      </trkpt>
      <trkpt lat="44.26431" lon="2.98464">
        <ele>937.8</ele>
        <time>2021-08-20T13:20:44Z</time>
      </trkpt>
      <trkpt lat="44.26414" lon="2.98455">
        <ele>936.4</ele>
        <time>2021-08-20T13:20:46Z</time>
      </trkpt>
      <trkpt lat="44.26406" lon="2.9845">
        <ele>935.2</ele>
        <time>2021-08-20T13:20:47Z</time>
      </trkpt>
      <trkpt lat="44.26398" lon="2.98444">
        <ele>934.8</ele>
        <time>2021-08-20T13:20:48Z</time>
      </trkpt>
      <trkpt lat="44.26391" lon="2.98437">
        <ele>933.4</ele>
        <time>2021-08-20T13:20:49Z</time>
      </trkpt>
      <trkpt lat="44.26385" lon="2.98429">
        <ele>932</ele>
        <time>2021-08-20T13:20:50Z</time>
      </trkpt>
      <trkpt lat="44.26373" lon="2.9841">
        <ele>930.2</ele>
        <time>2021-08-20T13:20:52Z</time>
      </trkpt>
      <trkpt lat="44.26367" lon="2.98402">
        <ele>929.8</ele>
        <time>2021-08-20T13:20:53Z</time>
      </trkpt>
      <trkpt lat="44.2636" lon="2.98396">
        <ele>928.6</ele>
        <time>2021-08-20T13:20:54Z</time>
      </trkpt>
      <trkpt lat="44.26354" lon="2.98391">
        <ele>928.2</ele>
        <time>2021-08-20T13:20:55Z</time>
      </trkpt>
      <trkpt lat="44.26348" lon="2.98388">
        <ele>927.6</ele>
        <time>2021-08-20T13:20:56Z</time>
      </trkpt>
      <trkpt lat="44.26343" lon="2.98386">
        <ele>927.2</ele>
        <time>2021-08-20T13:20:57Z</time>
      </trkpt>
      <trkpt lat="44.26338" lon="2.98384">
        <ele>926.4</ele>
        <time>2021-08-20T13:20:58Z</time>
      </trkpt>
      <trkpt lat="44.26333" lon="2.98383">
        <ele>925.6</ele>
        <time>2021-08-20T13:20:59Z</time>
      </trkpt>
      <trkpt lat="44.26328" lon="2.98382">
        <ele>925.4</ele>
        <time>2021-08-20T13:21:00Z</time>
      </trkpt>
      <trkpt lat="44.26322" lon="2.98381">
        <ele>924.8</ele>
        <time>2021-08-20T13:21:01Z</time>
      </trkpt>
      <trkpt lat="44.2631" lon="2.98381">
        <ele>923.8</ele>
        <time>2021-08-20T13:21:03Z</time>
      </trkpt>
      <trkpt lat="44.26304" lon="2.98381">
        <ele>923.4</ele>
        <time>2021-08-20T13:21:04Z</time>
      </trkpt>
      <trkpt lat="44.26297" lon="2.9838">
        <ele>922.6</ele>
        <time>2021-08-20T13:21:05Z</time>
      </trkpt>
      <trkpt lat="44.26292" lon="2.98381">
        <ele>922.4</ele>
        <time>2021-08-20T13:21:06Z</time>
      </trkpt>
      <trkpt lat="44.26287" lon="2.98383">
        <ele>921.6</ele>
        <time>2021-08-20T13:21:07Z</time>
      </trkpt>
      <trkpt lat="44.26283" lon="2.98386">
        <ele>921.2</ele>
        <time>2021-08-20T13:21:08Z</time>
      </trkpt>
      <trkpt lat="44.26279" lon="2.98389">
        <ele>920.8</ele>
        <time>2021-08-20T13:21:09Z</time>
      </trkpt>
      <trkpt lat="44.26276" lon="2.98391">
        <ele>920.2</ele>
        <time>2021-08-20T13:21:10Z</time>
      </trkpt>
      <trkpt lat="44.26272" lon="2.98392">
        <ele>920</ele>
        <time>2021-08-20T13:21:11Z</time>
      </trkpt>
      <trkpt lat="44.26267" lon="2.98391">
        <ele>919.6</ele>
        <time>2021-08-20T13:21:12Z</time>
      </trkpt>
      <trkpt lat="44.26263" lon="2.98389">
        <ele>919.4</ele>
        <time>2021-08-20T13:21:13Z</time>
      </trkpt>
      <trkpt lat="44.26258" lon="2.98386">
        <ele>919</ele>
        <time>2021-08-20T13:21:14Z</time>
      </trkpt>
      <trkpt lat="44.26254" lon="2.98383">
        <ele>918.8</ele>
        <time>2021-08-20T13:21:15Z</time>
      </trkpt>
      <trkpt lat="44.2625" lon="2.98381">
        <ele>918.8</ele>
        <time>2021-08-20T13:21:16Z</time>
      </trkpt>
      <trkpt lat="44.26246" lon="2.98378">
        <ele>918.6</ele>
        <time>2021-08-20T13:21:17Z</time>
      </trkpt>
      <trkpt lat="44.26239" lon="2.98369">
        <ele>918.4</ele>
        <time>2021-08-20T13:21:19Z</time>
      </trkpt>
      <trkpt lat="44.26237" lon="2.98363">
        <ele>918.2</ele>
        <time>2021-08-20T13:21:20Z</time>
      </trkpt>
      <trkpt lat="44.26236" lon="2.98357">
        <ele>918</ele>
        <time>2021-08-20T13:21:21Z</time>
      </trkpt>
      <trkpt lat="44.26237" lon="2.98351">
        <ele>918</ele>
        <time>2021-08-20T13:21:22Z</time>
      </trkpt>
      <trkpt lat="44.26239" lon="2.98345">
        <ele>917.8</ele>
        <time>2021-08-20T13:21:23Z</time>
      </trkpt>
      <trkpt lat="44.26241" lon="2.98338">
        <ele>917.6</ele>
        <time>2021-08-20T13:21:24Z</time>
      </trkpt>
      <trkpt lat="44.26244" lon="2.98332">
        <ele>917.6</ele>
        <time>2021-08-20T13:21:25Z</time>
      </trkpt>
      <trkpt lat="44.26247" lon="2.98325">
        <ele>917.4</ele>
        <time>2021-08-20T13:21:26Z</time>
      </trkpt>
      <trkpt lat="44.2625" lon="2.98318">
        <ele>917.2</ele>
        <time>2021-08-20T13:21:27Z</time>
      </trkpt>
      <trkpt lat="44.26252" lon="2.98311">
        <ele>917</ele>
        <time>2021-08-20T13:21:28Z</time>
      </trkpt>
      <trkpt lat="44.26253" lon="2.98304">
        <ele>916.8</ele>
        <time>2021-08-20T13:21:29Z</time>
      </trkpt>
      <trkpt lat="44.26253" lon="2.98297">
        <ele>916.4</ele>
        <time>2021-08-20T13:21:30Z</time>
      </trkpt>
      <trkpt lat="44.26252" lon="2.98291">
        <ele>916.2</ele>
        <time>2021-08-20T13:21:31Z</time>
      </trkpt>
      <trkpt lat="44.26252" lon="2.98285">
        <ele>915.6</ele>
        <time>2021-08-20T13:21:32Z</time>
      </trkpt>
      <trkpt lat="44.26251" lon="2.98279">
        <ele>915.2</ele>
        <time>2021-08-20T13:21:33Z</time>
      </trkpt>
      <trkpt lat="44.2625" lon="2.98266">
        <ele>914.6</ele>
        <time>2021-08-20T13:21:35Z</time>
      </trkpt>
      <trkpt lat="44.2625" lon="2.98259">
        <ele>914.4</ele>
        <time>2021-08-20T13:21:36Z</time>
      </trkpt>
      <trkpt lat="44.2625" lon="2.98252">
        <ele>914</ele>
        <time>2021-08-20T13:21:37Z</time>
      </trkpt>
      <trkpt lat="44.2625" lon="2.98247">
        <ele>913.8</ele>
        <time>2021-08-20T13:21:38Z</time>
      </trkpt>
      <trkpt lat="44.26251" lon="2.98242">
        <ele>913.4</ele>
        <time>2021-08-20T13:21:39Z</time>
      </trkpt>
      <trkpt lat="44.26252" lon="2.98235">
        <ele>913.2</ele>
        <time>2021-08-20T13:21:40Z</time>
      </trkpt>
      <trkpt lat="44.26253" lon="2.9823">
        <ele>913.2</ele>
        <time>2021-08-20T13:21:41Z</time>
      </trkpt>
      <trkpt lat="44.26254" lon="2.98225">
        <ele>912.8</ele>
        <time>2021-08-20T13:21:42Z</time>
      </trkpt>
      <trkpt lat="44.26254" lon="2.98222">
        <ele>912.8</ele>
        <time>2021-08-20T13:21:43Z</time>
      </trkpt>
      <trkpt lat="44.26254" lon="2.98218">
        <ele>912.4</ele>
        <time>2021-08-20T13:21:44Z</time>
      </trkpt>
      <trkpt lat="44.26255" lon="2.98215">
        <ele>912.2</ele>
        <time>2021-08-20T13:21:45Z</time>
      </trkpt>
      <trkpt lat="44.26255" lon="2.98212">
        <ele>912</ele>
        <time>2021-08-20T13:21:46Z</time>
      </trkpt>
      <trkpt lat="44.26255" lon="2.98209">
        <ele>911.8</ele>
        <time>2021-08-20T13:21:47Z</time>
      </trkpt>
      <trkpt lat="44.26256" lon="2.98204">
        <ele>911.4</ele>
        <time>2021-08-20T13:21:49Z</time>
      </trkpt>
      <trkpt lat="44.26256" lon="2.982">
        <ele>911.2</ele>
        <time>2021-08-20T13:21:51Z</time>
      </trkpt>
      <trkpt lat="44.26256" lon="2.98197">
        <ele>909.6</ele>
        <time>2021-08-20T13:22:08Z</time>
      </trkpt>
      <trkpt lat="44.26258" lon="2.98192">
        <ele>909.6</ele>
        <time>2021-08-20T13:22:10Z</time>
      </trkpt>
      <trkpt lat="44.2626" lon="2.98187">
        <ele>909.4</ele>
        <time>2021-08-20T13:22:12Z</time>
      </trkpt>
      <trkpt lat="44.26261" lon="2.98184">
        <ele>909.4</ele>
        <time>2021-08-20T13:22:13Z</time>
      </trkpt>
      <trkpt lat="44.26264" lon="2.9817">
        <ele>909.4</ele>
        <time>2021-08-20T13:22:18Z</time>
      </trkpt>
      <trkpt lat="44.26265" lon="2.98149">
        <ele>908.8</ele>
        <time>2021-08-20T13:22:23Z</time>
      </trkpt>
      <trkpt lat="44.26265" lon="2.98145">
        <ele>908.8</ele>
        <time>2021-08-20T13:22:24Z</time>
      </trkpt>
      <trkpt lat="44.26263" lon="2.98142">
        <ele>908.6</ele>
        <time>2021-08-20T13:22:25Z</time>
      </trkpt>
      <trkpt lat="44.26262" lon="2.9814">
        <ele>908.4</ele>
        <time>2021-08-20T13:22:26Z</time>
      </trkpt>
      <trkpt lat="44.26261" lon="2.98137">
        <ele>908.4</ele>
        <time>2021-08-20T13:22:27Z</time>
      </trkpt>
      <trkpt lat="44.26261" lon="2.98137">
        <ele>908.4</ele>
        <time>2021-08-20T13:22:28Z</time>
      </trkpt>
      <trkpt lat="44.26261" lon="2.98133">
        <ele>907.4</ele>
        <time>2021-08-20T13:24:01Z</time>
      </trkpt>
      <trkpt lat="44.26261" lon="2.98127">
        <ele>907.4</ele>
        <time>2021-08-20T13:24:03Z</time>
      </trkpt>
      <trkpt lat="44.26261" lon="2.98123">
        <ele>907.4</ele>
        <time>2021-08-20T13:24:05Z</time>
      </trkpt>
      <trkpt lat="44.26259" lon="2.98115">
        <ele>906.8</ele>
        <time>2021-08-20T13:24:59Z</time>
      </trkpt>
      <trkpt lat="44.26256" lon="2.98107">
        <ele>906.8</ele>
        <time>2021-08-20T13:25:01Z</time>
      </trkpt>
      <trkpt lat="44.2625" lon="2.98099">
        <ele>906.6</ele>
        <time>2021-08-20T13:25:03Z</time>
      </trkpt>
      <trkpt lat="44.26248" lon="2.98095">
        <ele>906.4</ele>
        <time>2021-08-20T13:25:04Z</time>
      </trkpt>
      <trkpt lat="44.26246" lon="2.98091">
        <ele>906.4</ele>
        <time>2021-08-20T13:25:05Z</time>
      </trkpt>
      <trkpt lat="44.26244" lon="2.98087">
        <ele>906.4</ele>
        <time>2021-08-20T13:25:06Z</time>
      </trkpt>
      <trkpt lat="44.26243" lon="2.98084">
        <ele>906</ele>
        <time>2021-08-20T13:25:07Z</time>
      </trkpt>
      <trkpt lat="44.26242" lon="2.98083">
        <ele>906.2</ele>
        <time>2021-08-20T13:25:08Z</time>
      </trkpt>
      <trkpt lat="44.26242" lon="2.98082">
        <ele>905.8</ele>
        <time>2021-08-20T13:25:09Z</time>
      </trkpt>
      <trkpt lat="44.2624" lon="2.98084">
        <ele>905</ele>
        <time>2021-08-20T13:25:18Z</time>
      </trkpt>
      <trkpt lat="44.26241" lon="2.9809">
        <ele>905</ele>
        <time>2021-08-20T13:25:21Z</time>
      </trkpt>
      <trkpt lat="44.26244" lon="2.98092">
        <ele>905</ele>
        <time>2021-08-20T13:25:23Z</time>
      </trkpt>
      <trkpt lat="44.26246" lon="2.98093">
        <ele>905</ele>
        <time>2021-08-20T13:25:24Z</time>
      </trkpt>
      <trkpt lat="44.26248" lon="2.98095">
        <ele>905</ele>
        <time>2021-08-20T13:25:25Z</time>
      </trkpt>
      <trkpt lat="44.26255" lon="2.98103">
        <ele>905</ele>
        <time>2021-08-20T13:25:28Z</time>
      </trkpt>
      <trkpt lat="44.26257" lon="2.98106">
        <ele>905</ele>
        <time>2021-08-20T13:25:29Z</time>
      </trkpt>
      <trkpt lat="44.26259" lon="2.98108">
        <ele>905.2</ele>
        <time>2021-08-20T13:25:30Z</time>
      </trkpt>
      <trkpt lat="44.26261" lon="2.98108">
        <ele>905.2</ele>
        <time>2021-08-20T13:25:31Z</time>
      </trkpt>
      <trkpt lat="44.26263" lon="2.98108">
        <ele>905.2</ele>
        <time>2021-08-20T13:25:32Z</time>
      </trkpt>
      <trkpt lat="44.2626" lon="2.98105">
        <ele>905.2</ele>
        <time>2021-08-20T13:26:05Z</time>
      </trkpt>
      <trkpt lat="44.26258" lon="2.98106">
        <ele>905.2</ele>
        <time>2021-08-20T13:26:06Z</time>
      </trkpt>
      <trkpt lat="44.26256" lon="2.98111">
        <ele>905.2</ele>
        <time>2021-08-20T13:26:08Z</time>
      </trkpt>
      <trkpt lat="44.26257" lon="2.98113">
        <ele>905.2</ele>
        <time>2021-08-20T13:26:09Z</time>
      </trkpt>
      <trkpt lat="44.26259" lon="2.98115">
        <ele>905.2</ele>
        <time>2021-08-20T13:26:10Z</time>
      </trkpt>
      <trkpt lat="44.26259" lon="2.98117">
        <ele>905.2</ele>
        <time>2021-08-20T13:26:11Z</time>
      </trkpt>
      <trkpt lat="44.26259" lon="2.98119">
        <ele>905.2</ele>
        <time>2021-08-20T13:26:12Z</time>
      </trkpt>
      <trkpt lat="44.2626" lon="2.98122">
        <ele>905.4</ele>
        <time>2021-08-20T13:26:13Z</time>
      </trkpt>
      <trkpt lat="44.2626" lon="2.98124">
        <ele>905.4</ele>
        <time>2021-08-20T13:26:14Z</time>
      </trkpt>
      <trkpt lat="44.2626" lon="2.98125">
        <ele>905.6</ele>
        <time>2021-08-20T13:26:15Z</time>
      </trkpt>
      <trkpt lat="44.2626" lon="2.98125">
        <ele>905.6</ele>
        <time>2021-08-20T13:26:16Z</time>
      </trkpt>
      <trkpt lat="44.2626" lon="2.98125">
        <ele>905.8</ele>
        <time>2021-08-20T13:26:17Z</time>
      </trkpt>
      <trkpt lat="44.2626" lon="2.98125">
        <ele>906</ele>
        <time>2021-08-20T13:26:18Z</time>
      </trkpt>
      <trkpt lat="44.2626" lon="2.98124">
        <ele>906.4</ele>
        <time>2021-08-20T13:26:36Z</time>
      </trkpt>
      <trkpt lat="44.26263" lon="2.98119">
        <ele>906.4</ele>
        <time>2021-08-20T13:26:39Z</time>
      </trkpt>
      <trkpt lat="44.26265" lon="2.98118">
        <ele>906.4</ele>
        <time>2021-08-20T13:26:40Z</time>
      </trkpt>
      <trkpt lat="44.26266" lon="2.98117">
        <ele>906.4</ele>
        <time>2021-08-20T13:26:41Z</time>
      </trkpt>
      <trkpt lat="44.26266" lon="2.98116">
        <ele>906</ele>
        <time>2021-08-20T13:26:44Z</time>
      </trkpt>
      <trkpt lat="44.26266" lon="2.98116">
        <ele>905.8</ele>
        <time>2021-08-20T13:26:46Z</time>
      </trkpt>
      <trkpt lat="44.26266" lon="2.98116">
        <ele>905.4</ele>
        <time>2021-08-20T13:30:18Z</time>
      </trkpt>
      <trkpt lat="44.26263" lon="2.98115">
        <ele>905.2</ele>
        <time>2021-08-20T13:30:20Z</time>
      </trkpt>
      <trkpt lat="44.26261" lon="2.98116">
        <ele>905.2</ele>
        <time>2021-08-20T13:30:22Z</time>
      </trkpt>
      <trkpt lat="44.2626" lon="2.98119">
        <ele>905.4</ele>
        <time>2021-08-20T13:30:24Z</time>
      </trkpt>
      <trkpt lat="44.26264" lon="2.98118">
        <ele>905.4</ele>
        <time>2021-08-20T13:30:28Z</time>
      </trkpt>
      <trkpt lat="44.26265" lon="2.98117">
        <ele>905.8</ele>
        <time>2021-08-20T13:31:03Z</time>
      </trkpt>
      <trkpt lat="44.26262" lon="2.98116">
        <ele>905.8</ele>
        <time>2021-08-20T13:31:05Z</time>
      </trkpt>
      <trkpt lat="44.2626" lon="2.98117">
        <ele>906</ele>
        <time>2021-08-20T13:31:06Z</time>
      </trkpt>
      <trkpt lat="44.2626" lon="2.98119">
        <ele>906</ele>
        <time>2021-08-20T13:31:07Z</time>
      </trkpt>
      <trkpt lat="44.26261" lon="2.98124">
        <ele>906</ele>
        <time>2021-08-20T13:31:09Z</time>
      </trkpt>
      <trkpt lat="44.26262" lon="2.98128">
        <ele>906</ele>
        <time>2021-08-20T13:31:11Z</time>
      </trkpt>
      <trkpt lat="44.26263" lon="2.98131">
        <ele>906</ele>
        <time>2021-08-20T13:31:12Z</time>
      </trkpt>
      <trkpt lat="44.26262" lon="2.98134">
        <ele>906</ele>
        <time>2021-08-20T13:31:13Z</time>
      </trkpt>
      <trkpt lat="44.26262" lon="2.98136">
        <ele>906</ele>
        <time>2021-08-20T13:31:14Z</time>
      </trkpt>
      <trkpt lat="44.26262" lon="2.98138">
        <ele>906.2</ele>
        <time>2021-08-20T13:31:15Z</time>
      </trkpt>
      <trkpt lat="44.26262" lon="2.98144">
        <ele>906.6</ele>
        <time>2021-08-20T13:31:18Z</time>
      </trkpt>
      <trkpt lat="44.26262" lon="2.98154">
        <ele>907.2</ele>
        <time>2021-08-20T13:31:21Z</time>
      </trkpt>
      <trkpt lat="44.26261" lon="2.98161">
        <ele>907.6</ele>
        <time>2021-08-20T13:31:23Z</time>
      </trkpt>
      <trkpt lat="44.26261" lon="2.98165">
        <ele>907.8</ele>
        <time>2021-08-20T13:31:24Z</time>
      </trkpt>
      <trkpt lat="44.26261" lon="2.98169">
        <ele>908</ele>
        <time>2021-08-20T13:31:25Z</time>
      </trkpt>
      <trkpt lat="44.2626" lon="2.98172">
        <ele>908</ele>
        <time>2021-08-20T13:31:26Z</time>
      </trkpt>
      <trkpt lat="44.26258" lon="2.98175">
        <ele>908.2</ele>
        <time>2021-08-20T13:31:27Z</time>
      </trkpt>
      <trkpt lat="44.26258" lon="2.98178">
        <ele>908.4</ele>
        <time>2021-08-20T13:31:28Z</time>
      </trkpt>
      <trkpt lat="44.26257" lon="2.98181">
        <ele>908.8</ele>
        <time>2021-08-20T13:31:29Z</time>
      </trkpt>
      <trkpt lat="44.26256" lon="2.98183">
        <ele>909</ele>
        <time>2021-08-20T13:31:30Z</time>
      </trkpt>
      <trkpt lat="44.26253" lon="2.98189">
        <ele>909.2</ele>
        <time>2021-08-20T13:31:32Z</time>
      </trkpt>
      <trkpt lat="44.26251" lon="2.98192">
        <ele>909.4</ele>
        <time>2021-08-20T13:31:33Z</time>
      </trkpt>
      <trkpt lat="44.2625" lon="2.98195">
        <ele>909.6</ele>
        <time>2021-08-20T13:31:34Z</time>
      </trkpt>
      <trkpt lat="44.26249" lon="2.98197">
        <ele>909.6</ele>
        <time>2021-08-20T13:31:35Z</time>
      </trkpt>
      <trkpt lat="44.26247" lon="2.98199">
        <ele>909.8</ele>
        <time>2021-08-20T13:31:36Z</time>
      </trkpt>
      <trkpt lat="44.26246" lon="2.98201">
        <ele>909.8</ele>
        <time>2021-08-20T13:31:37Z</time>
      </trkpt>
      <trkpt lat="44.26244" lon="2.98203">
        <ele>910</ele>
        <time>2021-08-20T13:31:38Z</time>
      </trkpt>
      <trkpt lat="44.26243" lon="2.98205">
        <ele>910</ele>
        <time>2021-08-20T13:31:39Z</time>
      </trkpt>
      <trkpt lat="44.26242" lon="2.98208">
        <ele>910</ele>
        <time>2021-08-20T13:31:40Z</time>
      </trkpt>
      <trkpt lat="44.2624" lon="2.98211">
        <ele>910</ele>
        <time>2021-08-20T13:31:41Z</time>
      </trkpt>
      <trkpt lat="44.26239" lon="2.98214">
        <ele>910</ele>
        <time>2021-08-20T13:31:42Z</time>
      </trkpt>
      <trkpt lat="44.26238" lon="2.98217">
        <ele>910</ele>
        <time>2021-08-20T13:31:43Z</time>
      </trkpt>
      <trkpt lat="44.26236" lon="2.9822">
        <ele>910</ele>
        <time>2021-08-20T13:31:44Z</time>
      </trkpt>
      <trkpt lat="44.26234" lon="2.98223">
        <ele>910</ele>
        <time>2021-08-20T13:31:45Z</time>
      </trkpt>
      <trkpt lat="44.26233" lon="2.98227">
        <ele>910</ele>
        <time>2021-08-20T13:31:46Z</time>
      </trkpt>
      <trkpt lat="44.26231" lon="2.98231">
        <ele>910</ele>
        <time>2021-08-20T13:31:47Z</time>
      </trkpt>
      <trkpt lat="44.26229" lon="2.98235">
        <ele>910</ele>
        <time>2021-08-20T13:31:48Z</time>
      </trkpt>
      <trkpt lat="44.26227" lon="2.98239">
        <ele>909.8</ele>
        <time>2021-08-20T13:31:49Z</time>
      </trkpt>
      <trkpt lat="44.26225" lon="2.98243">
        <ele>909.8</ele>
        <time>2021-08-20T13:31:50Z</time>
      </trkpt>
      <trkpt lat="44.26218" lon="2.9826">
        <ele>909.4</ele>
        <time>2021-08-20T13:31:54Z</time>
      </trkpt>
      <trkpt lat="44.26217" lon="2.98265">
        <ele>909.4</ele>
        <time>2021-08-20T13:31:55Z</time>
      </trkpt>
      <trkpt lat="44.26215" lon="2.98269">
        <ele>909.4</ele>
        <time>2021-08-20T13:31:56Z</time>
      </trkpt>
      <trkpt lat="44.26214" lon="2.98274">
        <ele>909.2</ele>
        <time>2021-08-20T13:31:57Z</time>
      </trkpt>
      <trkpt lat="44.26203" lon="2.98294">
        <ele>909.2</ele>
        <time>2021-08-20T13:32:02Z</time>
      </trkpt>
      <trkpt lat="44.26199" lon="2.98303">
        <ele>909</ele>
        <time>2021-08-20T13:32:04Z</time>
      </trkpt>
      <trkpt lat="44.26191" lon="2.98318">
        <ele>908.4</ele>
        <time>2021-08-20T13:32:07Z</time>
      </trkpt>
      <trkpt lat="44.2618" lon="2.98331">
        <ele>908</ele>
        <time>2021-08-20T13:32:10Z</time>
      </trkpt>
      <trkpt lat="44.26176" lon="2.98335">
        <ele>907.8</ele>
        <time>2021-08-20T13:32:11Z</time>
      </trkpt>
      <trkpt lat="44.26173" lon="2.9834">
        <ele>907.6</ele>
        <time>2021-08-20T13:32:12Z</time>
      </trkpt>
      <trkpt lat="44.2617" lon="2.98343">
        <ele>907.4</ele>
        <time>2021-08-20T13:32:13Z</time>
      </trkpt>
      <trkpt lat="44.26168" lon="2.98346">
        <ele>907</ele>
        <time>2021-08-20T13:32:14Z</time>
      </trkpt>
      <trkpt lat="44.26168" lon="2.98347">
        <ele>906.8</ele>
        <time>2021-08-20T13:32:15Z</time>
      </trkpt>
      <trkpt lat="44.26168" lon="2.98348">
        <ele>905</ele>
        <time>2021-08-20T13:35:49Z</time>
      </trkpt>
      <trkpt lat="44.26166" lon="2.98354">
        <ele>904.6</ele>
        <time>2021-08-20T13:35:52Z</time>
      </trkpt>
      <trkpt lat="44.26164" lon="2.98357">
        <ele>904.6</ele>
        <time>2021-08-20T13:35:53Z</time>
      </trkpt>
      <trkpt lat="44.26154" lon="2.9838">
        <ele>904</ele>
        <time>2021-08-20T13:36:00Z</time>
      </trkpt>
      <trkpt lat="44.26152" lon="2.98384">
        <ele>903.8</ele>
        <time>2021-08-20T13:36:01Z</time>
      </trkpt>
      <trkpt lat="44.26148" lon="2.98394">
        <ele>903.6</ele>
        <time>2021-08-20T13:36:03Z</time>
      </trkpt>
      <trkpt lat="44.26145" lon="2.98399">
        <ele>903.6</ele>
        <time>2021-08-20T13:36:04Z</time>
      </trkpt>
      <trkpt lat="44.26143" lon="2.98404">
        <ele>903.4</ele>
        <time>2021-08-20T13:36:05Z</time>
      </trkpt>
      <trkpt lat="44.26136" lon="2.98421">
        <ele>902.6</ele>
        <time>2021-08-20T13:36:08Z</time>
      </trkpt>
      <trkpt lat="44.26131" lon="2.98435">
        <ele>902</ele>
        <time>2021-08-20T13:36:10Z</time>
      </trkpt>
      <trkpt lat="44.26128" lon="2.98442">
        <ele>901.4</ele>
        <time>2021-08-20T13:36:11Z</time>
      </trkpt>
      <trkpt lat="44.26122" lon="2.98457">
        <ele>900.2</ele>
        <time>2021-08-20T13:36:13Z</time>
      </trkpt>
      <trkpt lat="44.26119" lon="2.98464">
        <ele>900</ele>
        <time>2021-08-20T13:36:14Z</time>
      </trkpt>
      <trkpt lat="44.26115" lon="2.98471">
        <ele>899.2</ele>
        <time>2021-08-20T13:36:15Z</time>
      </trkpt>
      <trkpt lat="44.26112" lon="2.98478">
        <ele>898.8</ele>
        <time>2021-08-20T13:36:16Z</time>
      </trkpt>
      <trkpt lat="44.26109" lon="2.98484">
        <ele>898.2</ele>
        <time>2021-08-20T13:36:17Z</time>
      </trkpt>
      <trkpt lat="44.26106" lon="2.98491">
        <ele>897.4</ele>
        <time>2021-08-20T13:36:18Z</time>
      </trkpt>
      <trkpt lat="44.26103" lon="2.98497">
        <ele>897</ele>
        <time>2021-08-20T13:36:19Z</time>
      </trkpt>
      <trkpt lat="44.26094" lon="2.98507">
        <ele>896.2</ele>
        <time>2021-08-20T13:36:21Z</time>
      </trkpt>
      <trkpt lat="44.26078" lon="2.98521">
        <ele>895.2</ele>
        <time>2021-08-20T13:36:24Z</time>
      </trkpt>
      <trkpt lat="44.26072" lon="2.98525">
        <ele>894.8</ele>
        <time>2021-08-20T13:36:25Z</time>
      </trkpt>
      <trkpt lat="44.26066" lon="2.98528">
        <ele>894.2</ele>
        <time>2021-08-20T13:36:26Z</time>
      </trkpt>
      <trkpt lat="44.26061" lon="2.9853">
        <ele>893.8</ele>
        <time>2021-08-20T13:36:27Z</time>
      </trkpt>
      <trkpt lat="44.26055" lon="2.98533">
        <ele>893.8</ele>
        <time>2021-08-20T13:36:28Z</time>
      </trkpt>
      <trkpt lat="44.26049" lon="2.98535">
        <ele>893.4</ele>
        <time>2021-08-20T13:36:29Z</time>
      </trkpt>
      <trkpt lat="44.26044" lon="2.98536">
        <ele>893.2</ele>
        <time>2021-08-20T13:36:30Z</time>
      </trkpt>
      <trkpt lat="44.26038" lon="2.98538">
        <ele>893</ele>
        <time>2021-08-20T13:36:31Z</time>
      </trkpt>
      <trkpt lat="44.26034" lon="2.9854">
        <ele>892.8</ele>
        <time>2021-08-20T13:36:32Z</time>
      </trkpt>
      <trkpt lat="44.2603" lon="2.98541">
        <ele>892.8</ele>
        <time>2021-08-20T13:36:33Z</time>
      </trkpt>
      <trkpt lat="44.26026" lon="2.98544">
        <ele>892.6</ele>
        <time>2021-08-20T13:36:34Z</time>
      </trkpt>
      <trkpt lat="44.26022" lon="2.98547">
        <ele>892.6</ele>
        <time>2021-08-20T13:36:35Z</time>
      </trkpt>
      <trkpt lat="44.26019" lon="2.9855">
        <ele>892.6</ele>
        <time>2021-08-20T13:36:36Z</time>
      </trkpt>
      <trkpt lat="44.26016" lon="2.98554">
        <ele>892.4</ele>
        <time>2021-08-20T13:36:37Z</time>
      </trkpt>
      <trkpt lat="44.26014" lon="2.98558">
        <ele>892.4</ele>
        <time>2021-08-20T13:36:38Z</time>
      </trkpt>
      <trkpt lat="44.26012" lon="2.98561">
        <ele>892.4</ele>
        <time>2021-08-20T13:36:39Z</time>
      </trkpt>
      <trkpt lat="44.26006" lon="2.98566">
        <ele>892.4</ele>
        <time>2021-08-20T13:36:41Z</time>
      </trkpt>
      <trkpt lat="44.25999" lon="2.98571">
        <ele>892.2</ele>
        <time>2021-08-20T13:36:43Z</time>
      </trkpt>
      <trkpt lat="44.25995" lon="2.98574">
        <ele>892.2</ele>
        <time>2021-08-20T13:36:44Z</time>
      </trkpt>
      <trkpt lat="44.25992" lon="2.98577">
        <ele>892.2</ele>
        <time>2021-08-20T13:36:45Z</time>
      </trkpt>
      <trkpt lat="44.25989" lon="2.98579">
        <ele>892.2</ele>
        <time>2021-08-20T13:36:46Z</time>
      </trkpt>
      <trkpt lat="44.25987" lon="2.98582">
        <ele>892.2</ele>
        <time>2021-08-20T13:36:47Z</time>
      </trkpt>
      <trkpt lat="44.25983" lon="2.98587">
        <ele>892.2</ele>
        <time>2021-08-20T13:36:49Z</time>
      </trkpt>
      <trkpt lat="44.25978" lon="2.98593">
        <ele>892.4</ele>
        <time>2021-08-20T13:36:51Z</time>
      </trkpt>
      <trkpt lat="44.25976" lon="2.98596">
        <ele>892.4</ele>
        <time>2021-08-20T13:36:52Z</time>
      </trkpt>
      <trkpt lat="44.25975" lon="2.98599">
        <ele>892.4</ele>
        <time>2021-08-20T13:36:53Z</time>
      </trkpt>
      <trkpt lat="44.25973" lon="2.98601">
        <ele>892.6</ele>
        <time>2021-08-20T13:36:54Z</time>
      </trkpt>
      <trkpt lat="44.25971" lon="2.98604">
        <ele>892.8</ele>
        <time>2021-08-20T13:36:55Z</time>
      </trkpt>
      <trkpt lat="44.25961" lon="2.98619">
        <ele>893.8</ele>
        <time>2021-08-20T13:37:00Z</time>
      </trkpt>
      <trkpt lat="44.25959" lon="2.98621">
        <ele>894</ele>
        <time>2021-08-20T13:37:01Z</time>
      </trkpt>
      <trkpt lat="44.25957" lon="2.98624">
        <ele>894</ele>
        <time>2021-08-20T13:37:02Z</time>
      </trkpt>
      <trkpt lat="44.25955" lon="2.98627">
        <ele>894.2</ele>
        <time>2021-08-20T13:37:03Z</time>
      </trkpt>
      <trkpt lat="44.2595" lon="2.98633">
        <ele>894.8</ele>
        <time>2021-08-20T13:37:05Z</time>
      </trkpt>
      <trkpt lat="44.25948" lon="2.98636">
        <ele>895.2</ele>
        <time>2021-08-20T13:37:06Z</time>
      </trkpt>
      <trkpt lat="44.25946" lon="2.98639">
        <ele>895.6</ele>
        <time>2021-08-20T13:37:07Z</time>
      </trkpt>
      <trkpt lat="44.25944" lon="2.98641">
        <ele>896</ele>
        <time>2021-08-20T13:37:08Z</time>
      </trkpt>
      <trkpt lat="44.25941" lon="2.98644">
        <ele>896.2</ele>
        <time>2021-08-20T13:37:09Z</time>
      </trkpt>
      <trkpt lat="44.25939" lon="2.98647">
        <ele>896.6</ele>
        <time>2021-08-20T13:37:10Z</time>
      </trkpt>
      <trkpt lat="44.25937" lon="2.9865">
        <ele>896.8</ele>
        <time>2021-08-20T13:37:11Z</time>
      </trkpt>
      <trkpt lat="44.25935" lon="2.98653">
        <ele>897.2</ele>
        <time>2021-08-20T13:37:12Z</time>
      </trkpt>
      <trkpt lat="44.25934" lon="2.98656">
        <ele>897.4</ele>
        <time>2021-08-20T13:37:13Z</time>
      </trkpt>
      <trkpt lat="44.25933" lon="2.98658">
        <ele>897.8</ele>
        <time>2021-08-20T13:37:14Z</time>
      </trkpt>
      <trkpt lat="44.25932" lon="2.9866">
        <ele>898</ele>
        <time>2021-08-20T13:37:15Z</time>
      </trkpt>
      <trkpt lat="44.25931" lon="2.98662">
        <ele>898.4</ele>
        <time>2021-08-20T13:37:16Z</time>
      </trkpt>
      <trkpt lat="44.25929" lon="2.98664">
        <ele>898.8</ele>
        <time>2021-08-20T13:37:17Z</time>
      </trkpt>
      <trkpt lat="44.25928" lon="2.98667">
        <ele>899</ele>
        <time>2021-08-20T13:37:18Z</time>
      </trkpt>
      <trkpt lat="44.25926" lon="2.98669">
        <ele>899.4</ele>
        <time>2021-08-20T13:37:19Z</time>
      </trkpt>
      <trkpt lat="44.25925" lon="2.9867">
        <ele>899.4</ele>
        <time>2021-08-20T13:37:20Z</time>
      </trkpt>
      <trkpt lat="44.25924" lon="2.98672">
        <ele>899.8</ele>
        <time>2021-08-20T13:37:21Z</time>
      </trkpt>
      <trkpt lat="44.25923" lon="2.98673">
        <ele>900</ele>
        <time>2021-08-20T13:37:22Z</time>
      </trkpt>
      <trkpt lat="44.25921" lon="2.98676">
        <ele>900.2</ele>
        <time>2021-08-20T13:37:23Z</time>
      </trkpt>
      <trkpt lat="44.25919" lon="2.98678">
        <ele>900.4</ele>
        <time>2021-08-20T13:37:24Z</time>
      </trkpt>
      <trkpt lat="44.25918" lon="2.9868">
        <ele>900.8</ele>
        <time>2021-08-20T13:37:25Z</time>
      </trkpt>
      <trkpt lat="44.25916" lon="2.98682">
        <ele>901</ele>
        <time>2021-08-20T13:37:26Z</time>
      </trkpt>
      <trkpt lat="44.25914" lon="2.98686">
        <ele>901.2</ele>
        <time>2021-08-20T13:37:27Z</time>
      </trkpt>
      <trkpt lat="44.25912" lon="2.98689">
        <ele>901.6</ele>
        <time>2021-08-20T13:37:28Z</time>
      </trkpt>
      <trkpt lat="44.25911" lon="2.98691">
        <ele>901.6</ele>
        <time>2021-08-20T13:37:29Z</time>
      </trkpt>
      <trkpt lat="44.2591" lon="2.98694">
        <ele>902</ele>
        <time>2021-08-20T13:37:30Z</time>
      </trkpt>
      <trkpt lat="44.25909" lon="2.98696">
        <ele>902</ele>
        <time>2021-08-20T13:37:31Z</time>
      </trkpt>
      <trkpt lat="44.25907" lon="2.98699">
        <ele>902.2</ele>
        <time>2021-08-20T13:37:32Z</time>
      </trkpt>
      <trkpt lat="44.25905" lon="2.98702">
        <ele>902.6</ele>
        <time>2021-08-20T13:37:33Z</time>
      </trkpt>
      <trkpt lat="44.25903" lon="2.98704">
        <ele>902.8</ele>
        <time>2021-08-20T13:37:34Z</time>
      </trkpt>
      <trkpt lat="44.25902" lon="2.98707">
        <ele>903.2</ele>
        <time>2021-08-20T13:37:35Z</time>
      </trkpt>
      <trkpt lat="44.25902" lon="2.98709">
        <ele>903.6</ele>
        <time>2021-08-20T13:37:36Z</time>
      </trkpt>
      <trkpt lat="44.259" lon="2.98712">
        <ele>903.8</ele>
        <time>2021-08-20T13:37:37Z</time>
      </trkpt>
      <trkpt lat="44.25899" lon="2.98714">
        <ele>904</ele>
        <time>2021-08-20T13:37:38Z</time>
      </trkpt>
      <trkpt lat="44.25898" lon="2.98715">
        <ele>904.2</ele>
        <time>2021-08-20T13:37:39Z</time>
      </trkpt>
      <trkpt lat="44.25897" lon="2.98718">
        <ele>904.4</ele>
        <time>2021-08-20T13:37:40Z</time>
      </trkpt>
      <trkpt lat="44.25896" lon="2.98718">
        <ele>904.8</ele>
        <time>2021-08-20T13:37:41Z</time>
      </trkpt>
      <trkpt lat="44.25894" lon="2.9872">
        <ele>904.8</ele>
        <time>2021-08-20T13:37:42Z</time>
      </trkpt>
      <trkpt lat="44.25893" lon="2.98722">
        <ele>905</ele>
        <time>2021-08-20T13:37:43Z</time>
      </trkpt>
      <trkpt lat="44.25892" lon="2.98724">
        <ele>904.8</ele>
        <time>2021-08-20T13:37:44Z</time>
      </trkpt>
      <trkpt lat="44.25891" lon="2.98725">
        <ele>905.2</ele>
        <time>2021-08-20T13:37:45Z</time>
      </trkpt>
      <trkpt lat="44.2589" lon="2.98727">
        <ele>905.4</ele>
        <time>2021-08-20T13:37:46Z</time>
      </trkpt>
      <trkpt lat="44.25889" lon="2.98729">
        <ele>905.6</ele>
        <time>2021-08-20T13:37:47Z</time>
      </trkpt>
      <trkpt lat="44.25888" lon="2.9873">
        <ele>905.8</ele>
        <time>2021-08-20T13:37:48Z</time>
      </trkpt>
      <trkpt lat="44.25887" lon="2.98732">
        <ele>906</ele>
        <time>2021-08-20T13:37:49Z</time>
      </trkpt>
      <trkpt lat="44.25886" lon="2.98733">
        <ele>906.2</ele>
        <time>2021-08-20T13:37:50Z</time>
      </trkpt>
      <trkpt lat="44.25885" lon="2.98735">
        <ele>906.4</ele>
        <time>2021-08-20T13:37:51Z</time>
      </trkpt>
      <trkpt lat="44.25884" lon="2.98737">
        <ele>906.4</ele>
        <time>2021-08-20T13:37:52Z</time>
      </trkpt>
      <trkpt lat="44.25883" lon="2.98739">
        <ele>906.8</ele>
        <time>2021-08-20T13:37:53Z</time>
      </trkpt>
      <trkpt lat="44.25882" lon="2.98741">
        <ele>907</ele>
        <time>2021-08-20T13:37:54Z</time>
      </trkpt>
      <trkpt lat="44.25881" lon="2.98743">
        <ele>907.2</ele>
        <time>2021-08-20T13:37:55Z</time>
      </trkpt>
      <trkpt lat="44.2588" lon="2.98746">
        <ele>907.4</ele>
        <time>2021-08-20T13:37:56Z</time>
      </trkpt>
      <trkpt lat="44.25879" lon="2.98748">
        <ele>907.6</ele>
        <time>2021-08-20T13:37:57Z</time>
      </trkpt>
      <trkpt lat="44.25878" lon="2.98749">
        <ele>907.8</ele>
        <time>2021-08-20T13:37:58Z</time>
      </trkpt>
      <trkpt lat="44.25877" lon="2.9875">
        <ele>908</ele>
        <time>2021-08-20T13:37:59Z</time>
      </trkpt>
      <trkpt lat="44.25876" lon="2.98752">
        <ele>908.2</ele>
        <time>2021-08-20T13:38:00Z</time>
      </trkpt>
      <trkpt lat="44.25875" lon="2.98754">
        <ele>908.4</ele>
        <time>2021-08-20T13:38:01Z</time>
      </trkpt>
      <trkpt lat="44.25873" lon="2.98755">
        <ele>908.6</ele>
        <time>2021-08-20T13:38:02Z</time>
      </trkpt>
      <trkpt lat="44.25872" lon="2.98756">
        <ele>908.6</ele>
        <time>2021-08-20T13:38:03Z</time>
      </trkpt>
      <trkpt lat="44.25871" lon="2.98758">
        <ele>908.8</ele>
        <time>2021-08-20T13:38:04Z</time>
      </trkpt>
      <trkpt lat="44.2587" lon="2.98759">
        <ele>909</ele>
        <time>2021-08-20T13:38:05Z</time>
      </trkpt>
      <trkpt lat="44.25869" lon="2.98761">
        <ele>909.2</ele>
        <time>2021-08-20T13:38:06Z</time>
      </trkpt>
      <trkpt lat="44.25868" lon="2.98763">
        <ele>909.4</ele>
        <time>2021-08-20T13:38:07Z</time>
      </trkpt>
      <trkpt lat="44.25867" lon="2.98765">
        <ele>909.6</ele>
        <time>2021-08-20T13:38:08Z</time>
      </trkpt>
      <trkpt lat="44.25865" lon="2.98767">
        <ele>909.6</ele>
        <time>2021-08-20T13:38:09Z</time>
      </trkpt>
      <trkpt lat="44.25864" lon="2.98769">
        <ele>909.8</ele>
        <time>2021-08-20T13:38:10Z</time>
      </trkpt>
      <trkpt lat="44.25863" lon="2.98771">
        <ele>910</ele>
        <time>2021-08-20T13:38:11Z</time>
      </trkpt>
      <trkpt lat="44.25862" lon="2.98772">
        <ele>910.2</ele>
        <time>2021-08-20T13:38:12Z</time>
      </trkpt>
      <trkpt lat="44.25861" lon="2.98774">
        <ele>910.4</ele>
        <time>2021-08-20T13:38:13Z</time>
      </trkpt>
      <trkpt lat="44.25861" lon="2.98776">
        <ele>910.8</ele>
        <time>2021-08-20T13:38:14Z</time>
      </trkpt>
      <trkpt lat="44.25861" lon="2.98777">
        <ele>911</ele>
        <time>2021-08-20T13:38:15Z</time>
      </trkpt>
      <trkpt lat="44.2586" lon="2.98779">
        <ele>911.2</ele>
        <time>2021-08-20T13:38:16Z</time>
      </trkpt>
      <trkpt lat="44.2586" lon="2.9878">
        <ele>911.4</ele>
        <time>2021-08-20T13:38:17Z</time>
      </trkpt>
      <trkpt lat="44.25859" lon="2.98782">
        <ele>911.6</ele>
        <time>2021-08-20T13:38:18Z</time>
      </trkpt>
      <trkpt lat="44.25858" lon="2.98784">
        <ele>911.6</ele>
        <time>2021-08-20T13:38:19Z</time>
      </trkpt>
      <trkpt lat="44.25857" lon="2.98786">
        <ele>911.8</ele>
        <time>2021-08-20T13:38:20Z</time>
      </trkpt>
      <trkpt lat="44.25856" lon="2.98788">
        <ele>911.8</ele>
        <time>2021-08-20T13:38:21Z</time>
      </trkpt>
      <trkpt lat="44.25854" lon="2.9879">
        <ele>912</ele>
        <time>2021-08-20T13:38:22Z</time>
      </trkpt>
      <trkpt lat="44.25853" lon="2.98792">
        <ele>912.2</ele>
        <time>2021-08-20T13:38:23Z</time>
      </trkpt>
      <trkpt lat="44.25852" lon="2.98794">
        <ele>912.4</ele>
        <time>2021-08-20T13:38:24Z</time>
      </trkpt>
      <trkpt lat="44.25851" lon="2.98796">
        <ele>912.6</ele>
        <time>2021-08-20T13:38:25Z</time>
      </trkpt>
      <trkpt lat="44.2585" lon="2.98798">
        <ele>912.8</ele>
        <time>2021-08-20T13:38:26Z</time>
      </trkpt>
      <trkpt lat="44.25849" lon="2.988">
        <ele>913</ele>
        <time>2021-08-20T13:38:27Z</time>
      </trkpt>
      <trkpt lat="44.25848" lon="2.98802">
        <ele>913.2</ele>
        <time>2021-08-20T13:38:28Z</time>
      </trkpt>
      <trkpt lat="44.25847" lon="2.98804">
        <ele>913.2</ele>
        <time>2021-08-20T13:38:29Z</time>
      </trkpt>
      <trkpt lat="44.25846" lon="2.98805">
        <ele>913.4</ele>
        <time>2021-08-20T13:38:30Z</time>
      </trkpt>
      <trkpt lat="44.25845" lon="2.98807">
        <ele>913.6</ele>
        <time>2021-08-20T13:38:31Z</time>
      </trkpt>
      <trkpt lat="44.25845" lon="2.98808">
        <ele>913.8</ele>
        <time>2021-08-20T13:38:32Z</time>
      </trkpt>
      <trkpt lat="44.25844" lon="2.98809">
        <ele>914</ele>
        <time>2021-08-20T13:38:33Z</time>
      </trkpt>
      <trkpt lat="44.25844" lon="2.98811">
        <ele>914.2</ele>
        <time>2021-08-20T13:38:34Z</time>
      </trkpt>
      <trkpt lat="44.25843" lon="2.98813">
        <ele>914.2</ele>
        <time>2021-08-20T13:38:35Z</time>
      </trkpt>
      <trkpt lat="44.25842" lon="2.98815">
        <ele>914.4</ele>
        <time>2021-08-20T13:38:36Z</time>
      </trkpt>
      <trkpt lat="44.25842" lon="2.98816">
        <ele>914.4</ele>
        <time>2021-08-20T13:38:37Z</time>
      </trkpt>
      <trkpt lat="44.25841" lon="2.98817">
        <ele>914.6</ele>
        <time>2021-08-20T13:38:38Z</time>
      </trkpt>
      <trkpt lat="44.25841" lon="2.98819">
        <ele>914.8</ele>
        <time>2021-08-20T13:38:39Z</time>
      </trkpt>
      <trkpt lat="44.2584" lon="2.9882">
        <ele>914.8</ele>
        <time>2021-08-20T13:38:40Z</time>
      </trkpt>
      <trkpt lat="44.25839" lon="2.98822">
        <ele>915</ele>
        <time>2021-08-20T13:38:41Z</time>
      </trkpt>
      <trkpt lat="44.25839" lon="2.98824">
        <ele>915.2</ele>
        <time>2021-08-20T13:38:42Z</time>
      </trkpt>
      <trkpt lat="44.25839" lon="2.98826">
        <ele>915.4</ele>
        <time>2021-08-20T13:38:43Z</time>
      </trkpt>
      <trkpt lat="44.25838" lon="2.98827">
        <ele>915.4</ele>
        <time>2021-08-20T13:38:44Z</time>
      </trkpt>
      <trkpt lat="44.25837" lon="2.98828">
        <ele>915.6</ele>
        <time>2021-08-20T13:38:45Z</time>
      </trkpt>
      <trkpt lat="44.25836" lon="2.9883">
        <ele>915.6</ele>
        <time>2021-08-20T13:38:46Z</time>
      </trkpt>
      <trkpt lat="44.25836" lon="2.98832">
        <ele>915.8</ele>
        <time>2021-08-20T13:38:47Z</time>
      </trkpt>
      <trkpt lat="44.25834" lon="2.98836">
        <ele>915.8</ele>
        <time>2021-08-20T13:38:48Z</time>
      </trkpt>
      <trkpt lat="44.25834" lon="2.98837">
        <ele>915.8</ele>
        <time>2021-08-20T13:38:49Z</time>
      </trkpt>
      <trkpt lat="44.25834" lon="2.98839">
        <ele>916</ele>
        <time>2021-08-20T13:38:50Z</time>
      </trkpt>
      <trkpt lat="44.25833" lon="2.98842">
        <ele>916</ele>
        <time>2021-08-20T13:38:51Z</time>
      </trkpt>
      <trkpt lat="44.25832" lon="2.98843">
        <ele>916.2</ele>
        <time>2021-08-20T13:38:52Z</time>
      </trkpt>
      <trkpt lat="44.25831" lon="2.98844">
        <ele>916.2</ele>
        <time>2021-08-20T13:38:53Z</time>
      </trkpt>
      <trkpt lat="44.25831" lon="2.98845">
        <ele>916.4</ele>
        <time>2021-08-20T13:38:54Z</time>
      </trkpt>
      <trkpt lat="44.25831" lon="2.98847">
        <ele>916.4</ele>
        <time>2021-08-20T13:38:55Z</time>
      </trkpt>
      <trkpt lat="44.2583" lon="2.98849">
        <ele>916.6</ele>
        <time>2021-08-20T13:38:56Z</time>
      </trkpt>
      <trkpt lat="44.2583" lon="2.9885">
        <ele>916.6</ele>
        <time>2021-08-20T13:38:57Z</time>
      </trkpt>
      <trkpt lat="44.2583" lon="2.98852">
        <ele>916.8</ele>
        <time>2021-08-20T13:38:58Z</time>
      </trkpt>
      <trkpt lat="44.25829" lon="2.98853">
        <ele>917</ele>
        <time>2021-08-20T13:38:59Z</time>
      </trkpt>
      <trkpt lat="44.25829" lon="2.98854">
        <ele>917</ele>
        <time>2021-08-20T13:39:00Z</time>
      </trkpt>
      <trkpt lat="44.25828" lon="2.98855">
        <ele>917.2</ele>
        <time>2021-08-20T13:39:01Z</time>
      </trkpt>
      <trkpt lat="44.25828" lon="2.98856">
        <ele>917.2</ele>
        <time>2021-08-20T13:39:02Z</time>
      </trkpt>
      <trkpt lat="44.25828" lon="2.98858">
        <ele>917.6</ele>
        <time>2021-08-20T13:39:03Z</time>
      </trkpt>
      <trkpt lat="44.25828" lon="2.98859">
        <ele>917.8</ele>
        <time>2021-08-20T13:39:04Z</time>
      </trkpt>
      <trkpt lat="44.25827" lon="2.98861">
        <ele>917.8</ele>
        <time>2021-08-20T13:39:05Z</time>
      </trkpt>
      <trkpt lat="44.25827" lon="2.98863">
        <ele>918</ele>
        <time>2021-08-20T13:39:06Z</time>
      </trkpt>
      <trkpt lat="44.25826" lon="2.98864">
        <ele>918</ele>
        <time>2021-08-20T13:39:07Z</time>
      </trkpt>
      <trkpt lat="44.25826" lon="2.98866">
        <ele>918.4</ele>
        <time>2021-08-20T13:39:08Z</time>
      </trkpt>
      <trkpt lat="44.25825" lon="2.98868">
        <ele>918.6</ele>
        <time>2021-08-20T13:39:09Z</time>
      </trkpt>
      <trkpt lat="44.25825" lon="2.98869">
        <ele>918.8</ele>
        <time>2021-08-20T13:39:10Z</time>
      </trkpt>
      <trkpt lat="44.25824" lon="2.98871">
        <ele>918.8</ele>
        <time>2021-08-20T13:39:11Z</time>
      </trkpt>
      <trkpt lat="44.25823" lon="2.98873">
        <ele>918.8</ele>
        <time>2021-08-20T13:39:12Z</time>
      </trkpt>
      <trkpt lat="44.25823" lon="2.98874">
        <ele>919</ele>
        <time>2021-08-20T13:39:13Z</time>
      </trkpt>
      <trkpt lat="44.25822" lon="2.98875">
        <ele>919</ele>
        <time>2021-08-20T13:39:14Z</time>
      </trkpt>
      <trkpt lat="44.25821" lon="2.98877">
        <ele>919.4</ele>
        <time>2021-08-20T13:39:15Z</time>
      </trkpt>
      <trkpt lat="44.25821" lon="2.98878">
        <ele>919.4</ele>
        <time>2021-08-20T13:39:16Z</time>
      </trkpt>
      <trkpt lat="44.2582" lon="2.9888">
        <ele>919.4</ele>
        <time>2021-08-20T13:39:17Z</time>
      </trkpt>
      <trkpt lat="44.2582" lon="2.98882">
        <ele>919.6</ele>
        <time>2021-08-20T13:39:18Z</time>
      </trkpt>
      <trkpt lat="44.2582" lon="2.98884">
        <ele>919.6</ele>
        <time>2021-08-20T13:39:19Z</time>
      </trkpt>
      <trkpt lat="44.25819" lon="2.98885">
        <ele>919.8</ele>
        <time>2021-08-20T13:39:20Z</time>
      </trkpt>
      <trkpt lat="44.25819" lon="2.98887">
        <ele>920</ele>
        <time>2021-08-20T13:39:21Z</time>
      </trkpt>
      <trkpt lat="44.25818" lon="2.98888">
        <ele>920.2</ele>
        <time>2021-08-20T13:39:22Z</time>
      </trkpt>
      <trkpt lat="44.25818" lon="2.98889">
        <ele>920.2</ele>
        <time>2021-08-20T13:39:23Z</time>
      </trkpt>
      <trkpt lat="44.25817" lon="2.98891">
        <ele>920.4</ele>
        <time>2021-08-20T13:39:24Z</time>
      </trkpt>
      <trkpt lat="44.25817" lon="2.98893">
        <ele>920.6</ele>
        <time>2021-08-20T13:39:25Z</time>
      </trkpt>
      <trkpt lat="44.25816" lon="2.98895">
        <ele>920.8</ele>
        <time>2021-08-20T13:39:26Z</time>
      </trkpt>
      <trkpt lat="44.25815" lon="2.98897">
        <ele>920.8</ele>
        <time>2021-08-20T13:39:27Z</time>
      </trkpt>
      <trkpt lat="44.25814" lon="2.989">
        <ele>921</ele>
        <time>2021-08-20T13:39:28Z</time>
      </trkpt>
      <trkpt lat="44.25814" lon="2.98902">
        <ele>921.4</ele>
        <time>2021-08-20T13:39:29Z</time>
      </trkpt>
      <trkpt lat="44.25813" lon="2.98904">
        <ele>921.4</ele>
        <time>2021-08-20T13:39:30Z</time>
      </trkpt>
      <trkpt lat="44.25813" lon="2.98905">
        <ele>921.6</ele>
        <time>2021-08-20T13:39:31Z</time>
      </trkpt>
      <trkpt lat="44.25813" lon="2.98907">
        <ele>921.8</ele>
        <time>2021-08-20T13:39:32Z</time>
      </trkpt>
      <trkpt lat="44.25812" lon="2.98908">
        <ele>922</ele>
        <time>2021-08-20T13:39:33Z</time>
      </trkpt>
      <trkpt lat="44.25811" lon="2.98911">
        <ele>922</ele>
        <time>2021-08-20T13:39:34Z</time>
      </trkpt>
      <trkpt lat="44.2581" lon="2.98913">
        <ele>922.2</ele>
        <time>2021-08-20T13:39:35Z</time>
      </trkpt>
      <trkpt lat="44.2581" lon="2.98914">
        <ele>922.2</ele>
        <time>2021-08-20T13:39:36Z</time>
      </trkpt>
      <trkpt lat="44.25809" lon="2.98915">
        <ele>922.6</ele>
        <time>2021-08-20T13:39:37Z</time>
      </trkpt>
      <trkpt lat="44.25809" lon="2.98916">
        <ele>922.6</ele>
        <time>2021-08-20T13:39:38Z</time>
      </trkpt>
      <trkpt lat="44.25809" lon="2.98919">
        <ele>922.8</ele>
        <time>2021-08-20T13:39:39Z</time>
      </trkpt>
      <trkpt lat="44.25808" lon="2.98923">
        <ele>923</ele>
        <time>2021-08-20T13:39:40Z</time>
      </trkpt>
      <trkpt lat="44.25808" lon="2.98926">
        <ele>923</ele>
        <time>2021-08-20T13:39:41Z</time>
      </trkpt>
      <trkpt lat="44.25807" lon="2.98927">
        <ele>923</ele>
        <time>2021-08-20T13:39:42Z</time>
      </trkpt>
      <trkpt lat="44.25806" lon="2.98928">
        <ele>923.2</ele>
        <time>2021-08-20T13:39:43Z</time>
      </trkpt>
      <trkpt lat="44.25806" lon="2.98931">
        <ele>923.2</ele>
        <time>2021-08-20T13:39:44Z</time>
      </trkpt>
      <trkpt lat="44.25805" lon="2.98932">
        <ele>923.4</ele>
        <time>2021-08-20T13:39:45Z</time>
      </trkpt>
      <trkpt lat="44.25804" lon="2.98934">
        <ele>923.4</ele>
        <time>2021-08-20T13:39:46Z</time>
      </trkpt>
      <trkpt lat="44.25803" lon="2.98935">
        <ele>923.6</ele>
        <time>2021-08-20T13:39:47Z</time>
      </trkpt>
      <trkpt lat="44.25803" lon="2.98937">
        <ele>923.8</ele>
        <time>2021-08-20T13:39:48Z</time>
      </trkpt>
      <trkpt lat="44.25803" lon="2.98939">
        <ele>924.2</ele>
        <time>2021-08-20T13:39:49Z</time>
      </trkpt>
      <trkpt lat="44.25803" lon="2.98941">
        <ele>924.4</ele>
        <time>2021-08-20T13:39:50Z</time>
      </trkpt>
      <trkpt lat="44.25803" lon="2.98944">
        <ele>924.6</ele>
        <time>2021-08-20T13:39:51Z</time>
      </trkpt>
      <trkpt lat="44.25803" lon="2.98946">
        <ele>924.8</ele>
        <time>2021-08-20T13:39:52Z</time>
      </trkpt>
      <trkpt lat="44.25803" lon="2.98946">
        <ele>924.8</ele>
        <time>2021-08-20T13:39:53Z</time>
      </trkpt>
      <trkpt lat="44.25803" lon="2.98949">
        <ele>925</ele>
        <time>2021-08-20T13:39:54Z</time>
      </trkpt>
      <trkpt lat="44.25802" lon="2.9895">
        <ele>925.2</ele>
        <time>2021-08-20T13:39:55Z</time>
      </trkpt>
      <trkpt lat="44.25802" lon="2.98952">
        <ele>925.6</ele>
        <time>2021-08-20T13:39:56Z</time>
      </trkpt>
      <trkpt lat="44.25802" lon="2.98954">
        <ele>925.6</ele>
        <time>2021-08-20T13:39:57Z</time>
      </trkpt>
      <trkpt lat="44.25802" lon="2.98957">
        <ele>925.8</ele>
        <time>2021-08-20T13:39:58Z</time>
      </trkpt>
      <trkpt lat="44.25802" lon="2.98958">
        <ele>926</ele>
        <time>2021-08-20T13:39:59Z</time>
      </trkpt>
      <trkpt lat="44.25802" lon="2.98959">
        <ele>926</ele>
        <time>2021-08-20T13:40:00Z</time>
      </trkpt>
      <trkpt lat="44.25802" lon="2.98961">
        <ele>926.2</ele>
        <time>2021-08-20T13:40:01Z</time>
      </trkpt>
      <trkpt lat="44.25801" lon="2.98963">
        <ele>926.4</ele>
        <time>2021-08-20T13:40:02Z</time>
      </trkpt>
      <trkpt lat="44.25801" lon="2.98964">
        <ele>926.6</ele>
        <time>2021-08-20T13:40:03Z</time>
      </trkpt>
      <trkpt lat="44.25801" lon="2.98965">
        <ele>926.8</ele>
        <time>2021-08-20T13:40:04Z</time>
      </trkpt>
      <trkpt lat="44.25801" lon="2.98965">
        <ele>927</ele>
        <time>2021-08-20T13:40:05Z</time>
      </trkpt>
      <trkpt lat="44.25801" lon="2.98966">
        <ele>927</ele>
        <time>2021-08-20T13:40:06Z</time>
      </trkpt>
      <trkpt lat="44.25801" lon="2.98967">
        <ele>927.4</ele>
        <time>2021-08-20T13:40:07Z</time>
      </trkpt>
      <trkpt lat="44.25801" lon="2.98967">
        <ele>927.6</ele>
        <time>2021-08-20T13:40:08Z</time>
      </trkpt>
      <trkpt lat="44.25801" lon="2.98968">
        <ele>927.8</ele>
        <time>2021-08-20T13:40:09Z</time>
      </trkpt>
      <trkpt lat="44.25802" lon="2.98969">
        <ele>928.2</ele>
        <time>2021-08-20T13:40:10Z</time>
      </trkpt>
      <trkpt lat="44.25802" lon="2.9897">
        <ele>928.2</ele>
        <time>2021-08-20T13:40:11Z</time>
      </trkpt>
      <trkpt lat="44.25802" lon="2.98972">
        <ele>928.4</ele>
        <time>2021-08-20T13:40:12Z</time>
      </trkpt>
      <trkpt lat="44.25802" lon="2.98973">
        <ele>928.6</ele>
        <time>2021-08-20T13:40:13Z</time>
      </trkpt>
      <trkpt lat="44.25802" lon="2.98975">
        <ele>928.8</ele>
        <time>2021-08-20T13:40:14Z</time>
      </trkpt>
      <trkpt lat="44.25802" lon="2.98977">
        <ele>928.8</ele>
        <time>2021-08-20T13:40:15Z</time>
      </trkpt>
      <trkpt lat="44.25802" lon="2.98977">
        <ele>929.2</ele>
        <time>2021-08-20T13:40:16Z</time>
      </trkpt>
      <trkpt lat="44.25802" lon="2.98977">
        <ele>929.2</ele>
        <time>2021-08-20T13:40:17Z</time>
      </trkpt>
      <trkpt lat="44.25802" lon="2.98977">
        <ele>929.4</ele>
        <time>2021-08-20T13:40:18Z</time>
      </trkpt>
      <trkpt lat="44.25802" lon="2.98978">
        <ele>929.6</ele>
        <time>2021-08-20T13:40:19Z</time>
      </trkpt>
      <trkpt lat="44.25801" lon="2.98981">
        <ele>929.8</ele>
        <time>2021-08-20T13:40:20Z</time>
      </trkpt>
      <trkpt lat="44.25801" lon="2.98984">
        <ele>930</ele>
        <time>2021-08-20T13:40:21Z</time>
      </trkpt>
      <trkpt lat="44.25801" lon="2.98986">
        <ele>930.2</ele>
        <time>2021-08-20T13:40:22Z</time>
      </trkpt>
      <trkpt lat="44.25801" lon="2.98989">
        <ele>930.4</ele>
        <time>2021-08-20T13:40:23Z</time>
      </trkpt>
      <trkpt lat="44.25801" lon="2.98993">
        <ele>930.6</ele>
        <time>2021-08-20T13:40:24Z</time>
      </trkpt>
      <trkpt lat="44.258" lon="2.98996">
        <ele>930.6</ele>
        <time>2021-08-20T13:40:25Z</time>
      </trkpt>
      <trkpt lat="44.25799" lon="2.98998">
        <ele>931</ele>
        <time>2021-08-20T13:40:26Z</time>
      </trkpt>
      <trkpt lat="44.258" lon="2.99">
        <ele>931</ele>
        <time>2021-08-20T13:40:27Z</time>
      </trkpt>
      <trkpt lat="44.258" lon="2.99003">
        <ele>931.2</ele>
        <time>2021-08-20T13:40:28Z</time>
      </trkpt>
      <trkpt lat="44.25799" lon="2.99005">
        <ele>931.4</ele>
        <time>2021-08-20T13:40:29Z</time>
      </trkpt>
      <trkpt lat="44.25799" lon="2.99007">
        <ele>931.6</ele>
        <time>2021-08-20T13:40:30Z</time>
      </trkpt>
      <trkpt lat="44.25799" lon="2.99009">
        <ele>931.8</ele>
        <time>2021-08-20T13:40:31Z</time>
      </trkpt>
      <trkpt lat="44.25799" lon="2.9901">
        <ele>932</ele>
        <time>2021-08-20T13:40:32Z</time>
      </trkpt>
      <trkpt lat="44.25799" lon="2.99011">
        <ele>931.8</ele>
        <time>2021-08-20T13:40:33Z</time>
      </trkpt>
      <trkpt lat="44.25798" lon="2.99013">
        <ele>932.2</ele>
        <time>2021-08-20T13:40:34Z</time>
      </trkpt>
      <trkpt lat="44.25798" lon="2.99014">
        <ele>932.2</ele>
        <time>2021-08-20T13:40:35Z</time>
      </trkpt>
      <trkpt lat="44.25797" lon="2.99016">
        <ele>932.2</ele>
        <time>2021-08-20T13:40:36Z</time>
      </trkpt>
      <trkpt lat="44.25796" lon="2.99018">
        <ele>932.4</ele>
        <time>2021-08-20T13:40:37Z</time>
      </trkpt>
      <trkpt lat="44.25796" lon="2.9902">
        <ele>932.4</ele>
        <time>2021-08-20T13:40:38Z</time>
      </trkpt>
      <trkpt lat="44.25796" lon="2.9902">
        <ele>932.6</ele>
        <time>2021-08-20T13:40:39Z</time>
      </trkpt>
      <trkpt lat="44.25796" lon="2.99021">
        <ele>932.6</ele>
        <time>2021-08-20T13:40:40Z</time>
      </trkpt>
      <trkpt lat="44.25796" lon="2.99023">
        <ele>932.8</ele>
        <time>2021-08-20T13:40:41Z</time>
      </trkpt>
      <trkpt lat="44.25796" lon="2.99026">
        <ele>933</ele>
        <time>2021-08-20T13:40:42Z</time>
      </trkpt>
      <trkpt lat="44.25795" lon="2.99029">
        <ele>933</ele>
        <time>2021-08-20T13:40:43Z</time>
      </trkpt>
      <trkpt lat="44.25794" lon="2.99031">
        <ele>933.2</ele>
        <time>2021-08-20T13:40:44Z</time>
      </trkpt>
      <trkpt lat="44.25793" lon="2.99033">
        <ele>933.4</ele>
        <time>2021-08-20T13:40:45Z</time>
      </trkpt>
      <trkpt lat="44.25793" lon="2.99033">
        <ele>933.6</ele>
        <time>2021-08-20T13:40:46Z</time>
      </trkpt>
      <trkpt lat="44.25792" lon="2.99035">
        <ele>933.8</ele>
        <time>2021-08-20T13:40:47Z</time>
      </trkpt>
      <trkpt lat="44.25791" lon="2.99038">
        <ele>934</ele>
        <time>2021-08-20T13:40:48Z</time>
      </trkpt>
      <trkpt lat="44.2579" lon="2.99041">
        <ele>934.2</ele>
        <time>2021-08-20T13:40:49Z</time>
      </trkpt>
      <trkpt lat="44.25789" lon="2.99043">
        <ele>934.6</ele>
        <time>2021-08-20T13:40:50Z</time>
      </trkpt>
      <trkpt lat="44.25788" lon="2.99045">
        <ele>934.8</ele>
        <time>2021-08-20T13:40:51Z</time>
      </trkpt>
      <trkpt lat="44.25788" lon="2.99046">
        <ele>935</ele>
        <time>2021-08-20T13:40:52Z</time>
      </trkpt>
      <trkpt lat="44.25788" lon="2.99048">
        <ele>935.4</ele>
        <time>2021-08-20T13:40:53Z</time>
      </trkpt>
      <trkpt lat="44.25787" lon="2.99049">
        <ele>935.4</ele>
        <time>2021-08-20T13:40:54Z</time>
      </trkpt>
      <trkpt lat="44.25787" lon="2.9905">
        <ele>935.6</ele>
        <time>2021-08-20T13:40:55Z</time>
      </trkpt>
      <trkpt lat="44.25787" lon="2.99051">
        <ele>935.8</ele>
        <time>2021-08-20T13:40:56Z</time>
      </trkpt>
      <trkpt lat="44.25786" lon="2.99052">
        <ele>936</ele>
        <time>2021-08-20T13:40:57Z</time>
      </trkpt>
      <trkpt lat="44.25786" lon="2.99054">
        <ele>936.2</ele>
        <time>2021-08-20T13:40:58Z</time>
      </trkpt>
      <trkpt lat="44.25785" lon="2.99056">
        <ele>936.4</ele>
        <time>2021-08-20T13:40:59Z</time>
      </trkpt>
      <trkpt lat="44.25784" lon="2.99057">
        <ele>936.4</ele>
        <time>2021-08-20T13:41:00Z</time>
      </trkpt>
      <trkpt lat="44.25784" lon="2.99058">
        <ele>936.6</ele>
        <time>2021-08-20T13:41:01Z</time>
      </trkpt>
      <trkpt lat="44.25783" lon="2.9906">
        <ele>936.6</ele>
        <time>2021-08-20T13:41:02Z</time>
      </trkpt>
      <trkpt lat="44.25783" lon="2.99061">
        <ele>936.8</ele>
        <time>2021-08-20T13:41:03Z</time>
      </trkpt>
      <trkpt lat="44.25782" lon="2.99061">
        <ele>936.8</ele>
        <time>2021-08-20T13:41:04Z</time>
      </trkpt>
      <trkpt lat="44.25782" lon="2.99062">
        <ele>937</ele>
        <time>2021-08-20T13:41:05Z</time>
      </trkpt>
      <trkpt lat="44.25781" lon="2.99063">
        <ele>937.2</ele>
        <time>2021-08-20T13:41:06Z</time>
      </trkpt>
      <trkpt lat="44.25781" lon="2.99064">
        <ele>937.6</ele>
        <time>2021-08-20T13:41:07Z</time>
      </trkpt>
      <trkpt lat="44.2578" lon="2.99065">
        <ele>937.6</ele>
        <time>2021-08-20T13:41:08Z</time>
      </trkpt>
      <trkpt lat="44.25779" lon="2.99066">
        <ele>938</ele>
        <time>2021-08-20T13:41:09Z</time>
      </trkpt>
      <trkpt lat="44.25779" lon="2.99068">
        <ele>938.2</ele>
        <time>2021-08-20T13:41:10Z</time>
      </trkpt>
      <trkpt lat="44.25779" lon="2.99069">
        <ele>938.4</ele>
        <time>2021-08-20T13:41:11Z</time>
      </trkpt>
      <trkpt lat="44.25778" lon="2.99071">
        <ele>938.4</ele>
        <time>2021-08-20T13:41:12Z</time>
      </trkpt>
      <trkpt lat="44.25778" lon="2.99073">
        <ele>938.8</ele>
        <time>2021-08-20T13:41:13Z</time>
      </trkpt>
      <trkpt lat="44.25777" lon="2.99074">
        <ele>938.8</ele>
        <time>2021-08-20T13:41:14Z</time>
      </trkpt>
      <trkpt lat="44.25777" lon="2.99075">
        <ele>939</ele>
        <time>2021-08-20T13:41:15Z</time>
      </trkpt>
      <trkpt lat="44.25777" lon="2.99077">
        <ele>939.2</ele>
        <time>2021-08-20T13:41:16Z</time>
      </trkpt>
      <trkpt lat="44.25776" lon="2.99079">
        <ele>939.4</ele>
        <time>2021-08-20T13:41:17Z</time>
      </trkpt>
      <trkpt lat="44.25775" lon="2.9908">
        <ele>939.6</ele>
        <time>2021-08-20T13:41:18Z</time>
      </trkpt>
      <trkpt lat="44.25774" lon="2.99082">
        <ele>939.6</ele>
        <time>2021-08-20T13:41:19Z</time>
      </trkpt>
      <trkpt lat="44.25774" lon="2.99084">
        <ele>939.8</ele>
        <time>2021-08-20T13:41:20Z</time>
      </trkpt>
      <trkpt lat="44.25773" lon="2.99085">
        <ele>939.8</ele>
        <time>2021-08-20T13:41:21Z</time>
      </trkpt>
      <trkpt lat="44.25772" lon="2.99087">
        <ele>939.8</ele>
        <time>2021-08-20T13:41:22Z</time>
      </trkpt>
      <trkpt lat="44.25771" lon="2.99089">
        <ele>939.8</ele>
        <time>2021-08-20T13:41:23Z</time>
      </trkpt>
      <trkpt lat="44.25771" lon="2.99091">
        <ele>940</ele>
        <time>2021-08-20T13:41:24Z</time>
      </trkpt>
      <trkpt lat="44.2577" lon="2.99093">
        <ele>940</ele>
        <time>2021-08-20T13:41:25Z</time>
      </trkpt>
      <trkpt lat="44.25769" lon="2.99095">
        <ele>940</ele>
        <time>2021-08-20T13:41:26Z</time>
      </trkpt>
      <trkpt lat="44.25768" lon="2.99097">
        <ele>940.4</ele>
        <time>2021-08-20T13:41:27Z</time>
      </trkpt>
      <trkpt lat="44.25767" lon="2.99099">
        <ele>940.4</ele>
        <time>2021-08-20T13:41:28Z</time>
      </trkpt>
      <trkpt lat="44.25767" lon="2.99101">
        <ele>940.6</ele>
        <time>2021-08-20T13:41:29Z</time>
      </trkpt>
      <trkpt lat="44.25766" lon="2.99102">
        <ele>940.6</ele>
        <time>2021-08-20T13:41:30Z</time>
      </trkpt>
      <trkpt lat="44.25765" lon="2.99105">
        <ele>940.8</ele>
        <time>2021-08-20T13:41:31Z</time>
      </trkpt>
      <trkpt lat="44.25764" lon="2.99106">
        <ele>940.8</ele>
        <time>2021-08-20T13:41:32Z</time>
      </trkpt>
      <trkpt lat="44.25764" lon="2.99108">
        <ele>941</ele>
        <time>2021-08-20T13:41:33Z</time>
      </trkpt>
      <trkpt lat="44.25764" lon="2.9911">
        <ele>941</ele>
        <time>2021-08-20T13:41:34Z</time>
      </trkpt>
      <trkpt lat="44.25763" lon="2.99112">
        <ele>941</ele>
        <time>2021-08-20T13:41:35Z</time>
      </trkpt>
      <trkpt lat="44.25763" lon="2.99113">
        <ele>941.2</ele>
        <time>2021-08-20T13:41:36Z</time>
      </trkpt>
      <trkpt lat="44.25762" lon="2.99115">
        <ele>941.2</ele>
        <time>2021-08-20T13:41:37Z</time>
      </trkpt>
      <trkpt lat="44.25761" lon="2.99117">
        <ele>941.4</ele>
        <time>2021-08-20T13:41:38Z</time>
      </trkpt>
      <trkpt lat="44.25761" lon="2.99118">
        <ele>941.4</ele>
        <time>2021-08-20T13:41:39Z</time>
      </trkpt>
      <trkpt lat="44.2576" lon="2.9912">
        <ele>941.6</ele>
        <time>2021-08-20T13:41:40Z</time>
      </trkpt>
      <trkpt lat="44.25759" lon="2.99122">
        <ele>941.6</ele>
        <time>2021-08-20T13:41:41Z</time>
      </trkpt>
      <trkpt lat="44.25758" lon="2.99125">
        <ele>941.8</ele>
        <time>2021-08-20T13:41:42Z</time>
      </trkpt>
      <trkpt lat="44.25756" lon="2.99127">
        <ele>941.8</ele>
        <time>2021-08-20T13:41:43Z</time>
      </trkpt>
      <trkpt lat="44.25755" lon="2.9913">
        <ele>942</ele>
        <time>2021-08-20T13:41:44Z</time>
      </trkpt>
      <trkpt lat="44.25753" lon="2.99133">
        <ele>942.2</ele>
        <time>2021-08-20T13:41:45Z</time>
      </trkpt>
      <trkpt lat="44.25752" lon="2.99136">
        <ele>942.2</ele>
        <time>2021-08-20T13:41:46Z</time>
      </trkpt>
      <trkpt lat="44.2575" lon="2.99139">
        <ele>942.4</ele>
        <time>2021-08-20T13:41:47Z</time>
      </trkpt>
      <trkpt lat="44.25748" lon="2.99142">
        <ele>942.6</ele>
        <time>2021-08-20T13:41:48Z</time>
      </trkpt>
      <trkpt lat="44.25746" lon="2.99145">
        <ele>942.6</ele>
        <time>2021-08-20T13:41:49Z</time>
      </trkpt>
      <trkpt lat="44.25744" lon="2.99148">
        <ele>942.8</ele>
        <time>2021-08-20T13:41:50Z</time>
      </trkpt>
      <trkpt lat="44.25743" lon="2.9915">
        <ele>942.8</ele>
        <time>2021-08-20T13:41:51Z</time>
      </trkpt>
      <trkpt lat="44.2574" lon="2.99153">
        <ele>943</ele>
        <time>2021-08-20T13:41:52Z</time>
      </trkpt>
      <trkpt lat="44.25739" lon="2.99154">
        <ele>943.2</ele>
        <time>2021-08-20T13:41:53Z</time>
      </trkpt>
      <trkpt lat="44.25736" lon="2.99157">
        <ele>943.4</ele>
        <time>2021-08-20T13:41:54Z</time>
      </trkpt>
      <trkpt lat="44.25733" lon="2.99158">
        <ele>943.6</ele>
        <time>2021-08-20T13:41:55Z</time>
      </trkpt>
      <trkpt lat="44.25731" lon="2.9916">
        <ele>943.6</ele>
        <time>2021-08-20T13:41:56Z</time>
      </trkpt>
      <trkpt lat="44.25729" lon="2.99162">
        <ele>943.6</ele>
        <time>2021-08-20T13:41:57Z</time>
      </trkpt>
      <trkpt lat="44.25727" lon="2.99164">
        <ele>943.6</ele>
        <time>2021-08-20T13:41:58Z</time>
      </trkpt>
      <trkpt lat="44.25724" lon="2.99166">
        <ele>944</ele>
        <time>2021-08-20T13:41:59Z</time>
      </trkpt>
      <trkpt lat="44.25722" lon="2.99168">
        <ele>944</ele>
        <time>2021-08-20T13:42:00Z</time>
      </trkpt>
      <trkpt lat="44.2572" lon="2.9917">
        <ele>944.2</ele>
        <time>2021-08-20T13:42:01Z</time>
      </trkpt>
      <trkpt lat="44.25717" lon="2.99171">
        <ele>944.4</ele>
        <time>2021-08-20T13:42:02Z</time>
      </trkpt>
      <trkpt lat="44.25715" lon="2.99174">
        <ele>944.4</ele>
        <time>2021-08-20T13:42:03Z</time>
      </trkpt>
      <trkpt lat="44.25712" lon="2.99176">
        <ele>944.4</ele>
        <time>2021-08-20T13:42:04Z</time>
      </trkpt>
      <trkpt lat="44.25709" lon="2.99178">
        <ele>944.4</ele>
        <time>2021-08-20T13:42:05Z</time>
      </trkpt>
      <trkpt lat="44.25707" lon="2.9918">
        <ele>944.4</ele>
        <time>2021-08-20T13:42:06Z</time>
      </trkpt>
      <trkpt lat="44.25704" lon="2.99182">
        <ele>944.4</ele>
        <time>2021-08-20T13:42:07Z</time>
      </trkpt>
      <trkpt lat="44.25701" lon="2.99184">
        <ele>944.4</ele>
        <time>2021-08-20T13:42:08Z</time>
      </trkpt>
      <trkpt lat="44.25698" lon="2.99186">
        <ele>944.4</ele>
        <time>2021-08-20T13:42:09Z</time>
      </trkpt>
      <trkpt lat="44.25695" lon="2.99188">
        <ele>944.4</ele>
        <time>2021-08-20T13:42:10Z</time>
      </trkpt>
      <trkpt lat="44.25692" lon="2.9919">
        <ele>944.4</ele>
        <time>2021-08-20T13:42:11Z</time>
      </trkpt>
      <trkpt lat="44.25688" lon="2.99192">
        <ele>944.4</ele>
        <time>2021-08-20T13:42:12Z</time>
      </trkpt>
      <trkpt lat="44.25676" lon="2.99196">
        <ele>943.8</ele>
        <time>2021-08-20T13:42:15Z</time>
      </trkpt>
      <trkpt lat="44.25642" lon="2.99212">
        <ele>943</ele>
        <time>2021-08-20T13:42:22Z</time>
      </trkpt>
      <trkpt lat="44.25636" lon="2.99215">
        <ele>942.8</ele>
        <time>2021-08-20T13:42:23Z</time>
      </trkpt>
      <trkpt lat="44.2561" lon="2.99228">
        <ele>941.8</ele>
        <time>2021-08-20T13:42:27Z</time>
      </trkpt>
      <trkpt lat="44.25603" lon="2.99231">
        <ele>941.6</ele>
        <time>2021-08-20T13:42:28Z</time>
      </trkpt>
      <trkpt lat="44.25583" lon="2.99243">
        <ele>940.2</ele>
        <time>2021-08-20T13:42:31Z</time>
      </trkpt>
      <trkpt lat="44.25576" lon="2.99247">
        <ele>939.8</ele>
        <time>2021-08-20T13:42:32Z</time>
      </trkpt>
      <trkpt lat="44.25569" lon="2.99251">
        <ele>939.4</ele>
        <time>2021-08-20T13:42:33Z</time>
      </trkpt>
      <trkpt lat="44.25562" lon="2.99253">
        <ele>939.2</ele>
        <time>2021-08-20T13:42:34Z</time>
      </trkpt>
      <trkpt lat="44.25556" lon="2.99254">
        <ele>937.8</ele>
        <time>2021-08-20T13:42:35Z</time>
      </trkpt>
      <trkpt lat="44.2555" lon="2.99253">
        <ele>937.2</ele>
        <time>2021-08-20T13:42:36Z</time>
      </trkpt>
      <trkpt lat="44.25543" lon="2.99251">
        <ele>936.8</ele>
        <time>2021-08-20T13:42:37Z</time>
      </trkpt>
      <trkpt lat="44.25537" lon="2.99248">
        <ele>936</ele>
        <time>2021-08-20T13:42:38Z</time>
      </trkpt>
      <trkpt lat="44.25531" lon="2.99246">
        <ele>935.6</ele>
        <time>2021-08-20T13:42:39Z</time>
      </trkpt>
      <trkpt lat="44.25527" lon="2.99245">
        <ele>935</ele>
        <time>2021-08-20T13:42:40Z</time>
      </trkpt>
      <trkpt lat="44.25523" lon="2.99246">
        <ele>934.6</ele>
        <time>2021-08-20T13:42:41Z</time>
      </trkpt>
      <trkpt lat="44.25519" lon="2.99247">
        <ele>934</ele>
        <time>2021-08-20T13:42:42Z</time>
      </trkpt>
      <trkpt lat="44.25516" lon="2.99248">
        <ele>933.6</ele>
        <time>2021-08-20T13:42:43Z</time>
      </trkpt>
      <trkpt lat="44.25513" lon="2.99248">
        <ele>933.2</ele>
        <time>2021-08-20T13:42:44Z</time>
      </trkpt>
      <trkpt lat="44.2551" lon="2.99248">
        <ele>932.6</ele>
        <time>2021-08-20T13:42:45Z</time>
      </trkpt>
      <trkpt lat="44.25507" lon="2.99248">
        <ele>932.4</ele>
        <time>2021-08-20T13:42:46Z</time>
      </trkpt>
      <trkpt lat="44.25504" lon="2.99248">
        <ele>932</ele>
        <time>2021-08-20T13:42:47Z</time>
      </trkpt>
      <trkpt lat="44.25501" lon="2.99246">
        <ele>931.8</ele>
        <time>2021-08-20T13:42:48Z</time>
      </trkpt>
      <trkpt lat="44.255" lon="2.99244">
        <ele>931.4</ele>
        <time>2021-08-20T13:42:49Z</time>
      </trkpt>
      <trkpt lat="44.25498" lon="2.99242">
        <ele>931.4</ele>
        <time>2021-08-20T13:42:50Z</time>
      </trkpt>
      <trkpt lat="44.25497" lon="2.9924">
        <ele>931</ele>
        <time>2021-08-20T13:42:51Z</time>
      </trkpt>
      <trkpt lat="44.25497" lon="2.99239">
        <ele>930.4</ele>
        <time>2021-08-20T13:42:52Z</time>
      </trkpt>
      <trkpt lat="44.25496" lon="2.99238">
        <ele>929.6</ele>
        <time>2021-08-20T13:43:00Z</time>
      </trkpt>
      <trkpt lat="44.25496" lon="2.99237">
        <ele>929.6</ele>
        <time>2021-08-20T13:43:01Z</time>
      </trkpt>
      <trkpt lat="44.25496" lon="2.9923">
        <ele>929.4</ele>
        <time>2021-08-20T13:43:04Z</time>
      </trkpt>
      <trkpt lat="44.25496" lon="2.99227">
        <ele>929.4</ele>
        <time>2021-08-20T13:43:05Z</time>
      </trkpt>
      <trkpt lat="44.25496" lon="2.99224">
        <ele>929.4</ele>
        <time>2021-08-20T13:43:06Z</time>
      </trkpt>
      <trkpt lat="44.25496" lon="2.99222">
        <ele>929.4</ele>
        <time>2021-08-20T13:43:07Z</time>
      </trkpt>
      <trkpt lat="44.25496" lon="2.99221">
        <ele>929.4</ele>
        <time>2021-08-20T13:43:08Z</time>
      </trkpt>
      <trkpt lat="44.25496" lon="2.99219">
        <ele>929.4</ele>
        <time>2021-08-20T13:43:09Z</time>
      </trkpt>
      <trkpt lat="44.25495" lon="2.99218">
        <ele>929.4</ele>
        <time>2021-08-20T13:43:10Z</time>
      </trkpt>
      <trkpt lat="44.25495" lon="2.99217">
        <ele>929.4</ele>
        <time>2021-08-20T13:43:11Z</time>
      </trkpt>
      <trkpt lat="44.25495" lon="2.99216">
        <ele>929.6</ele>
        <time>2021-08-20T13:43:12Z</time>
      </trkpt>
      <trkpt lat="44.25495" lon="2.99216">
        <ele>929.6</ele>
        <time>2021-08-20T13:43:13Z</time>
      </trkpt>
      <trkpt lat="44.25495" lon="2.99216">
        <ele>929.8</ele>
        <time>2021-08-20T13:43:14Z</time>
      </trkpt>
      <trkpt lat="44.25495" lon="2.99216">
        <ele>930</ele>
        <time>2021-08-20T13:43:19Z</time>
      </trkpt>
      <trkpt lat="44.25494" lon="2.99216">
        <ele>930</ele>
        <time>2021-08-20T13:43:21Z</time>
      </trkpt>
      <trkpt lat="44.25494" lon="2.99216">
        <ele>930</ele>
        <time>2021-08-20T13:43:22Z</time>
      </trkpt>
      <trkpt lat="44.25493" lon="2.99227">
        <ele>929.8</ele>
        <time>2021-08-20T13:43:27Z</time>
      </trkpt>
      <trkpt lat="44.25493" lon="2.99235">
        <ele>929.6</ele>
        <time>2021-08-20T13:43:30Z</time>
      </trkpt>
      <trkpt lat="44.25494" lon="2.99238">
        <ele>929.6</ele>
        <time>2021-08-20T13:43:31Z</time>
      </trkpt>
      <trkpt lat="44.25495" lon="2.99241">
        <ele>929.6</ele>
        <time>2021-08-20T13:43:32Z</time>
      </trkpt>
      <trkpt lat="44.25497" lon="2.99244">
        <ele>929.4</ele>
        <time>2021-08-20T13:43:33Z</time>
      </trkpt>
      <trkpt lat="44.25498" lon="2.99246">
        <ele>929.4</ele>
        <time>2021-08-20T13:43:34Z</time>
      </trkpt>
      <trkpt lat="44.25498" lon="2.99248">
        <ele>929.4</ele>
        <time>2021-08-20T13:43:35Z</time>
      </trkpt>
      <trkpt lat="44.25499" lon="2.99252">
        <ele>929.4</ele>
        <time>2021-08-20T13:43:37Z</time>
      </trkpt>
      <trkpt lat="44.25501" lon="2.99253">
        <ele>929.4</ele>
        <time>2021-08-20T13:43:38Z</time>
      </trkpt>
      <trkpt lat="44.25502" lon="2.99253">
        <ele>929.4</ele>
        <time>2021-08-20T13:43:39Z</time>
      </trkpt>
      <trkpt lat="44.25502" lon="2.99251">
        <ele>929.2</ele>
        <time>2021-08-20T13:43:40Z</time>
      </trkpt>
      <trkpt lat="44.25502" lon="2.99249">
        <ele>929.4</ele>
        <time>2021-08-20T13:43:41Z</time>
      </trkpt>
      <trkpt lat="44.25499" lon="2.99245">
        <ele>929.4</ele>
        <time>2021-08-20T13:43:44Z</time>
      </trkpt>
      <trkpt lat="44.25498" lon="2.99243">
        <ele>929.4</ele>
        <time>2021-08-20T13:43:45Z</time>
      </trkpt>
      <trkpt lat="44.25496" lon="2.99241">
        <ele>929.6</ele>
        <time>2021-08-20T13:43:46Z</time>
      </trkpt>
      <trkpt lat="44.25495" lon="2.9924">
        <ele>929.6</ele>
        <time>2021-08-20T13:43:47Z</time>
      </trkpt>
      <trkpt lat="44.25495" lon="2.99239">
        <ele>929.8</ele>
        <time>2021-08-20T13:44:46Z</time>
      </trkpt>
      <trkpt lat="44.25496" lon="2.99241">
        <ele>929.8</ele>
        <time>2021-08-20T13:44:47Z</time>
      </trkpt>
      <trkpt lat="44.25497" lon="2.99243">
        <ele>929.8</ele>
        <time>2021-08-20T13:44:48Z</time>
      </trkpt>
      <trkpt lat="44.25499" lon="2.99245">
        <ele>929.8</ele>
        <time>2021-08-20T13:44:49Z</time>
      </trkpt>
      <trkpt lat="44.255" lon="2.99247">
        <ele>929.8</ele>
        <time>2021-08-20T13:44:50Z</time>
      </trkpt>
      <trkpt lat="44.25504" lon="2.99253">
        <ele>929.8</ele>
        <time>2021-08-20T13:44:52Z</time>
      </trkpt>
      <trkpt lat="44.25505" lon="2.99256">
        <ele>929.8</ele>
        <time>2021-08-20T13:44:53Z</time>
      </trkpt>
      <trkpt lat="44.25506" lon="2.99258">
        <ele>929.8</ele>
        <time>2021-08-20T13:44:54Z</time>
      </trkpt>
      <trkpt lat="44.25507" lon="2.9926">
        <ele>929.8</ele>
        <time>2021-08-20T13:44:55Z</time>
      </trkpt>
      <trkpt lat="44.25508" lon="2.99262">
        <ele>929.8</ele>
        <time>2021-08-20T13:44:56Z</time>
      </trkpt>
      <trkpt lat="44.25508" lon="2.99262">
        <ele>930</ele>
        <time>2021-08-20T13:44:57Z</time>
      </trkpt>
      <trkpt lat="44.25508" lon="2.99263">
        <ele>930</ele>
        <time>2021-08-20T13:44:58Z</time>
      </trkpt>
      <trkpt lat="44.25508" lon="2.99263">
        <ele>929.8</ele>
        <time>2021-08-20T13:44:59Z</time>
      </trkpt>
      <trkpt lat="44.25508" lon="2.99263">
        <ele>929.8</ele>
        <time>2021-08-20T13:45:00Z</time>
      </trkpt>
      <trkpt lat="44.25508" lon="2.99263">
        <ele>929.8</ele>
        <time>2021-08-20T13:45:01Z</time>
      </trkpt>
      <trkpt lat="44.25508" lon="2.99262">
        <ele>929.8</ele>
        <time>2021-08-20T13:45:02Z</time>
      </trkpt>
      <trkpt lat="44.25508" lon="2.99262">
        <ele>930.2</ele>
        <time>2021-08-20T13:45:38Z</time>
      </trkpt>
      <trkpt lat="44.25501" lon="2.99251">
        <ele>930</ele>
        <time>2021-08-20T13:45:43Z</time>
      </trkpt>
      <trkpt lat="44.25497" lon="2.99237">
        <ele>929.6</ele>
        <time>2021-08-20T13:45:47Z</time>
      </trkpt>
      <trkpt lat="44.25496" lon="2.99234">
        <ele>929.4</ele>
        <time>2021-08-20T13:45:48Z</time>
      </trkpt>
      <trkpt lat="44.25496" lon="2.99231">
        <ele>929.4</ele>
        <time>2021-08-20T13:45:49Z</time>
      </trkpt>
      <trkpt lat="44.25496" lon="2.99229">
        <ele>929.2</ele>
        <time>2021-08-20T13:45:50Z</time>
      </trkpt>
      <trkpt lat="44.25496" lon="2.99226">
        <ele>929.2</ele>
        <time>2021-08-20T13:45:51Z</time>
      </trkpt>
      <trkpt lat="44.25496" lon="2.99225">
        <ele>929.2</ele>
        <time>2021-08-20T13:45:52Z</time>
      </trkpt>
      <trkpt lat="44.25496" lon="2.99224">
        <ele>929.2</ele>
        <time>2021-08-20T13:45:55Z</time>
      </trkpt>
      <trkpt lat="44.25496" lon="2.99224">
        <ele>929.4</ele>
        <time>2021-08-20T13:45:56Z</time>
      </trkpt>
      <trkpt lat="44.25496" lon="2.99224">
        <ele>929.4</ele>
        <time>2021-08-20T13:49:53Z</time>
      </trkpt>
      <trkpt lat="44.25496" lon="2.99233">
        <ele>929.4</ele>
        <time>2021-08-20T13:49:57Z</time>
      </trkpt>
      <trkpt lat="44.25495" lon="2.99235">
        <ele>929.6</ele>
        <time>2021-08-20T13:51:56Z</time>
      </trkpt>
      <trkpt lat="44.25496" lon="2.99238">
        <ele>929.6</ele>
        <time>2021-08-20T13:51:58Z</time>
      </trkpt>
      <trkpt lat="44.25497" lon="2.9924">
        <ele>929.6</ele>
        <time>2021-08-20T13:51:59Z</time>
      </trkpt>
      <trkpt lat="44.25497" lon="2.9924">
        <ele>929.6</ele>
        <time>2021-08-20T13:52:00Z</time>
      </trkpt>
      <trkpt lat="44.25499" lon="2.99243">
        <ele>929.6</ele>
        <time>2021-08-20T13:52:01Z</time>
      </trkpt>
      <trkpt lat="44.25499" lon="2.99243">
        <ele>929.6</ele>
        <time>2021-08-20T13:52:02Z</time>
      </trkpt>
      <trkpt lat="44.255" lon="2.99244">
        <ele>929.6</ele>
        <time>2021-08-20T13:52:03Z</time>
      </trkpt>
      <trkpt lat="44.25501" lon="2.99243">
        <ele>929.6</ele>
        <time>2021-08-20T13:52:04Z</time>
      </trkpt>
      <trkpt lat="44.25502" lon="2.99242">
        <ele>929.6</ele>
        <time>2021-08-20T13:52:05Z</time>
      </trkpt>
      <trkpt lat="44.25505" lon="2.99244">
        <ele>929.6</ele>
        <time>2021-08-20T13:52:06Z</time>
      </trkpt>
      <trkpt lat="44.25506" lon="2.99246">
        <ele>929.6</ele>
        <time>2021-08-20T13:52:08Z</time>
      </trkpt>
      <trkpt lat="44.25507" lon="2.9925">
        <ele>929.8</ele>
        <time>2021-08-20T13:52:10Z</time>
      </trkpt>
      <trkpt lat="44.25509" lon="2.99253">
        <ele>929.8</ele>
        <time>2021-08-20T13:52:11Z</time>
      </trkpt>
      <trkpt lat="44.25509" lon="2.99254">
        <ele>929.8</ele>
        <time>2021-08-20T13:52:12Z</time>
      </trkpt>
      <trkpt lat="44.2551" lon="2.99256">
        <ele>929.8</ele>
        <time>2021-08-20T13:52:13Z</time>
      </trkpt>
      <trkpt lat="44.2551" lon="2.99256">
        <ele>929.8</ele>
        <time>2021-08-20T13:52:14Z</time>
      </trkpt>
      <trkpt lat="44.25511" lon="2.99258">
        <ele>930</ele>
        <time>2021-08-20T13:52:15Z</time>
      </trkpt>
      <trkpt lat="44.2551" lon="2.9926">
        <ele>930</ele>
        <time>2021-08-20T13:52:16Z</time>
      </trkpt>
      <trkpt lat="44.2551" lon="2.9926">
        <ele>930</ele>
        <time>2021-08-20T13:52:17Z</time>
      </trkpt>
      <trkpt lat="44.25508" lon="2.99257">
        <ele>930.4</ele>
        <time>2021-08-20T13:52:20Z</time>
      </trkpt>
      <trkpt lat="44.25507" lon="2.99254">
        <ele>930.4</ele>
        <time>2021-08-20T13:52:22Z</time>
      </trkpt>
      <trkpt lat="44.25507" lon="2.99254">
        <ele>930.4</ele>
        <time>2021-08-20T13:52:23Z</time>
      </trkpt>
      <trkpt lat="44.25504" lon="2.99251">
        <ele>930.4</ele>
        <time>2021-08-20T13:52:25Z</time>
      </trkpt>
      <trkpt lat="44.25501" lon="2.99247">
        <ele>930.4</ele>
        <time>2021-08-20T13:52:26Z</time>
      </trkpt>
      <trkpt lat="44.25498" lon="2.99239">
        <ele>930.2</ele>
        <time>2021-08-20T13:52:30Z</time>
      </trkpt>
      <trkpt lat="44.25496" lon="2.99232">
        <ele>930</ele>
        <time>2021-08-20T13:52:31Z</time>
      </trkpt>
      <trkpt lat="44.25496" lon="2.9923">
        <ele>930</ele>
        <time>2021-08-20T13:52:32Z</time>
      </trkpt>
      <trkpt lat="44.25496" lon="2.9923">
        <ele>929.8</ele>
        <time>2021-08-20T13:52:33Z</time>
      </trkpt>
      <trkpt lat="44.25496" lon="2.99224">
        <ele>929.8</ele>
        <time>2021-08-20T13:52:34Z</time>
      </trkpt>
      <trkpt lat="44.25496" lon="2.99222">
        <ele>929.8</ele>
        <time>2021-08-20T13:52:35Z</time>
      </trkpt>
      <trkpt lat="44.25495" lon="2.9922">
        <ele>930</ele>
        <time>2021-08-20T13:52:36Z</time>
      </trkpt>
      <trkpt lat="44.25494" lon="2.99217">
        <ele>930</ele>
        <time>2021-08-20T13:52:37Z</time>
      </trkpt>
      <trkpt lat="44.25493" lon="2.99214">
        <ele>930</ele>
        <time>2021-08-20T13:52:38Z</time>
      </trkpt>
      <trkpt lat="44.25491" lon="2.99205">
        <ele>930.2</ele>
        <time>2021-08-20T13:52:41Z</time>
      </trkpt>
      <trkpt lat="44.2549" lon="2.99202">
        <ele>930.2</ele>
        <time>2021-08-20T13:52:42Z</time>
      </trkpt>
      <trkpt lat="44.25489" lon="2.992">
        <ele>930.6</ele>
        <time>2021-08-20T13:52:43Z</time>
      </trkpt>
      <trkpt lat="44.25488" lon="2.99197">
        <ele>930.8</ele>
        <time>2021-08-20T13:52:44Z</time>
      </trkpt>
      <trkpt lat="44.25487" lon="2.99194">
        <ele>930.8</ele>
        <time>2021-08-20T13:52:45Z</time>
      </trkpt>
      <trkpt lat="44.25487" lon="2.99193">
        <ele>931</ele>
        <time>2021-08-20T13:52:47Z</time>
      </trkpt>
      <trkpt lat="44.25472" lon="2.99163">
        <ele>931</ele>
        <time>2021-08-20T13:52:56Z</time>
      </trkpt>
      <trkpt lat="44.2547" lon="2.99158">
        <ele>930.8</ele>
        <time>2021-08-20T13:52:57Z</time>
      </trkpt>
      <trkpt lat="44.25449" lon="2.99124">
        <ele>930.8</ele>
        <time>2021-08-20T13:53:07Z</time>
      </trkpt>
      <trkpt lat="44.25443" lon="2.99112">
        <ele>930.8</ele>
        <time>2021-08-20T13:53:09Z</time>
      </trkpt>
      <trkpt lat="44.25428" lon="2.99085">
        <ele>930.8</ele>
        <time>2021-08-20T13:53:15Z</time>
      </trkpt>
      <trkpt lat="44.25423" lon="2.99067">
        <ele>931</ele>
        <time>2021-08-20T13:53:19Z</time>
      </trkpt>
      <trkpt lat="44.25422" lon="2.99063">
        <ele>931</ele>
        <time>2021-08-20T13:53:20Z</time>
      </trkpt>
      <trkpt lat="44.25418" lon="2.99051">
        <ele>931.2</ele>
        <time>2021-08-20T13:53:23Z</time>
      </trkpt>
      <trkpt lat="44.25409" lon="2.99022">
        <ele>931.6</ele>
        <time>2021-08-20T13:53:29Z</time>
      </trkpt>
      <trkpt lat="44.25408" lon="2.99017">
        <ele>931.8</ele>
        <time>2021-08-20T13:53:30Z</time>
      </trkpt>
      <trkpt lat="44.25407" lon="2.99011">
        <ele>931.8</ele>
        <time>2021-08-20T13:53:31Z</time>
      </trkpt>
      <trkpt lat="44.25405" lon="2.99006">
        <ele>931.8</ele>
        <time>2021-08-20T13:53:32Z</time>
      </trkpt>
      <trkpt lat="44.25405" lon="2.99006">
        <ele>932</ele>
        <time>2021-08-20T13:53:33Z</time>
      </trkpt>
      <trkpt lat="44.25403" lon="2.98996">
        <ele>932</ele>
        <time>2021-08-20T13:53:34Z</time>
      </trkpt>
      <trkpt lat="44.25402" lon="2.98991">
        <ele>932</ele>
        <time>2021-08-20T13:53:35Z</time>
      </trkpt>
      <trkpt lat="44.25401" lon="2.98987">
        <ele>932</ele>
        <time>2021-08-20T13:53:36Z</time>
      </trkpt>
      <trkpt lat="44.25391" lon="2.98961">
        <ele>932.8</ele>
        <time>2021-08-20T13:53:42Z</time>
      </trkpt>
      <trkpt lat="44.25389" lon="2.98957">
        <ele>933</ele>
        <time>2021-08-20T13:53:43Z</time>
      </trkpt>
      <trkpt lat="44.25387" lon="2.98947">
        <ele>933.4</ele>
        <time>2021-08-20T13:53:45Z</time>
      </trkpt>
      <trkpt lat="44.25386" lon="2.98941">
        <ele>933.4</ele>
        <time>2021-08-20T13:53:46Z</time>
      </trkpt>
      <trkpt lat="44.25385" lon="2.98936">
        <ele>933.6</ele>
        <time>2021-08-20T13:53:48Z</time>
      </trkpt>
      <trkpt lat="44.25383" lon="2.98922">
        <ele>934.2</ele>
        <time>2021-08-20T13:53:50Z</time>
      </trkpt>
      <trkpt lat="44.25382" lon="2.98911">
        <ele>934.6</ele>
        <time>2021-08-20T13:53:53Z</time>
      </trkpt>
      <trkpt lat="44.2538" lon="2.989">
        <ele>934.8</ele>
        <time>2021-08-20T13:53:54Z</time>
      </trkpt>
      <trkpt lat="44.25379" lon="2.98895">
        <ele>934.8</ele>
        <time>2021-08-20T13:53:55Z</time>
      </trkpt>
      <trkpt lat="44.25379" lon="2.98889">
        <ele>935</ele>
        <time>2021-08-20T13:53:56Z</time>
      </trkpt>
      <trkpt lat="44.25378" lon="2.98883">
        <ele>935.4</ele>
        <time>2021-08-20T13:53:57Z</time>
      </trkpt>
      <trkpt lat="44.25378" lon="2.98876">
        <ele>935.4</ele>
        <time>2021-08-20T13:53:58Z</time>
      </trkpt>
      <trkpt lat="44.25375" lon="2.98869">
        <ele>935.4</ele>
        <time>2021-08-20T13:53:59Z</time>
      </trkpt>
      <trkpt lat="44.25374" lon="2.98863">
        <ele>935.6</ele>
        <time>2021-08-20T13:54:00Z</time>
      </trkpt>
      <trkpt lat="44.25372" lon="2.98856">
        <ele>935.6</ele>
        <time>2021-08-20T13:54:01Z</time>
      </trkpt>
      <trkpt lat="44.25371" lon="2.98849">
        <ele>935.6</ele>
        <time>2021-08-20T13:54:02Z</time>
      </trkpt>
      <trkpt lat="44.2537" lon="2.98843">
        <ele>935.6</ele>
        <time>2021-08-20T13:54:03Z</time>
      </trkpt>
      <trkpt lat="44.25369" lon="2.98837">
        <ele>935.8</ele>
        <time>2021-08-20T13:54:04Z</time>
      </trkpt>
      <trkpt lat="44.25368" lon="2.98831">
        <ele>935.8</ele>
        <time>2021-08-20T13:54:05Z</time>
      </trkpt>
      <trkpt lat="44.25368" lon="2.98824">
        <ele>936</ele>
        <time>2021-08-20T13:54:06Z</time>
      </trkpt>
      <trkpt lat="44.25367" lon="2.98818">
        <ele>936</ele>
        <time>2021-08-20T13:54:07Z</time>
      </trkpt>
      <trkpt lat="44.25367" lon="2.98812">
        <ele>936.2</ele>
        <time>2021-08-20T13:54:08Z</time>
      </trkpt>
      <trkpt lat="44.25367" lon="2.98812">
        <ele>936.2</ele>
        <time>2021-08-20T13:54:09Z</time>
      </trkpt>
      <trkpt lat="44.25365" lon="2.988">
        <ele>936.4</ele>
        <time>2021-08-20T13:54:10Z</time>
      </trkpt>
      <trkpt lat="44.25365" lon="2.988">
        <ele>936.4</ele>
        <time>2021-08-20T13:54:11Z</time>
      </trkpt>
      <trkpt lat="44.25364" lon="2.98794">
        <ele>936.4</ele>
        <time>2021-08-20T13:54:12Z</time>
      </trkpt>
      <trkpt lat="44.25363" lon="2.98789">
        <ele>936.4</ele>
        <time>2021-08-20T13:54:13Z</time>
      </trkpt>
      <trkpt lat="44.25361" lon="2.98777">
        <ele>936.6</ele>
        <time>2021-08-20T13:54:14Z</time>
      </trkpt>
      <trkpt lat="44.2536" lon="2.98771">
        <ele>936.6</ele>
        <time>2021-08-20T13:54:15Z</time>
      </trkpt>
      <trkpt lat="44.25359" lon="2.98765">
        <ele>936.6</ele>
        <time>2021-08-20T13:54:16Z</time>
      </trkpt>
      <trkpt lat="44.25358" lon="2.9876">
        <ele>937</ele>
        <time>2021-08-20T13:54:17Z</time>
      </trkpt>
      <trkpt lat="44.25357" lon="2.98754">
        <ele>936.8</ele>
        <time>2021-08-20T13:54:18Z</time>
      </trkpt>
      <trkpt lat="44.25356" lon="2.98749">
        <ele>937</ele>
        <time>2021-08-20T13:54:19Z</time>
      </trkpt>
      <trkpt lat="44.25355" lon="2.98743">
        <ele>937</ele>
        <time>2021-08-20T13:54:20Z</time>
      </trkpt>
      <trkpt lat="44.25355" lon="2.98731">
        <ele>936.8</ele>
        <time>2021-08-20T13:54:22Z</time>
      </trkpt>
      <trkpt lat="44.25356" lon="2.98726">
        <ele>937</ele>
        <time>2021-08-20T13:54:23Z</time>
      </trkpt>
      <trkpt lat="44.25357" lon="2.98718">
        <ele>937.2</ele>
        <time>2021-08-20T13:54:24Z</time>
      </trkpt>
      <trkpt lat="44.25362" lon="2.98696">
        <ele>937.2</ele>
        <time>2021-08-20T13:54:28Z</time>
      </trkpt>
      <trkpt lat="44.25364" lon="2.9869">
        <ele>937</ele>
        <time>2021-08-20T13:54:29Z</time>
      </trkpt>
      <trkpt lat="44.25366" lon="2.98685">
        <ele>936.8</ele>
        <time>2021-08-20T13:54:30Z</time>
      </trkpt>
      <trkpt lat="44.25378" lon="2.98651">
        <ele>936.4</ele>
        <time>2021-08-20T13:54:35Z</time>
      </trkpt>
      <trkpt lat="44.25394" lon="2.98619">
        <ele>935.4</ele>
        <time>2021-08-20T13:54:39Z</time>
      </trkpt>
      <trkpt lat="44.25405" lon="2.98606">
        <ele>933.4</ele>
        <time>2021-08-20T13:54:41Z</time>
      </trkpt>
      <trkpt lat="44.25412" lon="2.98601">
        <ele>932.2</ele>
        <time>2021-08-20T13:54:42Z</time>
      </trkpt>
      <trkpt lat="44.25419" lon="2.98595">
        <ele>931.8</ele>
        <time>2021-08-20T13:54:43Z</time>
      </trkpt>
      <trkpt lat="44.25433" lon="2.98586">
        <ele>931.2</ele>
        <time>2021-08-20T13:54:45Z</time>
      </trkpt>
      <trkpt lat="44.25448" lon="2.98577">
        <ele>929.6</ele>
        <time>2021-08-20T13:54:47Z</time>
      </trkpt>
      <trkpt lat="44.25455" lon="2.98572">
        <ele>928.8</ele>
        <time>2021-08-20T13:54:48Z</time>
      </trkpt>
      <trkpt lat="44.25462" lon="2.98566">
        <ele>927.2</ele>
        <time>2021-08-20T13:54:49Z</time>
      </trkpt>
      <trkpt lat="44.25468" lon="2.98559">
        <ele>926.6</ele>
        <time>2021-08-20T13:54:50Z</time>
      </trkpt>
      <trkpt lat="44.25473" lon="2.98551">
        <ele>925.4</ele>
        <time>2021-08-20T13:54:51Z</time>
      </trkpt>
      <trkpt lat="44.25476" lon="2.98541">
        <ele>924.8</ele>
        <time>2021-08-20T13:54:52Z</time>
      </trkpt>
      <trkpt lat="44.25478" lon="2.98531">
        <ele>922.8</ele>
        <time>2021-08-20T13:54:53Z</time>
      </trkpt>
      <trkpt lat="44.25478" lon="2.98522">
        <ele>921.8</ele>
        <time>2021-08-20T13:54:54Z</time>
      </trkpt>
      <trkpt lat="44.25477" lon="2.98512">
        <ele>921.4</ele>
        <time>2021-08-20T13:54:55Z</time>
      </trkpt>
      <trkpt lat="44.25475" lon="2.98502">
        <ele>920</ele>
        <time>2021-08-20T13:54:56Z</time>
      </trkpt>
      <trkpt lat="44.25473" lon="2.98493">
        <ele>919.6</ele>
        <time>2021-08-20T13:54:57Z</time>
      </trkpt>
      <trkpt lat="44.25471" lon="2.98484">
        <ele>919.4</ele>
        <time>2021-08-20T13:54:58Z</time>
      </trkpt>
      <trkpt lat="44.25468" lon="2.98464">
        <ele>919</ele>
        <time>2021-08-20T13:55:00Z</time>
      </trkpt>
      <trkpt lat="44.25468" lon="2.98444">
        <ele>918.8</ele>
        <time>2021-08-20T13:55:02Z</time>
      </trkpt>
      <trkpt lat="44.25475" lon="2.98377">
        <ele>918.4</ele>
        <time>2021-08-20T13:55:08Z</time>
      </trkpt>
      <trkpt lat="44.25476" lon="2.98364">
        <ele>917.6</ele>
        <time>2021-08-20T13:55:09Z</time>
      </trkpt>
      <trkpt lat="44.25476" lon="2.98364">
        <ele>917.2</ele>
        <time>2021-08-20T13:55:10Z</time>
      </trkpt>
      <trkpt lat="44.25479" lon="2.9834">
        <ele>916.8</ele>
        <time>2021-08-20T13:55:11Z</time>
      </trkpt>
      <trkpt lat="44.2548" lon="2.98329">
        <ele>916</ele>
        <time>2021-08-20T13:55:12Z</time>
      </trkpt>
      <trkpt lat="44.25481" lon="2.98319">
        <ele>915.8</ele>
        <time>2021-08-20T13:55:13Z</time>
      </trkpt>
      <trkpt lat="44.25481" lon="2.98309">
        <ele>914.4</ele>
        <time>2021-08-20T13:55:14Z</time>
      </trkpt>
      <trkpt lat="44.25478" lon="2.9829">
        <ele>913.2</ele>
        <time>2021-08-20T13:55:16Z</time>
      </trkpt>
      <trkpt lat="44.25476" lon="2.98281">
        <ele>913</ele>
        <time>2021-08-20T13:55:17Z</time>
      </trkpt>
      <trkpt lat="44.25473" lon="2.98272">
        <ele>911.8</ele>
        <time>2021-08-20T13:55:18Z</time>
      </trkpt>
      <trkpt lat="44.25466" lon="2.98254">
        <ele>910.8</ele>
        <time>2021-08-20T13:55:20Z</time>
      </trkpt>
      <trkpt lat="44.25459" lon="2.98234">
        <ele>909.6</ele>
        <time>2021-08-20T13:55:22Z</time>
      </trkpt>
      <trkpt lat="44.25453" lon="2.98215">
        <ele>908.4</ele>
        <time>2021-08-20T13:55:24Z</time>
      </trkpt>
      <trkpt lat="44.2545" lon="2.98205">
        <ele>907.8</ele>
        <time>2021-08-20T13:55:25Z</time>
      </trkpt>
      <trkpt lat="44.25447" lon="2.98195">
        <ele>907.6</ele>
        <time>2021-08-20T13:55:26Z</time>
      </trkpt>
      <trkpt lat="44.25445" lon="2.98185">
        <ele>907.4</ele>
        <time>2021-08-20T13:55:27Z</time>
      </trkpt>
      <trkpt lat="44.25443" lon="2.98176">
        <ele>906.8</ele>
        <time>2021-08-20T13:55:28Z</time>
      </trkpt>
      <trkpt lat="44.25442" lon="2.98168">
        <ele>906.8</ele>
        <time>2021-08-20T13:55:29Z</time>
      </trkpt>
      <trkpt lat="44.25442" lon="2.98163">
        <ele>906.6</ele>
        <time>2021-08-20T13:55:30Z</time>
      </trkpt>
      <trkpt lat="44.25441" lon="2.9816">
        <ele>906.2</ele>
        <time>2021-08-20T13:55:31Z</time>
      </trkpt>
      <trkpt lat="44.25441" lon="2.98159">
        <ele>906</ele>
        <time>2021-08-20T13:55:32Z</time>
      </trkpt>
      <trkpt lat="44.25441" lon="2.98159">
        <ele>906</ele>
        <time>2021-08-20T13:55:33Z</time>
      </trkpt>
      <trkpt lat="44.25441" lon="2.98159">
        <ele>905.6</ele>
        <time>2021-08-20T13:55:34Z</time>
      </trkpt>
      <trkpt lat="44.2544" lon="2.98154">
        <ele>903.8</ele>
        <time>2021-08-20T13:56:24Z</time>
      </trkpt>
      <trkpt lat="44.25438" lon="2.98147">
        <ele>903.8</ele>
        <time>2021-08-20T13:56:26Z</time>
      </trkpt>
      <trkpt lat="44.25433" lon="2.98136">
        <ele>903.8</ele>
        <time>2021-08-20T13:56:29Z</time>
      </trkpt>
      <trkpt lat="44.25431" lon="2.98132">
        <ele>903.8</ele>
        <time>2021-08-20T13:56:30Z</time>
      </trkpt>
      <trkpt lat="44.2543" lon="2.98129">
        <ele>903.6</ele>
        <time>2021-08-20T13:56:31Z</time>
      </trkpt>
      <trkpt lat="44.25424" lon="2.98112">
        <ele>903.4</ele>
        <time>2021-08-20T13:56:35Z</time>
      </trkpt>
      <trkpt lat="44.25422" lon="2.98108">
        <ele>903.4</ele>
        <time>2021-08-20T13:56:36Z</time>
      </trkpt>
      <trkpt lat="44.2542" lon="2.98103">
        <ele>903.4</ele>
        <time>2021-08-20T13:56:37Z</time>
      </trkpt>
      <trkpt lat="44.25419" lon="2.98099">
        <ele>903.2</ele>
        <time>2021-08-20T13:56:38Z</time>
      </trkpt>
      <trkpt lat="44.25417" lon="2.98091">
        <ele>903</ele>
        <time>2021-08-20T13:56:40Z</time>
      </trkpt>
      <trkpt lat="44.25416" lon="2.98087">
        <ele>903</ele>
        <time>2021-08-20T13:56:41Z</time>
      </trkpt>
      <trkpt lat="44.25415" lon="2.98083">
        <ele>902.8</ele>
        <time>2021-08-20T13:56:42Z</time>
      </trkpt>
      <trkpt lat="44.25415" lon="2.98079">
        <ele>902.6</ele>
        <time>2021-08-20T13:56:43Z</time>
      </trkpt>
      <trkpt lat="44.25415" lon="2.98076">
        <ele>902.6</ele>
        <time>2021-08-20T13:56:44Z</time>
      </trkpt>
      <trkpt lat="44.25414" lon="2.98073">
        <ele>902.6</ele>
        <time>2021-08-20T13:56:45Z</time>
      </trkpt>
      <trkpt lat="44.25414" lon="2.98071">
        <ele>902.6</ele>
        <time>2021-08-20T13:56:46Z</time>
      </trkpt>
      <trkpt lat="44.25414" lon="2.98069">
        <ele>902.6</ele>
        <time>2021-08-20T13:56:47Z</time>
      </trkpt>
      <trkpt lat="44.25413" lon="2.98067">
        <ele>902.6</ele>
        <time>2021-08-20T13:56:48Z</time>
      </trkpt>
      <trkpt lat="44.25413" lon="2.98065">
        <ele>902.6</ele>
        <time>2021-08-20T13:56:49Z</time>
      </trkpt>
      <trkpt lat="44.25412" lon="2.98063">
        <ele>902.6</ele>
        <time>2021-08-20T13:56:50Z</time>
      </trkpt>
      <trkpt lat="44.25411" lon="2.98061">
        <ele>902.6</ele>
        <time>2021-08-20T13:56:51Z</time>
      </trkpt>
      <trkpt lat="44.2541" lon="2.98057">
        <ele>902.8</ele>
        <time>2021-08-20T13:56:53Z</time>
      </trkpt>
      <trkpt lat="44.25409" lon="2.98049">
        <ele>903</ele>
        <time>2021-08-20T13:56:57Z</time>
      </trkpt>
      <trkpt lat="44.25409" lon="2.98048">
        <ele>903.2</ele>
        <time>2021-08-20T13:56:58Z</time>
      </trkpt>
      <trkpt lat="44.25408" lon="2.98046">
        <ele>903.4</ele>
        <time>2021-08-20T13:56:59Z</time>
      </trkpt>
      <trkpt lat="44.25408" lon="2.98045">
        <ele>903.4</ele>
        <time>2021-08-20T13:57:00Z</time>
      </trkpt>
      <trkpt lat="44.25408" lon="2.98043">
        <ele>903.2</ele>
        <time>2021-08-20T13:57:01Z</time>
      </trkpt>
      <trkpt lat="44.25408" lon="2.98033">
        <ele>903.4</ele>
        <time>2021-08-20T13:57:07Z</time>
      </trkpt>
      <trkpt lat="44.25409" lon="2.9803">
        <ele>903.6</ele>
        <time>2021-08-20T13:57:09Z</time>
      </trkpt>
      <trkpt lat="44.25409" lon="2.98029">
        <ele>903.8</ele>
        <time>2021-08-20T13:57:10Z</time>
      </trkpt>
      <trkpt lat="44.25409" lon="2.98027">
        <ele>904</ele>
        <time>2021-08-20T13:57:11Z</time>
      </trkpt>
      <trkpt lat="44.25409" lon="2.98026">
        <ele>904</ele>
        <time>2021-08-20T13:57:12Z</time>
      </trkpt>
      <trkpt lat="44.25408" lon="2.98024">
        <ele>904.2</ele>
        <time>2021-08-20T13:57:13Z</time>
      </trkpt>
      <trkpt lat="44.25408" lon="2.98022">
        <ele>904.2</ele>
        <time>2021-08-20T13:57:14Z</time>
      </trkpt>
      <trkpt lat="44.25408" lon="2.98019">
        <ele>904.4</ele>
        <time>2021-08-20T13:57:16Z</time>
      </trkpt>
      <trkpt lat="44.25409" lon="2.98013">
        <ele>904.8</ele>
        <time>2021-08-20T13:57:20Z</time>
      </trkpt>
      <trkpt lat="44.25409" lon="2.98011">
        <ele>905</ele>
        <time>2021-08-20T13:57:21Z</time>
      </trkpt>
      <trkpt lat="44.25408" lon="2.98006">
        <ele>905.2</ele>
        <time>2021-08-20T13:57:24Z</time>
      </trkpt>
      <trkpt lat="44.25408" lon="2.98004">
        <ele>905.4</ele>
        <time>2021-08-20T13:57:25Z</time>
      </trkpt>
      <trkpt lat="44.25408" lon="2.97998">
        <ele>905.8</ele>
        <time>2021-08-20T13:57:28Z</time>
      </trkpt>
      <trkpt lat="44.25408" lon="2.97994">
        <ele>906.2</ele>
        <time>2021-08-20T13:57:30Z</time>
      </trkpt>
      <trkpt lat="44.25408" lon="2.97989">
        <ele>906.8</ele>
        <time>2021-08-20T13:57:33Z</time>
      </trkpt>
      <trkpt lat="44.25408" lon="2.97987">
        <ele>906.8</ele>
        <time>2021-08-20T13:57:34Z</time>
      </trkpt>
      <trkpt lat="44.25408" lon="2.97986">
        <ele>907</ele>
        <time>2021-08-20T13:57:35Z</time>
      </trkpt>
      <trkpt lat="44.25408" lon="2.97984">
        <ele>907.2</ele>
        <time>2021-08-20T13:57:36Z</time>
      </trkpt>
      <trkpt lat="44.25408" lon="2.97982">
        <ele>907.4</ele>
        <time>2021-08-20T13:57:37Z</time>
      </trkpt>
      <trkpt lat="44.25408" lon="2.9798">
        <ele>907.4</ele>
        <time>2021-08-20T13:57:38Z</time>
      </trkpt>
      <trkpt lat="44.25408" lon="2.97978">
        <ele>907.6</ele>
        <time>2021-08-20T13:57:39Z</time>
      </trkpt>
      <trkpt lat="44.25408" lon="2.97978">
        <ele>907.6</ele>
        <time>2021-08-20T13:57:40Z</time>
      </trkpt>
      <trkpt lat="44.25408" lon="2.97975">
        <ele>907.8</ele>
        <time>2021-08-20T13:57:41Z</time>
      </trkpt>
      <trkpt lat="44.25407" lon="2.97973">
        <ele>908</ele>
        <time>2021-08-20T13:57:42Z</time>
      </trkpt>
      <trkpt lat="44.25407" lon="2.97973">
        <ele>908</ele>
        <time>2021-08-20T13:57:43Z</time>
      </trkpt>
      <trkpt lat="44.25407" lon="2.97969">
        <ele>908.4</ele>
        <time>2021-08-20T13:57:44Z</time>
      </trkpt>
      <trkpt lat="44.25407" lon="2.97967">
        <ele>908.4</ele>
        <time>2021-08-20T13:57:45Z</time>
      </trkpt>
      <trkpt lat="44.25407" lon="2.97965">
        <ele>908.8</ele>
        <time>2021-08-20T13:57:46Z</time>
      </trkpt>
      <trkpt lat="44.25407" lon="2.97963">
        <ele>908.6</ele>
        <time>2021-08-20T13:57:47Z</time>
      </trkpt>
      <trkpt lat="44.25407" lon="2.97961">
        <ele>908.8</ele>
        <time>2021-08-20T13:57:48Z</time>
      </trkpt>
      <trkpt lat="44.25407" lon="2.97961">
        <ele>909</ele>
        <time>2021-08-20T13:57:49Z</time>
      </trkpt>
      <trkpt lat="44.25407" lon="2.97957">
        <ele>909</ele>
        <time>2021-08-20T13:57:50Z</time>
      </trkpt>
      <trkpt lat="44.25406" lon="2.97955">
        <ele>909.2</ele>
        <time>2021-08-20T13:57:51Z</time>
      </trkpt>
      <trkpt lat="44.25406" lon="2.97954">
        <ele>909.2</ele>
        <time>2021-08-20T13:57:52Z</time>
      </trkpt>
      <trkpt lat="44.25406" lon="2.97952">
        <ele>909.4</ele>
        <time>2021-08-20T13:57:53Z</time>
      </trkpt>
      <trkpt lat="44.25406" lon="2.9795">
        <ele>909.4</ele>
        <time>2021-08-20T13:57:54Z</time>
      </trkpt>
      <trkpt lat="44.25405" lon="2.97948">
        <ele>909.6</ele>
        <time>2021-08-20T13:57:55Z</time>
      </trkpt>
      <trkpt lat="44.25405" lon="2.97946">
        <ele>909.6</ele>
        <time>2021-08-20T13:57:56Z</time>
      </trkpt>
      <trkpt lat="44.25405" lon="2.97943">
        <ele>909.6</ele>
        <time>2021-08-20T13:57:57Z</time>
      </trkpt>
      <trkpt lat="44.25405" lon="2.97941">
        <ele>909.6</ele>
        <time>2021-08-20T13:57:58Z</time>
      </trkpt>
      <trkpt lat="44.25404" lon="2.97938">
        <ele>909.8</ele>
        <time>2021-08-20T13:57:59Z</time>
      </trkpt>
      <trkpt lat="44.25403" lon="2.97935">
        <ele>909.8</ele>
        <time>2021-08-20T13:58:00Z</time>
      </trkpt>
      <trkpt lat="44.25403" lon="2.97932">
        <ele>910</ele>
        <time>2021-08-20T13:58:01Z</time>
      </trkpt>
      <trkpt lat="44.25403" lon="2.97929">
        <ele>910.2</ele>
        <time>2021-08-20T13:58:02Z</time>
      </trkpt>
      <trkpt lat="44.25403" lon="2.97929">
        <ele>910.4</ele>
        <time>2021-08-20T13:58:03Z</time>
      </trkpt>
      <trkpt lat="44.25402" lon="2.97923">
        <ele>910.6</ele>
        <time>2021-08-20T13:58:04Z</time>
      </trkpt>
      <trkpt lat="44.25402" lon="2.9792">
        <ele>910.8</ele>
        <time>2021-08-20T13:58:05Z</time>
      </trkpt>
      <trkpt lat="44.25401" lon="2.97916">
        <ele>910.8</ele>
        <time>2021-08-20T13:58:06Z</time>
      </trkpt>
      <trkpt lat="44.25401" lon="2.97913">
        <ele>911</ele>
        <time>2021-08-20T13:58:07Z</time>
      </trkpt>
      <trkpt lat="44.25401" lon="2.9791">
        <ele>911</ele>
        <time>2021-08-20T13:58:08Z</time>
      </trkpt>
      <trkpt lat="44.254" lon="2.97908">
        <ele>911.4</ele>
        <time>2021-08-20T13:58:09Z</time>
      </trkpt>
      <trkpt lat="44.254" lon="2.97905">
        <ele>911.4</ele>
        <time>2021-08-20T13:58:10Z</time>
      </trkpt>
      <trkpt lat="44.254" lon="2.97902">
        <ele>911.6</ele>
        <time>2021-08-20T13:58:11Z</time>
      </trkpt>
      <trkpt lat="44.25399" lon="2.97899">
        <ele>911.8</ele>
        <time>2021-08-20T13:58:12Z</time>
      </trkpt>
      <trkpt lat="44.25399" lon="2.97896">
        <ele>912</ele>
        <time>2021-08-20T13:58:13Z</time>
      </trkpt>
      <trkpt lat="44.25399" lon="2.97893">
        <ele>912.2</ele>
        <time>2021-08-20T13:58:14Z</time>
      </trkpt>
      <trkpt lat="44.25399" lon="2.9789">
        <ele>912.4</ele>
        <time>2021-08-20T13:58:15Z</time>
      </trkpt>
      <trkpt lat="44.25399" lon="2.97887">
        <ele>912.8</ele>
        <time>2021-08-20T13:58:16Z</time>
      </trkpt>
      <trkpt lat="44.25399" lon="2.97885">
        <ele>912.8</ele>
        <time>2021-08-20T13:58:17Z</time>
      </trkpt>
      <trkpt lat="44.25399" lon="2.97882">
        <ele>913</ele>
        <time>2021-08-20T13:58:18Z</time>
      </trkpt>
      <trkpt lat="44.25399" lon="2.97879">
        <ele>913</ele>
        <time>2021-08-20T13:58:19Z</time>
      </trkpt>
      <trkpt lat="44.25399" lon="2.97876">
        <ele>913</ele>
        <time>2021-08-20T13:58:20Z</time>
      </trkpt>
      <trkpt lat="44.25399" lon="2.97873">
        <ele>913</ele>
        <time>2021-08-20T13:58:21Z</time>
      </trkpt>
      <trkpt lat="44.25399" lon="2.9787">
        <ele>913.2</ele>
        <time>2021-08-20T13:58:22Z</time>
      </trkpt>
      <trkpt lat="44.254" lon="2.97867">
        <ele>913.4</ele>
        <time>2021-08-20T13:58:23Z</time>
      </trkpt>
      <trkpt lat="44.254" lon="2.97865">
        <ele>913.6</ele>
        <time>2021-08-20T13:58:24Z</time>
      </trkpt>
      <trkpt lat="44.254" lon="2.97862">
        <ele>913.8</ele>
        <time>2021-08-20T13:58:25Z</time>
      </trkpt>
      <trkpt lat="44.25401" lon="2.9786">
        <ele>913.8</ele>
        <time>2021-08-20T13:58:26Z</time>
      </trkpt>
      <trkpt lat="44.25401" lon="2.97857">
        <ele>914</ele>
        <time>2021-08-20T13:58:27Z</time>
      </trkpt>
      <trkpt lat="44.25401" lon="2.97855">
        <ele>914</ele>
        <time>2021-08-20T13:58:28Z</time>
      </trkpt>
      <trkpt lat="44.25401" lon="2.97853">
        <ele>914.2</ele>
        <time>2021-08-20T13:58:29Z</time>
      </trkpt>
      <trkpt lat="44.25402" lon="2.97852">
        <ele>914.4</ele>
        <time>2021-08-20T13:58:30Z</time>
      </trkpt>
      <trkpt lat="44.25402" lon="2.9785">
        <ele>914.4</ele>
        <time>2021-08-20T13:58:31Z</time>
      </trkpt>
      <trkpt lat="44.25402" lon="2.97849">
        <ele>914.6</ele>
        <time>2021-08-20T13:58:32Z</time>
      </trkpt>
      <trkpt lat="44.25403" lon="2.97847">
        <ele>914.6</ele>
        <time>2021-08-20T13:58:33Z</time>
      </trkpt>
      <trkpt lat="44.25403" lon="2.97845">
        <ele>914.6</ele>
        <time>2021-08-20T13:58:34Z</time>
      </trkpt>
      <trkpt lat="44.25403" lon="2.97843">
        <ele>914.6</ele>
        <time>2021-08-20T13:58:35Z</time>
      </trkpt>
      <trkpt lat="44.25404" lon="2.97842">
        <ele>914.8</ele>
        <time>2021-08-20T13:58:36Z</time>
      </trkpt>
      <trkpt lat="44.25405" lon="2.97841">
        <ele>914.8</ele>
        <time>2021-08-20T13:58:37Z</time>
      </trkpt>
      <trkpt lat="44.25405" lon="2.97839">
        <ele>914.8</ele>
        <time>2021-08-20T13:58:38Z</time>
      </trkpt>
      <trkpt lat="44.25406" lon="2.97838">
        <ele>915</ele>
        <time>2021-08-20T13:58:39Z</time>
      </trkpt>
      <trkpt lat="44.25407" lon="2.97836">
        <ele>915</ele>
        <time>2021-08-20T13:58:40Z</time>
      </trkpt>
      <trkpt lat="44.25407" lon="2.97834">
        <ele>915.2</ele>
        <time>2021-08-20T13:58:41Z</time>
      </trkpt>
      <trkpt lat="44.25408" lon="2.97833">
        <ele>915.2</ele>
        <time>2021-08-20T13:58:42Z</time>
      </trkpt>
      <trkpt lat="44.25409" lon="2.97831">
        <ele>915.4</ele>
        <time>2021-08-20T13:58:43Z</time>
      </trkpt>
      <trkpt lat="44.2541" lon="2.9783">
        <ele>915.6</ele>
        <time>2021-08-20T13:58:44Z</time>
      </trkpt>
      <trkpt lat="44.2541" lon="2.9783">
        <ele>916</ele>
        <time>2021-08-20T13:58:45Z</time>
      </trkpt>
      <trkpt lat="44.25411" lon="2.97826">
        <ele>916.2</ele>
        <time>2021-08-20T13:58:46Z</time>
      </trkpt>
      <trkpt lat="44.25412" lon="2.97825">
        <ele>916.2</ele>
        <time>2021-08-20T13:58:47Z</time>
      </trkpt>
      <trkpt lat="44.25413" lon="2.97823">
        <ele>916.2</ele>
        <time>2021-08-20T13:58:48Z</time>
      </trkpt>
      <trkpt lat="44.25414" lon="2.97821">
        <ele>916.4</ele>
        <time>2021-08-20T13:58:49Z</time>
      </trkpt>
      <trkpt lat="44.25414" lon="2.97819">
        <ele>916.4</ele>
        <time>2021-08-20T13:58:50Z</time>
      </trkpt>
      <trkpt lat="44.25415" lon="2.97817">
        <ele>916.4</ele>
        <time>2021-08-20T13:58:51Z</time>
      </trkpt>
      <trkpt lat="44.25416" lon="2.97815">
        <ele>916.6</ele>
        <time>2021-08-20T13:58:52Z</time>
      </trkpt>
      <trkpt lat="44.25417" lon="2.97814">
        <ele>917</ele>
        <time>2021-08-20T13:58:53Z</time>
      </trkpt>
      <trkpt lat="44.25417" lon="2.97812">
        <ele>917.2</ele>
        <time>2021-08-20T13:58:54Z</time>
      </trkpt>
      <trkpt lat="44.25418" lon="2.97811">
        <ele>917.4</ele>
        <time>2021-08-20T13:58:55Z</time>
      </trkpt>
      <trkpt lat="44.25419" lon="2.97809">
        <ele>917.4</ele>
        <time>2021-08-20T13:58:56Z</time>
      </trkpt>
      <trkpt lat="44.25419" lon="2.97808">
        <ele>917.6</ele>
        <time>2021-08-20T13:58:57Z</time>
      </trkpt>
      <trkpt lat="44.2542" lon="2.97806">
        <ele>917.8</ele>
        <time>2021-08-20T13:58:58Z</time>
      </trkpt>
      <trkpt lat="44.2542" lon="2.97804">
        <ele>917.8</ele>
        <time>2021-08-20T13:58:59Z</time>
      </trkpt>
      <trkpt lat="44.2542" lon="2.97802">
        <ele>918</ele>
        <time>2021-08-20T13:59:00Z</time>
      </trkpt>
      <trkpt lat="44.25421" lon="2.97801">
        <ele>918</ele>
        <time>2021-08-20T13:59:01Z</time>
      </trkpt>
      <trkpt lat="44.25421" lon="2.97799">
        <ele>918.2</ele>
        <time>2021-08-20T13:59:02Z</time>
      </trkpt>
      <trkpt lat="44.25421" lon="2.97798">
        <ele>918</ele>
        <time>2021-08-20T13:59:03Z</time>
      </trkpt>
      <trkpt lat="44.25422" lon="2.97796">
        <ele>918.4</ele>
        <time>2021-08-20T13:59:04Z</time>
      </trkpt>
      <trkpt lat="44.25422" lon="2.97794">
        <ele>918.2</ele>
        <time>2021-08-20T13:59:05Z</time>
      </trkpt>
      <trkpt lat="44.25423" lon="2.97793">
        <ele>918.4</ele>
        <time>2021-08-20T13:59:06Z</time>
      </trkpt>
      <trkpt lat="44.25423" lon="2.97792">
        <ele>918.8</ele>
        <time>2021-08-20T13:59:07Z</time>
      </trkpt>
      <trkpt lat="44.25423" lon="2.9779">
        <ele>919.2</ele>
        <time>2021-08-20T13:59:08Z</time>
      </trkpt>
      <trkpt lat="44.25424" lon="2.97789">
        <ele>919.4</ele>
        <time>2021-08-20T13:59:09Z</time>
      </trkpt>
      <trkpt lat="44.25424" lon="2.97787">
        <ele>919.6</ele>
        <time>2021-08-20T13:59:10Z</time>
      </trkpt>
      <trkpt lat="44.25425" lon="2.97786">
        <ele>920</ele>
        <time>2021-08-20T13:59:11Z</time>
      </trkpt>
      <trkpt lat="44.25425" lon="2.97785">
        <ele>920.2</ele>
        <time>2021-08-20T13:59:12Z</time>
      </trkpt>
      <trkpt lat="44.25426" lon="2.97784">
        <ele>920.4</ele>
        <time>2021-08-20T13:59:13Z</time>
      </trkpt>
      <trkpt lat="44.25426" lon="2.97782">
        <ele>920.6</ele>
        <time>2021-08-20T13:59:14Z</time>
      </trkpt>
      <trkpt lat="44.25427" lon="2.97781">
        <ele>920.6</ele>
        <time>2021-08-20T13:59:15Z</time>
      </trkpt>
      <trkpt lat="44.25427" lon="2.97779">
        <ele>920.8</ele>
        <time>2021-08-20T13:59:16Z</time>
      </trkpt>
      <trkpt lat="44.25427" lon="2.97778">
        <ele>921</ele>
        <time>2021-08-20T13:59:17Z</time>
      </trkpt>
      <trkpt lat="44.25428" lon="2.97777">
        <ele>921.6</ele>
        <time>2021-08-20T13:59:18Z</time>
      </trkpt>
      <trkpt lat="44.25429" lon="2.97775">
        <ele>921.6</ele>
        <time>2021-08-20T13:59:19Z</time>
      </trkpt>
      <trkpt lat="44.25429" lon="2.97774">
        <ele>922</ele>
        <time>2021-08-20T13:59:20Z</time>
      </trkpt>
      <trkpt lat="44.25429" lon="2.97773">
        <ele>922.2</ele>
        <time>2021-08-20T13:59:21Z</time>
      </trkpt>
      <trkpt lat="44.2543" lon="2.97771">
        <ele>922.6</ele>
        <time>2021-08-20T13:59:22Z</time>
      </trkpt>
      <trkpt lat="44.2543" lon="2.9777">
        <ele>922.6</ele>
        <time>2021-08-20T13:59:23Z</time>
      </trkpt>
      <trkpt lat="44.2543" lon="2.97769">
        <ele>922.8</ele>
        <time>2021-08-20T13:59:24Z</time>
      </trkpt>
      <trkpt lat="44.25431" lon="2.97768">
        <ele>923</ele>
        <time>2021-08-20T13:59:25Z</time>
      </trkpt>
      <trkpt lat="44.25431" lon="2.97767">
        <ele>923.2</ele>
        <time>2021-08-20T13:59:26Z</time>
      </trkpt>
      <trkpt lat="44.25431" lon="2.97766">
        <ele>923.2</ele>
        <time>2021-08-20T13:59:27Z</time>
      </trkpt>
      <trkpt lat="44.25432" lon="2.97765">
        <ele>923.4</ele>
        <time>2021-08-20T13:59:28Z</time>
      </trkpt>
      <trkpt lat="44.25432" lon="2.97763">
        <ele>923.6</ele>
        <time>2021-08-20T13:59:29Z</time>
      </trkpt>
      <trkpt lat="44.25432" lon="2.97762">
        <ele>923.6</ele>
        <time>2021-08-20T13:59:30Z</time>
      </trkpt>
      <trkpt lat="44.25432" lon="2.97761">
        <ele>923.8</ele>
        <time>2021-08-20T13:59:31Z</time>
      </trkpt>
      <trkpt lat="44.25432" lon="2.9776">
        <ele>924</ele>
        <time>2021-08-20T13:59:32Z</time>
      </trkpt>
      <trkpt lat="44.25433" lon="2.97759">
        <ele>924</ele>
        <time>2021-08-20T13:59:33Z</time>
      </trkpt>
      <trkpt lat="44.25433" lon="2.97758">
        <ele>924.2</ele>
        <time>2021-08-20T13:59:34Z</time>
      </trkpt>
      <trkpt lat="44.25433" lon="2.97757">
        <ele>924.4</ele>
        <time>2021-08-20T13:59:35Z</time>
      </trkpt>
      <trkpt lat="44.25433" lon="2.97756">
        <ele>924.6</ele>
        <time>2021-08-20T13:59:36Z</time>
      </trkpt>
      <trkpt lat="44.25434" lon="2.97755">
        <ele>924.8</ele>
        <time>2021-08-20T13:59:37Z</time>
      </trkpt>
      <trkpt lat="44.25434" lon="2.97753">
        <ele>924.8</ele>
        <time>2021-08-20T13:59:38Z</time>
      </trkpt>
      <trkpt lat="44.25435" lon="2.97752">
        <ele>925</ele>
        <time>2021-08-20T13:59:39Z</time>
      </trkpt>
      <trkpt lat="44.25435" lon="2.97751">
        <ele>925.2</ele>
        <time>2021-08-20T13:59:40Z</time>
      </trkpt>
      <trkpt lat="44.25435" lon="2.97749">
        <ele>925.2</ele>
        <time>2021-08-20T13:59:41Z</time>
      </trkpt>
      <trkpt lat="44.25436" lon="2.97748">
        <ele>925.4</ele>
        <time>2021-08-20T13:59:42Z</time>
      </trkpt>
      <trkpt lat="44.25436" lon="2.97747">
        <ele>925.6</ele>
        <time>2021-08-20T13:59:43Z</time>
      </trkpt>
      <trkpt lat="44.25436" lon="2.97745">
        <ele>925.6</ele>
        <time>2021-08-20T13:59:44Z</time>
      </trkpt>
      <trkpt lat="44.25436" lon="2.97744">
        <ele>925.8</ele>
        <time>2021-08-20T13:59:45Z</time>
      </trkpt>
      <trkpt lat="44.25437" lon="2.97742">
        <ele>925.8</ele>
        <time>2021-08-20T13:59:46Z</time>
      </trkpt>
      <trkpt lat="44.25437" lon="2.97741">
        <ele>926</ele>
        <time>2021-08-20T13:59:47Z</time>
      </trkpt>
      <trkpt lat="44.25437" lon="2.97739">
        <ele>926</ele>
        <time>2021-08-20T13:59:48Z</time>
      </trkpt>
      <trkpt lat="44.25438" lon="2.97738">
        <ele>926.2</ele>
        <time>2021-08-20T13:59:49Z</time>
      </trkpt>
      <trkpt lat="44.25438" lon="2.97736">
        <ele>926.4</ele>
        <time>2021-08-20T13:59:50Z</time>
      </trkpt>
      <trkpt lat="44.25438" lon="2.97735">
        <ele>926.6</ele>
        <time>2021-08-20T13:59:51Z</time>
      </trkpt>
      <trkpt lat="44.25438" lon="2.97733">
        <ele>926.6</ele>
        <time>2021-08-20T13:59:52Z</time>
      </trkpt>
      <trkpt lat="44.25439" lon="2.97731">
        <ele>926.8</ele>
        <time>2021-08-20T13:59:53Z</time>
      </trkpt>
      <trkpt lat="44.25439" lon="2.9773">
        <ele>926.8</ele>
        <time>2021-08-20T13:59:54Z</time>
      </trkpt>
      <trkpt lat="44.2544" lon="2.97729">
        <ele>926.8</ele>
        <time>2021-08-20T13:59:55Z</time>
      </trkpt>
      <trkpt lat="44.25441" lon="2.97727">
        <ele>927.2</ele>
        <time>2021-08-20T13:59:56Z</time>
      </trkpt>
      <trkpt lat="44.25441" lon="2.97726">
        <ele>927.4</ele>
        <time>2021-08-20T13:59:57Z</time>
      </trkpt>
      <trkpt lat="44.25442" lon="2.97724">
        <ele>927.6</ele>
        <time>2021-08-20T13:59:58Z</time>
      </trkpt>
      <trkpt lat="44.25442" lon="2.97722">
        <ele>927.8</ele>
        <time>2021-08-20T13:59:59Z</time>
      </trkpt>
      <trkpt lat="44.25442" lon="2.9772">
        <ele>927.8</ele>
        <time>2021-08-20T14:00:00Z</time>
      </trkpt>
      <trkpt lat="44.25442" lon="2.97719">
        <ele>928</ele>
        <time>2021-08-20T14:00:01Z</time>
      </trkpt>
      <trkpt lat="44.25442" lon="2.97717">
        <ele>928.2</ele>
        <time>2021-08-20T14:00:02Z</time>
      </trkpt>
      <trkpt lat="44.25442" lon="2.97716">
        <ele>928.4</ele>
        <time>2021-08-20T14:00:03Z</time>
      </trkpt>
      <trkpt lat="44.25443" lon="2.97714">
        <ele>928.4</ele>
        <time>2021-08-20T14:00:04Z</time>
      </trkpt>
      <trkpt lat="44.25443" lon="2.97713">
        <ele>928.6</ele>
        <time>2021-08-20T14:00:05Z</time>
      </trkpt>
      <trkpt lat="44.25443" lon="2.97711">
        <ele>928.6</ele>
        <time>2021-08-20T14:00:06Z</time>
      </trkpt>
      <trkpt lat="44.25444" lon="2.97709">
        <ele>928.8</ele>
        <time>2021-08-20T14:00:07Z</time>
      </trkpt>
      <trkpt lat="44.25444" lon="2.97708">
        <ele>929</ele>
        <time>2021-08-20T14:00:08Z</time>
      </trkpt>
      <trkpt lat="44.25445" lon="2.97706">
        <ele>929.2</ele>
        <time>2021-08-20T14:00:09Z</time>
      </trkpt>
      <trkpt lat="44.25445" lon="2.97705">
        <ele>929.2</ele>
        <time>2021-08-20T14:00:10Z</time>
      </trkpt>
      <trkpt lat="44.25445" lon="2.97704">
        <ele>929.2</ele>
        <time>2021-08-20T14:00:11Z</time>
      </trkpt>
      <trkpt lat="44.25445" lon="2.97703">
        <ele>929.4</ele>
        <time>2021-08-20T14:00:12Z</time>
      </trkpt>
      <trkpt lat="44.25445" lon="2.97702">
        <ele>929.6</ele>
        <time>2021-08-20T14:00:13Z</time>
      </trkpt>
      <trkpt lat="44.25446" lon="2.97698">
        <ele>930.6</ele>
        <time>2021-08-20T14:00:25Z</time>
      </trkpt>
      <trkpt lat="44.25447" lon="2.97696">
        <ele>930.6</ele>
        <time>2021-08-20T14:00:26Z</time>
      </trkpt>
      <trkpt lat="44.25447" lon="2.97694">
        <ele>930.6</ele>
        <time>2021-08-20T14:00:27Z</time>
      </trkpt>
      <trkpt lat="44.25448" lon="2.97691">
        <ele>930.6</ele>
        <time>2021-08-20T14:00:28Z</time>
      </trkpt>
      <trkpt lat="44.25448" lon="2.97689">
        <ele>930.6</ele>
        <time>2021-08-20T14:00:29Z</time>
      </trkpt>
      <trkpt lat="44.25448" lon="2.97687">
        <ele>930.6</ele>
        <time>2021-08-20T14:00:30Z</time>
      </trkpt>
      <trkpt lat="44.25448" lon="2.97683">
        <ele>930.6</ele>
        <time>2021-08-20T14:00:31Z</time>
      </trkpt>
      <trkpt lat="44.25449" lon="2.97676">
        <ele>931.2</ele>
        <time>2021-08-20T14:00:34Z</time>
      </trkpt>
      <trkpt lat="44.2545" lon="2.97674">
        <ele>932</ele>
        <time>2021-08-20T14:00:35Z</time>
      </trkpt>
      <trkpt lat="44.2545" lon="2.97672">
        <ele>932.2</ele>
        <time>2021-08-20T14:00:36Z</time>
      </trkpt>
      <trkpt lat="44.2545" lon="2.97671">
        <ele>932.6</ele>
        <time>2021-08-20T14:00:37Z</time>
      </trkpt>
      <trkpt lat="44.25451" lon="2.97669">
        <ele>932.8</ele>
        <time>2021-08-20T14:00:38Z</time>
      </trkpt>
      <trkpt lat="44.25451" lon="2.97667">
        <ele>933</ele>
        <time>2021-08-20T14:00:39Z</time>
      </trkpt>
      <trkpt lat="44.25452" lon="2.97666">
        <ele>933</ele>
        <time>2021-08-20T14:00:40Z</time>
      </trkpt>
      <trkpt lat="44.25452" lon="2.97664">
        <ele>933.4</ele>
        <time>2021-08-20T14:00:41Z</time>
      </trkpt>
      <trkpt lat="44.25452" lon="2.97662">
        <ele>933.6</ele>
        <time>2021-08-20T14:00:42Z</time>
      </trkpt>
      <trkpt lat="44.25452" lon="2.97661">
        <ele>933.8</ele>
        <time>2021-08-20T14:00:43Z</time>
      </trkpt>
      <trkpt lat="44.25452" lon="2.9766">
        <ele>933.8</ele>
        <time>2021-08-20T14:00:44Z</time>
      </trkpt>
      <trkpt lat="44.25453" lon="2.97658">
        <ele>934</ele>
        <time>2021-08-20T14:00:45Z</time>
      </trkpt>
      <trkpt lat="44.25453" lon="2.97656">
        <ele>934.2</ele>
        <time>2021-08-20T14:00:46Z</time>
      </trkpt>
      <trkpt lat="44.25453" lon="2.97655">
        <ele>934.4</ele>
        <time>2021-08-20T14:00:47Z</time>
      </trkpt>
      <trkpt lat="44.25453" lon="2.97653">
        <ele>934.6</ele>
        <time>2021-08-20T14:00:48Z</time>
      </trkpt>
      <trkpt lat="44.25453" lon="2.97651">
        <ele>935</ele>
        <time>2021-08-20T14:00:49Z</time>
      </trkpt>
      <trkpt lat="44.25454" lon="2.97649">
        <ele>935</ele>
        <time>2021-08-20T14:00:50Z</time>
      </trkpt>
      <trkpt lat="44.25454" lon="2.97648">
        <ele>935.4</ele>
        <time>2021-08-20T14:00:51Z</time>
      </trkpt>
      <trkpt lat="44.25455" lon="2.97646">
        <ele>935.4</ele>
        <time>2021-08-20T14:00:52Z</time>
      </trkpt>
      <trkpt lat="44.25455" lon="2.97644">
        <ele>935.8</ele>
        <time>2021-08-20T14:00:53Z</time>
      </trkpt>
      <trkpt lat="44.25455" lon="2.97642">
        <ele>935.8</ele>
        <time>2021-08-20T14:00:54Z</time>
      </trkpt>
      <trkpt lat="44.25456" lon="2.97641">
        <ele>936</ele>
        <time>2021-08-20T14:00:55Z</time>
      </trkpt>
      <trkpt lat="44.25456" lon="2.97639">
        <ele>936.2</ele>
        <time>2021-08-20T14:00:56Z</time>
      </trkpt>
      <trkpt lat="44.25456" lon="2.97637">
        <ele>936.4</ele>
        <time>2021-08-20T14:00:57Z</time>
      </trkpt>
      <trkpt lat="44.25457" lon="2.97635">
        <ele>936.6</ele>
        <time>2021-08-20T14:00:58Z</time>
      </trkpt>
      <trkpt lat="44.25457" lon="2.97633">
        <ele>936.8</ele>
        <time>2021-08-20T14:00:59Z</time>
      </trkpt>
      <trkpt lat="44.25458" lon="2.97631">
        <ele>937.2</ele>
        <time>2021-08-20T14:01:00Z</time>
      </trkpt>
      <trkpt lat="44.25458" lon="2.9763">
        <ele>937.2</ele>
        <time>2021-08-20T14:01:01Z</time>
      </trkpt>
      <trkpt lat="44.25459" lon="2.97628">
        <ele>937.4</ele>
        <time>2021-08-20T14:01:02Z</time>
      </trkpt>
      <trkpt lat="44.25459" lon="2.97626">
        <ele>937.6</ele>
        <time>2021-08-20T14:01:03Z</time>
      </trkpt>
      <trkpt lat="44.25459" lon="2.97624">
        <ele>937.8</ele>
        <time>2021-08-20T14:01:04Z</time>
      </trkpt>
      <trkpt lat="44.25459" lon="2.97622">
        <ele>937.8</ele>
        <time>2021-08-20T14:01:05Z</time>
      </trkpt>
      <trkpt lat="44.25459" lon="2.9762">
        <ele>938</ele>
        <time>2021-08-20T14:01:06Z</time>
      </trkpt>
      <trkpt lat="44.2546" lon="2.97618">
        <ele>938.2</ele>
        <time>2021-08-20T14:01:07Z</time>
      </trkpt>
      <trkpt lat="44.2546" lon="2.97617">
        <ele>938.2</ele>
        <time>2021-08-20T14:01:08Z</time>
      </trkpt>
      <trkpt lat="44.2546" lon="2.97615">
        <ele>938.4</ele>
        <time>2021-08-20T14:01:09Z</time>
      </trkpt>
      <trkpt lat="44.25461" lon="2.97613">
        <ele>938.6</ele>
        <time>2021-08-20T14:01:10Z</time>
      </trkpt>
      <trkpt lat="44.25461" lon="2.97611">
        <ele>939</ele>
        <time>2021-08-20T14:01:11Z</time>
      </trkpt>
      <trkpt lat="44.25462" lon="2.97609">
        <ele>939</ele>
        <time>2021-08-20T14:01:12Z</time>
      </trkpt>
      <trkpt lat="44.25462" lon="2.97607">
        <ele>939.2</ele>
        <time>2021-08-20T14:01:13Z</time>
      </trkpt>
      <trkpt lat="44.25463" lon="2.97604">
        <ele>939.4</ele>
        <time>2021-08-20T14:01:14Z</time>
      </trkpt>
      <trkpt lat="44.25463" lon="2.97603">
        <ele>939.6</ele>
        <time>2021-08-20T14:01:15Z</time>
      </trkpt>
      <trkpt lat="44.25464" lon="2.976">
        <ele>939.8</ele>
        <time>2021-08-20T14:01:16Z</time>
      </trkpt>
      <trkpt lat="44.25464" lon="2.97598">
        <ele>939.8</ele>
        <time>2021-08-20T14:01:17Z</time>
      </trkpt>
      <trkpt lat="44.25464" lon="2.97596">
        <ele>940</ele>
        <time>2021-08-20T14:01:18Z</time>
      </trkpt>
      <trkpt lat="44.25465" lon="2.97594">
        <ele>940.2</ele>
        <time>2021-08-20T14:01:19Z</time>
      </trkpt>
      <trkpt lat="44.25465" lon="2.97592">
        <ele>940.4</ele>
        <time>2021-08-20T14:01:20Z</time>
      </trkpt>
      <trkpt lat="44.25465" lon="2.9759">
        <ele>940.6</ele>
        <time>2021-08-20T14:01:21Z</time>
      </trkpt>
      <trkpt lat="44.25465" lon="2.97588">
        <ele>940.8</ele>
        <time>2021-08-20T14:01:22Z</time>
      </trkpt>
      <trkpt lat="44.25465" lon="2.97587">
        <ele>941</ele>
        <time>2021-08-20T14:01:23Z</time>
      </trkpt>
      <trkpt lat="44.25466" lon="2.97584">
        <ele>941.2</ele>
        <time>2021-08-20T14:01:24Z</time>
      </trkpt>
      <trkpt lat="44.25466" lon="2.97583">
        <ele>941.4</ele>
        <time>2021-08-20T14:01:25Z</time>
      </trkpt>
      <trkpt lat="44.25467" lon="2.97581">
        <ele>941.4</ele>
        <time>2021-08-20T14:01:26Z</time>
      </trkpt>
      <trkpt lat="44.25467" lon="2.97579">
        <ele>941.8</ele>
        <time>2021-08-20T14:01:27Z</time>
      </trkpt>
      <trkpt lat="44.25468" lon="2.97577">
        <ele>942</ele>
        <time>2021-08-20T14:01:28Z</time>
      </trkpt>
      <trkpt lat="44.25468" lon="2.97575">
        <ele>942.2</ele>
        <time>2021-08-20T14:01:29Z</time>
      </trkpt>
      <trkpt lat="44.25469" lon="2.97574">
        <ele>942.4</ele>
        <time>2021-08-20T14:01:30Z</time>
      </trkpt>
      <trkpt lat="44.2547" lon="2.97572">
        <ele>942.6</ele>
        <time>2021-08-20T14:01:31Z</time>
      </trkpt>
      <trkpt lat="44.2547" lon="2.9757">
        <ele>942.8</ele>
        <time>2021-08-20T14:01:32Z</time>
      </trkpt>
      <trkpt lat="44.2547" lon="2.97568">
        <ele>943</ele>
        <time>2021-08-20T14:01:33Z</time>
      </trkpt>
      <trkpt lat="44.25471" lon="2.97567">
        <ele>943.2</ele>
        <time>2021-08-20T14:01:34Z</time>
      </trkpt>
      <trkpt lat="44.25471" lon="2.97565">
        <ele>943.2</ele>
        <time>2021-08-20T14:01:35Z</time>
      </trkpt>
      <trkpt lat="44.25471" lon="2.97563">
        <ele>943.4</ele>
        <time>2021-08-20T14:01:36Z</time>
      </trkpt>
      <trkpt lat="44.25472" lon="2.97561">
        <ele>943.6</ele>
        <time>2021-08-20T14:01:37Z</time>
      </trkpt>
      <trkpt lat="44.25472" lon="2.9756">
        <ele>943.6</ele>
        <time>2021-08-20T14:01:38Z</time>
      </trkpt>
      <trkpt lat="44.25472" lon="2.97558">
        <ele>944</ele>
        <time>2021-08-20T14:01:39Z</time>
      </trkpt>
      <trkpt lat="44.25473" lon="2.97556">
        <ele>944</ele>
        <time>2021-08-20T14:01:40Z</time>
      </trkpt>
      <trkpt lat="44.25473" lon="2.97554">
        <ele>944.4</ele>
        <time>2021-08-20T14:01:41Z</time>
      </trkpt>
      <trkpt lat="44.25474" lon="2.97552">
        <ele>944.6</ele>
        <time>2021-08-20T14:01:42Z</time>
      </trkpt>
      <trkpt lat="44.25474" lon="2.9755">
        <ele>944.8</ele>
        <time>2021-08-20T14:01:43Z</time>
      </trkpt>
      <trkpt lat="44.25475" lon="2.97549">
        <ele>944.8</ele>
        <time>2021-08-20T14:01:44Z</time>
      </trkpt>
      <trkpt lat="44.25475" lon="2.97547">
        <ele>945</ele>
        <time>2021-08-20T14:01:45Z</time>
      </trkpt>
      <trkpt lat="44.25476" lon="2.97545">
        <ele>945</ele>
        <time>2021-08-20T14:01:46Z</time>
      </trkpt>
      <trkpt lat="44.25476" lon="2.97543">
        <ele>945.2</ele>
        <time>2021-08-20T14:01:47Z</time>
      </trkpt>
      <trkpt lat="44.25477" lon="2.97541">
        <ele>945.4</ele>
        <time>2021-08-20T14:01:48Z</time>
      </trkpt>
      <trkpt lat="44.25477" lon="2.9754">
        <ele>945.4</ele>
        <time>2021-08-20T14:01:49Z</time>
      </trkpt>
      <trkpt lat="44.25477" lon="2.97538">
        <ele>945.4</ele>
        <time>2021-08-20T14:01:50Z</time>
      </trkpt>
      <trkpt lat="44.25478" lon="2.97536">
        <ele>945.4</ele>
        <time>2021-08-20T14:01:51Z</time>
      </trkpt>
      <trkpt lat="44.25478" lon="2.97534">
        <ele>945.6</ele>
        <time>2021-08-20T14:01:52Z</time>
      </trkpt>
      <trkpt lat="44.25479" lon="2.97532">
        <ele>945.8</ele>
        <time>2021-08-20T14:01:53Z</time>
      </trkpt>
      <trkpt lat="44.25479" lon="2.9753">
        <ele>945.8</ele>
        <time>2021-08-20T14:01:54Z</time>
      </trkpt>
      <trkpt lat="44.2548" lon="2.97528">
        <ele>946</ele>
        <time>2021-08-20T14:01:55Z</time>
      </trkpt>
      <trkpt lat="44.25481" lon="2.97525">
        <ele>946</ele>
        <time>2021-08-20T14:01:56Z</time>
      </trkpt>
      <trkpt lat="44.25482" lon="2.97523">
        <ele>946.2</ele>
        <time>2021-08-20T14:01:57Z</time>
      </trkpt>
      <trkpt lat="44.25482" lon="2.9752">
        <ele>946.2</ele>
        <time>2021-08-20T14:01:58Z</time>
      </trkpt>
      <trkpt lat="44.25483" lon="2.97518">
        <ele>946.2</ele>
        <time>2021-08-20T14:01:59Z</time>
      </trkpt>
      <trkpt lat="44.25484" lon="2.97516">
        <ele>946.2</ele>
        <time>2021-08-20T14:02:00Z</time>
      </trkpt>
      <trkpt lat="44.25485" lon="2.97513">
        <ele>946.2</ele>
        <time>2021-08-20T14:02:01Z</time>
      </trkpt>
      <trkpt lat="44.25486" lon="2.97511">
        <ele>946.4</ele>
        <time>2021-08-20T14:02:02Z</time>
      </trkpt>
      <trkpt lat="44.25487" lon="2.97509">
        <ele>946.4</ele>
        <time>2021-08-20T14:02:03Z</time>
      </trkpt>
      <trkpt lat="44.25488" lon="2.97507">
        <ele>946.6</ele>
        <time>2021-08-20T14:02:04Z</time>
      </trkpt>
      <trkpt lat="44.25489" lon="2.97505">
        <ele>946.6</ele>
        <time>2021-08-20T14:02:05Z</time>
      </trkpt>
      <trkpt lat="44.25489" lon="2.97502">
        <ele>946.8</ele>
        <time>2021-08-20T14:02:06Z</time>
      </trkpt>
      <trkpt lat="44.2549" lon="2.975">
        <ele>946.8</ele>
        <time>2021-08-20T14:02:07Z</time>
      </trkpt>
      <trkpt lat="44.25491" lon="2.97497">
        <ele>946.8</ele>
        <time>2021-08-20T14:02:08Z</time>
      </trkpt>
      <trkpt lat="44.25492" lon="2.97494">
        <ele>946.8</ele>
        <time>2021-08-20T14:02:09Z</time>
      </trkpt>
      <trkpt lat="44.25492" lon="2.97492">
        <ele>947</ele>
        <time>2021-08-20T14:02:10Z</time>
      </trkpt>
      <trkpt lat="44.25493" lon="2.9749">
        <ele>947.2</ele>
        <time>2021-08-20T14:02:11Z</time>
      </trkpt>
      <trkpt lat="44.25494" lon="2.97485">
        <ele>947.4</ele>
        <time>2021-08-20T14:02:13Z</time>
      </trkpt>
      <trkpt lat="44.25495" lon="2.97483">
        <ele>947.4</ele>
        <time>2021-08-20T14:02:14Z</time>
      </trkpt>
      <trkpt lat="44.25495" lon="2.97481">
        <ele>947.6</ele>
        <time>2021-08-20T14:02:15Z</time>
      </trkpt>
      <trkpt lat="44.25496" lon="2.97479">
        <ele>947.6</ele>
        <time>2021-08-20T14:02:16Z</time>
      </trkpt>
      <trkpt lat="44.25498" lon="2.97472">
        <ele>948</ele>
        <time>2021-08-20T14:02:19Z</time>
      </trkpt>
      <trkpt lat="44.255" lon="2.97463">
        <ele>948.4</ele>
        <time>2021-08-20T14:02:23Z</time>
      </trkpt>
      <trkpt lat="44.25501" lon="2.97456">
        <ele>948.8</ele>
        <time>2021-08-20T14:02:26Z</time>
      </trkpt>
      <trkpt lat="44.25502" lon="2.97454">
        <ele>948.6</ele>
        <time>2021-08-20T14:02:27Z</time>
      </trkpt>
      <trkpt lat="44.25502" lon="2.97452">
        <ele>949</ele>
        <time>2021-08-20T14:02:28Z</time>
      </trkpt>
      <trkpt lat="44.25503" lon="2.9745">
        <ele>949.4</ele>
        <time>2021-08-20T14:02:29Z</time>
      </trkpt>
      <trkpt lat="44.25506" lon="2.97437">
        <ele>949.8</ele>
        <time>2021-08-20T14:02:34Z</time>
      </trkpt>
      <trkpt lat="44.25507" lon="2.97435">
        <ele>949.8</ele>
        <time>2021-08-20T14:02:35Z</time>
      </trkpt>
      <trkpt lat="44.25508" lon="2.97432">
        <ele>950</ele>
        <time>2021-08-20T14:02:36Z</time>
      </trkpt>
      <trkpt lat="44.25509" lon="2.9743">
        <ele>950</ele>
        <time>2021-08-20T14:02:37Z</time>
      </trkpt>
      <trkpt lat="44.25509" lon="2.97428">
        <ele>950</ele>
        <time>2021-08-20T14:02:38Z</time>
      </trkpt>
      <trkpt lat="44.2551" lon="2.97426">
        <ele>950.2</ele>
        <time>2021-08-20T14:02:39Z</time>
      </trkpt>
      <trkpt lat="44.25511" lon="2.97424">
        <ele>950.2</ele>
        <time>2021-08-20T14:02:40Z</time>
      </trkpt>
      <trkpt lat="44.25511" lon="2.97421">
        <ele>950.2</ele>
        <time>2021-08-20T14:02:41Z</time>
      </trkpt>
      <trkpt lat="44.25512" lon="2.97419">
        <ele>950.4</ele>
        <time>2021-08-20T14:02:42Z</time>
      </trkpt>
      <trkpt lat="44.25512" lon="2.97417">
        <ele>950.4</ele>
        <time>2021-08-20T14:02:43Z</time>
      </trkpt>
      <trkpt lat="44.25513" lon="2.97414">
        <ele>950.6</ele>
        <time>2021-08-20T14:02:44Z</time>
      </trkpt>
      <trkpt lat="44.25516" lon="2.97402">
        <ele>951.2</ele>
        <time>2021-08-20T14:02:49Z</time>
      </trkpt>
      <trkpt lat="44.25518" lon="2.97397">
        <ele>951.4</ele>
        <time>2021-08-20T14:02:51Z</time>
      </trkpt>
      <trkpt lat="44.25518" lon="2.97394">
        <ele>951.4</ele>
        <time>2021-08-20T14:02:52Z</time>
      </trkpt>
      <trkpt lat="44.25519" lon="2.97392">
        <ele>951.6</ele>
        <time>2021-08-20T14:02:53Z</time>
      </trkpt>
      <trkpt lat="44.2552" lon="2.9739">
        <ele>951.6</ele>
        <time>2021-08-20T14:02:54Z</time>
      </trkpt>
      <trkpt lat="44.2552" lon="2.97387">
        <ele>951.6</ele>
        <time>2021-08-20T14:02:55Z</time>
      </trkpt>
      <trkpt lat="44.25527" lon="2.97365">
        <ele>952.4</ele>
        <time>2021-08-20T14:03:03Z</time>
      </trkpt>
      <trkpt lat="44.25529" lon="2.97362">
        <ele>952.6</ele>
        <time>2021-08-20T14:03:04Z</time>
      </trkpt>
      <trkpt lat="44.25537" lon="2.97341">
        <ele>953.2</ele>
        <time>2021-08-20T14:03:11Z</time>
      </trkpt>
      <trkpt lat="44.25538" lon="2.97338">
        <ele>953.2</ele>
        <time>2021-08-20T14:03:12Z</time>
      </trkpt>
      <trkpt lat="44.25546" lon="2.97317">
        <ele>953.4</ele>
        <time>2021-08-20T14:03:18Z</time>
      </trkpt>
      <trkpt lat="44.25547" lon="2.97314">
        <ele>953.4</ele>
        <time>2021-08-20T14:03:19Z</time>
      </trkpt>
      <trkpt lat="44.25549" lon="2.97307">
        <ele>953.6</ele>
        <time>2021-08-20T14:03:21Z</time>
      </trkpt>
      <trkpt lat="44.2555" lon="2.97304">
        <ele>953.6</ele>
        <time>2021-08-20T14:03:22Z</time>
      </trkpt>
      <trkpt lat="44.25552" lon="2.97301">
        <ele>953.6</ele>
        <time>2021-08-20T14:03:23Z</time>
      </trkpt>
      <trkpt lat="44.25555" lon="2.97291">
        <ele>954</ele>
        <time>2021-08-20T14:03:26Z</time>
      </trkpt>
      <trkpt lat="44.25557" lon="2.97284">
        <ele>954.2</ele>
        <time>2021-08-20T14:03:28Z</time>
      </trkpt>
      <trkpt lat="44.25558" lon="2.97281">
        <ele>954.2</ele>
        <time>2021-08-20T14:03:29Z</time>
      </trkpt>
      <trkpt lat="44.25561" lon="2.97272">
        <ele>954.6</ele>
        <time>2021-08-20T14:03:32Z</time>
      </trkpt>
      <trkpt lat="44.25562" lon="2.97269">
        <ele>954.6</ele>
        <time>2021-08-20T14:03:33Z</time>
      </trkpt>
      <trkpt lat="44.25563" lon="2.97265">
        <ele>954.8</ele>
        <time>2021-08-20T14:03:34Z</time>
      </trkpt>
      <trkpt lat="44.25566" lon="2.9726">
        <ele>955</ele>
        <time>2021-08-20T14:03:36Z</time>
      </trkpt>
      <trkpt lat="44.25568" lon="2.97253">
        <ele>955.4</ele>
        <time>2021-08-20T14:03:38Z</time>
      </trkpt>
      <trkpt lat="44.25569" lon="2.9725">
        <ele>955.4</ele>
        <time>2021-08-20T14:03:39Z</time>
      </trkpt>
      <trkpt lat="44.25572" lon="2.97243">
        <ele>955.6</ele>
        <time>2021-08-20T14:03:41Z</time>
      </trkpt>
      <trkpt lat="44.25573" lon="2.9724">
        <ele>955.8</ele>
        <time>2021-08-20T14:03:42Z</time>
      </trkpt>
      <trkpt lat="44.25575" lon="2.97237">
        <ele>955.8</ele>
        <time>2021-08-20T14:03:43Z</time>
      </trkpt>
      <trkpt lat="44.25578" lon="2.97227">
        <ele>956.2</ele>
        <time>2021-08-20T14:03:46Z</time>
      </trkpt>
      <trkpt lat="44.25579" lon="2.97224">
        <ele>956.4</ele>
        <time>2021-08-20T14:03:47Z</time>
      </trkpt>
      <trkpt lat="44.25582" lon="2.97218">
        <ele>956.6</ele>
        <time>2021-08-20T14:03:49Z</time>
      </trkpt>
      <trkpt lat="44.25583" lon="2.97214">
        <ele>956.8</ele>
        <time>2021-08-20T14:03:50Z</time>
      </trkpt>
      <trkpt lat="44.25584" lon="2.97211">
        <ele>957</ele>
        <time>2021-08-20T14:03:51Z</time>
      </trkpt>
      <trkpt lat="44.25586" lon="2.97208">
        <ele>957</ele>
        <time>2021-08-20T14:03:52Z</time>
      </trkpt>
      <trkpt lat="44.25586" lon="2.97205">
        <ele>957.2</ele>
        <time>2021-08-20T14:03:53Z</time>
      </trkpt>
      <trkpt lat="44.25588" lon="2.97202">
        <ele>957.2</ele>
        <time>2021-08-20T14:03:54Z</time>
      </trkpt>
      <trkpt lat="44.25589" lon="2.97199">
        <ele>957.2</ele>
        <time>2021-08-20T14:03:55Z</time>
      </trkpt>
      <trkpt lat="44.2559" lon="2.97196">
        <ele>957.4</ele>
        <time>2021-08-20T14:03:56Z</time>
      </trkpt>
      <trkpt lat="44.25591" lon="2.97193">
        <ele>957.4</ele>
        <time>2021-08-20T14:03:57Z</time>
      </trkpt>
      <trkpt lat="44.25592" lon="2.9719">
        <ele>957.4</ele>
        <time>2021-08-20T14:03:58Z</time>
      </trkpt>
      <trkpt lat="44.25593" lon="2.97187">
        <ele>957.6</ele>
        <time>2021-08-20T14:03:59Z</time>
      </trkpt>
      <trkpt lat="44.25594" lon="2.97184">
        <ele>957.8</ele>
        <time>2021-08-20T14:04:00Z</time>
      </trkpt>
      <trkpt lat="44.25595" lon="2.9718">
        <ele>957.8</ele>
        <time>2021-08-20T14:04:01Z</time>
      </trkpt>
      <trkpt lat="44.25596" lon="2.97177">
        <ele>958</ele>
        <time>2021-08-20T14:04:02Z</time>
      </trkpt>
      <trkpt lat="44.25598" lon="2.97174">
        <ele>958.2</ele>
        <time>2021-08-20T14:04:03Z</time>
      </trkpt>
      <trkpt lat="44.25599" lon="2.97171">
        <ele>958.4</ele>
        <time>2021-08-20T14:04:04Z</time>
      </trkpt>
      <trkpt lat="44.256" lon="2.97168">
        <ele>958.4</ele>
        <time>2021-08-20T14:04:05Z</time>
      </trkpt>
      <trkpt lat="44.25601" lon="2.97165">
        <ele>958.6</ele>
        <time>2021-08-20T14:04:06Z</time>
      </trkpt>
      <trkpt lat="44.25602" lon="2.97162">
        <ele>958.8</ele>
        <time>2021-08-20T14:04:07Z</time>
      </trkpt>
      <trkpt lat="44.25604" lon="2.97159">
        <ele>958.8</ele>
        <time>2021-08-20T14:04:08Z</time>
      </trkpt>
      <trkpt lat="44.25605" lon="2.97156">
        <ele>959</ele>
        <time>2021-08-20T14:04:09Z</time>
      </trkpt>
      <trkpt lat="44.25606" lon="2.97153">
        <ele>959</ele>
        <time>2021-08-20T14:04:10Z</time>
      </trkpt>
      <trkpt lat="44.25607" lon="2.9715">
        <ele>959.4</ele>
        <time>2021-08-20T14:04:11Z</time>
      </trkpt>
      <trkpt lat="44.25608" lon="2.97147">
        <ele>959.4</ele>
        <time>2021-08-20T14:04:12Z</time>
      </trkpt>
      <trkpt lat="44.25609" lon="2.97144">
        <ele>959.8</ele>
        <time>2021-08-20T14:04:13Z</time>
      </trkpt>
      <trkpt lat="44.25611" lon="2.97141">
        <ele>960</ele>
        <time>2021-08-20T14:04:14Z</time>
      </trkpt>
      <trkpt lat="44.25612" lon="2.97138">
        <ele>960.2</ele>
        <time>2021-08-20T14:04:15Z</time>
      </trkpt>
      <trkpt lat="44.25613" lon="2.97135">
        <ele>960.6</ele>
        <time>2021-08-20T14:04:16Z</time>
      </trkpt>
      <trkpt lat="44.25614" lon="2.97132">
        <ele>960.6</ele>
        <time>2021-08-20T14:04:17Z</time>
      </trkpt>
      <trkpt lat="44.25615" lon="2.97128">
        <ele>960.8</ele>
        <time>2021-08-20T14:04:18Z</time>
      </trkpt>
      <trkpt lat="44.25616" lon="2.97125">
        <ele>960.8</ele>
        <time>2021-08-20T14:04:19Z</time>
      </trkpt>
      <trkpt lat="44.25617" lon="2.97122">
        <ele>961</ele>
        <time>2021-08-20T14:04:20Z</time>
      </trkpt>
      <trkpt lat="44.25618" lon="2.97119">
        <ele>961.2</ele>
        <time>2021-08-20T14:04:21Z</time>
      </trkpt>
      <trkpt lat="44.25619" lon="2.97116">
        <ele>961.2</ele>
        <time>2021-08-20T14:04:22Z</time>
      </trkpt>
      <trkpt lat="44.25619" lon="2.97112">
        <ele>961.4</ele>
        <time>2021-08-20T14:04:23Z</time>
      </trkpt>
      <trkpt lat="44.2562" lon="2.97109">
        <ele>961.6</ele>
        <time>2021-08-20T14:04:24Z</time>
      </trkpt>
      <trkpt lat="44.2562" lon="2.97105">
        <ele>961.8</ele>
        <time>2021-08-20T14:04:25Z</time>
      </trkpt>
      <trkpt lat="44.2562" lon="2.97101">
        <ele>961.6</ele>
        <time>2021-08-20T14:04:26Z</time>
      </trkpt>
      <trkpt lat="44.2562" lon="2.97097">
        <ele>962.2</ele>
        <time>2021-08-20T14:04:27Z</time>
      </trkpt>
      <trkpt lat="44.2562" lon="2.97094">
        <ele>962.4</ele>
        <time>2021-08-20T14:04:28Z</time>
      </trkpt>
      <trkpt lat="44.2562" lon="2.97091">
        <ele>962.6</ele>
        <time>2021-08-20T14:04:29Z</time>
      </trkpt>
      <trkpt lat="44.2562" lon="2.97087">
        <ele>962.6</ele>
        <time>2021-08-20T14:04:30Z</time>
      </trkpt>
      <trkpt lat="44.2562" lon="2.97084">
        <ele>962.6</ele>
        <time>2021-08-20T14:04:31Z</time>
      </trkpt>
      <trkpt lat="44.2562" lon="2.97081">
        <ele>962.8</ele>
        <time>2021-08-20T14:04:32Z</time>
      </trkpt>
      <trkpt lat="44.2562" lon="2.97078">
        <ele>963</ele>
        <time>2021-08-20T14:04:33Z</time>
      </trkpt>
      <trkpt lat="44.2562" lon="2.97075">
        <ele>963.2</ele>
        <time>2021-08-20T14:04:34Z</time>
      </trkpt>
      <trkpt lat="44.2562" lon="2.97072">
        <ele>963.2</ele>
        <time>2021-08-20T14:04:35Z</time>
      </trkpt>
      <trkpt lat="44.2562" lon="2.97069">
        <ele>963.2</ele>
        <time>2021-08-20T14:04:36Z</time>
      </trkpt>
      <trkpt lat="44.2562" lon="2.97065">
        <ele>963.2</ele>
        <time>2021-08-20T14:04:37Z</time>
      </trkpt>
      <trkpt lat="44.2562" lon="2.97062">
        <ele>963.4</ele>
        <time>2021-08-20T14:04:38Z</time>
      </trkpt>
      <trkpt lat="44.2562" lon="2.97059">
        <ele>963.4</ele>
        <time>2021-08-20T14:04:39Z</time>
      </trkpt>
      <trkpt lat="44.2562" lon="2.97056">
        <ele>963.6</ele>
        <time>2021-08-20T14:04:40Z</time>
      </trkpt>
      <trkpt lat="44.2562" lon="2.97052">
        <ele>963.4</ele>
        <time>2021-08-20T14:04:41Z</time>
      </trkpt>
      <trkpt lat="44.2562" lon="2.97049">
        <ele>963.6</ele>
        <time>2021-08-20T14:04:42Z</time>
      </trkpt>
      <trkpt lat="44.2562" lon="2.97045">
        <ele>963.6</ele>
        <time>2021-08-20T14:04:43Z</time>
      </trkpt>
      <trkpt lat="44.2562" lon="2.97041">
        <ele>963.6</ele>
        <time>2021-08-20T14:04:44Z</time>
      </trkpt>
      <trkpt lat="44.2562" lon="2.97038">
        <ele>963.6</ele>
        <time>2021-08-20T14:04:45Z</time>
      </trkpt>
      <trkpt lat="44.2562" lon="2.97034">
        <ele>963.6</ele>
        <time>2021-08-20T14:04:46Z</time>
      </trkpt>
      <trkpt lat="44.2562" lon="2.97031">
        <ele>963.6</ele>
        <time>2021-08-20T14:04:47Z</time>
      </trkpt>
      <trkpt lat="44.2562" lon="2.97028">
        <ele>963.6</ele>
        <time>2021-08-20T14:04:48Z</time>
      </trkpt>
      <trkpt lat="44.2562" lon="2.97024">
        <ele>963.6</ele>
        <time>2021-08-20T14:04:49Z</time>
      </trkpt>
      <trkpt lat="44.25619" lon="2.97021">
        <ele>963.6</ele>
        <time>2021-08-20T14:04:50Z</time>
      </trkpt>
      <trkpt lat="44.25619" lon="2.97017">
        <ele>963.6</ele>
        <time>2021-08-20T14:04:51Z</time>
      </trkpt>
      <trkpt lat="44.25619" lon="2.97014">
        <ele>963.6</ele>
        <time>2021-08-20T14:04:52Z</time>
      </trkpt>
      <trkpt lat="44.25619" lon="2.96996">
        <ele>963.4</ele>
        <time>2021-08-20T14:04:57Z</time>
      </trkpt>
      <trkpt lat="44.25619" lon="2.96984">
        <ele>963.6</ele>
        <time>2021-08-20T14:05:00Z</time>
      </trkpt>
      <trkpt lat="44.25619" lon="2.96973">
        <ele>963.6</ele>
        <time>2021-08-20T14:05:03Z</time>
      </trkpt>
      <trkpt lat="44.25619" lon="2.9697">
        <ele>963.6</ele>
        <time>2021-08-20T14:05:04Z</time>
      </trkpt>
      <trkpt lat="44.25619" lon="2.96967">
        <ele>963.6</ele>
        <time>2021-08-20T14:05:05Z</time>
      </trkpt>
      <trkpt lat="44.25619" lon="2.96965">
        <ele>963.8</ele>
        <time>2021-08-20T14:05:06Z</time>
      </trkpt>
      <trkpt lat="44.25619" lon="2.96964">
        <ele>963.8</ele>
        <time>2021-08-20T14:05:07Z</time>
      </trkpt>
      <trkpt lat="44.25619" lon="2.96963">
        <ele>964</ele>
        <time>2021-08-20T14:05:08Z</time>
      </trkpt>
      <trkpt lat="44.25619" lon="2.96962">
        <ele>964</ele>
        <time>2021-08-20T14:05:09Z</time>
      </trkpt>
      <trkpt lat="44.25619" lon="2.9696">
        <ele>964.2</ele>
        <time>2021-08-20T14:05:10Z</time>
      </trkpt>
      <trkpt lat="44.25619" lon="2.96958">
        <ele>964.2</ele>
        <time>2021-08-20T14:05:11Z</time>
      </trkpt>
      <trkpt lat="44.25619" lon="2.96956">
        <ele>964.4</ele>
        <time>2021-08-20T14:05:12Z</time>
      </trkpt>
      <trkpt lat="44.25618" lon="2.96955">
        <ele>964.6</ele>
        <time>2021-08-20T14:05:13Z</time>
      </trkpt>
      <trkpt lat="44.25618" lon="2.96954">
        <ele>964.6</ele>
        <time>2021-08-20T14:05:14Z</time>
      </trkpt>
      <trkpt lat="44.25619" lon="2.96953">
        <ele>965</ele>
        <time>2021-08-20T14:09:13Z</time>
      </trkpt>
      <trkpt lat="44.25619" lon="2.96949">
        <ele>965</ele>
        <time>2021-08-20T14:09:15Z</time>
      </trkpt>
      <trkpt lat="44.25619" lon="2.96943">
        <ele>965</ele>
        <time>2021-08-20T14:09:17Z</time>
      </trkpt>
      <trkpt lat="44.25619" lon="2.96939">
        <ele>965</ele>
        <time>2021-08-20T14:09:18Z</time>
      </trkpt>
      <trkpt lat="44.2562" lon="2.96932">
        <ele>965.2</ele>
        <time>2021-08-20T14:09:20Z</time>
      </trkpt>
      <trkpt lat="44.2562" lon="2.96928">
        <ele>965.2</ele>
        <time>2021-08-20T14:09:21Z</time>
      </trkpt>
      <trkpt lat="44.2562" lon="2.96925">
        <ele>965.2</ele>
        <time>2021-08-20T14:09:22Z</time>
      </trkpt>
      <trkpt lat="44.25623" lon="2.96903">
        <ele>965.4</ele>
        <time>2021-08-20T14:09:28Z</time>
      </trkpt>
      <trkpt lat="44.25624" lon="2.96899">
        <ele>965.4</ele>
        <time>2021-08-20T14:09:29Z</time>
      </trkpt>
      <trkpt lat="44.25625" lon="2.96895">
        <ele>965.4</ele>
        <time>2021-08-20T14:09:30Z</time>
      </trkpt>
      <trkpt lat="44.25628" lon="2.96888">
        <ele>965.4</ele>
        <time>2021-08-20T14:09:32Z</time>
      </trkpt>
      <trkpt lat="44.25625" lon="2.96871">
        <ele>965.4</ele>
        <time>2021-08-20T14:09:36Z</time>
      </trkpt>
      <trkpt lat="44.25619" lon="2.96857">
        <ele>965.4</ele>
        <time>2021-08-20T14:09:38Z</time>
      </trkpt>
      <trkpt lat="44.25616" lon="2.96851">
        <ele>965.4</ele>
        <time>2021-08-20T14:09:39Z</time>
      </trkpt>
      <trkpt lat="44.25615" lon="2.96845">
        <ele>965.4</ele>
        <time>2021-08-20T14:09:40Z</time>
      </trkpt>
      <trkpt lat="44.25616" lon="2.96842">
        <ele>965.2</ele>
        <time>2021-08-20T14:09:41Z</time>
      </trkpt>
      <trkpt lat="44.25615" lon="2.96838">
        <ele>965.2</ele>
        <time>2021-08-20T14:09:42Z</time>
      </trkpt>
      <trkpt lat="44.25616" lon="2.96835">
        <ele>965</ele>
        <time>2021-08-20T14:09:43Z</time>
      </trkpt>
      <trkpt lat="44.25616" lon="2.96832">
        <ele>964.8</ele>
        <time>2021-08-20T14:09:44Z</time>
      </trkpt>
      <trkpt lat="44.25615" lon="2.96829">
        <ele>964.6</ele>
        <time>2021-08-20T14:09:45Z</time>
      </trkpt>
      <trkpt lat="44.25612" lon="2.96817">
        <ele>964.4</ele>
        <time>2021-08-20T14:09:48Z</time>
      </trkpt>
      <trkpt lat="44.25611" lon="2.96813">
        <ele>964.2</ele>
        <time>2021-08-20T14:09:49Z</time>
      </trkpt>
      <trkpt lat="44.25608" lon="2.968">
        <ele>964</ele>
        <time>2021-08-20T14:09:52Z</time>
      </trkpt>
      <trkpt lat="44.25606" lon="2.96796">
        <ele>963.8</ele>
        <time>2021-08-20T14:09:53Z</time>
      </trkpt>
      <trkpt lat="44.25603" lon="2.96792">
        <ele>963.8</ele>
        <time>2021-08-20T14:09:54Z</time>
      </trkpt>
      <trkpt lat="44.25595" lon="2.96787">
        <ele>963.6</ele>
        <time>2021-08-20T14:09:56Z</time>
      </trkpt>
      <trkpt lat="44.25591" lon="2.96785">
        <ele>963.4</ele>
        <time>2021-08-20T14:09:57Z</time>
      </trkpt>
      <trkpt lat="44.25587" lon="2.96783">
        <ele>963.2</ele>
        <time>2021-08-20T14:09:58Z</time>
      </trkpt>
      <trkpt lat="44.25583" lon="2.9678">
        <ele>963</ele>
        <time>2021-08-20T14:09:59Z</time>
      </trkpt>
      <trkpt lat="44.25581" lon="2.96777">
        <ele>962.8</ele>
        <time>2021-08-20T14:10:00Z</time>
      </trkpt>
      <trkpt lat="44.25579" lon="2.96772">
        <ele>962.6</ele>
        <time>2021-08-20T14:10:01Z</time>
      </trkpt>
      <trkpt lat="44.2558" lon="2.96767">
        <ele>962.2</ele>
        <time>2021-08-20T14:10:02Z</time>
      </trkpt>
      <trkpt lat="44.25582" lon="2.96761">
        <ele>962.2</ele>
        <time>2021-08-20T14:10:03Z</time>
      </trkpt>
      <trkpt lat="44.25584" lon="2.96757">
        <ele>962</ele>
        <time>2021-08-20T14:10:04Z</time>
      </trkpt>
      <trkpt lat="44.25586" lon="2.96753">
        <ele>962</ele>
        <time>2021-08-20T14:10:05Z</time>
      </trkpt>
      <trkpt lat="44.25589" lon="2.96749">
        <ele>961.8</ele>
        <time>2021-08-20T14:10:06Z</time>
      </trkpt>
      <trkpt lat="44.25592" lon="2.96745">
        <ele>961.6</ele>
        <time>2021-08-20T14:10:07Z</time>
      </trkpt>
      <trkpt lat="44.25595" lon="2.9674">
        <ele>961.6</ele>
        <time>2021-08-20T14:10:08Z</time>
      </trkpt>
      <trkpt lat="44.25599" lon="2.96736">
        <ele>961.6</ele>
        <time>2021-08-20T14:10:09Z</time>
      </trkpt>
      <trkpt lat="44.25606" lon="2.96726">
        <ele>961.4</ele>
        <time>2021-08-20T14:10:11Z</time>
      </trkpt>
      <trkpt lat="44.25609" lon="2.9672">
        <ele>961.2</ele>
        <time>2021-08-20T14:10:12Z</time>
      </trkpt>
      <trkpt lat="44.25614" lon="2.96707">
        <ele>961.2</ele>
        <time>2021-08-20T14:10:14Z</time>
      </trkpt>
      <trkpt lat="44.25615" lon="2.96701">
        <ele>961</ele>
        <time>2021-08-20T14:10:15Z</time>
      </trkpt>
      <trkpt lat="44.25616" lon="2.96694">
        <ele>960.8</ele>
        <time>2021-08-20T14:10:16Z</time>
      </trkpt>
      <trkpt lat="44.25616" lon="2.96686">
        <ele>960.8</ele>
        <time>2021-08-20T14:10:17Z</time>
      </trkpt>
      <trkpt lat="44.25617" lon="2.96679">
        <ele>960.8</ele>
        <time>2021-08-20T14:10:18Z</time>
      </trkpt>
      <trkpt lat="44.25619" lon="2.96671">
        <ele>960.8</ele>
        <time>2021-08-20T14:10:19Z</time>
      </trkpt>
      <trkpt lat="44.2562" lon="2.96664">
        <ele>960.8</ele>
        <time>2021-08-20T14:10:20Z</time>
      </trkpt>
      <trkpt lat="44.25621" lon="2.96658">
        <ele>960.8</ele>
        <time>2021-08-20T14:10:21Z</time>
      </trkpt>
      <trkpt lat="44.25622" lon="2.96651">
        <ele>960.8</ele>
        <time>2021-08-20T14:10:22Z</time>
      </trkpt>
      <trkpt lat="44.25621" lon="2.96637">
        <ele>960.8</ele>
        <time>2021-08-20T14:10:24Z</time>
      </trkpt>
      <trkpt lat="44.25621" lon="2.9663">
        <ele>960.8</ele>
        <time>2021-08-20T14:10:25Z</time>
      </trkpt>
      <trkpt lat="44.25621" lon="2.96623">
        <ele>960.6</ele>
        <time>2021-08-20T14:10:26Z</time>
      </trkpt>
      <trkpt lat="44.25621" lon="2.96615">
        <ele>960.6</ele>
        <time>2021-08-20T14:10:27Z</time>
      </trkpt>
      <trkpt lat="44.25622" lon="2.96611">
        <ele>960.6</ele>
        <time>2021-08-20T14:10:28Z</time>
      </trkpt>
      <trkpt lat="44.25624" lon="2.96605">
        <ele>960.4</ele>
        <time>2021-08-20T14:10:29Z</time>
      </trkpt>
      <trkpt lat="44.25625" lon="2.966">
        <ele>960.4</ele>
        <time>2021-08-20T14:10:30Z</time>
      </trkpt>
      <trkpt lat="44.25626" lon="2.96595">
        <ele>960.4</ele>
        <time>2021-08-20T14:10:31Z</time>
      </trkpt>
      <trkpt lat="44.25629" lon="2.96579">
        <ele>960.4</ele>
        <time>2021-08-20T14:10:34Z</time>
      </trkpt>
      <trkpt lat="44.25629" lon="2.96573">
        <ele>960.2</ele>
        <time>2021-08-20T14:10:35Z</time>
      </trkpt>
      <trkpt lat="44.2563" lon="2.96568">
        <ele>960.2</ele>
        <time>2021-08-20T14:10:36Z</time>
      </trkpt>
      <trkpt lat="44.2563" lon="2.96549">
        <ele>960.4</ele>
        <time>2021-08-20T14:10:39Z</time>
      </trkpt>
      <trkpt lat="44.25629" lon="2.96543">
        <ele>960.4</ele>
        <time>2021-08-20T14:10:40Z</time>
      </trkpt>
      <trkpt lat="44.25629" lon="2.96538">
        <ele>960.4</ele>
        <time>2021-08-20T14:10:41Z</time>
      </trkpt>
      <trkpt lat="44.25628" lon="2.96532">
        <ele>960.4</ele>
        <time>2021-08-20T14:10:42Z</time>
      </trkpt>
      <trkpt lat="44.25627" lon="2.96527">
        <ele>960.4</ele>
        <time>2021-08-20T14:10:43Z</time>
      </trkpt>
      <trkpt lat="44.25626" lon="2.96523">
        <ele>960.4</ele>
        <time>2021-08-20T14:10:44Z</time>
      </trkpt>
      <trkpt lat="44.25624" lon="2.96518">
        <ele>960.4</ele>
        <time>2021-08-20T14:10:45Z</time>
      </trkpt>
      <trkpt lat="44.25623" lon="2.96514">
        <ele>960.2</ele>
        <time>2021-08-20T14:10:46Z</time>
      </trkpt>
      <trkpt lat="44.25621" lon="2.9651">
        <ele>960.2</ele>
        <time>2021-08-20T14:10:47Z</time>
      </trkpt>
      <trkpt lat="44.25619" lon="2.96505">
        <ele>960.2</ele>
        <time>2021-08-20T14:10:48Z</time>
      </trkpt>
      <trkpt lat="44.25618" lon="2.96501">
        <ele>960.2</ele>
        <time>2021-08-20T14:10:49Z</time>
      </trkpt>
      <trkpt lat="44.25616" lon="2.96497">
        <ele>960.2</ele>
        <time>2021-08-20T14:10:50Z</time>
      </trkpt>
      <trkpt lat="44.25616" lon="2.96493">
        <ele>960</ele>
        <time>2021-08-20T14:10:51Z</time>
      </trkpt>
      <trkpt lat="44.25616" lon="2.96489">
        <ele>960</ele>
        <time>2021-08-20T14:10:52Z</time>
      </trkpt>
      <trkpt lat="44.25616" lon="2.96484">
        <ele>959.8</ele>
        <time>2021-08-20T14:10:53Z</time>
      </trkpt>
      <trkpt lat="44.25617" lon="2.96481">
        <ele>959.8</ele>
        <time>2021-08-20T14:10:54Z</time>
      </trkpt>
      <trkpt lat="44.25617" lon="2.96477">
        <ele>959.8</ele>
        <time>2021-08-20T14:10:55Z</time>
      </trkpt>
      <trkpt lat="44.25618" lon="2.96473">
        <ele>959.6</ele>
        <time>2021-08-20T14:10:56Z</time>
      </trkpt>
      <trkpt lat="44.25618" lon="2.9647">
        <ele>959.6</ele>
        <time>2021-08-20T14:10:57Z</time>
      </trkpt>
      <trkpt lat="44.25619" lon="2.96466">
        <ele>959.6</ele>
        <time>2021-08-20T14:10:58Z</time>
      </trkpt>
      <trkpt lat="44.2562" lon="2.96462">
        <ele>959.4</ele>
        <time>2021-08-20T14:10:59Z</time>
      </trkpt>
      <trkpt lat="44.25624" lon="2.96432">
        <ele>958.4</ele>
        <time>2021-08-20T14:11:05Z</time>
      </trkpt>
      <trkpt lat="44.25624" lon="2.96426">
        <ele>958.4</ele>
        <time>2021-08-20T14:11:06Z</time>
      </trkpt>
      <trkpt lat="44.25627" lon="2.96409">
        <ele>957.6</ele>
        <time>2021-08-20T14:11:09Z</time>
      </trkpt>
      <trkpt lat="44.25627" lon="2.96404">
        <ele>957</ele>
        <time>2021-08-20T14:11:10Z</time>
      </trkpt>
      <trkpt lat="44.25632" lon="2.96382">
        <ele>955.8</ele>
        <time>2021-08-20T14:11:14Z</time>
      </trkpt>
      <trkpt lat="44.25634" lon="2.96375">
        <ele>955.8</ele>
        <time>2021-08-20T14:11:15Z</time>
      </trkpt>
      <trkpt lat="44.25636" lon="2.96364">
        <ele>954.8</ele>
        <time>2021-08-20T14:11:17Z</time>
      </trkpt>
      <trkpt lat="44.25639" lon="2.96351">
        <ele>953.8</ele>
        <time>2021-08-20T14:11:19Z</time>
      </trkpt>
      <trkpt lat="44.2564" lon="2.96345">
        <ele>953.6</ele>
        <time>2021-08-20T14:11:20Z</time>
      </trkpt>
      <trkpt lat="44.25641" lon="2.96339">
        <ele>953</ele>
        <time>2021-08-20T14:11:21Z</time>
      </trkpt>
      <trkpt lat="44.25643" lon="2.96333">
        <ele>952.8</ele>
        <time>2021-08-20T14:11:22Z</time>
      </trkpt>
      <trkpt lat="44.25648" lon="2.96315">
        <ele>951.4</ele>
        <time>2021-08-20T14:11:25Z</time>
      </trkpt>
      <trkpt lat="44.2565" lon="2.9631">
        <ele>951</ele>
        <time>2021-08-20T14:11:26Z</time>
      </trkpt>
      <trkpt lat="44.25652" lon="2.96305">
        <ele>950.8</ele>
        <time>2021-08-20T14:11:27Z</time>
      </trkpt>
      <trkpt lat="44.25654" lon="2.963">
        <ele>950.2</ele>
        <time>2021-08-20T14:11:28Z</time>
      </trkpt>
      <trkpt lat="44.25657" lon="2.96296">
        <ele>950</ele>
        <time>2021-08-20T14:11:29Z</time>
      </trkpt>
      <trkpt lat="44.25659" lon="2.96292">
        <ele>949.6</ele>
        <time>2021-08-20T14:11:30Z</time>
      </trkpt>
      <trkpt lat="44.2566" lon="2.96288">
        <ele>949.2</ele>
        <time>2021-08-20T14:11:31Z</time>
      </trkpt>
      <trkpt lat="44.25662" lon="2.96286">
        <ele>949</ele>
        <time>2021-08-20T14:11:32Z</time>
      </trkpt>
      <trkpt lat="44.25663" lon="2.96284">
        <ele>948.4</ele>
        <time>2021-08-20T14:11:33Z</time>
      </trkpt>
      <trkpt lat="44.25663" lon="2.96283">
        <ele>948</ele>
        <time>2021-08-20T14:11:34Z</time>
      </trkpt>
      <trkpt lat="44.25663" lon="2.96282">
        <ele>947.8</ele>
        <time>2021-08-20T14:11:35Z</time>
      </trkpt>
      <trkpt lat="44.25663" lon="2.96282">
        <ele>946.4</ele>
        <time>2021-08-20T14:12:15Z</time>
      </trkpt>
      <trkpt lat="44.25664" lon="2.9628">
        <ele>946.6</ele>
        <time>2021-08-20T14:12:16Z</time>
      </trkpt>
      <trkpt lat="44.25668" lon="2.96266">
        <ele>946.2</ele>
        <time>2021-08-20T14:12:22Z</time>
      </trkpt>
      <trkpt lat="44.25669" lon="2.96261">
        <ele>946</ele>
        <time>2021-08-20T14:12:24Z</time>
      </trkpt>
      <trkpt lat="44.25673" lon="2.96249">
        <ele>945.2</ele>
        <time>2021-08-20T14:12:28Z</time>
      </trkpt>
      <trkpt lat="44.25674" lon="2.96247">
        <ele>945</ele>
        <time>2021-08-20T14:12:29Z</time>
      </trkpt>
      <trkpt lat="44.25676" lon="2.96241">
        <ele>944.8</ele>
        <time>2021-08-20T14:12:31Z</time>
      </trkpt>
      <trkpt lat="44.25679" lon="2.9623">
        <ele>944</ele>
        <time>2021-08-20T14:12:34Z</time>
      </trkpt>
      <trkpt lat="44.25682" lon="2.96223">
        <ele>943.4</ele>
        <time>2021-08-20T14:12:36Z</time>
      </trkpt>
      <trkpt lat="44.25683" lon="2.9622">
        <ele>943</ele>
        <time>2021-08-20T14:12:37Z</time>
      </trkpt>
      <trkpt lat="44.25684" lon="2.96216">
        <ele>943</ele>
        <time>2021-08-20T14:12:38Z</time>
      </trkpt>
      <trkpt lat="44.25685" lon="2.96213">
        <ele>942.8</ele>
        <time>2021-08-20T14:12:39Z</time>
      </trkpt>
      <trkpt lat="44.25688" lon="2.96204">
        <ele>942.6</ele>
        <time>2021-08-20T14:12:42Z</time>
      </trkpt>
      <trkpt lat="44.25688" lon="2.96201">
        <ele>942.4</ele>
        <time>2021-08-20T14:12:43Z</time>
      </trkpt>
      <trkpt lat="44.25688" lon="2.96197">
        <ele>942.2</ele>
        <time>2021-08-20T14:12:44Z</time>
      </trkpt>
      <trkpt lat="44.25689" lon="2.96194">
        <ele>942.2</ele>
        <time>2021-08-20T14:12:45Z</time>
      </trkpt>
      <trkpt lat="44.2569" lon="2.96187">
        <ele>942</ele>
        <time>2021-08-20T14:12:47Z</time>
      </trkpt>
      <trkpt lat="44.25691" lon="2.96184">
        <ele>941.8</ele>
        <time>2021-08-20T14:12:48Z</time>
      </trkpt>
      <trkpt lat="44.25692" lon="2.96181">
        <ele>941.8</ele>
        <time>2021-08-20T14:12:49Z</time>
      </trkpt>
      <trkpt lat="44.25692" lon="2.96178">
        <ele>941.6</ele>
        <time>2021-08-20T14:12:50Z</time>
      </trkpt>
      <trkpt lat="44.25695" lon="2.96162">
        <ele>941</ele>
        <time>2021-08-20T14:12:54Z</time>
      </trkpt>
      <trkpt lat="44.25696" lon="2.96159">
        <ele>940.6</ele>
        <time>2021-08-20T14:12:55Z</time>
      </trkpt>
      <trkpt lat="44.25696" lon="2.96156">
        <ele>940.4</ele>
        <time>2021-08-20T14:12:56Z</time>
      </trkpt>
      <trkpt lat="44.25697" lon="2.96154">
        <ele>940</ele>
        <time>2021-08-20T14:12:57Z</time>
      </trkpt>
      <trkpt lat="44.25697" lon="2.96152">
        <ele>940</ele>
        <time>2021-08-20T14:12:58Z</time>
      </trkpt>
      <trkpt lat="44.25697" lon="2.9615">
        <ele>939.8</ele>
        <time>2021-08-20T14:12:59Z</time>
      </trkpt>
      <trkpt lat="44.25697" lon="2.96148">
        <ele>939.6</ele>
        <time>2021-08-20T14:13:00Z</time>
      </trkpt>
      <trkpt lat="44.25697" lon="2.96146">
        <ele>939.4</ele>
        <time>2021-08-20T14:13:01Z</time>
      </trkpt>
      <trkpt lat="44.25697" lon="2.96145">
        <ele>939.2</ele>
        <time>2021-08-20T14:13:02Z</time>
      </trkpt>
      <trkpt lat="44.25697" lon="2.96143">
        <ele>939</ele>
        <time>2021-08-20T14:13:03Z</time>
      </trkpt>
      <trkpt lat="44.25699" lon="2.96137">
        <ele>938</ele>
        <time>2021-08-20T14:13:11Z</time>
      </trkpt>
      <trkpt lat="44.25699" lon="2.96134">
        <ele>938</ele>
        <time>2021-08-20T14:13:12Z</time>
      </trkpt>
      <trkpt lat="44.25699" lon="2.9613">
        <ele>937.8</ele>
        <time>2021-08-20T14:13:13Z</time>
      </trkpt>
      <trkpt lat="44.257" lon="2.96127">
        <ele>937.8</ele>
        <time>2021-08-20T14:13:14Z</time>
      </trkpt>
      <trkpt lat="44.257" lon="2.96119">
        <ele>937.2</ele>
        <time>2021-08-20T14:13:17Z</time>
      </trkpt>
      <trkpt lat="44.257" lon="2.96117">
        <ele>937</ele>
        <time>2021-08-20T14:13:18Z</time>
      </trkpt>
      <trkpt lat="44.25701" lon="2.96112">
        <ele>936.6</ele>
        <time>2021-08-20T14:13:20Z</time>
      </trkpt>
      <trkpt lat="44.25702" lon="2.96109">
        <ele>936.6</ele>
        <time>2021-08-20T14:13:21Z</time>
      </trkpt>
      <trkpt lat="44.25702" lon="2.96105">
        <ele>936.4</ele>
        <time>2021-08-20T14:13:22Z</time>
      </trkpt>
      <trkpt lat="44.25702" lon="2.96098">
        <ele>936</ele>
        <time>2021-08-20T14:13:24Z</time>
      </trkpt>
      <trkpt lat="44.25702" lon="2.96096">
        <ele>935.6</ele>
        <time>2021-08-20T14:13:25Z</time>
      </trkpt>
      <trkpt lat="44.25701" lon="2.96092">
        <ele>935.4</ele>
        <time>2021-08-20T14:13:26Z</time>
      </trkpt>
      <trkpt lat="44.257" lon="2.96087">
        <ele>935</ele>
        <time>2021-08-20T14:13:28Z</time>
      </trkpt>
      <trkpt lat="44.25699" lon="2.96085">
        <ele>934.6</ele>
        <time>2021-08-20T14:13:29Z</time>
      </trkpt>
      <trkpt lat="44.257" lon="2.96082">
        <ele>934.4</ele>
        <time>2021-08-20T14:13:30Z</time>
      </trkpt>
      <trkpt lat="44.25701" lon="2.96079">
        <ele>934</ele>
        <time>2021-08-20T14:13:31Z</time>
      </trkpt>
      <trkpt lat="44.25701" lon="2.96076">
        <ele>933.8</ele>
        <time>2021-08-20T14:13:32Z</time>
      </trkpt>
      <trkpt lat="44.25701" lon="2.96072">
        <ele>933.6</ele>
        <time>2021-08-20T14:13:33Z</time>
      </trkpt>
      <trkpt lat="44.25702" lon="2.96069">
        <ele>933.4</ele>
        <time>2021-08-20T14:13:34Z</time>
      </trkpt>
      <trkpt lat="44.25703" lon="2.96066">
        <ele>933.4</ele>
        <time>2021-08-20T14:13:35Z</time>
      </trkpt>
      <trkpt lat="44.25703" lon="2.96062">
        <ele>933</ele>
        <time>2021-08-20T14:13:36Z</time>
      </trkpt>
      <trkpt lat="44.25705" lon="2.96045">
        <ele>932.2</ele>
        <time>2021-08-20T14:13:40Z</time>
      </trkpt>
      <trkpt lat="44.25703" lon="2.96035">
        <ele>932</ele>
        <time>2021-08-20T14:13:42Z</time>
      </trkpt>
      <trkpt lat="44.257" lon="2.96029">
        <ele>931.8</ele>
        <time>2021-08-20T14:13:43Z</time>
      </trkpt>
      <trkpt lat="44.25698" lon="2.96023">
        <ele>931.8</ele>
        <time>2021-08-20T14:13:44Z</time>
      </trkpt>
      <trkpt lat="44.25699" lon="2.96017">
        <ele>931.6</ele>
        <time>2021-08-20T14:13:45Z</time>
      </trkpt>
      <trkpt lat="44.25699" lon="2.96012">
        <ele>931.4</ele>
        <time>2021-08-20T14:13:46Z</time>
      </trkpt>
      <trkpt lat="44.257" lon="2.96006">
        <ele>931.4</ele>
        <time>2021-08-20T14:13:47Z</time>
      </trkpt>
      <trkpt lat="44.25699" lon="2.96001">
        <ele>931.2</ele>
        <time>2021-08-20T14:13:48Z</time>
      </trkpt>
      <trkpt lat="44.25699" lon="2.95996">
        <ele>931</ele>
        <time>2021-08-20T14:13:49Z</time>
      </trkpt>
      <trkpt lat="44.25695" lon="2.95985">
        <ele>930.6</ele>
        <time>2021-08-20T14:13:51Z</time>
      </trkpt>
      <trkpt lat="44.25696" lon="2.9598">
        <ele>930.4</ele>
        <time>2021-08-20T14:13:52Z</time>
      </trkpt>
      <trkpt lat="44.25697" lon="2.95976">
        <ele>930.4</ele>
        <time>2021-08-20T14:13:53Z</time>
      </trkpt>
      <trkpt lat="44.25698" lon="2.95972">
        <ele>930.2</ele>
        <time>2021-08-20T14:13:54Z</time>
      </trkpt>
      <trkpt lat="44.25698" lon="2.95969">
        <ele>930.2</ele>
        <time>2021-08-20T14:13:55Z</time>
      </trkpt>
      <trkpt lat="44.25697" lon="2.95966">
        <ele>930</ele>
        <time>2021-08-20T14:13:56Z</time>
      </trkpt>
      <trkpt lat="44.25697" lon="2.95965">
        <ele>929.8</ele>
        <time>2021-08-20T14:13:57Z</time>
      </trkpt>
      <trkpt lat="44.25698" lon="2.95962">
        <ele>929.4</ele>
        <time>2021-08-20T14:13:58Z</time>
      </trkpt>
      <trkpt lat="44.25698" lon="2.95959">
        <ele>928.8</ele>
        <time>2021-08-20T14:13:59Z</time>
      </trkpt>
      <trkpt lat="44.25698" lon="2.95957">
        <ele>928.8</ele>
        <time>2021-08-20T14:14:00Z</time>
      </trkpt>
      <trkpt lat="44.25698" lon="2.95954">
        <ele>928.6</ele>
        <time>2021-08-20T14:14:01Z</time>
      </trkpt>
      <trkpt lat="44.25698" lon="2.95949">
        <ele>928.6</ele>
        <time>2021-08-20T14:14:02Z</time>
      </trkpt>
      <trkpt lat="44.25698" lon="2.95945">
        <ele>928.4</ele>
        <time>2021-08-20T14:14:03Z</time>
      </trkpt>
      <trkpt lat="44.257" lon="2.95938">
        <ele>928.4</ele>
        <time>2021-08-20T14:14:05Z</time>
      </trkpt>
      <trkpt lat="44.25702" lon="2.95936">
        <ele>928.2</ele>
        <time>2021-08-20T14:14:06Z</time>
      </trkpt>
      <trkpt lat="44.25707" lon="2.95931">
        <ele>927.6</ele>
        <time>2021-08-20T14:14:08Z</time>
      </trkpt>
      <trkpt lat="44.25711" lon="2.9592">
        <ele>927.2</ele>
        <time>2021-08-20T14:14:11Z</time>
      </trkpt>
      <trkpt lat="44.25719" lon="2.95906">
        <ele>926.4</ele>
        <time>2021-08-20T14:14:14Z</time>
      </trkpt>
      <trkpt lat="44.2572" lon="2.95902">
        <ele>925.8</ele>
        <time>2021-08-20T14:14:15Z</time>
      </trkpt>
      <trkpt lat="44.25722" lon="2.95898">
        <ele>925.4</ele>
        <time>2021-08-20T14:14:16Z</time>
      </trkpt>
      <trkpt lat="44.25726" lon="2.95895">
        <ele>925</ele>
        <time>2021-08-20T14:14:17Z</time>
      </trkpt>
      <trkpt lat="44.25728" lon="2.95892">
        <ele>924.8</ele>
        <time>2021-08-20T14:14:18Z</time>
      </trkpt>
      <trkpt lat="44.25732" lon="2.95889">
        <ele>924.4</ele>
        <time>2021-08-20T14:14:19Z</time>
      </trkpt>
      <trkpt lat="44.2574" lon="2.9588">
        <ele>923.6</ele>
        <time>2021-08-20T14:14:22Z</time>
      </trkpt>
      <trkpt lat="44.25752" lon="2.95871">
        <ele>922.8</ele>
        <time>2021-08-20T14:14:26Z</time>
      </trkpt>
      <trkpt lat="44.25755" lon="2.95869">
        <ele>922.6</ele>
        <time>2021-08-20T14:14:27Z</time>
      </trkpt>
      <trkpt lat="44.25758" lon="2.95867">
        <ele>922.4</ele>
        <time>2021-08-20T14:14:28Z</time>
      </trkpt>
      <trkpt lat="44.2576" lon="2.95865">
        <ele>922.4</ele>
        <time>2021-08-20T14:14:29Z</time>
      </trkpt>
      <trkpt lat="44.25763" lon="2.95863">
        <ele>922</ele>
        <time>2021-08-20T14:14:30Z</time>
      </trkpt>
      <trkpt lat="44.25776" lon="2.95856">
        <ele>921.6</ele>
        <time>2021-08-20T14:14:34Z</time>
      </trkpt>
      <trkpt lat="44.25779" lon="2.95854">
        <ele>921.4</ele>
        <time>2021-08-20T14:14:35Z</time>
      </trkpt>
      <trkpt lat="44.25782" lon="2.95853">
        <ele>921.2</ele>
        <time>2021-08-20T14:14:36Z</time>
      </trkpt>
      <trkpt lat="44.25785" lon="2.95851">
        <ele>921</ele>
        <time>2021-08-20T14:14:37Z</time>
      </trkpt>
      <trkpt lat="44.25789" lon="2.9585">
        <ele>920.6</ele>
        <time>2021-08-20T14:14:38Z</time>
      </trkpt>
      <trkpt lat="44.25792" lon="2.9585">
        <ele>920.6</ele>
        <time>2021-08-20T14:14:39Z</time>
      </trkpt>
      <trkpt lat="44.25795" lon="2.95849">
        <ele>920.6</ele>
        <time>2021-08-20T14:14:40Z</time>
      </trkpt>
      <trkpt lat="44.25798" lon="2.9585">
        <ele>920.4</ele>
        <time>2021-08-20T14:14:41Z</time>
      </trkpt>
      <trkpt lat="44.25801" lon="2.95849">
        <ele>920.4</ele>
        <time>2021-08-20T14:14:42Z</time>
      </trkpt>
      <trkpt lat="44.25806" lon="2.95849">
        <ele>920</ele>
        <time>2021-08-20T14:14:44Z</time>
      </trkpt>
      <trkpt lat="44.25819" lon="2.95848">
        <ele>919.2</ele>
        <time>2021-08-20T14:14:48Z</time>
      </trkpt>
      <trkpt lat="44.25825" lon="2.95845">
        <ele>918.8</ele>
        <time>2021-08-20T14:14:50Z</time>
      </trkpt>
      <trkpt lat="44.25828" lon="2.95844">
        <ele>918.6</ele>
        <time>2021-08-20T14:14:51Z</time>
      </trkpt>
      <trkpt lat="44.25832" lon="2.95842">
        <ele>918.4</ele>
        <time>2021-08-20T14:14:52Z</time>
      </trkpt>
      <trkpt lat="44.25835" lon="2.9584">
        <ele>918.2</ele>
        <time>2021-08-20T14:14:53Z</time>
      </trkpt>
      <trkpt lat="44.25839" lon="2.95838">
        <ele>918.2</ele>
        <time>2021-08-20T14:14:54Z</time>
      </trkpt>
      <trkpt lat="44.25842" lon="2.95837">
        <ele>918.2</ele>
        <time>2021-08-20T14:14:55Z</time>
      </trkpt>
      <trkpt lat="44.25844" lon="2.95835">
        <ele>918</ele>
        <time>2021-08-20T14:14:56Z</time>
      </trkpt>
      <trkpt lat="44.25847" lon="2.95834">
        <ele>918</ele>
        <time>2021-08-20T14:14:57Z</time>
      </trkpt>
      <trkpt lat="44.25849" lon="2.95832">
        <ele>917.6</ele>
        <time>2021-08-20T14:14:58Z</time>
      </trkpt>
      <trkpt lat="44.25853" lon="2.95829">
        <ele>917.4</ele>
        <time>2021-08-20T14:14:59Z</time>
      </trkpt>
      <trkpt lat="44.25856" lon="2.95829">
        <ele>917.2</ele>
        <time>2021-08-20T14:15:00Z</time>
      </trkpt>
      <trkpt lat="44.25857" lon="2.95829">
        <ele>917</ele>
        <time>2021-08-20T14:15:01Z</time>
      </trkpt>
      <trkpt lat="44.2586" lon="2.95829">
        <ele>916.6</ele>
        <time>2021-08-20T14:15:02Z</time>
      </trkpt>
      <trkpt lat="44.25861" lon="2.95831">
        <ele>916.4</ele>
        <time>2021-08-20T14:15:03Z</time>
      </trkpt>
      <trkpt lat="44.25863" lon="2.95831">
        <ele>916.2</ele>
        <time>2021-08-20T14:15:04Z</time>
      </trkpt>
      <trkpt lat="44.25865" lon="2.95831">
        <ele>915.6</ele>
        <time>2021-08-20T14:15:05Z</time>
      </trkpt>
      <trkpt lat="44.25866" lon="2.95831">
        <ele>915.4</ele>
        <time>2021-08-20T14:15:06Z</time>
      </trkpt>
      <trkpt lat="44.25868" lon="2.95832">
        <ele>915</ele>
        <time>2021-08-20T14:15:07Z</time>
      </trkpt>
      <trkpt lat="44.25869" lon="2.95831">
        <ele>915</ele>
        <time>2021-08-20T14:15:08Z</time>
      </trkpt>
      <trkpt lat="44.25873" lon="2.95829">
        <ele>914.6</ele>
        <time>2021-08-20T14:15:09Z</time>
      </trkpt>
      <trkpt lat="44.25877" lon="2.95827">
        <ele>914.6</ele>
        <time>2021-08-20T14:15:10Z</time>
      </trkpt>
      <trkpt lat="44.25887" lon="2.95822">
        <ele>913.8</ele>
        <time>2021-08-20T14:15:12Z</time>
      </trkpt>
      <trkpt lat="44.25898" lon="2.95815">
        <ele>913.2</ele>
        <time>2021-08-20T14:15:14Z</time>
      </trkpt>
      <trkpt lat="44.25902" lon="2.95812">
        <ele>912.8</ele>
        <time>2021-08-20T14:15:15Z</time>
      </trkpt>
      <trkpt lat="44.25904" lon="2.9581">
        <ele>912.2</ele>
        <time>2021-08-20T14:15:16Z</time>
      </trkpt>
      <trkpt lat="44.25905" lon="2.95808">
        <ele>912</ele>
        <time>2021-08-20T14:15:17Z</time>
      </trkpt>
      <trkpt lat="44.25907" lon="2.95806">
        <ele>911.4</ele>
        <time>2021-08-20T14:15:18Z</time>
      </trkpt>
      <trkpt lat="44.25908" lon="2.95805">
        <ele>911</ele>
        <time>2021-08-20T14:15:19Z</time>
      </trkpt>
      <trkpt lat="44.2591" lon="2.95804">
        <ele>909</ele>
        <time>2021-08-20T14:16:20Z</time>
      </trkpt>
      <trkpt lat="44.2592" lon="2.95796">
        <ele>908.8</ele>
        <time>2021-08-20T14:16:24Z</time>
      </trkpt>
      <trkpt lat="44.25923" lon="2.95793">
        <ele>908.8</ele>
        <time>2021-08-20T14:16:25Z</time>
      </trkpt>
      <trkpt lat="44.25941" lon="2.95776">
        <ele>908</ele>
        <time>2021-08-20T14:16:29Z</time>
      </trkpt>
      <trkpt lat="44.25947" lon="2.9577">
        <ele>908</ele>
        <time>2021-08-20T14:16:30Z</time>
      </trkpt>
      <trkpt lat="44.2596" lon="2.95756">
        <ele>907.2</ele>
        <time>2021-08-20T14:16:32Z</time>
      </trkpt>
      <trkpt lat="44.25966" lon="2.95751">
        <ele>907</ele>
        <time>2021-08-20T14:16:33Z</time>
      </trkpt>
      <trkpt lat="44.25972" lon="2.95746">
        <ele>906.6</ele>
        <time>2021-08-20T14:16:34Z</time>
      </trkpt>
      <trkpt lat="44.25977" lon="2.95742">
        <ele>906.6</ele>
        <time>2021-08-20T14:16:35Z</time>
      </trkpt>
      <trkpt lat="44.25981" lon="2.95738">
        <ele>904.8</ele>
        <time>2021-08-20T14:16:36Z</time>
      </trkpt>
      <trkpt lat="44.25991" lon="2.95729">
        <ele>903.2</ele>
        <time>2021-08-20T14:16:38Z</time>
      </trkpt>
      <trkpt lat="44.26001" lon="2.95718">
        <ele>901.8</ele>
        <time>2021-08-20T14:16:40Z</time>
      </trkpt>
      <trkpt lat="44.26006" lon="2.95713">
        <ele>901.2</ele>
        <time>2021-08-20T14:16:41Z</time>
      </trkpt>
      <trkpt lat="44.26011" lon="2.95708">
        <ele>901</ele>
        <time>2021-08-20T14:16:42Z</time>
      </trkpt>
      <trkpt lat="44.26015" lon="2.95703">
        <ele>900.2</ele>
        <time>2021-08-20T14:16:43Z</time>
      </trkpt>
      <trkpt lat="44.26018" lon="2.95699">
        <ele>899.8</ele>
        <time>2021-08-20T14:16:44Z</time>
      </trkpt>
      <trkpt lat="44.26022" lon="2.95695">
        <ele>899</ele>
        <time>2021-08-20T14:16:45Z</time>
      </trkpt>
      <trkpt lat="44.26025" lon="2.95692">
        <ele>898.8</ele>
        <time>2021-08-20T14:16:46Z</time>
      </trkpt>
      <trkpt lat="44.26028" lon="2.95687">
        <ele>897.8</ele>
        <time>2021-08-20T14:16:47Z</time>
      </trkpt>
      <trkpt lat="44.26036" lon="2.95677">
        <ele>897.2</ele>
        <time>2021-08-20T14:16:49Z</time>
      </trkpt>
      <trkpt lat="44.2604" lon="2.95672">
        <ele>896.6</ele>
        <time>2021-08-20T14:16:50Z</time>
      </trkpt>
      <trkpt lat="44.26057" lon="2.95651">
        <ele>895.4</ele>
        <time>2021-08-20T14:16:54Z</time>
      </trkpt>
      <trkpt lat="44.26061" lon="2.95647">
        <ele>895.2</ele>
        <time>2021-08-20T14:16:55Z</time>
      </trkpt>
      <trkpt lat="44.26064" lon="2.95643">
        <ele>894.4</ele>
        <time>2021-08-20T14:16:56Z</time>
      </trkpt>
      <trkpt lat="44.26065" lon="2.9564">
        <ele>893.8</ele>
        <time>2021-08-20T14:16:57Z</time>
      </trkpt>
      <trkpt lat="44.26067" lon="2.95636">
        <ele>893.6</ele>
        <time>2021-08-20T14:16:58Z</time>
      </trkpt>
      <trkpt lat="44.26068" lon="2.95633">
        <ele>892.8</ele>
        <time>2021-08-20T14:16:59Z</time>
      </trkpt>
      <trkpt lat="44.26068" lon="2.9563">
        <ele>892.4</ele>
        <time>2021-08-20T14:17:00Z</time>
      </trkpt>
      <trkpt lat="44.26069" lon="2.95626">
        <ele>891.8</ele>
        <time>2021-08-20T14:17:01Z</time>
      </trkpt>
      <trkpt lat="44.26071" lon="2.95621">
        <ele>891.2</ele>
        <time>2021-08-20T14:17:02Z</time>
      </trkpt>
      <trkpt lat="44.26073" lon="2.95616">
        <ele>890.6</ele>
        <time>2021-08-20T14:17:03Z</time>
      </trkpt>
      <trkpt lat="44.26074" lon="2.95612">
        <ele>890</ele>
        <time>2021-08-20T14:17:04Z</time>
      </trkpt>
      <trkpt lat="44.26075" lon="2.95607">
        <ele>890</ele>
        <time>2021-08-20T14:17:05Z</time>
      </trkpt>
      <trkpt lat="44.26076" lon="2.95602">
        <ele>889.4</ele>
        <time>2021-08-20T14:17:06Z</time>
      </trkpt>
      <trkpt lat="44.26078" lon="2.95598">
        <ele>889.2</ele>
        <time>2021-08-20T14:17:07Z</time>
      </trkpt>
      <trkpt lat="44.26078" lon="2.95593">
        <ele>888.4</ele>
        <time>2021-08-20T14:17:08Z</time>
      </trkpt>
      <trkpt lat="44.26079" lon="2.95589">
        <ele>888.4</ele>
        <time>2021-08-20T14:17:09Z</time>
      </trkpt>
      <trkpt lat="44.2608" lon="2.95585">
        <ele>887.4</ele>
        <time>2021-08-20T14:17:10Z</time>
      </trkpt>
      <trkpt lat="44.26082" lon="2.95581">
        <ele>887</ele>
        <time>2021-08-20T14:17:11Z</time>
      </trkpt>
      <trkpt lat="44.26086" lon="2.95571">
        <ele>886.4</ele>
        <time>2021-08-20T14:17:13Z</time>
      </trkpt>
      <trkpt lat="44.26088" lon="2.95565">
        <ele>886.2</ele>
        <time>2021-08-20T14:17:14Z</time>
      </trkpt>
      <trkpt lat="44.26094" lon="2.9555">
        <ele>885.6</ele>
        <time>2021-08-20T14:17:16Z</time>
      </trkpt>
      <trkpt lat="44.26097" lon="2.95537">
        <ele>885.2</ele>
        <time>2021-08-20T14:17:18Z</time>
      </trkpt>
      <trkpt lat="44.26099" lon="2.95531">
        <ele>885</ele>
        <time>2021-08-20T14:17:19Z</time>
      </trkpt>
      <trkpt lat="44.26101" lon="2.95524">
        <ele>884.6</ele>
        <time>2021-08-20T14:17:20Z</time>
      </trkpt>
      <trkpt lat="44.26103" lon="2.95518">
        <ele>884.6</ele>
        <time>2021-08-20T14:17:21Z</time>
      </trkpt>
      <trkpt lat="44.26105" lon="2.95511">
        <ele>884.2</ele>
        <time>2021-08-20T14:17:22Z</time>
      </trkpt>
      <trkpt lat="44.26111" lon="2.95498">
        <ele>883.6</ele>
        <time>2021-08-20T14:17:24Z</time>
      </trkpt>
      <trkpt lat="44.26114" lon="2.95484">
        <ele>883.2</ele>
        <time>2021-08-20T14:17:26Z</time>
      </trkpt>
      <trkpt lat="44.26114" lon="2.95477">
        <ele>883</ele>
        <time>2021-08-20T14:17:27Z</time>
      </trkpt>
      <trkpt lat="44.26113" lon="2.9547">
        <ele>882.2</ele>
        <time>2021-08-20T14:17:28Z</time>
      </trkpt>
      <trkpt lat="44.26114" lon="2.95463">
        <ele>881.6</ele>
        <time>2021-08-20T14:17:29Z</time>
      </trkpt>
      <trkpt lat="44.26115" lon="2.95456">
        <ele>881.2</ele>
        <time>2021-08-20T14:17:30Z</time>
      </trkpt>
      <trkpt lat="44.26113" lon="2.95451">
        <ele>880.8</ele>
        <time>2021-08-20T14:17:31Z</time>
      </trkpt>
      <trkpt lat="44.26113" lon="2.95445">
        <ele>880.4</ele>
        <time>2021-08-20T14:17:32Z</time>
      </trkpt>
      <trkpt lat="44.26113" lon="2.95439">
        <ele>879.8</ele>
        <time>2021-08-20T14:17:33Z</time>
      </trkpt>
      <trkpt lat="44.26112" lon="2.95432">
        <ele>879.4</ele>
        <time>2021-08-20T14:17:34Z</time>
      </trkpt>
      <trkpt lat="44.26112" lon="2.9542">
        <ele>877.8</ele>
        <time>2021-08-20T14:17:36Z</time>
      </trkpt>
      <trkpt lat="44.26111" lon="2.95415">
        <ele>877.6</ele>
        <time>2021-08-20T14:17:37Z</time>
      </trkpt>
      <trkpt lat="44.26111" lon="2.9541">
        <ele>877.2</ele>
        <time>2021-08-20T14:17:38Z</time>
      </trkpt>
      <trkpt lat="44.2611" lon="2.95403">
        <ele>876.8</ele>
        <time>2021-08-20T14:17:39Z</time>
      </trkpt>
      <trkpt lat="44.2611" lon="2.95399">
        <ele>875.8</ele>
        <time>2021-08-20T14:17:40Z</time>
      </trkpt>
      <trkpt lat="44.26109" lon="2.95389">
        <ele>874.2</ele>
        <time>2021-08-20T14:17:42Z</time>
      </trkpt>
      <trkpt lat="44.26108" lon="2.95379">
        <ele>873.2</ele>
        <time>2021-08-20T14:17:44Z</time>
      </trkpt>
      <trkpt lat="44.26107" lon="2.95374">
        <ele>872.6</ele>
        <time>2021-08-20T14:17:45Z</time>
      </trkpt>
      <trkpt lat="44.26106" lon="2.95369">
        <ele>872.2</ele>
        <time>2021-08-20T14:17:46Z</time>
      </trkpt>
      <trkpt lat="44.26106" lon="2.95364">
        <ele>871.4</ele>
        <time>2021-08-20T14:17:47Z</time>
      </trkpt>
      <trkpt lat="44.26105" lon="2.95359">
        <ele>871.2</ele>
        <time>2021-08-20T14:17:48Z</time>
      </trkpt>
      <trkpt lat="44.26104" lon="2.95348">
        <ele>870.2</ele>
        <time>2021-08-20T14:17:50Z</time>
      </trkpt>
      <trkpt lat="44.26102" lon="2.95336">
        <ele>869</ele>
        <time>2021-08-20T14:17:52Z</time>
      </trkpt>
      <trkpt lat="44.26101" lon="2.95323">
        <ele>868</ele>
        <time>2021-08-20T14:17:54Z</time>
      </trkpt>
      <trkpt lat="44.26098" lon="2.9531">
        <ele>866.4</ele>
        <time>2021-08-20T14:17:56Z</time>
      </trkpt>
      <trkpt lat="44.26097" lon="2.95304">
        <ele>866</ele>
        <time>2021-08-20T14:17:57Z</time>
      </trkpt>
      <trkpt lat="44.26096" lon="2.95298">
        <ele>865.4</ele>
        <time>2021-08-20T14:17:58Z</time>
      </trkpt>
      <trkpt lat="44.26095" lon="2.95293">
        <ele>864.8</ele>
        <time>2021-08-20T14:17:59Z</time>
      </trkpt>
      <trkpt lat="44.26095" lon="2.95289">
        <ele>864.4</ele>
        <time>2021-08-20T14:18:00Z</time>
      </trkpt>
      <trkpt lat="44.26095" lon="2.95284">
        <ele>863.6</ele>
        <time>2021-08-20T14:18:01Z</time>
      </trkpt>
      <trkpt lat="44.26094" lon="2.9528">
        <ele>863.2</ele>
        <time>2021-08-20T14:18:02Z</time>
      </trkpt>
      <trkpt lat="44.26093" lon="2.95276">
        <ele>862.4</ele>
        <time>2021-08-20T14:18:03Z</time>
      </trkpt>
      <trkpt lat="44.2609" lon="2.95262">
        <ele>861.2</ele>
        <time>2021-08-20T14:18:06Z</time>
      </trkpt>
      <trkpt lat="44.26087" lon="2.95253">
        <ele>860</ele>
        <time>2021-08-20T14:18:08Z</time>
      </trkpt>
      <trkpt lat="44.26086" lon="2.95248">
        <ele>859.6</ele>
        <time>2021-08-20T14:18:09Z</time>
      </trkpt>
      <trkpt lat="44.26081" lon="2.95231">
        <ele>858.6</ele>
        <time>2021-08-20T14:18:12Z</time>
      </trkpt>
      <trkpt lat="44.26075" lon="2.95217">
        <ele>857.6</ele>
        <time>2021-08-20T14:18:15Z</time>
      </trkpt>
      <trkpt lat="44.26072" lon="2.95206">
        <ele>857.2</ele>
        <time>2021-08-20T14:18:17Z</time>
      </trkpt>
      <trkpt lat="44.2607" lon="2.95194">
        <ele>856.6</ele>
        <time>2021-08-20T14:18:19Z</time>
      </trkpt>
      <trkpt lat="44.26069" lon="2.95186">
        <ele>856.4</ele>
        <time>2021-08-20T14:18:20Z</time>
      </trkpt>
      <trkpt lat="44.26069" lon="2.95181">
        <ele>855.8</ele>
        <time>2021-08-20T14:18:21Z</time>
      </trkpt>
      <trkpt lat="44.26073" lon="2.95168">
        <ele>855</ele>
        <time>2021-08-20T14:18:23Z</time>
      </trkpt>
      <trkpt lat="44.26077" lon="2.95163">
        <ele>853.8</ele>
        <time>2021-08-20T14:18:24Z</time>
      </trkpt>
      <trkpt lat="44.26082" lon="2.95158">
        <ele>853.4</ele>
        <time>2021-08-20T14:18:25Z</time>
      </trkpt>
      <trkpt lat="44.26087" lon="2.95154">
        <ele>852.8</ele>
        <time>2021-08-20T14:18:26Z</time>
      </trkpt>
      <trkpt lat="44.26092" lon="2.9515">
        <ele>852.2</ele>
        <time>2021-08-20T14:18:27Z</time>
      </trkpt>
      <trkpt lat="44.26095" lon="2.95146">
        <ele>851.4</ele>
        <time>2021-08-20T14:18:28Z</time>
      </trkpt>
      <trkpt lat="44.261" lon="2.9514">
        <ele>850.8</ele>
        <time>2021-08-20T14:18:29Z</time>
      </trkpt>
      <trkpt lat="44.26104" lon="2.95133">
        <ele>850.2</ele>
        <time>2021-08-20T14:18:30Z</time>
      </trkpt>
      <trkpt lat="44.26106" lon="2.95127">
        <ele>850</ele>
        <time>2021-08-20T14:18:31Z</time>
      </trkpt>
      <trkpt lat="44.26108" lon="2.95121">
        <ele>849.6</ele>
        <time>2021-08-20T14:18:32Z</time>
      </trkpt>
      <trkpt lat="44.2611" lon="2.95114">
        <ele>849.2</ele>
        <time>2021-08-20T14:18:33Z</time>
      </trkpt>
      <trkpt lat="44.26111" lon="2.95106">
        <ele>849</ele>
        <time>2021-08-20T14:18:34Z</time>
      </trkpt>
      <trkpt lat="44.26112" lon="2.95099">
        <ele>848.8</ele>
        <time>2021-08-20T14:18:35Z</time>
      </trkpt>
      <trkpt lat="44.26113" lon="2.95093">
        <ele>848.6</ele>
        <time>2021-08-20T14:18:36Z</time>
      </trkpt>
      <trkpt lat="44.26114" lon="2.95086">
        <ele>848.4</ele>
        <time>2021-08-20T14:18:37Z</time>
      </trkpt>
      <trkpt lat="44.26114" lon="2.95081">
        <ele>848.2</ele>
        <time>2021-08-20T14:18:38Z</time>
      </trkpt>
      <trkpt lat="44.26114" lon="2.95073">
        <ele>848</ele>
        <time>2021-08-20T14:18:39Z</time>
      </trkpt>
      <trkpt lat="44.26118" lon="2.95052">
        <ele>847.8</ele>
        <time>2021-08-20T14:18:42Z</time>
      </trkpt>
      <trkpt lat="44.26121" lon="2.95035">
        <ele>847.8</ele>
        <time>2021-08-20T14:18:44Z</time>
      </trkpt>
      <trkpt lat="44.26121" lon="2.95028">
        <ele>848</ele>
        <time>2021-08-20T14:18:45Z</time>
      </trkpt>
      <trkpt lat="44.26122" lon="2.9502">
        <ele>848</ele>
        <time>2021-08-20T14:18:46Z</time>
      </trkpt>
      <trkpt lat="44.26122" lon="2.95003">
        <ele>848.6</ele>
        <time>2021-08-20T14:18:48Z</time>
      </trkpt>
      <trkpt lat="44.26122" lon="2.94994">
        <ele>848.8</ele>
        <time>2021-08-20T14:18:49Z</time>
      </trkpt>
      <trkpt lat="44.26122" lon="2.94987">
        <ele>849</ele>
        <time>2021-08-20T14:18:50Z</time>
      </trkpt>
      <trkpt lat="44.26121" lon="2.9498">
        <ele>849.2</ele>
        <time>2021-08-20T14:18:51Z</time>
      </trkpt>
      <trkpt lat="44.2612" lon="2.94967">
        <ele>849.4</ele>
        <time>2021-08-20T14:18:53Z</time>
      </trkpt>
      <trkpt lat="44.26118" lon="2.9496">
        <ele>849.6</ele>
        <time>2021-08-20T14:18:54Z</time>
      </trkpt>
      <trkpt lat="44.26117" lon="2.94949">
        <ele>850.2</ele>
        <time>2021-08-20T14:18:56Z</time>
      </trkpt>
      <trkpt lat="44.26116" lon="2.94942">
        <ele>850.4</ele>
        <time>2021-08-20T14:18:57Z</time>
      </trkpt>
      <trkpt lat="44.26115" lon="2.94935">
        <ele>851</ele>
        <time>2021-08-20T14:18:58Z</time>
      </trkpt>
      <trkpt lat="44.26115" lon="2.94927">
        <ele>851.2</ele>
        <time>2021-08-20T14:18:59Z</time>
      </trkpt>
      <trkpt lat="44.26116" lon="2.94923">
        <ele>851.8</ele>
        <time>2021-08-20T14:19:00Z</time>
      </trkpt>
      <trkpt lat="44.26116" lon="2.94918">
        <ele>852</ele>
        <time>2021-08-20T14:19:01Z</time>
      </trkpt>
      <trkpt lat="44.26116" lon="2.94913">
        <ele>852.6</ele>
        <time>2021-08-20T14:19:02Z</time>
      </trkpt>
      <trkpt lat="44.26118" lon="2.94909">
        <ele>853</ele>
        <time>2021-08-20T14:19:03Z</time>
      </trkpt>
      <trkpt lat="44.2612" lon="2.94907">
        <ele>853.4</ele>
        <time>2021-08-20T14:19:04Z</time>
      </trkpt>
      <trkpt lat="44.26122" lon="2.94904">
        <ele>854.2</ele>
        <time>2021-08-20T14:19:05Z</time>
      </trkpt>
      <trkpt lat="44.26124" lon="2.94901">
        <ele>854.6</ele>
        <time>2021-08-20T14:19:06Z</time>
      </trkpt>
      <trkpt lat="44.26125" lon="2.94897">
        <ele>855.4</ele>
        <time>2021-08-20T14:19:07Z</time>
      </trkpt>
      <trkpt lat="44.26126" lon="2.94893">
        <ele>855.8</ele>
        <time>2021-08-20T14:19:08Z</time>
      </trkpt>
      <trkpt lat="44.26126" lon="2.94889">
        <ele>856.4</ele>
        <time>2021-08-20T14:19:09Z</time>
      </trkpt>
      <trkpt lat="44.26127" lon="2.94884">
        <ele>856.8</ele>
        <time>2021-08-20T14:19:10Z</time>
      </trkpt>
      <trkpt lat="44.26127" lon="2.94881">
        <ele>857.2</ele>
        <time>2021-08-20T14:19:11Z</time>
      </trkpt>
      <trkpt lat="44.26127" lon="2.94877">
        <ele>857.4</ele>
        <time>2021-08-20T14:19:12Z</time>
      </trkpt>
      <trkpt lat="44.26128" lon="2.94873">
        <ele>857.4</ele>
        <time>2021-08-20T14:19:13Z</time>
      </trkpt>
      <trkpt lat="44.26127" lon="2.9487">
        <ele>857.6</ele>
        <time>2021-08-20T14:19:14Z</time>
      </trkpt>
      <trkpt lat="44.26127" lon="2.94867">
        <ele>857.8</ele>
        <time>2021-08-20T14:19:15Z</time>
      </trkpt>
      <trkpt lat="44.26128" lon="2.94864">
        <ele>857.8</ele>
        <time>2021-08-20T14:19:16Z</time>
      </trkpt>
      <trkpt lat="44.26128" lon="2.94861">
        <ele>857.8</ele>
        <time>2021-08-20T14:19:17Z</time>
      </trkpt>
      <trkpt lat="44.26128" lon="2.94859">
        <ele>857.8</ele>
        <time>2021-08-20T14:19:18Z</time>
      </trkpt>
      <trkpt lat="44.26128" lon="2.94856">
        <ele>857.8</ele>
        <time>2021-08-20T14:19:19Z</time>
      </trkpt>
      <trkpt lat="44.26127" lon="2.94854">
        <ele>858</ele>
        <time>2021-08-20T14:19:20Z</time>
      </trkpt>
      <trkpt lat="44.26127" lon="2.94851">
        <ele>858</ele>
        <time>2021-08-20T14:19:21Z</time>
      </trkpt>
      <trkpt lat="44.26125" lon="2.94849">
        <ele>858</ele>
        <time>2021-08-20T14:19:22Z</time>
      </trkpt>
      <trkpt lat="44.26123" lon="2.94846">
        <ele>858</ele>
        <time>2021-08-20T14:19:23Z</time>
      </trkpt>
      <trkpt lat="44.26122" lon="2.94843">
        <ele>858</ele>
        <time>2021-08-20T14:19:24Z</time>
      </trkpt>
      <trkpt lat="44.2612" lon="2.94839">
        <ele>858</ele>
        <time>2021-08-20T14:19:25Z</time>
      </trkpt>
      <trkpt lat="44.26118" lon="2.94835">
        <ele>858</ele>
        <time>2021-08-20T14:19:26Z</time>
      </trkpt>
      <trkpt lat="44.26116" lon="2.9483">
        <ele>858</ele>
        <time>2021-08-20T14:19:27Z</time>
      </trkpt>
      <trkpt lat="44.26114" lon="2.94826">
        <ele>858</ele>
        <time>2021-08-20T14:19:28Z</time>
      </trkpt>
      <trkpt lat="44.26112" lon="2.94821">
        <ele>858</ele>
        <time>2021-08-20T14:19:29Z</time>
      </trkpt>
      <trkpt lat="44.2611" lon="2.94816">
        <ele>858</ele>
        <time>2021-08-20T14:19:30Z</time>
      </trkpt>
      <trkpt lat="44.26108" lon="2.94811">
        <ele>857.8</ele>
        <time>2021-08-20T14:19:31Z</time>
      </trkpt>
      <trkpt lat="44.26107" lon="2.94806">
        <ele>857.8</ele>
        <time>2021-08-20T14:19:32Z</time>
      </trkpt>
      <trkpt lat="44.26106" lon="2.94802">
        <ele>857.8</ele>
        <time>2021-08-20T14:19:33Z</time>
      </trkpt>
      <trkpt lat="44.26105" lon="2.94798">
        <ele>857.4</ele>
        <time>2021-08-20T14:19:34Z</time>
      </trkpt>
      <trkpt lat="44.26104" lon="2.94795">
        <ele>857.4</ele>
        <time>2021-08-20T14:19:35Z</time>
      </trkpt>
      <trkpt lat="44.26103" lon="2.94793">
        <ele>857</ele>
        <time>2021-08-20T14:19:36Z</time>
      </trkpt>
      <trkpt lat="44.26103" lon="2.9479">
        <ele>856.8</ele>
        <time>2021-08-20T14:19:37Z</time>
      </trkpt>
      <trkpt lat="44.26102" lon="2.94788">
        <ele>856.6</ele>
        <time>2021-08-20T14:19:38Z</time>
      </trkpt>
      <trkpt lat="44.26101" lon="2.94785">
        <ele>856</ele>
        <time>2021-08-20T14:19:39Z</time>
      </trkpt>
      <trkpt lat="44.26101" lon="2.94783">
        <ele>855.8</ele>
        <time>2021-08-20T14:19:40Z</time>
      </trkpt>
      <trkpt lat="44.26101" lon="2.94781">
        <ele>855.4</ele>
        <time>2021-08-20T14:19:41Z</time>
      </trkpt>
      <trkpt lat="44.26101" lon="2.94779">
        <ele>855.2</ele>
        <time>2021-08-20T14:19:42Z</time>
      </trkpt>
      <trkpt lat="44.26101" lon="2.94777">
        <ele>854.8</ele>
        <time>2021-08-20T14:19:43Z</time>
      </trkpt>
      <trkpt lat="44.26102" lon="2.94776">
        <ele>854.4</ele>
        <time>2021-08-20T14:19:44Z</time>
      </trkpt>
      <trkpt lat="44.26104" lon="2.94772">
        <ele>853</ele>
        <time>2021-08-20T14:19:52Z</time>
      </trkpt>
      <trkpt lat="44.26106" lon="2.94769">
        <ele>852.8</ele>
        <time>2021-08-20T14:19:53Z</time>
      </trkpt>
      <trkpt lat="44.26116" lon="2.94746">
        <ele>852.6</ele>
        <time>2021-08-20T14:19:57Z</time>
      </trkpt>
      <trkpt lat="44.26118" lon="2.94738">
        <ele>852.4</ele>
        <time>2021-08-20T14:19:58Z</time>
      </trkpt>
      <trkpt lat="44.26119" lon="2.9473">
        <ele>852.2</ele>
        <time>2021-08-20T14:19:59Z</time>
      </trkpt>
      <trkpt lat="44.26121" lon="2.94714">
        <ele>851.8</ele>
        <time>2021-08-20T14:20:01Z</time>
      </trkpt>
      <trkpt lat="44.26122" lon="2.94706">
        <ele>851</ele>
        <time>2021-08-20T14:20:02Z</time>
      </trkpt>
      <trkpt lat="44.26123" lon="2.94699">
        <ele>851</ele>
        <time>2021-08-20T14:20:03Z</time>
      </trkpt>
      <trkpt lat="44.26123" lon="2.94692">
        <ele>850.6</ele>
        <time>2021-08-20T14:20:04Z</time>
      </trkpt>
      <trkpt lat="44.26124" lon="2.94685">
        <ele>850.6</ele>
        <time>2021-08-20T14:20:05Z</time>
      </trkpt>
      <trkpt lat="44.26124" lon="2.94679">
        <ele>850.4</ele>
        <time>2021-08-20T14:20:06Z</time>
      </trkpt>
      <trkpt lat="44.26125" lon="2.94672">
        <ele>850.2</ele>
        <time>2021-08-20T14:20:07Z</time>
      </trkpt>
      <trkpt lat="44.26125" lon="2.94666">
        <ele>850.2</ele>
        <time>2021-08-20T14:20:08Z</time>
      </trkpt>
      <trkpt lat="44.26125" lon="2.9466">
        <ele>850.2</ele>
        <time>2021-08-20T14:20:09Z</time>
      </trkpt>
      <trkpt lat="44.26125" lon="2.94654">
        <ele>850.2</ele>
        <time>2021-08-20T14:20:10Z</time>
      </trkpt>
      <trkpt lat="44.26125" lon="2.94649">
        <ele>850.2</ele>
        <time>2021-08-20T14:20:11Z</time>
      </trkpt>
      <trkpt lat="44.26125" lon="2.94643">
        <ele>850</ele>
        <time>2021-08-20T14:20:12Z</time>
      </trkpt>
      <trkpt lat="44.26125" lon="2.9464">
        <ele>850</ele>
        <time>2021-08-20T14:20:13Z</time>
      </trkpt>
      <trkpt lat="44.26124" lon="2.9463">
        <ele>850</ele>
        <time>2021-08-20T14:20:15Z</time>
      </trkpt>
      <trkpt lat="44.26116" lon="2.94608">
        <ele>850</ele>
        <time>2021-08-20T14:20:19Z</time>
      </trkpt>
      <trkpt lat="44.26115" lon="2.94603">
        <ele>850</ele>
        <time>2021-08-20T14:20:20Z</time>
      </trkpt>
      <trkpt lat="44.26116" lon="2.94598">
        <ele>850</ele>
        <time>2021-08-20T14:20:21Z</time>
      </trkpt>
      <trkpt lat="44.26116" lon="2.94594">
        <ele>850</ele>
        <time>2021-08-20T14:20:22Z</time>
      </trkpt>
      <trkpt lat="44.26117" lon="2.9459">
        <ele>850</ele>
        <time>2021-08-20T14:20:23Z</time>
      </trkpt>
      <trkpt lat="44.26118" lon="2.94586">
        <ele>850</ele>
        <time>2021-08-20T14:20:24Z</time>
      </trkpt>
      <trkpt lat="44.2612" lon="2.94583">
        <ele>850</ele>
        <time>2021-08-20T14:20:25Z</time>
      </trkpt>
      <trkpt lat="44.26121" lon="2.9458">
        <ele>850</ele>
        <time>2021-08-20T14:20:26Z</time>
      </trkpt>
      <trkpt lat="44.26122" lon="2.94576">
        <ele>850</ele>
        <time>2021-08-20T14:20:27Z</time>
      </trkpt>
      <trkpt lat="44.26123" lon="2.94574">
        <ele>850</ele>
        <time>2021-08-20T14:20:28Z</time>
      </trkpt>
      <trkpt lat="44.26124" lon="2.94571">
        <ele>850</ele>
        <time>2021-08-20T14:20:29Z</time>
      </trkpt>
      <trkpt lat="44.26124" lon="2.94568">
        <ele>850.2</ele>
        <time>2021-08-20T14:20:30Z</time>
      </trkpt>
      <trkpt lat="44.26125" lon="2.94565">
        <ele>850.2</ele>
        <time>2021-08-20T14:20:31Z</time>
      </trkpt>
      <trkpt lat="44.26125" lon="2.94563">
        <ele>850.4</ele>
        <time>2021-08-20T14:20:32Z</time>
      </trkpt>
      <trkpt lat="44.26125" lon="2.9456">
        <ele>850.8</ele>
        <time>2021-08-20T14:20:33Z</time>
      </trkpt>
      <trkpt lat="44.26125" lon="2.94559">
        <ele>851</ele>
        <time>2021-08-20T14:20:34Z</time>
      </trkpt>
      <trkpt lat="44.26125" lon="2.94557">
        <ele>851.2</ele>
        <time>2021-08-20T14:20:35Z</time>
      </trkpt>
      <trkpt lat="44.26127" lon="2.9454">
        <ele>851.4</ele>
        <time>2021-08-20T14:20:40Z</time>
      </trkpt>
      <trkpt lat="44.26129" lon="2.94527">
        <ele>851.2</ele>
        <time>2021-08-20T14:20:42Z</time>
      </trkpt>
      <trkpt lat="44.26131" lon="2.94519">
        <ele>851.2</ele>
        <time>2021-08-20T14:20:43Z</time>
      </trkpt>
      <trkpt lat="44.26147" lon="2.94477">
        <ele>849.6</ele>
        <time>2021-08-20T14:20:47Z</time>
      </trkpt>
      <trkpt lat="44.26151" lon="2.94467">
        <ele>849.4</ele>
        <time>2021-08-20T14:20:48Z</time>
      </trkpt>
      <trkpt lat="44.26155" lon="2.94458">
        <ele>848.8</ele>
        <time>2021-08-20T14:20:49Z</time>
      </trkpt>
      <trkpt lat="44.26159" lon="2.94449">
        <ele>847.8</ele>
        <time>2021-08-20T14:20:50Z</time>
      </trkpt>
      <trkpt lat="44.26161" lon="2.9444">
        <ele>847.2</ele>
        <time>2021-08-20T14:20:51Z</time>
      </trkpt>
      <trkpt lat="44.26162" lon="2.94431">
        <ele>846.6</ele>
        <time>2021-08-20T14:20:52Z</time>
      </trkpt>
      <trkpt lat="44.26161" lon="2.94423">
        <ele>846</ele>
        <time>2021-08-20T14:20:53Z</time>
      </trkpt>
      <trkpt lat="44.2616" lon="2.94415">
        <ele>845.6</ele>
        <time>2021-08-20T14:20:54Z</time>
      </trkpt>
      <trkpt lat="44.26158" lon="2.94408">
        <ele>845.4</ele>
        <time>2021-08-20T14:20:55Z</time>
      </trkpt>
      <trkpt lat="44.26157" lon="2.94402">
        <ele>845.2</ele>
        <time>2021-08-20T14:20:56Z</time>
      </trkpt>
      <trkpt lat="44.26154" lon="2.94396">
        <ele>845.2</ele>
        <time>2021-08-20T14:20:57Z</time>
      </trkpt>
      <trkpt lat="44.26152" lon="2.9439">
        <ele>845.2</ele>
        <time>2021-08-20T14:20:58Z</time>
      </trkpt>
      <trkpt lat="44.26151" lon="2.94384">
        <ele>845.2</ele>
        <time>2021-08-20T14:20:59Z</time>
      </trkpt>
      <trkpt lat="44.26149" lon="2.94379">
        <ele>845.2</ele>
        <time>2021-08-20T14:21:00Z</time>
      </trkpt>
      <trkpt lat="44.26148" lon="2.94375">
        <ele>845.2</ele>
        <time>2021-08-20T14:21:01Z</time>
      </trkpt>
      <trkpt lat="44.26148" lon="2.94369">
        <ele>845.2</ele>
        <time>2021-08-20T14:21:02Z</time>
      </trkpt>
      <trkpt lat="44.26149" lon="2.94364">
        <ele>845.6</ele>
        <time>2021-08-20T14:21:03Z</time>
      </trkpt>
      <trkpt lat="44.26151" lon="2.94359">
        <ele>845.8</ele>
        <time>2021-08-20T14:21:04Z</time>
      </trkpt>
      <trkpt lat="44.26154" lon="2.94355">
        <ele>846</ele>
        <time>2021-08-20T14:21:05Z</time>
      </trkpt>
      <trkpt lat="44.26158" lon="2.94351">
        <ele>846.4</ele>
        <time>2021-08-20T14:21:06Z</time>
      </trkpt>
      <trkpt lat="44.26163" lon="2.94346">
        <ele>846.8</ele>
        <time>2021-08-20T14:21:07Z</time>
      </trkpt>
      <trkpt lat="44.26168" lon="2.94341">
        <ele>847.6</ele>
        <time>2021-08-20T14:21:08Z</time>
      </trkpt>
      <trkpt lat="44.26174" lon="2.94337">
        <ele>847.8</ele>
        <time>2021-08-20T14:21:09Z</time>
      </trkpt>
      <trkpt lat="44.26179" lon="2.94333">
        <ele>848.2</ele>
        <time>2021-08-20T14:21:10Z</time>
      </trkpt>
      <trkpt lat="44.26184" lon="2.9433">
        <ele>848.4</ele>
        <time>2021-08-20T14:21:11Z</time>
      </trkpt>
      <trkpt lat="44.26189" lon="2.94327">
        <ele>848.8</ele>
        <time>2021-08-20T14:21:12Z</time>
      </trkpt>
      <trkpt lat="44.26193" lon="2.94324">
        <ele>849.2</ele>
        <time>2021-08-20T14:21:13Z</time>
      </trkpt>
      <trkpt lat="44.26196" lon="2.94321">
        <ele>849.4</ele>
        <time>2021-08-20T14:21:14Z</time>
      </trkpt>
      <trkpt lat="44.26199" lon="2.94319">
        <ele>850</ele>
        <time>2021-08-20T14:21:15Z</time>
      </trkpt>
      <trkpt lat="44.26202" lon="2.94317">
        <ele>850.4</ele>
        <time>2021-08-20T14:21:16Z</time>
      </trkpt>
      <trkpt lat="44.26205" lon="2.94315">
        <ele>850.8</ele>
        <time>2021-08-20T14:21:17Z</time>
      </trkpt>
      <trkpt lat="44.26207" lon="2.94313">
        <ele>851</ele>
        <time>2021-08-20T14:21:18Z</time>
      </trkpt>
      <trkpt lat="44.26209" lon="2.94311">
        <ele>851.8</ele>
        <time>2021-08-20T14:21:19Z</time>
      </trkpt>
      <trkpt lat="44.26212" lon="2.94309">
        <ele>852</ele>
        <time>2021-08-20T14:21:20Z</time>
      </trkpt>
      <trkpt lat="44.26214" lon="2.94307">
        <ele>852.2</ele>
        <time>2021-08-20T14:21:21Z</time>
      </trkpt>
      <trkpt lat="44.26217" lon="2.94304">
        <ele>852.4</ele>
        <time>2021-08-20T14:21:22Z</time>
      </trkpt>
      <trkpt lat="44.2622" lon="2.94301">
        <ele>852.4</ele>
        <time>2021-08-20T14:21:23Z</time>
      </trkpt>
      <trkpt lat="44.26223" lon="2.94299">
        <ele>852.8</ele>
        <time>2021-08-20T14:21:24Z</time>
      </trkpt>
      <trkpt lat="44.26225" lon="2.94296">
        <ele>853</ele>
        <time>2021-08-20T14:21:25Z</time>
      </trkpt>
      <trkpt lat="44.26228" lon="2.94294">
        <ele>853</ele>
        <time>2021-08-20T14:21:26Z</time>
      </trkpt>
      <trkpt lat="44.26231" lon="2.94292">
        <ele>853.2</ele>
        <time>2021-08-20T14:21:27Z</time>
      </trkpt>
      <trkpt lat="44.26233" lon="2.9429">
        <ele>853.2</ele>
        <time>2021-08-20T14:21:28Z</time>
      </trkpt>
      <trkpt lat="44.26236" lon="2.94288">
        <ele>853.4</ele>
        <time>2021-08-20T14:21:29Z</time>
      </trkpt>
      <trkpt lat="44.26239" lon="2.94286">
        <ele>853.6</ele>
        <time>2021-08-20T14:21:30Z</time>
      </trkpt>
      <trkpt lat="44.26241" lon="2.94284">
        <ele>853.6</ele>
        <time>2021-08-20T14:21:31Z</time>
      </trkpt>
      <trkpt lat="44.26244" lon="2.94282">
        <ele>853.8</ele>
        <time>2021-08-20T14:21:32Z</time>
      </trkpt>
      <trkpt lat="44.26247" lon="2.94281">
        <ele>854</ele>
        <time>2021-08-20T14:21:33Z</time>
      </trkpt>
      <trkpt lat="44.2625" lon="2.94279">
        <ele>854</ele>
        <time>2021-08-20T14:21:34Z</time>
      </trkpt>
      <trkpt lat="44.26252" lon="2.94278">
        <ele>854</ele>
        <time>2021-08-20T14:21:35Z</time>
      </trkpt>
      <trkpt lat="44.26255" lon="2.94277">
        <ele>854</ele>
        <time>2021-08-20T14:21:36Z</time>
      </trkpt>
      <trkpt lat="44.26257" lon="2.94276">
        <ele>854.2</ele>
        <time>2021-08-20T14:21:37Z</time>
      </trkpt>
      <trkpt lat="44.2626" lon="2.94276">
        <ele>854.4</ele>
        <time>2021-08-20T14:21:38Z</time>
      </trkpt>
      <trkpt lat="44.26263" lon="2.94276">
        <ele>854.6</ele>
        <time>2021-08-20T14:21:39Z</time>
      </trkpt>
      <trkpt lat="44.26265" lon="2.94276">
        <ele>854.6</ele>
        <time>2021-08-20T14:21:40Z</time>
      </trkpt>
      <trkpt lat="44.26269" lon="2.94276">
        <ele>854.8</ele>
        <time>2021-08-20T14:21:41Z</time>
      </trkpt>
      <trkpt lat="44.26272" lon="2.94276">
        <ele>855</ele>
        <time>2021-08-20T14:21:42Z</time>
      </trkpt>
      <trkpt lat="44.26274" lon="2.94276">
        <ele>855</ele>
        <time>2021-08-20T14:21:43Z</time>
      </trkpt>
      <trkpt lat="44.26277" lon="2.94276">
        <ele>855.2</ele>
        <time>2021-08-20T14:21:44Z</time>
      </trkpt>
      <trkpt lat="44.26281" lon="2.94276">
        <ele>855.4</ele>
        <time>2021-08-20T14:21:45Z</time>
      </trkpt>
      <trkpt lat="44.26284" lon="2.94276">
        <ele>855.4</ele>
        <time>2021-08-20T14:21:46Z</time>
      </trkpt>
      <trkpt lat="44.26286" lon="2.94275">
        <ele>855.8</ele>
        <time>2021-08-20T14:21:47Z</time>
      </trkpt>
      <trkpt lat="44.26289" lon="2.94275">
        <ele>855.8</ele>
        <time>2021-08-20T14:21:48Z</time>
      </trkpt>
      <trkpt lat="44.26292" lon="2.94274">
        <ele>856.2</ele>
        <time>2021-08-20T14:21:49Z</time>
      </trkpt>
      <trkpt lat="44.26294" lon="2.94273">
        <ele>856.4</ele>
        <time>2021-08-20T14:21:50Z</time>
      </trkpt>
      <trkpt lat="44.26296" lon="2.94271">
        <ele>856.6</ele>
        <time>2021-08-20T14:21:51Z</time>
      </trkpt>
      <trkpt lat="44.26298" lon="2.9427">
        <ele>856.8</ele>
        <time>2021-08-20T14:21:52Z</time>
      </trkpt>
      <trkpt lat="44.263" lon="2.94268">
        <ele>857.2</ele>
        <time>2021-08-20T14:21:53Z</time>
      </trkpt>
      <trkpt lat="44.26303" lon="2.94267">
        <ele>857.4</ele>
        <time>2021-08-20T14:21:54Z</time>
      </trkpt>
      <trkpt lat="44.26304" lon="2.94265">
        <ele>857.4</ele>
        <time>2021-08-20T14:21:55Z</time>
      </trkpt>
      <trkpt lat="44.26306" lon="2.94262">
        <ele>857.4</ele>
        <time>2021-08-20T14:21:56Z</time>
      </trkpt>
      <trkpt lat="44.26308" lon="2.9426">
        <ele>857.4</ele>
        <time>2021-08-20T14:21:57Z</time>
      </trkpt>
      <trkpt lat="44.26309" lon="2.94257">
        <ele>857.6</ele>
        <time>2021-08-20T14:21:58Z</time>
      </trkpt>
      <trkpt lat="44.26311" lon="2.94254">
        <ele>857.6</ele>
        <time>2021-08-20T14:21:59Z</time>
      </trkpt>
      <trkpt lat="44.26312" lon="2.94252">
        <ele>857.8</ele>
        <time>2021-08-20T14:22:00Z</time>
      </trkpt>
      <trkpt lat="44.26314" lon="2.9425">
        <ele>858</ele>
        <time>2021-08-20T14:22:01Z</time>
      </trkpt>
      <trkpt lat="44.26316" lon="2.94248">
        <ele>858</ele>
        <time>2021-08-20T14:22:02Z</time>
      </trkpt>
      <trkpt lat="44.26318" lon="2.94245">
        <ele>858.2</ele>
        <time>2021-08-20T14:22:03Z</time>
      </trkpt>
      <trkpt lat="44.2632" lon="2.94241">
        <ele>858.4</ele>
        <time>2021-08-20T14:22:04Z</time>
      </trkpt>
      <trkpt lat="44.26322" lon="2.94238">
        <ele>858.4</ele>
        <time>2021-08-20T14:22:05Z</time>
      </trkpt>
      <trkpt lat="44.26325" lon="2.94234">
        <ele>858.6</ele>
        <time>2021-08-20T14:22:06Z</time>
      </trkpt>
      <trkpt lat="44.26328" lon="2.94231">
        <ele>858.6</ele>
        <time>2021-08-20T14:22:07Z</time>
      </trkpt>
      <trkpt lat="44.2633" lon="2.94227">
        <ele>858.6</ele>
        <time>2021-08-20T14:22:08Z</time>
      </trkpt>
      <trkpt lat="44.26332" lon="2.94223">
        <ele>859</ele>
        <time>2021-08-20T14:22:09Z</time>
      </trkpt>
      <trkpt lat="44.26334" lon="2.9422">
        <ele>859.2</ele>
        <time>2021-08-20T14:22:10Z</time>
      </trkpt>
      <trkpt lat="44.26336" lon="2.94217">
        <ele>859.2</ele>
        <time>2021-08-20T14:22:11Z</time>
      </trkpt>
      <trkpt lat="44.26338" lon="2.94214">
        <ele>859.4</ele>
        <time>2021-08-20T14:22:12Z</time>
      </trkpt>
      <trkpt lat="44.26341" lon="2.9421">
        <ele>859.4</ele>
        <time>2021-08-20T14:22:13Z</time>
      </trkpt>
      <trkpt lat="44.26343" lon="2.94208">
        <ele>859.6</ele>
        <time>2021-08-20T14:22:14Z</time>
      </trkpt>
      <trkpt lat="44.26346" lon="2.94204">
        <ele>859.6</ele>
        <time>2021-08-20T14:22:15Z</time>
      </trkpt>
      <trkpt lat="44.26348" lon="2.94201">
        <ele>859.8</ele>
        <time>2021-08-20T14:22:16Z</time>
      </trkpt>
      <trkpt lat="44.26351" lon="2.94197">
        <ele>860</ele>
        <time>2021-08-20T14:22:17Z</time>
      </trkpt>
      <trkpt lat="44.26353" lon="2.94194">
        <ele>860</ele>
        <time>2021-08-20T14:22:18Z</time>
      </trkpt>
      <trkpt lat="44.26355" lon="2.9419">
        <ele>860.2</ele>
        <time>2021-08-20T14:22:19Z</time>
      </trkpt>
      <trkpt lat="44.26358" lon="2.94187">
        <ele>860.2</ele>
        <time>2021-08-20T14:22:20Z</time>
      </trkpt>
      <trkpt lat="44.26361" lon="2.94183">
        <ele>860.4</ele>
        <time>2021-08-20T14:22:21Z</time>
      </trkpt>
      <trkpt lat="44.26364" lon="2.9418">
        <ele>860.4</ele>
        <time>2021-08-20T14:22:22Z</time>
      </trkpt>
      <trkpt lat="44.26366" lon="2.94177">
        <ele>860.6</ele>
        <time>2021-08-20T14:22:23Z</time>
      </trkpt>
      <trkpt lat="44.26369" lon="2.94175">
        <ele>860.6</ele>
        <time>2021-08-20T14:22:24Z</time>
      </trkpt>
      <trkpt lat="44.26372" lon="2.94172">
        <ele>860.6</ele>
        <time>2021-08-20T14:22:25Z</time>
      </trkpt>
      <trkpt lat="44.26375" lon="2.9417">
        <ele>860.8</ele>
        <time>2021-08-20T14:22:26Z</time>
      </trkpt>
      <trkpt lat="44.26379" lon="2.94168">
        <ele>860.8</ele>
        <time>2021-08-20T14:22:27Z</time>
      </trkpt>
      <trkpt lat="44.26382" lon="2.94165">
        <ele>861</ele>
        <time>2021-08-20T14:22:28Z</time>
      </trkpt>
      <trkpt lat="44.26384" lon="2.94164">
        <ele>861.2</ele>
        <time>2021-08-20T14:22:29Z</time>
      </trkpt>
      <trkpt lat="44.26386" lon="2.94161">
        <ele>861.2</ele>
        <time>2021-08-20T14:22:30Z</time>
      </trkpt>
      <trkpt lat="44.2639" lon="2.94159">
        <ele>861.2</ele>
        <time>2021-08-20T14:22:31Z</time>
      </trkpt>
      <trkpt lat="44.26392" lon="2.94158">
        <ele>861.4</ele>
        <time>2021-08-20T14:22:32Z</time>
      </trkpt>
      <trkpt lat="44.26394" lon="2.94156">
        <ele>861.4</ele>
        <time>2021-08-20T14:22:33Z</time>
      </trkpt>
      <trkpt lat="44.26397" lon="2.94153">
        <ele>861.6</ele>
        <time>2021-08-20T14:22:34Z</time>
      </trkpt>
      <trkpt lat="44.26399" lon="2.94151">
        <ele>861.8</ele>
        <time>2021-08-20T14:22:35Z</time>
      </trkpt>
      <trkpt lat="44.26402" lon="2.94149">
        <ele>861.8</ele>
        <time>2021-08-20T14:22:36Z</time>
      </trkpt>
      <trkpt lat="44.26405" lon="2.94147">
        <ele>862</ele>
        <time>2021-08-20T14:22:37Z</time>
      </trkpt>
      <trkpt lat="44.26407" lon="2.94145">
        <ele>862</ele>
        <time>2021-08-20T14:22:38Z</time>
      </trkpt>
      <trkpt lat="44.2641" lon="2.94143">
        <ele>862.2</ele>
        <time>2021-08-20T14:22:39Z</time>
      </trkpt>
      <trkpt lat="44.26413" lon="2.94141">
        <ele>862.2</ele>
        <time>2021-08-20T14:22:40Z</time>
      </trkpt>
      <trkpt lat="44.26417" lon="2.94138">
        <ele>862.6</ele>
        <time>2021-08-20T14:22:41Z</time>
      </trkpt>
      <trkpt lat="44.2642" lon="2.94136">
        <ele>862.8</ele>
        <time>2021-08-20T14:22:42Z</time>
      </trkpt>
      <trkpt lat="44.26422" lon="2.94135">
        <ele>863</ele>
        <time>2021-08-20T14:22:43Z</time>
      </trkpt>
      <trkpt lat="44.26425" lon="2.94132">
        <ele>863.4</ele>
        <time>2021-08-20T14:22:44Z</time>
      </trkpt>
      <trkpt lat="44.26428" lon="2.9413">
        <ele>863.6</ele>
        <time>2021-08-20T14:22:45Z</time>
      </trkpt>
      <trkpt lat="44.26431" lon="2.94127">
        <ele>864</ele>
        <time>2021-08-20T14:22:46Z</time>
      </trkpt>
      <trkpt lat="44.26434" lon="2.94125">
        <ele>864.2</ele>
        <time>2021-08-20T14:22:47Z</time>
      </trkpt>
      <trkpt lat="44.26438" lon="2.94123">
        <ele>864.6</ele>
        <time>2021-08-20T14:22:48Z</time>
      </trkpt>
      <trkpt lat="44.26441" lon="2.9412">
        <ele>865</ele>
        <time>2021-08-20T14:22:49Z</time>
      </trkpt>
      <trkpt lat="44.26445" lon="2.94117">
        <ele>865.2</ele>
        <time>2021-08-20T14:22:50Z</time>
      </trkpt>
      <trkpt lat="44.26449" lon="2.94115">
        <ele>865.6</ele>
        <time>2021-08-20T14:22:51Z</time>
      </trkpt>
      <trkpt lat="44.26451" lon="2.94114">
        <ele>865.8</ele>
        <time>2021-08-20T14:22:52Z</time>
      </trkpt>
      <trkpt lat="44.26454" lon="2.94113">
        <ele>866.2</ele>
        <time>2021-08-20T14:22:53Z</time>
      </trkpt>
      <trkpt lat="44.26457" lon="2.94111">
        <ele>866.4</ele>
        <time>2021-08-20T14:22:54Z</time>
      </trkpt>
      <trkpt lat="44.2646" lon="2.9411">
        <ele>866.6</ele>
        <time>2021-08-20T14:22:55Z</time>
      </trkpt>
      <trkpt lat="44.26462" lon="2.94109">
        <ele>866.8</ele>
        <time>2021-08-20T14:22:56Z</time>
      </trkpt>
      <trkpt lat="44.26464" lon="2.94107">
        <ele>867.4</ele>
        <time>2021-08-20T14:22:57Z</time>
      </trkpt>
      <trkpt lat="44.26466" lon="2.94106">
        <ele>868</ele>
        <time>2021-08-20T14:22:58Z</time>
      </trkpt>
      <trkpt lat="44.26468" lon="2.94104">
        <ele>868.2</ele>
        <time>2021-08-20T14:22:59Z</time>
      </trkpt>
      <trkpt lat="44.26469" lon="2.94102">
        <ele>868.6</ele>
        <time>2021-08-20T14:23:00Z</time>
      </trkpt>
      <trkpt lat="44.2647" lon="2.94099">
        <ele>868.8</ele>
        <time>2021-08-20T14:23:01Z</time>
      </trkpt>
      <trkpt lat="44.2647" lon="2.94096">
        <ele>869</ele>
        <time>2021-08-20T14:23:02Z</time>
      </trkpt>
      <trkpt lat="44.26469" lon="2.94093">
        <ele>869</ele>
        <time>2021-08-20T14:23:03Z</time>
      </trkpt>
      <trkpt lat="44.26469" lon="2.94092">
        <ele>869.2</ele>
        <time>2021-08-20T14:23:04Z</time>
      </trkpt>
      <trkpt lat="44.26462" lon="2.94084">
        <ele>869.6</ele>
        <time>2021-08-20T14:23:18Z</time>
      </trkpt>
      <trkpt lat="44.26461" lon="2.94081">
        <ele>869.6</ele>
        <time>2021-08-20T14:23:19Z</time>
      </trkpt>
      <trkpt lat="44.26459" lon="2.94077">
        <ele>869.6</ele>
        <time>2021-08-20T14:23:20Z</time>
      </trkpt>
      <trkpt lat="44.26457" lon="2.94073">
        <ele>869.6</ele>
        <time>2021-08-20T14:23:21Z</time>
      </trkpt>
      <trkpt lat="44.26455" lon="2.94068">
        <ele>869.6</ele>
        <time>2021-08-20T14:23:22Z</time>
      </trkpt>
      <trkpt lat="44.26454" lon="2.94063">
        <ele>869.4</ele>
        <time>2021-08-20T14:23:23Z</time>
      </trkpt>
      <trkpt lat="44.26453" lon="2.94057">
        <ele>869.4</ele>
        <time>2021-08-20T14:23:24Z</time>
      </trkpt>
      <trkpt lat="44.26452" lon="2.94051">
        <ele>869.2</ele>
        <time>2021-08-20T14:23:25Z</time>
      </trkpt>
      <trkpt lat="44.26451" lon="2.94032">
        <ele>869.2</ele>
        <time>2021-08-20T14:23:28Z</time>
      </trkpt>
      <trkpt lat="44.26452" lon="2.94027">
        <ele>869</ele>
        <time>2021-08-20T14:23:29Z</time>
      </trkpt>
      <trkpt lat="44.26452" lon="2.94022">
        <ele>869</ele>
        <time>2021-08-20T14:23:30Z</time>
      </trkpt>
      <trkpt lat="44.26452" lon="2.94017">
        <ele>869</ele>
        <time>2021-08-20T14:23:31Z</time>
      </trkpt>
      <trkpt lat="44.26453" lon="2.94012">
        <ele>869</ele>
        <time>2021-08-20T14:23:32Z</time>
      </trkpt>
      <trkpt lat="44.26454" lon="2.94007">
        <ele>869</ele>
        <time>2021-08-20T14:23:33Z</time>
      </trkpt>
      <trkpt lat="44.26457" lon="2.93998">
        <ele>869</ele>
        <time>2021-08-20T14:23:35Z</time>
      </trkpt>
      <trkpt lat="44.26457" lon="2.93993">
        <ele>869</ele>
        <time>2021-08-20T14:23:36Z</time>
      </trkpt>
      <trkpt lat="44.26459" lon="2.93984">
        <ele>869</ele>
        <time>2021-08-20T14:23:38Z</time>
      </trkpt>
      <trkpt lat="44.26461" lon="2.93979">
        <ele>869.2</ele>
        <time>2021-08-20T14:23:39Z</time>
      </trkpt>
      <trkpt lat="44.26462" lon="2.93975">
        <ele>869.2</ele>
        <time>2021-08-20T14:23:40Z</time>
      </trkpt>
      <trkpt lat="44.26464" lon="2.93961">
        <ele>869.6</ele>
        <time>2021-08-20T14:23:43Z</time>
      </trkpt>
      <trkpt lat="44.26465" lon="2.93953">
        <ele>869.8</ele>
        <time>2021-08-20T14:23:45Z</time>
      </trkpt>
      <trkpt lat="44.2647" lon="2.93929">
        <ele>869.8</ele>
        <time>2021-08-20T14:23:50Z</time>
      </trkpt>
      <trkpt lat="44.26471" lon="2.93924">
        <ele>869.8</ele>
        <time>2021-08-20T14:23:51Z</time>
      </trkpt>
      <trkpt lat="44.2648" lon="2.93903">
        <ele>870.2</ele>
        <time>2021-08-20T14:23:56Z</time>
      </trkpt>
      <trkpt lat="44.26482" lon="2.93899">
        <ele>870.4</ele>
        <time>2021-08-20T14:23:57Z</time>
      </trkpt>
      <trkpt lat="44.26484" lon="2.93895">
        <ele>870.4</ele>
        <time>2021-08-20T14:23:58Z</time>
      </trkpt>
      <trkpt lat="44.26485" lon="2.93891">
        <ele>870.4</ele>
        <time>2021-08-20T14:23:59Z</time>
      </trkpt>
      <trkpt lat="44.26489" lon="2.93883">
        <ele>870.6</ele>
        <time>2021-08-20T14:24:01Z</time>
      </trkpt>
      <trkpt lat="44.2649" lon="2.93878">
        <ele>870.6</ele>
        <time>2021-08-20T14:24:02Z</time>
      </trkpt>
      <trkpt lat="44.26491" lon="2.93875">
        <ele>870.6</ele>
        <time>2021-08-20T14:24:03Z</time>
      </trkpt>
      <trkpt lat="44.26493" lon="2.93866">
        <ele>870.6</ele>
        <time>2021-08-20T14:24:05Z</time>
      </trkpt>
      <trkpt lat="44.26496" lon="2.93852">
        <ele>870.8</ele>
        <time>2021-08-20T14:24:08Z</time>
      </trkpt>
      <trkpt lat="44.26497" lon="2.93848">
        <ele>870.8</ele>
        <time>2021-08-20T14:24:09Z</time>
      </trkpt>
      <trkpt lat="44.26498" lon="2.93843">
        <ele>870.8</ele>
        <time>2021-08-20T14:24:10Z</time>
      </trkpt>
      <trkpt lat="44.26498" lon="2.93839">
        <ele>870.6</ele>
        <time>2021-08-20T14:24:11Z</time>
      </trkpt>
      <trkpt lat="44.26499" lon="2.93836">
        <ele>870.6</ele>
        <time>2021-08-20T14:24:12Z</time>
      </trkpt>
      <trkpt lat="44.26499" lon="2.93833">
        <ele>870.6</ele>
        <time>2021-08-20T14:24:13Z</time>
      </trkpt>
      <trkpt lat="44.265" lon="2.93831">
        <ele>870.6</ele>
        <time>2021-08-20T14:24:14Z</time>
      </trkpt>
      <trkpt lat="44.265" lon="2.93831">
        <ele>870.6</ele>
        <time>2021-08-20T14:24:15Z</time>
      </trkpt>
      <trkpt lat="44.265" lon="2.93831">
        <ele>870.2</ele>
        <time>2021-08-20T14:24:39Z</time>
      </trkpt>
      <trkpt lat="44.26501" lon="2.93827">
        <ele>870.2</ele>
        <time>2021-08-20T14:24:40Z</time>
      </trkpt>
      <trkpt lat="44.26501" lon="2.93823">
        <ele>870.2</ele>
        <time>2021-08-20T14:24:41Z</time>
      </trkpt>
      <trkpt lat="44.26504" lon="2.93807">
        <ele>870.2</ele>
        <time>2021-08-20T14:24:44Z</time>
      </trkpt>
      <trkpt lat="44.26504" lon="2.93802">
        <ele>870.2</ele>
        <time>2021-08-20T14:24:45Z</time>
      </trkpt>
      <trkpt lat="44.26507" lon="2.9379">
        <ele>870.2</ele>
        <time>2021-08-20T14:24:47Z</time>
      </trkpt>
      <trkpt lat="44.26508" lon="2.93785">
        <ele>870.2</ele>
        <time>2021-08-20T14:24:48Z</time>
      </trkpt>
      <trkpt lat="44.26509" lon="2.9378">
        <ele>870.2</ele>
        <time>2021-08-20T14:24:49Z</time>
      </trkpt>
      <trkpt lat="44.26511" lon="2.93775">
        <ele>870</ele>
        <time>2021-08-20T14:24:50Z</time>
      </trkpt>
      <trkpt lat="44.26513" lon="2.93771">
        <ele>869.8</ele>
        <time>2021-08-20T14:24:51Z</time>
      </trkpt>
      <trkpt lat="44.26521" lon="2.93749">
        <ele>869.4</ele>
        <time>2021-08-20T14:24:55Z</time>
      </trkpt>
      <trkpt lat="44.26524" lon="2.93743">
        <ele>869.4</ele>
        <time>2021-08-20T14:24:56Z</time>
      </trkpt>
      <trkpt lat="44.2653" lon="2.9373">
        <ele>868.8</ele>
        <time>2021-08-20T14:24:58Z</time>
      </trkpt>
      <trkpt lat="44.26536" lon="2.93719">
        <ele>868.4</ele>
        <time>2021-08-20T14:25:00Z</time>
      </trkpt>
      <trkpt lat="44.26539" lon="2.93714">
        <ele>868.2</ele>
        <time>2021-08-20T14:25:01Z</time>
      </trkpt>
      <trkpt lat="44.2654" lon="2.9371">
        <ele>868.2</ele>
        <time>2021-08-20T14:25:02Z</time>
      </trkpt>
      <trkpt lat="44.26542" lon="2.93707">
        <ele>868</ele>
        <time>2021-08-20T14:25:03Z</time>
      </trkpt>
      <trkpt lat="44.26542" lon="2.93705">
        <ele>867.8</ele>
        <time>2021-08-20T14:25:04Z</time>
      </trkpt>
      <trkpt lat="44.26542" lon="2.93701">
        <ele>867.6</ele>
        <time>2021-08-20T14:25:05Z</time>
      </trkpt>
      <trkpt lat="44.26544" lon="2.93697">
        <ele>867.4</ele>
        <time>2021-08-20T14:25:06Z</time>
      </trkpt>
      <trkpt lat="44.26547" lon="2.93694">
        <ele>867.4</ele>
        <time>2021-08-20T14:25:07Z</time>
      </trkpt>
      <trkpt lat="44.26559" lon="2.93681">
        <ele>867.2</ele>
        <time>2021-08-20T14:25:10Z</time>
      </trkpt>
      <trkpt lat="44.26563" lon="2.93676">
        <ele>867</ele>
        <time>2021-08-20T14:25:11Z</time>
      </trkpt>
      <trkpt lat="44.26567" lon="2.93672">
        <ele>866.8</ele>
        <time>2021-08-20T14:25:12Z</time>
      </trkpt>
      <trkpt lat="44.2657" lon="2.93668">
        <ele>866.6</ele>
        <time>2021-08-20T14:25:13Z</time>
      </trkpt>
      <trkpt lat="44.26573" lon="2.93664">
        <ele>866.4</ele>
        <time>2021-08-20T14:25:14Z</time>
      </trkpt>
      <trkpt lat="44.26576" lon="2.93661">
        <ele>866.2</ele>
        <time>2021-08-20T14:25:15Z</time>
      </trkpt>
      <trkpt lat="44.2658" lon="2.93658">
        <ele>865.8</ele>
        <time>2021-08-20T14:25:16Z</time>
      </trkpt>
      <trkpt lat="44.26582" lon="2.93656">
        <ele>865.4</ele>
        <time>2021-08-20T14:25:17Z</time>
      </trkpt>
      <trkpt lat="44.26584" lon="2.93654">
        <ele>865</ele>
        <time>2021-08-20T14:25:18Z</time>
      </trkpt>
      <trkpt lat="44.26586" lon="2.93652">
        <ele>864.6</ele>
        <time>2021-08-20T14:25:19Z</time>
      </trkpt>
      <trkpt lat="44.26588" lon="2.93649">
        <ele>864.4</ele>
        <time>2021-08-20T14:25:20Z</time>
      </trkpt>
      <trkpt lat="44.2659" lon="2.93647">
        <ele>864.2</ele>
        <time>2021-08-20T14:25:21Z</time>
      </trkpt>
      <trkpt lat="44.26602" lon="2.93632">
        <ele>863.2</ele>
        <time>2021-08-20T14:25:26Z</time>
      </trkpt>
      <trkpt lat="44.26605" lon="2.93629">
        <ele>863.2</ele>
        <time>2021-08-20T14:25:27Z</time>
      </trkpt>
      <trkpt lat="44.26607" lon="2.93626">
        <ele>863</ele>
        <time>2021-08-20T14:25:28Z</time>
      </trkpt>
      <trkpt lat="44.26612" lon="2.9362">
        <ele>862.6</ele>
        <time>2021-08-20T14:25:30Z</time>
      </trkpt>
      <trkpt lat="44.26618" lon="2.93614">
        <ele>862</ele>
        <time>2021-08-20T14:25:32Z</time>
      </trkpt>
      <trkpt lat="44.2662" lon="2.93612">
        <ele>861.2</ele>
        <time>2021-08-20T14:25:33Z</time>
      </trkpt>
      <trkpt lat="44.26622" lon="2.9361">
        <ele>861</ele>
        <time>2021-08-20T14:25:34Z</time>
      </trkpt>
      <trkpt lat="44.26624" lon="2.93608">
        <ele>860.4</ele>
        <time>2021-08-20T14:25:35Z</time>
      </trkpt>
      <trkpt lat="44.26625" lon="2.93607">
        <ele>860.2</ele>
        <time>2021-08-20T14:25:36Z</time>
      </trkpt>
      <trkpt lat="44.26627" lon="2.93605">
        <ele>859.8</ele>
        <time>2021-08-20T14:25:37Z</time>
      </trkpt>
      <trkpt lat="44.26635" lon="2.93597">
        <ele>858.8</ele>
        <time>2021-08-20T14:25:41Z</time>
      </trkpt>
      <trkpt lat="44.26636" lon="2.93596">
        <ele>858.2</ele>
        <time>2021-08-20T14:25:42Z</time>
      </trkpt>
      <trkpt lat="44.26638" lon="2.93594">
        <ele>858</ele>
        <time>2021-08-20T14:25:43Z</time>
      </trkpt>
      <trkpt lat="44.26639" lon="2.93593">
        <ele>857.8</ele>
        <time>2021-08-20T14:25:44Z</time>
      </trkpt>
      <trkpt lat="44.26641" lon="2.93591">
        <ele>857.4</ele>
        <time>2021-08-20T14:25:45Z</time>
      </trkpt>
      <trkpt lat="44.2665" lon="2.93582">
        <ele>856.2</ele>
        <time>2021-08-20T14:25:49Z</time>
      </trkpt>
      <trkpt lat="44.26651" lon="2.93579">
        <ele>856</ele>
        <time>2021-08-20T14:25:50Z</time>
      </trkpt>
      <trkpt lat="44.26655" lon="2.93575">
        <ele>855.4</ele>
        <time>2021-08-20T14:25:52Z</time>
      </trkpt>
      <trkpt lat="44.26656" lon="2.93572">
        <ele>855</ele>
        <time>2021-08-20T14:25:53Z</time>
      </trkpt>
      <trkpt lat="44.2666" lon="2.93564">
        <ele>854.2</ele>
        <time>2021-08-20T14:25:56Z</time>
      </trkpt>
      <trkpt lat="44.26661" lon="2.93561">
        <ele>854</ele>
        <time>2021-08-20T14:25:57Z</time>
      </trkpt>
      <trkpt lat="44.26666" lon="2.93554">
        <ele>853.6</ele>
        <time>2021-08-20T14:25:59Z</time>
      </trkpt>
      <trkpt lat="44.26671" lon="2.93549">
        <ele>853.2</ele>
        <time>2021-08-20T14:26:01Z</time>
      </trkpt>
      <trkpt lat="44.26674" lon="2.93547">
        <ele>852.8</ele>
        <time>2021-08-20T14:26:02Z</time>
      </trkpt>
      <trkpt lat="44.26682" lon="2.93544">
        <ele>852.2</ele>
        <time>2021-08-20T14:26:05Z</time>
      </trkpt>
      <trkpt lat="44.26684" lon="2.93543">
        <ele>852</ele>
        <time>2021-08-20T14:26:06Z</time>
      </trkpt>
      <trkpt lat="44.26687" lon="2.93541">
        <ele>851.8</ele>
        <time>2021-08-20T14:26:07Z</time>
      </trkpt>
      <trkpt lat="44.2669" lon="2.9354">
        <ele>851.4</ele>
        <time>2021-08-20T14:26:08Z</time>
      </trkpt>
      <trkpt lat="44.26702" lon="2.93535">
        <ele>851.2</ele>
        <time>2021-08-20T14:26:11Z</time>
      </trkpt>
      <trkpt lat="44.26713" lon="2.9353">
        <ele>850.6</ele>
        <time>2021-08-20T14:26:14Z</time>
      </trkpt>
      <trkpt lat="44.26715" lon="2.93528">
        <ele>850.6</ele>
        <time>2021-08-20T14:26:15Z</time>
      </trkpt>
      <trkpt lat="44.26718" lon="2.93526">
        <ele>850.4</ele>
        <time>2021-08-20T14:26:16Z</time>
      </trkpt>
      <trkpt lat="44.2672" lon="2.93524">
        <ele>850</ele>
        <time>2021-08-20T14:26:17Z</time>
      </trkpt>
      <trkpt lat="44.26722" lon="2.93522">
        <ele>850</ele>
        <time>2021-08-20T14:26:18Z</time>
      </trkpt>
      <trkpt lat="44.26726" lon="2.93518">
        <ele>849.6</ele>
        <time>2021-08-20T14:26:20Z</time>
      </trkpt>
      <trkpt lat="44.26729" lon="2.93515">
        <ele>849.4</ele>
        <time>2021-08-20T14:26:21Z</time>
      </trkpt>
      <trkpt lat="44.26732" lon="2.93513">
        <ele>849.4</ele>
        <time>2021-08-20T14:26:22Z</time>
      </trkpt>
      <trkpt lat="44.26735" lon="2.93511">
        <ele>849.2</ele>
        <time>2021-08-20T14:26:23Z</time>
      </trkpt>
      <trkpt lat="44.26737" lon="2.93509">
        <ele>849.2</ele>
        <time>2021-08-20T14:26:24Z</time>
      </trkpt>
      <trkpt lat="44.26739" lon="2.93507">
        <ele>849</ele>
        <time>2021-08-20T14:26:25Z</time>
      </trkpt>
      <trkpt lat="44.26742" lon="2.93505">
        <ele>849</ele>
        <time>2021-08-20T14:26:26Z</time>
      </trkpt>
      <trkpt lat="44.26743" lon="2.93503">
        <ele>849</ele>
        <time>2021-08-20T14:26:27Z</time>
      </trkpt>
      <trkpt lat="44.26746" lon="2.93502">
        <ele>848.8</ele>
        <time>2021-08-20T14:26:28Z</time>
      </trkpt>
      <trkpt lat="44.26751" lon="2.93497">
        <ele>848.6</ele>
        <time>2021-08-20T14:26:30Z</time>
      </trkpt>
      <trkpt lat="44.2676" lon="2.93489">
        <ele>848.4</ele>
        <time>2021-08-20T14:26:33Z</time>
      </trkpt>
      <trkpt lat="44.26764" lon="2.93484">
        <ele>848.4</ele>
        <time>2021-08-20T14:26:35Z</time>
      </trkpt>
      <trkpt lat="44.26771" lon="2.93476">
        <ele>848</ele>
        <time>2021-08-20T14:26:38Z</time>
      </trkpt>
      <trkpt lat="44.26773" lon="2.93473">
        <ele>847.8</ele>
        <time>2021-08-20T14:26:39Z</time>
      </trkpt>
      <trkpt lat="44.26774" lon="2.93471">
        <ele>847.6</ele>
        <time>2021-08-20T14:26:40Z</time>
      </trkpt>
      <trkpt lat="44.26776" lon="2.93469">
        <ele>847.4</ele>
        <time>2021-08-20T14:26:41Z</time>
      </trkpt>
      <trkpt lat="44.26777" lon="2.93467">
        <ele>847.2</ele>
        <time>2021-08-20T14:26:42Z</time>
      </trkpt>
      <trkpt lat="44.26778" lon="2.93465">
        <ele>847.2</ele>
        <time>2021-08-20T14:26:43Z</time>
      </trkpt>
      <trkpt lat="44.26778" lon="2.93465">
        <ele>846.8</ele>
        <time>2021-08-20T14:27:34Z</time>
      </trkpt>
      <trkpt lat="44.26778" lon="2.93465">
        <ele>846.8</ele>
        <time>2021-08-20T14:27:35Z</time>
      </trkpt>
      <trkpt lat="44.26781" lon="2.93445">
        <ele>846.6</ele>
        <time>2021-08-20T14:27:40Z</time>
      </trkpt>
      <trkpt lat="44.26781" lon="2.9344">
        <ele>846.6</ele>
        <time>2021-08-20T14:27:41Z</time>
      </trkpt>
      <trkpt lat="44.26781" lon="2.93436">
        <ele>846.6</ele>
        <time>2021-08-20T14:27:42Z</time>
      </trkpt>
      <trkpt lat="44.26781" lon="2.93432">
        <ele>846.4</ele>
        <time>2021-08-20T14:27:43Z</time>
      </trkpt>
      <trkpt lat="44.26782" lon="2.93429">
        <ele>846.4</ele>
        <time>2021-08-20T14:27:44Z</time>
      </trkpt>
      <trkpt lat="44.26782" lon="2.93425">
        <ele>846.4</ele>
        <time>2021-08-20T14:27:45Z</time>
      </trkpt>
      <trkpt lat="44.26783" lon="2.93422">
        <ele>846.4</ele>
        <time>2021-08-20T14:27:46Z</time>
      </trkpt>
      <trkpt lat="44.26783" lon="2.93419">
        <ele>846.4</ele>
        <time>2021-08-20T14:27:47Z</time>
      </trkpt>
      <trkpt lat="44.26783" lon="2.93416">
        <ele>846.4</ele>
        <time>2021-08-20T14:27:48Z</time>
      </trkpt>
      <trkpt lat="44.26784" lon="2.93413">
        <ele>846.2</ele>
        <time>2021-08-20T14:27:49Z</time>
      </trkpt>
      <trkpt lat="44.26784" lon="2.93411">
        <ele>846.2</ele>
        <time>2021-08-20T14:27:50Z</time>
      </trkpt>
      <trkpt lat="44.26784" lon="2.93408">
        <ele>846.2</ele>
        <time>2021-08-20T14:27:51Z</time>
      </trkpt>
      <trkpt lat="44.26785" lon="2.93406">
        <ele>846.2</ele>
        <time>2021-08-20T14:27:52Z</time>
      </trkpt>
      <trkpt lat="44.26785" lon="2.93404">
        <ele>846.4</ele>
        <time>2021-08-20T14:27:53Z</time>
      </trkpt>
      <trkpt lat="44.26785" lon="2.93402">
        <ele>846.4</ele>
        <time>2021-08-20T14:27:54Z</time>
      </trkpt>
      <trkpt lat="44.26786" lon="2.934">
        <ele>846.4</ele>
        <time>2021-08-20T14:27:55Z</time>
      </trkpt>
      <trkpt lat="44.26786" lon="2.93398">
        <ele>846.6</ele>
        <time>2021-08-20T14:27:56Z</time>
      </trkpt>
      <trkpt lat="44.26786" lon="2.93396">
        <ele>846.6</ele>
        <time>2021-08-20T14:27:57Z</time>
      </trkpt>
      <trkpt lat="44.26788" lon="2.93393">
        <ele>846.6</ele>
        <time>2021-08-20T14:27:58Z</time>
      </trkpt>
      <trkpt lat="44.26788" lon="2.93391">
        <ele>846.6</ele>
        <time>2021-08-20T14:27:59Z</time>
      </trkpt>
      <trkpt lat="44.2679" lon="2.93388">
        <ele>846.6</ele>
        <time>2021-08-20T14:28:00Z</time>
      </trkpt>
      <trkpt lat="44.26791" lon="2.93385">
        <ele>846.8</ele>
        <time>2021-08-20T14:28:01Z</time>
      </trkpt>
      <trkpt lat="44.26793" lon="2.93373">
        <ele>847.2</ele>
        <time>2021-08-20T14:28:06Z</time>
      </trkpt>
      <trkpt lat="44.26793" lon="2.93372">
        <ele>847.2</ele>
        <time>2021-08-20T14:28:07Z</time>
      </trkpt>
      <trkpt lat="44.26793" lon="2.93372">
        <ele>847.2</ele>
        <time>2021-08-20T14:28:08Z</time>
      </trkpt>
      <trkpt lat="44.26793" lon="2.93371">
        <ele>847.4</ele>
        <time>2021-08-20T14:28:09Z</time>
      </trkpt>
      <trkpt lat="44.26794" lon="2.93369">
        <ele>847.4</ele>
        <time>2021-08-20T14:28:10Z</time>
      </trkpt>
      <trkpt lat="44.26794" lon="2.93368">
        <ele>847.6</ele>
        <time>2021-08-20T14:28:11Z</time>
      </trkpt>
      <trkpt lat="44.26795" lon="2.93363">
        <ele>847.6</ele>
        <time>2021-08-20T14:28:13Z</time>
      </trkpt>
      <trkpt lat="44.26796" lon="2.9336">
        <ele>847.6</ele>
        <time>2021-08-20T14:28:14Z</time>
      </trkpt>
      <trkpt lat="44.26798" lon="2.93354">
        <ele>847.8</ele>
        <time>2021-08-20T14:28:16Z</time>
      </trkpt>
      <trkpt lat="44.26802" lon="2.93344">
        <ele>848.2</ele>
        <time>2021-08-20T14:28:19Z</time>
      </trkpt>
      <trkpt lat="44.26804" lon="2.93341">
        <ele>848.4</ele>
        <time>2021-08-20T14:28:20Z</time>
      </trkpt>
      <trkpt lat="44.26808" lon="2.93335">
        <ele>848.6</ele>
        <time>2021-08-20T14:28:22Z</time>
      </trkpt>
      <trkpt lat="44.2682" lon="2.93318">
        <ele>849</ele>
        <time>2021-08-20T14:28:27Z</time>
      </trkpt>
      <trkpt lat="44.26835" lon="2.93295">
        <ele>849.8</ele>
        <time>2021-08-20T14:28:33Z</time>
      </trkpt>
      <trkpt lat="44.26837" lon="2.93292">
        <ele>850</ele>
        <time>2021-08-20T14:28:34Z</time>
      </trkpt>
      <trkpt lat="44.26843" lon="2.93284">
        <ele>850.2</ele>
        <time>2021-08-20T14:28:36Z</time>
      </trkpt>
      <trkpt lat="44.26845" lon="2.9328">
        <ele>850.4</ele>
        <time>2021-08-20T14:28:37Z</time>
      </trkpt>
      <trkpt lat="44.26847" lon="2.93277">
        <ele>850.6</ele>
        <time>2021-08-20T14:28:38Z</time>
      </trkpt>
      <trkpt lat="44.2685" lon="2.93274">
        <ele>850.8</ele>
        <time>2021-08-20T14:28:39Z</time>
      </trkpt>
      <trkpt lat="44.26852" lon="2.93271">
        <ele>851</ele>
        <time>2021-08-20T14:28:40Z</time>
      </trkpt>
      <trkpt lat="44.26855" lon="2.93269">
        <ele>851.2</ele>
        <time>2021-08-20T14:28:41Z</time>
      </trkpt>
      <trkpt lat="44.26857" lon="2.93266">
        <ele>851.2</ele>
        <time>2021-08-20T14:28:42Z</time>
      </trkpt>
      <trkpt lat="44.2686" lon="2.93264">
        <ele>851.6</ele>
        <time>2021-08-20T14:28:43Z</time>
      </trkpt>
      <trkpt lat="44.26862" lon="2.93262">
        <ele>851.6</ele>
        <time>2021-08-20T14:28:44Z</time>
      </trkpt>
      <trkpt lat="44.26864" lon="2.9326">
        <ele>852</ele>
        <time>2021-08-20T14:28:45Z</time>
      </trkpt>
      <trkpt lat="44.26866" lon="2.93258">
        <ele>852</ele>
        <time>2021-08-20T14:28:46Z</time>
      </trkpt>
      <trkpt lat="44.26868" lon="2.93256">
        <ele>852.2</ele>
        <time>2021-08-20T14:28:47Z</time>
      </trkpt>
      <trkpt lat="44.2687" lon="2.93255">
        <ele>852.2</ele>
        <time>2021-08-20T14:28:48Z</time>
      </trkpt>
      <trkpt lat="44.26872" lon="2.93254">
        <ele>852.4</ele>
        <time>2021-08-20T14:28:49Z</time>
      </trkpt>
      <trkpt lat="44.26874" lon="2.93253">
        <ele>852.6</ele>
        <time>2021-08-20T14:28:50Z</time>
      </trkpt>
      <trkpt lat="44.26876" lon="2.93252">
        <ele>852.6</ele>
        <time>2021-08-20T14:28:51Z</time>
      </trkpt>
      <trkpt lat="44.26878" lon="2.9325">
        <ele>852.8</ele>
        <time>2021-08-20T14:28:52Z</time>
      </trkpt>
      <trkpt lat="44.26879" lon="2.93247">
        <ele>853</ele>
        <time>2021-08-20T14:28:53Z</time>
      </trkpt>
      <trkpt lat="44.26881" lon="2.93244">
        <ele>853.6</ele>
        <time>2021-08-20T14:28:54Z</time>
      </trkpt>
      <trkpt lat="44.26883" lon="2.93241">
        <ele>853.8</ele>
        <time>2021-08-20T14:28:55Z</time>
      </trkpt>
      <trkpt lat="44.26885" lon="2.93239">
        <ele>854</ele>
        <time>2021-08-20T14:28:56Z</time>
      </trkpt>
      <trkpt lat="44.26887" lon="2.93237">
        <ele>854.2</ele>
        <time>2021-08-20T14:28:57Z</time>
      </trkpt>
      <trkpt lat="44.26889" lon="2.93235">
        <ele>854.2</ele>
        <time>2021-08-20T14:28:58Z</time>
      </trkpt>
      <trkpt lat="44.2689" lon="2.93232">
        <ele>854.6</ele>
        <time>2021-08-20T14:28:59Z</time>
      </trkpt>
      <trkpt lat="44.26891" lon="2.93231">
        <ele>854.8</ele>
        <time>2021-08-20T14:29:00Z</time>
      </trkpt>
      <trkpt lat="44.26892" lon="2.93229">
        <ele>855.2</ele>
        <time>2021-08-20T14:29:01Z</time>
      </trkpt>
      <trkpt lat="44.26893" lon="2.93228">
        <ele>855.6</ele>
        <time>2021-08-20T14:29:02Z</time>
      </trkpt>
      <trkpt lat="44.26894" lon="2.93226">
        <ele>856</ele>
        <time>2021-08-20T14:29:03Z</time>
      </trkpt>
      <trkpt lat="44.26895" lon="2.93224">
        <ele>856.2</ele>
        <time>2021-08-20T14:29:04Z</time>
      </trkpt>
      <trkpt lat="44.26895" lon="2.93222">
        <ele>856.4</ele>
        <time>2021-08-20T14:29:05Z</time>
      </trkpt>
      <trkpt lat="44.26896" lon="2.9322">
        <ele>856.6</ele>
        <time>2021-08-20T14:29:06Z</time>
      </trkpt>
      <trkpt lat="44.26897" lon="2.93218">
        <ele>856.6</ele>
        <time>2021-08-20T14:29:07Z</time>
      </trkpt>
      <trkpt lat="44.26898" lon="2.93215">
        <ele>856.8</ele>
        <time>2021-08-20T14:29:08Z</time>
      </trkpt>
      <trkpt lat="44.26899" lon="2.93214">
        <ele>856.8</ele>
        <time>2021-08-20T14:29:09Z</time>
      </trkpt>
      <trkpt lat="44.269" lon="2.93212">
        <ele>857.2</ele>
        <time>2021-08-20T14:29:10Z</time>
      </trkpt>
      <trkpt lat="44.26901" lon="2.9321">
        <ele>857.4</ele>
        <time>2021-08-20T14:29:11Z</time>
      </trkpt>
      <trkpt lat="44.26902" lon="2.93208">
        <ele>857.8</ele>
        <time>2021-08-20T14:29:12Z</time>
      </trkpt>
      <trkpt lat="44.26903" lon="2.93207">
        <ele>858</ele>
        <time>2021-08-20T14:29:13Z</time>
      </trkpt>
      <trkpt lat="44.26904" lon="2.93205">
        <ele>858.2</ele>
        <time>2021-08-20T14:29:14Z</time>
      </trkpt>
      <trkpt lat="44.26905" lon="2.93203">
        <ele>858.4</ele>
        <time>2021-08-20T14:29:15Z</time>
      </trkpt>
      <trkpt lat="44.26906" lon="2.93202">
        <ele>858.4</ele>
        <time>2021-08-20T14:29:16Z</time>
      </trkpt>
      <trkpt lat="44.26907" lon="2.93201">
        <ele>858.8</ele>
        <time>2021-08-20T14:29:17Z</time>
      </trkpt>
      <trkpt lat="44.26908" lon="2.932">
        <ele>859</ele>
        <time>2021-08-20T14:29:18Z</time>
      </trkpt>
      <trkpt lat="44.26909" lon="2.93198">
        <ele>859.4</ele>
        <time>2021-08-20T14:29:19Z</time>
      </trkpt>
      <trkpt lat="44.2691" lon="2.93197">
        <ele>859.6</ele>
        <time>2021-08-20T14:29:20Z</time>
      </trkpt>
      <trkpt lat="44.26911" lon="2.93196">
        <ele>859.8</ele>
        <time>2021-08-20T14:29:21Z</time>
      </trkpt>
      <trkpt lat="44.26912" lon="2.93195">
        <ele>860</ele>
        <time>2021-08-20T14:29:22Z</time>
      </trkpt>
      <trkpt lat="44.26912" lon="2.93194">
        <ele>860</ele>
        <time>2021-08-20T14:29:23Z</time>
      </trkpt>
      <trkpt lat="44.26913" lon="2.93193">
        <ele>860.2</ele>
        <time>2021-08-20T14:29:24Z</time>
      </trkpt>
      <trkpt lat="44.26914" lon="2.93192">
        <ele>860.4</ele>
        <time>2021-08-20T14:29:25Z</time>
      </trkpt>
      <trkpt lat="44.26915" lon="2.93191">
        <ele>860.6</ele>
        <time>2021-08-20T14:29:26Z</time>
      </trkpt>
      <trkpt lat="44.26915" lon="2.9319">
        <ele>860.8</ele>
        <time>2021-08-20T14:29:27Z</time>
      </trkpt>
      <trkpt lat="44.26916" lon="2.93189">
        <ele>861</ele>
        <time>2021-08-20T14:29:28Z</time>
      </trkpt>
      <trkpt lat="44.26917" lon="2.93188">
        <ele>861</ele>
        <time>2021-08-20T14:29:29Z</time>
      </trkpt>
      <trkpt lat="44.26919" lon="2.93187">
        <ele>861.2</ele>
        <time>2021-08-20T14:29:30Z</time>
      </trkpt>
      <trkpt lat="44.2692" lon="2.93186">
        <ele>861.4</ele>
        <time>2021-08-20T14:29:31Z</time>
      </trkpt>
      <trkpt lat="44.26921" lon="2.93184">
        <ele>861.4</ele>
        <time>2021-08-20T14:29:32Z</time>
      </trkpt>
      <trkpt lat="44.26922" lon="2.93183">
        <ele>861.6</ele>
        <time>2021-08-20T14:29:33Z</time>
      </trkpt>
      <trkpt lat="44.26923" lon="2.93181">
        <ele>861.8</ele>
        <time>2021-08-20T14:29:34Z</time>
      </trkpt>
      <trkpt lat="44.26924" lon="2.93179">
        <ele>861.8</ele>
        <time>2021-08-20T14:29:35Z</time>
      </trkpt>
      <trkpt lat="44.26925" lon="2.93178">
        <ele>862</ele>
        <time>2021-08-20T14:29:36Z</time>
      </trkpt>
      <trkpt lat="44.26926" lon="2.93177">
        <ele>862</ele>
        <time>2021-08-20T14:29:37Z</time>
      </trkpt>
      <trkpt lat="44.26927" lon="2.93176">
        <ele>862</ele>
        <time>2021-08-20T14:29:38Z</time>
      </trkpt>
      <trkpt lat="44.26929" lon="2.93175">
        <ele>862.2</ele>
        <time>2021-08-20T14:29:39Z</time>
      </trkpt>
      <trkpt lat="44.2693" lon="2.93173">
        <ele>862.2</ele>
        <time>2021-08-20T14:29:40Z</time>
      </trkpt>
      <trkpt lat="44.26931" lon="2.93172">
        <ele>862.4</ele>
        <time>2021-08-20T14:29:41Z</time>
      </trkpt>
      <trkpt lat="44.26932" lon="2.93171">
        <ele>862.6</ele>
        <time>2021-08-20T14:29:42Z</time>
      </trkpt>
      <trkpt lat="44.26933" lon="2.9317">
        <ele>862.6</ele>
        <time>2021-08-20T14:29:43Z</time>
      </trkpt>
      <trkpt lat="44.26934" lon="2.93168">
        <ele>862.8</ele>
        <time>2021-08-20T14:29:44Z</time>
      </trkpt>
      <trkpt lat="44.26935" lon="2.93168">
        <ele>862.8</ele>
        <time>2021-08-20T14:29:45Z</time>
      </trkpt>
      <trkpt lat="44.26935" lon="2.93166">
        <ele>863</ele>
        <time>2021-08-20T14:29:46Z</time>
      </trkpt>
      <trkpt lat="44.26936" lon="2.93165">
        <ele>863.2</ele>
        <time>2021-08-20T14:29:47Z</time>
      </trkpt>
      <trkpt lat="44.26937" lon="2.93163">
        <ele>863.4</ele>
        <time>2021-08-20T14:29:48Z</time>
      </trkpt>
      <trkpt lat="44.26938" lon="2.93162">
        <ele>863.6</ele>
        <time>2021-08-20T14:29:49Z</time>
      </trkpt>
      <trkpt lat="44.26939" lon="2.9316">
        <ele>863.8</ele>
        <time>2021-08-20T14:29:50Z</time>
      </trkpt>
      <trkpt lat="44.2694" lon="2.93158">
        <ele>864</ele>
        <time>2021-08-20T14:29:51Z</time>
      </trkpt>
      <trkpt lat="44.26941" lon="2.93157">
        <ele>864</ele>
        <time>2021-08-20T14:29:52Z</time>
      </trkpt>
      <trkpt lat="44.26942" lon="2.93155">
        <ele>864.2</ele>
        <time>2021-08-20T14:29:53Z</time>
      </trkpt>
      <trkpt lat="44.26943" lon="2.93153">
        <ele>864.4</ele>
        <time>2021-08-20T14:29:54Z</time>
      </trkpt>
      <trkpt lat="44.26944" lon="2.93152">
        <ele>864.4</ele>
        <time>2021-08-20T14:29:55Z</time>
      </trkpt>
      <trkpt lat="44.26945" lon="2.9315">
        <ele>864.6</ele>
        <time>2021-08-20T14:29:56Z</time>
      </trkpt>
      <trkpt lat="44.26945" lon="2.93149">
        <ele>864.6</ele>
        <time>2021-08-20T14:29:57Z</time>
      </trkpt>
      <trkpt lat="44.26946" lon="2.93147">
        <ele>864.8</ele>
        <time>2021-08-20T14:29:58Z</time>
      </trkpt>
      <trkpt lat="44.26947" lon="2.93145">
        <ele>864.8</ele>
        <time>2021-08-20T14:29:59Z</time>
      </trkpt>
      <trkpt lat="44.26948" lon="2.93144">
        <ele>865</ele>
        <time>2021-08-20T14:30:00Z</time>
      </trkpt>
      <trkpt lat="44.26949" lon="2.93142">
        <ele>865</ele>
        <time>2021-08-20T14:30:01Z</time>
      </trkpt>
      <trkpt lat="44.2695" lon="2.9314">
        <ele>865</ele>
        <time>2021-08-20T14:30:02Z</time>
      </trkpt>
      <trkpt lat="44.2695" lon="2.93139">
        <ele>865.2</ele>
        <time>2021-08-20T14:30:03Z</time>
      </trkpt>
      <trkpt lat="44.26951" lon="2.93137">
        <ele>865.4</ele>
        <time>2021-08-20T14:30:04Z</time>
      </trkpt>
      <trkpt lat="44.26952" lon="2.93135">
        <ele>865.4</ele>
        <time>2021-08-20T14:30:05Z</time>
      </trkpt>
      <trkpt lat="44.26953" lon="2.93134">
        <ele>865.4</ele>
        <time>2021-08-20T14:30:06Z</time>
      </trkpt>
      <trkpt lat="44.26954" lon="2.93132">
        <ele>865.6</ele>
        <time>2021-08-20T14:30:07Z</time>
      </trkpt>
      <trkpt lat="44.26955" lon="2.9313">
        <ele>865.6</ele>
        <time>2021-08-20T14:30:08Z</time>
      </trkpt>
      <trkpt lat="44.26955" lon="2.93129">
        <ele>865.8</ele>
        <time>2021-08-20T14:30:09Z</time>
      </trkpt>
      <trkpt lat="44.26956" lon="2.93127">
        <ele>865.8</ele>
        <time>2021-08-20T14:30:10Z</time>
      </trkpt>
      <trkpt lat="44.26958" lon="2.93125">
        <ele>865.8</ele>
        <time>2021-08-20T14:30:11Z</time>
      </trkpt>
      <trkpt lat="44.26959" lon="2.93124">
        <ele>866</ele>
        <time>2021-08-20T14:30:12Z</time>
      </trkpt>
      <trkpt lat="44.2696" lon="2.93123">
        <ele>866</ele>
        <time>2021-08-20T14:30:13Z</time>
      </trkpt>
      <trkpt lat="44.26961" lon="2.93121">
        <ele>866.2</ele>
        <time>2021-08-20T14:30:14Z</time>
      </trkpt>
      <trkpt lat="44.26962" lon="2.9312">
        <ele>866.4</ele>
        <time>2021-08-20T14:30:15Z</time>
      </trkpt>
      <trkpt lat="44.26964" lon="2.93119">
        <ele>866.6</ele>
        <time>2021-08-20T14:30:16Z</time>
      </trkpt>
      <trkpt lat="44.26965" lon="2.93118">
        <ele>866.6</ele>
        <time>2021-08-20T14:30:17Z</time>
      </trkpt>
      <trkpt lat="44.26966" lon="2.93116">
        <ele>866.8</ele>
        <time>2021-08-20T14:30:18Z</time>
      </trkpt>
      <trkpt lat="44.26967" lon="2.93115">
        <ele>867</ele>
        <time>2021-08-20T14:30:19Z</time>
      </trkpt>
      <trkpt lat="44.26968" lon="2.93114">
        <ele>867.2</ele>
        <time>2021-08-20T14:30:20Z</time>
      </trkpt>
      <trkpt lat="44.2697" lon="2.93113">
        <ele>867.2</ele>
        <time>2021-08-20T14:30:21Z</time>
      </trkpt>
      <trkpt lat="44.26971" lon="2.93111">
        <ele>867.2</ele>
        <time>2021-08-20T14:30:22Z</time>
      </trkpt>
      <trkpt lat="44.26972" lon="2.9311">
        <ele>867.6</ele>
        <time>2021-08-20T14:30:23Z</time>
      </trkpt>
      <trkpt lat="44.26973" lon="2.93109">
        <ele>867.6</ele>
        <time>2021-08-20T14:30:24Z</time>
      </trkpt>
      <trkpt lat="44.26974" lon="2.93108">
        <ele>867.8</ele>
        <time>2021-08-20T14:30:25Z</time>
      </trkpt>
      <trkpt lat="44.26975" lon="2.93106">
        <ele>867.8</ele>
        <time>2021-08-20T14:30:26Z</time>
      </trkpt>
      <trkpt lat="44.26976" lon="2.93105">
        <ele>868</ele>
        <time>2021-08-20T14:30:27Z</time>
      </trkpt>
      <trkpt lat="44.26977" lon="2.93103">
        <ele>868.2</ele>
        <time>2021-08-20T14:30:28Z</time>
      </trkpt>
      <trkpt lat="44.26978" lon="2.93102">
        <ele>868.4</ele>
        <time>2021-08-20T14:30:29Z</time>
      </trkpt>
      <trkpt lat="44.26979" lon="2.93101">
        <ele>868.6</ele>
        <time>2021-08-20T14:30:30Z</time>
      </trkpt>
      <trkpt lat="44.2698" lon="2.93099">
        <ele>868.8</ele>
        <time>2021-08-20T14:30:31Z</time>
      </trkpt>
      <trkpt lat="44.2698" lon="2.93098">
        <ele>868.8</ele>
        <time>2021-08-20T14:30:32Z</time>
      </trkpt>
      <trkpt lat="44.26981" lon="2.93097">
        <ele>868.8</ele>
        <time>2021-08-20T14:30:33Z</time>
      </trkpt>
      <trkpt lat="44.26982" lon="2.93095">
        <ele>869</ele>
        <time>2021-08-20T14:30:34Z</time>
      </trkpt>
      <trkpt lat="44.26983" lon="2.93094">
        <ele>869.2</ele>
        <time>2021-08-20T14:30:35Z</time>
      </trkpt>
      <trkpt lat="44.26984" lon="2.93093">
        <ele>869.2</ele>
        <time>2021-08-20T14:30:36Z</time>
      </trkpt>
      <trkpt lat="44.26984" lon="2.93092">
        <ele>869.4</ele>
        <time>2021-08-20T14:30:37Z</time>
      </trkpt>
      <trkpt lat="44.26985" lon="2.9309">
        <ele>869.4</ele>
        <time>2021-08-20T14:30:38Z</time>
      </trkpt>
      <trkpt lat="44.26987" lon="2.93089">
        <ele>869.6</ele>
        <time>2021-08-20T14:30:39Z</time>
      </trkpt>
      <trkpt lat="44.26988" lon="2.93088">
        <ele>869.6</ele>
        <time>2021-08-20T14:30:40Z</time>
      </trkpt>
      <trkpt lat="44.26989" lon="2.93087">
        <ele>869.8</ele>
        <time>2021-08-20T14:30:41Z</time>
      </trkpt>
      <trkpt lat="44.26989" lon="2.93085">
        <ele>869.8</ele>
        <time>2021-08-20T14:30:42Z</time>
      </trkpt>
      <trkpt lat="44.2699" lon="2.93084">
        <ele>870</ele>
        <time>2021-08-20T14:30:43Z</time>
      </trkpt>
      <trkpt lat="44.26992" lon="2.93083">
        <ele>870.2</ele>
        <time>2021-08-20T14:30:44Z</time>
      </trkpt>
      <trkpt lat="44.26993" lon="2.93081">
        <ele>870.2</ele>
        <time>2021-08-20T14:30:45Z</time>
      </trkpt>
      <trkpt lat="44.26994" lon="2.9308">
        <ele>870.4</ele>
        <time>2021-08-20T14:30:46Z</time>
      </trkpt>
      <trkpt lat="44.26995" lon="2.93079">
        <ele>870.6</ele>
        <time>2021-08-20T14:30:47Z</time>
      </trkpt>
      <trkpt lat="44.26996" lon="2.93077">
        <ele>871</ele>
        <time>2021-08-20T14:30:48Z</time>
      </trkpt>
      <trkpt lat="44.26997" lon="2.93076">
        <ele>871</ele>
        <time>2021-08-20T14:30:49Z</time>
      </trkpt>
      <trkpt lat="44.26998" lon="2.93074">
        <ele>871.2</ele>
        <time>2021-08-20T14:30:50Z</time>
      </trkpt>
      <trkpt lat="44.26999" lon="2.93072">
        <ele>871.4</ele>
        <time>2021-08-20T14:30:51Z</time>
      </trkpt>
      <trkpt lat="44.27" lon="2.93071">
        <ele>871.4</ele>
        <time>2021-08-20T14:30:52Z</time>
      </trkpt>
      <trkpt lat="44.27001" lon="2.9307">
        <ele>871.6</ele>
        <time>2021-08-20T14:30:53Z</time>
      </trkpt>
      <trkpt lat="44.27003" lon="2.93069">
        <ele>871.8</ele>
        <time>2021-08-20T14:30:54Z</time>
      </trkpt>
      <trkpt lat="44.27004" lon="2.93067">
        <ele>872</ele>
        <time>2021-08-20T14:30:55Z</time>
      </trkpt>
      <trkpt lat="44.27005" lon="2.93066">
        <ele>872</ele>
        <time>2021-08-20T14:30:56Z</time>
      </trkpt>
      <trkpt lat="44.27006" lon="2.93064">
        <ele>872</ele>
        <time>2021-08-20T14:30:57Z</time>
      </trkpt>
      <trkpt lat="44.27006" lon="2.93063">
        <ele>872.2</ele>
        <time>2021-08-20T14:30:58Z</time>
      </trkpt>
      <trkpt lat="44.27007" lon="2.93061">
        <ele>872.2</ele>
        <time>2021-08-20T14:30:59Z</time>
      </trkpt>
      <trkpt lat="44.27008" lon="2.93059">
        <ele>872.4</ele>
        <time>2021-08-20T14:31:00Z</time>
      </trkpt>
      <trkpt lat="44.27009" lon="2.93058">
        <ele>872.6</ele>
        <time>2021-08-20T14:31:01Z</time>
      </trkpt>
      <trkpt lat="44.2701" lon="2.93057">
        <ele>872.6</ele>
        <time>2021-08-20T14:31:02Z</time>
      </trkpt>
      <trkpt lat="44.27011" lon="2.93055">
        <ele>872.8</ele>
        <time>2021-08-20T14:31:03Z</time>
      </trkpt>
      <trkpt lat="44.27012" lon="2.93053">
        <ele>873</ele>
        <time>2021-08-20T14:31:04Z</time>
      </trkpt>
      <trkpt lat="44.27012" lon="2.93052">
        <ele>873</ele>
        <time>2021-08-20T14:31:05Z</time>
      </trkpt>
      <trkpt lat="44.27013" lon="2.9305">
        <ele>873.4</ele>
        <time>2021-08-20T14:31:06Z</time>
      </trkpt>
      <trkpt lat="44.27014" lon="2.93049">
        <ele>873.6</ele>
        <time>2021-08-20T14:31:07Z</time>
      </trkpt>
      <trkpt lat="44.27015" lon="2.93048">
        <ele>873.6</ele>
        <time>2021-08-20T14:31:08Z</time>
      </trkpt>
      <trkpt lat="44.27016" lon="2.93046">
        <ele>873.8</ele>
        <time>2021-08-20T14:31:09Z</time>
      </trkpt>
      <trkpt lat="44.27017" lon="2.93045">
        <ele>873.8</ele>
        <time>2021-08-20T14:31:10Z</time>
      </trkpt>
      <trkpt lat="44.27018" lon="2.93043">
        <ele>874</ele>
        <time>2021-08-20T14:31:11Z</time>
      </trkpt>
      <trkpt lat="44.27019" lon="2.93041">
        <ele>874</ele>
        <time>2021-08-20T14:31:12Z</time>
      </trkpt>
      <trkpt lat="44.2702" lon="2.93039">
        <ele>874.2</ele>
        <time>2021-08-20T14:31:13Z</time>
      </trkpt>
      <trkpt lat="44.27021" lon="2.93038">
        <ele>874.4</ele>
        <time>2021-08-20T14:31:14Z</time>
      </trkpt>
      <trkpt lat="44.27021" lon="2.93036">
        <ele>874.6</ele>
        <time>2021-08-20T14:31:15Z</time>
      </trkpt>
      <trkpt lat="44.27022" lon="2.93035">
        <ele>874.6</ele>
        <time>2021-08-20T14:31:16Z</time>
      </trkpt>
      <trkpt lat="44.27023" lon="2.93033">
        <ele>874.8</ele>
        <time>2021-08-20T14:31:17Z</time>
      </trkpt>
      <trkpt lat="44.27024" lon="2.93032">
        <ele>874.8</ele>
        <time>2021-08-20T14:31:18Z</time>
      </trkpt>
      <trkpt lat="44.27024" lon="2.9303">
        <ele>875</ele>
        <time>2021-08-20T14:31:19Z</time>
      </trkpt>
      <trkpt lat="44.27025" lon="2.93029">
        <ele>875.2</ele>
        <time>2021-08-20T14:31:20Z</time>
      </trkpt>
      <trkpt lat="44.27026" lon="2.93027">
        <ele>875.2</ele>
        <time>2021-08-20T14:31:21Z</time>
      </trkpt>
      <trkpt lat="44.27026" lon="2.93025">
        <ele>875.4</ele>
        <time>2021-08-20T14:31:22Z</time>
      </trkpt>
      <trkpt lat="44.27027" lon="2.93024">
        <ele>875.6</ele>
        <time>2021-08-20T14:31:23Z</time>
      </trkpt>
      <trkpt lat="44.27028" lon="2.93022">
        <ele>875.8</ele>
        <time>2021-08-20T14:31:24Z</time>
      </trkpt>
      <trkpt lat="44.27029" lon="2.93021">
        <ele>876</ele>
        <time>2021-08-20T14:31:25Z</time>
      </trkpt>
      <trkpt lat="44.2703" lon="2.93019">
        <ele>876</ele>
        <time>2021-08-20T14:31:26Z</time>
      </trkpt>
      <trkpt lat="44.27031" lon="2.93018">
        <ele>876</ele>
        <time>2021-08-20T14:31:27Z</time>
      </trkpt>
      <trkpt lat="44.27032" lon="2.93018">
        <ele>876.2</ele>
        <time>2021-08-20T14:31:28Z</time>
      </trkpt>
      <trkpt lat="44.27033" lon="2.93017">
        <ele>876.2</ele>
        <time>2021-08-20T14:31:29Z</time>
      </trkpt>
      <trkpt lat="44.27034" lon="2.93015">
        <ele>876.2</ele>
        <time>2021-08-20T14:31:30Z</time>
      </trkpt>
      <trkpt lat="44.27035" lon="2.93014">
        <ele>876.4</ele>
        <time>2021-08-20T14:31:31Z</time>
      </trkpt>
      <trkpt lat="44.27036" lon="2.93013">
        <ele>876.4</ele>
        <time>2021-08-20T14:31:32Z</time>
      </trkpt>
      <trkpt lat="44.27037" lon="2.93012">
        <ele>876.4</ele>
        <time>2021-08-20T14:31:33Z</time>
      </trkpt>
      <trkpt lat="44.27038" lon="2.9301">
        <ele>876.4</ele>
        <time>2021-08-20T14:31:34Z</time>
      </trkpt>
      <trkpt lat="44.2704" lon="2.93009">
        <ele>876.4</ele>
        <time>2021-08-20T14:31:35Z</time>
      </trkpt>
      <trkpt lat="44.27041" lon="2.93007">
        <ele>876.6</ele>
        <time>2021-08-20T14:31:36Z</time>
      </trkpt>
      <trkpt lat="44.27042" lon="2.93006">
        <ele>876.6</ele>
        <time>2021-08-20T14:31:37Z</time>
      </trkpt>
      <trkpt lat="44.27044" lon="2.93003">
        <ele>876.8</ele>
        <time>2021-08-20T14:31:38Z</time>
      </trkpt>
      <trkpt lat="44.27044" lon="2.93001">
        <ele>877</ele>
        <time>2021-08-20T14:31:39Z</time>
      </trkpt>
      <trkpt lat="44.27045" lon="2.92998">
        <ele>877.2</ele>
        <time>2021-08-20T14:31:40Z</time>
      </trkpt>
      <trkpt lat="44.27046" lon="2.92996">
        <ele>877.2</ele>
        <time>2021-08-20T14:31:41Z</time>
      </trkpt>
      <trkpt lat="44.27048" lon="2.92994">
        <ele>877.6</ele>
        <time>2021-08-20T14:31:42Z</time>
      </trkpt>
      <trkpt lat="44.27049" lon="2.92992">
        <ele>877.4</ele>
        <time>2021-08-20T14:31:43Z</time>
      </trkpt>
      <trkpt lat="44.2705" lon="2.9299">
        <ele>877.8</ele>
        <time>2021-08-20T14:31:44Z</time>
      </trkpt>
      <trkpt lat="44.27051" lon="2.92988">
        <ele>878</ele>
        <time>2021-08-20T14:31:45Z</time>
      </trkpt>
      <trkpt lat="44.27052" lon="2.92986">
        <ele>878.2</ele>
        <time>2021-08-20T14:31:46Z</time>
      </trkpt>
      <trkpt lat="44.27053" lon="2.92984">
        <ele>878.2</ele>
        <time>2021-08-20T14:31:47Z</time>
      </trkpt>
      <trkpt lat="44.27054" lon="2.92983">
        <ele>878.4</ele>
        <time>2021-08-20T14:31:48Z</time>
      </trkpt>
      <trkpt lat="44.27055" lon="2.92981">
        <ele>878.4</ele>
        <time>2021-08-20T14:31:49Z</time>
      </trkpt>
      <trkpt lat="44.27055" lon="2.92979">
        <ele>878.6</ele>
        <time>2021-08-20T14:31:50Z</time>
      </trkpt>
      <trkpt lat="44.27056" lon="2.92978">
        <ele>878.6</ele>
        <time>2021-08-20T14:31:51Z</time>
      </trkpt>
      <trkpt lat="44.27057" lon="2.92976">
        <ele>879</ele>
        <time>2021-08-20T14:31:52Z</time>
      </trkpt>
      <trkpt lat="44.27058" lon="2.92974">
        <ele>879</ele>
        <time>2021-08-20T14:31:53Z</time>
      </trkpt>
      <trkpt lat="44.27059" lon="2.92973">
        <ele>879.2</ele>
        <time>2021-08-20T14:31:54Z</time>
      </trkpt>
      <trkpt lat="44.2706" lon="2.92972">
        <ele>879.2</ele>
        <time>2021-08-20T14:31:55Z</time>
      </trkpt>
      <trkpt lat="44.2706" lon="2.92971">
        <ele>879.4</ele>
        <time>2021-08-20T14:31:56Z</time>
      </trkpt>
      <trkpt lat="44.27061" lon="2.9297">
        <ele>879.6</ele>
        <time>2021-08-20T14:31:57Z</time>
      </trkpt>
      <trkpt lat="44.27062" lon="2.92969">
        <ele>879.6</ele>
        <time>2021-08-20T14:31:58Z</time>
      </trkpt>
      <trkpt lat="44.27063" lon="2.92967">
        <ele>879.8</ele>
        <time>2021-08-20T14:31:59Z</time>
      </trkpt>
      <trkpt lat="44.27063" lon="2.92966">
        <ele>879.8</ele>
        <time>2021-08-20T14:32:00Z</time>
      </trkpt>
      <trkpt lat="44.27064" lon="2.92964">
        <ele>880</ele>
        <time>2021-08-20T14:32:01Z</time>
      </trkpt>
      <trkpt lat="44.27065" lon="2.92963">
        <ele>880</ele>
        <time>2021-08-20T14:32:02Z</time>
      </trkpt>
      <trkpt lat="44.27066" lon="2.92962">
        <ele>880.2</ele>
        <time>2021-08-20T14:32:03Z</time>
      </trkpt>
      <trkpt lat="44.27067" lon="2.92961">
        <ele>880.2</ele>
        <time>2021-08-20T14:32:04Z</time>
      </trkpt>
      <trkpt lat="44.27068" lon="2.9296">
        <ele>880.4</ele>
        <time>2021-08-20T14:32:05Z</time>
      </trkpt>
      <trkpt lat="44.2707" lon="2.92959">
        <ele>880.4</ele>
        <time>2021-08-20T14:32:06Z</time>
      </trkpt>
      <trkpt lat="44.27071" lon="2.92958">
        <ele>880.4</ele>
        <time>2021-08-20T14:32:07Z</time>
      </trkpt>
      <trkpt lat="44.27072" lon="2.92957">
        <ele>880.6</ele>
        <time>2021-08-20T14:32:08Z</time>
      </trkpt>
      <trkpt lat="44.27074" lon="2.92957">
        <ele>880.8</ele>
        <time>2021-08-20T14:32:09Z</time>
      </trkpt>
      <trkpt lat="44.27076" lon="2.92956">
        <ele>881</ele>
        <time>2021-08-20T14:32:10Z</time>
      </trkpt>
      <trkpt lat="44.27077" lon="2.92955">
        <ele>881.2</ele>
        <time>2021-08-20T14:32:11Z</time>
      </trkpt>
      <trkpt lat="44.27079" lon="2.92954">
        <ele>881.4</ele>
        <time>2021-08-20T14:32:12Z</time>
      </trkpt>
      <trkpt lat="44.2708" lon="2.92953">
        <ele>881.6</ele>
        <time>2021-08-20T14:32:13Z</time>
      </trkpt>
      <trkpt lat="44.27082" lon="2.92951">
        <ele>881.8</ele>
        <time>2021-08-20T14:32:14Z</time>
      </trkpt>
      <trkpt lat="44.27083" lon="2.9295">
        <ele>882</ele>
        <time>2021-08-20T14:32:15Z</time>
      </trkpt>
      <trkpt lat="44.27085" lon="2.92949">
        <ele>882</ele>
        <time>2021-08-20T14:32:16Z</time>
      </trkpt>
      <trkpt lat="44.27086" lon="2.92947">
        <ele>882.2</ele>
        <time>2021-08-20T14:32:17Z</time>
      </trkpt>
      <trkpt lat="44.27087" lon="2.92946">
        <ele>882.2</ele>
        <time>2021-08-20T14:32:18Z</time>
      </trkpt>
      <trkpt lat="44.27089" lon="2.92944">
        <ele>882.4</ele>
        <time>2021-08-20T14:32:19Z</time>
      </trkpt>
      <trkpt lat="44.2709" lon="2.92943">
        <ele>882.6</ele>
        <time>2021-08-20T14:32:20Z</time>
      </trkpt>
      <trkpt lat="44.27091" lon="2.92942">
        <ele>882.6</ele>
        <time>2021-08-20T14:32:21Z</time>
      </trkpt>
      <trkpt lat="44.27092" lon="2.9294">
        <ele>882.8</ele>
        <time>2021-08-20T14:32:22Z</time>
      </trkpt>
      <trkpt lat="44.27093" lon="2.92939">
        <ele>882.8</ele>
        <time>2021-08-20T14:32:23Z</time>
      </trkpt>
      <trkpt lat="44.27095" lon="2.92937">
        <ele>883</ele>
        <time>2021-08-20T14:32:24Z</time>
      </trkpt>
      <trkpt lat="44.27096" lon="2.92936">
        <ele>883</ele>
        <time>2021-08-20T14:32:25Z</time>
      </trkpt>
      <trkpt lat="44.27097" lon="2.92935">
        <ele>883.2</ele>
        <time>2021-08-20T14:32:26Z</time>
      </trkpt>
      <trkpt lat="44.27098" lon="2.92933">
        <ele>883.2</ele>
        <time>2021-08-20T14:32:27Z</time>
      </trkpt>
      <trkpt lat="44.27099" lon="2.92932">
        <ele>883.6</ele>
        <time>2021-08-20T14:32:28Z</time>
      </trkpt>
      <trkpt lat="44.271" lon="2.92931">
        <ele>883.8</ele>
        <time>2021-08-20T14:32:29Z</time>
      </trkpt>
      <trkpt lat="44.27101" lon="2.9293">
        <ele>883.8</ele>
        <time>2021-08-20T14:32:30Z</time>
      </trkpt>
      <trkpt lat="44.27103" lon="2.92929">
        <ele>884</ele>
        <time>2021-08-20T14:32:31Z</time>
      </trkpt>
      <trkpt lat="44.27104" lon="2.92928">
        <ele>884</ele>
        <time>2021-08-20T14:32:32Z</time>
      </trkpt>
      <trkpt lat="44.27105" lon="2.92927">
        <ele>884.2</ele>
        <time>2021-08-20T14:32:33Z</time>
      </trkpt>
      <trkpt lat="44.27106" lon="2.92926">
        <ele>884.2</ele>
        <time>2021-08-20T14:32:34Z</time>
      </trkpt>
      <trkpt lat="44.27107" lon="2.92925">
        <ele>884.4</ele>
        <time>2021-08-20T14:32:35Z</time>
      </trkpt>
      <trkpt lat="44.27109" lon="2.92923">
        <ele>884.6</ele>
        <time>2021-08-20T14:32:36Z</time>
      </trkpt>
      <trkpt lat="44.2711" lon="2.92922">
        <ele>884.6</ele>
        <time>2021-08-20T14:32:37Z</time>
      </trkpt>
      <trkpt lat="44.27111" lon="2.92921">
        <ele>884.8</ele>
        <time>2021-08-20T14:32:38Z</time>
      </trkpt>
      <trkpt lat="44.27112" lon="2.9292">
        <ele>884.8</ele>
        <time>2021-08-20T14:32:39Z</time>
      </trkpt>
      <trkpt lat="44.27113" lon="2.92918">
        <ele>885</ele>
        <time>2021-08-20T14:32:40Z</time>
      </trkpt>
      <trkpt lat="44.27115" lon="2.92917">
        <ele>885.2</ele>
        <time>2021-08-20T14:32:41Z</time>
      </trkpt>
      <trkpt lat="44.27116" lon="2.92916">
        <ele>885.2</ele>
        <time>2021-08-20T14:32:42Z</time>
      </trkpt>
      <trkpt lat="44.27117" lon="2.92914">
        <ele>885.2</ele>
        <time>2021-08-20T14:32:43Z</time>
      </trkpt>
      <trkpt lat="44.27118" lon="2.92913">
        <ele>885.4</ele>
        <time>2021-08-20T14:32:44Z</time>
      </trkpt>
      <trkpt lat="44.2712" lon="2.92912">
        <ele>885.6</ele>
        <time>2021-08-20T14:32:45Z</time>
      </trkpt>
      <trkpt lat="44.27121" lon="2.9291">
        <ele>885.6</ele>
        <time>2021-08-20T14:32:46Z</time>
      </trkpt>
      <trkpt lat="44.27122" lon="2.92909">
        <ele>885.8</ele>
        <time>2021-08-20T14:32:47Z</time>
      </trkpt>
      <trkpt lat="44.27122" lon="2.92907">
        <ele>885.8</ele>
        <time>2021-08-20T14:32:48Z</time>
      </trkpt>
      <trkpt lat="44.27124" lon="2.92906">
        <ele>886</ele>
        <time>2021-08-20T14:32:49Z</time>
      </trkpt>
      <trkpt lat="44.27125" lon="2.92905">
        <ele>886.2</ele>
        <time>2021-08-20T14:32:50Z</time>
      </trkpt>
      <trkpt lat="44.27126" lon="2.92904">
        <ele>886.4</ele>
        <time>2021-08-20T14:32:51Z</time>
      </trkpt>
      <trkpt lat="44.27127" lon="2.92902">
        <ele>886.8</ele>
        <time>2021-08-20T14:32:52Z</time>
      </trkpt>
      <trkpt lat="44.27128" lon="2.92901">
        <ele>886.8</ele>
        <time>2021-08-20T14:32:53Z</time>
      </trkpt>
      <trkpt lat="44.27129" lon="2.92899">
        <ele>887</ele>
        <time>2021-08-20T14:32:54Z</time>
      </trkpt>
      <trkpt lat="44.27129" lon="2.92898">
        <ele>887.2</ele>
        <time>2021-08-20T14:32:55Z</time>
      </trkpt>
      <trkpt lat="44.2713" lon="2.92896">
        <ele>887.2</ele>
        <time>2021-08-20T14:32:56Z</time>
      </trkpt>
      <trkpt lat="44.27131" lon="2.92894">
        <ele>887.2</ele>
        <time>2021-08-20T14:32:57Z</time>
      </trkpt>
      <trkpt lat="44.27132" lon="2.92893">
        <ele>887.6</ele>
        <time>2021-08-20T14:32:58Z</time>
      </trkpt>
      <trkpt lat="44.27132" lon="2.92891">
        <ele>887.6</ele>
        <time>2021-08-20T14:32:59Z</time>
      </trkpt>
      <trkpt lat="44.27133" lon="2.9289">
        <ele>887.8</ele>
        <time>2021-08-20T14:33:00Z</time>
      </trkpt>
      <trkpt lat="44.27134" lon="2.92888">
        <ele>888</ele>
        <time>2021-08-20T14:33:01Z</time>
      </trkpt>
      <trkpt lat="44.27136" lon="2.92887">
        <ele>888</ele>
        <time>2021-08-20T14:33:02Z</time>
      </trkpt>
      <trkpt lat="44.27137" lon="2.92885">
        <ele>888.2</ele>
        <time>2021-08-20T14:33:03Z</time>
      </trkpt>
      <trkpt lat="44.27139" lon="2.92882">
        <ele>888.4</ele>
        <time>2021-08-20T14:33:04Z</time>
      </trkpt>
      <trkpt lat="44.27139" lon="2.92881">
        <ele>888.6</ele>
        <time>2021-08-20T14:33:05Z</time>
      </trkpt>
      <trkpt lat="44.2714" lon="2.92879">
        <ele>888.6</ele>
        <time>2021-08-20T14:33:06Z</time>
      </trkpt>
      <trkpt lat="44.27141" lon="2.92877">
        <ele>888.8</ele>
        <time>2021-08-20T14:33:07Z</time>
      </trkpt>
      <trkpt lat="44.27141" lon="2.92876">
        <ele>889</ele>
        <time>2021-08-20T14:33:08Z</time>
      </trkpt>
      <trkpt lat="44.27142" lon="2.92874">
        <ele>889</ele>
        <time>2021-08-20T14:33:09Z</time>
      </trkpt>
      <trkpt lat="44.27143" lon="2.92873">
        <ele>889.2</ele>
        <time>2021-08-20T14:33:10Z</time>
      </trkpt>
      <trkpt lat="44.27143" lon="2.92871">
        <ele>889.2</ele>
        <time>2021-08-20T14:33:11Z</time>
      </trkpt>
      <trkpt lat="44.27144" lon="2.92869">
        <ele>889.8</ele>
        <time>2021-08-20T14:33:12Z</time>
      </trkpt>
      <trkpt lat="44.27145" lon="2.92868">
        <ele>889.8</ele>
        <time>2021-08-20T14:33:13Z</time>
      </trkpt>
      <trkpt lat="44.27146" lon="2.92867">
        <ele>890.2</ele>
        <time>2021-08-20T14:33:14Z</time>
      </trkpt>
      <trkpt lat="44.27146" lon="2.92865">
        <ele>890.6</ele>
        <time>2021-08-20T14:33:15Z</time>
      </trkpt>
      <trkpt lat="44.27146" lon="2.92865">
        <ele>890.6</ele>
        <time>2021-08-20T14:33:16Z</time>
      </trkpt>
      <trkpt lat="44.27147" lon="2.92864">
        <ele>890.8</ele>
        <time>2021-08-20T14:33:17Z</time>
      </trkpt>
      <trkpt lat="44.27148" lon="2.92863">
        <ele>890.8</ele>
        <time>2021-08-20T14:33:18Z</time>
      </trkpt>
      <trkpt lat="44.27148" lon="2.92861">
        <ele>891</ele>
        <time>2021-08-20T14:33:19Z</time>
      </trkpt>
      <trkpt lat="44.27149" lon="2.9286">
        <ele>891</ele>
        <time>2021-08-20T14:33:20Z</time>
      </trkpt>
      <trkpt lat="44.2715" lon="2.92859">
        <ele>891.2</ele>
        <time>2021-08-20T14:33:21Z</time>
      </trkpt>
      <trkpt lat="44.27151" lon="2.92858">
        <ele>891.2</ele>
        <time>2021-08-20T14:33:22Z</time>
      </trkpt>
      <trkpt lat="44.27152" lon="2.92857">
        <ele>891.2</ele>
        <time>2021-08-20T14:33:23Z</time>
      </trkpt>
      <trkpt lat="44.27153" lon="2.92856">
        <ele>891.4</ele>
        <time>2021-08-20T14:33:24Z</time>
      </trkpt>
      <trkpt lat="44.27154" lon="2.92855">
        <ele>891.6</ele>
        <time>2021-08-20T14:33:25Z</time>
      </trkpt>
      <trkpt lat="44.27156" lon="2.92854">
        <ele>891.6</ele>
        <time>2021-08-20T14:33:26Z</time>
      </trkpt>
      <trkpt lat="44.27157" lon="2.92853">
        <ele>891.6</ele>
        <time>2021-08-20T14:33:27Z</time>
      </trkpt>
      <trkpt lat="44.27159" lon="2.92852">
        <ele>891.8</ele>
        <time>2021-08-20T14:33:28Z</time>
      </trkpt>
      <trkpt lat="44.2716" lon="2.92851">
        <ele>891.8</ele>
        <time>2021-08-20T14:33:29Z</time>
      </trkpt>
      <trkpt lat="44.27161" lon="2.9285">
        <ele>892</ele>
        <time>2021-08-20T14:33:30Z</time>
      </trkpt>
      <trkpt lat="44.27162" lon="2.92848">
        <ele>892</ele>
        <time>2021-08-20T14:33:31Z</time>
      </trkpt>
      <trkpt lat="44.27164" lon="2.92847">
        <ele>892.2</ele>
        <time>2021-08-20T14:33:32Z</time>
      </trkpt>
      <trkpt lat="44.27165" lon="2.92845">
        <ele>892.6</ele>
        <time>2021-08-20T14:33:33Z</time>
      </trkpt>
      <trkpt lat="44.27165" lon="2.92843">
        <ele>892.6</ele>
        <time>2021-08-20T14:33:34Z</time>
      </trkpt>
      <trkpt lat="44.27166" lon="2.92841">
        <ele>892.8</ele>
        <time>2021-08-20T14:33:35Z</time>
      </trkpt>
      <trkpt lat="44.27167" lon="2.9284">
        <ele>893</ele>
        <time>2021-08-20T14:33:36Z</time>
      </trkpt>
      <trkpt lat="44.27167" lon="2.92839">
        <ele>893.4</ele>
        <time>2021-08-20T14:33:37Z</time>
      </trkpt>
      <trkpt lat="44.27167" lon="2.92837">
        <ele>893.6</ele>
        <time>2021-08-20T14:33:38Z</time>
      </trkpt>
      <trkpt lat="44.27167" lon="2.92835">
        <ele>894</ele>
        <time>2021-08-20T14:33:39Z</time>
      </trkpt>
      <trkpt lat="44.27167" lon="2.92833">
        <ele>894.2</ele>
        <time>2021-08-20T14:33:40Z</time>
      </trkpt>
      <trkpt lat="44.27167" lon="2.92832">
        <ele>894.4</ele>
        <time>2021-08-20T14:33:41Z</time>
      </trkpt>
      <trkpt lat="44.27167" lon="2.9283">
        <ele>894.4</ele>
        <time>2021-08-20T14:33:42Z</time>
      </trkpt>
      <trkpt lat="44.27168" lon="2.92828">
        <ele>894.4</ele>
        <time>2021-08-20T14:33:43Z</time>
      </trkpt>
      <trkpt lat="44.27168" lon="2.92827">
        <ele>894.8</ele>
        <time>2021-08-20T14:33:44Z</time>
      </trkpt>
      <trkpt lat="44.27169" lon="2.92825">
        <ele>895</ele>
        <time>2021-08-20T14:33:45Z</time>
      </trkpt>
      <trkpt lat="44.27169" lon="2.92824">
        <ele>895.2</ele>
        <time>2021-08-20T14:33:46Z</time>
      </trkpt>
      <trkpt lat="44.27168" lon="2.92823">
        <ele>895.2</ele>
        <time>2021-08-20T14:33:47Z</time>
      </trkpt>
      <trkpt lat="44.27168" lon="2.92821">
        <ele>895.4</ele>
        <time>2021-08-20T14:33:48Z</time>
      </trkpt>
      <trkpt lat="44.27168" lon="2.92819">
        <ele>895.4</ele>
        <time>2021-08-20T14:33:49Z</time>
      </trkpt>
      <trkpt lat="44.27168" lon="2.92818">
        <ele>895.4</ele>
        <time>2021-08-20T14:33:50Z</time>
      </trkpt>
      <trkpt lat="44.27167" lon="2.92817">
        <ele>895.4</ele>
        <time>2021-08-20T14:33:51Z</time>
      </trkpt>
      <trkpt lat="44.27168" lon="2.92815">
        <ele>894.8</ele>
        <time>2021-08-20T14:35:49Z</time>
      </trkpt>
      <trkpt lat="44.27171" lon="2.92807">
        <ele>894.6</ele>
        <time>2021-08-20T14:35:52Z</time>
      </trkpt>
      <trkpt lat="44.27176" lon="2.92788">
        <ele>894.8</ele>
        <time>2021-08-20T14:35:58Z</time>
      </trkpt>
      <trkpt lat="44.27177" lon="2.92778">
        <ele>895</ele>
        <time>2021-08-20T14:36:01Z</time>
      </trkpt>
      <trkpt lat="44.27178" lon="2.92775">
        <ele>895</ele>
        <time>2021-08-20T14:36:02Z</time>
      </trkpt>
      <trkpt lat="44.27181" lon="2.92765">
        <ele>895.2</ele>
        <time>2021-08-20T14:36:05Z</time>
      </trkpt>
      <trkpt lat="44.27186" lon="2.92747">
        <ele>895.6</ele>
        <time>2021-08-20T14:36:09Z</time>
      </trkpt>
      <trkpt lat="44.27188" lon="2.92741">
        <ele>895.6</ele>
        <time>2021-08-20T14:36:10Z</time>
      </trkpt>
      <trkpt lat="44.2719" lon="2.92735">
        <ele>895.8</ele>
        <time>2021-08-20T14:36:11Z</time>
      </trkpt>
      <trkpt lat="44.27192" lon="2.9273">
        <ele>895.8</ele>
        <time>2021-08-20T14:36:12Z</time>
      </trkpt>
      <trkpt lat="44.27193" lon="2.92724">
        <ele>896</ele>
        <time>2021-08-20T14:36:13Z</time>
      </trkpt>
      <trkpt lat="44.27196" lon="2.92712">
        <ele>896.4</ele>
        <time>2021-08-20T14:36:15Z</time>
      </trkpt>
      <trkpt lat="44.27197" lon="2.92706">
        <ele>896.6</ele>
        <time>2021-08-20T14:36:16Z</time>
      </trkpt>
      <trkpt lat="44.27198" lon="2.927">
        <ele>896.8</ele>
        <time>2021-08-20T14:36:17Z</time>
      </trkpt>
      <trkpt lat="44.27202" lon="2.92669">
        <ele>897.2</ele>
        <time>2021-08-20T14:36:21Z</time>
      </trkpt>
      <trkpt lat="44.27204" lon="2.92652">
        <ele>897.6</ele>
        <time>2021-08-20T14:36:23Z</time>
      </trkpt>
      <trkpt lat="44.27207" lon="2.92633">
        <ele>897.8</ele>
        <time>2021-08-20T14:36:25Z</time>
      </trkpt>
      <trkpt lat="44.27209" lon="2.92625">
        <ele>897.8</ele>
        <time>2021-08-20T14:36:26Z</time>
      </trkpt>
      <trkpt lat="44.27211" lon="2.92617">
        <ele>898</ele>
        <time>2021-08-20T14:36:27Z</time>
      </trkpt>
      <trkpt lat="44.27212" lon="2.92609">
        <ele>898.4</ele>
        <time>2021-08-20T14:36:28Z</time>
      </trkpt>
      <trkpt lat="44.27214" lon="2.92602">
        <ele>898.8</ele>
        <time>2021-08-20T14:36:29Z</time>
      </trkpt>
      <trkpt lat="44.27215" lon="2.92596">
        <ele>899</ele>
        <time>2021-08-20T14:36:30Z</time>
      </trkpt>
      <trkpt lat="44.27217" lon="2.9259">
        <ele>899.2</ele>
        <time>2021-08-20T14:36:31Z</time>
      </trkpt>
      <trkpt lat="44.27219" lon="2.92584">
        <ele>899.4</ele>
        <time>2021-08-20T14:36:32Z</time>
      </trkpt>
      <trkpt lat="44.27221" lon="2.92579">
        <ele>899.6</ele>
        <time>2021-08-20T14:36:33Z</time>
      </trkpt>
      <trkpt lat="44.27223" lon="2.92574">
        <ele>899.8</ele>
        <time>2021-08-20T14:36:34Z</time>
      </trkpt>
      <trkpt lat="44.27225" lon="2.92569">
        <ele>900</ele>
        <time>2021-08-20T14:36:35Z</time>
      </trkpt>
      <trkpt lat="44.27227" lon="2.92564">
        <ele>900</ele>
        <time>2021-08-20T14:36:36Z</time>
      </trkpt>
      <trkpt lat="44.27229" lon="2.92559">
        <ele>900.2</ele>
        <time>2021-08-20T14:36:37Z</time>
      </trkpt>
      <trkpt lat="44.27231" lon="2.92555">
        <ele>900.2</ele>
        <time>2021-08-20T14:36:38Z</time>
      </trkpt>
      <trkpt lat="44.27232" lon="2.92551">
        <ele>900.4</ele>
        <time>2021-08-20T14:36:39Z</time>
      </trkpt>
      <trkpt lat="44.27234" lon="2.92547">
        <ele>900.4</ele>
        <time>2021-08-20T14:36:40Z</time>
      </trkpt>
      <trkpt lat="44.27235" lon="2.92543">
        <ele>900.4</ele>
        <time>2021-08-20T14:36:41Z</time>
      </trkpt>
      <trkpt lat="44.27237" lon="2.92539">
        <ele>900.6</ele>
        <time>2021-08-20T14:36:42Z</time>
      </trkpt>
      <trkpt lat="44.27239" lon="2.92536">
        <ele>900.6</ele>
        <time>2021-08-20T14:36:43Z</time>
      </trkpt>
      <trkpt lat="44.2724" lon="2.92532">
        <ele>900.6</ele>
        <time>2021-08-20T14:36:44Z</time>
      </trkpt>
      <trkpt lat="44.27241" lon="2.92528">
        <ele>900.6</ele>
        <time>2021-08-20T14:36:45Z</time>
      </trkpt>
      <trkpt lat="44.27243" lon="2.92525">
        <ele>900.8</ele>
        <time>2021-08-20T14:36:46Z</time>
      </trkpt>
      <trkpt lat="44.27244" lon="2.92521">
        <ele>900.8</ele>
        <time>2021-08-20T14:36:47Z</time>
      </trkpt>
      <trkpt lat="44.27246" lon="2.92517">
        <ele>900.8</ele>
        <time>2021-08-20T14:36:48Z</time>
      </trkpt>
      <trkpt lat="44.27247" lon="2.92513">
        <ele>900.8</ele>
        <time>2021-08-20T14:36:49Z</time>
      </trkpt>
      <trkpt lat="44.27249" lon="2.92509">
        <ele>900.8</ele>
        <time>2021-08-20T14:36:50Z</time>
      </trkpt>
      <trkpt lat="44.27251" lon="2.92505">
        <ele>901</ele>
        <time>2021-08-20T14:36:51Z</time>
      </trkpt>
      <trkpt lat="44.27253" lon="2.925">
        <ele>901</ele>
        <time>2021-08-20T14:36:52Z</time>
      </trkpt>
      <trkpt lat="44.27254" lon="2.92496">
        <ele>901</ele>
        <time>2021-08-20T14:36:53Z</time>
      </trkpt>
      <trkpt lat="44.27256" lon="2.92492">
        <ele>901.2</ele>
        <time>2021-08-20T14:36:54Z</time>
      </trkpt>
      <trkpt lat="44.27257" lon="2.92487">
        <ele>901.2</ele>
        <time>2021-08-20T14:36:55Z</time>
      </trkpt>
      <trkpt lat="44.27259" lon="2.92483">
        <ele>901.2</ele>
        <time>2021-08-20T14:36:56Z</time>
      </trkpt>
      <trkpt lat="44.27261" lon="2.92474">
        <ele>901.4</ele>
        <time>2021-08-20T14:36:58Z</time>
      </trkpt>
      <trkpt lat="44.27263" lon="2.92469">
        <ele>901.4</ele>
        <time>2021-08-20T14:36:59Z</time>
      </trkpt>
      <trkpt lat="44.27264" lon="2.92465">
        <ele>901.8</ele>
        <time>2021-08-20T14:37:00Z</time>
      </trkpt>
      <trkpt lat="44.27265" lon="2.92461">
        <ele>901.8</ele>
        <time>2021-08-20T14:37:01Z</time>
      </trkpt>
      <trkpt lat="44.27267" lon="2.92457">
        <ele>902</ele>
        <time>2021-08-20T14:37:02Z</time>
      </trkpt>
      <trkpt lat="44.27268" lon="2.92454">
        <ele>902</ele>
        <time>2021-08-20T14:37:03Z</time>
      </trkpt>
      <trkpt lat="44.27269" lon="2.9245">
        <ele>902.2</ele>
        <time>2021-08-20T14:37:04Z</time>
      </trkpt>
      <trkpt lat="44.2727" lon="2.92447">
        <ele>902.2</ele>
        <time>2021-08-20T14:37:05Z</time>
      </trkpt>
      <trkpt lat="44.27271" lon="2.92444">
        <ele>902.4</ele>
        <time>2021-08-20T14:37:06Z</time>
      </trkpt>
      <trkpt lat="44.27272" lon="2.92441">
        <ele>902.4</ele>
        <time>2021-08-20T14:37:07Z</time>
      </trkpt>
      <trkpt lat="44.27272" lon="2.92439">
        <ele>902.6</ele>
        <time>2021-08-20T14:37:08Z</time>
      </trkpt>
      <trkpt lat="44.27272" lon="2.92437">
        <ele>902.6</ele>
        <time>2021-08-20T14:37:09Z</time>
      </trkpt>
      <trkpt lat="44.27273" lon="2.92435">
        <ele>902.8</ele>
        <time>2021-08-20T14:37:10Z</time>
      </trkpt>
      <trkpt lat="44.27273" lon="2.92433">
        <ele>902.8</ele>
        <time>2021-08-20T14:37:11Z</time>
      </trkpt>
      <trkpt lat="44.27273" lon="2.92431">
        <ele>903</ele>
        <time>2021-08-20T14:37:12Z</time>
      </trkpt>
      <trkpt lat="44.27272" lon="2.92429">
        <ele>903</ele>
        <time>2021-08-20T14:37:13Z</time>
      </trkpt>
      <trkpt lat="44.27272" lon="2.92427">
        <ele>903</ele>
        <time>2021-08-20T14:37:14Z</time>
      </trkpt>
      <trkpt lat="44.27271" lon="2.92425">
        <ele>903</ele>
        <time>2021-08-20T14:37:15Z</time>
      </trkpt>
      <trkpt lat="44.2727" lon="2.92424">
        <ele>903.2</ele>
        <time>2021-08-20T14:37:16Z</time>
      </trkpt>
      <trkpt lat="44.27269" lon="2.92424">
        <ele>903.2</ele>
        <time>2021-08-20T14:37:17Z</time>
      </trkpt>
      <trkpt lat="44.27268" lon="2.92423">
        <ele>903.2</ele>
        <time>2021-08-20T14:37:18Z</time>
      </trkpt>
      <trkpt lat="44.27267" lon="2.92423">
        <ele>903.2</ele>
        <time>2021-08-20T14:37:19Z</time>
      </trkpt>
      <trkpt lat="44.27266" lon="2.92423">
        <ele>903.4</ele>
        <time>2021-08-20T14:37:20Z</time>
      </trkpt>
      <trkpt lat="44.27265" lon="2.92423">
        <ele>903.4</ele>
        <time>2021-08-20T14:37:21Z</time>
      </trkpt>
      <trkpt lat="44.27259" lon="2.92422">
        <ele>903.4</ele>
        <time>2021-08-20T14:37:26Z</time>
      </trkpt>
      <trkpt lat="44.27258" lon="2.92422">
        <ele>903.4</ele>
        <time>2021-08-20T14:37:27Z</time>
      </trkpt>
      <trkpt lat="44.27245" lon="2.92419">
        <ele>903</ele>
        <time>2021-08-20T14:37:32Z</time>
      </trkpt>
      <trkpt lat="44.27233" lon="2.92416">
        <ele>903</ele>
        <time>2021-08-20T14:37:36Z</time>
      </trkpt>
      <trkpt lat="44.2723" lon="2.92415">
        <ele>903</ele>
        <time>2021-08-20T14:37:37Z</time>
      </trkpt>
      <trkpt lat="44.27227" lon="2.92413">
        <ele>903</ele>
        <time>2021-08-20T14:37:38Z</time>
      </trkpt>
      <trkpt lat="44.27224" lon="2.92412">
        <ele>903</ele>
        <time>2021-08-20T14:37:39Z</time>
      </trkpt>
      <trkpt lat="44.27222" lon="2.92411">
        <ele>903.2</ele>
        <time>2021-08-20T14:37:40Z</time>
      </trkpt>
      <trkpt lat="44.2722" lon="2.92411">
        <ele>903.2</ele>
        <time>2021-08-20T14:37:41Z</time>
      </trkpt>
      <trkpt lat="44.27208" lon="2.92406">
        <ele>903.4</ele>
        <time>2021-08-20T14:37:45Z</time>
      </trkpt>
      <trkpt lat="44.27205" lon="2.92405">
        <ele>903.4</ele>
        <time>2021-08-20T14:37:46Z</time>
      </trkpt>
      <trkpt lat="44.27203" lon="2.92404">
        <ele>903.4</ele>
        <time>2021-08-20T14:37:47Z</time>
      </trkpt>
      <trkpt lat="44.27201" lon="2.92402">
        <ele>903.4</ele>
        <time>2021-08-20T14:37:48Z</time>
      </trkpt>
      <trkpt lat="44.27199" lon="2.92401">
        <ele>903.4</ele>
        <time>2021-08-20T14:37:49Z</time>
      </trkpt>
      <trkpt lat="44.27197" lon="2.924">
        <ele>903.6</ele>
        <time>2021-08-20T14:37:50Z</time>
      </trkpt>
      <trkpt lat="44.27195" lon="2.92399">
        <ele>903.6</ele>
        <time>2021-08-20T14:37:51Z</time>
      </trkpt>
      <trkpt lat="44.27193" lon="2.92398">
        <ele>903.6</ele>
        <time>2021-08-20T14:37:52Z</time>
      </trkpt>
      <trkpt lat="44.27188" lon="2.92399">
        <ele>903.4</ele>
        <time>2021-08-20T14:37:54Z</time>
      </trkpt>
      <trkpt lat="44.27185" lon="2.92399">
        <ele>903.4</ele>
        <time>2021-08-20T14:37:55Z</time>
      </trkpt>
      <trkpt lat="44.27179" lon="2.92399">
        <ele>903.6</ele>
        <time>2021-08-20T14:37:58Z</time>
      </trkpt>
      <trkpt lat="44.27163" lon="2.92396">
        <ele>903.6</ele>
        <time>2021-08-20T14:38:03Z</time>
      </trkpt>
      <trkpt lat="44.2716" lon="2.92396">
        <ele>903.6</ele>
        <time>2021-08-20T14:38:04Z</time>
      </trkpt>
      <trkpt lat="44.27153" lon="2.92394">
        <ele>903.8</ele>
        <time>2021-08-20T14:38:06Z</time>
      </trkpt>
      <trkpt lat="44.2715" lon="2.92394">
        <ele>903.8</ele>
        <time>2021-08-20T14:38:07Z</time>
      </trkpt>
      <trkpt lat="44.27147" lon="2.92394">
        <ele>903.8</ele>
        <time>2021-08-20T14:38:08Z</time>
      </trkpt>
      <trkpt lat="44.27137" lon="2.92395">
        <ele>904.2</ele>
        <time>2021-08-20T14:38:11Z</time>
      </trkpt>
      <trkpt lat="44.27126" lon="2.92398">
        <ele>904.8</ele>
        <time>2021-08-20T14:38:15Z</time>
      </trkpt>
      <trkpt lat="44.27123" lon="2.924">
        <ele>904.8</ele>
        <time>2021-08-20T14:38:16Z</time>
      </trkpt>
      <trkpt lat="44.27121" lon="2.92401">
        <ele>904.8</ele>
        <time>2021-08-20T14:38:17Z</time>
      </trkpt>
      <trkpt lat="44.27119" lon="2.92403">
        <ele>905</ele>
        <time>2021-08-20T14:38:18Z</time>
      </trkpt>
      <trkpt lat="44.27117" lon="2.92404">
        <ele>905</ele>
        <time>2021-08-20T14:38:19Z</time>
      </trkpt>
      <trkpt lat="44.27113" lon="2.92407">
        <ele>905.2</ele>
        <time>2021-08-20T14:38:21Z</time>
      </trkpt>
      <trkpt lat="44.27111" lon="2.92408">
        <ele>905.2</ele>
        <time>2021-08-20T14:38:22Z</time>
      </trkpt>
      <trkpt lat="44.27107" lon="2.92409">
        <ele>906</ele>
        <time>2021-08-20T14:38:24Z</time>
      </trkpt>
      <trkpt lat="44.27105" lon="2.9241">
        <ele>906.4</ele>
        <time>2021-08-20T14:38:25Z</time>
      </trkpt>
      <trkpt lat="44.27103" lon="2.9241">
        <ele>907</ele>
        <time>2021-08-20T14:38:26Z</time>
      </trkpt>
      <trkpt lat="44.27102" lon="2.92411">
        <ele>907.6</ele>
        <time>2021-08-20T14:38:27Z</time>
      </trkpt>
      <trkpt lat="44.27099" lon="2.92412">
        <ele>908</ele>
        <time>2021-08-20T14:38:29Z</time>
      </trkpt>
      <trkpt lat="44.27097" lon="2.92413">
        <ele>908.2</ele>
        <time>2021-08-20T14:38:30Z</time>
      </trkpt>
      <trkpt lat="44.27094" lon="2.92414">
        <ele>908.4</ele>
        <time>2021-08-20T14:38:31Z</time>
      </trkpt>
      <trkpt lat="44.27091" lon="2.92415">
        <ele>908.6</ele>
        <time>2021-08-20T14:38:32Z</time>
      </trkpt>
      <trkpt lat="44.27087" lon="2.92416">
        <ele>908.8</ele>
        <time>2021-08-20T14:38:33Z</time>
      </trkpt>
      <trkpt lat="44.27084" lon="2.92418">
        <ele>909.2</ele>
        <time>2021-08-20T14:38:34Z</time>
      </trkpt>
      <trkpt lat="44.27081" lon="2.92421">
        <ele>909.4</ele>
        <time>2021-08-20T14:38:35Z</time>
      </trkpt>
      <trkpt lat="44.27078" lon="2.92423">
        <ele>909.8</ele>
        <time>2021-08-20T14:38:36Z</time>
      </trkpt>
      <trkpt lat="44.27076" lon="2.92424">
        <ele>910</ele>
        <time>2021-08-20T14:38:37Z</time>
      </trkpt>
      <trkpt lat="44.27074" lon="2.92426">
        <ele>910.4</ele>
        <time>2021-08-20T14:38:38Z</time>
      </trkpt>
      <trkpt lat="44.27072" lon="2.92428">
        <ele>910.6</ele>
        <time>2021-08-20T14:38:39Z</time>
      </trkpt>
      <trkpt lat="44.27069" lon="2.9243">
        <ele>910.8</ele>
        <time>2021-08-20T14:38:40Z</time>
      </trkpt>
      <trkpt lat="44.27061" lon="2.92433">
        <ele>910.8</ele>
        <time>2021-08-20T14:38:41Z</time>
      </trkpt>
      <trkpt lat="44.27055" lon="2.92435">
        <ele>911</ele>
        <time>2021-08-20T14:38:42Z</time>
      </trkpt>
      <trkpt lat="44.27047" lon="2.92439">
        <ele>911.2</ele>
        <time>2021-08-20T14:38:43Z</time>
      </trkpt>
      <trkpt lat="44.2704" lon="2.92441">
        <ele>911.2</ele>
        <time>2021-08-20T14:38:44Z</time>
      </trkpt>
      <trkpt lat="44.27035" lon="2.92445">
        <ele>911.6</ele>
        <time>2021-08-20T14:38:45Z</time>
      </trkpt>
      <trkpt lat="44.2703" lon="2.92449">
        <ele>911.8</ele>
        <time>2021-08-20T14:38:46Z</time>
      </trkpt>
      <trkpt lat="44.27025" lon="2.92454">
        <ele>912.2</ele>
        <time>2021-08-20T14:38:47Z</time>
      </trkpt>
      <trkpt lat="44.2702" lon="2.92458">
        <ele>912.2</ele>
        <time>2021-08-20T14:38:48Z</time>
      </trkpt>
      <trkpt lat="44.27017" lon="2.92462">
        <ele>912.6</ele>
        <time>2021-08-20T14:38:49Z</time>
      </trkpt>
      <trkpt lat="44.27014" lon="2.92465">
        <ele>912.8</ele>
        <time>2021-08-20T14:38:50Z</time>
      </trkpt>
      <trkpt lat="44.27013" lon="2.92469">
        <ele>913.4</ele>
        <time>2021-08-20T14:38:51Z</time>
      </trkpt>
      <trkpt lat="44.27011" lon="2.92473">
        <ele>913.6</ele>
        <time>2021-08-20T14:38:52Z</time>
      </trkpt>
      <trkpt lat="44.27007" lon="2.92477">
        <ele>913.8</ele>
        <time>2021-08-20T14:38:53Z</time>
      </trkpt>
      <trkpt lat="44.27003" lon="2.9248">
        <ele>914.2</ele>
        <time>2021-08-20T14:38:54Z</time>
      </trkpt>
      <trkpt lat="44.26998" lon="2.92483">
        <ele>914.4</ele>
        <time>2021-08-20T14:38:55Z</time>
      </trkpt>
      <trkpt lat="44.26993" lon="2.92487">
        <ele>914.4</ele>
        <time>2021-08-20T14:38:56Z</time>
      </trkpt>
      <trkpt lat="44.26988" lon="2.92489">
        <ele>914.4</ele>
        <time>2021-08-20T14:38:57Z</time>
      </trkpt>
      <trkpt lat="44.26986" lon="2.92491">
        <ele>914.6</ele>
        <time>2021-08-20T14:38:58Z</time>
      </trkpt>
      <trkpt lat="44.26985" lon="2.92495">
        <ele>914.6</ele>
        <time>2021-08-20T14:38:59Z</time>
      </trkpt>
      <trkpt lat="44.26984" lon="2.925">
        <ele>914.8</ele>
        <time>2021-08-20T14:39:00Z</time>
      </trkpt>
      <trkpt lat="44.26981" lon="2.92504">
        <ele>914.6</ele>
        <time>2021-08-20T14:39:01Z</time>
      </trkpt>
      <trkpt lat="44.26978" lon="2.92507">
        <ele>914.6</ele>
        <time>2021-08-20T14:39:02Z</time>
      </trkpt>
      <trkpt lat="44.26975" lon="2.92509">
        <ele>914.6</ele>
        <time>2021-08-20T14:39:03Z</time>
      </trkpt>
      <trkpt lat="44.26972" lon="2.9251">
        <ele>914.8</ele>
        <time>2021-08-20T14:39:04Z</time>
      </trkpt>
      <trkpt lat="44.2697" lon="2.92512">
        <ele>915</ele>
        <time>2021-08-20T14:39:05Z</time>
      </trkpt>
      <trkpt lat="44.26968" lon="2.92513">
        <ele>915</ele>
        <time>2021-08-20T14:39:06Z</time>
      </trkpt>
      <trkpt lat="44.26965" lon="2.92514">
        <ele>915.2</ele>
        <time>2021-08-20T14:39:07Z</time>
      </trkpt>
      <trkpt lat="44.26963" lon="2.92515">
        <ele>915.2</ele>
        <time>2021-08-20T14:39:08Z</time>
      </trkpt>
      <trkpt lat="44.26961" lon="2.92516">
        <ele>915.4</ele>
        <time>2021-08-20T14:39:09Z</time>
      </trkpt>
      <trkpt lat="44.2696" lon="2.92517">
        <ele>915.4</ele>
        <time>2021-08-20T14:39:10Z</time>
      </trkpt>
      <trkpt lat="44.26958" lon="2.92517">
        <ele>915.4</ele>
        <time>2021-08-20T14:39:11Z</time>
      </trkpt>
      <trkpt lat="44.26956" lon="2.92517">
        <ele>915.6</ele>
        <time>2021-08-20T14:39:12Z</time>
      </trkpt>
      <trkpt lat="44.26955" lon="2.92515">
        <ele>915.6</ele>
        <time>2021-08-20T14:39:13Z</time>
      </trkpt>
      <trkpt lat="44.26954" lon="2.92514">
        <ele>915.8</ele>
        <time>2021-08-20T14:39:14Z</time>
      </trkpt>
      <trkpt lat="44.26954" lon="2.92512">
        <ele>916</ele>
        <time>2021-08-20T14:39:15Z</time>
      </trkpt>
      <trkpt lat="44.26954" lon="2.92511">
        <ele>916</ele>
        <time>2021-08-20T14:39:16Z</time>
      </trkpt>
      <trkpt lat="44.26954" lon="2.9251">
        <ele>916</ele>
        <time>2021-08-20T14:39:17Z</time>
      </trkpt>
      <trkpt lat="44.26954" lon="2.92508">
        <ele>915.2</ele>
        <time>2021-08-20T14:39:46Z</time>
      </trkpt>
      <trkpt lat="44.26953" lon="2.92505">
        <ele>915.6</ele>
        <time>2021-08-20T14:39:48Z</time>
      </trkpt>
      <trkpt lat="44.26953" lon="2.92502">
        <ele>915.2</ele>
        <time>2021-08-20T14:39:50Z</time>
      </trkpt>
      <trkpt lat="44.26954" lon="2.92498">
        <ele>915.2</ele>
        <time>2021-08-20T14:39:56Z</time>
      </trkpt>
      <trkpt lat="44.26956" lon="2.92494">
        <ele>915.2</ele>
        <time>2021-08-20T14:39:58Z</time>
      </trkpt>
      <trkpt lat="44.26956" lon="2.92492">
        <ele>915.2</ele>
        <time>2021-08-20T14:39:59Z</time>
      </trkpt>
      <trkpt lat="44.26956" lon="2.9249">
        <ele>915.2</ele>
        <time>2021-08-20T14:40:00Z</time>
      </trkpt>
      <trkpt lat="44.26956" lon="2.92485">
        <ele>915.2</ele>
        <time>2021-08-20T14:40:02Z</time>
      </trkpt>
      <trkpt lat="44.26957" lon="2.92481">
        <ele>915.2</ele>
        <time>2021-08-20T14:40:03Z</time>
      </trkpt>
      <trkpt lat="44.26955" lon="2.92471">
        <ele>915.2</ele>
        <time>2021-08-20T14:40:05Z</time>
      </trkpt>
      <trkpt lat="44.26954" lon="2.92453">
        <ele>915.4</ele>
        <time>2021-08-20T14:40:09Z</time>
      </trkpt>
      <trkpt lat="44.26954" lon="2.92448">
        <ele>915.4</ele>
        <time>2021-08-20T14:40:10Z</time>
      </trkpt>
      <trkpt lat="44.26954" lon="2.92444">
        <ele>915.2</ele>
        <time>2021-08-20T14:40:11Z</time>
      </trkpt>
      <trkpt lat="44.26952" lon="2.92434">
        <ele>915.2</ele>
        <time>2021-08-20T14:40:13Z</time>
      </trkpt>
      <trkpt lat="44.26952" lon="2.92428">
        <ele>915.2</ele>
        <time>2021-08-20T14:40:14Z</time>
      </trkpt>
      <trkpt lat="44.26951" lon="2.92424">
        <ele>915.6</ele>
        <time>2021-08-20T14:40:15Z</time>
      </trkpt>
      <trkpt lat="44.26951" lon="2.92419">
        <ele>915.8</ele>
        <time>2021-08-20T14:40:16Z</time>
      </trkpt>
      <trkpt lat="44.2695" lon="2.92414">
        <ele>915.8</ele>
        <time>2021-08-20T14:40:17Z</time>
      </trkpt>
      <trkpt lat="44.2695" lon="2.92409">
        <ele>916</ele>
        <time>2021-08-20T14:40:18Z</time>
      </trkpt>
      <trkpt lat="44.2695" lon="2.92405">
        <ele>916.2</ele>
        <time>2021-08-20T14:40:19Z</time>
      </trkpt>
      <trkpt lat="44.2695" lon="2.92401">
        <ele>916</ele>
        <time>2021-08-20T14:40:20Z</time>
      </trkpt>
      <trkpt lat="44.2695" lon="2.92397">
        <ele>916</ele>
        <time>2021-08-20T14:40:21Z</time>
      </trkpt>
      <trkpt lat="44.2695" lon="2.92393">
        <ele>916.4</ele>
        <time>2021-08-20T14:40:22Z</time>
      </trkpt>
      <trkpt lat="44.26949" lon="2.92385">
        <ele>916.6</ele>
        <time>2021-08-20T14:40:24Z</time>
      </trkpt>
      <trkpt lat="44.26948" lon="2.92381">
        <ele>916.6</ele>
        <time>2021-08-20T14:40:25Z</time>
      </trkpt>
      <trkpt lat="44.26949" lon="2.92369">
        <ele>916.6</ele>
        <time>2021-08-20T14:40:28Z</time>
      </trkpt>
      <trkpt lat="44.26949" lon="2.92365">
        <ele>916.8</ele>
        <time>2021-08-20T14:40:29Z</time>
      </trkpt>
      <trkpt lat="44.2695" lon="2.92361">
        <ele>916.8</ele>
        <time>2021-08-20T14:40:30Z</time>
      </trkpt>
      <trkpt lat="44.2695" lon="2.92358">
        <ele>917</ele>
        <time>2021-08-20T14:40:31Z</time>
      </trkpt>
      <trkpt lat="44.2695" lon="2.92347">
        <ele>917</ele>
        <time>2021-08-20T14:40:33Z</time>
      </trkpt>
      <trkpt lat="44.26945" lon="2.92335">
        <ele>917.2</ele>
        <time>2021-08-20T14:40:36Z</time>
      </trkpt>
      <trkpt lat="44.26942" lon="2.92331">
        <ele>917.2</ele>
        <time>2021-08-20T14:40:37Z</time>
      </trkpt>
      <trkpt lat="44.2694" lon="2.92326">
        <ele>917.2</ele>
        <time>2021-08-20T14:40:38Z</time>
      </trkpt>
      <trkpt lat="44.26939" lon="2.92319">
        <ele>917.2</ele>
        <time>2021-08-20T14:40:39Z</time>
      </trkpt>
      <trkpt lat="44.26937" lon="2.92308">
        <ele>917</ele>
        <time>2021-08-20T14:40:41Z</time>
      </trkpt>
      <trkpt lat="44.26936" lon="2.92301">
        <ele>917</ele>
        <time>2021-08-20T14:40:42Z</time>
      </trkpt>
      <trkpt lat="44.26935" lon="2.92295">
        <ele>917</ele>
        <time>2021-08-20T14:40:43Z</time>
      </trkpt>
      <trkpt lat="44.26934" lon="2.9229">
        <ele>917</ele>
        <time>2021-08-20T14:40:44Z</time>
      </trkpt>
      <trkpt lat="44.26933" lon="2.92284">
        <ele>917.2</ele>
        <time>2021-08-20T14:40:45Z</time>
      </trkpt>
      <trkpt lat="44.26932" lon="2.9228">
        <ele>917.2</ele>
        <time>2021-08-20T14:40:46Z</time>
      </trkpt>
      <trkpt lat="44.26931" lon="2.92275">
        <ele>917.2</ele>
        <time>2021-08-20T14:40:47Z</time>
      </trkpt>
      <trkpt lat="44.2693" lon="2.92269">
        <ele>917.2</ele>
        <time>2021-08-20T14:40:48Z</time>
      </trkpt>
      <trkpt lat="44.26929" lon="2.92264">
        <ele>917.2</ele>
        <time>2021-08-20T14:40:49Z</time>
      </trkpt>
      <trkpt lat="44.26927" lon="2.9226">
        <ele>917.2</ele>
        <time>2021-08-20T14:40:50Z</time>
      </trkpt>
      <trkpt lat="44.26926" lon="2.92256">
        <ele>917.2</ele>
        <time>2021-08-20T14:40:51Z</time>
      </trkpt>
      <trkpt lat="44.26924" lon="2.92253">
        <ele>917.2</ele>
        <time>2021-08-20T14:40:52Z</time>
      </trkpt>
      <trkpt lat="44.26922" lon="2.92249">
        <ele>917.2</ele>
        <time>2021-08-20T14:40:53Z</time>
      </trkpt>
      <trkpt lat="44.2692" lon="2.92246">
        <ele>917.4</ele>
        <time>2021-08-20T14:40:54Z</time>
      </trkpt>
      <trkpt lat="44.26901" lon="2.92231">
        <ele>917.6</ele>
        <time>2021-08-20T14:41:00Z</time>
      </trkpt>
      <trkpt lat="44.26897" lon="2.92228">
        <ele>917.6</ele>
        <time>2021-08-20T14:41:01Z</time>
      </trkpt>
      <trkpt lat="44.26893" lon="2.92226">
        <ele>917.8</ele>
        <time>2021-08-20T14:41:02Z</time>
      </trkpt>
      <trkpt lat="44.26879" lon="2.92217">
        <ele>917.8</ele>
        <time>2021-08-20T14:41:06Z</time>
      </trkpt>
      <trkpt lat="44.26876" lon="2.92215">
        <ele>917.8</ele>
        <time>2021-08-20T14:41:07Z</time>
      </trkpt>
      <trkpt lat="44.26872" lon="2.92212">
        <ele>917.8</ele>
        <time>2021-08-20T14:41:08Z</time>
      </trkpt>
      <trkpt lat="44.26868" lon="2.9221">
        <ele>917.8</ele>
        <time>2021-08-20T14:41:09Z</time>
      </trkpt>
      <trkpt lat="44.26857" lon="2.92201">
        <ele>918</ele>
        <time>2021-08-20T14:41:12Z</time>
      </trkpt>
      <trkpt lat="44.26853" lon="2.92198">
        <ele>917.8</ele>
        <time>2021-08-20T14:41:13Z</time>
      </trkpt>
      <trkpt lat="44.2685" lon="2.92194">
        <ele>917.8</ele>
        <time>2021-08-20T14:41:14Z</time>
      </trkpt>
      <trkpt lat="44.26838" lon="2.92178">
        <ele>917.2</ele>
        <time>2021-08-20T14:41:18Z</time>
      </trkpt>
      <trkpt lat="44.26835" lon="2.92174">
        <ele>917</ele>
        <time>2021-08-20T14:41:19Z</time>
      </trkpt>
      <trkpt lat="44.26828" lon="2.92169">
        <ele>916.8</ele>
        <time>2021-08-20T14:41:21Z</time>
      </trkpt>
      <trkpt lat="44.26824" lon="2.92165">
        <ele>916.6</ele>
        <time>2021-08-20T14:41:22Z</time>
      </trkpt>
      <trkpt lat="44.26807" lon="2.92153">
        <ele>916</ele>
        <time>2021-08-20T14:41:26Z</time>
      </trkpt>
      <trkpt lat="44.26801" lon="2.9215">
        <ele>915.8</ele>
        <time>2021-08-20T14:41:27Z</time>
      </trkpt>
      <trkpt lat="44.26796" lon="2.92147">
        <ele>915.2</ele>
        <time>2021-08-20T14:41:28Z</time>
      </trkpt>
      <trkpt lat="44.26785" lon="2.92142">
        <ele>914.8</ele>
        <time>2021-08-20T14:41:30Z</time>
      </trkpt>
      <trkpt lat="44.2678" lon="2.9214">
        <ele>915</ele>
        <time>2021-08-20T14:41:31Z</time>
      </trkpt>
      <trkpt lat="44.26776" lon="2.92138">
        <ele>914.8</ele>
        <time>2021-08-20T14:41:32Z</time>
      </trkpt>
      <trkpt lat="44.26771" lon="2.92136">
        <ele>914.6</ele>
        <time>2021-08-20T14:41:33Z</time>
      </trkpt>
      <trkpt lat="44.26768" lon="2.92135">
        <ele>914.4</ele>
        <time>2021-08-20T14:41:34Z</time>
      </trkpt>
      <trkpt lat="44.26764" lon="2.92134">
        <ele>914.4</ele>
        <time>2021-08-20T14:41:35Z</time>
      </trkpt>
      <trkpt lat="44.26761" lon="2.92134">
        <ele>914.2</ele>
        <time>2021-08-20T14:41:36Z</time>
      </trkpt>
      <trkpt lat="44.26756" lon="2.92133">
        <ele>914</ele>
        <time>2021-08-20T14:41:37Z</time>
      </trkpt>
      <trkpt lat="44.26752" lon="2.92132">
        <ele>914</ele>
        <time>2021-08-20T14:41:38Z</time>
      </trkpt>
      <trkpt lat="44.26746" lon="2.92129">
        <ele>913.8</ele>
        <time>2021-08-20T14:41:40Z</time>
      </trkpt>
      <trkpt lat="44.26735" lon="2.92125">
        <ele>913.6</ele>
        <time>2021-08-20T14:41:43Z</time>
      </trkpt>
      <trkpt lat="44.26731" lon="2.92123">
        <ele>913.6</ele>
        <time>2021-08-20T14:41:44Z</time>
      </trkpt>
      <trkpt lat="44.26728" lon="2.92122">
        <ele>913.6</ele>
        <time>2021-08-20T14:41:45Z</time>
      </trkpt>
      <trkpt lat="44.26725" lon="2.9212">
        <ele>913.6</ele>
        <time>2021-08-20T14:41:46Z</time>
      </trkpt>
      <trkpt lat="44.26723" lon="2.92117">
        <ele>913.6</ele>
        <time>2021-08-20T14:41:47Z</time>
      </trkpt>
      <trkpt lat="44.2672" lon="2.92115">
        <ele>913.4</ele>
        <time>2021-08-20T14:41:48Z</time>
      </trkpt>
      <trkpt lat="44.26719" lon="2.92113">
        <ele>913.4</ele>
        <time>2021-08-20T14:41:49Z</time>
      </trkpt>
      <trkpt lat="44.26716" lon="2.92113">
        <ele>913.4</ele>
        <time>2021-08-20T14:41:50Z</time>
      </trkpt>
      <trkpt lat="44.26713" lon="2.92114">
        <ele>913.4</ele>
        <time>2021-08-20T14:41:51Z</time>
      </trkpt>
      <trkpt lat="44.26711" lon="2.92115">
        <ele>913.4</ele>
        <time>2021-08-20T14:41:52Z</time>
      </trkpt>
      <trkpt lat="44.26706" lon="2.92118">
        <ele>913.4</ele>
        <time>2021-08-20T14:41:54Z</time>
      </trkpt>
      <trkpt lat="44.26704" lon="2.92119">
        <ele>913.4</ele>
        <time>2021-08-20T14:41:55Z</time>
      </trkpt>
      <trkpt lat="44.26696" lon="2.92121">
        <ele>913.2</ele>
        <time>2021-08-20T14:41:57Z</time>
      </trkpt>
      <trkpt lat="44.26693" lon="2.9212">
        <ele>913.2</ele>
        <time>2021-08-20T14:41:58Z</time>
      </trkpt>
      <trkpt lat="44.26687" lon="2.9212">
        <ele>913.2</ele>
        <time>2021-08-20T14:42:00Z</time>
      </trkpt>
      <trkpt lat="44.26684" lon="2.92119">
        <ele>913.2</ele>
        <time>2021-08-20T14:42:01Z</time>
      </trkpt>
      <trkpt lat="44.26681" lon="2.92119">
        <ele>913</ele>
        <time>2021-08-20T14:42:02Z</time>
      </trkpt>
      <trkpt lat="44.26678" lon="2.92119">
        <ele>912.6</ele>
        <time>2021-08-20T14:42:03Z</time>
      </trkpt>
      <trkpt lat="44.26676" lon="2.92121">
        <ele>912</ele>
        <time>2021-08-20T14:42:04Z</time>
      </trkpt>
      <trkpt lat="44.26674" lon="2.92122">
        <ele>911.6</ele>
        <time>2021-08-20T14:42:05Z</time>
      </trkpt>
      <trkpt lat="44.26672" lon="2.92122">
        <ele>911.4</ele>
        <time>2021-08-20T14:42:06Z</time>
      </trkpt>
      <trkpt lat="44.26666" lon="2.92119">
        <ele>910.6</ele>
        <time>2021-08-20T14:42:08Z</time>
      </trkpt>
      <trkpt lat="44.26663" lon="2.92116">
        <ele>910.2</ele>
        <time>2021-08-20T14:42:09Z</time>
      </trkpt>
      <trkpt lat="44.26659" lon="2.92113">
        <ele>910.2</ele>
        <time>2021-08-20T14:42:10Z</time>
      </trkpt>
      <trkpt lat="44.26655" lon="2.9211">
        <ele>909.8</ele>
        <time>2021-08-20T14:42:11Z</time>
      </trkpt>
      <trkpt lat="44.26652" lon="2.92108">
        <ele>909.6</ele>
        <time>2021-08-20T14:42:12Z</time>
      </trkpt>
      <trkpt lat="44.26649" lon="2.92106">
        <ele>909.2</ele>
        <time>2021-08-20T14:42:13Z</time>
      </trkpt>
      <trkpt lat="44.26647" lon="2.92105">
        <ele>909.2</ele>
        <time>2021-08-20T14:42:14Z</time>
      </trkpt>
      <trkpt lat="44.26644" lon="2.92103">
        <ele>908.6</ele>
        <time>2021-08-20T14:42:15Z</time>
      </trkpt>
      <trkpt lat="44.26638" lon="2.92102">
        <ele>907.4</ele>
        <time>2021-08-20T14:42:17Z</time>
      </trkpt>
      <trkpt lat="44.2663" lon="2.92102">
        <ele>906.6</ele>
        <time>2021-08-20T14:42:19Z</time>
      </trkpt>
      <trkpt lat="44.26625" lon="2.92102">
        <ele>906.2</ele>
        <time>2021-08-20T14:42:20Z</time>
      </trkpt>
      <trkpt lat="44.26612" lon="2.92109">
        <ele>905</ele>
        <time>2021-08-20T14:42:23Z</time>
      </trkpt>
      <trkpt lat="44.26607" lon="2.92113">
        <ele>904.2</ele>
        <time>2021-08-20T14:42:24Z</time>
      </trkpt>
      <trkpt lat="44.26602" lon="2.92118">
        <ele>903.8</ele>
        <time>2021-08-20T14:42:25Z</time>
      </trkpt>
      <trkpt lat="44.26597" lon="2.92122">
        <ele>903.2</ele>
        <time>2021-08-20T14:42:26Z</time>
      </trkpt>
      <trkpt lat="44.26594" lon="2.92126">
        <ele>902.4</ele>
        <time>2021-08-20T14:42:27Z</time>
      </trkpt>
      <trkpt lat="44.26589" lon="2.92131">
        <ele>902</ele>
        <time>2021-08-20T14:42:28Z</time>
      </trkpt>
      <trkpt lat="44.26584" lon="2.92137">
        <ele>900.4</ele>
        <time>2021-08-20T14:42:29Z</time>
      </trkpt>
      <trkpt lat="44.2657" lon="2.92153">
        <ele>899.4</ele>
        <time>2021-08-20T14:42:32Z</time>
      </trkpt>
      <trkpt lat="44.26566" lon="2.92158">
        <ele>899.2</ele>
        <time>2021-08-20T14:42:33Z</time>
      </trkpt>
      <trkpt lat="44.2656" lon="2.92164">
        <ele>898.8</ele>
        <time>2021-08-20T14:42:34Z</time>
      </trkpt>
      <trkpt lat="44.26556" lon="2.92168">
        <ele>898.6</ele>
        <time>2021-08-20T14:42:35Z</time>
      </trkpt>
      <trkpt lat="44.26553" lon="2.92171">
        <ele>898</ele>
        <time>2021-08-20T14:42:36Z</time>
      </trkpt>
      <trkpt lat="44.26551" lon="2.92174">
        <ele>897.8</ele>
        <time>2021-08-20T14:42:37Z</time>
      </trkpt>
      <trkpt lat="44.26549" lon="2.92176">
        <ele>897.6</ele>
        <time>2021-08-20T14:42:38Z</time>
      </trkpt>
      <trkpt lat="44.26547" lon="2.92179">
        <ele>897.6</ele>
        <time>2021-08-20T14:42:39Z</time>
      </trkpt>
      <trkpt lat="44.26546" lon="2.9218">
        <ele>897.6</ele>
        <time>2021-08-20T14:42:40Z</time>
      </trkpt>
      <trkpt lat="44.26546" lon="2.92182">
        <ele>897.4</ele>
        <time>2021-08-20T14:42:41Z</time>
      </trkpt>
      <trkpt lat="44.26546" lon="2.92184">
        <ele>897.4</ele>
        <time>2021-08-20T14:42:42Z</time>
      </trkpt>
      <trkpt lat="44.26546" lon="2.92186">
        <ele>897.4</ele>
        <time>2021-08-20T14:42:43Z</time>
      </trkpt>
      <trkpt lat="44.26545" lon="2.92188">
        <ele>897.2</ele>
        <time>2021-08-20T14:42:44Z</time>
      </trkpt>
      <trkpt lat="44.26543" lon="2.92187">
        <ele>897.2</ele>
        <time>2021-08-20T14:42:46Z</time>
      </trkpt>
      <trkpt lat="44.26542" lon="2.92186">
        <ele>897.2</ele>
        <time>2021-08-20T14:42:47Z</time>
      </trkpt>
      <trkpt lat="44.26543" lon="2.92185">
        <ele>897.2</ele>
        <time>2021-08-20T14:42:48Z</time>
      </trkpt>
      <trkpt lat="44.26544" lon="2.92183">
        <ele>897.2</ele>
        <time>2021-08-20T14:42:49Z</time>
      </trkpt>
      <trkpt lat="44.26558" lon="2.92168">
        <ele>897.2</ele>
        <time>2021-08-20T14:42:56Z</time>
      </trkpt>
      <trkpt lat="44.26572" lon="2.92151">
        <ele>897</ele>
        <time>2021-08-20T14:43:02Z</time>
      </trkpt>
      <trkpt lat="44.26575" lon="2.92147">
        <ele>897</ele>
        <time>2021-08-20T14:43:03Z</time>
      </trkpt>
      <trkpt lat="44.2658" lon="2.92141">
        <ele>897</ele>
        <time>2021-08-20T14:43:05Z</time>
      </trkpt>
      <trkpt lat="44.26583" lon="2.92138">
        <ele>897.2</ele>
        <time>2021-08-20T14:43:06Z</time>
      </trkpt>
      <trkpt lat="44.26585" lon="2.92135">
        <ele>897.2</ele>
        <time>2021-08-20T14:43:07Z</time>
      </trkpt>
      <trkpt lat="44.26594" lon="2.92127">
        <ele>897.4</ele>
        <time>2021-08-20T14:43:10Z</time>
      </trkpt>
      <trkpt lat="44.26598" lon="2.92124">
        <ele>897.4</ele>
        <time>2021-08-20T14:43:11Z</time>
      </trkpt>
      <trkpt lat="44.26613" lon="2.9211">
        <ele>897.6</ele>
        <time>2021-08-20T14:43:14Z</time>
      </trkpt>
      <trkpt lat="44.26617" lon="2.92108">
        <ele>897.6</ele>
        <time>2021-08-20T14:43:15Z</time>
      </trkpt>
      <trkpt lat="44.26623" lon="2.92106">
        <ele>897.8</ele>
        <time>2021-08-20T14:43:16Z</time>
      </trkpt>
      <trkpt lat="44.26627" lon="2.92105">
        <ele>898</ele>
        <time>2021-08-20T14:43:17Z</time>
      </trkpt>
      <trkpt lat="44.26631" lon="2.92105">
        <ele>898.2</ele>
        <time>2021-08-20T14:43:18Z</time>
      </trkpt>
      <trkpt lat="44.26634" lon="2.92105">
        <ele>898.6</ele>
        <time>2021-08-20T14:43:19Z</time>
      </trkpt>
      <trkpt lat="44.26638" lon="2.92105">
        <ele>898.8</ele>
        <time>2021-08-20T14:43:20Z</time>
      </trkpt>
      <trkpt lat="44.2664" lon="2.92105">
        <ele>899.2</ele>
        <time>2021-08-20T14:43:21Z</time>
      </trkpt>
      <trkpt lat="44.26643" lon="2.92107">
        <ele>900.2</ele>
        <time>2021-08-20T14:43:22Z</time>
      </trkpt>
      <trkpt lat="44.26646" lon="2.92107">
        <ele>900.6</ele>
        <time>2021-08-20T14:43:23Z</time>
      </trkpt>
      <trkpt lat="44.26649" lon="2.92108">
        <ele>902</ele>
        <time>2021-08-20T14:43:24Z</time>
      </trkpt>
      <trkpt lat="44.26651" lon="2.92109">
        <ele>902.6</ele>
        <time>2021-08-20T14:43:25Z</time>
      </trkpt>
      <trkpt lat="44.26653" lon="2.9211">
        <ele>903.4</ele>
        <time>2021-08-20T14:43:26Z</time>
      </trkpt>
      <trkpt lat="44.26655" lon="2.92112">
        <ele>903.6</ele>
        <time>2021-08-20T14:43:27Z</time>
      </trkpt>
      <trkpt lat="44.26657" lon="2.92113">
        <ele>904.2</ele>
        <time>2021-08-20T14:43:28Z</time>
      </trkpt>
      <trkpt lat="44.26659" lon="2.92115">
        <ele>904.6</ele>
        <time>2021-08-20T14:43:29Z</time>
      </trkpt>
      <trkpt lat="44.26661" lon="2.92117">
        <ele>905</ele>
        <time>2021-08-20T14:43:30Z</time>
      </trkpt>
      <trkpt lat="44.26663" lon="2.92119">
        <ele>905.6</ele>
        <time>2021-08-20T14:43:31Z</time>
      </trkpt>
      <trkpt lat="44.26666" lon="2.9212">
        <ele>906</ele>
        <time>2021-08-20T14:43:32Z</time>
      </trkpt>
      <trkpt lat="44.26669" lon="2.92121">
        <ele>906.6</ele>
        <time>2021-08-20T14:43:33Z</time>
      </trkpt>
      <trkpt lat="44.26672" lon="2.92122">
        <ele>906.6</ele>
        <time>2021-08-20T14:43:34Z</time>
      </trkpt>
      <trkpt lat="44.26674" lon="2.92122">
        <ele>906.8</ele>
        <time>2021-08-20T14:43:35Z</time>
      </trkpt>
      <trkpt lat="44.26677" lon="2.92121">
        <ele>907</ele>
        <time>2021-08-20T14:43:36Z</time>
      </trkpt>
      <trkpt lat="44.26678" lon="2.9212">
        <ele>907.4</ele>
        <time>2021-08-20T14:43:37Z</time>
      </trkpt>
      <trkpt lat="44.2668" lon="2.92118">
        <ele>907.6</ele>
        <time>2021-08-20T14:43:38Z</time>
      </trkpt>
      <trkpt lat="44.26681" lon="2.92116">
        <ele>907.8</ele>
        <time>2021-08-20T14:43:39Z</time>
      </trkpt>
      <trkpt lat="44.26681" lon="2.92114">
        <ele>908.4</ele>
        <time>2021-08-20T14:43:40Z</time>
      </trkpt>
      <trkpt lat="44.26681" lon="2.92113">
        <ele>908.6</ele>
        <time>2021-08-20T14:43:41Z</time>
      </trkpt>
      <trkpt lat="44.26681" lon="2.92113">
        <ele>909</ele>
        <time>2021-08-20T14:43:42Z</time>
      </trkpt>
      <trkpt lat="44.26681" lon="2.92113">
        <ele>909.2</ele>
        <time>2021-08-20T14:43:43Z</time>
      </trkpt>
      <trkpt lat="44.26681" lon="2.92113">
        <ele>909.4</ele>
        <time>2021-08-20T14:43:45Z</time>
      </trkpt>
      <trkpt lat="44.26681" lon="2.92113">
        <ele>909.4</ele>
        <time>2021-08-20T14:43:46Z</time>
      </trkpt>
      <trkpt lat="44.26681" lon="2.92113">
        <ele>909.6</ele>
        <time>2021-08-20T14:43:47Z</time>
      </trkpt>
      <trkpt lat="44.26681" lon="2.92113">
        <ele>909.4</ele>
        <time>2021-08-20T14:45:09Z</time>
      </trkpt>
      <trkpt lat="44.26678" lon="2.92113">
        <ele>909.4</ele>
        <time>2021-08-20T14:45:11Z</time>
      </trkpt>
      <trkpt lat="44.26675" lon="2.92111">
        <ele>909.2</ele>
        <time>2021-08-20T14:45:13Z</time>
      </trkpt>
      <trkpt lat="44.26673" lon="2.92109">
        <ele>909.2</ele>
        <time>2021-08-20T14:45:14Z</time>
      </trkpt>
      <trkpt lat="44.2667" lon="2.92108">
        <ele>909.2</ele>
        <time>2021-08-20T14:45:15Z</time>
      </trkpt>
      <trkpt lat="44.26664" lon="2.92104">
        <ele>908.2</ele>
        <time>2021-08-20T14:45:18Z</time>
      </trkpt>
      <trkpt lat="44.26656" lon="2.92099">
        <ele>908</ele>
        <time>2021-08-20T14:45:21Z</time>
      </trkpt>
      <trkpt lat="44.26652" lon="2.92096">
        <ele>907.8</ele>
        <time>2021-08-20T14:45:22Z</time>
      </trkpt>
      <trkpt lat="44.26648" lon="2.92093">
        <ele>907.6</ele>
        <time>2021-08-20T14:45:23Z</time>
      </trkpt>
      <trkpt lat="44.26639" lon="2.92088">
        <ele>906.6</ele>
        <time>2021-08-20T14:45:25Z</time>
      </trkpt>
      <trkpt lat="44.26636" lon="2.92087">
        <ele>906.2</ele>
        <time>2021-08-20T14:45:26Z</time>
      </trkpt>
      <trkpt lat="44.26632" lon="2.92085">
        <ele>906</ele>
        <time>2021-08-20T14:45:27Z</time>
      </trkpt>
      <trkpt lat="44.26626" lon="2.92082">
        <ele>905.6</ele>
        <time>2021-08-20T14:45:29Z</time>
      </trkpt>
      <trkpt lat="44.26622" lon="2.9208">
        <ele>905.4</ele>
        <time>2021-08-20T14:45:30Z</time>
      </trkpt>
      <trkpt lat="44.2661" lon="2.92076">
        <ele>905</ele>
        <time>2021-08-20T14:45:33Z</time>
      </trkpt>
      <trkpt lat="44.26606" lon="2.92075">
        <ele>905</ele>
        <time>2021-08-20T14:45:34Z</time>
      </trkpt>
      <trkpt lat="44.26597" lon="2.92077">
        <ele>904.8</ele>
        <time>2021-08-20T14:45:36Z</time>
      </trkpt>
      <trkpt lat="44.26594" lon="2.92079">
        <ele>904.6</ele>
        <time>2021-08-20T14:45:37Z</time>
      </trkpt>
      <trkpt lat="44.2659" lon="2.92081">
        <ele>904.6</ele>
        <time>2021-08-20T14:45:38Z</time>
      </trkpt>
      <trkpt lat="44.26586" lon="2.92082">
        <ele>904.6</ele>
        <time>2021-08-20T14:45:39Z</time>
      </trkpt>
      <trkpt lat="44.26583" lon="2.92084">
        <ele>904.4</ele>
        <time>2021-08-20T14:45:40Z</time>
      </trkpt>
      <trkpt lat="44.26579" lon="2.92085">
        <ele>904.6</ele>
        <time>2021-08-20T14:45:41Z</time>
      </trkpt>
      <trkpt lat="44.26576" lon="2.92086">
        <ele>904.8</ele>
        <time>2021-08-20T14:45:42Z</time>
      </trkpt>
      <trkpt lat="44.26574" lon="2.92087">
        <ele>904.8</ele>
        <time>2021-08-20T14:45:43Z</time>
      </trkpt>
      <trkpt lat="44.2657" lon="2.92088">
        <ele>905</ele>
        <time>2021-08-20T14:45:44Z</time>
      </trkpt>
      <trkpt lat="44.26567" lon="2.92089">
        <ele>905.2</ele>
        <time>2021-08-20T14:45:45Z</time>
      </trkpt>
      <trkpt lat="44.26564" lon="2.9209">
        <ele>905.2</ele>
        <time>2021-08-20T14:45:46Z</time>
      </trkpt>
      <trkpt lat="44.26561" lon="2.9209">
        <ele>905.2</ele>
        <time>2021-08-20T14:45:47Z</time>
      </trkpt>
      <trkpt lat="44.26558" lon="2.92091">
        <ele>905.8</ele>
        <time>2021-08-20T14:45:48Z</time>
      </trkpt>
      <trkpt lat="44.26555" lon="2.92091">
        <ele>905.8</ele>
        <time>2021-08-20T14:45:49Z</time>
      </trkpt>
      <trkpt lat="44.26547" lon="2.92091">
        <ele>906.4</ele>
        <time>2021-08-20T14:45:52Z</time>
      </trkpt>
      <trkpt lat="44.26544" lon="2.92092">
        <ele>906.6</ele>
        <time>2021-08-20T14:45:53Z</time>
      </trkpt>
      <trkpt lat="44.26542" lon="2.92092">
        <ele>906.8</ele>
        <time>2021-08-20T14:45:54Z</time>
      </trkpt>
      <trkpt lat="44.2653" lon="2.92094">
        <ele>907.2</ele>
        <time>2021-08-20T14:45:58Z</time>
      </trkpt>
      <trkpt lat="44.26527" lon="2.92096">
        <ele>907.2</ele>
        <time>2021-08-20T14:45:59Z</time>
      </trkpt>
      <trkpt lat="44.26525" lon="2.92097">
        <ele>907</ele>
        <time>2021-08-20T14:46:00Z</time>
      </trkpt>
      <trkpt lat="44.2652" lon="2.92098">
        <ele>907</ele>
        <time>2021-08-20T14:46:02Z</time>
      </trkpt>
      <trkpt lat="44.26517" lon="2.92099">
        <ele>906.8</ele>
        <time>2021-08-20T14:46:03Z</time>
      </trkpt>
      <trkpt lat="44.26515" lon="2.92099">
        <ele>906.8</ele>
        <time>2021-08-20T14:46:04Z</time>
      </trkpt>
      <trkpt lat="44.26513" lon="2.92097">
        <ele>906.8</ele>
        <time>2021-08-20T14:46:05Z</time>
      </trkpt>
      <trkpt lat="44.26512" lon="2.92095">
        <ele>906.6</ele>
        <time>2021-08-20T14:46:06Z</time>
      </trkpt>
      <trkpt lat="44.2651" lon="2.92094">
        <ele>906.6</ele>
        <time>2021-08-20T14:46:07Z</time>
      </trkpt>
      <trkpt lat="44.26509" lon="2.92092">
        <ele>906.2</ele>
        <time>2021-08-20T14:46:08Z</time>
      </trkpt>
      <trkpt lat="44.26507" lon="2.92092">
        <ele>906.2</ele>
        <time>2021-08-20T14:46:09Z</time>
      </trkpt>
      <trkpt lat="44.26506" lon="2.92091">
        <ele>906</ele>
        <time>2021-08-20T14:46:10Z</time>
      </trkpt>
      <trkpt lat="44.26505" lon="2.92091">
        <ele>906</ele>
        <time>2021-08-20T14:46:11Z</time>
      </trkpt>
      <trkpt lat="44.26501" lon="2.92092">
        <ele>904.4</ele>
        <time>2021-08-20T14:48:00Z</time>
      </trkpt>
      <trkpt lat="44.265" lon="2.92094">
        <ele>904.4</ele>
        <time>2021-08-20T14:48:01Z</time>
      </trkpt>
      <trkpt lat="44.265" lon="2.92096">
        <ele>904.4</ele>
        <time>2021-08-20T14:48:02Z</time>
      </trkpt>
      <trkpt lat="44.26502" lon="2.92097">
        <ele>904.2</ele>
        <time>2021-08-20T14:48:04Z</time>
      </trkpt>
      <trkpt lat="44.26505" lon="2.92094">
        <ele>904.2</ele>
        <time>2021-08-20T14:48:06Z</time>
      </trkpt>
      <trkpt lat="44.26504" lon="2.92091">
        <ele>904</ele>
        <time>2021-08-20T14:48:08Z</time>
      </trkpt>
      <trkpt lat="44.26503" lon="2.9209">
        <ele>904</ele>
        <time>2021-08-20T14:48:09Z</time>
      </trkpt>
      <trkpt lat="44.26503" lon="2.92091">
        <ele>904.6</ele>
        <time>2021-08-20T14:48:57Z</time>
      </trkpt>
      <trkpt lat="44.26503" lon="2.92091">
        <ele>904.6</ele>
        <time>2021-08-20T14:48:58Z</time>
      </trkpt>
      <trkpt lat="44.26492" lon="2.921">
        <ele>904.4</ele>
        <time>2021-08-20T14:49:03Z</time>
      </trkpt>
      <trkpt lat="44.26485" lon="2.92106">
        <ele>904.2</ele>
        <time>2021-08-20T14:49:06Z</time>
      </trkpt>
      <trkpt lat="44.26483" lon="2.92108">
        <ele>904.2</ele>
        <time>2021-08-20T14:49:07Z</time>
      </trkpt>
      <trkpt lat="44.26482" lon="2.92109">
        <ele>904</ele>
        <time>2021-08-20T14:49:08Z</time>
      </trkpt>
      <trkpt lat="44.2648" lon="2.92111">
        <ele>904</ele>
        <time>2021-08-20T14:49:09Z</time>
      </trkpt>
      <trkpt lat="44.26459" lon="2.9213">
        <ele>903.6</ele>
        <time>2021-08-20T14:49:17Z</time>
      </trkpt>
      <trkpt lat="44.26453" lon="2.92137">
        <ele>903.4</ele>
        <time>2021-08-20T14:49:19Z</time>
      </trkpt>
      <trkpt lat="44.26439" lon="2.92156">
        <ele>903</ele>
        <time>2021-08-20T14:49:23Z</time>
      </trkpt>
      <trkpt lat="44.26436" lon="2.9216">
        <ele>902.8</ele>
        <time>2021-08-20T14:49:24Z</time>
      </trkpt>
      <trkpt lat="44.26433" lon="2.92165">
        <ele>902.8</ele>
        <time>2021-08-20T14:49:25Z</time>
      </trkpt>
      <trkpt lat="44.26429" lon="2.92168">
        <ele>902.6</ele>
        <time>2021-08-20T14:49:26Z</time>
      </trkpt>
      <trkpt lat="44.26425" lon="2.92172">
        <ele>902.4</ele>
        <time>2021-08-20T14:49:27Z</time>
      </trkpt>
      <trkpt lat="44.26418" lon="2.92179">
        <ele>901.6</ele>
        <time>2021-08-20T14:49:29Z</time>
      </trkpt>
      <trkpt lat="44.26406" lon="2.92191">
        <ele>901.2</ele>
        <time>2021-08-20T14:49:32Z</time>
      </trkpt>
      <trkpt lat="44.26395" lon="2.92204">
        <ele>900.4</ele>
        <time>2021-08-20T14:49:35Z</time>
      </trkpt>
      <trkpt lat="44.26391" lon="2.92208">
        <ele>900.2</ele>
        <time>2021-08-20T14:49:36Z</time>
      </trkpt>
      <trkpt lat="44.26388" lon="2.92213">
        <ele>900</ele>
        <time>2021-08-20T14:49:37Z</time>
      </trkpt>
      <trkpt lat="44.26384" lon="2.92217">
        <ele>899.8</ele>
        <time>2021-08-20T14:49:38Z</time>
      </trkpt>
      <trkpt lat="44.26381" lon="2.9222">
        <ele>899.4</ele>
        <time>2021-08-20T14:49:39Z</time>
      </trkpt>
      <trkpt lat="44.26377" lon="2.92224">
        <ele>898.8</ele>
        <time>2021-08-20T14:49:40Z</time>
      </trkpt>
      <trkpt lat="44.26374" lon="2.92227">
        <ele>898.4</ele>
        <time>2021-08-20T14:49:41Z</time>
      </trkpt>
      <trkpt lat="44.2637" lon="2.92231">
        <ele>898</ele>
        <time>2021-08-20T14:49:42Z</time>
      </trkpt>
      <trkpt lat="44.26367" lon="2.92234">
        <ele>897.6</ele>
        <time>2021-08-20T14:49:43Z</time>
      </trkpt>
      <trkpt lat="44.26363" lon="2.92237">
        <ele>897.2</ele>
        <time>2021-08-20T14:49:44Z</time>
      </trkpt>
      <trkpt lat="44.2636" lon="2.92239">
        <ele>896.8</ele>
        <time>2021-08-20T14:49:45Z</time>
      </trkpt>
      <trkpt lat="44.26356" lon="2.92242">
        <ele>896.6</ele>
        <time>2021-08-20T14:49:46Z</time>
      </trkpt>
      <trkpt lat="44.26349" lon="2.92246">
        <ele>895.8</ele>
        <time>2021-08-20T14:49:48Z</time>
      </trkpt>
      <trkpt lat="44.26345" lon="2.92248">
        <ele>895</ele>
        <time>2021-08-20T14:49:49Z</time>
      </trkpt>
      <trkpt lat="44.26342" lon="2.9225">
        <ele>894.8</ele>
        <time>2021-08-20T14:49:50Z</time>
      </trkpt>
      <trkpt lat="44.26339" lon="2.92252">
        <ele>894.4</ele>
        <time>2021-08-20T14:49:51Z</time>
      </trkpt>
      <trkpt lat="44.26336" lon="2.92254">
        <ele>893.8</ele>
        <time>2021-08-20T14:49:52Z</time>
      </trkpt>
      <trkpt lat="44.26323" lon="2.92266">
        <ele>892.4</ele>
        <time>2021-08-20T14:49:56Z</time>
      </trkpt>
      <trkpt lat="44.26319" lon="2.92269">
        <ele>892.2</ele>
        <time>2021-08-20T14:49:57Z</time>
      </trkpt>
      <trkpt lat="44.26314" lon="2.92272">
        <ele>891.8</ele>
        <time>2021-08-20T14:49:58Z</time>
      </trkpt>
      <trkpt lat="44.26305" lon="2.92278">
        <ele>891.2</ele>
        <time>2021-08-20T14:50:00Z</time>
      </trkpt>
      <trkpt lat="44.26301" lon="2.92281">
        <ele>890.6</ele>
        <time>2021-08-20T14:50:01Z</time>
      </trkpt>
      <trkpt lat="44.26293" lon="2.92286">
        <ele>889.6</ele>
        <time>2021-08-20T14:50:03Z</time>
      </trkpt>
      <trkpt lat="44.26279" lon="2.92294">
        <ele>888.4</ele>
        <time>2021-08-20T14:50:06Z</time>
      </trkpt>
      <trkpt lat="44.26274" lon="2.92296">
        <ele>887.6</ele>
        <time>2021-08-20T14:50:07Z</time>
      </trkpt>
      <trkpt lat="44.26268" lon="2.92297">
        <ele>887</ele>
        <time>2021-08-20T14:50:08Z</time>
      </trkpt>
      <trkpt lat="44.26258" lon="2.923">
        <ele>886.2</ele>
        <time>2021-08-20T14:50:10Z</time>
      </trkpt>
      <trkpt lat="44.26253" lon="2.92302">
        <ele>885.8</ele>
        <time>2021-08-20T14:50:11Z</time>
      </trkpt>
      <trkpt lat="44.26248" lon="2.92305">
        <ele>885.2</ele>
        <time>2021-08-20T14:50:12Z</time>
      </trkpt>
      <trkpt lat="44.26243" lon="2.92307">
        <ele>884.8</ele>
        <time>2021-08-20T14:50:13Z</time>
      </trkpt>
      <trkpt lat="44.26238" lon="2.92309">
        <ele>884.2</ele>
        <time>2021-08-20T14:50:14Z</time>
      </trkpt>
      <trkpt lat="44.26233" lon="2.92309">
        <ele>884</ele>
        <time>2021-08-20T14:50:15Z</time>
      </trkpt>
      <trkpt lat="44.26229" lon="2.92307">
        <ele>883.6</ele>
        <time>2021-08-20T14:50:16Z</time>
      </trkpt>
      <trkpt lat="44.26227" lon="2.92303">
        <ele>882.8</ele>
        <time>2021-08-20T14:50:17Z</time>
      </trkpt>
      <trkpt lat="44.26224" lon="2.92298">
        <ele>882.6</ele>
        <time>2021-08-20T14:50:18Z</time>
      </trkpt>
      <trkpt lat="44.26223" lon="2.92293">
        <ele>882.2</ele>
        <time>2021-08-20T14:50:19Z</time>
      </trkpt>
      <trkpt lat="44.26221" lon="2.92287">
        <ele>881.8</ele>
        <time>2021-08-20T14:50:20Z</time>
      </trkpt>
      <trkpt lat="44.2622" lon="2.92281">
        <ele>881.2</ele>
        <time>2021-08-20T14:50:21Z</time>
      </trkpt>
      <trkpt lat="44.26218" lon="2.92276">
        <ele>881</ele>
        <time>2021-08-20T14:50:22Z</time>
      </trkpt>
      <trkpt lat="44.26216" lon="2.92271">
        <ele>880.4</ele>
        <time>2021-08-20T14:50:23Z</time>
      </trkpt>
      <trkpt lat="44.26216" lon="2.92267">
        <ele>880</ele>
        <time>2021-08-20T14:50:24Z</time>
      </trkpt>
      <trkpt lat="44.26215" lon="2.92262">
        <ele>879.8</ele>
        <time>2021-08-20T14:50:25Z</time>
      </trkpt>
      <trkpt lat="44.26214" lon="2.92258">
        <ele>879.4</ele>
        <time>2021-08-20T14:50:26Z</time>
      </trkpt>
      <trkpt lat="44.26214" lon="2.92256">
        <ele>879.2</ele>
        <time>2021-08-20T14:50:27Z</time>
      </trkpt>
      <trkpt lat="44.26214" lon="2.92253">
        <ele>878.8</ele>
        <time>2021-08-20T14:50:28Z</time>
      </trkpt>
      <trkpt lat="44.26214" lon="2.9225">
        <ele>878.6</ele>
        <time>2021-08-20T14:50:29Z</time>
      </trkpt>
      <trkpt lat="44.26214" lon="2.92247">
        <ele>878.2</ele>
        <time>2021-08-20T14:50:30Z</time>
      </trkpt>
      <trkpt lat="44.26215" lon="2.92243">
        <ele>878.2</ele>
        <time>2021-08-20T14:50:31Z</time>
      </trkpt>
      <trkpt lat="44.26217" lon="2.92239">
        <ele>877.8</ele>
        <time>2021-08-20T14:50:32Z</time>
      </trkpt>
      <trkpt lat="44.26219" lon="2.92235">
        <ele>877.8</ele>
        <time>2021-08-20T14:50:33Z</time>
      </trkpt>
      <trkpt lat="44.2622" lon="2.92231">
        <ele>877.6</ele>
        <time>2021-08-20T14:50:34Z</time>
      </trkpt>
      <trkpt lat="44.26223" lon="2.92223">
        <ele>877.4</ele>
        <time>2021-08-20T14:50:36Z</time>
      </trkpt>
      <trkpt lat="44.26224" lon="2.92219">
        <ele>877.4</ele>
        <time>2021-08-20T14:50:37Z</time>
      </trkpt>
      <trkpt lat="44.26225" lon="2.92216">
        <ele>877.4</ele>
        <time>2021-08-20T14:50:38Z</time>
      </trkpt>
      <trkpt lat="44.26224" lon="2.92213">
        <ele>877.2</ele>
        <time>2021-08-20T14:50:39Z</time>
      </trkpt>
      <trkpt lat="44.26224" lon="2.9221">
        <ele>877.2</ele>
        <time>2021-08-20T14:50:40Z</time>
      </trkpt>
      <trkpt lat="44.26225" lon="2.92206">
        <ele>877.2</ele>
        <time>2021-08-20T14:50:41Z</time>
      </trkpt>
      <trkpt lat="44.26231" lon="2.92197">
        <ele>877.4</ele>
        <time>2021-08-20T14:50:44Z</time>
      </trkpt>
      <trkpt lat="44.26233" lon="2.92194">
        <ele>877.4</ele>
        <time>2021-08-20T14:50:45Z</time>
      </trkpt>
      <trkpt lat="44.26235" lon="2.92191">
        <ele>877.8</ele>
        <time>2021-08-20T14:50:46Z</time>
      </trkpt>
      <trkpt lat="44.26236" lon="2.92187">
        <ele>877.8</ele>
        <time>2021-08-20T14:50:47Z</time>
      </trkpt>
      <trkpt lat="44.26238" lon="2.92184">
        <ele>878</ele>
        <time>2021-08-20T14:50:48Z</time>
      </trkpt>
      <trkpt lat="44.26244" lon="2.92175">
        <ele>878.8</ele>
        <time>2021-08-20T14:50:51Z</time>
      </trkpt>
      <trkpt lat="44.26245" lon="2.92172">
        <ele>879</ele>
        <time>2021-08-20T14:50:52Z</time>
      </trkpt>
      <trkpt lat="44.26247" lon="2.92169">
        <ele>879.2</ele>
        <time>2021-08-20T14:50:53Z</time>
      </trkpt>
      <trkpt lat="44.26248" lon="2.92166">
        <ele>879.2</ele>
        <time>2021-08-20T14:50:54Z</time>
      </trkpt>
      <trkpt lat="44.26249" lon="2.92163">
        <ele>879.4</ele>
        <time>2021-08-20T14:50:55Z</time>
      </trkpt>
      <trkpt lat="44.2625" lon="2.9216">
        <ele>879.6</ele>
        <time>2021-08-20T14:50:56Z</time>
      </trkpt>
      <trkpt lat="44.2625" lon="2.92157">
        <ele>879.8</ele>
        <time>2021-08-20T14:50:57Z</time>
      </trkpt>
      <trkpt lat="44.2625" lon="2.92154">
        <ele>880.2</ele>
        <time>2021-08-20T14:50:58Z</time>
      </trkpt>
      <trkpt lat="44.26249" lon="2.92152">
        <ele>880.4</ele>
        <time>2021-08-20T14:50:59Z</time>
      </trkpt>
      <trkpt lat="44.26248" lon="2.92151">
        <ele>880.4</ele>
        <time>2021-08-20T14:51:00Z</time>
      </trkpt>
      <trkpt lat="44.26248" lon="2.92149">
        <ele>880.6</ele>
        <time>2021-08-20T14:51:01Z</time>
      </trkpt>
      <trkpt lat="44.26247" lon="2.92148">
        <ele>880.8</ele>
        <time>2021-08-20T14:51:02Z</time>
      </trkpt>
      <trkpt lat="44.26246" lon="2.92147">
        <ele>881.2</ele>
        <time>2021-08-20T14:51:06Z</time>
      </trkpt>
      <trkpt lat="44.26245" lon="2.92147">
        <ele>881.2</ele>
        <time>2021-08-20T14:51:07Z</time>
      </trkpt>
      <trkpt lat="44.26245" lon="2.92147">
        <ele>881.2</ele>
        <time>2021-08-20T14:51:08Z</time>
      </trkpt>
      <trkpt lat="44.26244" lon="2.92147">
        <ele>881.4</ele>
        <time>2021-08-20T14:51:11Z</time>
      </trkpt>
      <trkpt lat="44.26244" lon="2.92147">
        <ele>881.4</ele>
        <time>2021-08-20T14:51:12Z</time>
      </trkpt>
      <trkpt lat="44.26244" lon="2.92146">
        <ele>881.4</ele>
        <time>2021-08-20T14:51:13Z</time>
      </trkpt>
      <trkpt lat="44.26244" lon="2.92146">
        <ele>881.2</ele>
        <time>2021-08-20T14:51:14Z</time>
      </trkpt>
      <trkpt lat="44.26244" lon="2.92146">
        <ele>881.2</ele>
        <time>2021-08-20T14:51:15Z</time>
      </trkpt>
      <trkpt lat="44.26243" lon="2.92146">
        <ele>881</ele>
        <time>2021-08-20T14:51:16Z</time>
      </trkpt>
      <trkpt lat="44.26242" lon="2.92145">
        <ele>881</ele>
        <time>2021-08-20T14:51:17Z</time>
      </trkpt>
      <trkpt lat="44.2624" lon="2.92145">
        <ele>880.8</ele>
        <time>2021-08-20T14:51:20Z</time>
      </trkpt>
    </trkseg>
  </trk>
</gpx>